<?xml version="1.0" encoding="UTF-8" standalone="no" ?>
<gpx xmlns="http://www.topografix.com/GPX/1/1" xmlns:xsi="http://www.w3.org/2001/XMLSchema-instance" xsi:schemaLocation="http://www.topografix.com/GPX/1/1 http://www.topografix.com/GPX/1/1/gpx.xsd" version="1.1" creator="VisuGPX - https://www.visugpx.com">
  <metadata>
    <name>Sortie Gravel 14_06_20</name>
  </metadata>
  <trk>
    <name><![CDATA[Sortie Gravel 14_06_20_1]]></name>
    <extensions>
      <line xmlns="http://www.topografix.com/GPX/gpx_style/0/2">
        <color>0000FF</color>
        <width>4</width>
      </line>
    </extensions>
    <trkseg>
      <trkpt lat="46.53484" lon="0.26671">
        <ele>142.538113</ele>
        <time>2020-06-13T19:26:27.000Z</time>
        <extensions>
          <visugpx:TrkExtension xmlns:visugpx="https://www.visugpx.com/editgpx/">
            <visugpx:node>27</visugpx:node>
            </visugpx:TrkExtension>
        </extensions>
      </trkpt>
      <trkpt lat="46.53487" lon="0.26656">
        <ele>142.726908</ele>
        <time>2020-06-13T19:26:29.465Z</time>
      </trkpt>
      <trkpt lat="46.53497" lon="0.26645">
        <ele>142.883853</ele>
        <time>2020-06-13T19:26:32.190Z</time>
      </trkpt>
      <trkpt lat="46.53512" lon="0.26623">
        <ele>143.1131</ele>
        <time>2020-06-13T19:26:36.739Z</time>
      </trkpt>
      <trkpt lat="46.53522" lon="0.26611">
        <ele>143.248389</ele>
        <time>2020-06-13T19:26:39.498Z</time>
      </trkpt>
      <trkpt lat="46.53545" lon="0.26589">
        <ele>143.547897</ele>
        <time>2020-06-13T19:26:45.383Z</time>
      </trkpt>
      <trkpt lat="46.53565" lon="0.26566">
        <ele>143.822753</ele>
        <time>2020-06-13T19:26:50.828Z</time>
      </trkpt>
      <trkpt lat="46.53608" lon="0.26499">
        <ele>144.493274</ele>
        <time>2020-06-13T19:27:04.267Z</time>
      </trkpt>
      <trkpt lat="46.53612" lon="0.26502">
        <ele>144.544434</ele>
        <time>2020-06-13T19:27:05.234Z</time>
      </trkpt>
      <trkpt lat="46.53618" lon="0.26509">
        <ele>144.625657</ele>
        <time>2020-06-13T19:27:06.873Z</time>
      </trkpt>
      <trkpt lat="46.53623" lon="0.26504">
        <ele>144.687696</ele>
        <time>2020-06-13T19:27:08.162Z</time>
      </trkpt>
      <trkpt lat="46.53647" lon="0.26483">
        <ele>144.625595</ele>
        <time>2020-06-13T19:27:13.375Z</time>
      </trkpt>
      <trkpt lat="46.5365" lon="0.26478">
        <ele>144.609512</ele>
        <time>2020-06-13T19:27:14.208Z</time>
      </trkpt>
      <trkpt lat="46.53694" lon="0.26444">
        <ele>144.432584</ele>
        <time>2020-06-13T19:27:23.303Z</time>
      </trkpt>
      <trkpt lat="46.53699" lon="0.26441">
        <ele>144.411871</ele>
        <time>2020-06-13T19:27:24.286Z</time>
      </trkpt>
      <trkpt lat="46.53671" lon="0.26321">
        <ele>144.102234</ele>
        <time>2020-06-13T19:27:40.194Z</time>
      </trkpt>
      <trkpt lat="46.53644" lon="0.26232">
        <ele>143.363556</ele>
        <time>2020-06-13T19:27:49.982Z</time>
      </trkpt>
      <trkpt lat="46.5363" lon="0.26201">
        <ele>143.055573</ele>
        <time>2020-06-13T19:27:53.664Z</time>
      </trkpt>
      <trkpt lat="46.53609" lon="0.26161">
        <ele>142.63832</ele>
        <time>2020-06-13T19:27:58.661Z</time>
      </trkpt>
      <trkpt lat="46.53616" lon="0.26153">
        <ele>142.534249</ele>
        <time>2020-06-13T19:27:59.953Z</time>
      </trkpt>
      <trkpt lat="46.53662" lon="0.26103">
        <ele>141.82236</ele>
        <time>2020-06-13T19:28:08.208Z</time>
      </trkpt>
      <trkpt lat="46.53664" lon="0.26103">
        <ele>141.793705</ele>
        <time>2020-06-13T19:28:08.488Z</time>
      </trkpt>
      <trkpt lat="46.53669" lon="0.26075">
        <ele>141.499491</ele>
        <time>2020-06-13T19:28:11.263Z</time>
      </trkpt>
      <trkpt lat="46.53685" lon="0.26004">
        <ele>140.731657</ele>
        <time>2020-06-13T19:28:18.416Z</time>
      </trkpt>
      <trkpt lat="46.53687" lon="0.25997">
        <ele>140.656355</ele>
        <time>2020-06-13T19:28:19.146Z</time>
      </trkpt>
      <trkpt lat="46.53683" lon="0.25989">
        <ele>140.550462</ele>
        <time>2020-06-13T19:28:20.085Z</time>
      </trkpt>
      <trkpt lat="46.53687" lon="0.25961">
        <ele>140.262573</ele>
        <time>2020-06-13T19:28:22.833Z</time>
      </trkpt>
      <trkpt lat="46.53695" lon="0.25912">
        <ele>139.748496</ele>
        <time>2020-06-13T19:28:27.661Z</time>
      </trkpt>
      <trkpt lat="46.53689" lon="0.25862">
        <ele>139.228151</ele>
        <time>2020-06-13T19:28:32.522Z</time>
      </trkpt>
      <trkpt lat="46.53657" lon="0.25801">
        <ele>138.57942</ele>
        <time>2020-06-13T19:28:40.116Z</time>
      </trkpt>
      <trkpt lat="46.53642" lon="0.25801">
        <ele>138.392713</ele>
        <time>2020-06-13T19:28:42.271Z</time>
      </trkpt>
      <trkpt lat="46.53641" lon="0.25794">
        <ele>138.334704</ele>
        <time>2020-06-13T19:28:42.983Z</time>
      </trkpt>
      <trkpt lat="46.53646" lon="0.25793">
        <ele>138.271818</ele>
        <time>2020-06-13T19:28:43.708Z</time>
      </trkpt>
      <trkpt lat="46.5365" lon="0.2579">
        <ele>138.21653</ele>
        <time>2020-06-13T19:28:44.356Z</time>
      </trkpt>
      <trkpt lat="46.53655" lon="0.25786">
        <ele>138.150056</ele>
        <time>2020-06-13T19:28:45.184Z</time>
      </trkpt>
      <trkpt lat="46.53656" lon="0.25789">
        <ele>138.120579</ele>
        <time>2020-06-13T19:28:45.512Z</time>
      </trkpt>
      <trkpt lat="46.53659" lon="0.25791">
        <ele>138.087217</ele>
        <time>2020-06-13T19:28:46.001Z</time>
      </trkpt>
      <trkpt lat="46.53662" lon="0.25792">
        <ele>138.048213</ele>
        <time>2020-06-13T19:28:46.441Z</time>
      </trkpt>
      <trkpt lat="46.53666" lon="0.2579">
        <ele>138.000262</ele>
        <time>2020-06-13T19:28:47.058Z</time>
      </trkpt>
      <trkpt lat="46.53668" lon="0.25788">
        <ele>137.966476</ele>
        <time>2020-06-13T19:28:47.400Z</time>
      </trkpt>
      <trkpt lat="46.5367" lon="0.25781">
        <ele>137.90039</ele>
        <time>2020-06-13T19:28:48.147Z</time>
      </trkpt>
      <trkpt lat="46.5367" lon="0.25777">
        <ele>137.862189</ele>
        <time>2020-06-13T19:28:48.535Z</time>
      </trkpt>
      <trkpt lat="46.53668" lon="0.25772">
        <ele>137.821992</ele>
        <time>2020-06-13T19:28:49.124Z</time>
      </trkpt>
      <trkpt lat="46.53666" lon="0.25769">
        <ele>137.780146</ele>
        <time>2020-06-13T19:28:49.526Z</time>
      </trkpt>
      <trkpt lat="46.53663" lon="0.25768">
        <ele>137.746089</ele>
        <time>2020-06-13T19:28:49.976Z</time>
      </trkpt>
      <trkpt lat="46.53664" lon="0.25761">
        <ele>137.685784</ele>
        <time>2020-06-13T19:28:50.684Z</time>
      </trkpt>
      <trkpt lat="46.53795" lon="0.25461">
        <ele>135.776127</ele>
        <time>2020-06-13T19:29:28.019Z</time>
      </trkpt>
      <trkpt lat="46.53816" lon="0.25424">
        <ele>135.772545</ele>
        <time>2020-06-13T19:29:34.358Z</time>
      </trkpt>
      <trkpt lat="46.53822" lon="0.25416">
        <ele>135.77166</ele>
        <time>2020-06-13T19:29:35.922Z</time>
      </trkpt>
      <trkpt lat="46.53829" lon="0.25407">
        <ele>135.77054</ele>
        <time>2020-06-13T19:29:37.718Z</time>
      </trkpt>
      <trkpt lat="46.53875" lon="0.2537">
        <ele>135.764759</ele>
        <time>2020-06-13T19:29:47.817Z</time>
      </trkpt>
      <trkpt lat="46.53898" lon="0.25359">
        <ele>135.762043</ele>
        <time>2020-06-13T19:29:52.469Z</time>
      </trkpt>
      <trkpt lat="46.53924" lon="0.25348">
        <ele>135.759137</ele>
        <time>2020-06-13T19:29:57.671Z</time>
      </trkpt>
      <trkpt lat="46.53962" lon="0.25332">
        <ele>136.037387</ele>
        <time>2020-06-13T19:30:05.808Z</time>
      </trkpt>
      <trkpt lat="46.53998" lon="0.25315">
        <ele>136.456112</ele>
        <time>2020-06-13T19:30:13.914Z</time>
      </trkpt>
      <trkpt lat="46.54015" lon="0.25307">
        <ele>136.649801</ele>
        <time>2020-06-13T19:30:17.731Z</time>
      </trkpt>
      <trkpt lat="46.54073" lon="0.25268">
        <ele>137.351044</ele>
        <time>2020-06-13T19:30:31.403Z</time>
      </trkpt>
      <trkpt lat="46.54121" lon="0.25224">
        <ele>138.129079</ele>
        <time>2020-06-13T19:30:43.891Z</time>
      </trkpt>
      <trkpt lat="46.54132" lon="0.25215">
        <ele>138.352732</ele>
        <time>2020-06-13T19:30:46.791Z</time>
      </trkpt>
      <trkpt lat="46.54155" lon="0.25195">
        <ele>138.814237</ele>
        <time>2020-06-13T19:30:52.914Z</time>
      </trkpt>
      <trkpt lat="46.54178" lon="0.25173">
        <ele>139.299865</ele>
        <time>2020-06-13T19:30:59.233Z</time>
      </trkpt>
      <trkpt lat="46.54196" lon="0.25157">
        <ele>139.670697</ele>
        <time>2020-06-13T19:31:04.072Z</time>
      </trkpt>
      <trkpt lat="46.54224" lon="0.25131">
        <ele>140.252558</ele>
        <time>2020-06-13T19:31:11.687Z</time>
      </trkpt>
      <trkpt lat="46.54344" lon="0.25023">
        <ele>141.639822</ele>
        <time>2020-06-13T19:31:41.534Z</time>
      </trkpt>
      <trkpt lat="46.5436" lon="0.25009">
        <ele>141.770688</ele>
        <time>2020-06-13T19:31:45.374Z</time>
      </trkpt>
      <trkpt lat="46.54356" lon="0.25002">
        <ele>141.812004</ele>
        <time>2020-06-13T19:31:46.656Z</time>
      </trkpt>
      <trkpt lat="46.54345" lon="0.2499">
        <ele>141.907283</ele>
        <time>2020-06-13T19:31:49.482Z</time>
      </trkpt>
      <trkpt lat="46.54099" lon="0.24832">
        <ele>140.069383</ele>
        <time>2020-06-13T19:32:36.330Z</time>
      </trkpt>
      <trkpt lat="46.54095" lon="0.24828">
        <ele>140.018226</ele>
        <time>2020-06-13T19:32:37.045Z</time>
      </trkpt>
      <trkpt lat="46.54091" lon="0.24823">
        <ele>139.958733</ele>
        <time>2020-06-13T19:32:37.814Z</time>
      </trkpt>
      <trkpt lat="46.54011" lon="0.24695">
        <ele>138.673077</ele>
        <time>2020-06-13T19:32:55.269Z</time>
      </trkpt>
      <trkpt lat="46.54" lon="0.24683">
        <ele>138.702937</ele>
        <time>2020-06-13T19:32:57.969Z</time>
      </trkpt>
      <trkpt lat="46.53993" lon="0.24675">
        <ele>138.721953</ele>
        <time>2020-06-13T19:32:59.717Z</time>
      </trkpt>
      <trkpt lat="46.5397" lon="0.24648">
        <ele>138.786141</ele>
        <time>2020-06-13T19:33:05.521Z</time>
      </trkpt>
      <trkpt lat="46.53929" lon="0.24586">
        <ele>138.916106</ele>
        <time>2020-06-13T19:33:17.139Z</time>
      </trkpt>
      <trkpt lat="46.53873" lon="0.24518">
        <ele>139.150038</ele>
        <time>2020-06-13T19:33:31.605Z</time>
      </trkpt>
      <trkpt lat="46.53849" lon="0.24467">
        <ele>139.8069</ele>
        <time>2020-06-13T19:33:41.134Z</time>
      </trkpt>
      <trkpt lat="46.53806" lon="0.24311">
        <ele>141.599261</ele>
        <time>2020-06-13T19:34:07.062Z</time>
      </trkpt>
      <trkpt lat="46.53755" lon="0.24179">
        <ele>143.029143</ele>
        <time>2020-06-13T19:34:29.986Z</time>
      </trkpt>
      <trkpt lat="46.53703" lon="0.24073">
        <ele>144.230172</ele>
        <time>2020-06-13T19:34:49.634Z</time>
      </trkpt>
      <trkpt lat="46.53676" lon="0.24003">
        <ele>144.622197</ele>
        <time>2020-06-13T19:35:00.997Z</time>
      </trkpt>
      <trkpt lat="46.5364" lon="0.23884">
        <ele>145.223705</ele>
        <time>2020-06-13T19:35:19.336Z</time>
      </trkpt>
      <trkpt lat="46.53623" lon="0.23803">
        <ele>145.590008</ele>
        <time>2020-06-13T19:35:31.231Z</time>
      </trkpt>
      <trkpt lat="46.53618" lon="0.23778">
        <ele>145.687224</ele>
        <time>2020-06-13T19:35:34.858Z</time>
      </trkpt>
      <trkpt lat="46.53605" lon="0.23735">
        <ele>145.858465</ele>
        <time>2020-06-13T19:35:41.393Z</time>
      </trkpt>
      <trkpt lat="46.53588" lon="0.23688">
        <ele>146.052953</ele>
        <time>2020-06-13T19:35:48.783Z</time>
      </trkpt>
      <trkpt lat="46.53827" lon="0.23473">
        <ele>147.772491</ele>
        <time>2020-06-13T19:36:46.080Z</time>
      </trkpt>
      <trkpt lat="46.53831" lon="0.23461">
        <ele>147.841443</ele>
        <time>2020-06-13T19:36:47.976Z</time>
      </trkpt>
      <trkpt lat="46.53828" lon="0.23448">
        <ele>147.907952</ele>
        <time>2020-06-13T19:36:49.916Z</time>
      </trkpt>
      <trkpt lat="46.53706" lon="0.23193">
        <ele>149.164844</ele>
        <time>2020-06-13T19:37:33.375Z</time>
      </trkpt>
      <trkpt lat="46.53716" lon="0.23176">
        <ele>149.216547</ele>
        <time>2020-06-13T19:37:36.430Z</time>
      </trkpt>
      <trkpt lat="46.53854" lon="0.23053">
        <ele>149.332163</ele>
        <time>2020-06-13T19:38:07.785Z</time>
      </trkpt>
      <trkpt lat="46.53879" lon="0.23013">
        <ele>149.255517</ele>
        <time>2020-06-13T19:38:14.720Z</time>
      </trkpt>
      <trkpt lat="46.53887" lon="0.22988">
        <ele>149.215919</ele>
        <time>2020-06-13T19:38:18.257Z</time>
      </trkpt>
      <trkpt lat="46.53948" lon="0.2264">
        <ele>148.773993</ele>
        <time>2020-06-13T19:39:04.526Z</time>
      </trkpt>
      <trkpt lat="46.53982" lon="0.22525">
        <ele>148.788884</ele>
        <time>2020-06-13T19:39:21.121Z</time>
      </trkpt>
      <trkpt lat="46.54046" lon="0.22337">
        <ele>148.893388</ele>
        <time>2020-06-13T19:39:49.073Z</time>
      </trkpt>
      <trkpt lat="46.54124" lon="0.22148">
        <ele>149.026673</ele>
        <time>2020-06-13T19:40:18.484Z</time>
      </trkpt>
      <trkpt lat="46.5423" lon="0.21911">
        <ele>148.676438</ele>
        <time>2020-06-13T19:40:54.898Z</time>
      </trkpt>
      <trkpt lat="46.54298" lon="0.21804">
        <ele>148.096573</ele>
        <time>2020-06-13T19:41:12.611Z</time>
      </trkpt>
      <trkpt lat="46.54334" lon="0.21761">
        <ele>147.627412</ele>
        <time>2020-06-13T19:41:19.514Z</time>
      </trkpt>
      <trkpt lat="46.54507" lon="0.21632">
        <ele>144.988038</ele>
        <time>2020-06-13T19:41:47.040Z</time>
      </trkpt>
      <trkpt lat="46.54531" lon="0.21622">
        <ele>144.66014</ele>
        <time>2020-06-13T19:41:50.595Z</time>
      </trkpt>
      <trkpt lat="46.54749" lon="0.21567">
        <ele>141.61953</ele>
        <time>2020-06-13T19:42:21.853Z</time>
      </trkpt>
      <trkpt lat="46.54842" lon="0.21517">
        <ele>140.392817</ele>
        <time>2020-06-13T19:42:36.109Z</time>
      </trkpt>
      <trkpt lat="46.54859" lon="0.21508">
        <ele>140.273215</ele>
        <time>2020-06-13T19:42:39.270Z</time>
      </trkpt>
      <trkpt lat="46.54872" lon="0.2157">
        <ele>139.983689</ele>
        <time>2020-06-13T19:42:47.072Z</time>
      </trkpt>
      <trkpt lat="46.54881" lon="0.21596">
        <ele>139.854951</ele>
        <time>2020-06-13T19:42:50.579Z</time>
      </trkpt>
      <trkpt lat="46.54895" lon="0.21614">
        <ele>139.729552</ele>
        <time>2020-06-13T19:42:53.840Z</time>
      </trkpt>
      <trkpt lat="46.5491" lon="0.21623">
        <ele>139.625097</ele>
        <time>2020-06-13T19:42:56.683Z</time>
      </trkpt>
      <trkpt lat="46.54948" lon="0.21625">
        <ele>139.416363</ele>
        <time>2020-06-13T19:43:03.432Z</time>
      </trkpt>
      <trkpt lat="46.55001" lon="0.21612">
        <ele>140.33873</ele>
        <time>2020-06-13T19:43:15.705Z</time>
      </trkpt>
      <trkpt lat="46.55002" lon="0.21621">
        <ele>140.4565</ele>
        <time>2020-06-13T19:43:17.162Z</time>
      </trkpt>
      <trkpt lat="46.5501" lon="0.21642">
        <ele>140.740839</ele>
        <time>2020-06-13T19:43:20.934Z</time>
      </trkpt>
      <trkpt lat="46.5508" lon="0.2175">
        <ele>142.500482</ele>
        <time>2020-06-13T19:43:44.258Z</time>
      </trkpt>
      <trkpt lat="46.55093" lon="0.21788">
        <ele>142.840646</ele>
        <time>2020-06-13T19:43:50.546Z</time>
      </trkpt>
      <trkpt lat="46.55119" lon="0.21931">
        <ele>143.997136</ele>
        <time>2020-06-13T19:44:12.397Z</time>
      </trkpt>
      <trkpt lat="46.55143" lon="0.21923">
        <ele>144.283269</ele>
        <time>2020-06-13T19:44:17.699Z</time>
      </trkpt>
      <trkpt lat="46.55152" lon="0.2192">
        <ele>144.38358</ele>
        <time>2020-06-13T19:44:19.673Z</time>
      </trkpt>
      <trkpt lat="46.55156" lon="0.21916">
        <ele>144.440153</ele>
        <time>2020-06-13T19:44:20.718Z</time>
      </trkpt>
      <trkpt lat="46.55181" lon="0.21882">
        <ele>144.498054</ele>
        <time>2020-06-13T19:44:27.409Z</time>
      </trkpt>
      <trkpt lat="46.55185" lon="0.21875">
        <ele>144.481945</ele>
        <time>2020-06-13T19:44:28.568Z</time>
      </trkpt>
      <trkpt lat="46.55192" lon="0.21871">
        <ele>144.465177</ele>
        <time>2020-06-13T19:44:29.968Z</time>
      </trkpt>
      <trkpt lat="46.55244" lon="0.21853">
        <ele>144.334045</ele>
        <time>2020-06-13T19:44:39.881Z</time>
      </trkpt>
      <trkpt lat="46.55277" lon="0.21849">
        <ele>144.254411</ele>
        <time>2020-06-13T19:44:46.027Z</time>
      </trkpt>
      <trkpt lat="46.5531" lon="0.21844">
        <ele>144.175681</ele>
        <time>2020-06-13T19:44:52.188Z</time>
      </trkpt>
      <trkpt lat="46.5533" lon="0.21831">
        <ele>144.122747</ele>
        <time>2020-06-13T19:44:56.253Z</time>
      </trkpt>
      <trkpt lat="46.55346" lon="0.21827">
        <ele>144.163676</ele>
        <time>2020-06-13T19:44:59.451Z</time>
      </trkpt>
      <trkpt lat="46.55366" lon="0.21823">
        <ele>144.218388</ele>
        <time>2020-06-13T19:45:03.435Z</time>
      </trkpt>
      <trkpt lat="46.55378" lon="0.21823">
        <ele>144.249127</ele>
        <time>2020-06-13T19:45:05.800Z</time>
      </trkpt>
      <trkpt lat="46.55389" lon="0.21824">
        <ele>144.281012</ele>
        <time>2020-06-13T19:45:07.979Z</time>
      </trkpt>
      <trkpt lat="46.55482" lon="0.21831">
        <ele>144.530204</ele>
        <time>2020-06-13T19:45:26.350Z</time>
      </trkpt>
      <trkpt lat="46.55538" lon="0.21852">
        <ele>144.547992</ele>
        <time>2020-06-13T19:45:37.510Z</time>
      </trkpt>
      <trkpt lat="46.55555" lon="0.21849">
        <ele>144.515371</ele>
        <time>2020-06-13T19:45:40.712Z</time>
      </trkpt>
      <trkpt lat="46.55626" lon="0.21816">
        <ele>144.37195</ele>
        <time>2020-06-13T19:45:54.645Z</time>
      </trkpt>
      <trkpt lat="46.5567" lon="0.21807">
        <ele>144.286733</ele>
        <time>2020-06-13T19:46:02.952Z</time>
      </trkpt>
      <trkpt lat="46.55689" lon="0.21799">
        <ele>144.159535</ele>
        <time>2020-06-13T19:46:06.417Z</time>
      </trkpt>
      <trkpt lat="46.55692" lon="0.21798">
        <ele>144.112636</ele>
        <time>2020-06-13T19:46:06.844Z</time>
      </trkpt>
      <trkpt lat="46.55695" lon="0.21797">
        <ele>144.060637</ele>
        <time>2020-06-13T19:46:07.262Z</time>
      </trkpt>
      <trkpt lat="46.55727" lon="0.21794">
        <ele>143.558213</ele>
        <time>2020-06-13T19:46:11.684Z</time>
      </trkpt>
      <trkpt lat="46.55759" lon="0.21807">
        <ele>143.020161</ele>
        <time>2020-06-13T19:46:16.237Z</time>
      </trkpt>
      <trkpt lat="46.55865" lon="0.21906">
        <ele>141.057153</ele>
        <time>2020-06-13T19:46:33.630Z</time>
      </trkpt>
      <trkpt lat="46.55903" lon="0.21931">
        <ele>140.479099</ele>
        <time>2020-06-13T19:46:39.514Z</time>
      </trkpt>
      <trkpt lat="46.55963" lon="0.21933">
        <ele>139.636838</ele>
        <time>2020-06-13T19:46:47.961Z</time>
      </trkpt>
      <trkpt lat="46.56021" lon="0.21897">
        <ele>138.795722</ele>
        <time>2020-06-13T19:46:56.916Z</time>
      </trkpt>
      <trkpt lat="46.56037" lon="0.21895">
        <ele>138.646112</ele>
        <time>2020-06-13T19:46:59.320Z</time>
      </trkpt>
      <trkpt lat="46.56053" lon="0.21894">
        <ele>138.505235</ele>
        <time>2020-06-13T19:47:01.733Z</time>
      </trkpt>
      <trkpt lat="46.56074" lon="0.21893">
        <ele>138.321141</ele>
        <time>2020-06-13T19:47:04.902Z</time>
      </trkpt>
      <trkpt lat="46.56109" lon="0.2187">
        <ele>137.982566</ele>
        <time>2020-06-13T19:47:10.688Z</time>
      </trkpt>
      <trkpt lat="46.56242" lon="0.21723">
        <ele>136.96521</ele>
        <time>2020-06-13T19:47:40.091Z</time>
      </trkpt>
      <trkpt lat="46.56297" lon="0.21674">
        <ele>136.726194</ele>
        <time>2020-06-13T19:47:51.836Z</time>
      </trkpt>
      <trkpt lat="46.56311" lon="0.21661">
        <ele>136.665558</ele>
        <time>2020-06-13T19:47:54.863Z</time>
      </trkpt>
      <trkpt lat="46.5632" lon="0.21659">
        <ele>136.632786</ele>
        <time>2020-06-13T19:47:56.524Z</time>
      </trkpt>
      <trkpt lat="46.56429" lon="0.2172">
        <ele>137.109275</ele>
        <time>2020-06-13T19:48:19.871Z</time>
      </trkpt>
      <trkpt lat="46.56473" lon="0.21742">
        <ele>137.302222</ele>
        <time>2020-06-13T19:48:29.178Z</time>
      </trkpt>
      <trkpt lat="46.56473" lon="0.21742">
        <ele>137.302222</ele>
        <time>2020-06-13T19:48:29.178Z</time>
      </trkpt>
      <trkpt lat="46.56606" lon="0.21759">
        <ele>135.549478</ele>
        <time>2020-06-13T19:48:48.189Z</time>
      </trkpt>
      <trkpt lat="46.56672" lon="0.21782">
        <ele>134.39822</ele>
        <time>2020-06-13T19:48:57.401Z</time>
      </trkpt>
      <trkpt lat="46.5676" lon="0.21801">
        <ele>129.596189</ele>
        <time>2020-06-13T19:49:05.729Z</time>
      </trkpt>
      <trkpt lat="46.5687" lon="0.21858">
        <ele>122.843877</ele>
        <time>2020-06-13T19:49:16.318Z</time>
      </trkpt>
      <trkpt lat="46.56903" lon="0.21895">
        <ele>119.888481</ele>
        <time>2020-06-13T19:49:20.166Z</time>
      </trkpt>
      <trkpt lat="46.5697" lon="0.21902">
        <ele>115.161225</ele>
        <time>2020-06-13T19:49:26.370Z</time>
      </trkpt>
      <trkpt lat="46.57032" lon="0.21926">
        <ele>111.244462</ele>
        <time>2020-06-13T19:49:32.039Z</time>
      </trkpt>
      <trkpt lat="46.57055" lon="0.21914">
        <ele>110.295495</ele>
        <time>2020-06-13T19:49:34.659Z</time>
      </trkpt>
      <trkpt lat="46.5708" lon="0.21914">
        <ele>109.31412</ele>
        <time>2020-06-13T19:49:37.329Z</time>
      </trkpt>
      <trkpt lat="46.57101" lon="0.2191">
        <ele>108.499266</ele>
        <time>2020-06-13T19:49:39.608Z</time>
      </trkpt>
      <trkpt lat="46.57128" lon="0.21904">
        <ele>107.439507</ele>
        <time>2020-06-13T19:49:42.538Z</time>
      </trkpt>
      <trkpt lat="46.57134" lon="0.21902">
        <ele>107.186466</ele>
        <time>2020-06-13T19:49:43.184Z</time>
      </trkpt>
      <trkpt lat="46.57148" lon="0.21899">
        <ele>106.647386</ele>
        <time>2020-06-13T19:49:44.712Z</time>
      </trkpt>
      <trkpt lat="46.5715" lon="0.21897">
        <ele>106.526586</ele>
        <time>2020-06-13T19:49:44.947Z</time>
      </trkpt>
      <trkpt lat="46.57152" lon="0.21907">
        <ele>106.249711</ele>
        <time>2020-06-13T19:49:45.716Z</time>
      </trkpt>
      <trkpt lat="46.5715" lon="0.21943">
        <ele>105.297031</ele>
        <time>2020-06-13T19:49:48.390Z</time>
      </trkpt>
      <trkpt lat="46.57137" lon="0.22005">
        <ele>104.65308</ele>
        <time>2020-06-13T19:49:54.630Z</time>
      </trkpt>
      <trkpt lat="46.57111" lon="0.22093">
        <ele>103.979448</ele>
        <time>2020-06-13T19:50:04.365Z</time>
      </trkpt>
      <trkpt lat="46.57087" lon="0.2214">
        <ele>103.564375</ele>
        <time>2020-06-13T19:50:10.309Z</time>
      </trkpt>
      <trkpt lat="46.57016" lon="0.22331">
        <ele>101.492146</ele>
        <time>2020-06-13T19:50:31.361Z</time>
      </trkpt>
      <trkpt lat="46.56991" lon="0.2244">
        <ele>100.34218</ele>
        <time>2020-06-13T19:50:42.407Z</time>
      </trkpt>
      <trkpt lat="46.56979" lon="0.22524">
        <ele>99.629844</ele>
        <time>2020-06-13T19:50:50.919Z</time>
      </trkpt>
      <trkpt lat="46.56981" lon="0.22578">
        <ele>99.179767</ele>
        <time>2020-06-13T19:50:56.283Z</time>
      </trkpt>
      <trkpt lat="46.56994" lon="0.22656">
        <ele>98.516346</ele>
        <time>2020-06-13T19:51:04.251Z</time>
      </trkpt>
      <trkpt lat="46.5704" lon="0.22754">
        <ele>98.224685</ele>
        <time>2020-06-13T19:51:19.135Z</time>
      </trkpt>
      <trkpt lat="46.5713" lon="0.22892">
        <ele>98.094062</ele>
        <time>2020-06-13T19:51:43.920Z</time>
      </trkpt>
      <trkpt lat="46.57136" lon="0.22921">
        <ele>98.164944</ele>
        <time>2020-06-13T19:51:48.055Z</time>
      </trkpt>
      <trkpt lat="46.57149" lon="0.22942">
        <ele>98.230738</ele>
        <time>2020-06-13T19:51:51.914Z</time>
      </trkpt>
      <trkpt lat="46.57208" lon="0.22987">
        <ele>98.454716</ele>
        <time>2020-06-13T19:52:05.141Z</time>
      </trkpt>
      <trkpt lat="46.57241" lon="0.23025">
        <ele>98.596321</ele>
        <time>2020-06-13T19:52:13.498Z</time>
      </trkpt>
      <trkpt lat="46.57257" lon="0.23044">
        <ele>98.659941</ele>
        <time>2020-06-13T19:52:17.588Z</time>
      </trkpt>
      <trkpt lat="46.57349" lon="0.23114">
        <ele>98.937805</ele>
        <time>2020-06-13T19:52:38.070Z</time>
      </trkpt>
      <trkpt lat="46.57365" lon="0.23115">
        <ele>98.979315</ele>
        <time>2020-06-13T19:52:41.226Z</time>
      </trkpt>
      <trkpt lat="46.5738" lon="0.23111">
        <ele>99.020756</ele>
        <time>2020-06-13T19:52:44.236Z</time>
      </trkpt>
      <trkpt lat="46.57394" lon="0.23101">
        <ele>99.0622</ele>
        <time>2020-06-13T19:52:47.312Z</time>
      </trkpt>
      <trkpt lat="46.57397" lon="0.23153">
        <ele>99.14015</ele>
        <time>2020-06-13T19:52:54.355Z</time>
      </trkpt>
      <trkpt lat="46.5744" lon="0.23226">
        <ele>99.23613</ele>
        <time>2020-06-13T19:53:07.244Z</time>
      </trkpt>
      <trkpt lat="46.57464" lon="0.23288">
        <ele>99.306846</ele>
        <time>2020-06-13T19:53:16.783Z</time>
      </trkpt>
      <trkpt lat="46.57493" lon="0.23394">
        <ele>99.573301</ele>
        <time>2020-06-13T19:53:32.360Z</time>
      </trkpt>
      <trkpt lat="46.5751" lon="0.23477">
        <ele>99.997325</ele>
        <time>2020-06-13T19:53:44.616Z</time>
      </trkpt>
      <trkpt lat="46.57525" lon="0.23608">
        <ele>100.646443</ele>
        <time>2020-06-13T19:54:03.407Z</time>
      </trkpt>
      <trkpt lat="46.57522" lon="0.23755">
        <ele>102.099318</ele>
        <time>2020-06-13T19:54:25.811Z</time>
      </trkpt>
      <trkpt lat="46.57492" lon="0.2387">
        <ele>103.297264</ele>
        <time>2020-06-13T19:54:44.508Z</time>
      </trkpt>
      <trkpt lat="46.57429" lon="0.23968">
        <ele>103.795547</ele>
        <time>2020-06-13T19:55:03.182Z</time>
      </trkpt>
      <trkpt lat="46.57394" lon="0.24011">
        <ele>104.044232</ele>
        <time>2020-06-13T19:55:12.459Z</time>
      </trkpt>
      <trkpt lat="46.57341" lon="0.24058">
        <ele>104.768877</ele>
        <time>2020-06-13T19:55:25.834Z</time>
      </trkpt>
      <trkpt lat="46.57317" lon="0.24076">
        <ele>105.346999</ele>
        <time>2020-06-13T19:55:32.298Z</time>
      </trkpt>
      <trkpt lat="46.57298" lon="0.24078">
        <ele>105.749737</ele>
        <time>2020-06-13T19:55:36.844Z</time>
      </trkpt>
      <trkpt lat="46.5729" lon="0.2408">
        <ele>105.926753</ele>
        <time>2020-06-13T19:55:38.796Z</time>
      </trkpt>
      <trkpt lat="46.57272" lon="0.24105">
        <ele>106.466463</ele>
        <time>2020-06-13T19:55:44.772Z</time>
      </trkpt>
      <trkpt lat="46.57267" lon="0.24111">
        <ele>106.603062</ele>
        <time>2020-06-13T19:55:46.318Z</time>
      </trkpt>
      <trkpt lat="46.5725" lon="0.24164">
        <ele>107.4657</ele>
        <time>2020-06-13T19:55:55.948Z</time>
      </trkpt>
      <trkpt lat="46.57216" lon="0.24234">
        <ele>110.158755</ele>
        <time>2020-06-13T19:56:15.231Z</time>
      </trkpt>
      <trkpt lat="46.5721" lon="0.24269">
        <ele>111.952812</ele>
        <time>2020-06-13T19:56:25.007Z</time>
      </trkpt>
      <trkpt lat="46.57215" lon="0.24287">
        <ele>112.900857</ele>
        <time>2020-06-13T19:56:30.215Z</time>
      </trkpt>
      <trkpt lat="46.57271" lon="0.2424">
        <ele>117.544088</ele>
        <time>2020-06-13T19:56:55.599Z</time>
      </trkpt>
      <trkpt lat="46.5734" lon="0.24236">
        <ele>122.434053</ele>
        <time>2020-06-13T19:57:22.504Z</time>
      </trkpt>
      <trkpt lat="46.57382" lon="0.24273">
        <ele>125.844149</ele>
        <time>2020-06-13T19:57:41.439Z</time>
      </trkpt>
      <trkpt lat="46.57445" lon="0.24354">
        <ele>131.63288</ele>
        <time>2020-06-13T19:58:13.717Z</time>
      </trkpt>
      <trkpt lat="46.5749" lon="0.24368">
        <ele>133.918772</ele>
        <time>2020-06-13T19:58:29.169Z</time>
      </trkpt>
      <trkpt lat="46.57538" lon="0.2437">
        <ele>135.025661</ele>
        <time>2020-06-13T19:58:40.883Z</time>
      </trkpt>
      <trkpt lat="46.57546" lon="0.24374">
        <ele>135.229304</ele>
        <time>2020-06-13T19:58:42.971Z</time>
      </trkpt>
      <trkpt lat="46.57551" lon="0.24364">
        <ele>135.426036</ele>
        <time>2020-06-13T19:58:45.047Z</time>
      </trkpt>
      <trkpt lat="46.57594" lon="0.24347">
        <ele>136.456158</ele>
        <time>2020-06-13T19:58:55.925Z</time>
      </trkpt>
      <trkpt lat="46.57644" lon="0.24292">
        <ele>137.618063</ele>
        <time>2020-06-13T19:59:10.455Z</time>
      </trkpt>
      <trkpt lat="46.57726" lon="0.24224">
        <ele>137.602638</ele>
        <time>2020-06-13T19:59:28.573Z</time>
      </trkpt>
      <trkpt lat="46.57808" lon="0.2419">
        <ele>137.640629</ele>
        <time>2020-06-13T19:59:45.049Z</time>
      </trkpt>
      <trkpt lat="46.57898" lon="0.24167">
        <ele>138.013907</ele>
        <time>2020-06-13T20:00:03.317Z</time>
      </trkpt>
      <trkpt lat="46.5799" lon="0.24132">
        <ele>138.493019</ele>
        <time>2020-06-13T20:00:22.502Z</time>
      </trkpt>
      <trkpt lat="46.58069" lon="0.24091">
        <ele>139.221744</ele>
        <time>2020-06-13T20:00:40.038Z</time>
      </trkpt>
      <trkpt lat="46.58075" lon="0.24086">
        <ele>139.280711</ele>
        <time>2020-06-13T20:00:41.482Z</time>
      </trkpt>
      <trkpt lat="46.58084" lon="0.2408">
        <ele>139.367054</ele>
        <time>2020-06-13T20:00:43.552Z</time>
      </trkpt>
      <trkpt lat="46.5812" lon="0.24049">
        <ele>139.726032</ele>
        <time>2020-06-13T20:00:52.289Z</time>
      </trkpt>
      <trkpt lat="46.58172" lon="0.23953">
        <ele>140.276645</ele>
        <time>2020-06-13T20:01:09.489Z</time>
      </trkpt>
      <trkpt lat="46.58204" lon="0.23918">
        <ele>140.51243</ele>
        <time>2020-06-13T20:01:17.632Z</time>
      </trkpt>
      <trkpt lat="46.58213" lon="0.23933">
        <ele>140.595812</ele>
        <time>2020-06-13T20:01:20.421Z</time>
      </trkpt>
      <trkpt lat="46.58266" lon="0.23987">
        <ele>140.969923</ele>
        <time>2020-06-13T20:01:33.569Z</time>
      </trkpt>
      <trkpt lat="46.58307" lon="0.23997">
        <ele>141.180788</ele>
        <time>2020-06-13T20:01:41.959Z</time>
      </trkpt>
      <trkpt lat="46.58316" lon="0.24014">
        <ele>141.254184</ele>
        <time>2020-06-13T20:01:44.932Z</time>
      </trkpt>
      <trkpt lat="46.58344" lon="0.24068">
        <ele>141.492449</ele>
        <time>2020-06-13T20:01:54.320Z</time>
      </trkpt>
      <trkpt lat="46.58351" lon="0.24099">
        <ele>141.604723</ele>
        <time>2020-06-13T20:01:58.843Z</time>
      </trkpt>
      <trkpt lat="46.5836" lon="0.24199">
        <ele>141.969587</ele>
        <time>2020-06-13T20:02:12.858Z</time>
      </trkpt>
      <trkpt lat="46.5836" lon="0.24212">
        <ele>142.0255</ele>
        <time>2020-06-13T20:02:14.682Z</time>
      </trkpt>
      <trkpt lat="46.58412" lon="0.24204">
        <ele>142.336819</ele>
        <time>2020-06-13T20:02:25.325Z</time>
      </trkpt>
      <trkpt lat="46.58418" lon="0.24201">
        <ele>142.371628</ele>
        <time>2020-06-13T20:02:26.610Z</time>
      </trkpt>
      <trkpt lat="46.58442" lon="0.24191">
        <ele>142.521062</ele>
        <time>2020-06-13T20:02:31.693Z</time>
      </trkpt>
      <trkpt lat="46.58492" lon="0.24138">
        <ele>142.885983</ele>
        <time>2020-06-13T20:02:44.278Z</time>
      </trkpt>
      <trkpt lat="46.58541" lon="0.24101">
        <ele>142.194286</ele>
        <time>2020-06-13T20:02:52.199Z</time>
      </trkpt>
      <trkpt lat="46.5855" lon="0.24079">
        <ele>141.930988</ele>
        <time>2020-06-13T20:02:54.647Z</time>
      </trkpt>
      <trkpt lat="46.58572" lon="0.24048">
        <ele>141.48237</ele>
        <time>2020-06-13T20:02:58.924Z</time>
      </trkpt>
      <trkpt lat="46.58576" lon="0.24061">
        <ele>141.335352</ele>
        <time>2020-06-13T20:03:00.285Z</time>
      </trkpt>
      <trkpt lat="46.58632" lon="0.24174">
        <ele>139.538288</ele>
        <time>2020-06-13T20:03:13.003Z</time>
      </trkpt>
      <trkpt lat="46.58731" lon="0.24322">
        <ele>134.980306</ele>
        <time>2020-06-13T20:03:29.273Z</time>
      </trkpt>
      <trkpt lat="46.58744" lon="0.24348">
        <ele>134.343385</ele>
        <time>2020-06-13T20:03:31.894Z</time>
      </trkpt>
      <trkpt lat="46.58754" lon="0.24367">
        <ele>134.001193</ele>
        <time>2020-06-13T20:03:34.027Z</time>
      </trkpt>
      <trkpt lat="46.58821" lon="0.24552">
        <ele>131.043712</ele>
        <time>2020-06-13T20:03:52.714Z</time>
      </trkpt>
      <trkpt lat="46.58836" lon="0.24641">
        <ele>130.640079</ele>
        <time>2020-06-13T20:04:03.749Z</time>
      </trkpt>
      <trkpt lat="46.5886" lon="0.24698">
        <ele>130.513598</ele>
        <time>2020-06-13T20:04:12.232Z</time>
      </trkpt>
      <trkpt lat="46.58879" lon="0.24731">
        <ele>130.431547</ele>
        <time>2020-06-13T20:04:17.693Z</time>
      </trkpt>
      <trkpt lat="46.58885" lon="0.24739">
        <ele>130.409955</ele>
        <time>2020-06-13T20:04:19.198Z</time>
      </trkpt>
      <trkpt lat="46.58886" lon="0.24742">
        <ele>130.402637</ele>
        <time>2020-06-13T20:04:19.619Z</time>
      </trkpt>
      <trkpt lat="46.58906" lon="0.24783">
        <ele>130.308267</ele>
        <time>2020-06-13T20:04:26.001Z</time>
      </trkpt>
      <trkpt lat="46.58968" lon="0.24877">
        <ele>131.003776</ele>
        <time>2020-06-13T20:04:44.551Z</time>
      </trkpt>
      <trkpt lat="46.58988" lon="0.2489">
        <ele>131.201201</ele>
        <time>2020-06-13T20:04:49.146Z</time>
      </trkpt>
      <trkpt lat="46.59028" lon="0.24901">
        <ele>131.565639</ele>
        <time>2020-06-13T20:04:57.679Z</time>
      </trkpt>
      <trkpt lat="46.59057" lon="0.24945">
        <ele>131.95764</ele>
        <time>2020-06-13T20:05:06.498Z</time>
      </trkpt>
      <trkpt lat="46.59078" lon="0.24965">
        <ele>132.260379</ele>
        <time>2020-06-13T20:05:11.927Z</time>
      </trkpt>
      <trkpt lat="46.59105" lon="0.24979">
        <ele>132.61017</ele>
        <time>2020-06-13T20:05:18.137Z</time>
      </trkpt>
      <trkpt lat="46.59138" lon="0.25006">
        <ele>133.062409</ele>
        <time>2020-06-13T20:05:26.318Z</time>
      </trkpt>
      <trkpt lat="46.59199" lon="0.2509">
        <ele>134.071833</ele>
        <time>2020-06-13T20:05:44.479Z</time>
      </trkpt>
      <trkpt lat="46.59274" lon="0.25171">
        <ele>134.357745</ele>
        <time>2020-06-13T20:06:02.971Z</time>
      </trkpt>
      <trkpt lat="46.59334" lon="0.25265">
        <ele>134.613842</ele>
        <time>2020-06-13T20:06:20.400Z</time>
      </trkpt>
      <trkpt lat="46.59348" lon="0.25294">
        <ele>134.549902</ele>
        <time>2020-06-13T20:06:24.905Z</time>
      </trkpt>
      <trkpt lat="46.59352" lon="0.253">
        <ele>134.535899</ele>
        <time>2020-06-13T20:06:25.971Z</time>
      </trkpt>
      <trkpt lat="46.59371" lon="0.25382">
        <ele>134.380432</ele>
        <time>2020-06-13T20:06:36.974Z</time>
      </trkpt>
      <trkpt lat="46.59389" lon="0.25428">
        <ele>134.285504</ele>
        <time>2020-06-13T20:06:43.704Z</time>
      </trkpt>
      <trkpt lat="46.59398" lon="0.25486">
        <ele>134.179437</ele>
        <time>2020-06-13T20:06:51.267Z</time>
      </trkpt>
      <trkpt lat="46.59414" lon="0.25654">
        <ele>134.586439</ele>
        <time>2020-06-13T20:07:14.436Z</time>
      </trkpt>
      <trkpt lat="46.59328" lon="0.25653">
        <ele>134.936274</ele>
        <time>2020-06-13T20:07:31.626Z</time>
      </trkpt>
      <trkpt lat="46.59273" lon="0.25626">
        <ele>135.169529</ele>
        <time>2020-06-13T20:07:43.223Z</time>
      </trkpt>
      <trkpt lat="46.59237" lon="0.25631">
        <ele>135.311689</ele>
        <time>2020-06-13T20:07:50.443Z</time>
      </trkpt>
      <trkpt lat="46.59202" lon="0.25666">
        <ele>135.483582</ele>
        <time>2020-06-13T20:07:58.930Z</time>
      </trkpt>
      <trkpt lat="46.59129" lon="0.25691">
        <ele>135.532184</ele>
        <time>2020-06-13T20:08:13.448Z</time>
      </trkpt>
      <trkpt lat="46.59041" lon="0.25735">
        <ele>135.367671</ele>
        <time>2020-06-13T20:08:30.882Z</time>
      </trkpt>
      <trkpt lat="46.58977" lon="0.25746">
        <ele>135.212732</ele>
        <time>2020-06-13T20:08:42.843Z</time>
      </trkpt>
      <trkpt lat="46.58955" lon="0.25773">
        <ele>135.106226</ele>
        <time>2020-06-13T20:08:48.084Z</time>
      </trkpt>
      <trkpt lat="46.5894" lon="0.25882">
        <ele>134.824687</ele>
        <time>2020-06-13T20:09:01.999Z</time>
      </trkpt>
      <trkpt lat="46.58865" lon="0.27136">
        <ele>133.784074</ele>
        <time>2020-06-13T20:11:45.453Z</time>
      </trkpt>
      <trkpt lat="46.58865" lon="0.27167">
        <ele>133.860861</ele>
        <time>2020-06-13T20:11:49.693Z</time>
      </trkpt>
      <trkpt lat="46.58872" lon="0.27194">
        <ele>133.931124</ele>
        <time>2020-06-13T20:11:53.637Z</time>
      </trkpt>
      <trkpt lat="46.58875" lon="0.27214">
        <ele>133.984355</ele>
        <time>2020-06-13T20:11:56.442Z</time>
      </trkpt>
      <trkpt lat="46.58875" lon="0.27217">
        <ele>133.991019</ele>
        <time>2020-06-13T20:11:56.850Z</time>
      </trkpt>
      <trkpt lat="46.58874" lon="0.27221">
        <ele>134.000527</ele>
        <time>2020-06-13T20:11:57.431Z</time>
      </trkpt>
      <trkpt lat="46.58874" lon="0.27223">
        <ele>134.006137</ele>
        <time>2020-06-13T20:11:57.705Z</time>
      </trkpt>
      <trkpt lat="46.58829" lon="0.27499">
        <ele>135.570531</ele>
        <time>2020-06-13T20:12:38.196Z</time>
      </trkpt>
      <trkpt lat="46.58798" lon="0.2769">
        <ele>135.190896</ele>
        <time>2020-06-13T20:13:03.078Z</time>
      </trkpt>
      <trkpt lat="46.58769" lon="0.27783">
        <ele>134.786575</ele>
        <time>2020-06-13T20:13:15.488Z</time>
      </trkpt>
      <trkpt lat="46.58735" lon="0.27857">
        <ele>133.949112</ele>
        <time>2020-06-13T20:13:24.137Z</time>
      </trkpt>
      <trkpt lat="46.58682" lon="0.27954">
        <ele>132.792212</ele>
        <time>2020-06-13T20:13:36.193Z</time>
      </trkpt>
      <trkpt lat="46.58636" lon="0.28035">
        <ele>132.344353</ele>
        <time>2020-06-13T20:13:48.884Z</time>
      </trkpt>
      <trkpt lat="46.58606" lon="0.28086">
        <ele>132.19019</ele>
        <time>2020-06-13T20:13:57.330Z</time>
      </trkpt>
      <trkpt lat="46.58596" lon="0.28101">
        <ele>132.140363</ele>
        <time>2020-06-13T20:13:59.954Z</time>
      </trkpt>
      <trkpt lat="46.58591" lon="0.28105">
        <ele>132.121485</ele>
        <time>2020-06-13T20:14:00.999Z</time>
      </trkpt>
      <trkpt lat="46.58589" lon="0.28104">
        <ele>132.11442</ele>
        <time>2020-06-13T20:14:01.386Z</time>
      </trkpt>
      <trkpt lat="46.58582" lon="0.28103">
        <ele>132.090848</ele>
        <time>2020-06-13T20:14:02.674Z</time>
      </trkpt>
      <trkpt lat="46.58578" lon="0.28126">
        <ele>132.036926</ele>
        <time>2020-06-13T20:14:05.660Z</time>
      </trkpt>
      <trkpt lat="46.58553" lon="0.28208">
        <ele>132.069292</ele>
        <time>2020-06-13T20:14:17.582Z</time>
      </trkpt>
      <trkpt lat="46.58547" lon="0.28219">
        <ele>132.127419</ele>
        <time>2020-06-13T20:14:19.547Z</time>
      </trkpt>
      <trkpt lat="46.58524" lon="0.28265">
        <ele>132.360957</ele>
        <time>2020-06-13T20:14:27.506Z</time>
      </trkpt>
      <trkpt lat="46.58471" lon="0.28354">
        <ele>132.842644</ele>
        <time>2020-06-13T20:14:43.979Z</time>
      </trkpt>
      <trkpt lat="46.58467" lon="0.28352">
        <ele>132.867039</ele>
        <time>2020-06-13T20:14:44.839Z</time>
      </trkpt>
      <trkpt lat="46.58361" lon="0.2829">
        <ele>133.21247</ele>
        <time>2020-06-13T20:15:07.450Z</time>
      </trkpt>
      <trkpt lat="46.58278" lon="0.28279">
        <ele>133.410336</ele>
        <time>2020-06-13T20:15:23.845Z</time>
      </trkpt>
      <trkpt lat="46.58249" lon="0.28278">
        <ele>133.044684</ele>
        <time>2020-06-13T20:15:28.003Z</time>
      </trkpt>
      <trkpt lat="46.58228" lon="0.28279">
        <ele>132.747037</ele>
        <time>2020-06-13T20:15:30.956Z</time>
      </trkpt>
      <trkpt lat="46.58183" lon="0.28281">
        <ele>132.118145</ele>
        <time>2020-06-13T20:15:37.298Z</time>
      </trkpt>
      <trkpt lat="46.58104" lon="0.28252">
        <ele>130.980428</ele>
        <time>2020-06-13T20:15:48.776Z</time>
      </trkpt>
      <trkpt lat="46.58064" lon="0.28248">
        <ele>129.665836</ele>
        <time>2020-06-13T20:15:53.341Z</time>
      </trkpt>
      <trkpt lat="46.5806" lon="0.28251">
        <ele>129.490952</ele>
        <time>2020-06-13T20:15:53.823Z</time>
      </trkpt>
      <trkpt lat="46.58056" lon="0.28249">
        <ele>129.337765</ele>
        <time>2020-06-13T20:15:54.288Z</time>
      </trkpt>
      <trkpt lat="46.58019" lon="0.28241">
        <ele>127.956249</ele>
        <time>2020-06-13T20:15:58.374Z</time>
      </trkpt>
      <trkpt lat="46.5799" lon="0.28217">
        <ele>126.742012</ele>
        <time>2020-06-13T20:16:02.037Z</time>
      </trkpt>
      <trkpt lat="46.57977" lon="0.28203">
        <ele>126.155619</ele>
        <time>2020-06-13T20:16:03.816Z</time>
      </trkpt>
      <trkpt lat="46.57965" lon="0.28193">
        <ele>125.64525</ele>
        <time>2020-06-13T20:16:05.326Z</time>
      </trkpt>
      <trkpt lat="46.57898" lon="0.28153">
        <ele>122.236706</ele>
        <time>2020-06-13T20:16:12.523Z</time>
      </trkpt>
      <trkpt lat="46.57826" lon="0.28086">
        <ele>117.348173</ele>
        <time>2020-06-13T20:16:20.313Z</time>
      </trkpt>
      <trkpt lat="46.57758" lon="0.28011">
        <ele>111.736738</ele>
        <time>2020-06-13T20:16:27.583Z</time>
      </trkpt>
      <trkpt lat="46.57704" lon="0.27999">
        <ele>107.24231</ele>
        <time>2020-06-13T20:16:32.628Z</time>
      </trkpt>
      <trkpt lat="46.57696" lon="0.28">
        <ele>106.508637</ele>
        <time>2020-06-13T20:16:33.369Z</time>
      </trkpt>
      <trkpt lat="46.57673" lon="0.28">
        <ele>104.658647</ele>
        <time>2020-06-13T20:16:35.493Z</time>
      </trkpt>
      <trkpt lat="46.57609" lon="0.28001">
        <ele>99.316422</ele>
        <time>2020-06-13T20:16:41.404Z</time>
      </trkpt>
      <trkpt lat="46.57549" lon="0.27982">
        <ele>95.787823</ele>
        <time>2020-06-13T20:16:46.989Z</time>
      </trkpt>
      <trkpt lat="46.57499" lon="0.27938">
        <ele>92.552076</ele>
        <time>2020-06-13T20:16:52.396Z</time>
      </trkpt>
      <trkpt lat="46.57465" lon="0.27891">
        <ele>89.912623</ele>
        <time>2020-06-13T20:16:56.703Z</time>
      </trkpt>
      <trkpt lat="46.57447" lon="0.27855">
        <ele>88.849553</ele>
        <time>2020-06-13T20:17:00.119Z</time>
      </trkpt>
      <trkpt lat="46.57443" lon="0.27835">
        <ele>88.676114</ele>
        <time>2020-06-13T20:17:02.184Z</time>
      </trkpt>
      <trkpt lat="46.57446" lon="0.27867">
        <ele>88.404965</ele>
        <time>2020-06-13T20:17:05.383Z</time>
      </trkpt>
      <trkpt lat="46.57472" lon="0.27941">
        <ele>87.720041</ele>
        <time>2020-06-13T20:17:13.637Z</time>
      </trkpt>
      <trkpt lat="46.57505" lon="0.27985">
        <ele>87.188082</ele>
        <time>2020-06-13T20:17:20.113Z</time>
      </trkpt>
      <trkpt lat="46.57517" lon="0.27996">
        <ele>87.020972</ele>
        <time>2020-06-13T20:17:22.168Z</time>
      </trkpt>
      <trkpt lat="46.57523" lon="0.28003">
        <ele>86.924114</ele>
        <time>2020-06-13T20:17:23.271Z</time>
      </trkpt>
      <trkpt lat="46.57565" lon="0.28039">
        <ele>86.893865</ele>
        <time>2020-06-13T20:17:32.563Z</time>
      </trkpt>
      <trkpt lat="46.57606" lon="0.28075">
        <ele>86.922121</ele>
        <time>2020-06-13T20:17:41.829Z</time>
      </trkpt>
      <trkpt lat="46.57687" lon="0.28135">
        <ele>86.974398</ele>
        <time>2020-06-13T20:17:59.414Z</time>
      </trkpt>
      <trkpt lat="46.57747" lon="0.28215">
        <ele>86.996647</ele>
        <time>2020-06-13T20:18:15.115Z</time>
      </trkpt>
      <trkpt lat="46.57827" lon="0.28349">
        <ele>87.168298</ele>
        <time>2020-06-13T20:18:38.899Z</time>
      </trkpt>
      <trkpt lat="46.57873" lon="0.28477">
        <ele>87.715222</ele>
        <time>2020-06-13T20:18:59.020Z</time>
      </trkpt>
      <trkpt lat="46.5789" lon="0.28568">
        <ele>88.288721</ele>
        <time>2020-06-13T20:19:12.593Z</time>
      </trkpt>
      <trkpt lat="46.5789" lon="0.28694">
        <ele>90.556186</ele>
        <time>2020-06-13T20:19:34.517Z</time>
      </trkpt>
      <trkpt lat="46.57878" lon="0.28765">
        <ele>91.875915</ele>
        <time>2020-06-13T20:19:47.251Z</time>
      </trkpt>
      <trkpt lat="46.57864" lon="0.28815">
        <ele>92.876246</ele>
        <time>2020-06-13T20:19:56.734Z</time>
      </trkpt>
      <trkpt lat="46.57855" lon="0.28844">
        <ele>93.655897</ele>
        <time>2020-06-13T20:20:02.984Z</time>
      </trkpt>
      <trkpt lat="46.57828" lon="0.2889">
        <ele>95.114932</ele>
        <time>2020-06-13T20:20:14.775Z</time>
      </trkpt>
      <trkpt lat="46.57792" lon="0.2893">
        <ele>96.69919</ele>
        <time>2020-06-13T20:20:27.601Z</time>
      </trkpt>
      <trkpt lat="46.5777" lon="0.28939">
        <ele>97.502016</ele>
        <time>2020-06-13T20:20:34.085Z</time>
      </trkpt>
      <trkpt lat="46.57741" lon="0.28941">
        <ele>98.508391</ele>
        <time>2020-06-13T20:20:42.271Z</time>
      </trkpt>
      <trkpt lat="46.57645" lon="0.28911">
        <ele>99.429259</ele>
        <time>2020-06-13T20:21:02.942Z</time>
      </trkpt>
      <trkpt lat="46.57545" lon="0.28869">
        <ele>99.612727</ele>
        <time>2020-06-13T20:21:23.301Z</time>
      </trkpt>
      <trkpt lat="46.57422" lon="0.2877">
        <ele>94.807477</ele>
        <time>2020-06-13T20:21:39.079Z</time>
      </trkpt>
      <trkpt lat="46.5735" lon="0.2872">
        <ele>92.324751</ele>
        <time>2020-06-13T20:21:48.318Z</time>
      </trkpt>
      <trkpt lat="46.57317" lon="0.28714">
        <ele>91.373638</ele>
        <time>2020-06-13T20:21:52.273Z</time>
      </trkpt>
      <trkpt lat="46.57289" lon="0.28737">
        <ele>90.470335</ele>
        <time>2020-06-13T20:21:56.118Z</time>
      </trkpt>
      <trkpt lat="46.57287" lon="0.28741">
        <ele>90.369623</ele>
        <time>2020-06-13T20:21:56.518Z</time>
      </trkpt>
      <trkpt lat="46.57283" lon="0.28748">
        <ele>90.189409</ele>
        <time>2020-06-13T20:21:57.260Z</time>
      </trkpt>
      <trkpt lat="46.57268" lon="0.28812">
        <ele>88.862796</ele>
        <time>2020-06-13T20:22:02.791Z</time>
      </trkpt>
      <trkpt lat="46.57268" lon="0.28908">
        <ele>90.841797</ele>
        <time>2020-06-13T20:22:20.300Z</time>
      </trkpt>
      <trkpt lat="46.57269" lon="0.28935">
        <ele>91.573085</ele>
        <time>2020-06-13T20:22:25.893Z</time>
      </trkpt>
      <trkpt lat="46.57268" lon="0.28935">
        <ele>91.605384</ele>
        <time>2020-06-13T20:22:26.166Z</time>
      </trkpt>
      <trkpt lat="46.57259" lon="0.28933">
        <ele>91.967796</ele>
        <time>2020-06-13T20:22:28.923Z</time>
      </trkpt>
      <trkpt lat="46.5723" lon="0.28925">
        <ele>93.173382</ele>
        <time>2020-06-13T20:22:37.999Z</time>
      </trkpt>
      <trkpt lat="46.57165" lon="0.28912">
        <ele>95.80999</ele>
        <time>2020-06-13T20:22:57.980Z</time>
      </trkpt>
      <trkpt lat="46.57156" lon="0.28937">
        <ele>96.375327</ele>
        <time>2020-06-13T20:23:03.072Z</time>
      </trkpt>
      <trkpt lat="46.57146" lon="0.28937">
        <ele>96.647769</ele>
        <time>2020-06-13T20:23:05.637Z</time>
      </trkpt>
      <trkpt lat="46.57142" lon="0.2894">
        <ele>96.783059</ele>
        <time>2020-06-13T20:23:06.832Z</time>
      </trkpt>
      <trkpt lat="46.57142" lon="0.28952">
        <ele>97.014256</ele>
        <time>2020-06-13T20:23:08.967Z</time>
      </trkpt>
      <trkpt lat="46.57153" lon="0.29017">
        <ele>98.340974</ele>
        <time>2020-06-13T20:23:21.001Z</time>
      </trkpt>
      <trkpt lat="46.57212" lon="0.29209">
        <ele>100.008512</ele>
        <time>2020-06-13T20:23:52.109Z</time>
      </trkpt>
      <trkpt lat="46.57291" lon="0.29411">
        <ele>96.292756</ele>
        <time>2020-06-13T20:24:12.254Z</time>
      </trkpt>
      <trkpt lat="46.57297" lon="0.29441">
        <ele>95.50189</ele>
        <time>2020-06-13T20:24:14.602Z</time>
      </trkpt>
      <trkpt lat="46.57347" lon="0.2953">
        <ele>92.661176</ele>
        <time>2020-06-13T20:24:23.316Z</time>
      </trkpt>
      <trkpt lat="46.5741" lon="0.29684">
        <ele>89.05913</ele>
        <time>2020-06-13T20:24:37.866Z</time>
      </trkpt>
      <trkpt lat="46.57439" lon="0.29765">
        <ele>87.474375</ele>
        <time>2020-06-13T20:24:45.608Z</time>
      </trkpt>
      <trkpt lat="46.57453" lon="0.2984">
        <ele>86.427248</ele>
        <time>2020-06-13T20:24:52.635Z</time>
      </trkpt>
      <trkpt lat="46.57455" lon="0.29853">
        <ele>86.423335</ele>
        <time>2020-06-13T20:24:54.386Z</time>
      </trkpt>
      <trkpt lat="46.57453" lon="0.29856">
        <ele>86.422163</ele>
        <time>2020-06-13T20:24:54.935Z</time>
      </trkpt>
      <trkpt lat="46.57453" lon="0.29863">
        <ele>86.420088</ele>
        <time>2020-06-13T20:24:55.855Z</time>
      </trkpt>
      <trkpt lat="46.57462" lon="0.29907">
        <ele>86.407011</ele>
        <time>2020-06-13T20:25:01.889Z</time>
      </trkpt>
      <trkpt lat="46.57469" lon="0.29928">
        <ele>86.400393</ele>
        <time>2020-06-13T20:25:04.957Z</time>
      </trkpt>
      <trkpt lat="46.57485" lon="0.29952">
        <ele>86.390856</ele>
        <time>2020-06-13T20:25:09.352Z</time>
      </trkpt>
      <trkpt lat="46.57505" lon="0.30033">
        <ele>86.366278</ele>
        <time>2020-06-13T20:25:20.665Z</time>
      </trkpt>
      <trkpt lat="46.57502" lon="0.30117">
        <ele>87.878812</ele>
        <time>2020-06-13T20:25:35.298Z</time>
      </trkpt>
      <trkpt lat="46.57459" lon="0.30182">
        <ele>90.432843</ele>
        <time>2020-06-13T20:25:54.461Z</time>
      </trkpt>
      <trkpt lat="46.57415" lon="0.30206">
        <ele>92.400245</ele>
        <time>2020-06-13T20:26:09.129Z</time>
      </trkpt>
      <trkpt lat="46.57383" lon="0.30208">
        <ele>93.721811</ele>
        <time>2020-06-13T20:26:19.037Z</time>
      </trkpt>
      <trkpt lat="46.57379" lon="0.30218">
        <ele>93.953084</ele>
        <time>2020-06-13T20:26:21.124Z</time>
      </trkpt>
      <trkpt lat="46.57379" lon="0.30228">
        <ele>94.089952</ele>
        <time>2020-06-13T20:26:22.741Z</time>
      </trkpt>
      <trkpt lat="46.57378" lon="0.30233">
        <ele>94.15702</ele>
        <time>2020-06-13T20:26:23.573Z</time>
      </trkpt>
      <trkpt lat="46.5738" lon="0.30252">
        <ele>94.428231</ele>
        <time>2020-06-13T20:26:26.705Z</time>
      </trkpt>
      <trkpt lat="46.57382" lon="0.30268">
        <ele>94.650471</ele>
        <time>2020-06-13T20:26:29.335Z</time>
      </trkpt>
      <trkpt lat="46.57353" lon="0.30264">
        <ele>95.239773</ele>
        <time>2020-06-13T20:26:36.216Z</time>
      </trkpt>
      <trkpt lat="46.57258" lon="0.3024">
        <ele>97.190744</ele>
        <time>2020-06-13T20:26:58.992Z</time>
      </trkpt>
      <trkpt lat="46.57162" lon="0.30195">
        <ele>93.856855</ele>
        <time>2020-06-13T20:27:10.443Z</time>
      </trkpt>
      <trkpt lat="46.57094" lon="0.30187">
        <ele>90.982852</ele>
        <time>2020-06-13T20:27:17.534Z</time>
      </trkpt>
      <trkpt lat="46.57042" lon="0.30199">
        <ele>88.765623</ele>
        <time>2020-06-13T20:27:23.007Z</time>
      </trkpt>
      <trkpt lat="46.57025" lon="0.30211">
        <ele>87.989221</ele>
        <time>2020-06-13T20:27:24.990Z</time>
      </trkpt>
      <trkpt lat="46.56976" lon="0.30253">
        <ele>85.594874</ele>
        <time>2020-06-13T20:27:30.903Z</time>
      </trkpt>
      <trkpt lat="46.56935" lon="0.30307">
        <ele>83.255423</ele>
        <time>2020-06-13T20:27:36.642Z</time>
      </trkpt>
      <trkpt lat="46.56928" lon="0.30323">
        <ele>82.68837</ele>
        <time>2020-06-13T20:27:37.981Z</time>
      </trkpt>
      <trkpt lat="46.56923" lon="0.30334">
        <ele>82.320137</ele>
        <time>2020-06-13T20:27:38.936Z</time>
      </trkpt>
      <trkpt lat="46.56919" lon="0.30334">
        <ele>82.267439</ele>
        <time>2020-06-13T20:27:39.505Z</time>
      </trkpt>
      <trkpt lat="46.56893" lon="0.30392">
        <ele>81.628085</ele>
        <time>2020-06-13T20:27:46.257Z</time>
      </trkpt>
      <trkpt lat="46.56887" lon="0.30418">
        <ele>81.370806</ele>
        <time>2020-06-13T20:27:48.924Z</time>
      </trkpt>
      <trkpt lat="46.5688" lon="0.30458">
        <ele>80.990414</ele>
        <time>2020-06-13T20:27:52.950Z</time>
      </trkpt>
      <trkpt lat="46.56881" lon="0.30502">
        <ele>80.586735</ele>
        <time>2020-06-13T20:27:57.248Z</time>
      </trkpt>
      <trkpt lat="46.56895" lon="0.30556">
        <ele>80.051827</ele>
        <time>2020-06-13T20:28:02.872Z</time>
      </trkpt>
      <trkpt lat="46.56951" lon="0.30665">
        <ele>79.838731</ele>
        <time>2020-06-13T20:28:20.267Z</time>
      </trkpt>
      <trkpt lat="46.56959" lon="0.3068">
        <ele>79.827684</ele>
        <time>2020-06-13T20:28:22.747Z</time>
      </trkpt>
      <trkpt lat="46.56964" lon="0.30676">
        <ele>79.823332</ele>
        <time>2020-06-13T20:28:23.832Z</time>
      </trkpt>
      <trkpt lat="46.56967" lon="0.30682">
        <ele>79.819033</ele>
        <time>2020-06-13T20:28:24.801Z</time>
      </trkpt>
      <trkpt lat="46.57007" lon="0.30749">
        <ele>79.76939</ele>
        <time>2020-06-13T20:28:36.396Z</time>
      </trkpt>
      <trkpt lat="46.57016" lon="0.30763">
        <ele>79.752711</ele>
        <time>2020-06-13T20:28:38.884Z</time>
      </trkpt>
      <trkpt lat="46.57024" lon="0.30774">
        <ele>79.707151</ele>
        <time>2020-06-13T20:28:40.876Z</time>
      </trkpt>
      <trkpt lat="46.57062" lon="0.30833">
        <ele>79.463447</ele>
        <time>2020-06-13T20:28:50.898Z</time>
      </trkpt>
      <trkpt lat="46.571" lon="0.30891">
        <ele>79.225985</ele>
        <time>2020-06-13T20:29:00.841Z</time>
      </trkpt>
      <trkpt lat="46.57129" lon="0.30946">
        <ele>79.01862</ele>
        <time>2020-06-13T20:29:09.438Z</time>
      </trkpt>
      <trkpt lat="46.57141" lon="0.30969">
        <ele>78.965691</ele>
        <time>2020-06-13T20:29:13.107Z</time>
      </trkpt>
      <trkpt lat="46.57157" lon="0.30997">
        <ele>78.935613</ele>
        <time>2020-06-13T20:29:17.837Z</time>
      </trkpt>
      <trkpt lat="46.57191" lon="0.31047">
        <ele>78.8781</ele>
        <time>2020-06-13T20:29:26.974Z</time>
      </trkpt>
      <trkpt lat="46.57198" lon="0.31056">
        <ele>78.866963</ele>
        <time>2020-06-13T20:29:28.740Z</time>
      </trkpt>
      <trkpt lat="46.5721" lon="0.3107">
        <ele>78.84892</ele>
        <time>2020-06-13T20:29:31.648Z</time>
      </trkpt>
      <trkpt lat="46.57238" lon="0.31105">
        <ele>78.805098</ele>
        <time>2020-06-13T20:29:38.625Z</time>
      </trkpt>
      <trkpt lat="46.57251" lon="0.31123">
        <ele>78.783648</ele>
        <time>2020-06-13T20:29:42.017Z</time>
      </trkpt>
      <trkpt lat="46.57254" lon="0.31126">
        <ele>78.77925</ele>
        <time>2020-06-13T20:29:42.705Z</time>
      </trkpt>
      <trkpt lat="46.57322" lon="0.31249">
        <ele>79.18319</ele>
        <time>2020-06-13T20:30:04.322Z</time>
      </trkpt>
      <trkpt lat="46.57346" lon="0.31303">
        <ele>79.378559</ele>
        <time>2020-06-13T20:30:13.188Z</time>
      </trkpt>
      <trkpt lat="46.5736" lon="0.31347">
        <ele>79.524218</ele>
        <time>2020-06-13T20:30:19.869Z</time>
      </trkpt>
      <trkpt lat="46.57366" lon="0.31374">
        <ele>79.625469</ele>
        <time>2020-06-13T20:30:23.810Z</time>
      </trkpt>
      <trkpt lat="46.57378" lon="0.31429">
        <ele>79.842166</ele>
        <time>2020-06-13T20:30:31.846Z</time>
      </trkpt>
      <trkpt lat="46.57379" lon="0.31434">
        <ele>79.864933</ele>
        <time>2020-06-13T20:30:32.577Z</time>
      </trkpt>
      <trkpt lat="46.57372" lon="0.3144">
        <ele>79.911025</ele>
        <time>2020-06-13T20:30:34.226Z</time>
      </trkpt>
      <trkpt lat="46.5737" lon="0.31442">
        <ele>79.922925</ele>
        <time>2020-06-13T20:30:34.715Z</time>
      </trkpt>
      <trkpt lat="46.57361" lon="0.31441">
        <ele>79.971389</ele>
        <time>2020-06-13T20:30:36.542Z</time>
      </trkpt>
      <trkpt lat="46.57347" lon="0.31459">
        <ele>80.076614</ele>
        <time>2020-06-13T20:30:40.333Z</time>
      </trkpt>
      <trkpt lat="46.57341" lon="0.31465">
        <ele>80.115357</ele>
        <time>2020-06-13T20:30:41.806Z</time>
      </trkpt>
      <trkpt lat="46.57339" lon="0.31471">
        <ele>80.138975</ele>
        <time>2020-06-13T20:30:42.732Z</time>
      </trkpt>
      <trkpt lat="46.57346" lon="0.3152">
        <ele>80.328835</ele>
        <time>2020-06-13T20:30:49.705Z</time>
      </trkpt>
      <trkpt lat="46.57346" lon="0.316">
        <ele>80.8686</ele>
        <time>2020-06-13T20:31:01.334Z</time>
      </trkpt>
      <trkpt lat="46.57356" lon="0.3166">
        <ele>81.742328</ele>
        <time>2020-06-13T20:31:11.399Z</time>
      </trkpt>
      <trkpt lat="46.57394" lon="0.31814">
        <ele>84.037474</ele>
        <time>2020-06-13T20:31:38.019Z</time>
      </trkpt>
      <trkpt lat="46.5739" lon="0.31836">
        <ele>84.567663</ele>
        <time>2020-06-13T20:31:42.385Z</time>
      </trkpt>
      <trkpt lat="46.57388" lon="0.31841">
        <ele>84.785341</ele>
        <time>2020-06-13T20:31:43.766Z</time>
      </trkpt>
      <trkpt lat="46.57381" lon="0.31867">
        <ele>85.79102</ele>
        <time>2020-06-13T20:31:50.327Z</time>
      </trkpt>
      <trkpt lat="46.57379" lon="0.31878">
        <ele>86.210966</ele>
        <time>2020-06-13T20:31:53.024Z</time>
      </trkpt>
      <trkpt lat="46.57354" lon="0.31907">
        <ele>87.907024</ele>
        <time>2020-06-13T20:32:04.003Z</time>
      </trkpt>
      <trkpt lat="46.57351" lon="0.31924">
        <ele>88.527199</ele>
        <time>2020-06-13T20:32:08.100Z</time>
      </trkpt>
      <trkpt lat="46.57361" lon="0.32044">
        <ele>92.886676</ele>
        <time>2020-06-13T20:32:36.519Z</time>
      </trkpt>
      <trkpt lat="46.57365" lon="0.32059">
        <ele>93.476164</ele>
        <time>2020-06-13T20:32:40.323Z</time>
      </trkpt>
      <trkpt lat="46.57371" lon="0.32083">
        <ele>94.024465</ele>
        <time>2020-06-13T20:32:45.055Z</time>
      </trkpt>
      <trkpt lat="46.57369" lon="0.32093">
        <ele>94.215215</ele>
        <time>2020-06-13T20:32:46.878Z</time>
      </trkpt>
      <trkpt lat="46.57358" lon="0.32102">
        <ele>94.524961</ele>
        <time>2020-06-13T20:32:50.011Z</time>
      </trkpt>
      <trkpt lat="46.57375" lon="0.3217">
        <ele>95.773951</ele>
        <time>2020-06-13T20:33:02.442Z</time>
      </trkpt>
      <trkpt lat="46.57433" lon="0.32405">
        <ele>98.0893</ele>
        <time>2020-06-13T20:33:40.128Z</time>
      </trkpt>
      <trkpt lat="46.57469" lon="0.32584">
        <ele>98.432842</ele>
        <time>2020-06-13T20:34:05.421Z</time>
      </trkpt>
      <trkpt lat="46.57472" lon="0.32609">
        <ele>98.812137</ele>
        <time>2020-06-13T20:34:09.612Z</time>
      </trkpt>
      <trkpt lat="46.5748" lon="0.3264">
        <ele>99.300067</ele>
        <time>2020-06-13T20:34:15.063Z</time>
      </trkpt>
      <trkpt lat="46.57489" lon="0.32671">
        <ele>99.783329</ele>
        <time>2020-06-13T20:34:20.568Z</time>
      </trkpt>
      <trkpt lat="46.57489" lon="0.32693">
        <ele>100.10584</ele>
        <time>2020-06-13T20:34:24.185Z</time>
      </trkpt>
      <trkpt lat="46.57483" lon="0.32728">
        <ele>100.645195</ele>
        <time>2020-06-13T20:34:30.144Z</time>
      </trkpt>
      <trkpt lat="46.57446" lon="0.32717">
        <ele>101.449974</ele>
        <time>2020-06-13T20:34:39.174Z</time>
      </trkpt>
      <trkpt lat="46.57427" lon="0.32715">
        <ele>101.832693</ele>
        <time>2020-06-13T20:34:43.666Z</time>
      </trkpt>
      <trkpt lat="46.57409" lon="0.32712">
        <ele>102.102834</ele>
        <time>2020-06-13T20:34:47.704Z</time>
      </trkpt>
      <trkpt lat="46.57388" lon="0.3271">
        <ele>102.411812</ele>
        <time>2020-06-13T20:34:52.383Z</time>
      </trkpt>
      <trkpt lat="46.57382" lon="0.32711">
        <ele>102.511791</ele>
        <time>2020-06-13T20:34:53.753Z</time>
      </trkpt>
      <trkpt lat="46.57381" lon="0.32734">
        <ele>102.740961</ele>
        <time>2020-06-13T20:34:57.268Z</time>
      </trkpt>
      <trkpt lat="46.5738" lon="0.32796">
        <ele>103.375798</ele>
        <time>2020-06-13T20:35:06.767Z</time>
      </trkpt>
      <trkpt lat="46.57367" lon="0.32816">
        <ele>103.651819</ele>
        <time>2020-06-13T20:35:10.970Z</time>
      </trkpt>
      <trkpt lat="46.57356" lon="0.3284">
        <ele>103.946843</ele>
        <time>2020-06-13T20:35:15.388Z</time>
      </trkpt>
      <trkpt lat="46.57355" lon="0.32849">
        <ele>104.03815</ele>
        <time>2020-06-13T20:35:16.780Z</time>
      </trkpt>
      <trkpt lat="46.57354" lon="0.32859">
        <ele>104.140718</ele>
        <time>2020-06-13T20:35:18.326Z</time>
      </trkpt>
      <trkpt lat="46.57358" lon="0.32867">
        <ele>104.237806</ele>
        <time>2020-06-13T20:35:19.831Z</time>
      </trkpt>
      <trkpt lat="46.57371" lon="0.32882">
        <ele>104.234979</ele>
        <time>2020-06-13T20:35:23.016Z</time>
      </trkpt>
      <trkpt lat="46.57377" lon="0.32888">
        <ele>103.802294</ele>
        <time>2020-06-13T20:35:23.668Z</time>
      </trkpt>
      <trkpt lat="46.57385" lon="0.32895">
        <ele>103.195897</ele>
        <time>2020-06-13T20:35:24.468Z</time>
      </trkpt>
      <trkpt lat="46.57378" lon="0.32904">
        <ele>102.612786</ele>
        <time>2020-06-13T20:35:25.285Z</time>
      </trkpt>
      <trkpt lat="46.57376" lon="0.32907">
        <ele>102.405883</ele>
        <time>2020-06-13T20:35:25.550Z</time>
      </trkpt>
      <trkpt lat="46.57369" lon="0.32902">
        <ele>101.860512</ele>
        <time>2020-06-13T20:35:26.270Z</time>
      </trkpt>
      <trkpt lat="46.57363" lon="0.32904">
        <ele>101.517902</ele>
        <time>2020-06-13T20:35:26.838Z</time>
      </trkpt>
      <trkpt lat="46.57357" lon="0.32909">
        <ele>101.03261</ele>
        <time>2020-06-13T20:35:27.477Z</time>
      </trkpt>
      <trkpt lat="46.57353" lon="0.32912">
        <ele>100.735367</ele>
        <time>2020-06-13T20:35:27.859Z</time>
      </trkpt>
      <trkpt lat="46.57347" lon="0.32918">
        <ele>100.291997</ele>
        <time>2020-06-13T20:35:28.504Z</time>
      </trkpt>
      <trkpt lat="46.57336" lon="0.32925">
        <ele>99.528292</ele>
        <time>2020-06-13T20:35:29.544Z</time>
      </trkpt>
      <trkpt lat="46.57287" lon="0.32959">
        <ele>95.982197</ele>
        <time>2020-06-13T20:35:34.184Z</time>
      </trkpt>
      <trkpt lat="46.57273" lon="0.32969">
        <ele>95.027055</ele>
        <time>2020-06-13T20:35:35.560Z</time>
      </trkpt>
      <trkpt lat="46.57257" lon="0.32985">
        <ele>93.744605</ele>
        <time>2020-06-13T20:35:37.211Z</time>
      </trkpt>
      <trkpt lat="46.5725" lon="0.33001">
        <ele>92.928673</ele>
        <time>2020-06-13T20:35:38.349Z</time>
      </trkpt>
      <trkpt lat="46.5725" lon="0.33005">
        <ele>92.792084</ele>
        <time>2020-06-13T20:35:38.616Z</time>
      </trkpt>
      <trkpt lat="46.57249" lon="0.33008">
        <ele>92.678041</ele>
        <time>2020-06-13T20:35:38.838Z</time>
      </trkpt>
      <trkpt lat="46.57248" lon="0.33013">
        <ele>92.514417</ele>
        <time>2020-06-13T20:35:39.198Z</time>
      </trkpt>
      <trkpt lat="46.57253" lon="0.33045">
        <ele>91.464663</ele>
        <time>2020-06-13T20:35:41.451Z</time>
      </trkpt>
      <trkpt lat="46.57278" lon="0.33101">
        <ele>89.284398</ele>
        <time>2020-06-13T20:35:45.994Z</time>
      </trkpt>
      <trkpt lat="46.57283" lon="0.33112">
        <ele>88.845064</ele>
        <time>2020-06-13T20:35:46.884Z</time>
      </trkpt>
      <trkpt lat="46.57314" lon="0.33184">
        <ele>86.078351</ele>
        <time>2020-06-13T20:35:52.672Z</time>
      </trkpt>
      <trkpt lat="46.57382" lon="0.33384">
        <ele>83.582536</ele>
        <time>2020-06-13T20:36:13.669Z</time>
      </trkpt>
      <trkpt lat="46.57432" lon="0.33545">
        <ele>84.52906</ele>
        <time>2020-06-13T20:36:38.836Z</time>
      </trkpt>
      <trkpt lat="46.57434" lon="0.33565">
        <ele>84.850582</ele>
        <time>2020-06-13T20:36:42.229Z</time>
      </trkpt>
      <trkpt lat="46.57438" lon="0.33577">
        <ele>85.068818</ele>
        <time>2020-06-13T20:36:44.485Z</time>
        <extensions>
          <visugpx:TrkExtension xmlns:visugpx="https://www.visugpx.com/editgpx/">
            <visugpx:node>1</visugpx:node>
            </visugpx:TrkExtension>
        </extensions>
      </trkpt>
      <trkpt lat="46.57483" lon="0.33711">
        <ele>93</ele>
        <time>2020-06-13T20:37:26.517Z</time>
        <extensions>
          <visugpx:TrkExtension xmlns:visugpx="https://www.visugpx.com/editgpx/">
            <visugpx:node>3</visugpx:node>
            </visugpx:TrkExtension>
        </extensions>
      </trkpt>
      <trkpt lat="46.57491" lon="0.33718">
        <ele>93.5</ele>
        <time>2020-06-13T20:37:29.733Z</time>
      </trkpt>
      <trkpt lat="46.57496" lon="0.33723">
        <ele>93.9</ele>
        <time>2020-06-13T20:37:32.013Z</time>
      </trkpt>
      <trkpt lat="46.57502" lon="0.33744">
        <ele>100.1</ele>
        <time>2020-06-13T20:37:43.616Z</time>
      </trkpt>
      <trkpt lat="46.57519" lon="0.33797">
        <ele>101.3</ele>
        <time>2020-06-13T20:37:54.264Z</time>
      </trkpt>
      <trkpt lat="46.57543" lon="0.33857">
        <ele>98.5</ele>
        <time>2020-06-13T20:37:58.562Z</time>
      </trkpt>
      <trkpt lat="46.57561" lon="0.3393">
        <ele>92.4</ele>
        <time>2020-06-13T20:38:03.485Z</time>
      </trkpt>
      <trkpt lat="46.57583" lon="0.34012">
        <ele>86</ele>
        <time>2020-06-13T20:38:09.073Z</time>
        <extensions>
          <visugpx:TrkExtension xmlns:visugpx="https://www.visugpx.com/editgpx/">
            <visugpx:node>4</visugpx:node>
            </visugpx:TrkExtension>
        </extensions>
      </trkpt>
      <trkpt lat="46.57587" lon="0.34027">
        <ele>90.3</ele>
        <time>2020-06-13T20:38:17.282Z</time>
      </trkpt>
      <trkpt lat="46.5758" lon="0.34029">
        <ele>82.9</ele>
        <time>2020-06-13T20:38:17.941Z</time>
      </trkpt>
      <trkpt lat="46.57577" lon="0.34028">
        <ele>82.9</ele>
        <time>2020-06-13T20:38:18.533Z</time>
      </trkpt>
      <trkpt lat="46.57571" lon="0.34016">
        <ele>84.2</ele>
        <time>2020-06-13T20:38:25.502Z</time>
      </trkpt>
      <trkpt lat="46.5753" lon="0.33895">
        <ele>94.6</ele>
        <time>2020-06-13T20:39:18.141Z</time>
      </trkpt>
      <trkpt lat="46.57525" lon="0.33891">
        <ele>94.1</ele>
        <time>2020-06-13T20:39:18.668Z</time>
      </trkpt>
      <trkpt lat="46.57517" lon="0.3389">
        <ele>93.1</ele>
        <time>2020-06-13T20:39:19.410Z</time>
      </trkpt>
      <trkpt lat="46.575" lon="0.33895">
        <ele>90.8</ele>
        <time>2020-06-13T20:39:21.011Z</time>
      </trkpt>
      <trkpt lat="46.57494" lon="0.33894">
        <ele>82.7</ele>
        <time>2020-06-13T20:39:21.569Z</time>
      </trkpt>
      <trkpt lat="46.5749" lon="0.33888">
        <ele>82.8</ele>
        <time>2020-06-13T20:39:22.884Z</time>
      </trkpt>
      <trkpt lat="46.57454" lon="0.33782">
        <ele>85.2</ele>
        <time>2020-06-13T20:39:44.324Z</time>
      </trkpt>
      <trkpt lat="46.57438" lon="0.33749">
        <ele>84.4</ele>
        <time>2020-06-13T20:39:47.617Z</time>
        <extensions>
          <visugpx:TrkExtension xmlns:visugpx="https://www.visugpx.com/editgpx/">
            <visugpx:node>6</visugpx:node>
            </visugpx:TrkExtension>
        </extensions>
      </trkpt>
      <trkpt lat="46.57436" lon="0.33751">
        <ele>81.6</ele>
        <time>2020-06-13T20:39:47.841Z</time>
      </trkpt>
      <trkpt lat="46.5743" lon="0.33753">
        <ele>80.3</ele>
        <time>2020-06-13T20:39:48.410Z</time>
      </trkpt>
      <trkpt lat="46.57419" lon="0.33761">
        <ele>79.4</ele>
        <time>2020-06-13T20:39:49.545Z</time>
      </trkpt>
      <trkpt lat="46.57417" lon="0.33762">
        <ele>79.5</ele>
        <time>2020-06-13T20:39:50.245Z</time>
      </trkpt>
      <trkpt lat="46.57411" lon="0.33768">
        <ele>75.8</ele>
        <time>2020-06-13T20:39:50.917Z</time>
      </trkpt>
      <trkpt lat="46.57406" lon="0.33771">
        <ele>75.7</ele>
        <time>2020-06-13T20:39:51.638Z</time>
      </trkpt>
      <trkpt lat="46.57393" lon="0.33782">
        <ele>75.6</ele>
        <time>2020-06-13T20:39:54.264Z</time>
      </trkpt>
      <trkpt lat="46.57388" lon="0.33786">
        <ele>75.6</ele>
        <time>2020-06-13T20:39:55.362Z</time>
      </trkpt>
      <trkpt lat="46.57382" lon="0.33791">
        <ele>75.5</ele>
        <time>2020-06-13T20:39:56.330Z</time>
      </trkpt>
      <trkpt lat="46.5738" lon="0.33794">
        <ele>75.5</ele>
        <time>2020-06-13T20:39:56.883Z</time>
        <extensions>
          <visugpx:TrkExtension xmlns:visugpx="https://www.visugpx.com/editgpx/">
            <visugpx:node>7</visugpx:node>
            </visugpx:TrkExtension>
        </extensions>
      </trkpt>
      <trkpt lat="46.57382" lon="0.33791">
        <ele>75.5</ele>
        <time>2020-06-13T20:39:57.436Z</time>
      </trkpt>
      <trkpt lat="46.57371" lon="0.33764">
        <ele>75.6</ele>
        <time>2020-06-13T20:40:01.772Z</time>
      </trkpt>
      <trkpt lat="46.57366" lon="0.33753">
        <ele>75.7</ele>
        <time>2020-06-13T20:40:03.713Z</time>
      </trkpt>
      <trkpt lat="46.57356" lon="0.33729">
        <ele>76.6</ele>
        <time>2020-06-13T20:40:10.065Z</time>
      </trkpt>
      <trkpt lat="46.57343" lon="0.33697">
        <ele>76.4</ele>
        <time>2020-06-13T20:40:13.967Z</time>
      </trkpt>
      <trkpt lat="46.5734" lon="0.3369">
        <ele>76.3</ele>
        <time>2020-06-13T20:40:14.730Z</time>
      </trkpt>
      <trkpt lat="46.57309" lon="0.33694">
        <ele>75.6</ele>
        <time>2020-06-13T20:40:18.689Z</time>
      </trkpt>
      <trkpt lat="46.57304" lon="0.33694">
        <ele>75.6</ele>
        <time>2020-06-13T20:40:19.651Z</time>
      </trkpt>
      <trkpt lat="46.5728" lon="0.33697">
        <ele>75.7</ele>
        <time>2020-06-13T20:40:24.470Z</time>
        <extensions>
          <visugpx:TrkExtension xmlns:visugpx="https://www.visugpx.com/editgpx/">
            <visugpx:node>8</visugpx:node>
            </visugpx:TrkExtension>
        </extensions>
      </trkpt>
      <trkpt lat="46.57262" lon="0.337">
        <ele>75.7</ele>
        <time>2020-06-13T20:40:27.956Z</time>
      </trkpt>
      <trkpt lat="46.57244" lon="0.33702">
        <ele>76.5</ele>
        <time>2020-06-13T20:40:33.804Z</time>
      </trkpt>
      <trkpt lat="46.57241" lon="0.33703">
        <ele>76.6</ele>
        <time>2020-06-13T20:40:34.647Z</time>
      </trkpt>
      <trkpt lat="46.57242" lon="0.33707">
        <ele>76.6</ele>
        <time>2020-06-13T20:40:35.210Z</time>
      </trkpt>
      <trkpt lat="46.57242" lon="0.33707">
        <ele>76.6</ele>
        <time>2020-06-13T20:40:35.210Z</time>
        <extensions>
          <visugpx:TrkExtension xmlns:visugpx="https://www.visugpx.com/editgpx/">
            <visugpx:node>9</visugpx:node>
            </visugpx:TrkExtension>
        </extensions>
      </trkpt>
      <trkpt lat="46.57242" lon="0.33707">
        <ele>76.6</ele>
        <time>2020-06-13T20:40:35.210Z</time>
      </trkpt>
      <trkpt lat="46.57241" lon="0.33703">
        <ele>76.6</ele>
        <time>2020-06-13T20:40:35.773Z</time>
      </trkpt>
      <trkpt lat="46.57205" lon="0.33566">
        <ele>76.8</ele>
        <time>2020-06-13T20:40:55.535Z</time>
      </trkpt>
      <trkpt lat="46.5718" lon="0.3347">
        <ele>76.6</ele>
        <time>2020-06-13T20:41:08.550Z</time>
      </trkpt>
      <trkpt lat="46.57178" lon="0.33461">
        <ele>76.4</ele>
        <time>2020-06-13T20:41:09.306Z</time>
      </trkpt>
      <trkpt lat="46.57175" lon="0.33452">
        <ele>76.2</ele>
        <time>2020-06-13T20:41:10.120Z</time>
      </trkpt>
      <trkpt lat="46.57141" lon="0.3331">
        <ele>78</ele>
        <time>2020-06-13T20:41:33.787Z</time>
      </trkpt>
      <trkpt lat="46.57087" lon="0.33104">
        <ele>76.9</ele>
        <time>2020-06-13T20:41:57.114Z</time>
      </trkpt>
      <trkpt lat="46.57053" lon="0.32988">
        <ele>76.5</ele>
        <time>2020-06-13T20:42:12.695Z</time>
      </trkpt>
      <trkpt lat="46.57035" lon="0.3294">
        <ele>76.8</ele>
        <time>2020-06-13T20:42:20.499Z</time>
      </trkpt>
      <trkpt lat="46.57" lon="0.32861">
        <ele>75.6</ele>
        <time>2020-06-13T20:42:29.101Z</time>
      </trkpt>
      <trkpt lat="46.56987" lon="0.32842">
        <ele>76.9</ele>
        <time>2020-06-13T20:42:36.266Z</time>
      </trkpt>
      <trkpt lat="46.56975" lon="0.32824">
        <ele>76.4</ele>
        <time>2020-06-13T20:42:38.307Z</time>
      </trkpt>
      <trkpt lat="46.56963" lon="0.32806">
        <ele>76.8</ele>
        <time>2020-06-13T20:42:42.520Z</time>
      </trkpt>
      <trkpt lat="46.56954" lon="0.32788">
        <ele>76.8</ele>
        <time>2020-06-13T20:42:45.464Z</time>
      </trkpt>
      <trkpt lat="46.56948" lon="0.32771">
        <ele>76.6</ele>
        <time>2020-06-13T20:42:47.286Z</time>
      </trkpt>
      <trkpt lat="46.56946" lon="0.32765">
        <ele>76.6</ele>
        <time>2020-06-13T20:42:48.168Z</time>
      </trkpt>
      <trkpt lat="46.56946" lon="0.32751">
        <ele>76.5</ele>
        <time>2020-06-13T20:42:49.588Z</time>
      </trkpt>
      <trkpt lat="46.56946" lon="0.32737">
        <ele>76</ele>
        <time>2020-06-13T20:42:50.505Z</time>
      </trkpt>
      <trkpt lat="46.56945" lon="0.32725">
        <ele>76</ele>
        <time>2020-06-13T20:42:52.104Z</time>
      </trkpt>
      <trkpt lat="46.56936" lon="0.32701">
        <ele>75.8</ele>
        <time>2020-06-13T20:42:54.868Z</time>
      </trkpt>
      <trkpt lat="46.56913" lon="0.32666">
        <ele>75.1</ele>
        <time>2020-06-13T20:42:59.173Z</time>
      </trkpt>
      <trkpt lat="46.56868" lon="0.32597">
        <ele>75.6</ele>
        <time>2020-06-13T20:43:12.704Z</time>
      </trkpt>
      <trkpt lat="46.56824" lon="0.32524">
        <ele>75.2</ele>
        <time>2020-06-13T20:43:24.467Z</time>
      </trkpt>
      <trkpt lat="46.56796" lon="0.32467">
        <ele>75.6</ele>
        <time>2020-06-13T20:43:34.499Z</time>
      </trkpt>
      <trkpt lat="46.56772" lon="0.32417">
        <ele>76</ele>
        <time>2020-06-13T20:43:43.339Z</time>
      </trkpt>
      <trkpt lat="46.56745" lon="0.3237">
        <ele>77.9</ele>
        <time>2020-06-13T20:43:57.069Z</time>
      </trkpt>
      <trkpt lat="46.56705" lon="0.32306">
        <ele>78.9</ele>
        <time>2020-06-13T20:44:10.596Z</time>
      </trkpt>
      <trkpt lat="46.56689" lon="0.32285">
        <ele>78.8</ele>
        <time>2020-06-13T20:44:14.468Z</time>
      </trkpt>
      <trkpt lat="46.56672" lon="0.32265">
        <ele>78.5</ele>
        <time>2020-06-13T20:44:17.558Z</time>
      </trkpt>
      <trkpt lat="46.56642" lon="0.3224">
        <ele>78.1</ele>
        <time>2020-06-13T20:44:22.581Z</time>
      </trkpt>
      <trkpt lat="46.56588" lon="0.32212">
        <ele>77.9</ele>
        <time>2020-06-13T20:44:33.053Z</time>
      </trkpt>
      <trkpt lat="46.56525" lon="0.32177">
        <ele>76.9</ele>
        <time>2020-06-13T20:44:42.452Z</time>
      </trkpt>
      <trkpt lat="46.56493" lon="0.32158">
        <ele>75.6</ele>
        <time>2020-06-13T20:44:46.202Z</time>
      </trkpt>
      <trkpt lat="46.56491" lon="0.32157">
        <ele>75.6</ele>
        <time>2020-06-13T20:44:46.609Z</time>
      </trkpt>
      <trkpt lat="46.56468" lon="0.32147">
        <ele>75.1</ele>
        <time>2020-06-13T20:44:49.721Z</time>
      </trkpt>
      <trkpt lat="46.56459" lon="0.32144">
        <ele>75</ele>
        <time>2020-06-13T20:44:51.076Z</time>
      </trkpt>
      <trkpt lat="46.56437" lon="0.32142">
        <ele>74.7</ele>
        <time>2020-06-13T20:44:54.195Z</time>
      </trkpt>
      <trkpt lat="46.564" lon="0.32142">
        <ele>74</ele>
        <time>2020-06-13T20:44:59.101Z</time>
      </trkpt>
      <trkpt lat="46.56373" lon="0.32145">
        <ele>74</ele>
        <time>2020-06-13T20:45:04.312Z</time>
      </trkpt>
      <trkpt lat="46.5634" lon="0.32152">
        <ele>74</ele>
        <time>2020-06-13T20:45:10.730Z</time>
      </trkpt>
      <trkpt lat="46.56297" lon="0.32169">
        <ele>75.4</ele>
        <time>2020-06-13T20:45:22.770Z</time>
      </trkpt>
      <trkpt lat="46.56261" lon="0.32187">
        <ele>76.1</ele>
        <time>2020-06-13T20:45:31.579Z</time>
      </trkpt>
      <trkpt lat="46.56242" lon="0.32197">
        <ele>76.2</ele>
        <time>2020-06-13T20:45:35.652Z</time>
      </trkpt>
      <trkpt lat="46.56173" lon="0.32229">
        <ele>75.3</ele>
        <time>2020-06-13T20:45:46.057Z</time>
      </trkpt>
      <trkpt lat="46.56157" lon="0.32241">
        <ele>75.1</ele>
        <time>2020-06-13T20:45:48.688Z</time>
      </trkpt>
      <trkpt lat="46.56119" lon="0.32274">
        <ele>75.9</ele>
        <time>2020-06-13T20:45:58.895Z</time>
      </trkpt>
      <trkpt lat="46.56102" lon="0.32287">
        <ele>76</ele>
        <time>2020-06-13T20:46:02.776Z</time>
        <extensions>
          <visugpx:TrkExtension xmlns:visugpx="https://www.visugpx.com/editgpx/">
            <visugpx:node>10</visugpx:node>
            </visugpx:TrkExtension>
        </extensions>
      </trkpt>
      <trkpt lat="46.56101" lon="0.32287">
        <ele>76</ele>
        <time>2020-06-13T20:46:02.969Z</time>
      </trkpt>
      <trkpt lat="46.56093" lon="0.32292">
        <ele>76.2</ele>
        <time>2020-06-13T20:46:05.091Z</time>
      </trkpt>
      <trkpt lat="46.55994" lon="0.32347">
        <ele>76.7</ele>
        <time>2020-06-13T20:46:26.406Z</time>
      </trkpt>
      <trkpt lat="46.55964" lon="0.3236">
        <ele>77.2</ele>
        <time>2020-06-13T20:46:33.462Z</time>
      </trkpt>
      <trkpt lat="46.55955" lon="0.32368">
        <ele>77.3</ele>
        <time>2020-06-13T20:46:35.685Z</time>
      </trkpt>
      <trkpt lat="46.55947" lon="0.32383">
        <ele>77.1</ele>
        <time>2020-06-13T20:46:37.493Z</time>
      </trkpt>
      <trkpt lat="46.55937" lon="0.32411">
        <ele>76.4</ele>
        <time>2020-06-13T20:46:39.976Z</time>
      </trkpt>
      <trkpt lat="46.55932" lon="0.3243">
        <ele>75.6</ele>
        <time>2020-06-13T20:46:41.251Z</time>
      </trkpt>
      <trkpt lat="46.55927" lon="0.32466">
        <ele>75.4</ele>
        <time>2020-06-13T20:46:45.103Z</time>
      </trkpt>
      <trkpt lat="46.55924" lon="0.32502">
        <ele>74.3</ele>
        <time>2020-06-13T20:46:47.647Z</time>
      </trkpt>
      <trkpt lat="46.55926" lon="0.32521">
        <ele>74.6</ele>
        <time>2020-06-13T20:46:50.858Z</time>
      </trkpt>
      <trkpt lat="46.55938" lon="0.32567">
        <ele>74.7</ele>
        <time>2020-06-13T20:46:57.550Z</time>
      </trkpt>
      <trkpt lat="46.55943" lon="0.32586">
        <ele>74.5</ele>
        <time>2020-06-13T20:46:59.512Z</time>
      </trkpt>
      <trkpt lat="46.55951" lon="0.32614">
        <ele>74.6</ele>
        <time>2020-06-13T20:47:03.709Z</time>
      </trkpt>
      <trkpt lat="46.55961" lon="0.32638">
        <ele>74.8</ele>
        <time>2020-06-13T20:47:07.811Z</time>
      </trkpt>
      <trkpt lat="46.55981" lon="0.32669">
        <ele>75.3</ele>
        <time>2020-06-13T20:47:14.481Z</time>
      </trkpt>
      <trkpt lat="46.5599" lon="0.32683">
        <ele>75.4</ele>
        <time>2020-06-13T20:47:17.207Z</time>
      </trkpt>
      <trkpt lat="46.55996" lon="0.32697">
        <ele>75</ele>
        <time>2020-06-13T20:47:18.466Z</time>
      </trkpt>
      <trkpt lat="46.56007" lon="0.32718">
        <ele>77.6</ele>
        <time>2020-06-13T20:47:31.940Z</time>
      </trkpt>
      <trkpt lat="46.56021" lon="0.32736">
        <ele>77.5</ele>
        <time>2020-06-13T20:47:35.263Z</time>
      </trkpt>
      <trkpt lat="46.56066" lon="0.32781">
        <ele>77.1</ele>
        <time>2020-06-13T20:47:43.661Z</time>
      </trkpt>
      <trkpt lat="46.56115" lon="0.32819">
        <ele>80.5</ele>
        <time>2020-06-13T20:48:03.830Z</time>
      </trkpt>
      <trkpt lat="46.56158" lon="0.32848">
        <ele>80.4</ele>
        <time>2020-06-13T20:48:12.666Z</time>
      </trkpt>
      <trkpt lat="46.56181" lon="0.32857">
        <ele>82.1</ele>
        <time>2020-06-13T20:48:21.985Z</time>
      </trkpt>
      <trkpt lat="46.56199" lon="0.32864">
        <ele>82.2</ele>
        <time>2020-06-13T20:48:25.756Z</time>
      </trkpt>
      <trkpt lat="46.56211" lon="0.32876">
        <ele>82</ele>
        <time>2020-06-13T20:48:27.814Z</time>
      </trkpt>
      <trkpt lat="46.56221" lon="0.32896">
        <ele>81.5</ele>
        <time>2020-06-13T20:48:29.819Z</time>
      </trkpt>
      <trkpt lat="46.56231" lon="0.32915">
        <ele>81.3</ele>
        <time>2020-06-13T20:48:32.190Z</time>
      </trkpt>
      <trkpt lat="46.5624" lon="0.32922">
        <ele>79.8</ele>
        <time>2020-06-13T20:48:33.133Z</time>
      </trkpt>
      <trkpt lat="46.56274" lon="0.3296">
        <ele>83.2</ele>
        <time>2020-06-13T20:48:50.988Z</time>
      </trkpt>
      <trkpt lat="46.56285" lon="0.32976">
        <ele>83.5</ele>
        <time>2020-06-13T20:48:54.624Z</time>
      </trkpt>
      <trkpt lat="46.56298" lon="0.33006">
        <ele>81.9</ele>
        <time>2020-06-13T20:48:56.704Z</time>
      </trkpt>
      <trkpt lat="46.56305" lon="0.33013">
        <ele>82.4</ele>
        <time>2020-06-13T20:48:59.738Z</time>
      </trkpt>
      <trkpt lat="46.56318" lon="0.33062">
        <ele>82</ele>
        <time>2020-06-13T20:49:05.018Z</time>
      </trkpt>
      <trkpt lat="46.56321" lon="0.33097">
        <ele>81.3</ele>
        <time>2020-06-13T20:49:07.894Z</time>
        <extensions>
          <visugpx:TrkExtension xmlns:visugpx="https://www.visugpx.com/editgpx/">
            <visugpx:node>11</visugpx:node>
            </visugpx:TrkExtension>
        </extensions>
      </trkpt>
      <trkpt lat="46.56322" lon="0.33109">
        <ele>80.7</ele>
        <time>2020-06-13T20:49:08.661Z</time>
      </trkpt>
      <trkpt lat="46.56322" lon="0.33146">
        <ele>80.6</ele>
        <time>2020-06-13T20:49:13.279Z</time>
      </trkpt>
      <trkpt lat="46.56319" lon="0.33163">
        <ele>81</ele>
        <time>2020-06-13T20:49:16.613Z</time>
      </trkpt>
      <trkpt lat="46.56297" lon="0.33209">
        <ele>80.9</ele>
        <time>2020-06-13T20:49:23.744Z</time>
      </trkpt>
      <trkpt lat="46.56292" lon="0.33226">
        <ele>80.9</ele>
        <time>2020-06-13T20:49:26.190Z</time>
      </trkpt>
      <trkpt lat="46.56288" lon="0.33253">
        <ele>82.8</ele>
        <time>2020-06-13T20:49:35.698Z</time>
      </trkpt>
      <trkpt lat="46.56266" lon="0.33339">
        <ele>82.1</ele>
        <time>2020-06-13T20:49:44.921Z</time>
      </trkpt>
      <trkpt lat="46.56257" lon="0.3339">
        <ele>85</ele>
        <time>2020-06-13T20:50:00.096Z</time>
      </trkpt>
      <trkpt lat="46.56246" lon="0.33423">
        <ele>80.9</ele>
        <time>2020-06-13T20:50:02.424Z</time>
      </trkpt>
      <trkpt lat="46.5623" lon="0.33461">
        <ele>81.4</ele>
        <time>2020-06-13T20:50:09.356Z</time>
      </trkpt>
      <trkpt lat="46.56217" lon="0.33503">
        <ele>84.7</ele>
        <time>2020-06-13T20:50:25.882Z</time>
      </trkpt>
      <trkpt lat="46.56199" lon="0.33528">
        <ele>83.5</ele>
        <time>2020-06-13T20:50:28.330Z</time>
      </trkpt>
      <trkpt lat="46.56191" lon="0.33545">
        <ele>83.4</ele>
        <time>2020-06-13T20:50:30.789Z</time>
      </trkpt>
      <trkpt lat="46.56197" lon="0.3356">
        <ele>84.1</ele>
        <time>2020-06-13T20:50:35.046Z</time>
      </trkpt>
      <trkpt lat="46.5615" lon="0.33614">
        <ele>82.6</ele>
        <time>2020-06-13T20:50:42.449Z</time>
      </trkpt>
      <trkpt lat="46.56143" lon="0.33623">
        <ele>83.2</ele>
        <time>2020-06-13T20:50:45.916Z</time>
      </trkpt>
      <trkpt lat="46.56088" lon="0.33672">
        <ele>86.1</ele>
        <time>2020-06-13T20:51:06.926Z</time>
      </trkpt>
      <trkpt lat="46.56034" lon="0.33727">
        <ele>87.6</ele>
        <time>2020-06-13T20:51:22.952Z</time>
      </trkpt>
      <trkpt lat="46.55939" lon="0.33835">
        <ele>93.3</ele>
        <time>2020-06-13T20:52:02.814Z</time>
      </trkpt>
      <trkpt lat="46.55886" lon="0.33889">
        <ele>88.4</ele>
        <time>2020-06-13T20:52:08.790Z</time>
      </trkpt>
      <trkpt lat="46.55859" lon="0.33905">
        <ele>86.7</ele>
        <time>2020-06-13T20:52:11.424Z</time>
      </trkpt>
      <trkpt lat="46.55826" lon="0.33915">
        <ele>83.7</ele>
        <time>2020-06-13T20:52:14.537Z</time>
      </trkpt>
      <trkpt lat="46.55762" lon="0.33874">
        <ele>79.6</ele>
        <time>2020-06-13T20:52:20.837Z</time>
        <extensions>
          <visugpx:TrkExtension xmlns:visugpx="https://www.visugpx.com/editgpx/">
            <visugpx:node>12</visugpx:node>
            </visugpx:TrkExtension>
        </extensions>
      </trkpt>
      <trkpt lat="46.5576" lon="0.33873">
        <ele>79.6</ele>
        <time>2020-06-13T20:52:21.244Z</time>
      </trkpt>
      <trkpt lat="46.55706" lon="0.33909">
        <ele>79.1</ele>
        <time>2020-06-13T20:52:30.243Z</time>
      </trkpt>
      <trkpt lat="46.5565" lon="0.33931">
        <ele>85.4</ele>
        <time>2020-06-13T20:53:01.930Z</time>
      </trkpt>
      <trkpt lat="46.55618" lon="0.33932">
        <ele>86.7</ele>
        <time>2020-06-13T20:53:11.738Z</time>
      </trkpt>
      <trkpt lat="46.55589" lon="0.33913">
        <ele>78.6</ele>
        <time>2020-06-13T20:53:14.676Z</time>
      </trkpt>
      <trkpt lat="46.55582" lon="0.33904">
        <ele>78.7</ele>
        <time>2020-06-13T20:53:16.669Z</time>
      </trkpt>
      <trkpt lat="46.55579" lon="0.33901">
        <ele>78.7</ele>
        <time>2020-06-13T20:53:17.370Z</time>
      </trkpt>
      <trkpt lat="46.55542" lon="0.33859">
        <ele>78.2</ele>
        <time>2020-06-13T20:53:24.271Z</time>
      </trkpt>
      <trkpt lat="46.55497" lon="0.33796">
        <ele>77.8</ele>
        <time>2020-06-13T20:53:35.218Z</time>
      </trkpt>
      <trkpt lat="46.55471" lon="0.33778">
        <ele>77.5</ele>
        <time>2020-06-13T20:53:39.465Z</time>
      </trkpt>
      <trkpt lat="46.55379" lon="0.33763">
        <ele>78.4</ele>
        <time>2020-06-13T20:53:59.021Z</time>
      </trkpt>
      <trkpt lat="46.55361" lon="0.33752">
        <ele>79</ele>
        <time>2020-06-13T20:54:04.251Z</time>
      </trkpt>
      <trkpt lat="46.55343" lon="0.33748">
        <ele>81.3</ele>
        <time>2020-06-13T20:54:16.505Z</time>
      </trkpt>
      <trkpt lat="46.55327" lon="0.33737">
        <ele>81.4</ele>
        <time>2020-06-13T20:54:20.097Z</time>
      </trkpt>
      <trkpt lat="46.55197" lon="0.33743">
        <ele>78.7</ele>
        <time>2020-06-13T20:54:36.973Z</time>
      </trkpt>
      <trkpt lat="46.5516" lon="0.33742">
        <ele>77.5</ele>
        <time>2020-06-13T20:54:41.202Z</time>
      </trkpt>
      <trkpt lat="46.55036" lon="0.33722">
        <ele>77</ele>
        <time>2020-06-13T20:55:03.821Z</time>
      </trkpt>
      <trkpt lat="46.55027" lon="0.3372">
        <ele>77</ele>
        <time>2020-06-13T20:55:05.573Z</time>
      </trkpt>
      <trkpt lat="46.55011" lon="0.33719">
        <ele>77.1</ele>
        <time>2020-06-13T20:55:08.842Z</time>
      </trkpt>
      <trkpt lat="46.55006" lon="0.33718">
        <ele>77.1</ele>
        <time>2020-06-13T20:55:09.813Z</time>
      </trkpt>
      <trkpt lat="46.55006" lon="0.33717">
        <ele>77.1</ele>
        <time>2020-06-13T20:55:09.946Z</time>
        <extensions>
          <visugpx:TrkExtension xmlns:visugpx="https://www.visugpx.com/editgpx/">
            <visugpx:node>13</visugpx:node>
            </visugpx:TrkExtension>
        </extensions>
      </trkpt>
      <trkpt lat="46.55008" lon="0.33702">
        <ele>77.2</ele>
        <time>2020-06-13T20:55:12.161Z</time>
      </trkpt>
      <trkpt lat="46.5501" lon="0.33689">
        <ele>77.4</ele>
        <time>2020-06-13T20:55:14.365Z</time>
      </trkpt>
      <trkpt lat="46.55011" lon="0.33686">
        <ele>77.4</ele>
        <time>2020-06-13T20:55:14.806Z</time>
      </trkpt>
      <trkpt lat="46.55016" lon="0.33648">
        <ele>77.1</ele>
        <time>2020-06-13T20:55:18.686Z</time>
      </trkpt>
      <trkpt lat="46.55017" lon="0.33637">
        <ele>76.8</ele>
        <time>2020-06-13T20:55:19.500Z</time>
      </trkpt>
      <trkpt lat="46.55018" lon="0.33629">
        <ele>76.6</ele>
        <time>2020-06-13T20:55:20.118Z</time>
      </trkpt>
      <trkpt lat="46.55018" lon="0.33614">
        <ele>76.3</ele>
        <time>2020-06-13T20:55:21.339Z</time>
      </trkpt>
      <trkpt lat="46.55017" lon="0.33598">
        <ele>75.8</ele>
        <time>2020-06-13T20:55:22.455Z</time>
      </trkpt>
      <trkpt lat="46.55014" lon="0.33577">
        <ele>76.3</ele>
        <time>2020-06-13T20:55:26.571Z</time>
      </trkpt>
      <trkpt lat="46.55013" lon="0.33574">
        <ele>76.4</ele>
        <time>2020-06-13T20:55:27.306Z</time>
      </trkpt>
      <trkpt lat="46.5501" lon="0.33563">
        <ele>77</ele>
        <time>2020-06-13T20:55:30.549Z</time>
      </trkpt>
      <trkpt lat="46.55009" lon="0.33558">
        <ele>77.3</ele>
        <time>2020-06-13T20:55:32.096Z</time>
      </trkpt>
      <trkpt lat="46.55" lon="0.33522">
        <ele>75.8</ele>
        <time>2020-06-13T20:55:34.502Z</time>
      </trkpt>
      <trkpt lat="46.54995" lon="0.33501">
        <ele>76</ele>
        <time>2020-06-13T20:55:37.844Z</time>
      </trkpt>
      <trkpt lat="46.54993" lon="0.33491">
        <ele>78.3</ele>
        <time>2020-06-13T20:55:43.160Z</time>
      </trkpt>
      <trkpt lat="46.5499" lon="0.33478">
        <ele>80.1</ele>
        <time>2020-06-13T20:55:50.160Z</time>
      </trkpt>
      <trkpt lat="46.54987" lon="0.33466">
        <ele>81.6</ele>
        <time>2020-06-13T20:55:56.677Z</time>
      </trkpt>
      <trkpt lat="46.54987" lon="0.33458">
        <ele>82.6</ele>
        <time>2020-06-13T20:56:00.761Z</time>
      </trkpt>
      <trkpt lat="46.54986" lon="0.33448">
        <ele>84</ele>
        <time>2020-06-13T20:56:05.920Z</time>
      </trkpt>
      <trkpt lat="46.54988" lon="0.33442">
        <ele>85.1</ele>
        <time>2020-06-13T20:56:09.323Z</time>
        <extensions>
          <visugpx:TrkExtension xmlns:visugpx="https://www.visugpx.com/editgpx/">
            <visugpx:node>14</visugpx:node>
            </visugpx:TrkExtension>
        </extensions>
      </trkpt>
      <trkpt lat="46.54989" lon="0.33437">
        <ele>86.1</ele>
        <time>2020-06-13T20:56:11.981Z</time>
      </trkpt>
      <trkpt lat="46.54991" lon="0.33433">
        <ele>87.1</ele>
        <time>2020-06-13T20:56:14.506Z</time>
      </trkpt>
      <trkpt lat="46.54975" lon="0.33423">
        <ele>85.8</ele>
        <time>2020-06-13T20:56:16.114Z</time>
      </trkpt>
      <trkpt lat="46.54863" lon="0.33335">
        <ele>89.1</ele>
        <time>2020-06-13T20:56:48.241Z</time>
      </trkpt>
      <trkpt lat="46.54769" lon="0.33264">
        <ele>90.8</ele>
        <time>2020-06-13T20:57:12.138Z</time>
      </trkpt>
      <trkpt lat="46.54702" lon="0.33206">
        <ele>91.1</ele>
        <time>2020-06-13T20:57:27.691Z</time>
      </trkpt>
      <trkpt lat="46.54612" lon="0.33122">
        <ele>89.7</ele>
        <time>2020-06-13T20:57:42.926Z</time>
      </trkpt>
      <trkpt lat="46.5459" lon="0.331">
        <ele>88.4</ele>
        <time>2020-06-13T20:57:45.542Z</time>
      </trkpt>
      <trkpt lat="46.54501" lon="0.32985">
        <ele>92</ele>
        <time>2020-06-13T20:58:17.231Z</time>
      </trkpt>
      <trkpt lat="46.54404" lon="0.32844">
        <ele>87.8</ele>
        <time>2020-06-13T20:58:33.198Z</time>
      </trkpt>
      <trkpt lat="46.54372" lon="0.32805">
        <ele>92.7</ele>
        <time>2020-06-13T20:58:58.346Z</time>
      </trkpt>
      <trkpt lat="46.54351" lon="0.32783">
        <ele>92.6</ele>
        <time>2020-06-13T20:59:03.048Z</time>
      </trkpt>
      <trkpt lat="46.54288" lon="0.32733">
        <ele>91.2</ele>
        <time>2020-06-13T20:59:12.499Z</time>
      </trkpt>
      <trkpt lat="46.54256" lon="0.32724">
        <ele>89</ele>
        <time>2020-06-13T20:59:15.510Z</time>
      </trkpt>
      <trkpt lat="46.54232" lon="0.32724">
        <ele>85.7</ele>
        <time>2020-06-13T20:59:17.726Z</time>
      </trkpt>
      <trkpt lat="46.54216" lon="0.32713">
        <ele>87.5</ele>
        <time>2020-06-13T20:59:26.732Z</time>
      </trkpt>
      <trkpt lat="46.54214" lon="0.32713">
        <ele>87.5</ele>
        <time>2020-06-13T20:59:27.117Z</time>
        <extensions>
          <visugpx:TrkExtension xmlns:visugpx="https://www.visugpx.com/editgpx/">
            <visugpx:node>15</visugpx:node>
            </visugpx:TrkExtension>
        </extensions>
      </trkpt>
      <trkpt lat="46.54205" lon="0.32713">
        <ele>87.4</ele>
        <time>2020-06-13T20:59:28.433Z</time>
      </trkpt>
      <trkpt lat="46.54206" lon="0.32716">
        <ele>87.1</ele>
        <time>2020-06-13T20:59:28.644Z</time>
      </trkpt>
      <trkpt lat="46.54195" lon="0.32761">
        <ele>76.7</ele>
        <time>2020-06-13T20:59:31.678Z</time>
      </trkpt>
      <trkpt lat="46.54189" lon="0.32764">
        <ele>76.7</ele>
        <time>2020-06-13T20:59:32.899Z</time>
      </trkpt>
      <trkpt lat="46.5418" lon="0.32779">
        <ele>76.4</ele>
        <time>2020-06-13T20:59:34.652Z</time>
      </trkpt>
      <trkpt lat="46.54159" lon="0.32789">
        <ele>77.7</ele>
        <time>2020-06-13T20:59:42.544Z</time>
      </trkpt>
      <trkpt lat="46.54154" lon="0.32786">
        <ele>77.9</ele>
        <time>2020-06-13T20:59:44.118Z</time>
      </trkpt>
      <trkpt lat="46.54097" lon="0.32819">
        <ele>79.1</ele>
        <time>2020-06-13T20:59:58.502Z</time>
      </trkpt>
      <trkpt lat="46.54064" lon="0.32873">
        <ele>81.9</ele>
        <time>2020-06-13T21:00:15.947Z</time>
      </trkpt>
      <trkpt lat="46.54044" lon="0.32873">
        <ele>82.7</ele>
        <time>2020-06-13T21:00:22.021Z</time>
      </trkpt>
      <trkpt lat="46.54014" lon="0.32889">
        <ele>83.1</ele>
        <time>2020-06-13T21:00:28.967Z</time>
      </trkpt>
      <trkpt lat="46.53971" lon="0.32925">
        <ele>87.8</ele>
        <time>2020-06-13T21:00:52.583Z</time>
      </trkpt>
      <trkpt lat="46.53944" lon="0.32951">
        <ele>90.6</ele>
        <time>2020-06-13T21:01:06.901Z</time>
      </trkpt>
      <trkpt lat="46.53901" lon="0.33019">
        <ele>94.8</ele>
        <time>2020-06-13T21:01:30.802Z</time>
      </trkpt>
      <trkpt lat="46.53876" lon="0.33086">
        <ele>92.2</ele>
        <time>2020-06-13T21:01:35.898Z</time>
      </trkpt>
      <trkpt lat="46.53871" lon="0.33123">
        <ele>92.4</ele>
        <time>2020-06-13T21:01:41.268Z</time>
      </trkpt>
      <trkpt lat="46.53853" lon="0.33212">
        <ele>92.7</ele>
        <time>2020-06-13T21:01:54.101Z</time>
      </trkpt>
      <trkpt lat="46.53852" lon="0.33217">
        <ele>92.9</ele>
        <time>2020-06-13T21:01:55.354Z</time>
      </trkpt>
      <trkpt lat="46.53821" lon="0.33329">
        <ele>97.7</ele>
        <time>2020-06-13T21:02:24.802Z</time>
      </trkpt>
      <trkpt lat="46.53777" lon="0.33454">
        <ele>98.2</ele>
        <time>2020-06-13T21:02:44.315Z</time>
      </trkpt>
      <trkpt lat="46.53731" lon="0.33598">
        <ele>99</ele>
        <time>2020-06-13T21:03:06.843Z</time>
      </trkpt>
      <trkpt lat="46.53714" lon="0.33632">
        <ele>99.7</ele>
        <time>2020-06-13T21:03:13.993Z</time>
      </trkpt>
      <trkpt lat="46.53701" lon="0.3365">
        <ele>100.3</ele>
        <time>2020-06-13T21:03:18.972Z</time>
      </trkpt>
      <trkpt lat="46.5368" lon="0.33676">
        <ele>99.2</ele>
        <time>2020-06-13T21:03:21.900Z</time>
      </trkpt>
      <trkpt lat="46.53679" lon="0.33675">
        <ele>99.5</ele>
        <time>2020-06-13T21:03:22.801Z</time>
        <extensions>
          <visugpx:TrkExtension xmlns:visugpx="https://www.visugpx.com/editgpx/">
            <visugpx:node>16</visugpx:node>
            </visugpx:TrkExtension>
        </extensions>
      </trkpt>
      <trkpt lat="46.53652" lon="0.33641">
        <ele>109.4</ele>
        <time>2020-06-13T21:03:49.316Z</time>
      </trkpt>
      <trkpt lat="46.53607" lon="0.3359">
        <ele>114.5</ele>
        <time>2020-06-13T21:04:15.192Z</time>
      </trkpt>
      <trkpt lat="46.53522" lon="0.33484">
        <ele>120</ele>
        <time>2020-06-13T21:04:52.658Z</time>
      </trkpt>
      <trkpt lat="46.53503" lon="0.33462">
        <ele>120.5</ele>
        <time>2020-06-13T21:04:58.419Z</time>
      </trkpt>
      <trkpt lat="46.53482" lon="0.33437">
        <ele>118</ele>
        <time>2020-06-13T21:05:00.925Z</time>
      </trkpt>
      <trkpt lat="46.53472" lon="0.33415">
        <ele>119.1</ele>
        <time>2020-06-13T21:05:07.487Z</time>
      </trkpt>
      <trkpt lat="46.53466" lon="0.33378">
        <ele>118.6</ele>
        <time>2020-06-13T21:05:10.946Z</time>
      </trkpt>
      <trkpt lat="46.53458" lon="0.33366">
        <ele>118.3</ele>
        <time>2020-06-13T21:05:12.350Z</time>
      </trkpt>
      <trkpt lat="46.53463" lon="0.33349">
        <ele>118.8</ele>
        <time>2020-06-13T21:05:16.175Z</time>
      </trkpt>
      <trkpt lat="46.5346" lon="0.33331">
        <ele>119.6</ele>
        <time>2020-06-13T21:05:20.854Z</time>
      </trkpt>
      <trkpt lat="46.53454" lon="0.33314">
        <ele>119.3</ele>
        <time>2020-06-13T21:05:22.520Z</time>
      </trkpt>
      <trkpt lat="46.53459" lon="0.33286">
        <ele>119.8</ele>
        <time>2020-06-13T21:05:27.494Z</time>
      </trkpt>
      <trkpt lat="46.53447" lon="0.33237">
        <ele>121.2</ele>
        <time>2020-06-13T21:05:38.226Z</time>
      </trkpt>
      <trkpt lat="46.53447" lon="0.33214">
        <ele>121.9</ele>
        <time>2020-06-13T21:05:43.345Z</time>
      </trkpt>
      <trkpt lat="46.53443" lon="0.33167">
        <ele>122.7</ele>
        <time>2020-06-13T21:05:51.434Z</time>
        <extensions>
          <visugpx:TrkExtension xmlns:visugpx="https://www.visugpx.com/editgpx/">
            <visugpx:node>17</visugpx:node>
            </visugpx:TrkExtension>
        </extensions>
      </trkpt>
      <trkpt lat="46.53443" lon="0.33166">
        <ele>125</ele>
        <time>2020-06-13T21:05:51.945Z</time>
      </trkpt>
      <trkpt lat="46.53436" lon="0.33149">
        <ele>125.1</ele>
        <time>2020-06-13T21:05:54.756Z</time>
      </trkpt>
      <trkpt lat="46.53432" lon="0.33138">
        <ele>125.4</ele>
        <time>2020-06-13T21:05:57.182Z</time>
      </trkpt>
      <trkpt lat="46.5341" lon="0.33132">
        <ele>125.4</ele>
        <time>2020-06-13T21:06:01.490Z</time>
      </trkpt>
      <trkpt lat="46.53344" lon="0.33162">
        <ele>124.7</ele>
        <time>2020-06-13T21:06:11.728Z</time>
      </trkpt>
      <trkpt lat="46.53281" lon="0.33187">
        <ele>125.9</ele>
        <time>2020-06-13T21:06:26.839Z</time>
      </trkpt>
      <trkpt lat="46.53215" lon="0.33227">
        <ele>130.9</ele>
        <time>2020-06-13T21:06:54.513Z</time>
      </trkpt>
      <trkpt lat="46.53214" lon="0.33226">
        <ele>131</ele>
        <time>2020-06-13T21:06:55.031Z</time>
        <extensions>
          <visugpx:TrkExtension xmlns:visugpx="https://www.visugpx.com/editgpx/">
            <visugpx:node>18</visugpx:node>
            </visugpx:TrkExtension>
        </extensions>
      </trkpt>
      <trkpt lat="46.53215" lon="0.33227">
        <ele>130.9</ele>
        <time>2020-06-13T21:06:55.143Z</time>
      </trkpt>
      <trkpt lat="46.53202" lon="0.33259">
        <ele>128.2</ele>
        <time>2020-06-13T21:06:57.504Z</time>
      </trkpt>
      <trkpt lat="46.53189" lon="0.33288">
        <ele>127.9</ele>
        <time>2020-06-13T21:07:00.918Z</time>
      </trkpt>
      <trkpt lat="46.53164" lon="0.33329">
        <ele>129.3</ele>
        <time>2020-06-13T21:07:11.911Z</time>
      </trkpt>
      <trkpt lat="46.53132" lon="0.33346">
        <ele>126.6</ele>
        <time>2020-06-13T21:07:15.058Z</time>
      </trkpt>
      <trkpt lat="46.53095" lon="0.33359">
        <ele>126.5</ele>
        <time>2020-06-13T21:07:22.100Z</time>
      </trkpt>
      <trkpt lat="46.53073" lon="0.33372">
        <ele>124.5</ele>
        <time>2020-06-13T21:07:24.293Z</time>
      </trkpt>
      <trkpt lat="46.53005" lon="0.33376">
        <ele>122.6</ele>
        <time>2020-06-13T21:07:32.445Z</time>
      </trkpt>
      <trkpt lat="46.52967" lon="0.33397">
        <ele>118.9</ele>
        <time>2020-06-13T21:07:36.200Z</time>
      </trkpt>
      <trkpt lat="46.52951" lon="0.3341">
        <ele>118.2</ele>
        <time>2020-06-13T21:07:38.177Z</time>
      </trkpt>
      <trkpt lat="46.52947" lon="0.33412">
        <ele>118</ele>
        <time>2020-06-13T21:07:38.597Z</time>
      </trkpt>
      <trkpt lat="46.52882" lon="0.33401">
        <ele>114.9</ele>
        <time>2020-06-13T21:07:45.082Z</time>
      </trkpt>
      <trkpt lat="46.5287" lon="0.33406">
        <ele>114.3</ele>
        <time>2020-06-13T21:07:46.311Z</time>
      </trkpt>
      <trkpt lat="46.52802" lon="0.33422">
        <ele>105.1</ele>
        <time>2020-06-13T21:07:52.673Z</time>
      </trkpt>
      <trkpt lat="46.52787" lon="0.33433">
        <ele>104.1</ele>
        <time>2020-06-13T21:07:54.176Z</time>
      </trkpt>
      <trkpt lat="46.52728" lon="0.33418">
        <ele>101.6</ele>
        <time>2020-06-13T21:08:00.424Z</time>
      </trkpt>
      <trkpt lat="46.5267" lon="0.33415">
        <ele>100.9</ele>
        <time>2020-06-13T21:08:08.802Z</time>
      </trkpt>
      <trkpt lat="46.52589" lon="0.33363">
        <ele>97</ele>
        <time>2020-06-13T21:08:17.844Z</time>
      </trkpt>
      <trkpt lat="46.52579" lon="0.33358">
        <ele>94.1</ele>
        <time>2020-06-13T21:08:18.821Z</time>
        <extensions>
          <visugpx:TrkExtension xmlns:visugpx="https://www.visugpx.com/editgpx/">
            <visugpx:node>19</visugpx:node>
            </visugpx:TrkExtension>
        </extensions>
      </trkpt>
      <trkpt lat="46.5256" lon="0.33347">
        <ele>94</ele>
        <time>2020-06-13T21:08:22.482Z</time>
      </trkpt>
      <trkpt lat="46.52517" lon="0.3335">
        <ele>93.4</ele>
        <time>2020-06-13T21:08:28.549Z</time>
      </trkpt>
      <trkpt lat="46.52523" lon="0.33406">
        <ele>91.9</ele>
        <time>2020-06-13T21:08:32.745Z</time>
      </trkpt>
      <trkpt lat="46.52531" lon="0.33446">
        <ele>88.8</ele>
        <time>2020-06-13T21:08:35.392Z</time>
      </trkpt>
      <trkpt lat="46.52527" lon="0.33478">
        <ele>87.8</ele>
        <time>2020-06-13T21:08:37.664Z</time>
      </trkpt>
      <trkpt lat="46.52524" lon="0.33503">
        <ele>84.9</ele>
        <time>2020-06-13T21:08:39.276Z</time>
      </trkpt>
      <trkpt lat="46.52523" lon="0.33524">
        <ele>84.5</ele>
        <time>2020-06-13T21:08:41.017Z</time>
      </trkpt>
      <trkpt lat="46.52527" lon="0.33576">
        <ele>83.2</ele>
        <time>2020-06-13T21:08:44.981Z</time>
      </trkpt>
      <trkpt lat="46.52529" lon="0.33607">
        <ele>80.3</ele>
        <time>2020-06-13T21:08:46.959Z</time>
      </trkpt>
      <trkpt lat="46.52527" lon="0.33611">
        <ele>80.2</ele>
        <time>2020-06-13T21:08:47.360Z</time>
        <extensions>
          <visugpx:TrkExtension xmlns:visugpx="https://www.visugpx.com/editgpx/">
            <visugpx:node>20</visugpx:node>
            </visugpx:TrkExtension>
        </extensions>
      </trkpt>
      <trkpt lat="46.52516" lon="0.3364">
        <ele>79.3</ele>
        <time>2020-06-13T21:08:49.788Z</time>
      </trkpt>
      <trkpt lat="46.52502" lon="0.33674">
        <ele>77.7</ele>
        <time>2020-06-13T21:08:52.243Z</time>
      </trkpt>
      <trkpt lat="46.525" lon="0.33707">
        <ele>76.7</ele>
        <time>2020-06-13T21:08:54.574Z</time>
      </trkpt>
      <trkpt lat="46.52481" lon="0.33748">
        <ele>76.3</ele>
        <time>2020-06-13T21:08:59.503Z</time>
      </trkpt>
      <trkpt lat="46.52462" lon="0.33775">
        <ele>75.8</ele>
        <time>2020-06-13T21:09:03.030Z</time>
      </trkpt>
      <trkpt lat="46.52386" lon="0.33843">
        <ele>75.5</ele>
        <time>2020-06-13T21:09:19.363Z</time>
      </trkpt>
      <trkpt lat="46.52332" lon="0.33878">
        <ele>77.2</ele>
        <time>2020-06-13T21:09:34.810Z</time>
      </trkpt>
      <trkpt lat="46.52278" lon="0.33923">
        <ele>76</ele>
        <time>2020-06-13T21:09:43.028Z</time>
      </trkpt>
      <trkpt lat="46.52229" lon="0.33971">
        <ele>75.6</ele>
        <time>2020-06-13T21:09:53.331Z</time>
      </trkpt>
      <trkpt lat="46.52174" lon="0.33984">
        <ele>75.5</ele>
        <time>2020-06-13T21:10:03.767Z</time>
      </trkpt>
      <trkpt lat="46.5215" lon="0.33984">
        <ele>76.4</ele>
        <time>2020-06-13T21:10:10.802Z</time>
      </trkpt>
      <trkpt lat="46.52123" lon="0.33975">
        <ele>77</ele>
        <time>2020-06-13T21:10:17.452Z</time>
      </trkpt>
      <trkpt lat="46.521" lon="0.33966">
        <ele>77.3</ele>
        <time>2020-06-13T21:10:22.634Z</time>
      </trkpt>
      <trkpt lat="46.52091" lon="0.33961">
        <ele>77.2</ele>
        <time>2020-06-13T21:10:24.055Z</time>
      </trkpt>
      <trkpt lat="46.52085" lon="0.33947">
        <ele>76.9</ele>
        <time>2020-06-13T21:10:25.437Z</time>
      </trkpt>
      <trkpt lat="46.52067" lon="0.33881">
        <ele>77.2</ele>
        <time>2020-06-13T21:10:35.398Z</time>
      </trkpt>
      <trkpt lat="46.52061" lon="0.33788">
        <ele>77.9</ele>
        <time>2020-06-13T21:10:49.137Z</time>
      </trkpt>
      <trkpt lat="46.52069" lon="0.33753">
        <ele>77.6</ele>
        <time>2020-06-13T21:10:52.812Z</time>
        <extensions>
          <visugpx:TrkExtension xmlns:visugpx="https://www.visugpx.com/editgpx/">
            <visugpx:node>21</visugpx:node>
            </visugpx:TrkExtension>
        </extensions>
      </trkpt>
      <trkpt lat="46.52072" lon="0.33739">
        <ele>77.4</ele>
        <time>2020-06-13T21:10:54.135Z</time>
      </trkpt>
      <trkpt lat="46.52026" lon="0.33734">
        <ele>78.3</ele>
        <time>2020-06-13T21:11:04.944Z</time>
      </trkpt>
      <trkpt lat="46.52006" lon="0.33729">
        <ele>78.6</ele>
        <time>2020-06-13T21:11:09.461Z</time>
      </trkpt>
      <trkpt lat="46.51975" lon="0.3373">
        <ele>79.6</ele>
        <time>2020-06-13T21:11:17.929Z</time>
        <extensions>
          <visugpx:TrkExtension xmlns:visugpx="https://www.visugpx.com/editgpx/">
            <visugpx:node>22</visugpx:node>
            </visugpx:TrkExtension>
        </extensions>
      </trkpt>
      <trkpt lat="46.51975" lon="0.3373">
        <ele>79.6</ele>
        <time>2020-06-13T21:11:17.929Z</time>
      </trkpt>
      <trkpt lat="46.51979" lon="0.33869">
        <ele>80.7</ele>
        <time>2020-06-13T21:11:38.519Z</time>
      </trkpt>
      <trkpt lat="46.51979" lon="0.33921">
        <ele>79.4</ele>
        <time>2020-06-13T21:11:42.450Z</time>
      </trkpt>
      <trkpt lat="46.51967" lon="0.33944">
        <ele>79.4</ele>
        <time>2020-06-13T21:11:46.272Z</time>
      </trkpt>
      <trkpt lat="46.51967" lon="0.33978">
        <ele>78.8</ele>
        <time>2020-06-13T21:11:49.144Z</time>
      </trkpt>
      <trkpt lat="46.51975" lon="0.34031">
        <ele>77.4</ele>
        <time>2020-06-13T21:11:53.200Z</time>
      </trkpt>
      <trkpt lat="46.5197" lon="0.34033">
        <ele>77.3</ele>
        <time>2020-06-13T21:11:53.885Z</time>
      </trkpt>
      <trkpt lat="46.51968" lon="0.34026">
        <ele>77.3</ele>
        <time>2020-06-13T21:11:54.888Z</time>
        <extensions>
          <visugpx:TrkExtension xmlns:visugpx="https://www.visugpx.com/editgpx/">
            <visugpx:node>23</visugpx:node>
            </visugpx:TrkExtension>
        </extensions>
      </trkpt>
      <trkpt lat="46.5197" lon="0.34033">
        <ele>77.3</ele>
        <time>2020-06-13T21:11:55.892Z</time>
      </trkpt>
      <trkpt lat="46.51862" lon="0.34068">
        <ele>78.2</ele>
        <time>2020-06-13T21:12:18.900Z</time>
      </trkpt>
      <trkpt lat="46.51851" lon="0.34056">
        <ele>78.3</ele>
        <time>2020-06-13T21:12:21.736Z</time>
      </trkpt>
      <trkpt lat="46.51834" lon="0.34049">
        <ele>78.4</ele>
        <time>2020-06-13T21:12:25.322Z</time>
      </trkpt>
      <trkpt lat="46.51813" lon="0.34052">
        <ele>79.2</ele>
        <time>2020-06-13T21:12:31.543Z</time>
      </trkpt>
      <trkpt lat="46.518" lon="0.34051">
        <ele>79.2</ele>
        <time>2020-06-13T21:12:34.048Z</time>
      </trkpt>
      <trkpt lat="46.51766" lon="0.34036">
        <ele>79.3</ele>
        <time>2020-06-13T21:12:41.067Z</time>
      </trkpt>
      <trkpt lat="46.51742" lon="0.34028">
        <ele>78.6</ele>
        <time>2020-06-13T21:12:44.000Z</time>
      </trkpt>
      <trkpt lat="46.51729" lon="0.34032">
        <ele>78.5</ele>
        <time>2020-06-13T21:12:46.038Z</time>
        <extensions>
          <visugpx:TrkExtension xmlns:visugpx="https://www.visugpx.com/editgpx/">
            <visugpx:node>24</visugpx:node>
            </visugpx:TrkExtension>
        </extensions>
      </trkpt>
      <trkpt lat="46.51725" lon="0.34033">
        <ele>78.5</ele>
        <time>2020-06-13T21:12:46.819Z</time>
      </trkpt>
      <trkpt lat="46.51728" lon="0.34065">
        <ele>78.8</ele>
        <time>2020-06-13T21:12:51.699Z</time>
      </trkpt>
      <trkpt lat="46.51728" lon="0.34084">
        <ele>79.6</ele>
        <time>2020-06-13T21:12:56.446Z</time>
      </trkpt>
      <trkpt lat="46.51726" lon="0.34104">
        <ele>79.6</ele>
        <time>2020-06-13T21:12:59.123Z</time>
      </trkpt>
      <trkpt lat="46.51714" lon="0.34137">
        <ele>79.8</ele>
        <time>2020-06-13T21:13:04.445Z</time>
      </trkpt>
      <trkpt lat="46.51706" lon="0.34161">
        <ele>79.8</ele>
        <time>2020-06-13T21:13:07.976Z</time>
      </trkpt>
      <trkpt lat="46.51693" lon="0.34193">
        <ele>83.4</ele>
        <time>2020-06-13T21:13:26.957Z</time>
      </trkpt>
      <trkpt lat="46.51688" lon="0.34204">
        <ele>84.1</ele>
        <time>2020-06-13T21:13:30.671Z</time>
      </trkpt>
      <trkpt lat="46.51685" lon="0.34219">
        <ele>85.3</ele>
        <time>2020-06-13T21:13:36.738Z</time>
      </trkpt>
      <trkpt lat="46.51682" lon="0.34241">
        <ele>87.4</ele>
        <time>2020-06-13T21:13:48.193Z</time>
      </trkpt>
      <trkpt lat="46.51679" lon="0.34281">
        <ele>90.7</ele>
        <time>2020-06-13T21:14:05.235Z</time>
      </trkpt>
      <trkpt lat="46.51679" lon="0.34286">
        <ele>90.9</ele>
        <time>2020-06-13T21:14:06.458Z</time>
        <extensions>
          <visugpx:TrkExtension xmlns:visugpx="https://www.visugpx.com/editgpx/">
            <visugpx:node>25</visugpx:node>
            </visugpx:TrkExtension>
        </extensions>
      </trkpt>
      <trkpt lat="46.51679" lon="0.34281">
        <ele>90.7</ele>
        <time>2020-06-13T21:14:06.769Z</time>
      </trkpt>
      <trkpt lat="46.51674" lon="0.34279">
        <ele>90.8</ele>
        <time>2020-06-13T21:14:07.981Z</time>
      </trkpt>
      <trkpt lat="46.51666" lon="0.34272">
        <ele>96.7</ele>
        <time>2020-06-13T21:14:14.913Z</time>
      </trkpt>
      <trkpt lat="46.51653" lon="0.34247">
        <ele>91.3</ele>
        <time>2020-06-13T21:14:16.904Z</time>
      </trkpt>
      <trkpt lat="46.51582" lon="0.34197">
        <ele>97.2</ele>
        <time>2020-06-13T21:14:48.599Z</time>
      </trkpt>
      <trkpt lat="46.51552" lon="0.34192">
        <ele>98.4</ele>
        <time>2020-06-13T21:14:57.735Z</time>
      </trkpt>
      <trkpt lat="46.51469" lon="0.34126">
        <ele>88.9</ele>
        <time>2020-06-13T21:15:06.473Z</time>
      </trkpt>
      <trkpt lat="46.51453" lon="0.34114">
        <ele>87.9</ele>
        <time>2020-06-13T21:15:08.137Z</time>
      </trkpt>
      <trkpt lat="46.51367" lon="0.34048">
        <ele>82</ele>
        <time>2020-06-13T21:15:16.758Z</time>
      </trkpt>
      <trkpt lat="46.51291" lon="0.34012">
        <ele>86.7</ele>
        <time>2020-06-13T21:15:45.301Z</time>
      </trkpt>
      <trkpt lat="46.512" lon="0.33903">
        <ele>86.2</ele>
        <time>2020-06-13T21:16:06.611Z</time>
      </trkpt>
      <trkpt lat="46.51187" lon="0.3386">
        <ele>85.8</ele>
        <time>2020-06-13T21:16:11.258Z</time>
      </trkpt>
      <trkpt lat="46.51174" lon="0.33797">
        <ele>83.5</ele>
        <time>2020-06-13T21:16:15.610Z</time>
      </trkpt>
      <trkpt lat="46.51162" lon="0.33704">
        <ele>89.5</ele>
        <time>2020-06-13T21:16:45.879Z</time>
      </trkpt>
      <trkpt lat="46.51151" lon="0.33549">
        <ele>85.7</ele>
        <time>2020-06-13T21:16:57.766Z</time>
      </trkpt>
      <trkpt lat="46.51099" lon="0.33425">
        <ele>85.1</ele>
        <time>2020-06-13T21:17:15.377Z</time>
      </trkpt>
      <trkpt lat="46.51081" lon="0.33393">
        <ele>86.8</ele>
        <time>2020-06-13T21:17:25.602Z</time>
      </trkpt>
      <trkpt lat="46.51039" lon="0.33327">
        <ele>84.5</ele>
        <time>2020-06-13T21:17:32.343Z</time>
      </trkpt>
      <trkpt lat="46.51027" lon="0.33313">
        <ele>84.7</ele>
        <time>2020-06-13T21:17:35.705Z</time>
      </trkpt>
      <trkpt lat="46.51011" lon="0.33304">
        <ele>84.9</ele>
        <time>2020-06-13T21:17:39.401Z</time>
      </trkpt>
      <trkpt lat="46.50995" lon="0.33299">
        <ele>86.8</ele>
        <time>2020-06-13T21:17:49.114Z</time>
      </trkpt>
      <trkpt lat="46.50958" lon="0.33309">
        <ele>87.6</ele>
        <time>2020-06-13T21:17:58.108Z</time>
        <extensions>
          <visugpx:TrkExtension xmlns:visugpx="https://www.visugpx.com/editgpx/">
            <visugpx:node>26</visugpx:node>
            </visugpx:TrkExtension>
        </extensions>
      </trkpt>
      <trkpt lat="46.50956" lon="0.33309">
        <ele>87.7</ele>
        <time>2020-06-13T21:17:58.781Z</time>
      </trkpt>
      <trkpt lat="46.50944" lon="0.33297">
        <ele>87.5</ele>
        <time>2020-06-13T21:18:00.839Z</time>
      </trkpt>
      <trkpt lat="46.50942" lon="0.33292">
        <ele>92.800003051758</ele>
        <time>2020-06-13T21:18:03.794Z</time>
        <extensions>
          <gpxtpx:TrackPointExtension xmlns:gpxtpx="http://www.garmin.com/xmlschemas/TrackPointExtension/v1">
            <gpxtpx:hr>117</gpxtpx:hr>
          </gpxtpx:TrackPointExtension>
        </extensions>
      </trkpt>
      <trkpt lat="46.50942" lon="0.33292">
        <ele>92.800003051758</ele>
        <time>2020-06-13T21:18:03.794Z</time>
        <extensions>
          <gpxtpx:TrackPointExtension xmlns:gpxtpx="http://www.garmin.com/xmlschemas/TrackPointExtension/v1">
            <gpxtpx:hr>117</gpxtpx:hr>
          </gpxtpx:TrackPointExtension>
        </extensions>
      </trkpt>
      <trkpt lat="46.50937" lon="0.33289">
        <ele>92.400001525879</ele>
        <time>2020-06-13T21:18:04.293Z</time>
        <extensions>
          <gpxtpx:TrackPointExtension xmlns:gpxtpx="http://www.garmin.com/xmlschemas/TrackPointExtension/v1">
            <gpxtpx:hr>118</gpxtpx:hr>
          </gpxtpx:TrackPointExtension>
        </extensions>
      </trkpt>
      <trkpt lat="46.50933" lon="0.33288">
        <ele>92.199996948242</ele>
        <time>2020-06-13T21:18:04.689Z</time>
        <extensions>
          <gpxtpx:TrackPointExtension xmlns:gpxtpx="http://www.garmin.com/xmlschemas/TrackPointExtension/v1">
            <gpxtpx:hr>118</gpxtpx:hr>
          </gpxtpx:TrackPointExtension>
        </extensions>
      </trkpt>
      <trkpt lat="46.50927" lon="0.3329">
        <ele>91.599998474121</ele>
        <time>2020-06-13T21:18:05.257Z</time>
        <extensions>
          <gpxtpx:TrackPointExtension xmlns:gpxtpx="http://www.garmin.com/xmlschemas/TrackPointExtension/v1">
            <gpxtpx:hr>121</gpxtpx:hr>
          </gpxtpx:TrackPointExtension>
        </extensions>
      </trkpt>
      <trkpt lat="46.50919" lon="0.33293">
        <ele>91.599998474121</ele>
        <time>2020-06-13T21:18:06.847Z</time>
        <extensions>
          <gpxtpx:TrackPointExtension xmlns:gpxtpx="http://www.garmin.com/xmlschemas/TrackPointExtension/v1">
            <gpxtpx:hr>121</gpxtpx:hr>
          </gpxtpx:TrackPointExtension>
        </extensions>
      </trkpt>
      <trkpt lat="46.50914" lon="0.33296">
        <ele>91.199996948242</ele>
        <time>2020-06-13T21:18:07.347Z</time>
        <extensions>
          <gpxtpx:TrackPointExtension xmlns:gpxtpx="http://www.garmin.com/xmlschemas/TrackPointExtension/v1">
            <gpxtpx:hr>124</gpxtpx:hr>
          </gpxtpx:TrackPointExtension>
        </extensions>
      </trkpt>
      <trkpt lat="46.50905" lon="0.33298">
        <ele>91.199996948242</ele>
        <time>2020-06-13T21:18:09.099Z</time>
        <extensions>
          <gpxtpx:TrackPointExtension xmlns:gpxtpx="http://www.garmin.com/xmlschemas/TrackPointExtension/v1">
            <gpxtpx:hr>124</gpxtpx:hr>
          </gpxtpx:TrackPointExtension>
        </extensions>
      </trkpt>
      <trkpt lat="46.50899" lon="0.33297">
        <ele>90.599998474121</ele>
        <time>2020-06-13T21:18:09.657Z</time>
        <extensions>
          <gpxtpx:TrackPointExtension xmlns:gpxtpx="http://www.garmin.com/xmlschemas/TrackPointExtension/v1">
            <gpxtpx:hr>124</gpxtpx:hr>
          </gpxtpx:TrackPointExtension>
        </extensions>
      </trkpt>
      <trkpt lat="46.50891" lon="0.33294">
        <ele>90.199996948242</ele>
        <time>2020-06-13T21:18:10.468Z</time>
        <extensions>
          <gpxtpx:TrackPointExtension xmlns:gpxtpx="http://www.garmin.com/xmlschemas/TrackPointExtension/v1">
            <gpxtpx:hr>124</gpxtpx:hr>
          </gpxtpx:TrackPointExtension>
        </extensions>
      </trkpt>
      <trkpt lat="46.50884" lon="0.33291">
        <ele>89.800003051758</ele>
        <time>2020-06-13T21:18:11.146Z</time>
        <extensions>
          <gpxtpx:TrackPointExtension xmlns:gpxtpx="http://www.garmin.com/xmlschemas/TrackPointExtension/v1">
            <gpxtpx:hr>125</gpxtpx:hr>
          </gpxtpx:TrackPointExtension>
        </extensions>
      </trkpt>
      <trkpt lat="46.50876" lon="0.33287">
        <ele>88.800003051758</ele>
        <time>2020-06-13T21:18:11.928Z</time>
        <extensions>
          <gpxtpx:TrackPointExtension xmlns:gpxtpx="http://www.garmin.com/xmlschemas/TrackPointExtension/v1">
            <gpxtpx:hr>125</gpxtpx:hr>
          </gpxtpx:TrackPointExtension>
        </extensions>
      </trkpt>
      <trkpt lat="46.5087" lon="0.33281">
        <ele>88.400001525879</ele>
        <time>2020-06-13T21:18:12.604Z</time>
        <extensions>
          <gpxtpx:TrackPointExtension xmlns:gpxtpx="http://www.garmin.com/xmlschemas/TrackPointExtension/v1">
            <gpxtpx:hr>126</gpxtpx:hr>
          </gpxtpx:TrackPointExtension>
        </extensions>
      </trkpt>
      <trkpt lat="46.50865" lon="0.33277">
        <ele>88</ele>
        <time>2020-06-13T21:18:13.131Z</time>
        <extensions>
          <gpxtpx:TrackPointExtension xmlns:gpxtpx="http://www.garmin.com/xmlschemas/TrackPointExtension/v1">
            <gpxtpx:hr>126</gpxtpx:hr>
          </gpxtpx:TrackPointExtension>
        </extensions>
      </trkpt>
      <trkpt lat="46.50858" lon="0.33272">
        <ele>88</ele>
        <time>2020-06-13T21:18:14.632Z</time>
        <extensions>
          <gpxtpx:TrackPointExtension xmlns:gpxtpx="http://www.garmin.com/xmlschemas/TrackPointExtension/v1">
            <gpxtpx:hr>126</gpxtpx:hr>
          </gpxtpx:TrackPointExtension>
        </extensions>
      </trkpt>
      <trkpt lat="46.50851" lon="0.33267">
        <ele>87.599998474121</ele>
        <time>2020-06-13T21:18:15.379Z</time>
        <extensions>
          <gpxtpx:TrackPointExtension xmlns:gpxtpx="http://www.garmin.com/xmlschemas/TrackPointExtension/v1">
            <gpxtpx:hr>127</gpxtpx:hr>
          </gpxtpx:TrackPointExtension>
        </extensions>
      </trkpt>
      <trkpt lat="46.50843" lon="0.33261">
        <ele>87.599998474121</ele>
        <time>2020-06-13T21:18:17.112Z</time>
        <extensions>
          <gpxtpx:TrackPointExtension xmlns:gpxtpx="http://www.garmin.com/xmlschemas/TrackPointExtension/v1">
            <gpxtpx:hr>127</gpxtpx:hr>
          </gpxtpx:TrackPointExtension>
        </extensions>
      </trkpt>
      <trkpt lat="46.5083" lon="0.33253">
        <ele>87.199996948242</ele>
        <time>2020-06-13T21:18:18.796Z</time>
        <extensions>
          <gpxtpx:TrackPointExtension xmlns:gpxtpx="http://www.garmin.com/xmlschemas/TrackPointExtension/v1">
            <gpxtpx:hr>127</gpxtpx:hr>
          </gpxtpx:TrackPointExtension>
        </extensions>
      </trkpt>
      <trkpt lat="46.50823" lon="0.3325">
        <ele>87.199996948242</ele>
        <time>2020-06-13T21:18:20.200Z</time>
        <extensions>
          <gpxtpx:TrackPointExtension xmlns:gpxtpx="http://www.garmin.com/xmlschemas/TrackPointExtension/v1">
            <gpxtpx:hr>128</gpxtpx:hr>
          </gpxtpx:TrackPointExtension>
        </extensions>
      </trkpt>
      <trkpt lat="46.50816" lon="0.33248">
        <ele>87</ele>
        <time>2020-06-13T21:18:21.053Z</time>
        <extensions>
          <gpxtpx:TrackPointExtension xmlns:gpxtpx="http://www.garmin.com/xmlschemas/TrackPointExtension/v1">
            <gpxtpx:hr>128</gpxtpx:hr>
          </gpxtpx:TrackPointExtension>
        </extensions>
      </trkpt>
      <trkpt lat="46.50809" lon="0.33246">
        <ele>86.599998474121</ele>
        <time>2020-06-13T21:18:21.710Z</time>
        <extensions>
          <gpxtpx:TrackPointExtension xmlns:gpxtpx="http://www.garmin.com/xmlschemas/TrackPointExtension/v1">
            <gpxtpx:hr>128</gpxtpx:hr>
          </gpxtpx:TrackPointExtension>
        </extensions>
      </trkpt>
      <trkpt lat="46.50802" lon="0.33244">
        <ele>86.199996948242</ele>
        <time>2020-06-13T21:18:22.366Z</time>
        <extensions>
          <gpxtpx:TrackPointExtension xmlns:gpxtpx="http://www.garmin.com/xmlschemas/TrackPointExtension/v1">
            <gpxtpx:hr>128</gpxtpx:hr>
          </gpxtpx:TrackPointExtension>
        </extensions>
      </trkpt>
      <trkpt lat="46.50796" lon="0.33242">
        <ele>85.199996948242</ele>
        <time>2020-06-13T21:18:22.935Z</time>
        <extensions>
          <gpxtpx:TrackPointExtension xmlns:gpxtpx="http://www.garmin.com/xmlschemas/TrackPointExtension/v1">
            <gpxtpx:hr>128</gpxtpx:hr>
          </gpxtpx:TrackPointExtension>
        </extensions>
      </trkpt>
      <trkpt lat="46.50789" lon="0.33241">
        <ele>85</ele>
        <time>2020-06-13T21:18:23.772Z</time>
        <extensions>
          <gpxtpx:TrackPointExtension xmlns:gpxtpx="http://www.garmin.com/xmlschemas/TrackPointExtension/v1">
            <gpxtpx:hr>128</gpxtpx:hr>
          </gpxtpx:TrackPointExtension>
        </extensions>
      </trkpt>
      <trkpt lat="46.5078" lon="0.33239">
        <ele>84.599998474121</ele>
        <time>2020-06-13T21:18:24.703Z</time>
        <extensions>
          <gpxtpx:TrackPointExtension xmlns:gpxtpx="http://www.garmin.com/xmlschemas/TrackPointExtension/v1">
            <gpxtpx:hr>129</gpxtpx:hr>
          </gpxtpx:TrackPointExtension>
        </extensions>
      </trkpt>
      <trkpt lat="46.50773" lon="0.33237">
        <ele>84.400001525879</ele>
        <time>2020-06-13T21:18:25.557Z</time>
        <extensions>
          <gpxtpx:TrackPointExtension xmlns:gpxtpx="http://www.garmin.com/xmlschemas/TrackPointExtension/v1">
            <gpxtpx:hr>129</gpxtpx:hr>
          </gpxtpx:TrackPointExtension>
        </extensions>
      </trkpt>
      <trkpt lat="46.50768" lon="0.33236">
        <ele>84</ele>
        <time>2020-06-13T21:18:26.023Z</time>
        <extensions>
          <gpxtpx:TrackPointExtension xmlns:gpxtpx="http://www.garmin.com/xmlschemas/TrackPointExtension/v1">
            <gpxtpx:hr>129</gpxtpx:hr>
          </gpxtpx:TrackPointExtension>
        </extensions>
      </trkpt>
      <trkpt lat="46.50761" lon="0.33235">
        <ele>84</ele>
        <time>2020-06-13T21:18:27.376Z</time>
        <extensions>
          <gpxtpx:TrackPointExtension xmlns:gpxtpx="http://www.garmin.com/xmlschemas/TrackPointExtension/v1">
            <gpxtpx:hr>129</gpxtpx:hr>
          </gpxtpx:TrackPointExtension>
        </extensions>
      </trkpt>
      <trkpt lat="46.50754" lon="0.33233">
        <ele>84</ele>
        <time>2020-06-13T21:18:28.749Z</time>
        <extensions>
          <gpxtpx:TrackPointExtension xmlns:gpxtpx="http://www.garmin.com/xmlschemas/TrackPointExtension/v1">
            <gpxtpx:hr>130</gpxtpx:hr>
          </gpxtpx:TrackPointExtension>
        </extensions>
      </trkpt>
      <trkpt lat="46.50746" lon="0.3323">
        <ele>83.800003051758</ele>
        <time>2020-06-13T21:18:29.780Z</time>
        <extensions>
          <gpxtpx:TrackPointExtension xmlns:gpxtpx="http://www.garmin.com/xmlschemas/TrackPointExtension/v1">
            <gpxtpx:hr>131</gpxtpx:hr>
          </gpxtpx:TrackPointExtension>
        </extensions>
      </trkpt>
      <trkpt lat="46.5074" lon="0.33229">
        <ele>83.800003051758</ele>
        <time>2020-06-13T21:18:30.942Z</time>
        <extensions>
          <gpxtpx:TrackPointExtension xmlns:gpxtpx="http://www.garmin.com/xmlschemas/TrackPointExtension/v1">
            <gpxtpx:hr>131</gpxtpx:hr>
          </gpxtpx:TrackPointExtension>
        </extensions>
      </trkpt>
      <trkpt lat="46.50735" lon="0.33229">
        <ele>83.800003051758</ele>
        <time>2020-06-13T21:18:31.904Z</time>
        <extensions>
          <gpxtpx:TrackPointExtension xmlns:gpxtpx="http://www.garmin.com/xmlschemas/TrackPointExtension/v1">
            <gpxtpx:hr>131</gpxtpx:hr>
          </gpxtpx:TrackPointExtension>
        </extensions>
      </trkpt>
      <trkpt lat="46.50729" lon="0.33229">
        <ele>83.800003051758</ele>
        <time>2020-06-13T21:18:33.059Z</time>
        <extensions>
          <gpxtpx:TrackPointExtension xmlns:gpxtpx="http://www.garmin.com/xmlschemas/TrackPointExtension/v1">
            <gpxtpx:hr>133</gpxtpx:hr>
          </gpxtpx:TrackPointExtension>
        </extensions>
      </trkpt>
      <trkpt lat="46.50721" lon="0.33229">
        <ele>84</ele>
        <time>2020-06-13T21:18:35.056Z</time>
        <extensions>
          <gpxtpx:TrackPointExtension xmlns:gpxtpx="http://www.garmin.com/xmlschemas/TrackPointExtension/v1">
            <gpxtpx:hr>133</gpxtpx:hr>
          </gpxtpx:TrackPointExtension>
        </extensions>
      </trkpt>
      <trkpt lat="46.50715" lon="0.3323">
        <ele>84</ele>
        <time>2020-06-13T21:18:36.218Z</time>
        <extensions>
          <gpxtpx:TrackPointExtension xmlns:gpxtpx="http://www.garmin.com/xmlschemas/TrackPointExtension/v1">
            <gpxtpx:hr>134</gpxtpx:hr>
          </gpxtpx:TrackPointExtension>
        </extensions>
      </trkpt>
      <trkpt lat="46.5071" lon="0.33231">
        <ele>84.199996948242</ele>
        <time>2020-06-13T21:18:37.743Z</time>
        <extensions>
          <gpxtpx:TrackPointExtension xmlns:gpxtpx="http://www.garmin.com/xmlschemas/TrackPointExtension/v1">
            <gpxtpx:hr>135</gpxtpx:hr>
          </gpxtpx:TrackPointExtension>
        </extensions>
      </trkpt>
      <trkpt lat="46.50705" lon="0.33231">
        <ele>85</ele>
        <time>2020-06-13T21:18:41.454Z</time>
        <extensions>
          <gpxtpx:TrackPointExtension xmlns:gpxtpx="http://www.garmin.com/xmlschemas/TrackPointExtension/v1">
            <gpxtpx:hr>137</gpxtpx:hr>
          </gpxtpx:TrackPointExtension>
        </extensions>
      </trkpt>
      <trkpt lat="46.507" lon="0.33231">
        <ele>85.400001525879</ele>
        <time>2020-06-13T21:18:43.548Z</time>
        <extensions>
          <gpxtpx:TrackPointExtension xmlns:gpxtpx="http://www.garmin.com/xmlschemas/TrackPointExtension/v1">
            <gpxtpx:hr>141</gpxtpx:hr>
          </gpxtpx:TrackPointExtension>
        </extensions>
      </trkpt>
      <trkpt lat="46.50694" lon="0.33232">
        <ele>86</ele>
        <time>2020-06-13T21:18:46.551Z</time>
        <extensions>
          <gpxtpx:TrackPointExtension xmlns:gpxtpx="http://www.garmin.com/xmlschemas/TrackPointExtension/v1">
            <gpxtpx:hr>141</gpxtpx:hr>
          </gpxtpx:TrackPointExtension>
        </extensions>
      </trkpt>
      <trkpt lat="46.50688" lon="0.33232">
        <ele>86.199996948242</ele>
        <time>2020-06-13T21:18:48.213Z</time>
        <extensions>
          <gpxtpx:TrackPointExtension xmlns:gpxtpx="http://www.garmin.com/xmlschemas/TrackPointExtension/v1">
            <gpxtpx:hr>146</gpxtpx:hr>
          </gpxtpx:TrackPointExtension>
        </extensions>
      </trkpt>
      <trkpt lat="46.50683" lon="0.33233">
        <ele>86.400001525879</ele>
        <time>2020-06-13T21:18:49.738Z</time>
        <extensions>
          <gpxtpx:TrackPointExtension xmlns:gpxtpx="http://www.garmin.com/xmlschemas/TrackPointExtension/v1">
            <gpxtpx:hr>146</gpxtpx:hr>
          </gpxtpx:TrackPointExtension>
        </extensions>
      </trkpt>
      <trkpt lat="46.50679" lon="0.33234">
        <ele>86.800003051758</ele>
        <time>2020-06-13T21:18:51.741Z</time>
        <extensions>
          <gpxtpx:TrackPointExtension xmlns:gpxtpx="http://www.garmin.com/xmlschemas/TrackPointExtension/v1">
            <gpxtpx:hr>150</gpxtpx:hr>
          </gpxtpx:TrackPointExtension>
        </extensions>
      </trkpt>
      <trkpt lat="46.50674" lon="0.33236">
        <ele>87.199996948242</ele>
        <time>2020-06-13T21:18:53.863Z</time>
        <extensions>
          <gpxtpx:TrackPointExtension xmlns:gpxtpx="http://www.garmin.com/xmlschemas/TrackPointExtension/v1">
            <gpxtpx:hr>150</gpxtpx:hr>
          </gpxtpx:TrackPointExtension>
        </extensions>
      </trkpt>
      <trkpt lat="46.50668" lon="0.33238">
        <ele>87.599998474121</ele>
        <time>2020-06-13T21:18:56.160Z</time>
        <extensions>
          <gpxtpx:TrackPointExtension xmlns:gpxtpx="http://www.garmin.com/xmlschemas/TrackPointExtension/v1">
            <gpxtpx:hr>155</gpxtpx:hr>
          </gpxtpx:TrackPointExtension>
        </extensions>
      </trkpt>
      <trkpt lat="46.50662" lon="0.33239">
        <ele>88.199996948242</ele>
        <time>2020-06-13T21:18:59.163Z</time>
        <extensions>
          <gpxtpx:TrackPointExtension xmlns:gpxtpx="http://www.garmin.com/xmlschemas/TrackPointExtension/v1">
            <gpxtpx:hr>155</gpxtpx:hr>
          </gpxtpx:TrackPointExtension>
        </extensions>
      </trkpt>
      <trkpt lat="46.50658" lon="0.33241">
        <ele>88.599998474121</ele>
        <time>2020-06-13T21:19:01.173Z</time>
        <extensions>
          <gpxtpx:TrackPointExtension xmlns:gpxtpx="http://www.garmin.com/xmlschemas/TrackPointExtension/v1">
            <gpxtpx:hr>158</gpxtpx:hr>
          </gpxtpx:TrackPointExtension>
        </extensions>
      </trkpt>
      <trkpt lat="46.50652" lon="0.33242">
        <ele>89</ele>
        <time>2020-06-13T21:19:03.448Z</time>
        <extensions>
          <gpxtpx:TrackPointExtension xmlns:gpxtpx="http://www.garmin.com/xmlschemas/TrackPointExtension/v1">
            <gpxtpx:hr>158</gpxtpx:hr>
          </gpxtpx:TrackPointExtension>
        </extensions>
      </trkpt>
      <trkpt lat="46.50645" lon="0.33242">
        <ele>89.199996948242</ele>
        <time>2020-06-13T21:19:05.272Z</time>
        <extensions>
          <gpxtpx:TrackPointExtension xmlns:gpxtpx="http://www.garmin.com/xmlschemas/TrackPointExtension/v1">
            <gpxtpx:hr>160</gpxtpx:hr>
          </gpxtpx:TrackPointExtension>
        </extensions>
      </trkpt>
      <trkpt lat="46.50641" lon="0.33242">
        <ele>89.800003051758</ele>
        <time>2020-06-13T21:19:08.241Z</time>
        <extensions>
          <gpxtpx:TrackPointExtension xmlns:gpxtpx="http://www.garmin.com/xmlschemas/TrackPointExtension/v1">
            <gpxtpx:hr>160</gpxtpx:hr>
          </gpxtpx:TrackPointExtension>
        </extensions>
      </trkpt>
      <trkpt lat="46.50634" lon="0.33241">
        <ele>90</ele>
        <time>2020-06-13T21:19:10.071Z</time>
        <extensions>
          <gpxtpx:TrackPointExtension xmlns:gpxtpx="http://www.garmin.com/xmlschemas/TrackPointExtension/v1">
            <gpxtpx:hr>162</gpxtpx:hr>
          </gpxtpx:TrackPointExtension>
        </extensions>
      </trkpt>
      <trkpt lat="46.50629" lon="0.33239">
        <ele>90.599998474121</ele>
        <time>2020-06-13T21:19:13.135Z</time>
        <extensions>
          <gpxtpx:TrackPointExtension xmlns:gpxtpx="http://www.garmin.com/xmlschemas/TrackPointExtension/v1">
            <gpxtpx:hr>162</gpxtpx:hr>
          </gpxtpx:TrackPointExtension>
        </extensions>
      </trkpt>
      <trkpt lat="46.50624" lon="0.33237">
        <ele>90.599998474121</ele>
        <time>2020-06-13T21:19:14.133Z</time>
        <extensions>
          <gpxtpx:TrackPointExtension xmlns:gpxtpx="http://www.garmin.com/xmlschemas/TrackPointExtension/v1">
            <gpxtpx:hr>163</gpxtpx:hr>
          </gpxtpx:TrackPointExtension>
        </extensions>
      </trkpt>
      <trkpt lat="46.50618" lon="0.33235">
        <ele>91</ele>
        <time>2020-06-13T21:19:16.430Z</time>
        <extensions>
          <gpxtpx:TrackPointExtension xmlns:gpxtpx="http://www.garmin.com/xmlschemas/TrackPointExtension/v1">
            <gpxtpx:hr>163</gpxtpx:hr>
          </gpxtpx:TrackPointExtension>
        </extensions>
      </trkpt>
      <trkpt lat="46.50611" lon="0.33232">
        <ele>91.199996948242</ele>
        <time>2020-06-13T21:19:18.305Z</time>
        <extensions>
          <gpxtpx:TrackPointExtension xmlns:gpxtpx="http://www.garmin.com/xmlschemas/TrackPointExtension/v1">
            <gpxtpx:hr>164</gpxtpx:hr>
          </gpxtpx:TrackPointExtension>
        </extensions>
      </trkpt>
      <trkpt lat="46.50607" lon="0.3323">
        <ele>91.400001525879</ele>
        <time>2020-06-13T21:19:19.704Z</time>
        <extensions>
          <gpxtpx:TrackPointExtension xmlns:gpxtpx="http://www.garmin.com/xmlschemas/TrackPointExtension/v1">
            <gpxtpx:hr>164</gpxtpx:hr>
          </gpxtpx:TrackPointExtension>
        </extensions>
      </trkpt>
      <trkpt lat="46.50601" lon="0.33228">
        <ele>91.800003051758</ele>
        <time>2020-06-13T21:19:22.000Z</time>
        <extensions>
          <gpxtpx:TrackPointExtension xmlns:gpxtpx="http://www.garmin.com/xmlschemas/TrackPointExtension/v1">
            <gpxtpx:hr>164</gpxtpx:hr>
          </gpxtpx:TrackPointExtension>
        </extensions>
      </trkpt>
      <trkpt lat="46.50595" lon="0.33225">
        <ele>91.800003051758</ele>
        <time>2020-06-13T21:19:23.222Z</time>
        <extensions>
          <gpxtpx:TrackPointExtension xmlns:gpxtpx="http://www.garmin.com/xmlschemas/TrackPointExtension/v1">
            <gpxtpx:hr>165</gpxtpx:hr>
          </gpxtpx:TrackPointExtension>
        </extensions>
      </trkpt>
      <trkpt lat="46.50589" lon="0.33222">
        <ele>92</ele>
        <time>2020-06-13T21:19:24.938Z</time>
        <extensions>
          <gpxtpx:TrackPointExtension xmlns:gpxtpx="http://www.garmin.com/xmlschemas/TrackPointExtension/v1">
            <gpxtpx:hr>165</gpxtpx:hr>
          </gpxtpx:TrackPointExtension>
        </extensions>
      </trkpt>
      <trkpt lat="46.50583" lon="0.33219">
        <ele>92</ele>
        <time>2020-06-13T21:19:26.159Z</time>
        <extensions>
          <gpxtpx:TrackPointExtension xmlns:gpxtpx="http://www.garmin.com/xmlschemas/TrackPointExtension/v1">
            <gpxtpx:hr>165</gpxtpx:hr>
          </gpxtpx:TrackPointExtension>
        </extensions>
      </trkpt>
      <trkpt lat="46.50577" lon="0.33216">
        <ele>92.199996948242</ele>
        <time>2020-06-13T21:19:27.876Z</time>
        <extensions>
          <gpxtpx:TrackPointExtension xmlns:gpxtpx="http://www.garmin.com/xmlschemas/TrackPointExtension/v1">
            <gpxtpx:hr>165</gpxtpx:hr>
          </gpxtpx:TrackPointExtension>
        </extensions>
      </trkpt>
      <trkpt lat="46.50572" lon="0.33213">
        <ele>92.199996948242</ele>
        <time>2020-06-13T21:19:28.917Z</time>
        <extensions>
          <gpxtpx:TrackPointExtension xmlns:gpxtpx="http://www.garmin.com/xmlschemas/TrackPointExtension/v1">
            <gpxtpx:hr>165</gpxtpx:hr>
          </gpxtpx:TrackPointExtension>
        </extensions>
      </trkpt>
      <trkpt lat="46.50566" lon="0.33209">
        <ele>92.199996948242</ele>
        <time>2020-06-13T21:19:30.187Z</time>
        <extensions>
          <gpxtpx:TrackPointExtension xmlns:gpxtpx="http://www.garmin.com/xmlschemas/TrackPointExtension/v1">
            <gpxtpx:hr>165</gpxtpx:hr>
          </gpxtpx:TrackPointExtension>
        </extensions>
      </trkpt>
      <trkpt lat="46.50561" lon="0.33204">
        <ele>92.400001525879</ele>
        <time>2020-06-13T21:19:31.860Z</time>
        <extensions>
          <gpxtpx:TrackPointExtension xmlns:gpxtpx="http://www.garmin.com/xmlschemas/TrackPointExtension/v1">
            <gpxtpx:hr>166</gpxtpx:hr>
          </gpxtpx:TrackPointExtension>
        </extensions>
      </trkpt>
      <trkpt lat="46.50555" lon="0.33198">
        <ele>92.400001525879</ele>
        <time>2020-06-13T21:19:33.262Z</time>
        <extensions>
          <gpxtpx:TrackPointExtension xmlns:gpxtpx="http://www.garmin.com/xmlschemas/TrackPointExtension/v1">
            <gpxtpx:hr>166</gpxtpx:hr>
          </gpxtpx:TrackPointExtension>
        </extensions>
      </trkpt>
      <trkpt lat="46.50551" lon="0.33193">
        <ele>92.599998474121</ele>
        <time>2020-06-13T21:19:34.818Z</time>
        <extensions>
          <gpxtpx:TrackPointExtension xmlns:gpxtpx="http://www.garmin.com/xmlschemas/TrackPointExtension/v1">
            <gpxtpx:hr>165</gpxtpx:hr>
          </gpxtpx:TrackPointExtension>
        </extensions>
      </trkpt>
      <trkpt lat="46.50546" lon="0.33187">
        <ele>92.599998474121</ele>
        <time>2020-06-13T21:19:36.066Z</time>
        <extensions>
          <gpxtpx:TrackPointExtension xmlns:gpxtpx="http://www.garmin.com/xmlschemas/TrackPointExtension/v1">
            <gpxtpx:hr>165</gpxtpx:hr>
          </gpxtpx:TrackPointExtension>
        </extensions>
      </trkpt>
      <trkpt lat="46.5054" lon="0.3318">
        <ele>92.599998474121</ele>
        <time>2020-06-13T21:19:37.546Z</time>
        <extensions>
          <gpxtpx:TrackPointExtension xmlns:gpxtpx="http://www.garmin.com/xmlschemas/TrackPointExtension/v1">
            <gpxtpx:hr>165</gpxtpx:hr>
          </gpxtpx:TrackPointExtension>
        </extensions>
      </trkpt>
      <trkpt lat="46.50535" lon="0.33173">
        <ele>92.800003051758</ele>
        <time>2020-06-13T21:19:39.361Z</time>
        <extensions>
          <gpxtpx:TrackPointExtension xmlns:gpxtpx="http://www.garmin.com/xmlschemas/TrackPointExtension/v1">
            <gpxtpx:hr>165</gpxtpx:hr>
          </gpxtpx:TrackPointExtension>
        </extensions>
      </trkpt>
      <trkpt lat="46.50531" lon="0.33168">
        <ele>92.800003051758</ele>
        <time>2020-06-13T21:19:40.377Z</time>
        <extensions>
          <gpxtpx:TrackPointExtension xmlns:gpxtpx="http://www.garmin.com/xmlschemas/TrackPointExtension/v1">
            <gpxtpx:hr>165</gpxtpx:hr>
          </gpxtpx:TrackPointExtension>
        </extensions>
      </trkpt>
      <trkpt lat="46.50495" lon="0.33129">
        <ele>92.599998474121</ele>
        <time>2020-06-13T21:19:48.466Z</time>
        <extensions>
          <gpxtpx:TrackPointExtension xmlns:gpxtpx="http://www.garmin.com/xmlschemas/TrackPointExtension/v1">
            <gpxtpx:hr>166</gpxtpx:hr>
          </gpxtpx:TrackPointExtension>
        </extensions>
      </trkpt>
      <trkpt lat="46.50491" lon="0.33125">
        <ele>92.400001525879</ele>
        <time>2020-06-13T21:19:48.976Z</time>
        <extensions>
          <gpxtpx:TrackPointExtension xmlns:gpxtpx="http://www.garmin.com/xmlschemas/TrackPointExtension/v1">
            <gpxtpx:hr>166</gpxtpx:hr>
          </gpxtpx:TrackPointExtension>
        </extensions>
      </trkpt>
      <trkpt lat="46.50486" lon="0.33121">
        <ele>92.400001525879</ele>
        <time>2020-06-13T21:19:50.074Z</time>
        <extensions>
          <gpxtpx:TrackPointExtension xmlns:gpxtpx="http://www.garmin.com/xmlschemas/TrackPointExtension/v1">
            <gpxtpx:hr>166</gpxtpx:hr>
          </gpxtpx:TrackPointExtension>
        </extensions>
      </trkpt>
      <trkpt lat="46.50481" lon="0.33117">
        <ele>92.400001525879</ele>
        <time>2020-06-13T21:19:51.172Z</time>
        <extensions>
          <gpxtpx:TrackPointExtension xmlns:gpxtpx="http://www.garmin.com/xmlschemas/TrackPointExtension/v1">
            <gpxtpx:hr>166</gpxtpx:hr>
          </gpxtpx:TrackPointExtension>
        </extensions>
      </trkpt>
      <trkpt lat="46.50475" lon="0.33112">
        <ele>92.400001525879</ele>
        <time>2020-06-13T21:19:52.504Z</time>
        <extensions>
          <gpxtpx:TrackPointExtension xmlns:gpxtpx="http://www.garmin.com/xmlschemas/TrackPointExtension/v1">
            <gpxtpx:hr>166</gpxtpx:hr>
          </gpxtpx:TrackPointExtension>
        </extensions>
      </trkpt>
      <trkpt lat="46.5047" lon="0.33108">
        <ele>92.400001525879</ele>
        <time>2020-06-13T21:19:53.602Z</time>
        <extensions>
          <gpxtpx:TrackPointExtension xmlns:gpxtpx="http://www.garmin.com/xmlschemas/TrackPointExtension/v1">
            <gpxtpx:hr>166</gpxtpx:hr>
          </gpxtpx:TrackPointExtension>
        </extensions>
      </trkpt>
      <trkpt lat="46.50464" lon="0.33102">
        <ele>92.800003051758</ele>
        <time>2020-06-13T21:19:56.135Z</time>
        <extensions>
          <gpxtpx:TrackPointExtension xmlns:gpxtpx="http://www.garmin.com/xmlschemas/TrackPointExtension/v1">
            <gpxtpx:hr>166</gpxtpx:hr>
          </gpxtpx:TrackPointExtension>
        </extensions>
      </trkpt>
      <trkpt lat="46.50458" lon="0.33097">
        <ele>92.800003051758</ele>
        <time>2020-06-13T21:19:57.466Z</time>
        <extensions>
          <gpxtpx:TrackPointExtension xmlns:gpxtpx="http://www.garmin.com/xmlschemas/TrackPointExtension/v1">
            <gpxtpx:hr>166</gpxtpx:hr>
          </gpxtpx:TrackPointExtension>
        </extensions>
      </trkpt>
      <trkpt lat="46.50454" lon="0.33093">
        <ele>93</ele>
        <time>2020-06-13T21:19:58.966Z</time>
        <extensions>
          <gpxtpx:TrackPointExtension xmlns:gpxtpx="http://www.garmin.com/xmlschemas/TrackPointExtension/v1">
            <gpxtpx:hr>166</gpxtpx:hr>
          </gpxtpx:TrackPointExtension>
        </extensions>
      </trkpt>
      <trkpt lat="46.50448" lon="0.33088">
        <ele>93</ele>
        <time>2020-06-13T21:20:00.297Z</time>
        <extensions>
          <gpxtpx:TrackPointExtension xmlns:gpxtpx="http://www.garmin.com/xmlschemas/TrackPointExtension/v1">
            <gpxtpx:hr>166</gpxtpx:hr>
          </gpxtpx:TrackPointExtension>
        </extensions>
      </trkpt>
      <trkpt lat="46.50443" lon="0.33083">
        <ele>93</ele>
        <time>2020-06-13T21:20:01.465Z</time>
        <extensions>
          <gpxtpx:TrackPointExtension xmlns:gpxtpx="http://www.garmin.com/xmlschemas/TrackPointExtension/v1">
            <gpxtpx:hr>166</gpxtpx:hr>
          </gpxtpx:TrackPointExtension>
        </extensions>
      </trkpt>
      <trkpt lat="46.50437" lon="0.33077">
        <ele>93.199996948242</ele>
        <time>2020-06-13T21:20:03.338Z</time>
        <extensions>
          <gpxtpx:TrackPointExtension xmlns:gpxtpx="http://www.garmin.com/xmlschemas/TrackPointExtension/v1">
            <gpxtpx:hr>166</gpxtpx:hr>
          </gpxtpx:TrackPointExtension>
        </extensions>
      </trkpt>
      <trkpt lat="46.50429" lon="0.33068">
        <ele>93.199996948242</ele>
        <time>2020-06-13T21:20:05.285Z</time>
        <extensions>
          <gpxtpx:TrackPointExtension xmlns:gpxtpx="http://www.garmin.com/xmlschemas/TrackPointExtension/v1">
            <gpxtpx:hr>166</gpxtpx:hr>
          </gpxtpx:TrackPointExtension>
        </extensions>
      </trkpt>
      <trkpt lat="46.50424" lon="0.33064">
        <ele>93.199996948242</ele>
        <time>2020-06-13T21:20:06.383Z</time>
        <extensions>
          <gpxtpx:TrackPointExtension xmlns:gpxtpx="http://www.garmin.com/xmlschemas/TrackPointExtension/v1">
            <gpxtpx:hr>166</gpxtpx:hr>
          </gpxtpx:TrackPointExtension>
        </extensions>
      </trkpt>
      <trkpt lat="46.50407" lon="0.3305">
        <ele>93</ele>
        <time>2020-06-13T21:20:09.272Z</time>
        <extensions>
          <gpxtpx:TrackPointExtension xmlns:gpxtpx="http://www.garmin.com/xmlschemas/TrackPointExtension/v1">
            <gpxtpx:hr>166</gpxtpx:hr>
          </gpxtpx:TrackPointExtension>
        </extensions>
      </trkpt>
      <trkpt lat="46.50402" lon="0.33044">
        <ele>93</ele>
        <time>2020-06-13T21:20:10.520Z</time>
        <extensions>
          <gpxtpx:TrackPointExtension xmlns:gpxtpx="http://www.garmin.com/xmlschemas/TrackPointExtension/v1">
            <gpxtpx:hr>166</gpxtpx:hr>
          </gpxtpx:TrackPointExtension>
        </extensions>
      </trkpt>
      <trkpt lat="46.5039" lon="0.33033">
        <ele>93</ele>
        <time>2020-06-13T21:20:13.251Z</time>
        <extensions>
          <gpxtpx:TrackPointExtension xmlns:gpxtpx="http://www.garmin.com/xmlschemas/TrackPointExtension/v1">
            <gpxtpx:hr>166</gpxtpx:hr>
          </gpxtpx:TrackPointExtension>
        </extensions>
      </trkpt>
      <trkpt lat="46.50352" lon="0.32997">
        <ele>93.400001525879</ele>
        <time>2020-06-13T21:20:22.748Z</time>
        <extensions>
          <gpxtpx:TrackPointExtension xmlns:gpxtpx="http://www.garmin.com/xmlschemas/TrackPointExtension/v1">
            <gpxtpx:hr>164</gpxtpx:hr>
          </gpxtpx:TrackPointExtension>
        </extensions>
      </trkpt>
      <trkpt lat="46.50335" lon="0.32982">
        <ele>93.400001525879</ele>
        <time>2020-06-13T21:20:26.575Z</time>
        <extensions>
          <gpxtpx:TrackPointExtension xmlns:gpxtpx="http://www.garmin.com/xmlschemas/TrackPointExtension/v1">
            <gpxtpx:hr>164</gpxtpx:hr>
          </gpxtpx:TrackPointExtension>
        </extensions>
      </trkpt>
      <trkpt lat="46.50329" lon="0.32977">
        <ele>93.400001525879</ele>
        <time>2020-06-13T21:20:27.907Z</time>
        <extensions>
          <gpxtpx:TrackPointExtension xmlns:gpxtpx="http://www.garmin.com/xmlschemas/TrackPointExtension/v1">
            <gpxtpx:hr>163</gpxtpx:hr>
          </gpxtpx:TrackPointExtension>
        </extensions>
      </trkpt>
      <trkpt lat="46.50323" lon="0.32972">
        <ele>93.400001525879</ele>
        <time>2020-06-13T21:20:29.238Z</time>
        <extensions>
          <gpxtpx:TrackPointExtension xmlns:gpxtpx="http://www.garmin.com/xmlschemas/TrackPointExtension/v1">
            <gpxtpx:hr>163</gpxtpx:hr>
          </gpxtpx:TrackPointExtension>
        </extensions>
      </trkpt>
      <trkpt lat="46.50317" lon="0.32967">
        <ele>93.400001525879</ele>
        <time>2020-06-13T21:20:30.569Z</time>
        <extensions>
          <gpxtpx:TrackPointExtension xmlns:gpxtpx="http://www.garmin.com/xmlschemas/TrackPointExtension/v1">
            <gpxtpx:hr>163</gpxtpx:hr>
          </gpxtpx:TrackPointExtension>
        </extensions>
      </trkpt>
      <trkpt lat="46.50305" lon="0.32958">
        <ele>93.400001525879</ele>
        <time>2020-06-13T21:20:33.168Z</time>
        <extensions>
          <gpxtpx:TrackPointExtension xmlns:gpxtpx="http://www.garmin.com/xmlschemas/TrackPointExtension/v1">
            <gpxtpx:hr>162</gpxtpx:hr>
          </gpxtpx:TrackPointExtension>
        </extensions>
      </trkpt>
      <trkpt lat="46.50281" lon="0.32939">
        <ele>93</ele>
        <time>2020-06-13T21:20:36.986Z</time>
        <extensions>
          <gpxtpx:TrackPointExtension xmlns:gpxtpx="http://www.garmin.com/xmlschemas/TrackPointExtension/v1">
            <gpxtpx:hr>160</gpxtpx:hr>
          </gpxtpx:TrackPointExtension>
        </extensions>
      </trkpt>
      <trkpt lat="46.50263" lon="0.32928">
        <ele>92.800003051758</ele>
        <time>2020-06-13T21:20:39.873Z</time>
        <extensions>
          <gpxtpx:TrackPointExtension xmlns:gpxtpx="http://www.garmin.com/xmlschemas/TrackPointExtension/v1">
            <gpxtpx:hr>159</gpxtpx:hr>
          </gpxtpx:TrackPointExtension>
        </extensions>
      </trkpt>
      <trkpt lat="46.50244" lon="0.32918">
        <ele>92.800003051758</ele>
        <time>2020-06-13T21:20:43.761Z</time>
        <extensions>
          <gpxtpx:TrackPointExtension xmlns:gpxtpx="http://www.garmin.com/xmlschemas/TrackPointExtension/v1">
            <gpxtpx:hr>159</gpxtpx:hr>
          </gpxtpx:TrackPointExtension>
        </extensions>
      </trkpt>
      <trkpt lat="46.50239" lon="0.32915">
        <ele>92.800003051758</ele>
        <time>2020-06-13T21:20:44.802Z</time>
        <extensions>
          <gpxtpx:TrackPointExtension xmlns:gpxtpx="http://www.garmin.com/xmlschemas/TrackPointExtension/v1">
            <gpxtpx:hr>159</gpxtpx:hr>
          </gpxtpx:TrackPointExtension>
        </extensions>
      </trkpt>
      <trkpt lat="46.50233" lon="0.32912">
        <ele>92.800003051758</ele>
        <time>2020-06-13T21:20:46.024Z</time>
        <extensions>
          <gpxtpx:TrackPointExtension xmlns:gpxtpx="http://www.garmin.com/xmlschemas/TrackPointExtension/v1">
            <gpxtpx:hr>159</gpxtpx:hr>
          </gpxtpx:TrackPointExtension>
        </extensions>
      </trkpt>
      <trkpt lat="46.50226" lon="0.32908">
        <ele>92.599998474121</ele>
        <time>2020-06-13T21:20:46.938Z</time>
        <extensions>
          <gpxtpx:TrackPointExtension xmlns:gpxtpx="http://www.garmin.com/xmlschemas/TrackPointExtension/v1">
            <gpxtpx:hr>159</gpxtpx:hr>
          </gpxtpx:TrackPointExtension>
        </extensions>
      </trkpt>
      <trkpt lat="46.50207" lon="0.329">
        <ele>92.800003051758</ele>
        <time>2020-06-13T21:20:51.133Z</time>
        <extensions>
          <gpxtpx:TrackPointExtension xmlns:gpxtpx="http://www.garmin.com/xmlschemas/TrackPointExtension/v1">
            <gpxtpx:hr>159</gpxtpx:hr>
          </gpxtpx:TrackPointExtension>
        </extensions>
      </trkpt>
      <trkpt lat="46.50201" lon="0.32896">
        <ele>92.800003051758</ele>
        <time>2020-06-13T21:20:52.403Z</time>
        <extensions>
          <gpxtpx:TrackPointExtension xmlns:gpxtpx="http://www.garmin.com/xmlschemas/TrackPointExtension/v1">
            <gpxtpx:hr>159</gpxtpx:hr>
          </gpxtpx:TrackPointExtension>
        </extensions>
      </trkpt>
      <trkpt lat="46.50194" lon="0.32891">
        <ele>92.599998474121</ele>
        <time>2020-06-13T21:20:53.361Z</time>
        <extensions>
          <gpxtpx:TrackPointExtension xmlns:gpxtpx="http://www.garmin.com/xmlschemas/TrackPointExtension/v1">
            <gpxtpx:hr>159</gpxtpx:hr>
          </gpxtpx:TrackPointExtension>
        </extensions>
      </trkpt>
      <trkpt lat="46.50189" lon="0.32886">
        <ele>92.599998474121</ele>
        <time>2020-06-13T21:20:54.529Z</time>
        <extensions>
          <gpxtpx:TrackPointExtension xmlns:gpxtpx="http://www.garmin.com/xmlschemas/TrackPointExtension/v1">
            <gpxtpx:hr>159</gpxtpx:hr>
          </gpxtpx:TrackPointExtension>
        </extensions>
      </trkpt>
      <trkpt lat="46.50184" lon="0.3288">
        <ele>92.599998474121</ele>
        <time>2020-06-13T21:20:55.777Z</time>
        <extensions>
          <gpxtpx:TrackPointExtension xmlns:gpxtpx="http://www.garmin.com/xmlschemas/TrackPointExtension/v1">
            <gpxtpx:hr>159</gpxtpx:hr>
          </gpxtpx:TrackPointExtension>
        </extensions>
      </trkpt>
      <trkpt lat="46.50173" lon="0.32867">
        <ele>92.400001525879</ele>
        <time>2020-06-13T21:20:57.771Z</time>
        <extensions>
          <gpxtpx:TrackPointExtension xmlns:gpxtpx="http://www.garmin.com/xmlschemas/TrackPointExtension/v1">
            <gpxtpx:hr>160</gpxtpx:hr>
          </gpxtpx:TrackPointExtension>
        </extensions>
      </trkpt>
      <trkpt lat="46.50168" lon="0.32861">
        <ele>92.400001525879</ele>
        <time>2020-06-13T21:20:59.019Z</time>
        <extensions>
          <gpxtpx:TrackPointExtension xmlns:gpxtpx="http://www.garmin.com/xmlschemas/TrackPointExtension/v1">
            <gpxtpx:hr>159</gpxtpx:hr>
          </gpxtpx:TrackPointExtension>
        </extensions>
      </trkpt>
      <trkpt lat="46.50157" lon="0.32855">
        <ele>92.800003051758</ele>
        <time>2020-06-13T21:21:02.305Z</time>
        <extensions>
          <gpxtpx:TrackPointExtension xmlns:gpxtpx="http://www.garmin.com/xmlschemas/TrackPointExtension/v1">
            <gpxtpx:hr>159</gpxtpx:hr>
          </gpxtpx:TrackPointExtension>
        </extensions>
      </trkpt>
      <trkpt lat="46.50151" lon="0.32856">
        <ele>92.800003051758</ele>
        <time>2020-06-13T21:21:03.467Z</time>
        <extensions>
          <gpxtpx:TrackPointExtension xmlns:gpxtpx="http://www.garmin.com/xmlschemas/TrackPointExtension/v1">
            <gpxtpx:hr>159</gpxtpx:hr>
          </gpxtpx:TrackPointExtension>
        </extensions>
      </trkpt>
      <trkpt lat="46.50144" lon="0.3286">
        <ele>93</ele>
        <time>2020-06-13T21:21:05.381Z</time>
        <extensions>
          <gpxtpx:TrackPointExtension xmlns:gpxtpx="http://www.garmin.com/xmlschemas/TrackPointExtension/v1">
            <gpxtpx:hr>159</gpxtpx:hr>
          </gpxtpx:TrackPointExtension>
        </extensions>
      </trkpt>
      <trkpt lat="46.5014" lon="0.32865">
        <ele>93</ele>
        <time>2020-06-13T21:21:06.396Z</time>
        <extensions>
          <gpxtpx:TrackPointExtension xmlns:gpxtpx="http://www.garmin.com/xmlschemas/TrackPointExtension/v1">
            <gpxtpx:hr>159</gpxtpx:hr>
          </gpxtpx:TrackPointExtension>
        </extensions>
      </trkpt>
      <trkpt lat="46.50135" lon="0.3287">
        <ele>93</ele>
        <time>2020-06-13T21:21:07.564Z</time>
        <extensions>
          <gpxtpx:TrackPointExtension xmlns:gpxtpx="http://www.garmin.com/xmlschemas/TrackPointExtension/v1">
            <gpxtpx:hr>159</gpxtpx:hr>
          </gpxtpx:TrackPointExtension>
        </extensions>
      </trkpt>
      <trkpt lat="46.50132" lon="0.32875">
        <ele>93.199996948242</ele>
        <time>2020-06-13T21:21:09.032Z</time>
        <extensions>
          <gpxtpx:TrackPointExtension xmlns:gpxtpx="http://www.garmin.com/xmlschemas/TrackPointExtension/v1">
            <gpxtpx:hr>159</gpxtpx:hr>
          </gpxtpx:TrackPointExtension>
        </extensions>
      </trkpt>
      <trkpt lat="46.50129" lon="0.32882">
        <ele>93.400001525879</ele>
        <time>2020-06-13T21:21:10.645Z</time>
        <extensions>
          <gpxtpx:TrackPointExtension xmlns:gpxtpx="http://www.garmin.com/xmlschemas/TrackPointExtension/v1">
            <gpxtpx:hr>160</gpxtpx:hr>
          </gpxtpx:TrackPointExtension>
        </extensions>
      </trkpt>
      <trkpt lat="46.50126" lon="0.32889">
        <ele>93.800003051758</ele>
        <time>2020-06-13T21:21:12.850Z</time>
        <extensions>
          <gpxtpx:TrackPointExtension xmlns:gpxtpx="http://www.garmin.com/xmlschemas/TrackPointExtension/v1">
            <gpxtpx:hr>160</gpxtpx:hr>
          </gpxtpx:TrackPointExtension>
        </extensions>
      </trkpt>
      <trkpt lat="46.50123" lon="0.32896">
        <ele>94</ele>
        <time>2020-06-13T21:21:14.463Z</time>
        <extensions>
          <gpxtpx:TrackPointExtension xmlns:gpxtpx="http://www.garmin.com/xmlschemas/TrackPointExtension/v1">
            <gpxtpx:hr>160</gpxtpx:hr>
          </gpxtpx:TrackPointExtension>
        </extensions>
      </trkpt>
      <trkpt lat="46.5012" lon="0.32902">
        <ele>94.199996948242</ele>
        <time>2020-06-13T21:21:15.995Z</time>
        <extensions>
          <gpxtpx:TrackPointExtension xmlns:gpxtpx="http://www.garmin.com/xmlschemas/TrackPointExtension/v1">
            <gpxtpx:hr>160</gpxtpx:hr>
          </gpxtpx:TrackPointExtension>
        </extensions>
      </trkpt>
      <trkpt lat="46.50117" lon="0.32909">
        <ele>94.400001525879</ele>
        <time>2020-06-13T21:21:17.608Z</time>
        <extensions>
          <gpxtpx:TrackPointExtension xmlns:gpxtpx="http://www.garmin.com/xmlschemas/TrackPointExtension/v1">
            <gpxtpx:hr>160</gpxtpx:hr>
          </gpxtpx:TrackPointExtension>
        </extensions>
      </trkpt>
      <trkpt lat="46.50113" lon="0.32915">
        <ele>94.800003051758</ele>
        <time>2020-06-13T21:21:19.827Z</time>
        <extensions>
          <gpxtpx:TrackPointExtension xmlns:gpxtpx="http://www.garmin.com/xmlschemas/TrackPointExtension/v1">
            <gpxtpx:hr>161</gpxtpx:hr>
          </gpxtpx:TrackPointExtension>
        </extensions>
      </trkpt>
      <trkpt lat="46.50109" lon="0.32921">
        <ele>95.199996948242</ele>
        <time>2020-06-13T21:21:22.047Z</time>
        <extensions>
          <gpxtpx:TrackPointExtension xmlns:gpxtpx="http://www.garmin.com/xmlschemas/TrackPointExtension/v1">
            <gpxtpx:hr>161</gpxtpx:hr>
          </gpxtpx:TrackPointExtension>
        </extensions>
      </trkpt>
      <trkpt lat="46.50105" lon="0.32927">
        <ele>95.400001525879</ele>
        <time>2020-06-13T21:21:23.670Z</time>
        <extensions>
          <gpxtpx:TrackPointExtension xmlns:gpxtpx="http://www.garmin.com/xmlschemas/TrackPointExtension/v1">
            <gpxtpx:hr>161</gpxtpx:hr>
          </gpxtpx:TrackPointExtension>
        </extensions>
      </trkpt>
      <trkpt lat="46.50101" lon="0.32933">
        <ele>95.599998474121</ele>
        <time>2020-06-13T21:21:25.294Z</time>
        <extensions>
          <gpxtpx:TrackPointExtension xmlns:gpxtpx="http://www.garmin.com/xmlschemas/TrackPointExtension/v1">
            <gpxtpx:hr>161</gpxtpx:hr>
          </gpxtpx:TrackPointExtension>
        </extensions>
      </trkpt>
      <trkpt lat="46.50098" lon="0.32936">
        <ele>95.599998474121</ele>
        <time>2020-06-13T21:21:25.995Z</time>
        <extensions>
          <gpxtpx:TrackPointExtension xmlns:gpxtpx="http://www.garmin.com/xmlschemas/TrackPointExtension/v1">
            <gpxtpx:hr>162</gpxtpx:hr>
          </gpxtpx:TrackPointExtension>
        </extensions>
      </trkpt>
      <trkpt lat="46.50094" lon="0.32941">
        <ele>95.800003051758</ele>
        <time>2020-06-13T21:21:27.551Z</time>
        <extensions>
          <gpxtpx:TrackPointExtension xmlns:gpxtpx="http://www.garmin.com/xmlschemas/TrackPointExtension/v1">
            <gpxtpx:hr>162</gpxtpx:hr>
          </gpxtpx:TrackPointExtension>
        </extensions>
      </trkpt>
      <trkpt lat="46.50088" lon="0.32945">
        <ele>96.199996948242</ele>
        <time>2020-06-13T21:21:29.938Z</time>
        <extensions>
          <gpxtpx:TrackPointExtension xmlns:gpxtpx="http://www.garmin.com/xmlschemas/TrackPointExtension/v1">
            <gpxtpx:hr>163</gpxtpx:hr>
          </gpxtpx:TrackPointExtension>
        </extensions>
      </trkpt>
      <trkpt lat="46.50083" lon="0.32947">
        <ele>96.400001525879</ele>
        <time>2020-06-13T21:21:31.481Z</time>
        <extensions>
          <gpxtpx:TrackPointExtension xmlns:gpxtpx="http://www.garmin.com/xmlschemas/TrackPointExtension/v1">
            <gpxtpx:hr>163</gpxtpx:hr>
          </gpxtpx:TrackPointExtension>
        </extensions>
      </trkpt>
      <trkpt lat="46.50079" lon="0.32949">
        <ele>96.599998474121</ele>
        <time>2020-06-13T21:21:32.879Z</time>
        <extensions>
          <gpxtpx:TrackPointExtension xmlns:gpxtpx="http://www.garmin.com/xmlschemas/TrackPointExtension/v1">
            <gpxtpx:hr>164</gpxtpx:hr>
          </gpxtpx:TrackPointExtension>
        </extensions>
      </trkpt>
      <trkpt lat="46.50074" lon="0.3295">
        <ele>96.800003051758</ele>
        <time>2020-06-13T21:21:34.404Z</time>
        <extensions>
          <gpxtpx:TrackPointExtension xmlns:gpxtpx="http://www.garmin.com/xmlschemas/TrackPointExtension/v1">
            <gpxtpx:hr>164</gpxtpx:hr>
          </gpxtpx:TrackPointExtension>
        </extensions>
      </trkpt>
      <trkpt lat="46.50069" lon="0.32951">
        <ele>96.800003051758</ele>
        <time>2020-06-13T21:21:35.375Z</time>
        <extensions>
          <gpxtpx:TrackPointExtension xmlns:gpxtpx="http://www.garmin.com/xmlschemas/TrackPointExtension/v1">
            <gpxtpx:hr>164</gpxtpx:hr>
          </gpxtpx:TrackPointExtension>
        </extensions>
      </trkpt>
      <trkpt lat="46.50062" lon="0.32953">
        <ele>97</ele>
        <time>2020-06-13T21:21:37.222Z</time>
        <extensions>
          <gpxtpx:TrackPointExtension xmlns:gpxtpx="http://www.garmin.com/xmlschemas/TrackPointExtension/v1">
            <gpxtpx:hr>164</gpxtpx:hr>
          </gpxtpx:TrackPointExtension>
        </extensions>
      </trkpt>
      <trkpt lat="46.50057" lon="0.32955">
        <ele>97.199996948242</ele>
        <time>2020-06-13T21:21:38.765Z</time>
        <extensions>
          <gpxtpx:TrackPointExtension xmlns:gpxtpx="http://www.garmin.com/xmlschemas/TrackPointExtension/v1">
            <gpxtpx:hr>165</gpxtpx:hr>
          </gpxtpx:TrackPointExtension>
        </extensions>
      </trkpt>
      <trkpt lat="46.50054" lon="0.32957">
        <ele>97.599998474121</ele>
        <time>2020-06-13T21:21:40.847Z</time>
        <extensions>
          <gpxtpx:TrackPointExtension xmlns:gpxtpx="http://www.garmin.com/xmlschemas/TrackPointExtension/v1">
            <gpxtpx:hr>165</gpxtpx:hr>
          </gpxtpx:TrackPointExtension>
        </extensions>
      </trkpt>
      <trkpt lat="46.5005" lon="0.32961">
        <ele>98</ele>
        <time>2020-06-13T21:21:42.921Z</time>
        <extensions>
          <gpxtpx:TrackPointExtension xmlns:gpxtpx="http://www.garmin.com/xmlschemas/TrackPointExtension/v1">
            <gpxtpx:hr>165</gpxtpx:hr>
          </gpxtpx:TrackPointExtension>
        </extensions>
      </trkpt>
      <trkpt lat="46.50046" lon="0.32966">
        <ele>98.400001525879</ele>
        <time>2020-06-13T21:21:45.058Z</time>
        <extensions>
          <gpxtpx:TrackPointExtension xmlns:gpxtpx="http://www.garmin.com/xmlschemas/TrackPointExtension/v1">
            <gpxtpx:hr>166</gpxtpx:hr>
          </gpxtpx:TrackPointExtension>
        </extensions>
      </trkpt>
      <trkpt lat="46.50043" lon="0.32971">
        <ele>98.400001525879</ele>
        <time>2020-06-13T21:21:45.936Z</time>
        <extensions>
          <gpxtpx:TrackPointExtension xmlns:gpxtpx="http://www.garmin.com/xmlschemas/TrackPointExtension/v1">
            <gpxtpx:hr>166</gpxtpx:hr>
          </gpxtpx:TrackPointExtension>
        </extensions>
      </trkpt>
      <trkpt lat="46.5004" lon="0.32976">
        <ele>99</ele>
        <time>2020-06-13T21:21:49.229Z</time>
        <extensions>
          <gpxtpx:TrackPointExtension xmlns:gpxtpx="http://www.garmin.com/xmlschemas/TrackPointExtension/v1">
            <gpxtpx:hr>167</gpxtpx:hr>
          </gpxtpx:TrackPointExtension>
        </extensions>
      </trkpt>
      <trkpt lat="46.50038" lon="0.32983">
        <ele>99.599998474121</ele>
        <time>2020-06-13T21:21:52.287Z</time>
        <extensions>
          <gpxtpx:TrackPointExtension xmlns:gpxtpx="http://www.garmin.com/xmlschemas/TrackPointExtension/v1">
            <gpxtpx:hr>167</gpxtpx:hr>
          </gpxtpx:TrackPointExtension>
        </extensions>
      </trkpt>
      <trkpt lat="46.50036" lon="0.32989">
        <ele>100</ele>
        <time>2020-06-13T21:21:54.328Z</time>
        <extensions>
          <gpxtpx:TrackPointExtension xmlns:gpxtpx="http://www.garmin.com/xmlschemas/TrackPointExtension/v1">
            <gpxtpx:hr>168</gpxtpx:hr>
          </gpxtpx:TrackPointExtension>
        </extensions>
      </trkpt>
      <trkpt lat="46.50034" lon="0.32997">
        <ele>100.80000305176</ele>
        <time>2020-06-13T21:21:58.677Z</time>
        <extensions>
          <gpxtpx:TrackPointExtension xmlns:gpxtpx="http://www.garmin.com/xmlschemas/TrackPointExtension/v1">
            <gpxtpx:hr>168</gpxtpx:hr>
          </gpxtpx:TrackPointExtension>
        </extensions>
      </trkpt>
      <trkpt lat="46.50032" lon="0.33004">
        <ele>101.40000152588</ele>
        <time>2020-06-13T21:22:01.735Z</time>
        <extensions>
          <gpxtpx:TrackPointExtension xmlns:gpxtpx="http://www.garmin.com/xmlschemas/TrackPointExtension/v1">
            <gpxtpx:hr>169</gpxtpx:hr>
          </gpxtpx:TrackPointExtension>
        </extensions>
      </trkpt>
      <trkpt lat="46.50031" lon="0.33011">
        <ele>102.40000152588</ele>
        <time>2020-06-13T21:22:05.388Z</time>
        <extensions>
          <gpxtpx:TrackPointExtension xmlns:gpxtpx="http://www.garmin.com/xmlschemas/TrackPointExtension/v1">
            <gpxtpx:hr>169</gpxtpx:hr>
          </gpxtpx:TrackPointExtension>
        </extensions>
      </trkpt>
      <trkpt lat="46.5003" lon="0.33016">
        <ele>102.59999847412</ele>
        <time>2020-06-13T21:22:06.641Z</time>
        <extensions>
          <gpxtpx:TrackPointExtension xmlns:gpxtpx="http://www.garmin.com/xmlschemas/TrackPointExtension/v1">
            <gpxtpx:hr>170</gpxtpx:hr>
          </gpxtpx:TrackPointExtension>
        </extensions>
      </trkpt>
      <trkpt lat="46.50029" lon="0.33023">
        <ele>103.40000152588</ele>
        <time>2020-06-13T21:22:10.294Z</time>
        <extensions>
          <gpxtpx:TrackPointExtension xmlns:gpxtpx="http://www.garmin.com/xmlschemas/TrackPointExtension/v1">
            <gpxtpx:hr>170</gpxtpx:hr>
          </gpxtpx:TrackPointExtension>
        </extensions>
      </trkpt>
      <trkpt lat="46.50027" lon="0.3303">
        <ele>103.80000305176</ele>
        <time>2020-06-13T21:22:12.421Z</time>
        <extensions>
          <gpxtpx:TrackPointExtension xmlns:gpxtpx="http://www.garmin.com/xmlschemas/TrackPointExtension/v1">
            <gpxtpx:hr>171</gpxtpx:hr>
          </gpxtpx:TrackPointExtension>
        </extensions>
      </trkpt>
      <trkpt lat="46.50025" lon="0.33038">
        <ele>104.19999694824</ele>
        <time>2020-06-13T21:22:14.661Z</time>
        <extensions>
          <gpxtpx:TrackPointExtension xmlns:gpxtpx="http://www.garmin.com/xmlschemas/TrackPointExtension/v1">
            <gpxtpx:hr>171</gpxtpx:hr>
          </gpxtpx:TrackPointExtension>
        </extensions>
      </trkpt>
      <trkpt lat="46.50023" lon="0.33043">
        <ele>104.80000305176</ele>
        <time>2020-06-13T21:22:17.616Z</time>
        <extensions>
          <gpxtpx:TrackPointExtension xmlns:gpxtpx="http://www.garmin.com/xmlschemas/TrackPointExtension/v1">
            <gpxtpx:hr>172</gpxtpx:hr>
          </gpxtpx:TrackPointExtension>
        </extensions>
      </trkpt>
      <trkpt lat="46.50021" lon="0.33049">
        <ele>105.19999694824</ele>
        <time>2020-06-13T21:22:19.657Z</time>
        <extensions>
          <gpxtpx:TrackPointExtension xmlns:gpxtpx="http://www.garmin.com/xmlschemas/TrackPointExtension/v1">
            <gpxtpx:hr>173</gpxtpx:hr>
          </gpxtpx:TrackPointExtension>
        </extensions>
      </trkpt>
      <trkpt lat="46.50019" lon="0.33057">
        <ele>105.80000305176</ele>
        <time>2020-06-13T21:22:22.659Z</time>
        <extensions>
          <gpxtpx:TrackPointExtension xmlns:gpxtpx="http://www.garmin.com/xmlschemas/TrackPointExtension/v1">
            <gpxtpx:hr>173</gpxtpx:hr>
          </gpxtpx:TrackPointExtension>
        </extensions>
      </trkpt>
      <trkpt lat="46.50018" lon="0.33062">
        <ele>106</ele>
        <time>2020-06-13T21:22:23.913Z</time>
        <extensions>
          <gpxtpx:TrackPointExtension xmlns:gpxtpx="http://www.garmin.com/xmlschemas/TrackPointExtension/v1">
            <gpxtpx:hr>173</gpxtpx:hr>
          </gpxtpx:TrackPointExtension>
        </extensions>
      </trkpt>
      <trkpt lat="46.50015" lon="0.33069">
        <ele>106.59999847412</ele>
        <time>2020-06-13T21:22:26.921Z</time>
        <extensions>
          <gpxtpx:TrackPointExtension xmlns:gpxtpx="http://www.garmin.com/xmlschemas/TrackPointExtension/v1">
            <gpxtpx:hr>174</gpxtpx:hr>
          </gpxtpx:TrackPointExtension>
        </extensions>
      </trkpt>
      <trkpt lat="46.50012" lon="0.3307">
        <ele>107.19999694824</ele>
        <time>2020-06-13T21:22:29.205Z</time>
        <extensions>
          <gpxtpx:TrackPointExtension xmlns:gpxtpx="http://www.garmin.com/xmlschemas/TrackPointExtension/v1">
            <gpxtpx:hr>174</gpxtpx:hr>
          </gpxtpx:TrackPointExtension>
        </extensions>
      </trkpt>
      <trkpt lat="46.50008" lon="0.3307">
        <ele>107.40000152588</ele>
        <time>2020-06-13T21:22:30.551Z</time>
        <extensions>
          <gpxtpx:TrackPointExtension xmlns:gpxtpx="http://www.garmin.com/xmlschemas/TrackPointExtension/v1">
            <gpxtpx:hr>175</gpxtpx:hr>
          </gpxtpx:TrackPointExtension>
        </extensions>
      </trkpt>
      <trkpt lat="46.50004" lon="0.33069">
        <ele>108</ele>
        <time>2020-06-13T21:22:33.564Z</time>
        <extensions>
          <gpxtpx:TrackPointExtension xmlns:gpxtpx="http://www.garmin.com/xmlschemas/TrackPointExtension/v1">
            <gpxtpx:hr>175</gpxtpx:hr>
          </gpxtpx:TrackPointExtension>
        </extensions>
      </trkpt>
      <trkpt lat="46.49999" lon="0.33068">
        <ele>108.19999694824</ele>
        <time>2020-06-13T21:22:35.089Z</time>
        <extensions>
          <gpxtpx:TrackPointExtension xmlns:gpxtpx="http://www.garmin.com/xmlschemas/TrackPointExtension/v1">
            <gpxtpx:hr>175</gpxtpx:hr>
          </gpxtpx:TrackPointExtension>
        </extensions>
      </trkpt>
      <trkpt lat="46.49996" lon="0.33066">
        <ele>108.59999847412</ele>
        <time>2020-06-13T21:22:37.170Z</time>
        <extensions>
          <gpxtpx:TrackPointExtension xmlns:gpxtpx="http://www.garmin.com/xmlschemas/TrackPointExtension/v1">
            <gpxtpx:hr>175</gpxtpx:hr>
          </gpxtpx:TrackPointExtension>
        </extensions>
      </trkpt>
      <trkpt lat="46.49992" lon="0.33065">
        <ele>108.59999847412</ele>
        <time>2020-06-13T21:22:37.951Z</time>
        <extensions>
          <gpxtpx:TrackPointExtension xmlns:gpxtpx="http://www.garmin.com/xmlschemas/TrackPointExtension/v1">
            <gpxtpx:hr>176</gpxtpx:hr>
          </gpxtpx:TrackPointExtension>
        </extensions>
      </trkpt>
      <trkpt lat="46.49988" lon="0.33063">
        <ele>109</ele>
        <time>2020-06-13T21:22:39.962Z</time>
        <extensions>
          <gpxtpx:TrackPointExtension xmlns:gpxtpx="http://www.garmin.com/xmlschemas/TrackPointExtension/v1">
            <gpxtpx:hr>176</gpxtpx:hr>
          </gpxtpx:TrackPointExtension>
        </extensions>
      </trkpt>
      <trkpt lat="46.49984" lon="0.33061">
        <ele>109.80000305176</ele>
        <time>2020-06-13T21:22:43.102Z</time>
        <extensions>
          <gpxtpx:TrackPointExtension xmlns:gpxtpx="http://www.garmin.com/xmlschemas/TrackPointExtension/v1">
            <gpxtpx:hr>176</gpxtpx:hr>
          </gpxtpx:TrackPointExtension>
        </extensions>
      </trkpt>
      <trkpt lat="46.49979" lon="0.33059">
        <ele>110</ele>
        <time>2020-06-13T21:22:44.645Z</time>
        <extensions>
          <gpxtpx:TrackPointExtension xmlns:gpxtpx="http://www.garmin.com/xmlschemas/TrackPointExtension/v1">
            <gpxtpx:hr>176</gpxtpx:hr>
          </gpxtpx:TrackPointExtension>
        </extensions>
      </trkpt>
      <trkpt lat="46.49975" lon="0.33057">
        <ele>110</ele>
        <time>2020-06-13T21:22:45.459Z</time>
        <extensions>
          <gpxtpx:TrackPointExtension xmlns:gpxtpx="http://www.garmin.com/xmlschemas/TrackPointExtension/v1">
            <gpxtpx:hr>176</gpxtpx:hr>
          </gpxtpx:TrackPointExtension>
        </extensions>
      </trkpt>
      <trkpt lat="46.49972" lon="0.33056">
        <ele>110.59999847412</ele>
        <time>2020-06-13T21:22:47.743Z</time>
        <extensions>
          <gpxtpx:TrackPointExtension xmlns:gpxtpx="http://www.garmin.com/xmlschemas/TrackPointExtension/v1">
            <gpxtpx:hr>176</gpxtpx:hr>
          </gpxtpx:TrackPointExtension>
        </extensions>
      </trkpt>
      <trkpt lat="46.49969" lon="0.33054">
        <ele>111.80000305176</ele>
        <time>2020-06-13T21:22:50.193Z</time>
        <extensions>
          <gpxtpx:TrackPointExtension xmlns:gpxtpx="http://www.garmin.com/xmlschemas/TrackPointExtension/v1">
            <gpxtpx:hr>176</gpxtpx:hr>
          </gpxtpx:TrackPointExtension>
        </extensions>
      </trkpt>
      <trkpt lat="46.49968" lon="0.33054">
        <ele>112</ele>
        <time>2020-06-13T21:22:50.936Z</time>
        <extensions>
          <gpxtpx:TrackPointExtension xmlns:gpxtpx="http://www.garmin.com/xmlschemas/TrackPointExtension/v1">
            <gpxtpx:hr>176</gpxtpx:hr>
          </gpxtpx:TrackPointExtension>
        </extensions>
      </trkpt>
      <trkpt lat="46.49968" lon="0.33054">
        <ele>112.40000152588</ele>
        <time>2020-06-13T21:22:50.936Z</time>
        <extensions>
          <gpxtpx:TrackPointExtension xmlns:gpxtpx="http://www.garmin.com/xmlschemas/TrackPointExtension/v1">
            <gpxtpx:hr>176</gpxtpx:hr>
          </gpxtpx:TrackPointExtension>
        </extensions>
      </trkpt>
      <trkpt lat="46.49968" lon="0.33054">
        <ele>112.59999847412</ele>
        <time>2020-06-13T21:22:50.936Z</time>
        <extensions>
          <gpxtpx:TrackPointExtension xmlns:gpxtpx="http://www.garmin.com/xmlschemas/TrackPointExtension/v1">
            <gpxtpx:hr>176</gpxtpx:hr>
          </gpxtpx:TrackPointExtension>
        </extensions>
      </trkpt>
      <trkpt lat="46.49962" lon="0.33047">
        <ele>112.80000305176</ele>
        <time>2020-06-13T21:22:52.879Z</time>
        <extensions>
          <gpxtpx:TrackPointExtension xmlns:gpxtpx="http://www.garmin.com/xmlschemas/TrackPointExtension/v1">
            <gpxtpx:hr>175</gpxtpx:hr>
          </gpxtpx:TrackPointExtension>
        </extensions>
      </trkpt>
      <trkpt lat="46.49959" lon="0.33046">
        <ele>112.80000305176</ele>
        <time>2020-06-13T21:22:53.472Z</time>
        <extensions>
          <gpxtpx:TrackPointExtension xmlns:gpxtpx="http://www.garmin.com/xmlschemas/TrackPointExtension/v1">
            <gpxtpx:hr>174</gpxtpx:hr>
          </gpxtpx:TrackPointExtension>
        </extensions>
      </trkpt>
      <trkpt lat="46.49955" lon="0.33045">
        <ele>112.80000305176</ele>
        <time>2020-06-13T21:22:54.253Z</time>
        <extensions>
          <gpxtpx:TrackPointExtension xmlns:gpxtpx="http://www.garmin.com/xmlschemas/TrackPointExtension/v1">
            <gpxtpx:hr>174</gpxtpx:hr>
          </gpxtpx:TrackPointExtension>
        </extensions>
      </trkpt>
      <trkpt lat="46.49947" lon="0.33044">
        <ele>112.59999847412</ele>
        <time>2020-06-13T21:22:55.247Z</time>
        <extensions>
          <gpxtpx:TrackPointExtension xmlns:gpxtpx="http://www.garmin.com/xmlschemas/TrackPointExtension/v1">
            <gpxtpx:hr>173</gpxtpx:hr>
          </gpxtpx:TrackPointExtension>
        </extensions>
      </trkpt>
      <trkpt lat="46.49943" lon="0.33044">
        <ele>112.59999847412</ele>
        <time>2020-06-13T21:22:56.016Z</time>
        <extensions>
          <gpxtpx:TrackPointExtension xmlns:gpxtpx="http://www.garmin.com/xmlschemas/TrackPointExtension/v1">
            <gpxtpx:hr>172</gpxtpx:hr>
          </gpxtpx:TrackPointExtension>
        </extensions>
      </trkpt>
      <trkpt lat="46.49939" lon="0.33045">
        <ele>112.59999847412</ele>
        <time>2020-06-13T21:22:56.797Z</time>
        <extensions>
          <gpxtpx:TrackPointExtension xmlns:gpxtpx="http://www.garmin.com/xmlschemas/TrackPointExtension/v1">
            <gpxtpx:hr>172</gpxtpx:hr>
          </gpxtpx:TrackPointExtension>
        </extensions>
      </trkpt>
      <trkpt lat="46.49935" lon="0.33046">
        <ele>112.80000305176</ele>
        <time>2020-06-13T21:22:58.157Z</time>
        <extensions>
          <gpxtpx:TrackPointExtension xmlns:gpxtpx="http://www.garmin.com/xmlschemas/TrackPointExtension/v1">
            <gpxtpx:hr>172</gpxtpx:hr>
          </gpxtpx:TrackPointExtension>
        </extensions>
      </trkpt>
      <trkpt lat="46.49932" lon="0.33046">
        <ele>112.80000305176</ele>
        <time>2020-06-13T21:22:58.734Z</time>
        <extensions>
          <gpxtpx:TrackPointExtension xmlns:gpxtpx="http://www.garmin.com/xmlschemas/TrackPointExtension/v1">
            <gpxtpx:hr>172</gpxtpx:hr>
          </gpxtpx:TrackPointExtension>
        </extensions>
      </trkpt>
      <trkpt lat="46.49932" lon="0.33046">
        <ele>112.80000305176</ele>
        <time>2020-06-13T21:22:58.734Z</time>
        <extensions>
          <gpxtpx:TrackPointExtension xmlns:gpxtpx="http://www.garmin.com/xmlschemas/TrackPointExtension/v1">
            <gpxtpx:hr>171</gpxtpx:hr>
          </gpxtpx:TrackPointExtension>
        </extensions>
      </trkpt>
      <trkpt lat="46.49923" lon="0.33047">
        <ele>113</ele>
        <time>2020-06-13T21:23:00.913Z</time>
        <extensions>
          <gpxtpx:TrackPointExtension xmlns:gpxtpx="http://www.garmin.com/xmlschemas/TrackPointExtension/v1">
            <gpxtpx:hr>171</gpxtpx:hr>
          </gpxtpx:TrackPointExtension>
        </extensions>
      </trkpt>
      <trkpt lat="46.49908" lon="0.33048">
        <ele>113.59999847412</ele>
        <time>2020-06-13T21:23:05.471Z</time>
        <extensions>
          <gpxtpx:TrackPointExtension xmlns:gpxtpx="http://www.garmin.com/xmlschemas/TrackPointExtension/v1">
            <gpxtpx:hr>172</gpxtpx:hr>
          </gpxtpx:TrackPointExtension>
        </extensions>
      </trkpt>
      <trkpt lat="46.49904" lon="0.33047">
        <ele>113.80000305176</ele>
        <time>2020-06-13T21:23:06.830Z</time>
        <extensions>
          <gpxtpx:TrackPointExtension xmlns:gpxtpx="http://www.garmin.com/xmlschemas/TrackPointExtension/v1">
            <gpxtpx:hr>172</gpxtpx:hr>
          </gpxtpx:TrackPointExtension>
        </extensions>
      </trkpt>
      <trkpt lat="46.499" lon="0.33047">
        <ele>114</ele>
        <time>2020-06-13T21:23:08.176Z</time>
        <extensions>
          <gpxtpx:TrackPointExtension xmlns:gpxtpx="http://www.garmin.com/xmlschemas/TrackPointExtension/v1">
            <gpxtpx:hr>172</gpxtpx:hr>
          </gpxtpx:TrackPointExtension>
        </extensions>
      </trkpt>
      <trkpt lat="46.49896" lon="0.33047">
        <ele>114.40000152588</ele>
        <time>2020-06-13T21:23:10.178Z</time>
        <extensions>
          <gpxtpx:TrackPointExtension xmlns:gpxtpx="http://www.garmin.com/xmlschemas/TrackPointExtension/v1">
            <gpxtpx:hr>172</gpxtpx:hr>
          </gpxtpx:TrackPointExtension>
        </extensions>
      </trkpt>
      <trkpt lat="46.49891" lon="0.33047">
        <ele>114.59999847412</ele>
        <time>2020-06-13T21:23:11.697Z</time>
        <extensions>
          <gpxtpx:TrackPointExtension xmlns:gpxtpx="http://www.garmin.com/xmlschemas/TrackPointExtension/v1">
            <gpxtpx:hr>173</gpxtpx:hr>
          </gpxtpx:TrackPointExtension>
        </extensions>
      </trkpt>
      <trkpt lat="46.49886" lon="0.33047">
        <ele>114.80000305176</ele>
        <time>2020-06-13T21:23:13.215Z</time>
        <extensions>
          <gpxtpx:TrackPointExtension xmlns:gpxtpx="http://www.garmin.com/xmlschemas/TrackPointExtension/v1">
            <gpxtpx:hr>173</gpxtpx:hr>
          </gpxtpx:TrackPointExtension>
        </extensions>
      </trkpt>
      <trkpt lat="46.49881" lon="0.33046">
        <ele>115</ele>
        <time>2020-06-13T21:23:14.740Z</time>
        <extensions>
          <gpxtpx:TrackPointExtension xmlns:gpxtpx="http://www.garmin.com/xmlschemas/TrackPointExtension/v1">
            <gpxtpx:hr>173</gpxtpx:hr>
          </gpxtpx:TrackPointExtension>
        </extensions>
      </trkpt>
      <trkpt lat="46.49876" lon="0.33045">
        <ele>115.19999694824</ele>
        <time>2020-06-13T21:23:16.265Z</time>
        <extensions>
          <gpxtpx:TrackPointExtension xmlns:gpxtpx="http://www.garmin.com/xmlschemas/TrackPointExtension/v1">
            <gpxtpx:hr>173</gpxtpx:hr>
          </gpxtpx:TrackPointExtension>
        </extensions>
      </trkpt>
      <trkpt lat="46.49871" lon="0.33044">
        <ele>115.40000152588</ele>
        <time>2020-06-13T21:23:17.789Z</time>
        <extensions>
          <gpxtpx:TrackPointExtension xmlns:gpxtpx="http://www.garmin.com/xmlschemas/TrackPointExtension/v1">
            <gpxtpx:hr>173</gpxtpx:hr>
          </gpxtpx:TrackPointExtension>
        </extensions>
      </trkpt>
      <trkpt lat="46.49865" lon="0.33042">
        <ele>115.19999694824</ele>
        <time>2020-06-13T21:23:18.492Z</time>
        <extensions>
          <gpxtpx:TrackPointExtension xmlns:gpxtpx="http://www.garmin.com/xmlschemas/TrackPointExtension/v1">
            <gpxtpx:hr>174</gpxtpx:hr>
          </gpxtpx:TrackPointExtension>
        </extensions>
      </trkpt>
      <trkpt lat="46.49861" lon="0.3304">
        <ele>115.40000152588</ele>
        <time>2020-06-13T21:23:19.891Z</time>
        <extensions>
          <gpxtpx:TrackPointExtension xmlns:gpxtpx="http://www.garmin.com/xmlschemas/TrackPointExtension/v1">
            <gpxtpx:hr>174</gpxtpx:hr>
          </gpxtpx:TrackPointExtension>
        </extensions>
      </trkpt>
      <trkpt lat="46.49855" lon="0.33039">
        <ele>115.40000152588</ele>
        <time>2020-06-13T21:23:21.053Z</time>
        <extensions>
          <gpxtpx:TrackPointExtension xmlns:gpxtpx="http://www.garmin.com/xmlschemas/TrackPointExtension/v1">
            <gpxtpx:hr>174</gpxtpx:hr>
          </gpxtpx:TrackPointExtension>
        </extensions>
      </trkpt>
      <trkpt lat="46.4985" lon="0.33038">
        <ele>115.59999847412</ele>
        <time>2020-06-13T21:23:22.578Z</time>
        <extensions>
          <gpxtpx:TrackPointExtension xmlns:gpxtpx="http://www.garmin.com/xmlschemas/TrackPointExtension/v1">
            <gpxtpx:hr>174</gpxtpx:hr>
          </gpxtpx:TrackPointExtension>
        </extensions>
      </trkpt>
      <trkpt lat="46.49846" lon="0.33037">
        <ele>115.80000305176</ele>
        <time>2020-06-13T21:23:23.937Z</time>
        <extensions>
          <gpxtpx:TrackPointExtension xmlns:gpxtpx="http://www.garmin.com/xmlschemas/TrackPointExtension/v1">
            <gpxtpx:hr>174</gpxtpx:hr>
          </gpxtpx:TrackPointExtension>
        </extensions>
      </trkpt>
      <trkpt lat="46.49841" lon="0.33036">
        <ele>116</ele>
        <time>2020-06-13T21:23:25.462Z</time>
        <extensions>
          <gpxtpx:TrackPointExtension xmlns:gpxtpx="http://www.garmin.com/xmlschemas/TrackPointExtension/v1">
            <gpxtpx:hr>174</gpxtpx:hr>
          </gpxtpx:TrackPointExtension>
        </extensions>
      </trkpt>
      <trkpt lat="46.49836" lon="0.33035">
        <ele>116</ele>
        <time>2020-06-13T21:23:26.433Z</time>
        <extensions>
          <gpxtpx:TrackPointExtension xmlns:gpxtpx="http://www.garmin.com/xmlschemas/TrackPointExtension/v1">
            <gpxtpx:hr>174</gpxtpx:hr>
          </gpxtpx:TrackPointExtension>
        </extensions>
      </trkpt>
      <trkpt lat="46.49831" lon="0.33034">
        <ele>116</ele>
        <time>2020-06-13T21:23:27.404Z</time>
        <extensions>
          <gpxtpx:TrackPointExtension xmlns:gpxtpx="http://www.garmin.com/xmlschemas/TrackPointExtension/v1">
            <gpxtpx:hr>174</gpxtpx:hr>
          </gpxtpx:TrackPointExtension>
        </extensions>
      </trkpt>
      <trkpt lat="46.49826" lon="0.33033">
        <ele>116</ele>
        <time>2020-06-13T21:23:28.375Z</time>
        <extensions>
          <gpxtpx:TrackPointExtension xmlns:gpxtpx="http://www.garmin.com/xmlschemas/TrackPointExtension/v1">
            <gpxtpx:hr>174</gpxtpx:hr>
          </gpxtpx:TrackPointExtension>
        </extensions>
      </trkpt>
      <trkpt lat="46.4982" lon="0.33031">
        <ele>116</ele>
        <time>2020-06-13T21:23:29.560Z</time>
        <extensions>
          <gpxtpx:TrackPointExtension xmlns:gpxtpx="http://www.garmin.com/xmlschemas/TrackPointExtension/v1">
            <gpxtpx:hr>174</gpxtpx:hr>
          </gpxtpx:TrackPointExtension>
        </extensions>
      </trkpt>
      <trkpt lat="46.49815" lon="0.3303">
        <ele>115.80000305176</ele>
        <time>2020-06-13T21:23:30.097Z</time>
        <extensions>
          <gpxtpx:TrackPointExtension xmlns:gpxtpx="http://www.garmin.com/xmlschemas/TrackPointExtension/v1">
            <gpxtpx:hr>174</gpxtpx:hr>
          </gpxtpx:TrackPointExtension>
        </extensions>
      </trkpt>
      <trkpt lat="46.4981" lon="0.3303">
        <ele>115.59999847412</ele>
        <time>2020-06-13T21:23:30.627Z</time>
        <extensions>
          <gpxtpx:TrackPointExtension xmlns:gpxtpx="http://www.garmin.com/xmlschemas/TrackPointExtension/v1">
            <gpxtpx:hr>174</gpxtpx:hr>
          </gpxtpx:TrackPointExtension>
        </extensions>
      </trkpt>
      <trkpt lat="46.49783" lon="0.33024">
        <ele>114.80000305176</ele>
        <time>2020-06-13T21:23:33.852Z</time>
        <extensions>
          <gpxtpx:TrackPointExtension xmlns:gpxtpx="http://www.garmin.com/xmlschemas/TrackPointExtension/v1">
            <gpxtpx:hr>172</gpxtpx:hr>
          </gpxtpx:TrackPointExtension>
        </extensions>
      </trkpt>
      <trkpt lat="46.49772" lon="0.3302">
        <ele>114.59999847412</ele>
        <time>2020-06-13T21:23:35.378Z</time>
        <extensions>
          <gpxtpx:TrackPointExtension xmlns:gpxtpx="http://www.garmin.com/xmlschemas/TrackPointExtension/v1">
            <gpxtpx:hr>171</gpxtpx:hr>
          </gpxtpx:TrackPointExtension>
        </extensions>
      </trkpt>
      <trkpt lat="46.49766" lon="0.33017">
        <ele>114.40000152588</ele>
        <time>2020-06-13T21:23:36.110Z</time>
        <extensions>
          <gpxtpx:TrackPointExtension xmlns:gpxtpx="http://www.garmin.com/xmlschemas/TrackPointExtension/v1">
            <gpxtpx:hr>170</gpxtpx:hr>
          </gpxtpx:TrackPointExtension>
        </extensions>
      </trkpt>
      <trkpt lat="46.4976" lon="0.33014">
        <ele>114</ele>
        <time>2020-06-13T21:23:36.662Z</time>
        <extensions>
          <gpxtpx:TrackPointExtension xmlns:gpxtpx="http://www.garmin.com/xmlschemas/TrackPointExtension/v1">
            <gpxtpx:hr>169</gpxtpx:hr>
          </gpxtpx:TrackPointExtension>
        </extensions>
      </trkpt>
      <trkpt lat="46.49754" lon="0.33011">
        <ele>113.80000305176</ele>
        <time>2020-06-13T21:23:37.394Z</time>
        <extensions>
          <gpxtpx:TrackPointExtension xmlns:gpxtpx="http://www.garmin.com/xmlschemas/TrackPointExtension/v1">
            <gpxtpx:hr>167</gpxtpx:hr>
          </gpxtpx:TrackPointExtension>
        </extensions>
      </trkpt>
      <trkpt lat="46.49749" lon="0.33008">
        <ele>113.40000152588</ele>
        <time>2020-06-13T21:23:37.894Z</time>
        <extensions>
          <gpxtpx:TrackPointExtension xmlns:gpxtpx="http://www.garmin.com/xmlschemas/TrackPointExtension/v1">
            <gpxtpx:hr>167</gpxtpx:hr>
          </gpxtpx:TrackPointExtension>
        </extensions>
      </trkpt>
      <trkpt lat="46.49738" lon="0.33002">
        <ele>112.40000152588</ele>
        <time>2020-06-13T21:23:38.979Z</time>
        <extensions>
          <gpxtpx:TrackPointExtension xmlns:gpxtpx="http://www.garmin.com/xmlschemas/TrackPointExtension/v1">
            <gpxtpx:hr>166</gpxtpx:hr>
          </gpxtpx:TrackPointExtension>
        </extensions>
      </trkpt>
      <trkpt lat="46.49733" lon="0.33">
        <ele>111.59999847412</ele>
        <time>2020-06-13T21:23:39.458Z</time>
        <extensions>
          <gpxtpx:TrackPointExtension xmlns:gpxtpx="http://www.garmin.com/xmlschemas/TrackPointExtension/v1">
            <gpxtpx:hr>162</gpxtpx:hr>
          </gpxtpx:TrackPointExtension>
        </extensions>
      </trkpt>
      <trkpt lat="46.49728" lon="0.32998">
        <ele>111</ele>
        <time>2020-06-13T21:23:39.937Z</time>
        <extensions>
          <gpxtpx:TrackPointExtension xmlns:gpxtpx="http://www.garmin.com/xmlschemas/TrackPointExtension/v1">
            <gpxtpx:hr>162</gpxtpx:hr>
          </gpxtpx:TrackPointExtension>
        </extensions>
      </trkpt>
      <trkpt lat="46.49723" lon="0.32996">
        <ele>109.59999847412</ele>
        <time>2020-06-13T21:23:40.416Z</time>
        <extensions>
          <gpxtpx:TrackPointExtension xmlns:gpxtpx="http://www.garmin.com/xmlschemas/TrackPointExtension/v1">
            <gpxtpx:hr>159</gpxtpx:hr>
          </gpxtpx:TrackPointExtension>
        </extensions>
      </trkpt>
      <trkpt lat="46.49717" lon="0.32995">
        <ele>108.80000305176</ele>
        <time>2020-06-13T21:23:40.973Z</time>
        <extensions>
          <gpxtpx:TrackPointExtension xmlns:gpxtpx="http://www.garmin.com/xmlschemas/TrackPointExtension/v1">
            <gpxtpx:hr>159</gpxtpx:hr>
          </gpxtpx:TrackPointExtension>
        </extensions>
      </trkpt>
      <trkpt lat="46.49711" lon="0.32995">
        <ele>107.80000305176</ele>
        <time>2020-06-13T21:23:41.528Z</time>
        <extensions>
          <gpxtpx:TrackPointExtension xmlns:gpxtpx="http://www.garmin.com/xmlschemas/TrackPointExtension/v1">
            <gpxtpx:hr>156</gpxtpx:hr>
          </gpxtpx:TrackPointExtension>
        </extensions>
      </trkpt>
      <trkpt lat="46.49704" lon="0.32997">
        <ele>107.59999847412</ele>
        <time>2020-06-13T21:23:42.381Z</time>
        <extensions>
          <gpxtpx:TrackPointExtension xmlns:gpxtpx="http://www.garmin.com/xmlschemas/TrackPointExtension/v1">
            <gpxtpx:hr>156</gpxtpx:hr>
          </gpxtpx:TrackPointExtension>
        </extensions>
      </trkpt>
      <trkpt lat="46.49698" lon="0.32998">
        <ele>106.80000305176</ele>
        <time>2020-06-13T21:23:42.939Z</time>
        <extensions>
          <gpxtpx:TrackPointExtension xmlns:gpxtpx="http://www.garmin.com/xmlschemas/TrackPointExtension/v1">
            <gpxtpx:hr>154</gpxtpx:hr>
          </gpxtpx:TrackPointExtension>
        </extensions>
      </trkpt>
      <trkpt lat="46.49691" lon="0.32998">
        <ele>106.19999694824</ele>
        <time>2020-06-13T21:23:43.585Z</time>
        <extensions>
          <gpxtpx:TrackPointExtension xmlns:gpxtpx="http://www.garmin.com/xmlschemas/TrackPointExtension/v1">
            <gpxtpx:hr>154</gpxtpx:hr>
          </gpxtpx:TrackPointExtension>
        </extensions>
      </trkpt>
      <trkpt lat="46.49686" lon="0.32999">
        <ele>106</ele>
        <time>2020-06-13T21:23:44.122Z</time>
        <extensions>
          <gpxtpx:TrackPointExtension xmlns:gpxtpx="http://www.garmin.com/xmlschemas/TrackPointExtension/v1">
            <gpxtpx:hr>153</gpxtpx:hr>
          </gpxtpx:TrackPointExtension>
        </extensions>
      </trkpt>
      <trkpt lat="46.49681" lon="0.33001">
        <ele>105.80000305176</ele>
        <time>2020-06-13T21:23:44.680Z</time>
        <extensions>
          <gpxtpx:TrackPointExtension xmlns:gpxtpx="http://www.garmin.com/xmlschemas/TrackPointExtension/v1">
            <gpxtpx:hr>153</gpxtpx:hr>
          </gpxtpx:TrackPointExtension>
        </extensions>
      </trkpt>
      <trkpt lat="46.49672" lon="0.33001">
        <ele>105.40000152588</ele>
        <time>2020-06-13T21:23:45.596Z</time>
        <extensions>
          <gpxtpx:TrackPointExtension xmlns:gpxtpx="http://www.garmin.com/xmlschemas/TrackPointExtension/v1">
            <gpxtpx:hr>150</gpxtpx:hr>
          </gpxtpx:TrackPointExtension>
        </extensions>
      </trkpt>
      <trkpt lat="46.49665" lon="0.33001">
        <ele>104.80000305176</ele>
        <time>2020-06-13T21:23:46.242Z</time>
        <extensions>
          <gpxtpx:TrackPointExtension xmlns:gpxtpx="http://www.garmin.com/xmlschemas/TrackPointExtension/v1">
            <gpxtpx:hr>150</gpxtpx:hr>
          </gpxtpx:TrackPointExtension>
        </extensions>
      </trkpt>
      <trkpt lat="46.49646" lon="0.33">
        <ele>103.80000305176</ele>
        <time>2020-06-13T21:23:48.043Z</time>
        <extensions>
          <gpxtpx:TrackPointExtension xmlns:gpxtpx="http://www.garmin.com/xmlschemas/TrackPointExtension/v1">
            <gpxtpx:hr>146</gpxtpx:hr>
          </gpxtpx:TrackPointExtension>
        </extensions>
      </trkpt>
      <trkpt lat="46.49638" lon="0.33">
        <ele>102.59999847412</ele>
        <time>2020-06-13T21:23:48.782Z</time>
        <extensions>
          <gpxtpx:TrackPointExtension xmlns:gpxtpx="http://www.garmin.com/xmlschemas/TrackPointExtension/v1">
            <gpxtpx:hr>146</gpxtpx:hr>
          </gpxtpx:TrackPointExtension>
        </extensions>
      </trkpt>
      <trkpt lat="46.49628" lon="0.33002">
        <ele>102.19999694824</ele>
        <time>2020-06-13T21:23:49.856Z</time>
        <extensions>
          <gpxtpx:TrackPointExtension xmlns:gpxtpx="http://www.garmin.com/xmlschemas/TrackPointExtension/v1">
            <gpxtpx:hr>143</gpxtpx:hr>
          </gpxtpx:TrackPointExtension>
        </extensions>
      </trkpt>
      <trkpt lat="46.49619" lon="0.33004">
        <ele>101.19999694824</ele>
        <time>2020-06-13T21:23:50.697Z</time>
        <extensions>
          <gpxtpx:TrackPointExtension xmlns:gpxtpx="http://www.garmin.com/xmlschemas/TrackPointExtension/v1">
            <gpxtpx:hr>143</gpxtpx:hr>
          </gpxtpx:TrackPointExtension>
        </extensions>
      </trkpt>
      <trkpt lat="46.49602" lon="0.33007">
        <ele>100.19999694824</ele>
        <time>2020-06-13T21:23:52.242Z</time>
        <extensions>
          <gpxtpx:TrackPointExtension xmlns:gpxtpx="http://www.garmin.com/xmlschemas/TrackPointExtension/v1">
            <gpxtpx:hr>141</gpxtpx:hr>
          </gpxtpx:TrackPointExtension>
        </extensions>
      </trkpt>
      <trkpt lat="46.49593" lon="0.33008">
        <ele>99.400001525879</ele>
        <time>2020-06-13T21:23:53.076Z</time>
        <extensions>
          <gpxtpx:TrackPointExtension xmlns:gpxtpx="http://www.garmin.com/xmlschemas/TrackPointExtension/v1">
            <gpxtpx:hr>140</gpxtpx:hr>
          </gpxtpx:TrackPointExtension>
        </extensions>
      </trkpt>
      <trkpt lat="46.49585" lon="0.33009">
        <ele>99.199996948242</ele>
        <time>2020-06-13T21:23:54.070Z</time>
        <extensions>
          <gpxtpx:TrackPointExtension xmlns:gpxtpx="http://www.garmin.com/xmlschemas/TrackPointExtension/v1">
            <gpxtpx:hr>140</gpxtpx:hr>
          </gpxtpx:TrackPointExtension>
        </extensions>
      </trkpt>
      <trkpt lat="46.49569" lon="0.33009">
        <ele>98.400001525879</ele>
        <time>2020-06-13T21:23:55.619Z</time>
        <extensions>
          <gpxtpx:TrackPointExtension xmlns:gpxtpx="http://www.garmin.com/xmlschemas/TrackPointExtension/v1">
            <gpxtpx:hr>140</gpxtpx:hr>
          </gpxtpx:TrackPointExtension>
        </extensions>
      </trkpt>
      <trkpt lat="46.49562" lon="0.33009">
        <ele>98.400001525879</ele>
        <time>2020-06-13T21:23:56.966Z</time>
        <extensions>
          <gpxtpx:TrackPointExtension xmlns:gpxtpx="http://www.garmin.com/xmlschemas/TrackPointExtension/v1">
            <gpxtpx:hr>138</gpxtpx:hr>
          </gpxtpx:TrackPointExtension>
        </extensions>
      </trkpt>
      <trkpt lat="46.49556" lon="0.33011">
        <ele>98.400001525879</ele>
        <time>2020-06-13T21:23:58.151Z</time>
        <extensions>
          <gpxtpx:TrackPointExtension xmlns:gpxtpx="http://www.garmin.com/xmlschemas/TrackPointExtension/v1">
            <gpxtpx:hr>138</gpxtpx:hr>
          </gpxtpx:TrackPointExtension>
        </extensions>
      </trkpt>
      <trkpt lat="46.49549" lon="0.33012">
        <ele>98.199996948242</ele>
        <time>2020-06-13T21:23:58.989Z</time>
        <extensions>
          <gpxtpx:TrackPointExtension xmlns:gpxtpx="http://www.garmin.com/xmlschemas/TrackPointExtension/v1">
            <gpxtpx:hr>138</gpxtpx:hr>
          </gpxtpx:TrackPointExtension>
        </extensions>
      </trkpt>
      <trkpt lat="46.49543" lon="0.33015">
        <ele>98.199996948242</ele>
        <time>2020-06-13T21:24:00.210Z</time>
        <extensions>
          <gpxtpx:TrackPointExtension xmlns:gpxtpx="http://www.garmin.com/xmlschemas/TrackPointExtension/v1">
            <gpxtpx:hr>138</gpxtpx:hr>
          </gpxtpx:TrackPointExtension>
        </extensions>
      </trkpt>
      <trkpt lat="46.49538" lon="0.33017">
        <ele>98.199996948242</ele>
        <time>2020-06-13T21:24:01.208Z</time>
        <extensions>
          <gpxtpx:TrackPointExtension xmlns:gpxtpx="http://www.garmin.com/xmlschemas/TrackPointExtension/v1">
            <gpxtpx:hr>139</gpxtpx:hr>
          </gpxtpx:TrackPointExtension>
        </extensions>
      </trkpt>
      <trkpt lat="46.49532" lon="0.33019">
        <ele>98.400001525879</ele>
        <time>2020-06-13T21:24:02.895Z</time>
        <extensions>
          <gpxtpx:TrackPointExtension xmlns:gpxtpx="http://www.garmin.com/xmlschemas/TrackPointExtension/v1">
            <gpxtpx:hr>140</gpxtpx:hr>
          </gpxtpx:TrackPointExtension>
        </extensions>
      </trkpt>
      <trkpt lat="46.49526" lon="0.33021">
        <ele>98.400001525879</ele>
        <time>2020-06-13T21:24:04.079Z</time>
        <extensions>
          <gpxtpx:TrackPointExtension xmlns:gpxtpx="http://www.garmin.com/xmlschemas/TrackPointExtension/v1">
            <gpxtpx:hr>140</gpxtpx:hr>
          </gpxtpx:TrackPointExtension>
        </extensions>
      </trkpt>
      <trkpt lat="46.49522" lon="0.33024">
        <ele>98.599998474121</ele>
        <time>2020-06-13T21:24:05.540Z</time>
        <extensions>
          <gpxtpx:TrackPointExtension xmlns:gpxtpx="http://www.garmin.com/xmlschemas/TrackPointExtension/v1">
            <gpxtpx:hr>141</gpxtpx:hr>
          </gpxtpx:TrackPointExtension>
        </extensions>
      </trkpt>
      <trkpt lat="46.49515" lon="0.33027">
        <ele>98.599998474121</ele>
        <time>2020-06-13T21:24:06.944Z</time>
        <extensions>
          <gpxtpx:TrackPointExtension xmlns:gpxtpx="http://www.garmin.com/xmlschemas/TrackPointExtension/v1">
            <gpxtpx:hr>142</gpxtpx:hr>
          </gpxtpx:TrackPointExtension>
        </extensions>
      </trkpt>
      <trkpt lat="46.49509" lon="0.33028">
        <ele>99</ele>
        <time>2020-06-13T21:24:09.218Z</time>
        <extensions>
          <gpxtpx:TrackPointExtension xmlns:gpxtpx="http://www.garmin.com/xmlschemas/TrackPointExtension/v1">
            <gpxtpx:hr>142</gpxtpx:hr>
          </gpxtpx:TrackPointExtension>
        </extensions>
      </trkpt>
      <trkpt lat="46.49502" lon="0.33029">
        <ele>99.199996948242</ele>
        <time>2020-06-13T21:24:11.049Z</time>
        <extensions>
          <gpxtpx:TrackPointExtension xmlns:gpxtpx="http://www.garmin.com/xmlschemas/TrackPointExtension/v1">
            <gpxtpx:hr>144</gpxtpx:hr>
          </gpxtpx:TrackPointExtension>
        </extensions>
      </trkpt>
      <trkpt lat="46.49497" lon="0.33031">
        <ele>99.400001525879</ele>
        <time>2020-06-13T21:24:12.592Z</time>
        <extensions>
          <gpxtpx:TrackPointExtension xmlns:gpxtpx="http://www.garmin.com/xmlschemas/TrackPointExtension/v1">
            <gpxtpx:hr>144</gpxtpx:hr>
          </gpxtpx:TrackPointExtension>
        </extensions>
      </trkpt>
      <trkpt lat="46.49491" lon="0.33034">
        <ele>99.599998474121</ele>
        <time>2020-06-13T21:24:14.309Z</time>
        <extensions>
          <gpxtpx:TrackPointExtension xmlns:gpxtpx="http://www.garmin.com/xmlschemas/TrackPointExtension/v1">
            <gpxtpx:hr>145</gpxtpx:hr>
          </gpxtpx:TrackPointExtension>
        </extensions>
      </trkpt>
      <trkpt lat="46.49485" lon="0.33036">
        <ele>99.599998474121</ele>
        <time>2020-06-13T21:24:15.493Z</time>
        <extensions>
          <gpxtpx:TrackPointExtension xmlns:gpxtpx="http://www.garmin.com/xmlschemas/TrackPointExtension/v1">
            <gpxtpx:hr>145</gpxtpx:hr>
          </gpxtpx:TrackPointExtension>
        </extensions>
      </trkpt>
      <trkpt lat="46.4948" lon="0.33038">
        <ele>99.800003051758</ele>
        <time>2020-06-13T21:24:17.036Z</time>
        <extensions>
          <gpxtpx:TrackPointExtension xmlns:gpxtpx="http://www.garmin.com/xmlschemas/TrackPointExtension/v1">
            <gpxtpx:hr>146</gpxtpx:hr>
          </gpxtpx:TrackPointExtension>
        </extensions>
      </trkpt>
      <trkpt lat="46.49475" lon="0.33039">
        <ele>99.800003051758</ele>
        <time>2020-06-13T21:24:18.008Z</time>
        <extensions>
          <gpxtpx:TrackPointExtension xmlns:gpxtpx="http://www.garmin.com/xmlschemas/TrackPointExtension/v1">
            <gpxtpx:hr>147</gpxtpx:hr>
          </gpxtpx:TrackPointExtension>
        </extensions>
      </trkpt>
      <trkpt lat="46.49471" lon="0.3304">
        <ele>100</ele>
        <time>2020-06-13T21:24:19.367Z</time>
        <extensions>
          <gpxtpx:TrackPointExtension xmlns:gpxtpx="http://www.garmin.com/xmlschemas/TrackPointExtension/v1">
            <gpxtpx:hr>147</gpxtpx:hr>
          </gpxtpx:TrackPointExtension>
        </extensions>
      </trkpt>
      <trkpt lat="46.49467" lon="0.33043">
        <ele>100</ele>
        <time>2020-06-13T21:24:20.233Z</time>
        <extensions>
          <gpxtpx:TrackPointExtension xmlns:gpxtpx="http://www.garmin.com/xmlschemas/TrackPointExtension/v1">
            <gpxtpx:hr>148</gpxtpx:hr>
          </gpxtpx:TrackPointExtension>
        </extensions>
      </trkpt>
      <trkpt lat="46.49462" lon="0.33046">
        <ele>100</ele>
        <time>2020-06-13T21:24:21.274Z</time>
        <extensions>
          <gpxtpx:TrackPointExtension xmlns:gpxtpx="http://www.garmin.com/xmlschemas/TrackPointExtension/v1">
            <gpxtpx:hr>148</gpxtpx:hr>
          </gpxtpx:TrackPointExtension>
        </extensions>
      </trkpt>
      <trkpt lat="46.49456" lon="0.33049">
        <ele>100.40000152588</ele>
        <time>2020-06-13T21:24:23.609Z</time>
        <extensions>
          <gpxtpx:TrackPointExtension xmlns:gpxtpx="http://www.garmin.com/xmlschemas/TrackPointExtension/v1">
            <gpxtpx:hr>149</gpxtpx:hr>
          </gpxtpx:TrackPointExtension>
        </extensions>
      </trkpt>
      <trkpt lat="46.49451" lon="0.33051">
        <ele>100.40000152588</ele>
        <time>2020-06-13T21:24:24.607Z</time>
        <extensions>
          <gpxtpx:TrackPointExtension xmlns:gpxtpx="http://www.garmin.com/xmlschemas/TrackPointExtension/v1">
            <gpxtpx:hr>149</gpxtpx:hr>
          </gpxtpx:TrackPointExtension>
        </extensions>
      </trkpt>
      <trkpt lat="46.49445" lon="0.33054">
        <ele>100.59999847412</ele>
        <time>2020-06-13T21:24:26.324Z</time>
        <extensions>
          <gpxtpx:TrackPointExtension xmlns:gpxtpx="http://www.garmin.com/xmlschemas/TrackPointExtension/v1">
            <gpxtpx:hr>149</gpxtpx:hr>
          </gpxtpx:TrackPointExtension>
        </extensions>
      </trkpt>
      <trkpt lat="46.49439" lon="0.33058">
        <ele>100.59999847412</ele>
        <time>2020-06-13T21:24:27.594Z</time>
        <extensions>
          <gpxtpx:TrackPointExtension xmlns:gpxtpx="http://www.garmin.com/xmlschemas/TrackPointExtension/v1">
            <gpxtpx:hr>149</gpxtpx:hr>
          </gpxtpx:TrackPointExtension>
        </extensions>
      </trkpt>
      <trkpt lat="46.49433" lon="0.33062">
        <ele>100.59999847412</ele>
        <time>2020-06-13T21:24:28.864Z</time>
        <extensions>
          <gpxtpx:TrackPointExtension xmlns:gpxtpx="http://www.garmin.com/xmlschemas/TrackPointExtension/v1">
            <gpxtpx:hr>149</gpxtpx:hr>
          </gpxtpx:TrackPointExtension>
        </extensions>
      </trkpt>
      <trkpt lat="46.49427" lon="0.33066">
        <ele>100.59999847412</ele>
        <time>2020-06-13T21:24:30.135Z</time>
        <extensions>
          <gpxtpx:TrackPointExtension xmlns:gpxtpx="http://www.garmin.com/xmlschemas/TrackPointExtension/v1">
            <gpxtpx:hr>149</gpxtpx:hr>
          </gpxtpx:TrackPointExtension>
        </extensions>
      </trkpt>
      <trkpt lat="46.49417" lon="0.33074">
        <ele>100.59999847412</ele>
        <time>2020-06-13T21:24:32.332Z</time>
        <extensions>
          <gpxtpx:TrackPointExtension xmlns:gpxtpx="http://www.garmin.com/xmlschemas/TrackPointExtension/v1">
            <gpxtpx:hr>149</gpxtpx:hr>
          </gpxtpx:TrackPointExtension>
        </extensions>
      </trkpt>
      <trkpt lat="46.49413" lon="0.33079">
        <ele>100.59999847412</ele>
        <time>2020-06-13T21:24:33.347Z</time>
        <extensions>
          <gpxtpx:TrackPointExtension xmlns:gpxtpx="http://www.garmin.com/xmlschemas/TrackPointExtension/v1">
            <gpxtpx:hr>150</gpxtpx:hr>
          </gpxtpx:TrackPointExtension>
        </extensions>
      </trkpt>
      <trkpt lat="46.49409" lon="0.33084">
        <ele>100.59999847412</ele>
        <time>2020-06-13T21:24:34.363Z</time>
        <extensions>
          <gpxtpx:TrackPointExtension xmlns:gpxtpx="http://www.garmin.com/xmlschemas/TrackPointExtension/v1">
            <gpxtpx:hr>150</gpxtpx:hr>
          </gpxtpx:TrackPointExtension>
        </extensions>
      </trkpt>
      <trkpt lat="46.49405" lon="0.33091">
        <ele>100.59999847412</ele>
        <time>2020-06-13T21:24:35.568Z</time>
        <extensions>
          <gpxtpx:TrackPointExtension xmlns:gpxtpx="http://www.garmin.com/xmlschemas/TrackPointExtension/v1">
            <gpxtpx:hr>151</gpxtpx:hr>
          </gpxtpx:TrackPointExtension>
        </extensions>
      </trkpt>
      <trkpt lat="46.49401" lon="0.33099">
        <ele>100.59999847412</ele>
        <time>2020-06-13T21:24:36.878Z</time>
        <extensions>
          <gpxtpx:TrackPointExtension xmlns:gpxtpx="http://www.garmin.com/xmlschemas/TrackPointExtension/v1">
            <gpxtpx:hr>151</gpxtpx:hr>
          </gpxtpx:TrackPointExtension>
        </extensions>
      </trkpt>
      <trkpt lat="46.49397" lon="0.33106">
        <ele>100.40000152588</ele>
        <time>2020-06-13T21:24:37.597Z</time>
        <extensions>
          <gpxtpx:TrackPointExtension xmlns:gpxtpx="http://www.garmin.com/xmlschemas/TrackPointExtension/v1">
            <gpxtpx:hr>149</gpxtpx:hr>
          </gpxtpx:TrackPointExtension>
        </extensions>
      </trkpt>
      <trkpt lat="46.49392" lon="0.33113">
        <ele>100.40000152588</ele>
        <time>2020-06-13T21:24:38.933Z</time>
        <extensions>
          <gpxtpx:TrackPointExtension xmlns:gpxtpx="http://www.garmin.com/xmlschemas/TrackPointExtension/v1">
            <gpxtpx:hr>149</gpxtpx:hr>
          </gpxtpx:TrackPointExtension>
        </extensions>
      </trkpt>
      <trkpt lat="46.49388" lon="0.33119">
        <ele>100.40000152588</ele>
        <time>2020-06-13T21:24:40.040Z</time>
        <extensions>
          <gpxtpx:TrackPointExtension xmlns:gpxtpx="http://www.garmin.com/xmlschemas/TrackPointExtension/v1">
            <gpxtpx:hr>148</gpxtpx:hr>
          </gpxtpx:TrackPointExtension>
        </extensions>
      </trkpt>
      <trkpt lat="46.49384" lon="0.33126">
        <ele>100.40000152588</ele>
        <time>2020-06-13T21:24:41.245Z</time>
        <extensions>
          <gpxtpx:TrackPointExtension xmlns:gpxtpx="http://www.garmin.com/xmlschemas/TrackPointExtension/v1">
            <gpxtpx:hr>147</gpxtpx:hr>
          </gpxtpx:TrackPointExtension>
        </extensions>
      </trkpt>
      <trkpt lat="46.49384" lon="0.33126">
        <ele>100.40000152588</ele>
        <time>2020-06-13T21:24:41.245Z</time>
        <extensions>
          <gpxtpx:TrackPointExtension xmlns:gpxtpx="http://www.garmin.com/xmlschemas/TrackPointExtension/v1">
            <gpxtpx:hr>147</gpxtpx:hr>
          </gpxtpx:TrackPointExtension>
        </extensions>
      </trkpt>
      <trkpt lat="46.49376" lon="0.33139">
        <ele>100.19999694824</ele>
        <time>2020-06-13T21:24:42.881Z</time>
        <extensions>
          <gpxtpx:TrackPointExtension xmlns:gpxtpx="http://www.garmin.com/xmlschemas/TrackPointExtension/v1">
            <gpxtpx:hr>146</gpxtpx:hr>
          </gpxtpx:TrackPointExtension>
        </extensions>
      </trkpt>
      <trkpt lat="46.49371" lon="0.33147">
        <ele>100.19999694824</ele>
        <time>2020-06-13T21:24:44.312Z</time>
        <extensions>
          <gpxtpx:TrackPointExtension xmlns:gpxtpx="http://www.garmin.com/xmlschemas/TrackPointExtension/v1">
            <gpxtpx:hr>146</gpxtpx:hr>
          </gpxtpx:TrackPointExtension>
        </extensions>
      </trkpt>
      <trkpt lat="46.49366" lon="0.33154">
        <ele>100</ele>
        <time>2020-06-13T21:24:45.136Z</time>
        <extensions>
          <gpxtpx:TrackPointExtension xmlns:gpxtpx="http://www.garmin.com/xmlschemas/TrackPointExtension/v1">
            <gpxtpx:hr>145</gpxtpx:hr>
          </gpxtpx:TrackPointExtension>
        </extensions>
      </trkpt>
      <trkpt lat="46.49362" lon="0.33161">
        <ele>100</ele>
        <time>2020-06-13T21:24:46.341Z</time>
        <extensions>
          <gpxtpx:TrackPointExtension xmlns:gpxtpx="http://www.garmin.com/xmlschemas/TrackPointExtension/v1">
            <gpxtpx:hr>145</gpxtpx:hr>
          </gpxtpx:TrackPointExtension>
        </extensions>
      </trkpt>
      <trkpt lat="46.49357" lon="0.33166">
        <ele>99.800003051758</ele>
        <time>2020-06-13T21:24:47.031Z</time>
        <extensions>
          <gpxtpx:TrackPointExtension xmlns:gpxtpx="http://www.garmin.com/xmlschemas/TrackPointExtension/v1">
            <gpxtpx:hr>143</gpxtpx:hr>
          </gpxtpx:TrackPointExtension>
        </extensions>
      </trkpt>
      <trkpt lat="46.49352" lon="0.33171">
        <ele>99.800003051758</ele>
        <time>2020-06-13T21:24:48.199Z</time>
        <extensions>
          <gpxtpx:TrackPointExtension xmlns:gpxtpx="http://www.garmin.com/xmlschemas/TrackPointExtension/v1">
            <gpxtpx:hr>143</gpxtpx:hr>
          </gpxtpx:TrackPointExtension>
        </extensions>
      </trkpt>
      <trkpt lat="46.49348" lon="0.33176">
        <ele>99.599998474121</ele>
        <time>2020-06-13T21:24:48.770Z</time>
        <extensions>
          <gpxtpx:TrackPointExtension xmlns:gpxtpx="http://www.garmin.com/xmlschemas/TrackPointExtension/v1">
            <gpxtpx:hr>141</gpxtpx:hr>
          </gpxtpx:TrackPointExtension>
        </extensions>
      </trkpt>
      <trkpt lat="46.49343" lon="0.33181">
        <ele>99.599998474121</ele>
        <time>2020-06-13T21:24:49.939Z</time>
        <extensions>
          <gpxtpx:TrackPointExtension xmlns:gpxtpx="http://www.garmin.com/xmlschemas/TrackPointExtension/v1">
            <gpxtpx:hr>141</gpxtpx:hr>
          </gpxtpx:TrackPointExtension>
        </extensions>
      </trkpt>
      <trkpt lat="46.49337" lon="0.33186">
        <ele>99.400001525879</ele>
        <time>2020-06-13T21:24:50.758Z</time>
        <extensions>
          <gpxtpx:TrackPointExtension xmlns:gpxtpx="http://www.garmin.com/xmlschemas/TrackPointExtension/v1">
            <gpxtpx:hr>139</gpxtpx:hr>
          </gpxtpx:TrackPointExtension>
        </extensions>
      </trkpt>
      <trkpt lat="46.49329" lon="0.33192">
        <ele>99</ele>
        <time>2020-06-13T21:24:51.675Z</time>
        <extensions>
          <gpxtpx:TrackPointExtension xmlns:gpxtpx="http://www.garmin.com/xmlschemas/TrackPointExtension/v1">
            <gpxtpx:hr>139</gpxtpx:hr>
          </gpxtpx:TrackPointExtension>
        </extensions>
      </trkpt>
      <trkpt lat="46.49326" lon="0.33198">
        <ele>99.199996948242</ele>
        <time>2020-06-13T21:24:53.207Z</time>
        <extensions>
          <gpxtpx:TrackPointExtension xmlns:gpxtpx="http://www.garmin.com/xmlschemas/TrackPointExtension/v1">
            <gpxtpx:hr>138</gpxtpx:hr>
          </gpxtpx:TrackPointExtension>
        </extensions>
      </trkpt>
      <trkpt lat="46.49322" lon="0.33205">
        <ele>99</ele>
        <time>2020-06-13T21:24:53.926Z</time>
        <extensions>
          <gpxtpx:TrackPointExtension xmlns:gpxtpx="http://www.garmin.com/xmlschemas/TrackPointExtension/v1">
            <gpxtpx:hr>138</gpxtpx:hr>
          </gpxtpx:TrackPointExtension>
        </extensions>
      </trkpt>
      <trkpt lat="46.49317" lon="0.33215">
        <ele>98.800003051758</ele>
        <time>2020-06-13T21:24:54.996Z</time>
        <extensions>
          <gpxtpx:TrackPointExtension xmlns:gpxtpx="http://www.garmin.com/xmlschemas/TrackPointExtension/v1">
            <gpxtpx:hr>137</gpxtpx:hr>
          </gpxtpx:TrackPointExtension>
        </extensions>
      </trkpt>
      <trkpt lat="46.49313" lon="0.33216">
        <ele>98.599998474121</ele>
        <time>2020-06-13T21:24:55.391Z</time>
        <extensions>
          <gpxtpx:TrackPointExtension xmlns:gpxtpx="http://www.garmin.com/xmlschemas/TrackPointExtension/v1">
            <gpxtpx:hr>137</gpxtpx:hr>
          </gpxtpx:TrackPointExtension>
        </extensions>
      </trkpt>
      <trkpt lat="46.4931" lon="0.33213">
        <ele>98.599998474121</ele>
        <time>2020-06-13T21:24:56.092Z</time>
        <extensions>
          <gpxtpx:TrackPointExtension xmlns:gpxtpx="http://www.garmin.com/xmlschemas/TrackPointExtension/v1">
            <gpxtpx:hr>137</gpxtpx:hr>
          </gpxtpx:TrackPointExtension>
        </extensions>
      </trkpt>
      <trkpt lat="46.49308" lon="0.33207">
        <ele>98.400001525879</ele>
        <time>2020-06-13T21:24:56.563Z</time>
        <extensions>
          <gpxtpx:TrackPointExtension xmlns:gpxtpx="http://www.garmin.com/xmlschemas/TrackPointExtension/v1">
            <gpxtpx:hr>137</gpxtpx:hr>
          </gpxtpx:TrackPointExtension>
        </extensions>
      </trkpt>
      <trkpt lat="46.49306" lon="0.33204">
        <ele>98.400001525879</ele>
        <time>2020-06-13T21:24:57.116Z</time>
        <extensions>
          <gpxtpx:TrackPointExtension xmlns:gpxtpx="http://www.garmin.com/xmlschemas/TrackPointExtension/v1">
            <gpxtpx:hr>137</gpxtpx:hr>
          </gpxtpx:TrackPointExtension>
        </extensions>
      </trkpt>
      <trkpt lat="46.49304" lon="0.33198">
        <ele>98</ele>
        <time>2020-06-13T21:24:57.540Z</time>
        <extensions>
          <gpxtpx:TrackPointExtension xmlns:gpxtpx="http://www.garmin.com/xmlschemas/TrackPointExtension/v1">
            <gpxtpx:hr>137</gpxtpx:hr>
          </gpxtpx:TrackPointExtension>
        </extensions>
      </trkpt>
      <trkpt lat="46.493" lon="0.33189">
        <ele>97.599998474121</ele>
        <time>2020-06-13T21:24:58.229Z</time>
        <extensions>
          <gpxtpx:TrackPointExtension xmlns:gpxtpx="http://www.garmin.com/xmlschemas/TrackPointExtension/v1">
            <gpxtpx:hr>137</gpxtpx:hr>
          </gpxtpx:TrackPointExtension>
        </extensions>
      </trkpt>
      <trkpt lat="46.49297" lon="0.33181">
        <ele>96.800003051758</ele>
        <time>2020-06-13T21:24:58.808Z</time>
        <extensions>
          <gpxtpx:TrackPointExtension xmlns:gpxtpx="http://www.garmin.com/xmlschemas/TrackPointExtension/v1">
            <gpxtpx:hr>137</gpxtpx:hr>
          </gpxtpx:TrackPointExtension>
        </extensions>
      </trkpt>
      <trkpt lat="46.49294" lon="0.33173">
        <ele>94.800003051758</ele>
        <time>2020-06-13T21:24:59.387Z</time>
        <extensions>
          <gpxtpx:TrackPointExtension xmlns:gpxtpx="http://www.garmin.com/xmlschemas/TrackPointExtension/v1">
            <gpxtpx:hr>137</gpxtpx:hr>
          </gpxtpx:TrackPointExtension>
        </extensions>
      </trkpt>
      <trkpt lat="46.49287" lon="0.33156">
        <ele>93.199996948242</ele>
        <time>2020-06-13T21:25:00.647Z</time>
        <extensions>
          <gpxtpx:TrackPointExtension xmlns:gpxtpx="http://www.garmin.com/xmlschemas/TrackPointExtension/v1">
            <gpxtpx:hr>136</gpxtpx:hr>
          </gpxtpx:TrackPointExtension>
        </extensions>
      </trkpt>
      <trkpt lat="46.49283" lon="0.33146">
        <ele>92.800003051758</ele>
        <time>2020-06-13T21:25:01.416Z</time>
        <extensions>
          <gpxtpx:TrackPointExtension xmlns:gpxtpx="http://www.garmin.com/xmlschemas/TrackPointExtension/v1">
            <gpxtpx:hr>136</gpxtpx:hr>
          </gpxtpx:TrackPointExtension>
        </extensions>
      </trkpt>
      <trkpt lat="46.4928" lon="0.3314">
        <ele>91.400001525879</ele>
        <time>2020-06-13T21:25:01.888Z</time>
        <extensions>
          <gpxtpx:TrackPointExtension xmlns:gpxtpx="http://www.garmin.com/xmlschemas/TrackPointExtension/v1">
            <gpxtpx:hr>136</gpxtpx:hr>
          </gpxtpx:TrackPointExtension>
        </extensions>
      </trkpt>
      <trkpt lat="46.49276" lon="0.33131">
        <ele>89.800003051758</ele>
        <time>2020-06-13T21:25:02.569Z</time>
        <extensions>
          <gpxtpx:TrackPointExtension xmlns:gpxtpx="http://www.garmin.com/xmlschemas/TrackPointExtension/v1">
            <gpxtpx:hr>136</gpxtpx:hr>
          </gpxtpx:TrackPointExtension>
        </extensions>
      </trkpt>
      <trkpt lat="46.49276" lon="0.33131">
        <ele>89</ele>
        <time>2020-06-13T21:25:02.569Z</time>
        <extensions>
          <gpxtpx:TrackPointExtension xmlns:gpxtpx="http://www.garmin.com/xmlschemas/TrackPointExtension/v1">
            <gpxtpx:hr>135</gpxtpx:hr>
          </gpxtpx:TrackPointExtension>
        </extensions>
      </trkpt>
      <trkpt lat="46.49269" lon="0.33113">
        <ele>87.400001525879</ele>
        <time>2020-06-13T21:25:03.883Z</time>
        <extensions>
          <gpxtpx:TrackPointExtension xmlns:gpxtpx="http://www.garmin.com/xmlschemas/TrackPointExtension/v1">
            <gpxtpx:hr>135</gpxtpx:hr>
          </gpxtpx:TrackPointExtension>
        </extensions>
      </trkpt>
      <trkpt lat="46.49265" lon="0.33106">
        <ele>87</ele>
        <time>2020-06-13T21:25:04.425Z</time>
        <extensions>
          <gpxtpx:TrackPointExtension xmlns:gpxtpx="http://www.garmin.com/xmlschemas/TrackPointExtension/v1">
            <gpxtpx:hr>133</gpxtpx:hr>
          </gpxtpx:TrackPointExtension>
        </extensions>
      </trkpt>
      <trkpt lat="46.49259" lon="0.33101">
        <ele>86.199996948242</ele>
        <time>2020-06-13T21:25:05.063Z</time>
        <extensions>
          <gpxtpx:TrackPointExtension xmlns:gpxtpx="http://www.garmin.com/xmlschemas/TrackPointExtension/v1">
            <gpxtpx:hr>133</gpxtpx:hr>
          </gpxtpx:TrackPointExtension>
        </extensions>
      </trkpt>
      <trkpt lat="46.49254" lon="0.331">
        <ele>86</ele>
        <time>2020-06-13T21:25:05.601Z</time>
        <extensions>
          <gpxtpx:TrackPointExtension xmlns:gpxtpx="http://www.garmin.com/xmlschemas/TrackPointExtension/v1">
            <gpxtpx:hr>129</gpxtpx:hr>
          </gpxtpx:TrackPointExtension>
        </extensions>
      </trkpt>
      <trkpt lat="46.49249" lon="0.33101">
        <ele>84.800003051758</ele>
        <time>2020-06-13T21:25:06.067Z</time>
        <extensions>
          <gpxtpx:TrackPointExtension xmlns:gpxtpx="http://www.garmin.com/xmlschemas/TrackPointExtension/v1">
            <gpxtpx:hr>129</gpxtpx:hr>
          </gpxtpx:TrackPointExtension>
        </extensions>
      </trkpt>
      <trkpt lat="46.49249" lon="0.33101">
        <ele>84</ele>
        <time>2020-06-13T21:25:06.067Z</time>
        <extensions>
          <gpxtpx:TrackPointExtension xmlns:gpxtpx="http://www.garmin.com/xmlschemas/TrackPointExtension/v1">
            <gpxtpx:hr>128</gpxtpx:hr>
          </gpxtpx:TrackPointExtension>
        </extensions>
      </trkpt>
      <trkpt lat="46.49239" lon="0.33104">
        <ele>83.800003051758</ele>
        <time>2020-06-13T21:25:07.410Z</time>
        <extensions>
          <gpxtpx:TrackPointExtension xmlns:gpxtpx="http://www.garmin.com/xmlschemas/TrackPointExtension/v1">
            <gpxtpx:hr>128</gpxtpx:hr>
          </gpxtpx:TrackPointExtension>
        </extensions>
      </trkpt>
      <trkpt lat="46.49239" lon="0.33104">
        <ele>83.400001525879</ele>
        <time>2020-06-13T21:25:07.410Z</time>
        <extensions>
          <gpxtpx:TrackPointExtension xmlns:gpxtpx="http://www.garmin.com/xmlschemas/TrackPointExtension/v1">
            <gpxtpx:hr>129</gpxtpx:hr>
          </gpxtpx:TrackPointExtension>
        </extensions>
      </trkpt>
      <trkpt lat="46.49228" lon="0.33106">
        <ele>83.199996948242</ele>
        <time>2020-06-13T21:25:08.895Z</time>
        <extensions>
          <gpxtpx:TrackPointExtension xmlns:gpxtpx="http://www.garmin.com/xmlschemas/TrackPointExtension/v1">
            <gpxtpx:hr>129</gpxtpx:hr>
          </gpxtpx:TrackPointExtension>
        </extensions>
      </trkpt>
      <trkpt lat="46.49223" lon="0.33108">
        <ele>82.800003051758</ele>
        <time>2020-06-13T21:25:09.374Z</time>
        <extensions>
          <gpxtpx:TrackPointExtension xmlns:gpxtpx="http://www.garmin.com/xmlschemas/TrackPointExtension/v1">
            <gpxtpx:hr>128</gpxtpx:hr>
          </gpxtpx:TrackPointExtension>
        </extensions>
      </trkpt>
      <trkpt lat="46.49217" lon="0.33109">
        <ele>82.599998474121</ele>
        <time>2020-06-13T21:25:10.059Z</time>
        <extensions>
          <gpxtpx:TrackPointExtension xmlns:gpxtpx="http://www.garmin.com/xmlschemas/TrackPointExtension/v1">
            <gpxtpx:hr>128</gpxtpx:hr>
          </gpxtpx:TrackPointExtension>
        </extensions>
      </trkpt>
      <trkpt lat="46.49211" lon="0.3311">
        <ele>82.599998474121</ele>
        <time>2020-06-13T21:25:11.222Z</time>
        <extensions>
          <gpxtpx:TrackPointExtension xmlns:gpxtpx="http://www.garmin.com/xmlschemas/TrackPointExtension/v1">
            <gpxtpx:hr>130</gpxtpx:hr>
          </gpxtpx:TrackPointExtension>
        </extensions>
      </trkpt>
      <trkpt lat="46.49206" lon="0.33112">
        <ele>82.400001525879</ele>
        <time>2020-06-13T21:25:11.779Z</time>
        <extensions>
          <gpxtpx:TrackPointExtension xmlns:gpxtpx="http://www.garmin.com/xmlschemas/TrackPointExtension/v1">
            <gpxtpx:hr>131</gpxtpx:hr>
          </gpxtpx:TrackPointExtension>
        </extensions>
      </trkpt>
      <trkpt lat="46.492" lon="0.33114">
        <ele>82.400001525879</ele>
        <time>2020-06-13T21:25:12.964Z</time>
        <extensions>
          <gpxtpx:TrackPointExtension xmlns:gpxtpx="http://www.garmin.com/xmlschemas/TrackPointExtension/v1">
            <gpxtpx:hr>132</gpxtpx:hr>
          </gpxtpx:TrackPointExtension>
        </extensions>
      </trkpt>
      <trkpt lat="46.492" lon="0.33114">
        <ele>82.400001525879</ele>
        <time>2020-06-13T21:25:12.964Z</time>
        <extensions>
          <gpxtpx:TrackPointExtension xmlns:gpxtpx="http://www.garmin.com/xmlschemas/TrackPointExtension/v1">
            <gpxtpx:hr>134</gpxtpx:hr>
          </gpxtpx:TrackPointExtension>
        </extensions>
      </trkpt>
      <trkpt lat="46.49189" lon="0.33118">
        <ele>82.199996948242</ele>
        <time>2020-06-13T21:25:14.491Z</time>
        <extensions>
          <gpxtpx:TrackPointExtension xmlns:gpxtpx="http://www.garmin.com/xmlschemas/TrackPointExtension/v1">
            <gpxtpx:hr>134</gpxtpx:hr>
          </gpxtpx:TrackPointExtension>
        </extensions>
      </trkpt>
      <trkpt lat="46.49172" lon="0.33125">
        <ele>82.199996948242</ele>
        <time>2020-06-13T21:25:17.891Z</time>
        <extensions>
          <gpxtpx:TrackPointExtension xmlns:gpxtpx="http://www.garmin.com/xmlschemas/TrackPointExtension/v1">
            <gpxtpx:hr>138</gpxtpx:hr>
          </gpxtpx:TrackPointExtension>
        </extensions>
      </trkpt>
      <trkpt lat="46.49151" lon="0.33135">
        <ele>82.599998474121</ele>
        <time>2020-06-13T21:25:22.989Z</time>
        <extensions>
          <gpxtpx:TrackPointExtension xmlns:gpxtpx="http://www.garmin.com/xmlschemas/TrackPointExtension/v1">
            <gpxtpx:hr>141</gpxtpx:hr>
          </gpxtpx:TrackPointExtension>
        </extensions>
      </trkpt>
      <trkpt lat="46.49146" lon="0.33138">
        <ele>82.599998474121</ele>
        <time>2020-06-13T21:25:24.030Z</time>
        <extensions>
          <gpxtpx:TrackPointExtension xmlns:gpxtpx="http://www.garmin.com/xmlschemas/TrackPointExtension/v1">
            <gpxtpx:hr>141</gpxtpx:hr>
          </gpxtpx:TrackPointExtension>
        </extensions>
      </trkpt>
      <trkpt lat="46.49142" lon="0.3314">
        <ele>82.599998474121</ele>
        <time>2020-06-13T21:25:24.844Z</time>
        <extensions>
          <gpxtpx:TrackPointExtension xmlns:gpxtpx="http://www.garmin.com/xmlschemas/TrackPointExtension/v1">
            <gpxtpx:hr>143</gpxtpx:hr>
          </gpxtpx:TrackPointExtension>
        </extensions>
      </trkpt>
      <trkpt lat="46.49137" lon="0.33142">
        <ele>82.800003051758</ele>
        <time>2020-06-13T21:25:26.387Z</time>
        <extensions>
          <gpxtpx:TrackPointExtension xmlns:gpxtpx="http://www.garmin.com/xmlschemas/TrackPointExtension/v1">
            <gpxtpx:hr>143</gpxtpx:hr>
          </gpxtpx:TrackPointExtension>
        </extensions>
      </trkpt>
      <trkpt lat="46.49132" lon="0.33144">
        <ele>82.800003051758</ele>
        <time>2020-06-13T21:25:27.385Z</time>
        <extensions>
          <gpxtpx:TrackPointExtension xmlns:gpxtpx="http://www.garmin.com/xmlschemas/TrackPointExtension/v1">
            <gpxtpx:hr>144</gpxtpx:hr>
          </gpxtpx:TrackPointExtension>
        </extensions>
      </trkpt>
      <trkpt lat="46.49127" lon="0.33146">
        <ele>83</ele>
        <time>2020-06-13T21:25:28.928Z</time>
        <extensions>
          <gpxtpx:TrackPointExtension xmlns:gpxtpx="http://www.garmin.com/xmlschemas/TrackPointExtension/v1">
            <gpxtpx:hr>144</gpxtpx:hr>
          </gpxtpx:TrackPointExtension>
        </extensions>
      </trkpt>
      <trkpt lat="46.49122" lon="0.33148">
        <ele>83.400001525879</ele>
        <time>2020-06-13T21:25:31.051Z</time>
        <extensions>
          <gpxtpx:TrackPointExtension xmlns:gpxtpx="http://www.garmin.com/xmlschemas/TrackPointExtension/v1">
            <gpxtpx:hr>146</gpxtpx:hr>
          </gpxtpx:TrackPointExtension>
        </extensions>
      </trkpt>
      <trkpt lat="46.49122" lon="0.33148">
        <ele>83.400001525879</ele>
        <time>2020-06-13T21:25:31.051Z</time>
        <extensions>
          <gpxtpx:TrackPointExtension xmlns:gpxtpx="http://www.garmin.com/xmlschemas/TrackPointExtension/v1">
            <gpxtpx:hr>147</gpxtpx:hr>
          </gpxtpx:TrackPointExtension>
        </extensions>
      </trkpt>
      <trkpt lat="46.49112" lon="0.33152">
        <ele>83.599998474121</ele>
        <time>2020-06-13T21:25:33.475Z</time>
        <extensions>
          <gpxtpx:TrackPointExtension xmlns:gpxtpx="http://www.garmin.com/xmlschemas/TrackPointExtension/v1">
            <gpxtpx:hr>147</gpxtpx:hr>
          </gpxtpx:TrackPointExtension>
        </extensions>
      </trkpt>
      <trkpt lat="46.49107" lon="0.33154">
        <ele>84</ele>
        <time>2020-06-13T21:25:35.597Z</time>
        <extensions>
          <gpxtpx:TrackPointExtension xmlns:gpxtpx="http://www.garmin.com/xmlschemas/TrackPointExtension/v1">
            <gpxtpx:hr>148</gpxtpx:hr>
          </gpxtpx:TrackPointExtension>
        </extensions>
      </trkpt>
      <trkpt lat="46.49102" lon="0.33155">
        <ele>84.199996948242</ele>
        <time>2020-06-13T21:25:37.122Z</time>
        <extensions>
          <gpxtpx:TrackPointExtension xmlns:gpxtpx="http://www.garmin.com/xmlschemas/TrackPointExtension/v1">
            <gpxtpx:hr>148</gpxtpx:hr>
          </gpxtpx:TrackPointExtension>
        </extensions>
      </trkpt>
      <trkpt lat="46.49097" lon="0.33157">
        <ele>84.400001525879</ele>
        <time>2020-06-13T21:25:38.665Z</time>
        <extensions>
          <gpxtpx:TrackPointExtension xmlns:gpxtpx="http://www.garmin.com/xmlschemas/TrackPointExtension/v1">
            <gpxtpx:hr>150</gpxtpx:hr>
          </gpxtpx:TrackPointExtension>
        </extensions>
      </trkpt>
      <trkpt lat="46.49092" lon="0.3316">
        <ele>84.400001525879</ele>
        <time>2020-06-13T21:25:39.706Z</time>
        <extensions>
          <gpxtpx:TrackPointExtension xmlns:gpxtpx="http://www.garmin.com/xmlschemas/TrackPointExtension/v1">
            <gpxtpx:hr>150</gpxtpx:hr>
          </gpxtpx:TrackPointExtension>
        </extensions>
      </trkpt>
      <trkpt lat="46.49087" lon="0.33161">
        <ele>84.400001525879</ele>
        <time>2020-06-13T21:25:40.677Z</time>
        <extensions>
          <gpxtpx:TrackPointExtension xmlns:gpxtpx="http://www.garmin.com/xmlschemas/TrackPointExtension/v1">
            <gpxtpx:hr>151</gpxtpx:hr>
          </gpxtpx:TrackPointExtension>
        </extensions>
      </trkpt>
      <trkpt lat="46.49082" lon="0.33163">
        <ele>84.400001525879</ele>
        <time>2020-06-13T21:25:41.675Z</time>
        <extensions>
          <gpxtpx:TrackPointExtension xmlns:gpxtpx="http://www.garmin.com/xmlschemas/TrackPointExtension/v1">
            <gpxtpx:hr>151</gpxtpx:hr>
          </gpxtpx:TrackPointExtension>
        </extensions>
      </trkpt>
      <trkpt lat="46.49077" lon="0.33163">
        <ele>84.400001525879</ele>
        <time>2020-06-13T21:25:42.637Z</time>
        <extensions>
          <gpxtpx:TrackPointExtension xmlns:gpxtpx="http://www.garmin.com/xmlschemas/TrackPointExtension/v1">
            <gpxtpx:hr>152</gpxtpx:hr>
          </gpxtpx:TrackPointExtension>
        </extensions>
      </trkpt>
      <trkpt lat="46.49077" lon="0.33163">
        <ele>84.400001525879</ele>
        <time>2020-06-13T21:25:42.637Z</time>
        <extensions>
          <gpxtpx:TrackPointExtension xmlns:gpxtpx="http://www.garmin.com/xmlschemas/TrackPointExtension/v1">
            <gpxtpx:hr>152</gpxtpx:hr>
          </gpxtpx:TrackPointExtension>
        </extensions>
      </trkpt>
      <trkpt lat="46.49068" lon="0.33158">
        <ele>84.400001525879</ele>
        <time>2020-06-13T21:25:44.492Z</time>
        <extensions>
          <gpxtpx:TrackPointExtension xmlns:gpxtpx="http://www.garmin.com/xmlschemas/TrackPointExtension/v1">
            <gpxtpx:hr>152</gpxtpx:hr>
          </gpxtpx:TrackPointExtension>
        </extensions>
      </trkpt>
      <trkpt lat="46.49066" lon="0.33153">
        <ele>84.599998474121</ele>
        <time>2020-06-13T21:25:45.833Z</time>
        <extensions>
          <gpxtpx:TrackPointExtension xmlns:gpxtpx="http://www.garmin.com/xmlschemas/TrackPointExtension/v1">
            <gpxtpx:hr>152</gpxtpx:hr>
          </gpxtpx:TrackPointExtension>
        </extensions>
      </trkpt>
      <trkpt lat="46.49066" lon="0.33153">
        <ele>84.599998474121</ele>
        <time>2020-06-13T21:25:45.833Z</time>
        <extensions>
          <gpxtpx:TrackPointExtension xmlns:gpxtpx="http://www.garmin.com/xmlschemas/TrackPointExtension/v1">
            <gpxtpx:hr>153</gpxtpx:hr>
          </gpxtpx:TrackPointExtension>
        </extensions>
      </trkpt>
      <trkpt lat="46.49067" lon="0.3314">
        <ele>84.599998474121</ele>
        <time>2020-06-13T21:25:47.566Z</time>
        <extensions>
          <gpxtpx:TrackPointExtension xmlns:gpxtpx="http://www.garmin.com/xmlschemas/TrackPointExtension/v1">
            <gpxtpx:hr>154</gpxtpx:hr>
          </gpxtpx:TrackPointExtension>
        </extensions>
      </trkpt>
      <trkpt lat="46.49067" lon="0.33133">
        <ele>84.800003051758</ele>
        <time>2020-06-13T21:25:49.063Z</time>
        <extensions>
          <gpxtpx:TrackPointExtension xmlns:gpxtpx="http://www.garmin.com/xmlschemas/TrackPointExtension/v1">
            <gpxtpx:hr>154</gpxtpx:hr>
          </gpxtpx:TrackPointExtension>
        </extensions>
      </trkpt>
      <trkpt lat="46.49067" lon="0.33126">
        <ele>84.800003051758</ele>
        <time>2020-06-13T21:25:49.990Z</time>
        <extensions>
          <gpxtpx:TrackPointExtension xmlns:gpxtpx="http://www.garmin.com/xmlschemas/TrackPointExtension/v1">
            <gpxtpx:hr>154</gpxtpx:hr>
          </gpxtpx:TrackPointExtension>
        </extensions>
      </trkpt>
      <trkpt lat="46.49067" lon="0.33119">
        <ele>85</ele>
        <time>2020-06-13T21:25:51.486Z</time>
        <extensions>
          <gpxtpx:TrackPointExtension xmlns:gpxtpx="http://www.garmin.com/xmlschemas/TrackPointExtension/v1">
            <gpxtpx:hr>156</gpxtpx:hr>
          </gpxtpx:TrackPointExtension>
        </extensions>
      </trkpt>
      <trkpt lat="46.49067" lon="0.33119">
        <ele>85</ele>
        <time>2020-06-13T21:25:51.486Z</time>
        <extensions>
          <gpxtpx:TrackPointExtension xmlns:gpxtpx="http://www.garmin.com/xmlschemas/TrackPointExtension/v1">
            <gpxtpx:hr>156</gpxtpx:hr>
          </gpxtpx:TrackPointExtension>
        </extensions>
      </trkpt>
      <trkpt lat="46.49067" lon="0.33104">
        <ele>85.400001525879</ele>
        <time>2020-06-13T21:25:54.566Z</time>
        <extensions>
          <gpxtpx:TrackPointExtension xmlns:gpxtpx="http://www.garmin.com/xmlschemas/TrackPointExtension/v1">
            <gpxtpx:hr>156</gpxtpx:hr>
          </gpxtpx:TrackPointExtension>
        </extensions>
      </trkpt>
      <trkpt lat="46.49067" lon="0.33096">
        <ele>85.599998474121</ele>
        <time>2020-06-13T21:25:56.154Z</time>
        <extensions>
          <gpxtpx:TrackPointExtension xmlns:gpxtpx="http://www.garmin.com/xmlschemas/TrackPointExtension/v1">
            <gpxtpx:hr>156</gpxtpx:hr>
          </gpxtpx:TrackPointExtension>
        </extensions>
      </trkpt>
      <trkpt lat="46.49067" lon="0.33089">
        <ele>85.599998474121</ele>
        <time>2020-06-13T21:25:57.082Z</time>
        <extensions>
          <gpxtpx:TrackPointExtension xmlns:gpxtpx="http://www.garmin.com/xmlschemas/TrackPointExtension/v1">
            <gpxtpx:hr>158</gpxtpx:hr>
          </gpxtpx:TrackPointExtension>
        </extensions>
      </trkpt>
      <trkpt lat="46.49066" lon="0.33081">
        <ele>85.800003051758</ele>
        <time>2020-06-13T21:25:58.683Z</time>
        <extensions>
          <gpxtpx:TrackPointExtension xmlns:gpxtpx="http://www.garmin.com/xmlschemas/TrackPointExtension/v1">
            <gpxtpx:hr>158</gpxtpx:hr>
          </gpxtpx:TrackPointExtension>
        </extensions>
      </trkpt>
      <trkpt lat="46.49066" lon="0.33081">
        <ele>85.800003051758</ele>
        <time>2020-06-13T21:25:58.683Z</time>
        <extensions>
          <gpxtpx:TrackPointExtension xmlns:gpxtpx="http://www.garmin.com/xmlschemas/TrackPointExtension/v1">
            <gpxtpx:hr>159</gpxtpx:hr>
          </gpxtpx:TrackPointExtension>
        </extensions>
      </trkpt>
      <trkpt lat="46.49065" lon="0.33065">
        <ele>85.800003051758</ele>
        <time>2020-06-13T21:26:00.812Z</time>
        <extensions>
          <gpxtpx:TrackPointExtension xmlns:gpxtpx="http://www.garmin.com/xmlschemas/TrackPointExtension/v1">
            <gpxtpx:hr>159</gpxtpx:hr>
          </gpxtpx:TrackPointExtension>
        </extensions>
      </trkpt>
      <trkpt lat="46.49065" lon="0.33057">
        <ele>85.800003051758</ele>
        <time>2020-06-13T21:26:01.872Z</time>
        <extensions>
          <gpxtpx:TrackPointExtension xmlns:gpxtpx="http://www.garmin.com/xmlschemas/TrackPointExtension/v1">
            <gpxtpx:hr>159</gpxtpx:hr>
          </gpxtpx:TrackPointExtension>
        </extensions>
      </trkpt>
      <trkpt lat="46.49065" lon="0.33049">
        <ele>85.800003051758</ele>
        <time>2020-06-13T21:26:02.931Z</time>
        <extensions>
          <gpxtpx:TrackPointExtension xmlns:gpxtpx="http://www.garmin.com/xmlschemas/TrackPointExtension/v1">
            <gpxtpx:hr>159</gpxtpx:hr>
          </gpxtpx:TrackPointExtension>
        </extensions>
      </trkpt>
      <trkpt lat="46.49064" lon="0.33026">
        <ele>85.800003051758</ele>
        <time>2020-06-13T21:26:05.985Z</time>
        <extensions>
          <gpxtpx:TrackPointExtension xmlns:gpxtpx="http://www.garmin.com/xmlschemas/TrackPointExtension/v1">
            <gpxtpx:hr>160</gpxtpx:hr>
          </gpxtpx:TrackPointExtension>
        </extensions>
      </trkpt>
      <trkpt lat="46.49063" lon="0.33011">
        <ele>85.400001525879</ele>
        <time>2020-06-13T21:26:07.100Z</time>
        <extensions>
          <gpxtpx:TrackPointExtension xmlns:gpxtpx="http://www.garmin.com/xmlschemas/TrackPointExtension/v1">
            <gpxtpx:hr>160</gpxtpx:hr>
          </gpxtpx:TrackPointExtension>
        </extensions>
      </trkpt>
      <trkpt lat="46.49061" lon="0.3298">
        <ele>85.199996948242</ele>
        <time>2020-06-13T21:26:10.308Z</time>
        <extensions>
          <gpxtpx:TrackPointExtension xmlns:gpxtpx="http://www.garmin.com/xmlschemas/TrackPointExtension/v1">
            <gpxtpx:hr>160</gpxtpx:hr>
          </gpxtpx:TrackPointExtension>
        </extensions>
      </trkpt>
      <trkpt lat="46.49059" lon="0.32974">
        <ele>85.400001525879</ele>
        <time>2020-06-13T21:26:11.778Z</time>
        <extensions>
          <gpxtpx:TrackPointExtension xmlns:gpxtpx="http://www.garmin.com/xmlschemas/TrackPointExtension/v1">
            <gpxtpx:hr>160</gpxtpx:hr>
          </gpxtpx:TrackPointExtension>
        </extensions>
      </trkpt>
      <trkpt lat="46.49056" lon="0.32971">
        <ele>85.400001525879</ele>
        <time>2020-06-13T21:26:12.479Z</time>
        <extensions>
          <gpxtpx:TrackPointExtension xmlns:gpxtpx="http://www.garmin.com/xmlschemas/TrackPointExtension/v1">
            <gpxtpx:hr>160</gpxtpx:hr>
          </gpxtpx:TrackPointExtension>
        </extensions>
      </trkpt>
      <trkpt lat="46.49052" lon="0.3297">
        <ele>85.599998474121</ele>
        <time>2020-06-13T21:26:13.838Z</time>
        <extensions>
          <gpxtpx:TrackPointExtension xmlns:gpxtpx="http://www.garmin.com/xmlschemas/TrackPointExtension/v1">
            <gpxtpx:hr>160</gpxtpx:hr>
          </gpxtpx:TrackPointExtension>
        </extensions>
      </trkpt>
      <trkpt lat="46.49047" lon="0.3297">
        <ele>85.599998474121</ele>
        <time>2020-06-13T21:26:14.800Z</time>
        <extensions>
          <gpxtpx:TrackPointExtension xmlns:gpxtpx="http://www.garmin.com/xmlschemas/TrackPointExtension/v1">
            <gpxtpx:hr>160</gpxtpx:hr>
          </gpxtpx:TrackPointExtension>
        </extensions>
      </trkpt>
      <trkpt lat="46.49042" lon="0.3297">
        <ele>85.800003051758</ele>
        <time>2020-06-13T21:26:16.319Z</time>
        <extensions>
          <gpxtpx:TrackPointExtension xmlns:gpxtpx="http://www.garmin.com/xmlschemas/TrackPointExtension/v1">
            <gpxtpx:hr>160</gpxtpx:hr>
          </gpxtpx:TrackPointExtension>
        </extensions>
      </trkpt>
      <trkpt lat="46.4903" lon="0.3297">
        <ele>86.199996948242</ele>
        <time>2020-06-13T21:26:19.643Z</time>
        <extensions>
          <gpxtpx:TrackPointExtension xmlns:gpxtpx="http://www.garmin.com/xmlschemas/TrackPointExtension/v1">
            <gpxtpx:hr>159</gpxtpx:hr>
          </gpxtpx:TrackPointExtension>
        </extensions>
      </trkpt>
      <trkpt lat="46.49019" lon="0.32969">
        <ele>86.400001525879</ele>
        <time>2020-06-13T21:26:22.187Z</time>
        <extensions>
          <gpxtpx:TrackPointExtension xmlns:gpxtpx="http://www.garmin.com/xmlschemas/TrackPointExtension/v1">
            <gpxtpx:hr>158</gpxtpx:hr>
          </gpxtpx:TrackPointExtension>
        </extensions>
      </trkpt>
      <trkpt lat="46.49014" lon="0.32968">
        <ele>86.400001525879</ele>
        <time>2020-06-13T21:26:23.158Z</time>
        <extensions>
          <gpxtpx:TrackPointExtension xmlns:gpxtpx="http://www.garmin.com/xmlschemas/TrackPointExtension/v1">
            <gpxtpx:hr>158</gpxtpx:hr>
          </gpxtpx:TrackPointExtension>
        </extensions>
      </trkpt>
      <trkpt lat="46.49008" lon="0.32968">
        <ele>86.400001525879</ele>
        <time>2020-06-13T21:26:24.313Z</time>
        <extensions>
          <gpxtpx:TrackPointExtension xmlns:gpxtpx="http://www.garmin.com/xmlschemas/TrackPointExtension/v1">
            <gpxtpx:hr>158</gpxtpx:hr>
          </gpxtpx:TrackPointExtension>
        </extensions>
      </trkpt>
      <trkpt lat="46.49002" lon="0.32967">
        <ele>86.400001525879</ele>
        <time>2020-06-13T21:26:25.475Z</time>
        <extensions>
          <gpxtpx:TrackPointExtension xmlns:gpxtpx="http://www.garmin.com/xmlschemas/TrackPointExtension/v1">
            <gpxtpx:hr>158</gpxtpx:hr>
          </gpxtpx:TrackPointExtension>
        </extensions>
      </trkpt>
      <trkpt lat="46.48987" lon="0.32966">
        <ele>86</ele>
        <time>2020-06-13T21:26:27.299Z</time>
        <extensions>
          <gpxtpx:TrackPointExtension xmlns:gpxtpx="http://www.garmin.com/xmlschemas/TrackPointExtension/v1">
            <gpxtpx:hr>158</gpxtpx:hr>
          </gpxtpx:TrackPointExtension>
        </extensions>
      </trkpt>
      <trkpt lat="46.48983" lon="0.32964">
        <ele>85.800003051758</ele>
        <time>2020-06-13T21:26:27.718Z</time>
        <extensions>
          <gpxtpx:TrackPointExtension xmlns:gpxtpx="http://www.garmin.com/xmlschemas/TrackPointExtension/v1">
            <gpxtpx:hr>157</gpxtpx:hr>
          </gpxtpx:TrackPointExtension>
        </extensions>
      </trkpt>
      <trkpt lat="46.4898" lon="0.32961">
        <ele>85.599998474121</ele>
        <time>2020-06-13T21:26:28.056Z</time>
        <extensions>
          <gpxtpx:TrackPointExtension xmlns:gpxtpx="http://www.garmin.com/xmlschemas/TrackPointExtension/v1">
            <gpxtpx:hr>157</gpxtpx:hr>
          </gpxtpx:TrackPointExtension>
        </extensions>
      </trkpt>
      <trkpt lat="46.48979" lon="0.32957">
        <ele>85.599998474121</ele>
        <time>2020-06-13T21:26:28.620Z</time>
        <extensions>
          <gpxtpx:TrackPointExtension xmlns:gpxtpx="http://www.garmin.com/xmlschemas/TrackPointExtension/v1">
            <gpxtpx:hr>156</gpxtpx:hr>
          </gpxtpx:TrackPointExtension>
        </extensions>
      </trkpt>
      <trkpt lat="46.48978" lon="0.32951">
        <ele>85.400001525879</ele>
        <time>2020-06-13T21:26:29.043Z</time>
        <extensions>
          <gpxtpx:TrackPointExtension xmlns:gpxtpx="http://www.garmin.com/xmlschemas/TrackPointExtension/v1">
            <gpxtpx:hr>156</gpxtpx:hr>
          </gpxtpx:TrackPointExtension>
        </extensions>
      </trkpt>
      <trkpt lat="46.48979" lon="0.32944">
        <ele>85.400001525879</ele>
        <time>2020-06-13T21:26:29.990Z</time>
        <extensions>
          <gpxtpx:TrackPointExtension xmlns:gpxtpx="http://www.garmin.com/xmlschemas/TrackPointExtension/v1">
            <gpxtpx:hr>156</gpxtpx:hr>
          </gpxtpx:TrackPointExtension>
        </extensions>
      </trkpt>
      <trkpt lat="46.4898" lon="0.32931">
        <ele>85.199996948242</ele>
        <time>2020-06-13T21:26:31.139Z</time>
        <extensions>
          <gpxtpx:TrackPointExtension xmlns:gpxtpx="http://www.garmin.com/xmlschemas/TrackPointExtension/v1">
            <gpxtpx:hr>155</gpxtpx:hr>
          </gpxtpx:TrackPointExtension>
        </extensions>
      </trkpt>
      <trkpt lat="46.48981" lon="0.32924">
        <ele>85.199996948242</ele>
        <time>2020-06-13T21:26:32.086Z</time>
        <extensions>
          <gpxtpx:TrackPointExtension xmlns:gpxtpx="http://www.garmin.com/xmlschemas/TrackPointExtension/v1">
            <gpxtpx:hr>154</gpxtpx:hr>
          </gpxtpx:TrackPointExtension>
        </extensions>
      </trkpt>
      <trkpt lat="46.4898" lon="0.32907">
        <ele>84.800003051758</ele>
        <time>2020-06-13T21:26:33.406Z</time>
        <extensions>
          <gpxtpx:TrackPointExtension xmlns:gpxtpx="http://www.garmin.com/xmlschemas/TrackPointExtension/v1">
            <gpxtpx:hr>153</gpxtpx:hr>
          </gpxtpx:TrackPointExtension>
        </extensions>
      </trkpt>
      <trkpt lat="46.4898" lon="0.32907">
        <ele>84.599998474121</ele>
        <time>2020-06-13T21:26:33.406Z</time>
        <extensions>
          <gpxtpx:TrackPointExtension xmlns:gpxtpx="http://www.garmin.com/xmlschemas/TrackPointExtension/v1">
            <gpxtpx:hr>153</gpxtpx:hr>
          </gpxtpx:TrackPointExtension>
        </extensions>
      </trkpt>
      <trkpt lat="46.48976" lon="0.3288">
        <ele>84</ele>
        <time>2020-06-13T21:26:35.599Z</time>
        <extensions>
          <gpxtpx:TrackPointExtension xmlns:gpxtpx="http://www.garmin.com/xmlschemas/TrackPointExtension/v1">
            <gpxtpx:hr>152</gpxtpx:hr>
          </gpxtpx:TrackPointExtension>
        </extensions>
      </trkpt>
      <trkpt lat="46.48972" lon="0.32852">
        <ele>83.400001525879</ele>
        <time>2020-06-13T21:26:37.894Z</time>
        <extensions>
          <gpxtpx:TrackPointExtension xmlns:gpxtpx="http://www.garmin.com/xmlschemas/TrackPointExtension/v1">
            <gpxtpx:hr>152</gpxtpx:hr>
          </gpxtpx:TrackPointExtension>
        </extensions>
      </trkpt>
      <trkpt lat="46.48972" lon="0.32852">
        <ele>83.199996948242</ele>
        <time>2020-06-13T21:26:37.894Z</time>
        <extensions>
          <gpxtpx:TrackPointExtension xmlns:gpxtpx="http://www.garmin.com/xmlschemas/TrackPointExtension/v1">
            <gpxtpx:hr>152</gpxtpx:hr>
          </gpxtpx:TrackPointExtension>
        </extensions>
      </trkpt>
      <trkpt lat="46.48968" lon="0.32835">
        <ele>82.800003051758</ele>
        <time>2020-06-13T21:26:39.309Z</time>
        <extensions>
          <gpxtpx:TrackPointExtension xmlns:gpxtpx="http://www.garmin.com/xmlschemas/TrackPointExtension/v1">
            <gpxtpx:hr>153</gpxtpx:hr>
          </gpxtpx:TrackPointExtension>
        </extensions>
      </trkpt>
      <trkpt lat="46.48967" lon="0.32826">
        <ele>82.599998474121</ele>
        <time>2020-06-13T21:26:40.030Z</time>
        <extensions>
          <gpxtpx:TrackPointExtension xmlns:gpxtpx="http://www.garmin.com/xmlschemas/TrackPointExtension/v1">
            <gpxtpx:hr>153</gpxtpx:hr>
          </gpxtpx:TrackPointExtension>
        </extensions>
      </trkpt>
      <trkpt lat="46.48966" lon="0.32818">
        <ele>82.400001525879</ele>
        <time>2020-06-13T21:26:40.649Z</time>
        <extensions>
          <gpxtpx:TrackPointExtension xmlns:gpxtpx="http://www.garmin.com/xmlschemas/TrackPointExtension/v1">
            <gpxtpx:hr>152</gpxtpx:hr>
          </gpxtpx:TrackPointExtension>
        </extensions>
      </trkpt>
      <trkpt lat="46.48964" lon="0.32809">
        <ele>82.400001525879</ele>
        <time>2020-06-13T21:26:41.902Z</time>
        <extensions>
          <gpxtpx:TrackPointExtension xmlns:gpxtpx="http://www.garmin.com/xmlschemas/TrackPointExtension/v1">
            <gpxtpx:hr>152</gpxtpx:hr>
          </gpxtpx:TrackPointExtension>
        </extensions>
      </trkpt>
      <trkpt lat="46.48963" lon="0.328">
        <ele>82.199996948242</ele>
        <time>2020-06-13T21:26:42.623Z</time>
        <extensions>
          <gpxtpx:TrackPointExtension xmlns:gpxtpx="http://www.garmin.com/xmlschemas/TrackPointExtension/v1">
            <gpxtpx:hr>152</gpxtpx:hr>
          </gpxtpx:TrackPointExtension>
        </extensions>
      </trkpt>
      <trkpt lat="46.48962" lon="0.32792">
        <ele>82.199996948242</ele>
        <time>2020-06-13T21:26:43.700Z</time>
        <extensions>
          <gpxtpx:TrackPointExtension xmlns:gpxtpx="http://www.garmin.com/xmlschemas/TrackPointExtension/v1">
            <gpxtpx:hr>152</gpxtpx:hr>
          </gpxtpx:TrackPointExtension>
        </extensions>
      </trkpt>
      <trkpt lat="46.4896" lon="0.32783">
        <ele>82</ele>
        <time>2020-06-13T21:26:44.457Z</time>
        <extensions>
          <gpxtpx:TrackPointExtension xmlns:gpxtpx="http://www.garmin.com/xmlschemas/TrackPointExtension/v1">
            <gpxtpx:hr>152</gpxtpx:hr>
          </gpxtpx:TrackPointExtension>
        </extensions>
      </trkpt>
      <trkpt lat="46.48958" lon="0.32775">
        <ele>82</ele>
        <time>2020-06-13T21:26:45.585Z</time>
        <extensions>
          <gpxtpx:TrackPointExtension xmlns:gpxtpx="http://www.garmin.com/xmlschemas/TrackPointExtension/v1">
            <gpxtpx:hr>152</gpxtpx:hr>
          </gpxtpx:TrackPointExtension>
        </extensions>
      </trkpt>
      <trkpt lat="46.48957" lon="0.32766">
        <ele>81.800003051758</ele>
        <time>2020-06-13T21:26:46.306Z</time>
        <extensions>
          <gpxtpx:TrackPointExtension xmlns:gpxtpx="http://www.garmin.com/xmlschemas/TrackPointExtension/v1">
            <gpxtpx:hr>152</gpxtpx:hr>
          </gpxtpx:TrackPointExtension>
        </extensions>
      </trkpt>
      <trkpt lat="46.48955" lon="0.32757">
        <ele>81.599998474121</ele>
        <time>2020-06-13T21:26:47.063Z</time>
        <extensions>
          <gpxtpx:TrackPointExtension xmlns:gpxtpx="http://www.garmin.com/xmlschemas/TrackPointExtension/v1">
            <gpxtpx:hr>152</gpxtpx:hr>
          </gpxtpx:TrackPointExtension>
        </extensions>
      </trkpt>
      <trkpt lat="46.48953" lon="0.32747">
        <ele>81.400001525879</ele>
        <time>2020-06-13T21:26:47.922Z</time>
        <extensions>
          <gpxtpx:TrackPointExtension xmlns:gpxtpx="http://www.garmin.com/xmlschemas/TrackPointExtension/v1">
            <gpxtpx:hr>153</gpxtpx:hr>
          </gpxtpx:TrackPointExtension>
        </extensions>
      </trkpt>
      <trkpt lat="46.48948" lon="0.3271">
        <ele>81</ele>
        <time>2020-06-13T21:26:51.514Z</time>
        <extensions>
          <gpxtpx:TrackPointExtension xmlns:gpxtpx="http://www.garmin.com/xmlschemas/TrackPointExtension/v1">
            <gpxtpx:hr>153</gpxtpx:hr>
          </gpxtpx:TrackPointExtension>
        </extensions>
      </trkpt>
      <trkpt lat="46.48948" lon="0.32701">
        <ele>80.800003051758</ele>
        <time>2020-06-13T21:26:52.223Z</time>
        <extensions>
          <gpxtpx:TrackPointExtension xmlns:gpxtpx="http://www.garmin.com/xmlschemas/TrackPointExtension/v1">
            <gpxtpx:hr>153</gpxtpx:hr>
          </gpxtpx:TrackPointExtension>
        </extensions>
      </trkpt>
      <trkpt lat="46.48948" lon="0.32683">
        <ele>80.599998474121</ele>
        <time>2020-06-13T21:26:53.923Z</time>
        <extensions>
          <gpxtpx:TrackPointExtension xmlns:gpxtpx="http://www.garmin.com/xmlschemas/TrackPointExtension/v1">
            <gpxtpx:hr>153</gpxtpx:hr>
          </gpxtpx:TrackPointExtension>
        </extensions>
      </trkpt>
      <trkpt lat="46.4895" lon="0.32674">
        <ele>80.599998474121</ele>
        <time>2020-06-13T21:26:55.176Z</time>
        <extensions>
          <gpxtpx:TrackPointExtension xmlns:gpxtpx="http://www.garmin.com/xmlschemas/TrackPointExtension/v1">
            <gpxtpx:hr>153</gpxtpx:hr>
          </gpxtpx:TrackPointExtension>
        </extensions>
      </trkpt>
      <trkpt lat="46.48952" lon="0.32664">
        <ele>80.599998474121</ele>
        <time>2020-06-13T21:26:56.555Z</time>
        <extensions>
          <gpxtpx:TrackPointExtension xmlns:gpxtpx="http://www.garmin.com/xmlschemas/TrackPointExtension/v1">
            <gpxtpx:hr>153</gpxtpx:hr>
          </gpxtpx:TrackPointExtension>
        </extensions>
      </trkpt>
      <trkpt lat="46.48954" lon="0.32656">
        <ele>80.599998474121</ele>
        <time>2020-06-13T21:26:57.683Z</time>
        <extensions>
          <gpxtpx:TrackPointExtension xmlns:gpxtpx="http://www.garmin.com/xmlschemas/TrackPointExtension/v1">
            <gpxtpx:hr>153</gpxtpx:hr>
          </gpxtpx:TrackPointExtension>
        </extensions>
      </trkpt>
      <trkpt lat="46.48956" lon="0.32647">
        <ele>80.599998474121</ele>
        <time>2020-06-13T21:26:58.936Z</time>
        <extensions>
          <gpxtpx:TrackPointExtension xmlns:gpxtpx="http://www.garmin.com/xmlschemas/TrackPointExtension/v1">
            <gpxtpx:hr>153</gpxtpx:hr>
          </gpxtpx:TrackPointExtension>
        </extensions>
      </trkpt>
      <trkpt lat="46.48956" lon="0.32647">
        <ele>80.599998474121</ele>
        <time>2020-06-13T21:26:58.936Z</time>
        <extensions>
          <gpxtpx:TrackPointExtension xmlns:gpxtpx="http://www.garmin.com/xmlschemas/TrackPointExtension/v1">
            <gpxtpx:hr>153</gpxtpx:hr>
          </gpxtpx:TrackPointExtension>
        </extensions>
      </trkpt>
      <trkpt lat="46.48966" lon="0.32623">
        <ele>80.599998474121</ele>
        <time>2020-06-13T21:27:02.653Z</time>
        <extensions>
          <gpxtpx:TrackPointExtension xmlns:gpxtpx="http://www.garmin.com/xmlschemas/TrackPointExtension/v1">
            <gpxtpx:hr>153</gpxtpx:hr>
          </gpxtpx:TrackPointExtension>
        </extensions>
      </trkpt>
      <trkpt lat="46.4897" lon="0.32615">
        <ele>80.800003051758</ele>
        <time>2020-06-13T21:27:04.445Z</time>
        <extensions>
          <gpxtpx:TrackPointExtension xmlns:gpxtpx="http://www.garmin.com/xmlschemas/TrackPointExtension/v1">
            <gpxtpx:hr>153</gpxtpx:hr>
          </gpxtpx:TrackPointExtension>
        </extensions>
      </trkpt>
      <trkpt lat="46.48973" lon="0.32607">
        <ele>80.800003051758</ele>
        <time>2020-06-13T21:27:05.652Z</time>
        <extensions>
          <gpxtpx:TrackPointExtension xmlns:gpxtpx="http://www.garmin.com/xmlschemas/TrackPointExtension/v1">
            <gpxtpx:hr>153</gpxtpx:hr>
          </gpxtpx:TrackPointExtension>
        </extensions>
      </trkpt>
      <trkpt lat="46.48988" lon="0.32555">
        <ele>81.400001525879</ele>
        <time>2020-06-13T21:27:14.354Z</time>
        <extensions>
          <gpxtpx:TrackPointExtension xmlns:gpxtpx="http://www.garmin.com/xmlschemas/TrackPointExtension/v1">
            <gpxtpx:hr>154</gpxtpx:hr>
          </gpxtpx:TrackPointExtension>
        </extensions>
      </trkpt>
      <trkpt lat="46.48999" lon="0.32491">
        <ele>81.400001525879</ele>
        <time>2020-06-13T21:27:23.093Z</time>
        <extensions>
          <gpxtpx:TrackPointExtension xmlns:gpxtpx="http://www.garmin.com/xmlschemas/TrackPointExtension/v1">
            <gpxtpx:hr>152</gpxtpx:hr>
          </gpxtpx:TrackPointExtension>
        </extensions>
      </trkpt>
      <trkpt lat="46.49001" lon="0.32482">
        <ele>81.199996948242</ele>
        <time>2020-06-13T21:27:23.851Z</time>
        <extensions>
          <gpxtpx:TrackPointExtension xmlns:gpxtpx="http://www.garmin.com/xmlschemas/TrackPointExtension/v1">
            <gpxtpx:hr>152</gpxtpx:hr>
          </gpxtpx:TrackPointExtension>
        </extensions>
      </trkpt>
      <trkpt lat="46.49002" lon="0.32473">
        <ele>81</ele>
        <time>2020-06-13T21:27:24.572Z</time>
        <extensions>
          <gpxtpx:TrackPointExtension xmlns:gpxtpx="http://www.garmin.com/xmlschemas/TrackPointExtension/v1">
            <gpxtpx:hr>152</gpxtpx:hr>
          </gpxtpx:TrackPointExtension>
        </extensions>
      </trkpt>
      <trkpt lat="46.49002" lon="0.32473">
        <ele>81</ele>
        <time>2020-06-13T21:27:24.572Z</time>
        <extensions>
          <gpxtpx:TrackPointExtension xmlns:gpxtpx="http://www.garmin.com/xmlschemas/TrackPointExtension/v1">
            <gpxtpx:hr>152</gpxtpx:hr>
          </gpxtpx:TrackPointExtension>
        </extensions>
      </trkpt>
      <trkpt lat="46.49005" lon="0.32456">
        <ele>80.800003051758</ele>
        <time>2020-06-13T21:27:26.220Z</time>
        <extensions>
          <gpxtpx:TrackPointExtension xmlns:gpxtpx="http://www.garmin.com/xmlschemas/TrackPointExtension/v1">
            <gpxtpx:hr>152</gpxtpx:hr>
          </gpxtpx:TrackPointExtension>
        </extensions>
      </trkpt>
      <trkpt lat="46.49007" lon="0.32447">
        <ele>80.800003051758</ele>
        <time>2020-06-13T21:27:27.473Z</time>
        <extensions>
          <gpxtpx:TrackPointExtension xmlns:gpxtpx="http://www.garmin.com/xmlschemas/TrackPointExtension/v1">
            <gpxtpx:hr>152</gpxtpx:hr>
          </gpxtpx:TrackPointExtension>
        </extensions>
      </trkpt>
      <trkpt lat="46.49008" lon="0.32438">
        <ele>80.800003051758</ele>
        <time>2020-06-13T21:27:28.681Z</time>
        <extensions>
          <gpxtpx:TrackPointExtension xmlns:gpxtpx="http://www.garmin.com/xmlschemas/TrackPointExtension/v1">
            <gpxtpx:hr>152</gpxtpx:hr>
          </gpxtpx:TrackPointExtension>
        </extensions>
      </trkpt>
      <trkpt lat="46.4901" lon="0.32429">
        <ele>80.800003051758</ele>
        <time>2020-06-13T21:27:29.934Z</time>
        <extensions>
          <gpxtpx:TrackPointExtension xmlns:gpxtpx="http://www.garmin.com/xmlschemas/TrackPointExtension/v1">
            <gpxtpx:hr>152</gpxtpx:hr>
          </gpxtpx:TrackPointExtension>
        </extensions>
      </trkpt>
      <trkpt lat="46.49011" lon="0.32421">
        <ele>80.800003051758</ele>
        <time>2020-06-13T21:27:31.011Z</time>
        <extensions>
          <gpxtpx:TrackPointExtension xmlns:gpxtpx="http://www.garmin.com/xmlschemas/TrackPointExtension/v1">
            <gpxtpx:hr>152</gpxtpx:hr>
          </gpxtpx:TrackPointExtension>
        </extensions>
      </trkpt>
      <trkpt lat="46.49013" lon="0.32412">
        <ele>81</ele>
        <time>2020-06-13T21:27:32.755Z</time>
        <extensions>
          <gpxtpx:TrackPointExtension xmlns:gpxtpx="http://www.garmin.com/xmlschemas/TrackPointExtension/v1">
            <gpxtpx:hr>152</gpxtpx:hr>
          </gpxtpx:TrackPointExtension>
        </extensions>
      </trkpt>
      <trkpt lat="46.49014" lon="0.32403">
        <ele>81</ele>
        <time>2020-06-13T21:27:33.963Z</time>
        <extensions>
          <gpxtpx:TrackPointExtension xmlns:gpxtpx="http://www.garmin.com/xmlschemas/TrackPointExtension/v1">
            <gpxtpx:hr>152</gpxtpx:hr>
          </gpxtpx:TrackPointExtension>
        </extensions>
      </trkpt>
      <trkpt lat="46.49016" lon="0.32394">
        <ele>80.800003051758</ele>
        <time>2020-06-13T21:27:34.720Z</time>
        <extensions>
          <gpxtpx:TrackPointExtension xmlns:gpxtpx="http://www.garmin.com/xmlschemas/TrackPointExtension/v1">
            <gpxtpx:hr>152</gpxtpx:hr>
          </gpxtpx:TrackPointExtension>
        </extensions>
      </trkpt>
      <trkpt lat="46.49017" lon="0.32385">
        <ele>81</ele>
        <time>2020-06-13T21:27:36.426Z</time>
        <extensions>
          <gpxtpx:TrackPointExtension xmlns:gpxtpx="http://www.garmin.com/xmlschemas/TrackPointExtension/v1">
            <gpxtpx:hr>152</gpxtpx:hr>
          </gpxtpx:TrackPointExtension>
        </extensions>
      </trkpt>
      <trkpt lat="46.49018" lon="0.32376">
        <ele>81.199996948242</ele>
        <time>2020-06-13T21:27:38.131Z</time>
        <extensions>
          <gpxtpx:TrackPointExtension xmlns:gpxtpx="http://www.garmin.com/xmlschemas/TrackPointExtension/v1">
            <gpxtpx:hr>152</gpxtpx:hr>
          </gpxtpx:TrackPointExtension>
        </extensions>
      </trkpt>
      <trkpt lat="46.49018" lon="0.32367">
        <ele>81.199996948242</ele>
        <time>2020-06-13T21:27:39.324Z</time>
        <extensions>
          <gpxtpx:TrackPointExtension xmlns:gpxtpx="http://www.garmin.com/xmlschemas/TrackPointExtension/v1">
            <gpxtpx:hr>152</gpxtpx:hr>
          </gpxtpx:TrackPointExtension>
        </extensions>
      </trkpt>
      <trkpt lat="46.49016" lon="0.3236">
        <ele>81.400001525879</ele>
        <time>2020-06-13T21:27:40.871Z</time>
        <extensions>
          <gpxtpx:TrackPointExtension xmlns:gpxtpx="http://www.garmin.com/xmlschemas/TrackPointExtension/v1">
            <gpxtpx:hr>152</gpxtpx:hr>
          </gpxtpx:TrackPointExtension>
        </extensions>
      </trkpt>
      <trkpt lat="46.49012" lon="0.32353">
        <ele>81.599998474121</ele>
        <time>2020-06-13T21:27:42.575Z</time>
        <extensions>
          <gpxtpx:TrackPointExtension xmlns:gpxtpx="http://www.garmin.com/xmlschemas/TrackPointExtension/v1">
            <gpxtpx:hr>152</gpxtpx:hr>
          </gpxtpx:TrackPointExtension>
        </extensions>
      </trkpt>
      <trkpt lat="46.49007" lon="0.32348">
        <ele>81.599998474121</ele>
        <time>2020-06-13T21:27:43.743Z</time>
        <extensions>
          <gpxtpx:TrackPointExtension xmlns:gpxtpx="http://www.garmin.com/xmlschemas/TrackPointExtension/v1">
            <gpxtpx:hr>153</gpxtpx:hr>
          </gpxtpx:TrackPointExtension>
        </extensions>
      </trkpt>
      <trkpt lat="46.49001" lon="0.32345">
        <ele>81.800003051758</ele>
        <time>2020-06-13T21:27:45.460Z</time>
        <extensions>
          <gpxtpx:TrackPointExtension xmlns:gpxtpx="http://www.garmin.com/xmlschemas/TrackPointExtension/v1">
            <gpxtpx:hr>153</gpxtpx:hr>
          </gpxtpx:TrackPointExtension>
        </extensions>
      </trkpt>
      <trkpt lat="46.48995" lon="0.32342">
        <ele>81.800003051758</ele>
        <time>2020-06-13T21:27:46.681Z</time>
        <extensions>
          <gpxtpx:TrackPointExtension xmlns:gpxtpx="http://www.garmin.com/xmlschemas/TrackPointExtension/v1">
            <gpxtpx:hr>153</gpxtpx:hr>
          </gpxtpx:TrackPointExtension>
        </extensions>
      </trkpt>
      <trkpt lat="46.48983" lon="0.32338">
        <ele>81.800003051758</ele>
        <time>2020-06-13T21:27:49.050Z</time>
        <extensions>
          <gpxtpx:TrackPointExtension xmlns:gpxtpx="http://www.garmin.com/xmlschemas/TrackPointExtension/v1">
            <gpxtpx:hr>151</gpxtpx:hr>
          </gpxtpx:TrackPointExtension>
        </extensions>
      </trkpt>
      <trkpt lat="46.48977" lon="0.32335">
        <ele>81.800003051758</ele>
        <time>2020-06-13T21:27:50.271Z</time>
        <extensions>
          <gpxtpx:TrackPointExtension xmlns:gpxtpx="http://www.garmin.com/xmlschemas/TrackPointExtension/v1">
            <gpxtpx:hr>151</gpxtpx:hr>
          </gpxtpx:TrackPointExtension>
        </extensions>
      </trkpt>
      <trkpt lat="46.48977" lon="0.32335">
        <ele>82</ele>
        <time>2020-06-13T21:27:50.271Z</time>
        <extensions>
          <gpxtpx:TrackPointExtension xmlns:gpxtpx="http://www.garmin.com/xmlschemas/TrackPointExtension/v1">
            <gpxtpx:hr>151</gpxtpx:hr>
          </gpxtpx:TrackPointExtension>
        </extensions>
      </trkpt>
      <trkpt lat="46.48966" lon="0.32328">
        <ele>82</ele>
        <time>2020-06-13T21:27:52.582Z</time>
        <extensions>
          <gpxtpx:TrackPointExtension xmlns:gpxtpx="http://www.garmin.com/xmlschemas/TrackPointExtension/v1">
            <gpxtpx:hr>150</gpxtpx:hr>
          </gpxtpx:TrackPointExtension>
        </extensions>
      </trkpt>
      <trkpt lat="46.4896" lon="0.32324">
        <ele>82</ele>
        <time>2020-06-13T21:27:53.853Z</time>
        <extensions>
          <gpxtpx:TrackPointExtension xmlns:gpxtpx="http://www.garmin.com/xmlschemas/TrackPointExtension/v1">
            <gpxtpx:hr>150</gpxtpx:hr>
          </gpxtpx:TrackPointExtension>
        </extensions>
      </trkpt>
      <trkpt lat="46.48955" lon="0.3232">
        <ele>81.800003051758</ele>
        <time>2020-06-13T21:27:54.488Z</time>
        <extensions>
          <gpxtpx:TrackPointExtension xmlns:gpxtpx="http://www.garmin.com/xmlschemas/TrackPointExtension/v1">
            <gpxtpx:hr>149</gpxtpx:hr>
          </gpxtpx:TrackPointExtension>
        </extensions>
      </trkpt>
      <trkpt lat="46.48914" lon="0.3229">
        <ele>81.800003051758</ele>
        <time>2020-06-13T21:28:03.322Z</time>
        <extensions>
          <gpxtpx:TrackPointExtension xmlns:gpxtpx="http://www.garmin.com/xmlschemas/TrackPointExtension/v1">
            <gpxtpx:hr>150</gpxtpx:hr>
          </gpxtpx:TrackPointExtension>
        </extensions>
      </trkpt>
      <trkpt lat="46.4888" lon="0.32269">
        <ele>82.800003051758</ele>
        <time>2020-06-13T21:28:12.776Z</time>
        <extensions>
          <gpxtpx:TrackPointExtension xmlns:gpxtpx="http://www.garmin.com/xmlschemas/TrackPointExtension/v1">
            <gpxtpx:hr>152</gpxtpx:hr>
          </gpxtpx:TrackPointExtension>
        </extensions>
      </trkpt>
      <trkpt lat="46.48874" lon="0.32265">
        <ele>83</ele>
        <time>2020-06-13T21:28:14.534Z</time>
        <extensions>
          <gpxtpx:TrackPointExtension xmlns:gpxtpx="http://www.garmin.com/xmlschemas/TrackPointExtension/v1">
            <gpxtpx:hr>152</gpxtpx:hr>
          </gpxtpx:TrackPointExtension>
        </extensions>
      </trkpt>
      <trkpt lat="46.48867" lon="0.32261">
        <ele>83</ele>
        <time>2020-06-13T21:28:15.982Z</time>
        <extensions>
          <gpxtpx:TrackPointExtension xmlns:gpxtpx="http://www.garmin.com/xmlschemas/TrackPointExtension/v1">
            <gpxtpx:hr>153</gpxtpx:hr>
          </gpxtpx:TrackPointExtension>
        </extensions>
      </trkpt>
      <trkpt lat="46.48861" lon="0.32257">
        <ele>83</ele>
        <time>2020-06-13T21:28:17.252Z</time>
        <extensions>
          <gpxtpx:TrackPointExtension xmlns:gpxtpx="http://www.garmin.com/xmlschemas/TrackPointExtension/v1">
            <gpxtpx:hr>153</gpxtpx:hr>
          </gpxtpx:TrackPointExtension>
        </extensions>
      </trkpt>
      <trkpt lat="46.48854" lon="0.32253">
        <ele>83.199996948242</ele>
        <time>2020-06-13T21:28:19.166Z</time>
        <extensions>
          <gpxtpx:TrackPointExtension xmlns:gpxtpx="http://www.garmin.com/xmlschemas/TrackPointExtension/v1">
            <gpxtpx:hr>154</gpxtpx:hr>
          </gpxtpx:TrackPointExtension>
        </extensions>
      </trkpt>
      <trkpt lat="46.48848" lon="0.32249">
        <ele>83.400001525879</ele>
        <time>2020-06-13T21:28:20.924Z</time>
        <extensions>
          <gpxtpx:TrackPointExtension xmlns:gpxtpx="http://www.garmin.com/xmlschemas/TrackPointExtension/v1">
            <gpxtpx:hr>154</gpxtpx:hr>
          </gpxtpx:TrackPointExtension>
        </extensions>
      </trkpt>
      <trkpt lat="46.48841" lon="0.32245">
        <ele>83.199996948242</ele>
        <time>2020-06-13T21:28:21.839Z</time>
        <extensions>
          <gpxtpx:TrackPointExtension xmlns:gpxtpx="http://www.garmin.com/xmlschemas/TrackPointExtension/v1">
            <gpxtpx:hr>154</gpxtpx:hr>
          </gpxtpx:TrackPointExtension>
        </extensions>
      </trkpt>
      <trkpt lat="46.48835" lon="0.32241">
        <ele>83.199996948242</ele>
        <time>2020-06-13T21:28:23.109Z</time>
        <extensions>
          <gpxtpx:TrackPointExtension xmlns:gpxtpx="http://www.garmin.com/xmlschemas/TrackPointExtension/v1">
            <gpxtpx:hr>154</gpxtpx:hr>
          </gpxtpx:TrackPointExtension>
        </extensions>
      </trkpt>
      <trkpt lat="46.48828" lon="0.32237">
        <ele>83.199996948242</ele>
        <time>2020-06-13T21:28:24.557Z</time>
        <extensions>
          <gpxtpx:TrackPointExtension xmlns:gpxtpx="http://www.garmin.com/xmlschemas/TrackPointExtension/v1">
            <gpxtpx:hr>154</gpxtpx:hr>
          </gpxtpx:TrackPointExtension>
        </extensions>
      </trkpt>
      <trkpt lat="46.48822" lon="0.32233">
        <ele>83</ele>
        <time>2020-06-13T21:28:25.328Z</time>
        <extensions>
          <gpxtpx:TrackPointExtension xmlns:gpxtpx="http://www.garmin.com/xmlschemas/TrackPointExtension/v1">
            <gpxtpx:hr>154</gpxtpx:hr>
          </gpxtpx:TrackPointExtension>
        </extensions>
      </trkpt>
      <trkpt lat="46.48816" lon="0.32228">
        <ele>83</ele>
        <time>2020-06-13T21:28:26.659Z</time>
        <extensions>
          <gpxtpx:TrackPointExtension xmlns:gpxtpx="http://www.garmin.com/xmlschemas/TrackPointExtension/v1">
            <gpxtpx:hr>154</gpxtpx:hr>
          </gpxtpx:TrackPointExtension>
        </extensions>
      </trkpt>
      <trkpt lat="46.48809" lon="0.32224">
        <ele>83</ele>
        <time>2020-06-13T21:28:28.107Z</time>
        <extensions>
          <gpxtpx:TrackPointExtension xmlns:gpxtpx="http://www.garmin.com/xmlschemas/TrackPointExtension/v1">
            <gpxtpx:hr>154</gpxtpx:hr>
          </gpxtpx:TrackPointExtension>
        </extensions>
      </trkpt>
      <trkpt lat="46.48803" lon="0.32219">
        <ele>83</ele>
        <time>2020-06-13T21:28:29.438Z</time>
        <extensions>
          <gpxtpx:TrackPointExtension xmlns:gpxtpx="http://www.garmin.com/xmlschemas/TrackPointExtension/v1">
            <gpxtpx:hr>154</gpxtpx:hr>
          </gpxtpx:TrackPointExtension>
        </extensions>
      </trkpt>
      <trkpt lat="46.48797" lon="0.32215">
        <ele>83</ele>
        <time>2020-06-13T21:28:30.708Z</time>
        <extensions>
          <gpxtpx:TrackPointExtension xmlns:gpxtpx="http://www.garmin.com/xmlschemas/TrackPointExtension/v1">
            <gpxtpx:hr>155</gpxtpx:hr>
          </gpxtpx:TrackPointExtension>
        </extensions>
      </trkpt>
      <trkpt lat="46.48791" lon="0.32211">
        <ele>83</ele>
        <time>2020-06-13T21:28:31.979Z</time>
        <extensions>
          <gpxtpx:TrackPointExtension xmlns:gpxtpx="http://www.garmin.com/xmlschemas/TrackPointExtension/v1">
            <gpxtpx:hr>155</gpxtpx:hr>
          </gpxtpx:TrackPointExtension>
        </extensions>
      </trkpt>
      <trkpt lat="46.48785" lon="0.32206">
        <ele>83</ele>
        <time>2020-06-13T21:28:33.310Z</time>
        <extensions>
          <gpxtpx:TrackPointExtension xmlns:gpxtpx="http://www.garmin.com/xmlschemas/TrackPointExtension/v1">
            <gpxtpx:hr>155</gpxtpx:hr>
          </gpxtpx:TrackPointExtension>
        </extensions>
      </trkpt>
      <trkpt lat="46.48753" lon="0.32181">
        <ele>83</ele>
        <time>2020-06-13T21:28:40.302Z</time>
        <extensions>
          <gpxtpx:TrackPointExtension xmlns:gpxtpx="http://www.garmin.com/xmlschemas/TrackPointExtension/v1">
            <gpxtpx:hr>156</gpxtpx:hr>
          </gpxtpx:TrackPointExtension>
        </extensions>
      </trkpt>
      <trkpt lat="46.4871" lon="0.32144">
        <ele>82.800003051758</ele>
        <time>2020-06-13T21:28:49.365Z</time>
        <extensions>
          <gpxtpx:TrackPointExtension xmlns:gpxtpx="http://www.garmin.com/xmlschemas/TrackPointExtension/v1">
            <gpxtpx:hr>156</gpxtpx:hr>
          </gpxtpx:TrackPointExtension>
        </extensions>
      </trkpt>
      <trkpt lat="46.48699" lon="0.32134">
        <ele>83</ele>
        <time>2020-06-13T21:28:52.272Z</time>
        <extensions>
          <gpxtpx:TrackPointExtension xmlns:gpxtpx="http://www.garmin.com/xmlschemas/TrackPointExtension/v1">
            <gpxtpx:hr>156</gpxtpx:hr>
          </gpxtpx:TrackPointExtension>
        </extensions>
      </trkpt>
      <trkpt lat="46.48693" lon="0.32128">
        <ele>83</ele>
        <time>2020-06-13T21:28:53.674Z</time>
        <extensions>
          <gpxtpx:TrackPointExtension xmlns:gpxtpx="http://www.garmin.com/xmlschemas/TrackPointExtension/v1">
            <gpxtpx:hr>156</gpxtpx:hr>
          </gpxtpx:TrackPointExtension>
        </extensions>
      </trkpt>
      <trkpt lat="46.48687" lon="0.32122">
        <ele>83</ele>
        <time>2020-06-13T21:28:55.076Z</time>
        <extensions>
          <gpxtpx:TrackPointExtension xmlns:gpxtpx="http://www.garmin.com/xmlschemas/TrackPointExtension/v1">
            <gpxtpx:hr>156</gpxtpx:hr>
          </gpxtpx:TrackPointExtension>
        </extensions>
      </trkpt>
      <trkpt lat="46.48682" lon="0.32117">
        <ele>83</ele>
        <time>2020-06-13T21:28:56.244Z</time>
        <extensions>
          <gpxtpx:TrackPointExtension xmlns:gpxtpx="http://www.garmin.com/xmlschemas/TrackPointExtension/v1">
            <gpxtpx:hr>157</gpxtpx:hr>
          </gpxtpx:TrackPointExtension>
        </extensions>
      </trkpt>
      <trkpt lat="46.48676" lon="0.32111">
        <ele>83</ele>
        <time>2020-06-13T21:28:57.646Z</time>
        <extensions>
          <gpxtpx:TrackPointExtension xmlns:gpxtpx="http://www.garmin.com/xmlschemas/TrackPointExtension/v1">
            <gpxtpx:hr>157</gpxtpx:hr>
          </gpxtpx:TrackPointExtension>
        </extensions>
      </trkpt>
      <trkpt lat="46.48671" lon="0.32105">
        <ele>83</ele>
        <time>2020-06-13T21:28:58.894Z</time>
        <extensions>
          <gpxtpx:TrackPointExtension xmlns:gpxtpx="http://www.garmin.com/xmlschemas/TrackPointExtension/v1">
            <gpxtpx:hr>157</gpxtpx:hr>
          </gpxtpx:TrackPointExtension>
        </extensions>
      </trkpt>
      <trkpt lat="46.48665" lon="0.321">
        <ele>83.199996948242</ele>
        <time>2020-06-13T21:29:00.705Z</time>
        <extensions>
          <gpxtpx:TrackPointExtension xmlns:gpxtpx="http://www.garmin.com/xmlschemas/TrackPointExtension/v1">
            <gpxtpx:hr>157</gpxtpx:hr>
          </gpxtpx:TrackPointExtension>
        </extensions>
      </trkpt>
      <trkpt lat="46.4866" lon="0.32094">
        <ele>83.199996948242</ele>
        <time>2020-06-13T21:29:01.953Z</time>
        <extensions>
          <gpxtpx:TrackPointExtension xmlns:gpxtpx="http://www.garmin.com/xmlschemas/TrackPointExtension/v1">
            <gpxtpx:hr>157</gpxtpx:hr>
          </gpxtpx:TrackPointExtension>
        </extensions>
      </trkpt>
      <trkpt lat="46.48654" lon="0.32088">
        <ele>83</ele>
        <time>2020-06-13T21:29:02.830Z</time>
        <extensions>
          <gpxtpx:TrackPointExtension xmlns:gpxtpx="http://www.garmin.com/xmlschemas/TrackPointExtension/v1">
            <gpxtpx:hr>157</gpxtpx:hr>
          </gpxtpx:TrackPointExtension>
        </extensions>
      </trkpt>
      <trkpt lat="46.48648" lon="0.3208">
        <ele>83</ele>
        <time>2020-06-13T21:29:04.397Z</time>
        <extensions>
          <gpxtpx:TrackPointExtension xmlns:gpxtpx="http://www.garmin.com/xmlschemas/TrackPointExtension/v1">
            <gpxtpx:hr>157</gpxtpx:hr>
          </gpxtpx:TrackPointExtension>
        </extensions>
      </trkpt>
      <trkpt lat="46.48644" lon="0.32076">
        <ele>83</ele>
        <time>2020-06-13T21:29:05.332Z</time>
        <extensions>
          <gpxtpx:TrackPointExtension xmlns:gpxtpx="http://www.garmin.com/xmlschemas/TrackPointExtension/v1">
            <gpxtpx:hr>157</gpxtpx:hr>
          </gpxtpx:TrackPointExtension>
        </extensions>
      </trkpt>
      <trkpt lat="46.48638" lon="0.3207">
        <ele>83</ele>
        <time>2020-06-13T21:29:06.734Z</time>
        <extensions>
          <gpxtpx:TrackPointExtension xmlns:gpxtpx="http://www.garmin.com/xmlschemas/TrackPointExtension/v1">
            <gpxtpx:hr>157</gpxtpx:hr>
          </gpxtpx:TrackPointExtension>
        </extensions>
      </trkpt>
      <trkpt lat="46.48632" lon="0.32062">
        <ele>83</ele>
        <time>2020-06-13T21:29:08.301Z</time>
        <extensions>
          <gpxtpx:TrackPointExtension xmlns:gpxtpx="http://www.garmin.com/xmlschemas/TrackPointExtension/v1">
            <gpxtpx:hr>157</gpxtpx:hr>
          </gpxtpx:TrackPointExtension>
        </extensions>
      </trkpt>
      <trkpt lat="46.48627" lon="0.32057">
        <ele>83</ele>
        <time>2020-06-13T21:29:09.469Z</time>
        <extensions>
          <gpxtpx:TrackPointExtension xmlns:gpxtpx="http://www.garmin.com/xmlschemas/TrackPointExtension/v1">
            <gpxtpx:hr>157</gpxtpx:hr>
          </gpxtpx:TrackPointExtension>
        </extensions>
      </trkpt>
      <trkpt lat="46.48617" lon="0.32044">
        <ele>83</ele>
        <time>2020-06-13T21:29:12.052Z</time>
        <extensions>
          <gpxtpx:TrackPointExtension xmlns:gpxtpx="http://www.garmin.com/xmlschemas/TrackPointExtension/v1">
            <gpxtpx:hr>158</gpxtpx:hr>
          </gpxtpx:TrackPointExtension>
        </extensions>
      </trkpt>
      <trkpt lat="46.48611" lon="0.32037">
        <ele>83</ele>
        <time>2020-06-13T21:29:13.533Z</time>
        <extensions>
          <gpxtpx:TrackPointExtension xmlns:gpxtpx="http://www.garmin.com/xmlschemas/TrackPointExtension/v1">
            <gpxtpx:hr>158</gpxtpx:hr>
          </gpxtpx:TrackPointExtension>
        </extensions>
      </trkpt>
      <trkpt lat="46.48571" lon="0.31983">
        <ele>82.599998474121</ele>
        <time>2020-06-13T21:29:21.931Z</time>
        <extensions>
          <gpxtpx:TrackPointExtension xmlns:gpxtpx="http://www.garmin.com/xmlschemas/TrackPointExtension/v1">
            <gpxtpx:hr>159</gpxtpx:hr>
          </gpxtpx:TrackPointExtension>
        </extensions>
      </trkpt>
      <trkpt lat="46.48545" lon="0.31945">
        <ele>82.599998474121</ele>
        <time>2020-06-13T21:29:29.029Z</time>
        <extensions>
          <gpxtpx:TrackPointExtension xmlns:gpxtpx="http://www.garmin.com/xmlschemas/TrackPointExtension/v1">
            <gpxtpx:hr>160</gpxtpx:hr>
          </gpxtpx:TrackPointExtension>
        </extensions>
      </trkpt>
      <trkpt lat="46.48542" lon="0.3194">
        <ele>82.599998474121</ele>
        <time>2020-06-13T21:29:29.908Z</time>
        <extensions>
          <gpxtpx:TrackPointExtension xmlns:gpxtpx="http://www.garmin.com/xmlschemas/TrackPointExtension/v1">
            <gpxtpx:hr>160</gpxtpx:hr>
          </gpxtpx:TrackPointExtension>
        </extensions>
      </trkpt>
      <trkpt lat="46.48537" lon="0.31933">
        <ele>82.599998474121</ele>
        <time>2020-06-13T21:29:31.244Z</time>
        <extensions>
          <gpxtpx:TrackPointExtension xmlns:gpxtpx="http://www.garmin.com/xmlschemas/TrackPointExtension/v1">
            <gpxtpx:hr>160</gpxtpx:hr>
          </gpxtpx:TrackPointExtension>
        </extensions>
      </trkpt>
      <trkpt lat="46.48532" lon="0.31925">
        <ele>82.599998474121</ele>
        <time>2020-06-13T21:29:32.676Z</time>
        <extensions>
          <gpxtpx:TrackPointExtension xmlns:gpxtpx="http://www.garmin.com/xmlschemas/TrackPointExtension/v1">
            <gpxtpx:hr>160</gpxtpx:hr>
          </gpxtpx:TrackPointExtension>
        </extensions>
      </trkpt>
      <trkpt lat="46.48529" lon="0.31919">
        <ele>82.599998474121</ele>
        <time>2020-06-13T21:29:33.658Z</time>
        <extensions>
          <gpxtpx:TrackPointExtension xmlns:gpxtpx="http://www.garmin.com/xmlschemas/TrackPointExtension/v1">
            <gpxtpx:hr>161</gpxtpx:hr>
          </gpxtpx:TrackPointExtension>
        </extensions>
      </trkpt>
      <trkpt lat="46.48525" lon="0.31912">
        <ele>82.800003051758</ele>
        <time>2020-06-13T21:29:35.362Z</time>
        <extensions>
          <gpxtpx:TrackPointExtension xmlns:gpxtpx="http://www.garmin.com/xmlschemas/TrackPointExtension/v1">
            <gpxtpx:hr>161</gpxtpx:hr>
          </gpxtpx:TrackPointExtension>
        </extensions>
      </trkpt>
      <trkpt lat="46.48521" lon="0.31905">
        <ele>82.800003051758</ele>
        <time>2020-06-13T21:29:36.567Z</time>
        <extensions>
          <gpxtpx:TrackPointExtension xmlns:gpxtpx="http://www.garmin.com/xmlschemas/TrackPointExtension/v1">
            <gpxtpx:hr>161</gpxtpx:hr>
          </gpxtpx:TrackPointExtension>
        </extensions>
      </trkpt>
      <trkpt lat="46.48517" lon="0.31898">
        <ele>82.800003051758</ele>
        <time>2020-06-13T21:29:37.772Z</time>
        <extensions>
          <gpxtpx:TrackPointExtension xmlns:gpxtpx="http://www.garmin.com/xmlschemas/TrackPointExtension/v1">
            <gpxtpx:hr>161</gpxtpx:hr>
          </gpxtpx:TrackPointExtension>
        </extensions>
      </trkpt>
      <trkpt lat="46.48512" lon="0.3189">
        <ele>83</ele>
        <time>2020-06-13T21:29:39.672Z</time>
        <extensions>
          <gpxtpx:TrackPointExtension xmlns:gpxtpx="http://www.garmin.com/xmlschemas/TrackPointExtension/v1">
            <gpxtpx:hr>161</gpxtpx:hr>
          </gpxtpx:TrackPointExtension>
        </extensions>
      </trkpt>
      <trkpt lat="46.48509" lon="0.31884">
        <ele>83</ele>
        <time>2020-06-13T21:29:40.654Z</time>
        <extensions>
          <gpxtpx:TrackPointExtension xmlns:gpxtpx="http://www.garmin.com/xmlschemas/TrackPointExtension/v1">
            <gpxtpx:hr>161</gpxtpx:hr>
          </gpxtpx:TrackPointExtension>
        </extensions>
      </trkpt>
      <trkpt lat="46.48504" lon="0.31876">
        <ele>83</ele>
        <time>2020-06-13T21:29:42.086Z</time>
        <extensions>
          <gpxtpx:TrackPointExtension xmlns:gpxtpx="http://www.garmin.com/xmlschemas/TrackPointExtension/v1">
            <gpxtpx:hr>161</gpxtpx:hr>
          </gpxtpx:TrackPointExtension>
        </extensions>
      </trkpt>
      <trkpt lat="46.48501" lon="0.31871">
        <ele>83.199996948242</ele>
        <time>2020-06-13T21:29:43.553Z</time>
        <extensions>
          <gpxtpx:TrackPointExtension xmlns:gpxtpx="http://www.garmin.com/xmlschemas/TrackPointExtension/v1">
            <gpxtpx:hr>161</gpxtpx:hr>
          </gpxtpx:TrackPointExtension>
        </extensions>
      </trkpt>
      <trkpt lat="46.48497" lon="0.31864">
        <ele>83.199996948242</ele>
        <time>2020-06-13T21:29:44.759Z</time>
        <extensions>
          <gpxtpx:TrackPointExtension xmlns:gpxtpx="http://www.garmin.com/xmlschemas/TrackPointExtension/v1">
            <gpxtpx:hr>162</gpxtpx:hr>
          </gpxtpx:TrackPointExtension>
        </extensions>
      </trkpt>
      <trkpt lat="46.48492" lon="0.31856">
        <ele>83.400001525879</ele>
        <time>2020-06-13T21:29:46.658Z</time>
        <extensions>
          <gpxtpx:TrackPointExtension xmlns:gpxtpx="http://www.garmin.com/xmlschemas/TrackPointExtension/v1">
            <gpxtpx:hr>162</gpxtpx:hr>
          </gpxtpx:TrackPointExtension>
        </extensions>
      </trkpt>
      <trkpt lat="46.48489" lon="0.31851">
        <ele>83.599998474121</ele>
        <time>2020-06-13T21:29:48.125Z</time>
        <extensions>
          <gpxtpx:TrackPointExtension xmlns:gpxtpx="http://www.garmin.com/xmlschemas/TrackPointExtension/v1">
            <gpxtpx:hr>162</gpxtpx:hr>
          </gpxtpx:TrackPointExtension>
        </extensions>
      </trkpt>
      <trkpt lat="46.48485" lon="0.31843">
        <ele>83.599998474121</ele>
        <time>2020-06-13T21:29:49.435Z</time>
        <extensions>
          <gpxtpx:TrackPointExtension xmlns:gpxtpx="http://www.garmin.com/xmlschemas/TrackPointExtension/v1">
            <gpxtpx:hr>162</gpxtpx:hr>
          </gpxtpx:TrackPointExtension>
        </extensions>
      </trkpt>
      <trkpt lat="46.48481" lon="0.31837">
        <ele>83.800003051758</ele>
        <time>2020-06-13T21:29:51.059Z</time>
        <extensions>
          <gpxtpx:TrackPointExtension xmlns:gpxtpx="http://www.garmin.com/xmlschemas/TrackPointExtension/v1">
            <gpxtpx:hr>163</gpxtpx:hr>
          </gpxtpx:TrackPointExtension>
        </extensions>
      </trkpt>
      <trkpt lat="46.48477" lon="0.31831">
        <ele>83.800003051758</ele>
        <time>2020-06-13T21:29:52.166Z</time>
        <extensions>
          <gpxtpx:TrackPointExtension xmlns:gpxtpx="http://www.garmin.com/xmlschemas/TrackPointExtension/v1">
            <gpxtpx:hr>163</gpxtpx:hr>
          </gpxtpx:TrackPointExtension>
        </extensions>
      </trkpt>
      <trkpt lat="46.48473" lon="0.31823">
        <ele>83.800003051758</ele>
        <time>2020-06-13T21:29:53.476Z</time>
        <extensions>
          <gpxtpx:TrackPointExtension xmlns:gpxtpx="http://www.garmin.com/xmlschemas/TrackPointExtension/v1">
            <gpxtpx:hr>163</gpxtpx:hr>
          </gpxtpx:TrackPointExtension>
        </extensions>
      </trkpt>
      <trkpt lat="46.48469" lon="0.31816">
        <ele>83.800003051758</ele>
        <time>2020-06-13T21:29:54.681Z</time>
        <extensions>
          <gpxtpx:TrackPointExtension xmlns:gpxtpx="http://www.garmin.com/xmlschemas/TrackPointExtension/v1">
            <gpxtpx:hr>163</gpxtpx:hr>
          </gpxtpx:TrackPointExtension>
        </extensions>
      </trkpt>
      <trkpt lat="46.48465" lon="0.31808">
        <ele>83.800003051758</ele>
        <time>2020-06-13T21:29:55.991Z</time>
        <extensions>
          <gpxtpx:TrackPointExtension xmlns:gpxtpx="http://www.garmin.com/xmlschemas/TrackPointExtension/v1">
            <gpxtpx:hr>164</gpxtpx:hr>
          </gpxtpx:TrackPointExtension>
        </extensions>
      </trkpt>
      <trkpt lat="46.48462" lon="0.318">
        <ele>83.800003051758</ele>
        <time>2020-06-13T21:29:57.198Z</time>
        <extensions>
          <gpxtpx:TrackPointExtension xmlns:gpxtpx="http://www.garmin.com/xmlschemas/TrackPointExtension/v1">
            <gpxtpx:hr>164</gpxtpx:hr>
          </gpxtpx:TrackPointExtension>
        </extensions>
      </trkpt>
      <trkpt lat="46.48448" lon="0.3177">
        <ele>83.800003051758</ele>
        <time>2020-06-13T21:30:02.000Z</time>
        <extensions>
          <gpxtpx:TrackPointExtension xmlns:gpxtpx="http://www.garmin.com/xmlschemas/TrackPointExtension/v1">
            <gpxtpx:hr>164</gpxtpx:hr>
          </gpxtpx:TrackPointExtension>
        </extensions>
      </trkpt>
      <trkpt lat="46.48446" lon="0.31764">
        <ele>84</ele>
        <time>2020-06-13T21:30:03.470Z</time>
        <extensions>
          <gpxtpx:TrackPointExtension xmlns:gpxtpx="http://www.garmin.com/xmlschemas/TrackPointExtension/v1">
            <gpxtpx:hr>164</gpxtpx:hr>
          </gpxtpx:TrackPointExtension>
        </extensions>
      </trkpt>
      <trkpt lat="46.48442" lon="0.31758">
        <ele>84</ele>
        <time>2020-06-13T21:30:04.577Z</time>
        <extensions>
          <gpxtpx:TrackPointExtension xmlns:gpxtpx="http://www.garmin.com/xmlschemas/TrackPointExtension/v1">
            <gpxtpx:hr>164</gpxtpx:hr>
          </gpxtpx:TrackPointExtension>
        </extensions>
      </trkpt>
      <trkpt lat="46.48438" lon="0.3175">
        <ele>84</ele>
        <time>2020-06-13T21:30:05.887Z</time>
        <extensions>
          <gpxtpx:TrackPointExtension xmlns:gpxtpx="http://www.garmin.com/xmlschemas/TrackPointExtension/v1">
            <gpxtpx:hr>165</gpxtpx:hr>
          </gpxtpx:TrackPointExtension>
        </extensions>
      </trkpt>
      <trkpt lat="46.48424" lon="0.31726">
        <ele>84.199996948242</ele>
        <time>2020-06-13T21:30:10.440Z</time>
        <extensions>
          <gpxtpx:TrackPointExtension xmlns:gpxtpx="http://www.garmin.com/xmlschemas/TrackPointExtension/v1">
            <gpxtpx:hr>165</gpxtpx:hr>
          </gpxtpx:TrackPointExtension>
        </extensions>
      </trkpt>
      <trkpt lat="46.4842" lon="0.31721">
        <ele>84.400001525879</ele>
        <time>2020-06-13T21:30:11.996Z</time>
        <extensions>
          <gpxtpx:TrackPointExtension xmlns:gpxtpx="http://www.garmin.com/xmlschemas/TrackPointExtension/v1">
            <gpxtpx:hr>166</gpxtpx:hr>
          </gpxtpx:TrackPointExtension>
        </extensions>
      </trkpt>
      <trkpt lat="46.48416" lon="0.31715">
        <ele>84.400001525879</ele>
        <time>2020-06-13T21:30:13.102Z</time>
        <extensions>
          <gpxtpx:TrackPointExtension xmlns:gpxtpx="http://www.garmin.com/xmlschemas/TrackPointExtension/v1">
            <gpxtpx:hr>166</gpxtpx:hr>
          </gpxtpx:TrackPointExtension>
        </extensions>
      </trkpt>
      <trkpt lat="46.48411" lon="0.31711">
        <ele>84.599998474121</ele>
        <time>2020-06-13T21:30:14.720Z</time>
        <extensions>
          <gpxtpx:TrackPointExtension xmlns:gpxtpx="http://www.garmin.com/xmlschemas/TrackPointExtension/v1">
            <gpxtpx:hr>166</gpxtpx:hr>
          </gpxtpx:TrackPointExtension>
        </extensions>
      </trkpt>
      <trkpt lat="46.48401" lon="0.31701">
        <ele>85</ele>
        <time>2020-06-13T21:30:18.066Z</time>
        <extensions>
          <gpxtpx:TrackPointExtension xmlns:gpxtpx="http://www.garmin.com/xmlschemas/TrackPointExtension/v1">
            <gpxtpx:hr>167</gpxtpx:hr>
          </gpxtpx:TrackPointExtension>
        </extensions>
      </trkpt>
      <trkpt lat="46.48396" lon="0.31694">
        <ele>85</ele>
        <time>2020-06-13T21:30:19.403Z</time>
        <extensions>
          <gpxtpx:TrackPointExtension xmlns:gpxtpx="http://www.garmin.com/xmlschemas/TrackPointExtension/v1">
            <gpxtpx:hr>167</gpxtpx:hr>
          </gpxtpx:TrackPointExtension>
        </extensions>
      </trkpt>
      <trkpt lat="46.48393" lon="0.31687">
        <ele>85.199996948242</ele>
        <time>2020-06-13T21:30:21.016Z</time>
        <extensions>
          <gpxtpx:TrackPointExtension xmlns:gpxtpx="http://www.garmin.com/xmlschemas/TrackPointExtension/v1">
            <gpxtpx:hr>167</gpxtpx:hr>
          </gpxtpx:TrackPointExtension>
        </extensions>
      </trkpt>
      <trkpt lat="46.48391" lon="0.31682">
        <ele>85.199996948242</ele>
        <time>2020-06-13T21:30:21.782Z</time>
        <extensions>
          <gpxtpx:TrackPointExtension xmlns:gpxtpx="http://www.garmin.com/xmlschemas/TrackPointExtension/v1">
            <gpxtpx:hr>167</gpxtpx:hr>
          </gpxtpx:TrackPointExtension>
        </extensions>
      </trkpt>
      <trkpt lat="46.48388" lon="0.31676">
        <ele>85.199996948242</ele>
        <time>2020-06-13T21:30:22.764Z</time>
        <extensions>
          <gpxtpx:TrackPointExtension xmlns:gpxtpx="http://www.garmin.com/xmlschemas/TrackPointExtension/v1">
            <gpxtpx:hr>167</gpxtpx:hr>
          </gpxtpx:TrackPointExtension>
        </extensions>
      </trkpt>
      <trkpt lat="46.48383" lon="0.31671">
        <ele>85.400001525879</ele>
        <time>2020-06-13T21:30:24.437Z</time>
        <extensions>
          <gpxtpx:TrackPointExtension xmlns:gpxtpx="http://www.garmin.com/xmlschemas/TrackPointExtension/v1">
            <gpxtpx:hr>167</gpxtpx:hr>
          </gpxtpx:TrackPointExtension>
        </extensions>
      </trkpt>
      <trkpt lat="46.48378" lon="0.31671">
        <ele>85.400001525879</ele>
        <time>2020-06-13T21:30:25.400Z</time>
        <extensions>
          <gpxtpx:TrackPointExtension xmlns:gpxtpx="http://www.garmin.com/xmlschemas/TrackPointExtension/v1">
            <gpxtpx:hr>167</gpxtpx:hr>
          </gpxtpx:TrackPointExtension>
        </extensions>
      </trkpt>
      <trkpt lat="46.48374" lon="0.31673">
        <ele>85.599998474121</ele>
        <time>2020-06-13T21:30:26.798Z</time>
        <extensions>
          <gpxtpx:TrackPointExtension xmlns:gpxtpx="http://www.garmin.com/xmlschemas/TrackPointExtension/v1">
            <gpxtpx:hr>167</gpxtpx:hr>
          </gpxtpx:TrackPointExtension>
        </extensions>
      </trkpt>
      <trkpt lat="46.48369" lon="0.31676">
        <ele>85.800003051758</ele>
        <time>2020-06-13T21:30:28.372Z</time>
        <extensions>
          <gpxtpx:TrackPointExtension xmlns:gpxtpx="http://www.garmin.com/xmlschemas/TrackPointExtension/v1">
            <gpxtpx:hr>167</gpxtpx:hr>
          </gpxtpx:TrackPointExtension>
        </extensions>
      </trkpt>
      <trkpt lat="46.48364" lon="0.3168">
        <ele>86</ele>
        <time>2020-06-13T21:30:29.990Z</time>
        <extensions>
          <gpxtpx:TrackPointExtension xmlns:gpxtpx="http://www.garmin.com/xmlschemas/TrackPointExtension/v1">
            <gpxtpx:hr>167</gpxtpx:hr>
          </gpxtpx:TrackPointExtension>
        </extensions>
      </trkpt>
      <trkpt lat="46.48359" lon="0.31682">
        <ele>86.199996948242</ele>
        <time>2020-06-13T21:30:31.533Z</time>
        <extensions>
          <gpxtpx:TrackPointExtension xmlns:gpxtpx="http://www.garmin.com/xmlschemas/TrackPointExtension/v1">
            <gpxtpx:hr>167</gpxtpx:hr>
          </gpxtpx:TrackPointExtension>
        </extensions>
      </trkpt>
      <trkpt lat="46.48353" lon="0.31682">
        <ele>86.199996948242</ele>
        <time>2020-06-13T21:30:32.688Z</time>
        <extensions>
          <gpxtpx:TrackPointExtension xmlns:gpxtpx="http://www.garmin.com/xmlschemas/TrackPointExtension/v1">
            <gpxtpx:hr>167</gpxtpx:hr>
          </gpxtpx:TrackPointExtension>
        </extensions>
      </trkpt>
      <trkpt lat="46.48346" lon="0.3168">
        <ele>86.400001525879</ele>
        <time>2020-06-13T21:30:34.535Z</time>
        <extensions>
          <gpxtpx:TrackPointExtension xmlns:gpxtpx="http://www.garmin.com/xmlschemas/TrackPointExtension/v1">
            <gpxtpx:hr>167</gpxtpx:hr>
          </gpxtpx:TrackPointExtension>
        </extensions>
      </trkpt>
      <trkpt lat="46.48342" lon="0.31677">
        <ele>86.400001525879</ele>
        <time>2020-06-13T21:30:35.401Z</time>
        <extensions>
          <gpxtpx:TrackPointExtension xmlns:gpxtpx="http://www.garmin.com/xmlschemas/TrackPointExtension/v1">
            <gpxtpx:hr>166</gpxtpx:hr>
          </gpxtpx:TrackPointExtension>
        </extensions>
      </trkpt>
      <trkpt lat="46.48338" lon="0.31672">
        <ele>86.400001525879</ele>
        <time>2020-06-13T21:30:36.417Z</time>
        <extensions>
          <gpxtpx:TrackPointExtension xmlns:gpxtpx="http://www.garmin.com/xmlschemas/TrackPointExtension/v1">
            <gpxtpx:hr>166</gpxtpx:hr>
          </gpxtpx:TrackPointExtension>
        </extensions>
      </trkpt>
      <trkpt lat="46.48335" lon="0.31665">
        <ele>86.400001525879</ele>
        <time>2020-06-13T21:30:37.509Z</time>
        <extensions>
          <gpxtpx:TrackPointExtension xmlns:gpxtpx="http://www.garmin.com/xmlschemas/TrackPointExtension/v1">
            <gpxtpx:hr>166</gpxtpx:hr>
          </gpxtpx:TrackPointExtension>
        </extensions>
      </trkpt>
      <trkpt lat="46.48331" lon="0.31659">
        <ele>86.400001525879</ele>
        <time>2020-06-13T21:30:38.616Z</time>
        <extensions>
          <gpxtpx:TrackPointExtension xmlns:gpxtpx="http://www.garmin.com/xmlschemas/TrackPointExtension/v1">
            <gpxtpx:hr>166</gpxtpx:hr>
          </gpxtpx:TrackPointExtension>
        </extensions>
      </trkpt>
      <trkpt lat="46.48315" lon="0.31623">
        <ele>85.599998474121</ele>
        <time>2020-06-13T21:30:42.181Z</time>
        <extensions>
          <gpxtpx:TrackPointExtension xmlns:gpxtpx="http://www.garmin.com/xmlschemas/TrackPointExtension/v1">
            <gpxtpx:hr>163</gpxtpx:hr>
          </gpxtpx:TrackPointExtension>
        </extensions>
      </trkpt>
      <trkpt lat="46.48303" lon="0.31593">
        <ele>85.599998474121</ele>
        <time>2020-06-13T21:30:46.778Z</time>
        <extensions>
          <gpxtpx:TrackPointExtension xmlns:gpxtpx="http://www.garmin.com/xmlschemas/TrackPointExtension/v1">
            <gpxtpx:hr>163</gpxtpx:hr>
          </gpxtpx:TrackPointExtension>
        </extensions>
      </trkpt>
      <trkpt lat="46.48294" lon="0.31573">
        <ele>85.400001525879</ele>
        <time>2020-06-13T21:30:49.150Z</time>
        <extensions>
          <gpxtpx:TrackPointExtension xmlns:gpxtpx="http://www.garmin.com/xmlschemas/TrackPointExtension/v1">
            <gpxtpx:hr>162</gpxtpx:hr>
          </gpxtpx:TrackPointExtension>
        </extensions>
      </trkpt>
      <trkpt lat="46.48291" lon="0.31566">
        <ele>85.400001525879</ele>
        <time>2020-06-13T21:30:50.243Z</time>
        <extensions>
          <gpxtpx:TrackPointExtension xmlns:gpxtpx="http://www.garmin.com/xmlschemas/TrackPointExtension/v1">
            <gpxtpx:hr>162</gpxtpx:hr>
          </gpxtpx:TrackPointExtension>
        </extensions>
      </trkpt>
      <trkpt lat="46.48288" lon="0.31559">
        <ele>85.400001525879</ele>
        <time>2020-06-13T21:30:51.335Z</time>
        <extensions>
          <gpxtpx:TrackPointExtension xmlns:gpxtpx="http://www.garmin.com/xmlschemas/TrackPointExtension/v1">
            <gpxtpx:hr>162</gpxtpx:hr>
          </gpxtpx:TrackPointExtension>
        </extensions>
      </trkpt>
      <trkpt lat="46.48285" lon="0.31552">
        <ele>85.400001525879</ele>
        <time>2020-06-13T21:30:52.428Z</time>
        <extensions>
          <gpxtpx:TrackPointExtension xmlns:gpxtpx="http://www.garmin.com/xmlschemas/TrackPointExtension/v1">
            <gpxtpx:hr>162</gpxtpx:hr>
          </gpxtpx:TrackPointExtension>
        </extensions>
      </trkpt>
      <trkpt lat="46.48281" lon="0.31545">
        <ele>85.400001525879</ele>
        <time>2020-06-13T21:30:53.633Z</time>
        <extensions>
          <gpxtpx:TrackPointExtension xmlns:gpxtpx="http://www.garmin.com/xmlschemas/TrackPointExtension/v1">
            <gpxtpx:hr>162</gpxtpx:hr>
          </gpxtpx:TrackPointExtension>
        </extensions>
      </trkpt>
      <trkpt lat="46.48275" lon="0.31532">
        <ele>85.400001525879</ele>
        <time>2020-06-13T21:30:55.707Z</time>
        <extensions>
          <gpxtpx:TrackPointExtension xmlns:gpxtpx="http://www.garmin.com/xmlschemas/TrackPointExtension/v1">
            <gpxtpx:hr>162</gpxtpx:hr>
          </gpxtpx:TrackPointExtension>
        </extensions>
      </trkpt>
      <trkpt lat="46.48271" lon="0.31527">
        <ele>85.599998474121</ele>
        <time>2020-06-13T21:30:57.262Z</time>
        <extensions>
          <gpxtpx:TrackPointExtension xmlns:gpxtpx="http://www.garmin.com/xmlschemas/TrackPointExtension/v1">
            <gpxtpx:hr>161</gpxtpx:hr>
          </gpxtpx:TrackPointExtension>
        </extensions>
      </trkpt>
      <trkpt lat="46.48266" lon="0.31525">
        <ele>85.800003051758</ele>
        <time>2020-06-13T21:30:58.805Z</time>
        <extensions>
          <gpxtpx:TrackPointExtension xmlns:gpxtpx="http://www.garmin.com/xmlschemas/TrackPointExtension/v1">
            <gpxtpx:hr>161</gpxtpx:hr>
          </gpxtpx:TrackPointExtension>
        </extensions>
      </trkpt>
      <trkpt lat="46.48261" lon="0.31524">
        <ele>85.800003051758</ele>
        <time>2020-06-13T21:30:59.777Z</time>
        <extensions>
          <gpxtpx:TrackPointExtension xmlns:gpxtpx="http://www.garmin.com/xmlschemas/TrackPointExtension/v1">
            <gpxtpx:hr>161</gpxtpx:hr>
          </gpxtpx:TrackPointExtension>
        </extensions>
      </trkpt>
      <trkpt lat="46.48256" lon="0.31527">
        <ele>85.800003051758</ele>
        <time>2020-06-13T21:31:00.818Z</time>
        <extensions>
          <gpxtpx:TrackPointExtension xmlns:gpxtpx="http://www.garmin.com/xmlschemas/TrackPointExtension/v1">
            <gpxtpx:hr>161</gpxtpx:hr>
          </gpxtpx:TrackPointExtension>
        </extensions>
      </trkpt>
      <trkpt lat="46.48251" lon="0.31531">
        <ele>85.800003051758</ele>
        <time>2020-06-13T21:31:01.916Z</time>
        <extensions>
          <gpxtpx:TrackPointExtension xmlns:gpxtpx="http://www.garmin.com/xmlschemas/TrackPointExtension/v1">
            <gpxtpx:hr>161</gpxtpx:hr>
          </gpxtpx:TrackPointExtension>
        </extensions>
      </trkpt>
      <trkpt lat="46.48246" lon="0.31534">
        <ele>85.800003051758</ele>
        <time>2020-06-13T21:31:02.957Z</time>
        <extensions>
          <gpxtpx:TrackPointExtension xmlns:gpxtpx="http://www.garmin.com/xmlschemas/TrackPointExtension/v1">
            <gpxtpx:hr>160</gpxtpx:hr>
          </gpxtpx:TrackPointExtension>
        </extensions>
      </trkpt>
      <trkpt lat="46.4824" lon="0.31534">
        <ele>85.800003051758</ele>
        <time>2020-06-13T21:31:04.112Z</time>
        <extensions>
          <gpxtpx:TrackPointExtension xmlns:gpxtpx="http://www.garmin.com/xmlschemas/TrackPointExtension/v1">
            <gpxtpx:hr>160</gpxtpx:hr>
          </gpxtpx:TrackPointExtension>
        </extensions>
      </trkpt>
      <trkpt lat="46.48235" lon="0.31532">
        <ele>85.800003051758</ele>
        <time>2020-06-13T21:31:05.110Z</time>
        <extensions>
          <gpxtpx:TrackPointExtension xmlns:gpxtpx="http://www.garmin.com/xmlschemas/TrackPointExtension/v1">
            <gpxtpx:hr>159</gpxtpx:hr>
          </gpxtpx:TrackPointExtension>
        </extensions>
      </trkpt>
      <trkpt lat="46.48231" lon="0.31526">
        <ele>85.599998474121</ele>
        <time>2020-06-13T21:31:05.752Z</time>
        <extensions>
          <gpxtpx:TrackPointExtension xmlns:gpxtpx="http://www.garmin.com/xmlschemas/TrackPointExtension/v1">
            <gpxtpx:hr>159</gpxtpx:hr>
          </gpxtpx:TrackPointExtension>
        </extensions>
      </trkpt>
      <trkpt lat="46.48227" lon="0.31519">
        <ele>85.599998474121</ele>
        <time>2020-06-13T21:31:06.957Z</time>
        <extensions>
          <gpxtpx:TrackPointExtension xmlns:gpxtpx="http://www.garmin.com/xmlschemas/TrackPointExtension/v1">
            <gpxtpx:hr>158</gpxtpx:hr>
          </gpxtpx:TrackPointExtension>
        </extensions>
      </trkpt>
      <trkpt lat="46.48224" lon="0.31511">
        <ele>85.599998474121</ele>
        <time>2020-06-13T21:31:08.164Z</time>
        <extensions>
          <gpxtpx:TrackPointExtension xmlns:gpxtpx="http://www.garmin.com/xmlschemas/TrackPointExtension/v1">
            <gpxtpx:hr>158</gpxtpx:hr>
          </gpxtpx:TrackPointExtension>
        </extensions>
      </trkpt>
      <trkpt lat="46.48218" lon="0.31494">
        <ele>85</ele>
        <time>2020-06-13T21:31:09.488Z</time>
        <extensions>
          <gpxtpx:TrackPointExtension xmlns:gpxtpx="http://www.garmin.com/xmlschemas/TrackPointExtension/v1">
            <gpxtpx:hr>156</gpxtpx:hr>
          </gpxtpx:TrackPointExtension>
        </extensions>
      </trkpt>
      <trkpt lat="46.48208" lon="0.31471">
        <ele>84.599998474121</ele>
        <time>2020-06-13T21:31:11.902Z</time>
        <extensions>
          <gpxtpx:TrackPointExtension xmlns:gpxtpx="http://www.garmin.com/xmlschemas/TrackPointExtension/v1">
            <gpxtpx:hr>153</gpxtpx:hr>
          </gpxtpx:TrackPointExtension>
        </extensions>
      </trkpt>
      <trkpt lat="46.48204" lon="0.31466">
        <ele>84.599998474121</ele>
        <time>2020-06-13T21:31:12.917Z</time>
        <extensions>
          <gpxtpx:TrackPointExtension xmlns:gpxtpx="http://www.garmin.com/xmlschemas/TrackPointExtension/v1">
            <gpxtpx:hr>153</gpxtpx:hr>
          </gpxtpx:TrackPointExtension>
        </extensions>
      </trkpt>
      <trkpt lat="46.48198" lon="0.31462">
        <ele>84.599998474121</ele>
        <time>2020-06-13T21:31:14.188Z</time>
        <extensions>
          <gpxtpx:TrackPointExtension xmlns:gpxtpx="http://www.garmin.com/xmlschemas/TrackPointExtension/v1">
            <gpxtpx:hr>152</gpxtpx:hr>
          </gpxtpx:TrackPointExtension>
        </extensions>
      </trkpt>
      <trkpt lat="46.48194" lon="0.31463">
        <ele>84.400001525879</ele>
        <time>2020-06-13T21:31:14.583Z</time>
        <extensions>
          <gpxtpx:TrackPointExtension xmlns:gpxtpx="http://www.garmin.com/xmlschemas/TrackPointExtension/v1">
            <gpxtpx:hr>152</gpxtpx:hr>
          </gpxtpx:TrackPointExtension>
        </extensions>
      </trkpt>
      <trkpt lat="46.48188" lon="0.31466">
        <ele>84.400001525879</ele>
        <time>2020-06-13T21:31:15.805Z</time>
        <extensions>
          <gpxtpx:TrackPointExtension xmlns:gpxtpx="http://www.garmin.com/xmlschemas/TrackPointExtension/v1">
            <gpxtpx:hr>151</gpxtpx:hr>
          </gpxtpx:TrackPointExtension>
        </extensions>
      </trkpt>
      <trkpt lat="46.48183" lon="0.31471">
        <ele>84.400001525879</ele>
        <time>2020-06-13T21:31:16.973Z</time>
        <extensions>
          <gpxtpx:TrackPointExtension xmlns:gpxtpx="http://www.garmin.com/xmlschemas/TrackPointExtension/v1">
            <gpxtpx:hr>150</gpxtpx:hr>
          </gpxtpx:TrackPointExtension>
        </extensions>
      </trkpt>
      <trkpt lat="46.48177" lon="0.31478">
        <ele>84.199996948242</ele>
        <time>2020-06-13T21:31:17.914Z</time>
        <extensions>
          <gpxtpx:TrackPointExtension xmlns:gpxtpx="http://www.garmin.com/xmlschemas/TrackPointExtension/v1">
            <gpxtpx:hr>150</gpxtpx:hr>
          </gpxtpx:TrackPointExtension>
        </extensions>
      </trkpt>
      <trkpt lat="46.48168" lon="0.3149">
        <ele>84</ele>
        <time>2020-06-13T21:31:19.585Z</time>
        <extensions>
          <gpxtpx:TrackPointExtension xmlns:gpxtpx="http://www.garmin.com/xmlschemas/TrackPointExtension/v1">
            <gpxtpx:hr>150</gpxtpx:hr>
          </gpxtpx:TrackPointExtension>
        </extensions>
      </trkpt>
      <trkpt lat="46.48143" lon="0.31524">
        <ele>83.199996948242</ele>
        <time>2020-06-13T21:31:23.899Z</time>
        <extensions>
          <gpxtpx:TrackPointExtension xmlns:gpxtpx="http://www.garmin.com/xmlschemas/TrackPointExtension/v1">
            <gpxtpx:hr>147</gpxtpx:hr>
          </gpxtpx:TrackPointExtension>
        </extensions>
      </trkpt>
      <trkpt lat="46.48137" lon="0.31532">
        <ele>83</ele>
        <time>2020-06-13T21:31:24.911Z</time>
        <extensions>
          <gpxtpx:TrackPointExtension xmlns:gpxtpx="http://www.garmin.com/xmlschemas/TrackPointExtension/v1">
            <gpxtpx:hr>147</gpxtpx:hr>
          </gpxtpx:TrackPointExtension>
        </extensions>
      </trkpt>
      <trkpt lat="46.48119" lon="0.31555">
        <ele>82.599998474121</ele>
        <time>2020-06-13T21:31:28.177Z</time>
        <extensions>
          <gpxtpx:TrackPointExtension xmlns:gpxtpx="http://www.garmin.com/xmlschemas/TrackPointExtension/v1">
            <gpxtpx:hr>145</gpxtpx:hr>
          </gpxtpx:TrackPointExtension>
        </extensions>
      </trkpt>
      <trkpt lat="46.48114" lon="0.31559">
        <ele>82.599998474121</ele>
        <time>2020-06-13T21:31:29.275Z</time>
        <extensions>
          <gpxtpx:TrackPointExtension xmlns:gpxtpx="http://www.garmin.com/xmlschemas/TrackPointExtension/v1">
            <gpxtpx:hr>145</gpxtpx:hr>
          </gpxtpx:TrackPointExtension>
        </extensions>
      </trkpt>
      <trkpt lat="46.4811" lon="0.3156">
        <ele>82.400001525879</ele>
        <time>2020-06-13T21:31:29.671Z</time>
        <extensions>
          <gpxtpx:TrackPointExtension xmlns:gpxtpx="http://www.garmin.com/xmlschemas/TrackPointExtension/v1">
            <gpxtpx:hr>145</gpxtpx:hr>
          </gpxtpx:TrackPointExtension>
        </extensions>
      </trkpt>
      <trkpt lat="46.48105" lon="0.31558">
        <ele>82.400001525879</ele>
        <time>2020-06-13T21:31:30.669Z</time>
        <extensions>
          <gpxtpx:TrackPointExtension xmlns:gpxtpx="http://www.garmin.com/xmlschemas/TrackPointExtension/v1">
            <gpxtpx:hr>142</gpxtpx:hr>
          </gpxtpx:TrackPointExtension>
        </extensions>
      </trkpt>
      <trkpt lat="46.48103" lon="0.31554">
        <ele>82.400001525879</ele>
        <time>2020-06-13T21:31:31.324Z</time>
        <extensions>
          <gpxtpx:TrackPointExtension xmlns:gpxtpx="http://www.garmin.com/xmlschemas/TrackPointExtension/v1">
            <gpxtpx:hr>142</gpxtpx:hr>
          </gpxtpx:TrackPointExtension>
        </extensions>
      </trkpt>
      <trkpt lat="46.48102" lon="0.31547">
        <ele>82.400001525879</ele>
        <time>2020-06-13T21:31:32.271Z</time>
        <extensions>
          <gpxtpx:TrackPointExtension xmlns:gpxtpx="http://www.garmin.com/xmlschemas/TrackPointExtension/v1">
            <gpxtpx:hr>141</gpxtpx:hr>
          </gpxtpx:TrackPointExtension>
        </extensions>
      </trkpt>
      <trkpt lat="46.48102" lon="0.3154">
        <ele>82.199996948242</ele>
        <time>2020-06-13T21:31:32.775Z</time>
        <extensions>
          <gpxtpx:TrackPointExtension xmlns:gpxtpx="http://www.garmin.com/xmlschemas/TrackPointExtension/v1">
            <gpxtpx:hr>141</gpxtpx:hr>
          </gpxtpx:TrackPointExtension>
        </extensions>
      </trkpt>
      <trkpt lat="46.48101" lon="0.3153">
        <ele>82.199996948242</ele>
        <time>2020-06-13T21:31:34.114Z</time>
        <extensions>
          <gpxtpx:TrackPointExtension xmlns:gpxtpx="http://www.garmin.com/xmlschemas/TrackPointExtension/v1">
            <gpxtpx:hr>142</gpxtpx:hr>
          </gpxtpx:TrackPointExtension>
        </extensions>
      </trkpt>
      <trkpt lat="46.48098" lon="0.31515">
        <ele>82</ele>
        <time>2020-06-13T21:31:35.546Z</time>
        <extensions>
          <gpxtpx:TrackPointExtension xmlns:gpxtpx="http://www.garmin.com/xmlschemas/TrackPointExtension/v1">
            <gpxtpx:hr>142</gpxtpx:hr>
          </gpxtpx:TrackPointExtension>
        </extensions>
      </trkpt>
      <trkpt lat="46.48096" lon="0.31507">
        <ele>81.800003051758</ele>
        <time>2020-06-13T21:31:36.204Z</time>
        <extensions>
          <gpxtpx:TrackPointExtension xmlns:gpxtpx="http://www.garmin.com/xmlschemas/TrackPointExtension/v1">
            <gpxtpx:hr>143</gpxtpx:hr>
          </gpxtpx:TrackPointExtension>
        </extensions>
      </trkpt>
      <trkpt lat="46.4809" lon="0.31482">
        <ele>81.800003051758</ele>
        <time>2020-06-13T21:31:39.712Z</time>
        <extensions>
          <gpxtpx:TrackPointExtension xmlns:gpxtpx="http://www.garmin.com/xmlschemas/TrackPointExtension/v1">
            <gpxtpx:hr>146</gpxtpx:hr>
          </gpxtpx:TrackPointExtension>
        </extensions>
      </trkpt>
      <trkpt lat="46.48088" lon="0.31474">
        <ele>81.800003051758</ele>
        <time>2020-06-13T21:31:40.840Z</time>
        <extensions>
          <gpxtpx:TrackPointExtension xmlns:gpxtpx="http://www.garmin.com/xmlschemas/TrackPointExtension/v1">
            <gpxtpx:hr>149</gpxtpx:hr>
          </gpxtpx:TrackPointExtension>
        </extensions>
      </trkpt>
      <trkpt lat="46.48084" lon="0.31456">
        <ele>82</ele>
        <time>2020-06-13T21:31:43.757Z</time>
        <extensions>
          <gpxtpx:TrackPointExtension xmlns:gpxtpx="http://www.garmin.com/xmlschemas/TrackPointExtension/v1">
            <gpxtpx:hr>151</gpxtpx:hr>
          </gpxtpx:TrackPointExtension>
        </extensions>
      </trkpt>
      <trkpt lat="46.48079" lon="0.31403">
        <ele>82.800003051758</ele>
        <time>2020-06-13T21:31:52.606Z</time>
        <extensions>
          <gpxtpx:TrackPointExtension xmlns:gpxtpx="http://www.garmin.com/xmlschemas/TrackPointExtension/v1">
            <gpxtpx:hr>154</gpxtpx:hr>
          </gpxtpx:TrackPointExtension>
        </extensions>
      </trkpt>
      <trkpt lat="46.4808" lon="0.31352">
        <ele>82.599998474121</ele>
        <time>2020-06-13T21:31:58.824Z</time>
        <extensions>
          <gpxtpx:TrackPointExtension xmlns:gpxtpx="http://www.garmin.com/xmlschemas/TrackPointExtension/v1">
            <gpxtpx:hr>153</gpxtpx:hr>
          </gpxtpx:TrackPointExtension>
        </extensions>
      </trkpt>
      <trkpt lat="46.4808" lon="0.31343">
        <ele>82.400001525879</ele>
        <time>2020-06-13T21:31:59.533Z</time>
        <extensions>
          <gpxtpx:TrackPointExtension xmlns:gpxtpx="http://www.garmin.com/xmlschemas/TrackPointExtension/v1">
            <gpxtpx:hr>153</gpxtpx:hr>
          </gpxtpx:TrackPointExtension>
        </extensions>
      </trkpt>
      <trkpt lat="46.4808" lon="0.31335">
        <ele>82.400001525879</ele>
        <time>2020-06-13T21:32:00.593Z</time>
        <extensions>
          <gpxtpx:TrackPointExtension xmlns:gpxtpx="http://www.garmin.com/xmlschemas/TrackPointExtension/v1">
            <gpxtpx:hr>153</gpxtpx:hr>
          </gpxtpx:TrackPointExtension>
        </extensions>
      </trkpt>
      <trkpt lat="46.4808" lon="0.31327">
        <ele>82.400001525879</ele>
        <time>2020-06-13T21:32:01.654Z</time>
        <extensions>
          <gpxtpx:TrackPointExtension xmlns:gpxtpx="http://www.garmin.com/xmlschemas/TrackPointExtension/v1">
            <gpxtpx:hr>152</gpxtpx:hr>
          </gpxtpx:TrackPointExtension>
        </extensions>
      </trkpt>
      <trkpt lat="46.4808" lon="0.31318">
        <ele>82.400001525879</ele>
        <time>2020-06-13T21:32:02.846Z</time>
        <extensions>
          <gpxtpx:TrackPointExtension xmlns:gpxtpx="http://www.garmin.com/xmlschemas/TrackPointExtension/v1">
            <gpxtpx:hr>152</gpxtpx:hr>
          </gpxtpx:TrackPointExtension>
        </extensions>
      </trkpt>
      <trkpt lat="46.4808" lon="0.31309">
        <ele>82.599998474121</ele>
        <time>2020-06-13T21:32:04.539Z</time>
        <extensions>
          <gpxtpx:TrackPointExtension xmlns:gpxtpx="http://www.garmin.com/xmlschemas/TrackPointExtension/v1">
            <gpxtpx:hr>153</gpxtpx:hr>
          </gpxtpx:TrackPointExtension>
        </extensions>
      </trkpt>
      <trkpt lat="46.4808" lon="0.31301">
        <ele>82.599998474121</ele>
        <time>2020-06-13T21:32:05.599Z</time>
        <extensions>
          <gpxtpx:TrackPointExtension xmlns:gpxtpx="http://www.garmin.com/xmlschemas/TrackPointExtension/v1">
            <gpxtpx:hr>153</gpxtpx:hr>
          </gpxtpx:TrackPointExtension>
        </extensions>
      </trkpt>
      <trkpt lat="46.4808" lon="0.31293">
        <ele>82.800003051758</ele>
        <time>2020-06-13T21:32:07.188Z</time>
        <extensions>
          <gpxtpx:TrackPointExtension xmlns:gpxtpx="http://www.garmin.com/xmlschemas/TrackPointExtension/v1">
            <gpxtpx:hr>154</gpxtpx:hr>
          </gpxtpx:TrackPointExtension>
        </extensions>
      </trkpt>
      <trkpt lat="46.4808" lon="0.31282">
        <ele>82.800003051758</ele>
        <time>2020-06-13T21:32:08.645Z</time>
        <extensions>
          <gpxtpx:TrackPointExtension xmlns:gpxtpx="http://www.garmin.com/xmlschemas/TrackPointExtension/v1">
            <gpxtpx:hr>154</gpxtpx:hr>
          </gpxtpx:TrackPointExtension>
        </extensions>
      </trkpt>
      <trkpt lat="46.48081" lon="0.31275">
        <ele>83</ele>
        <time>2020-06-13T21:32:10.154Z</time>
        <extensions>
          <gpxtpx:TrackPointExtension xmlns:gpxtpx="http://www.garmin.com/xmlschemas/TrackPointExtension/v1">
            <gpxtpx:hr>154</gpxtpx:hr>
          </gpxtpx:TrackPointExtension>
        </extensions>
      </trkpt>
      <trkpt lat="46.48081" lon="0.31267">
        <ele>83.199996948242</ele>
        <time>2020-06-13T21:32:11.742Z</time>
        <extensions>
          <gpxtpx:TrackPointExtension xmlns:gpxtpx="http://www.garmin.com/xmlschemas/TrackPointExtension/v1">
            <gpxtpx:hr>154</gpxtpx:hr>
          </gpxtpx:TrackPointExtension>
        </extensions>
      </trkpt>
      <trkpt lat="46.48081" lon="0.31258">
        <ele>83.599998474121</ele>
        <time>2020-06-13T21:32:14.047Z</time>
        <extensions>
          <gpxtpx:TrackPointExtension xmlns:gpxtpx="http://www.garmin.com/xmlschemas/TrackPointExtension/v1">
            <gpxtpx:hr>154</gpxtpx:hr>
          </gpxtpx:TrackPointExtension>
        </extensions>
      </trkpt>
      <trkpt lat="46.48082" lon="0.31249">
        <ele>83.800003051758</ele>
        <time>2020-06-13T21:32:15.753Z</time>
        <extensions>
          <gpxtpx:TrackPointExtension xmlns:gpxtpx="http://www.garmin.com/xmlschemas/TrackPointExtension/v1">
            <gpxtpx:hr>154</gpxtpx:hr>
          </gpxtpx:TrackPointExtension>
        </extensions>
      </trkpt>
      <trkpt lat="46.48082" lon="0.31238">
        <ele>84.199996948242</ele>
        <time>2020-06-13T21:32:18.350Z</time>
        <extensions>
          <gpxtpx:TrackPointExtension xmlns:gpxtpx="http://www.garmin.com/xmlschemas/TrackPointExtension/v1">
            <gpxtpx:hr>154</gpxtpx:hr>
          </gpxtpx:TrackPointExtension>
        </extensions>
      </trkpt>
      <trkpt lat="46.48082" lon="0.31231">
        <ele>84.400001525879</ele>
        <time>2020-06-13T21:32:19.846Z</time>
        <extensions>
          <gpxtpx:TrackPointExtension xmlns:gpxtpx="http://www.garmin.com/xmlschemas/TrackPointExtension/v1">
            <gpxtpx:hr>154</gpxtpx:hr>
          </gpxtpx:TrackPointExtension>
        </extensions>
      </trkpt>
      <trkpt lat="46.48082" lon="0.31221">
        <ele>84.599998474121</ele>
        <time>2020-06-13T21:32:21.651Z</time>
        <extensions>
          <gpxtpx:TrackPointExtension xmlns:gpxtpx="http://www.garmin.com/xmlschemas/TrackPointExtension/v1">
            <gpxtpx:hr>155</gpxtpx:hr>
          </gpxtpx:TrackPointExtension>
        </extensions>
      </trkpt>
      <trkpt lat="46.48082" lon="0.31212">
        <ele>84.599998474121</ele>
        <time>2020-06-13T21:32:22.844Z</time>
        <extensions>
          <gpxtpx:TrackPointExtension xmlns:gpxtpx="http://www.garmin.com/xmlschemas/TrackPointExtension/v1">
            <gpxtpx:hr>155</gpxtpx:hr>
          </gpxtpx:TrackPointExtension>
        </extensions>
      </trkpt>
      <trkpt lat="46.48081" lon="0.31204">
        <ele>84.800003051758</ele>
        <time>2020-06-13T21:32:24.446Z</time>
        <extensions>
          <gpxtpx:TrackPointExtension xmlns:gpxtpx="http://www.garmin.com/xmlschemas/TrackPointExtension/v1">
            <gpxtpx:hr>155</gpxtpx:hr>
          </gpxtpx:TrackPointExtension>
        </extensions>
      </trkpt>
      <trkpt lat="46.48079" lon="0.31195">
        <ele>84.800003051758</ele>
        <time>2020-06-13T21:32:25.699Z</time>
        <extensions>
          <gpxtpx:TrackPointExtension xmlns:gpxtpx="http://www.garmin.com/xmlschemas/TrackPointExtension/v1">
            <gpxtpx:hr>156</gpxtpx:hr>
          </gpxtpx:TrackPointExtension>
        </extensions>
      </trkpt>
      <trkpt lat="46.48077" lon="0.31186">
        <ele>84.800003051758</ele>
        <time>2020-06-13T21:32:26.952Z</time>
        <extensions>
          <gpxtpx:TrackPointExtension xmlns:gpxtpx="http://www.garmin.com/xmlschemas/TrackPointExtension/v1">
            <gpxtpx:hr>156</gpxtpx:hr>
          </gpxtpx:TrackPointExtension>
        </extensions>
      </trkpt>
      <trkpt lat="46.48075" lon="0.31177">
        <ele>84.800003051758</ele>
        <time>2020-06-13T21:32:28.205Z</time>
        <extensions>
          <gpxtpx:TrackPointExtension xmlns:gpxtpx="http://www.garmin.com/xmlschemas/TrackPointExtension/v1">
            <gpxtpx:hr>156</gpxtpx:hr>
          </gpxtpx:TrackPointExtension>
        </extensions>
      </trkpt>
      <trkpt lat="46.48073" lon="0.31168">
        <ele>84.800003051758</ele>
        <time>2020-06-13T21:32:29.458Z</time>
        <extensions>
          <gpxtpx:TrackPointExtension xmlns:gpxtpx="http://www.garmin.com/xmlschemas/TrackPointExtension/v1">
            <gpxtpx:hr>156</gpxtpx:hr>
          </gpxtpx:TrackPointExtension>
        </extensions>
      </trkpt>
      <trkpt lat="46.48071" lon="0.31159">
        <ele>85</ele>
        <time>2020-06-13T21:32:31.202Z</time>
        <extensions>
          <gpxtpx:TrackPointExtension xmlns:gpxtpx="http://www.garmin.com/xmlschemas/TrackPointExtension/v1">
            <gpxtpx:hr>156</gpxtpx:hr>
          </gpxtpx:TrackPointExtension>
        </extensions>
      </trkpt>
      <trkpt lat="46.48058" lon="0.31114">
        <ele>85.199996948242</ele>
        <time>2020-06-13T21:32:38.041Z</time>
        <extensions>
          <gpxtpx:TrackPointExtension xmlns:gpxtpx="http://www.garmin.com/xmlschemas/TrackPointExtension/v1">
            <gpxtpx:hr>156</gpxtpx:hr>
          </gpxtpx:TrackPointExtension>
        </extensions>
      </trkpt>
      <trkpt lat="46.48051" lon="0.31098">
        <ele>85.400001525879</ele>
        <time>2020-06-13T21:32:40.963Z</time>
        <extensions>
          <gpxtpx:TrackPointExtension xmlns:gpxtpx="http://www.garmin.com/xmlschemas/TrackPointExtension/v1">
            <gpxtpx:hr>156</gpxtpx:hr>
          </gpxtpx:TrackPointExtension>
        </extensions>
      </trkpt>
      <trkpt lat="46.48045" lon="0.31081">
        <ele>85.400001525879</ele>
        <time>2020-06-13T21:32:43.495Z</time>
        <extensions>
          <gpxtpx:TrackPointExtension xmlns:gpxtpx="http://www.garmin.com/xmlschemas/TrackPointExtension/v1">
            <gpxtpx:hr>157</gpxtpx:hr>
          </gpxtpx:TrackPointExtension>
        </extensions>
      </trkpt>
      <trkpt lat="46.48037" lon="0.31065">
        <ele>85.400001525879</ele>
        <time>2020-06-13T21:32:46.115Z</time>
        <extensions>
          <gpxtpx:TrackPointExtension xmlns:gpxtpx="http://www.garmin.com/xmlschemas/TrackPointExtension/v1">
            <gpxtpx:hr>157</gpxtpx:hr>
          </gpxtpx:TrackPointExtension>
        </extensions>
      </trkpt>
      <trkpt lat="46.48032" lon="0.31057">
        <ele>85.400001525879</ele>
        <time>2020-06-13T21:32:47.547Z</time>
        <extensions>
          <gpxtpx:TrackPointExtension xmlns:gpxtpx="http://www.garmin.com/xmlschemas/TrackPointExtension/v1">
            <gpxtpx:hr>157</gpxtpx:hr>
          </gpxtpx:TrackPointExtension>
        </extensions>
      </trkpt>
      <trkpt lat="46.48024" lon="0.31042">
        <ele>85.400001525879</ele>
        <time>2020-06-13T21:32:50.061Z</time>
        <extensions>
          <gpxtpx:TrackPointExtension xmlns:gpxtpx="http://www.garmin.com/xmlschemas/TrackPointExtension/v1">
            <gpxtpx:hr>157</gpxtpx:hr>
          </gpxtpx:TrackPointExtension>
        </extensions>
      </trkpt>
      <trkpt lat="46.48013" lon="0.31028">
        <ele>85.400001525879</ele>
        <time>2020-06-13T21:32:52.876Z</time>
        <extensions>
          <gpxtpx:TrackPointExtension xmlns:gpxtpx="http://www.garmin.com/xmlschemas/TrackPointExtension/v1">
            <gpxtpx:hr>157</gpxtpx:hr>
          </gpxtpx:TrackPointExtension>
        </extensions>
      </trkpt>
      <trkpt lat="46.48007" lon="0.31023">
        <ele>85.400001525879</ele>
        <time>2020-06-13T21:32:54.207Z</time>
        <extensions>
          <gpxtpx:TrackPointExtension xmlns:gpxtpx="http://www.garmin.com/xmlschemas/TrackPointExtension/v1">
            <gpxtpx:hr>157</gpxtpx:hr>
          </gpxtpx:TrackPointExtension>
        </extensions>
      </trkpt>
      <trkpt lat="46.48001" lon="0.31018">
        <ele>85.400001525879</ele>
        <time>2020-06-13T21:32:55.538Z</time>
        <extensions>
          <gpxtpx:TrackPointExtension xmlns:gpxtpx="http://www.garmin.com/xmlschemas/TrackPointExtension/v1">
            <gpxtpx:hr>157</gpxtpx:hr>
          </gpxtpx:TrackPointExtension>
        </extensions>
      </trkpt>
      <trkpt lat="46.47993" lon="0.31013">
        <ele>85.400001525879</ele>
        <time>2020-06-13T21:32:57.214Z</time>
        <extensions>
          <gpxtpx:TrackPointExtension xmlns:gpxtpx="http://www.garmin.com/xmlschemas/TrackPointExtension/v1">
            <gpxtpx:hr>157</gpxtpx:hr>
          </gpxtpx:TrackPointExtension>
        </extensions>
      </trkpt>
      <trkpt lat="46.47988" lon="0.31011">
        <ele>85.599998474121</ele>
        <time>2020-06-13T21:32:58.757Z</time>
        <extensions>
          <gpxtpx:TrackPointExtension xmlns:gpxtpx="http://www.garmin.com/xmlschemas/TrackPointExtension/v1">
            <gpxtpx:hr>157</gpxtpx:hr>
          </gpxtpx:TrackPointExtension>
        </extensions>
      </trkpt>
      <trkpt lat="46.47969" lon="0.30997">
        <ele>85.599998474121</ele>
        <time>2020-06-13T21:33:02.857Z</time>
        <extensions>
          <gpxtpx:TrackPointExtension xmlns:gpxtpx="http://www.garmin.com/xmlschemas/TrackPointExtension/v1">
            <gpxtpx:hr>157</gpxtpx:hr>
          </gpxtpx:TrackPointExtension>
        </extensions>
      </trkpt>
      <trkpt lat="46.47964" lon="0.3099">
        <ele>85.599998474121</ele>
        <time>2020-06-13T21:33:04.194Z</time>
        <extensions>
          <gpxtpx:TrackPointExtension xmlns:gpxtpx="http://www.garmin.com/xmlschemas/TrackPointExtension/v1">
            <gpxtpx:hr>158</gpxtpx:hr>
          </gpxtpx:TrackPointExtension>
        </extensions>
      </trkpt>
      <trkpt lat="46.4796" lon="0.30982">
        <ele>85.599998474121</ele>
        <time>2020-06-13T21:33:05.504Z</time>
        <extensions>
          <gpxtpx:TrackPointExtension xmlns:gpxtpx="http://www.garmin.com/xmlschemas/TrackPointExtension/v1">
            <gpxtpx:hr>157</gpxtpx:hr>
          </gpxtpx:TrackPointExtension>
        </extensions>
      </trkpt>
      <trkpt lat="46.47956" lon="0.30975">
        <ele>85.599998474121</ele>
        <time>2020-06-13T21:33:06.709Z</time>
        <extensions>
          <gpxtpx:TrackPointExtension xmlns:gpxtpx="http://www.garmin.com/xmlschemas/TrackPointExtension/v1">
            <gpxtpx:hr>157</gpxtpx:hr>
          </gpxtpx:TrackPointExtension>
        </extensions>
      </trkpt>
      <trkpt lat="46.47953" lon="0.30966">
        <ele>85.599998474121</ele>
        <time>2020-06-13T21:33:08.034Z</time>
        <extensions>
          <gpxtpx:TrackPointExtension xmlns:gpxtpx="http://www.garmin.com/xmlschemas/TrackPointExtension/v1">
            <gpxtpx:hr>157</gpxtpx:hr>
          </gpxtpx:TrackPointExtension>
        </extensions>
      </trkpt>
      <trkpt lat="46.47949" lon="0.30957">
        <ele>85.599998474121</ele>
        <time>2020-06-13T21:33:09.454Z</time>
        <extensions>
          <gpxtpx:TrackPointExtension xmlns:gpxtpx="http://www.garmin.com/xmlschemas/TrackPointExtension/v1">
            <gpxtpx:hr>157</gpxtpx:hr>
          </gpxtpx:TrackPointExtension>
        </extensions>
      </trkpt>
      <trkpt lat="46.47945" lon="0.30948">
        <ele>85.599998474121</ele>
        <time>2020-06-13T21:33:10.873Z</time>
        <extensions>
          <gpxtpx:TrackPointExtension xmlns:gpxtpx="http://www.garmin.com/xmlschemas/TrackPointExtension/v1">
            <gpxtpx:hr>158</gpxtpx:hr>
          </gpxtpx:TrackPointExtension>
        </extensions>
      </trkpt>
      <trkpt lat="46.47941" lon="0.30942">
        <ele>85.800003051758</ele>
        <time>2020-06-13T21:33:12.497Z</time>
        <extensions>
          <gpxtpx:TrackPointExtension xmlns:gpxtpx="http://www.garmin.com/xmlschemas/TrackPointExtension/v1">
            <gpxtpx:hr>158</gpxtpx:hr>
          </gpxtpx:TrackPointExtension>
        </extensions>
      </trkpt>
      <trkpt lat="46.47936" lon="0.30934">
        <ele>85.800003051758</ele>
        <time>2020-06-13T21:33:13.929Z</time>
        <extensions>
          <gpxtpx:TrackPointExtension xmlns:gpxtpx="http://www.garmin.com/xmlschemas/TrackPointExtension/v1">
            <gpxtpx:hr>157</gpxtpx:hr>
          </gpxtpx:TrackPointExtension>
        </extensions>
      </trkpt>
      <trkpt lat="46.47929" lon="0.30926">
        <ele>85.599998474121</ele>
        <time>2020-06-13T21:33:15.062Z</time>
        <extensions>
          <gpxtpx:TrackPointExtension xmlns:gpxtpx="http://www.garmin.com/xmlschemas/TrackPointExtension/v1">
            <gpxtpx:hr>157</gpxtpx:hr>
          </gpxtpx:TrackPointExtension>
        </extensions>
      </trkpt>
      <trkpt lat="46.47924" lon="0.30921">
        <ele>85.599998474121</ele>
        <time>2020-06-13T21:33:16.231Z</time>
        <extensions>
          <gpxtpx:TrackPointExtension xmlns:gpxtpx="http://www.garmin.com/xmlschemas/TrackPointExtension/v1">
            <gpxtpx:hr>157</gpxtpx:hr>
          </gpxtpx:TrackPointExtension>
        </extensions>
      </trkpt>
      <trkpt lat="46.47918" lon="0.30915">
        <ele>85.400001525879</ele>
        <time>2020-06-13T21:33:17.108Z</time>
        <extensions>
          <gpxtpx:TrackPointExtension xmlns:gpxtpx="http://www.garmin.com/xmlschemas/TrackPointExtension/v1">
            <gpxtpx:hr>157</gpxtpx:hr>
          </gpxtpx:TrackPointExtension>
        </extensions>
      </trkpt>
      <trkpt lat="46.47874" lon="0.30871">
        <ele>84.800003051758</ele>
        <time>2020-06-13T21:33:24.903Z</time>
        <extensions>
          <gpxtpx:TrackPointExtension xmlns:gpxtpx="http://www.garmin.com/xmlschemas/TrackPointExtension/v1">
            <gpxtpx:hr>158</gpxtpx:hr>
          </gpxtpx:TrackPointExtension>
        </extensions>
      </trkpt>
      <trkpt lat="46.47856" lon="0.30853">
        <ele>84.199996948242</ele>
        <time>2020-06-13T21:33:27.534Z</time>
        <extensions>
          <gpxtpx:TrackPointExtension xmlns:gpxtpx="http://www.garmin.com/xmlschemas/TrackPointExtension/v1">
            <gpxtpx:hr>157</gpxtpx:hr>
          </gpxtpx:TrackPointExtension>
        </extensions>
      </trkpt>
      <trkpt lat="46.47823" lon="0.30821">
        <ele>83.599998474121</ele>
        <time>2020-06-13T21:33:33.044Z</time>
        <extensions>
          <gpxtpx:TrackPointExtension xmlns:gpxtpx="http://www.garmin.com/xmlschemas/TrackPointExtension/v1">
            <gpxtpx:hr>156</gpxtpx:hr>
          </gpxtpx:TrackPointExtension>
        </extensions>
      </trkpt>
      <trkpt lat="46.47803" lon="0.30803">
        <ele>83.599998474121</ele>
        <time>2020-06-13T21:33:37.572Z</time>
        <extensions>
          <gpxtpx:TrackPointExtension xmlns:gpxtpx="http://www.garmin.com/xmlschemas/TrackPointExtension/v1">
            <gpxtpx:hr>153</gpxtpx:hr>
          </gpxtpx:TrackPointExtension>
        </extensions>
      </trkpt>
      <trkpt lat="46.47797" lon="0.30797">
        <ele>83.599998474121</ele>
        <time>2020-06-13T21:33:38.974Z</time>
        <extensions>
          <gpxtpx:TrackPointExtension xmlns:gpxtpx="http://www.garmin.com/xmlschemas/TrackPointExtension/v1">
            <gpxtpx:hr>153</gpxtpx:hr>
          </gpxtpx:TrackPointExtension>
        </extensions>
      </trkpt>
      <trkpt lat="46.47791" lon="0.30791">
        <ele>83.599998474121</ele>
        <time>2020-06-13T21:33:40.376Z</time>
        <extensions>
          <gpxtpx:TrackPointExtension xmlns:gpxtpx="http://www.garmin.com/xmlschemas/TrackPointExtension/v1">
            <gpxtpx:hr>153</gpxtpx:hr>
          </gpxtpx:TrackPointExtension>
        </extensions>
      </trkpt>
      <trkpt lat="46.47784" lon="0.30785">
        <ele>83.599998474121</ele>
        <time>2020-06-13T21:33:41.940Z</time>
        <extensions>
          <gpxtpx:TrackPointExtension xmlns:gpxtpx="http://www.garmin.com/xmlschemas/TrackPointExtension/v1">
            <gpxtpx:hr>153</gpxtpx:hr>
          </gpxtpx:TrackPointExtension>
        </extensions>
      </trkpt>
      <trkpt lat="46.47778" lon="0.3078">
        <ele>83.599998474121</ele>
        <time>2020-06-13T21:33:43.271Z</time>
        <extensions>
          <gpxtpx:TrackPointExtension xmlns:gpxtpx="http://www.garmin.com/xmlschemas/TrackPointExtension/v1">
            <gpxtpx:hr>153</gpxtpx:hr>
          </gpxtpx:TrackPointExtension>
        </extensions>
      </trkpt>
      <trkpt lat="46.47772" lon="0.30774">
        <ele>84</ele>
        <time>2020-06-13T21:33:45.804Z</time>
        <extensions>
          <gpxtpx:TrackPointExtension xmlns:gpxtpx="http://www.garmin.com/xmlschemas/TrackPointExtension/v1">
            <gpxtpx:hr>153</gpxtpx:hr>
          </gpxtpx:TrackPointExtension>
        </extensions>
      </trkpt>
      <trkpt lat="46.47766" lon="0.30768">
        <ele>84</ele>
        <time>2020-06-13T21:33:47.206Z</time>
        <extensions>
          <gpxtpx:TrackPointExtension xmlns:gpxtpx="http://www.garmin.com/xmlschemas/TrackPointExtension/v1">
            <gpxtpx:hr>154</gpxtpx:hr>
          </gpxtpx:TrackPointExtension>
        </extensions>
      </trkpt>
      <trkpt lat="46.4776" lon="0.30763">
        <ele>84.199996948242</ele>
        <time>2020-06-13T21:33:49.017Z</time>
        <extensions>
          <gpxtpx:TrackPointExtension xmlns:gpxtpx="http://www.garmin.com/xmlschemas/TrackPointExtension/v1">
            <gpxtpx:hr>154</gpxtpx:hr>
          </gpxtpx:TrackPointExtension>
        </extensions>
      </trkpt>
      <trkpt lat="46.47753" lon="0.30757">
        <ele>84.199996948242</ele>
        <time>2020-06-13T21:33:50.581Z</time>
        <extensions>
          <gpxtpx:TrackPointExtension xmlns:gpxtpx="http://www.garmin.com/xmlschemas/TrackPointExtension/v1">
            <gpxtpx:hr>154</gpxtpx:hr>
          </gpxtpx:TrackPointExtension>
        </extensions>
      </trkpt>
      <trkpt lat="46.47747" lon="0.30752">
        <ele>84.199996948242</ele>
        <time>2020-06-13T21:33:51.912Z</time>
        <extensions>
          <gpxtpx:TrackPointExtension xmlns:gpxtpx="http://www.garmin.com/xmlschemas/TrackPointExtension/v1">
            <gpxtpx:hr>154</gpxtpx:hr>
          </gpxtpx:TrackPointExtension>
        </extensions>
      </trkpt>
      <trkpt lat="46.4774" lon="0.30745">
        <ele>84.199996948242</ele>
        <time>2020-06-13T21:33:53.548Z</time>
        <extensions>
          <gpxtpx:TrackPointExtension xmlns:gpxtpx="http://www.garmin.com/xmlschemas/TrackPointExtension/v1">
            <gpxtpx:hr>154</gpxtpx:hr>
          </gpxtpx:TrackPointExtension>
        </extensions>
      </trkpt>
      <trkpt lat="46.47735" lon="0.30741">
        <ele>84.400001525879</ele>
        <time>2020-06-13T21:33:55.165Z</time>
        <extensions>
          <gpxtpx:TrackPointExtension xmlns:gpxtpx="http://www.garmin.com/xmlschemas/TrackPointExtension/v1">
            <gpxtpx:hr>154</gpxtpx:hr>
          </gpxtpx:TrackPointExtension>
        </extensions>
      </trkpt>
      <trkpt lat="46.47729" lon="0.30736">
        <ele>84</ele>
        <time>2020-06-13T21:33:55.793Z</time>
        <extensions>
          <gpxtpx:TrackPointExtension xmlns:gpxtpx="http://www.garmin.com/xmlschemas/TrackPointExtension/v1">
            <gpxtpx:hr>154</gpxtpx:hr>
          </gpxtpx:TrackPointExtension>
        </extensions>
      </trkpt>
      <trkpt lat="46.47723" lon="0.3073">
        <ele>84.400001525879</ele>
        <time>2020-06-13T21:33:58.326Z</time>
        <extensions>
          <gpxtpx:TrackPointExtension xmlns:gpxtpx="http://www.garmin.com/xmlschemas/TrackPointExtension/v1">
            <gpxtpx:hr>154</gpxtpx:hr>
          </gpxtpx:TrackPointExtension>
        </extensions>
      </trkpt>
      <trkpt lat="46.47717" lon="0.30725">
        <ele>84.400001525879</ele>
        <time>2020-06-13T21:33:59.657Z</time>
        <extensions>
          <gpxtpx:TrackPointExtension xmlns:gpxtpx="http://www.garmin.com/xmlschemas/TrackPointExtension/v1">
            <gpxtpx:hr>154</gpxtpx:hr>
          </gpxtpx:TrackPointExtension>
        </extensions>
      </trkpt>
      <trkpt lat="46.47711" lon="0.3072">
        <ele>84.400001525879</ele>
        <time>2020-06-13T21:34:00.988Z</time>
        <extensions>
          <gpxtpx:TrackPointExtension xmlns:gpxtpx="http://www.garmin.com/xmlschemas/TrackPointExtension/v1">
            <gpxtpx:hr>155</gpxtpx:hr>
          </gpxtpx:TrackPointExtension>
        </extensions>
      </trkpt>
      <trkpt lat="46.47705" lon="0.30714">
        <ele>84.400001525879</ele>
        <time>2020-06-13T21:34:02.390Z</time>
        <extensions>
          <gpxtpx:TrackPointExtension xmlns:gpxtpx="http://www.garmin.com/xmlschemas/TrackPointExtension/v1">
            <gpxtpx:hr>155</gpxtpx:hr>
          </gpxtpx:TrackPointExtension>
        </extensions>
      </trkpt>
      <trkpt lat="46.47699" lon="0.30709">
        <ele>84.199996948242</ele>
        <time>2020-06-13T21:34:03.210Z</time>
        <extensions>
          <gpxtpx:TrackPointExtension xmlns:gpxtpx="http://www.garmin.com/xmlschemas/TrackPointExtension/v1">
            <gpxtpx:hr>156</gpxtpx:hr>
          </gpxtpx:TrackPointExtension>
        </extensions>
      </trkpt>
      <trkpt lat="46.47693" lon="0.30705">
        <ele>84.199996948242</ele>
        <time>2020-06-13T21:34:04.480Z</time>
        <extensions>
          <gpxtpx:TrackPointExtension xmlns:gpxtpx="http://www.garmin.com/xmlschemas/TrackPointExtension/v1">
            <gpxtpx:hr>156</gpxtpx:hr>
          </gpxtpx:TrackPointExtension>
        </extensions>
      </trkpt>
      <trkpt lat="46.47688" lon="0.30701">
        <ele>83.800003051758</ele>
        <time>2020-06-13T21:34:05.008Z</time>
        <extensions>
          <gpxtpx:TrackPointExtension xmlns:gpxtpx="http://www.garmin.com/xmlschemas/TrackPointExtension/v1">
            <gpxtpx:hr>157</gpxtpx:hr>
          </gpxtpx:TrackPointExtension>
        </extensions>
      </trkpt>
      <trkpt lat="46.47683" lon="0.30697">
        <ele>83.800003051758</ele>
        <time>2020-06-13T21:34:06.106Z</time>
        <extensions>
          <gpxtpx:TrackPointExtension xmlns:gpxtpx="http://www.garmin.com/xmlschemas/TrackPointExtension/v1">
            <gpxtpx:hr>157</gpxtpx:hr>
          </gpxtpx:TrackPointExtension>
        </extensions>
      </trkpt>
      <trkpt lat="46.47678" lon="0.30693">
        <ele>83.400001525879</ele>
        <time>2020-06-13T21:34:06.633Z</time>
        <extensions>
          <gpxtpx:TrackPointExtension xmlns:gpxtpx="http://www.garmin.com/xmlschemas/TrackPointExtension/v1">
            <gpxtpx:hr>158</gpxtpx:hr>
          </gpxtpx:TrackPointExtension>
        </extensions>
      </trkpt>
      <trkpt lat="46.47674" lon="0.30689">
        <ele>83.199996948242</ele>
        <time>2020-06-13T21:34:07.143Z</time>
        <extensions>
          <gpxtpx:TrackPointExtension xmlns:gpxtpx="http://www.garmin.com/xmlschemas/TrackPointExtension/v1">
            <gpxtpx:hr>158</gpxtpx:hr>
          </gpxtpx:TrackPointExtension>
        </extensions>
      </trkpt>
      <trkpt lat="46.47667" lon="0.30685">
        <ele>82.800003051758</ele>
        <time>2020-06-13T21:34:07.852Z</time>
        <extensions>
          <gpxtpx:TrackPointExtension xmlns:gpxtpx="http://www.garmin.com/xmlschemas/TrackPointExtension/v1">
            <gpxtpx:hr>159</gpxtpx:hr>
          </gpxtpx:TrackPointExtension>
        </extensions>
      </trkpt>
      <trkpt lat="46.47663" lon="0.30681">
        <ele>82.599998474121</ele>
        <time>2020-06-13T21:34:08.361Z</time>
        <extensions>
          <gpxtpx:TrackPointExtension xmlns:gpxtpx="http://www.garmin.com/xmlschemas/TrackPointExtension/v1">
            <gpxtpx:hr>159</gpxtpx:hr>
          </gpxtpx:TrackPointExtension>
        </extensions>
      </trkpt>
      <trkpt lat="46.47655" lon="0.30676">
        <ele>82.599998474121</ele>
        <time>2020-06-13T21:34:10.037Z</time>
        <extensions>
          <gpxtpx:TrackPointExtension xmlns:gpxtpx="http://www.garmin.com/xmlschemas/TrackPointExtension/v1">
            <gpxtpx:hr>159</gpxtpx:hr>
          </gpxtpx:TrackPointExtension>
        </extensions>
      </trkpt>
      <trkpt lat="46.4765" lon="0.30673">
        <ele>82.400001525879</ele>
        <time>2020-06-13T21:34:10.628Z</time>
        <extensions>
          <gpxtpx:TrackPointExtension xmlns:gpxtpx="http://www.garmin.com/xmlschemas/TrackPointExtension/v1">
            <gpxtpx:hr>159</gpxtpx:hr>
          </gpxtpx:TrackPointExtension>
        </extensions>
      </trkpt>
      <trkpt lat="46.47638" lon="0.30665">
        <ele>82.199996948242</ele>
        <time>2020-06-13T21:34:12.460Z</time>
        <extensions>
          <gpxtpx:TrackPointExtension xmlns:gpxtpx="http://www.garmin.com/xmlschemas/TrackPointExtension/v1">
            <gpxtpx:hr>160</gpxtpx:hr>
          </gpxtpx:TrackPointExtension>
        </extensions>
      </trkpt>
      <trkpt lat="46.47631" lon="0.3066">
        <ele>82</ele>
        <time>2020-06-13T21:34:13.418Z</time>
        <extensions>
          <gpxtpx:TrackPointExtension xmlns:gpxtpx="http://www.garmin.com/xmlschemas/TrackPointExtension/v1">
            <gpxtpx:hr>160</gpxtpx:hr>
          </gpxtpx:TrackPointExtension>
        </extensions>
      </trkpt>
      <trkpt lat="46.47626" lon="0.30657">
        <ele>81.800003051758</ele>
        <time>2020-06-13T21:34:14.009Z</time>
        <extensions>
          <gpxtpx:TrackPointExtension xmlns:gpxtpx="http://www.garmin.com/xmlschemas/TrackPointExtension/v1">
            <gpxtpx:hr>160</gpxtpx:hr>
          </gpxtpx:TrackPointExtension>
        </extensions>
      </trkpt>
      <trkpt lat="46.47602" lon="0.30641">
        <ele>81.800003051758</ele>
        <time>2020-06-13T21:34:19.091Z</time>
        <extensions>
          <gpxtpx:TrackPointExtension xmlns:gpxtpx="http://www.garmin.com/xmlschemas/TrackPointExtension/v1">
            <gpxtpx:hr>160</gpxtpx:hr>
          </gpxtpx:TrackPointExtension>
        </extensions>
      </trkpt>
      <trkpt lat="46.4759" lon="0.30634">
        <ele>82</ele>
        <time>2020-06-13T21:34:21.990Z</time>
        <extensions>
          <gpxtpx:TrackPointExtension xmlns:gpxtpx="http://www.garmin.com/xmlschemas/TrackPointExtension/v1">
            <gpxtpx:hr>160</gpxtpx:hr>
          </gpxtpx:TrackPointExtension>
        </extensions>
      </trkpt>
      <trkpt lat="46.47583" lon="0.3063">
        <ele>81.800003051758</ele>
        <time>2020-06-13T21:34:22.905Z</time>
        <extensions>
          <gpxtpx:TrackPointExtension xmlns:gpxtpx="http://www.garmin.com/xmlschemas/TrackPointExtension/v1">
            <gpxtpx:hr>160</gpxtpx:hr>
          </gpxtpx:TrackPointExtension>
        </extensions>
      </trkpt>
      <trkpt lat="46.47577" lon="0.30626">
        <ele>81.599998474121</ele>
        <time>2020-06-13T21:34:23.676Z</time>
        <extensions>
          <gpxtpx:TrackPointExtension xmlns:gpxtpx="http://www.garmin.com/xmlschemas/TrackPointExtension/v1">
            <gpxtpx:hr>160</gpxtpx:hr>
          </gpxtpx:TrackPointExtension>
        </extensions>
      </trkpt>
      <trkpt lat="46.47571" lon="0.30623">
        <ele>81.599998474121</ele>
        <time>2020-06-13T21:34:24.897Z</time>
        <extensions>
          <gpxtpx:TrackPointExtension xmlns:gpxtpx="http://www.garmin.com/xmlschemas/TrackPointExtension/v1">
            <gpxtpx:hr>160</gpxtpx:hr>
          </gpxtpx:TrackPointExtension>
        </extensions>
      </trkpt>
      <trkpt lat="46.47565" lon="0.3062">
        <ele>81.800003051758</ele>
        <time>2020-06-13T21:34:26.614Z</time>
        <extensions>
          <gpxtpx:TrackPointExtension xmlns:gpxtpx="http://www.garmin.com/xmlschemas/TrackPointExtension/v1">
            <gpxtpx:hr>161</gpxtpx:hr>
          </gpxtpx:TrackPointExtension>
        </extensions>
      </trkpt>
      <trkpt lat="46.47559" lon="0.30616">
        <ele>82</ele>
        <time>2020-06-13T21:34:28.372Z</time>
        <extensions>
          <gpxtpx:TrackPointExtension xmlns:gpxtpx="http://www.garmin.com/xmlschemas/TrackPointExtension/v1">
            <gpxtpx:hr>161</gpxtpx:hr>
          </gpxtpx:TrackPointExtension>
        </extensions>
      </trkpt>
      <trkpt lat="46.47553" lon="0.30612">
        <ele>82</ele>
        <time>2020-06-13T21:34:29.643Z</time>
        <extensions>
          <gpxtpx:TrackPointExtension xmlns:gpxtpx="http://www.garmin.com/xmlschemas/TrackPointExtension/v1">
            <gpxtpx:hr>161</gpxtpx:hr>
          </gpxtpx:TrackPointExtension>
        </extensions>
      </trkpt>
      <trkpt lat="46.47546" lon="0.30607">
        <ele>82.199996948242</ele>
        <time>2020-06-13T21:34:31.605Z</time>
        <extensions>
          <gpxtpx:TrackPointExtension xmlns:gpxtpx="http://www.garmin.com/xmlschemas/TrackPointExtension/v1">
            <gpxtpx:hr>161</gpxtpx:hr>
          </gpxtpx:TrackPointExtension>
        </extensions>
      </trkpt>
      <trkpt lat="46.47527" lon="0.30595">
        <ele>82.199996948242</ele>
        <time>2020-06-13T21:34:35.592Z</time>
        <extensions>
          <gpxtpx:TrackPointExtension xmlns:gpxtpx="http://www.garmin.com/xmlschemas/TrackPointExtension/v1">
            <gpxtpx:hr>162</gpxtpx:hr>
          </gpxtpx:TrackPointExtension>
        </extensions>
      </trkpt>
      <trkpt lat="46.4752" lon="0.3059">
        <ele>82.199996948242</ele>
        <time>2020-06-13T21:34:37.093Z</time>
        <extensions>
          <gpxtpx:TrackPointExtension xmlns:gpxtpx="http://www.garmin.com/xmlschemas/TrackPointExtension/v1">
            <gpxtpx:hr>162</gpxtpx:hr>
          </gpxtpx:TrackPointExtension>
        </extensions>
      </trkpt>
      <trkpt lat="46.47514" lon="0.30587">
        <ele>82.199996948242</ele>
        <time>2020-06-13T21:34:38.314Z</time>
        <extensions>
          <gpxtpx:TrackPointExtension xmlns:gpxtpx="http://www.garmin.com/xmlschemas/TrackPointExtension/v1">
            <gpxtpx:hr>162</gpxtpx:hr>
          </gpxtpx:TrackPointExtension>
        </extensions>
      </trkpt>
      <trkpt lat="46.47506" lon="0.30582">
        <ele>82.199996948242</ele>
        <time>2020-06-13T21:34:39.990Z</time>
        <extensions>
          <gpxtpx:TrackPointExtension xmlns:gpxtpx="http://www.garmin.com/xmlschemas/TrackPointExtension/v1">
            <gpxtpx:hr>162</gpxtpx:hr>
          </gpxtpx:TrackPointExtension>
        </extensions>
      </trkpt>
      <trkpt lat="46.47486" lon="0.30569">
        <ele>82</ele>
        <time>2020-06-13T21:34:43.278Z</time>
        <extensions>
          <gpxtpx:TrackPointExtension xmlns:gpxtpx="http://www.garmin.com/xmlschemas/TrackPointExtension/v1">
            <gpxtpx:hr>163</gpxtpx:hr>
          </gpxtpx:TrackPointExtension>
        </extensions>
      </trkpt>
      <trkpt lat="46.4748" lon="0.30566">
        <ele>82</ele>
        <time>2020-06-13T21:34:44.499Z</time>
        <extensions>
          <gpxtpx:TrackPointExtension xmlns:gpxtpx="http://www.garmin.com/xmlschemas/TrackPointExtension/v1">
            <gpxtpx:hr>163</gpxtpx:hr>
          </gpxtpx:TrackPointExtension>
        </extensions>
      </trkpt>
      <trkpt lat="46.47473" lon="0.30562">
        <ele>82</ele>
        <time>2020-06-13T21:34:45.947Z</time>
        <extensions>
          <gpxtpx:TrackPointExtension xmlns:gpxtpx="http://www.garmin.com/xmlschemas/TrackPointExtension/v1">
            <gpxtpx:hr>163</gpxtpx:hr>
          </gpxtpx:TrackPointExtension>
        </extensions>
      </trkpt>
      <trkpt lat="46.47462" lon="0.30556">
        <ele>82.199996948242</ele>
        <time>2020-06-13T21:34:48.626Z</time>
        <extensions>
          <gpxtpx:TrackPointExtension xmlns:gpxtpx="http://www.garmin.com/xmlschemas/TrackPointExtension/v1">
            <gpxtpx:hr>164</gpxtpx:hr>
          </gpxtpx:TrackPointExtension>
        </extensions>
      </trkpt>
      <trkpt lat="46.47456" lon="0.30553">
        <ele>82.199996948242</ele>
        <time>2020-06-13T21:34:49.847Z</time>
        <extensions>
          <gpxtpx:TrackPointExtension xmlns:gpxtpx="http://www.garmin.com/xmlschemas/TrackPointExtension/v1">
            <gpxtpx:hr>164</gpxtpx:hr>
          </gpxtpx:TrackPointExtension>
        </extensions>
      </trkpt>
      <trkpt lat="46.47448" lon="0.30548">
        <ele>82.199996948242</ele>
        <time>2020-06-13T21:34:51.523Z</time>
        <extensions>
          <gpxtpx:TrackPointExtension xmlns:gpxtpx="http://www.garmin.com/xmlschemas/TrackPointExtension/v1">
            <gpxtpx:hr>164</gpxtpx:hr>
          </gpxtpx:TrackPointExtension>
        </extensions>
      </trkpt>
      <trkpt lat="46.47441" lon="0.30545">
        <ele>82</ele>
        <time>2020-06-13T21:34:52.402Z</time>
        <extensions>
          <gpxtpx:TrackPointExtension xmlns:gpxtpx="http://www.garmin.com/xmlschemas/TrackPointExtension/v1">
            <gpxtpx:hr>164</gpxtpx:hr>
          </gpxtpx:TrackPointExtension>
        </extensions>
      </trkpt>
      <trkpt lat="46.47426" lon="0.30536">
        <ele>82</ele>
        <time>2020-06-13T21:34:55.525Z</time>
        <extensions>
          <gpxtpx:TrackPointExtension xmlns:gpxtpx="http://www.garmin.com/xmlschemas/TrackPointExtension/v1">
            <gpxtpx:hr>164</gpxtpx:hr>
          </gpxtpx:TrackPointExtension>
        </extensions>
      </trkpt>
      <trkpt lat="46.47419" lon="0.30532">
        <ele>82</ele>
        <time>2020-06-13T21:34:56.973Z</time>
        <extensions>
          <gpxtpx:TrackPointExtension xmlns:gpxtpx="http://www.garmin.com/xmlschemas/TrackPointExtension/v1">
            <gpxtpx:hr>164</gpxtpx:hr>
          </gpxtpx:TrackPointExtension>
        </extensions>
      </trkpt>
      <trkpt lat="46.47412" lon="0.30529">
        <ele>82.400001525879</ele>
        <time>2020-06-13T21:34:59.509Z</time>
        <extensions>
          <gpxtpx:TrackPointExtension xmlns:gpxtpx="http://www.garmin.com/xmlschemas/TrackPointExtension/v1">
            <gpxtpx:hr>164</gpxtpx:hr>
          </gpxtpx:TrackPointExtension>
        </extensions>
      </trkpt>
      <trkpt lat="46.47382" lon="0.30511">
        <ele>82.599998474121</ele>
        <time>2020-06-13T21:35:06.129Z</time>
        <extensions>
          <gpxtpx:TrackPointExtension xmlns:gpxtpx="http://www.garmin.com/xmlschemas/TrackPointExtension/v1">
            <gpxtpx:hr>164</gpxtpx:hr>
          </gpxtpx:TrackPointExtension>
        </extensions>
      </trkpt>
      <trkpt lat="46.47376" lon="0.30506">
        <ele>82.800003051758</ele>
        <time>2020-06-13T21:35:07.940Z</time>
        <extensions>
          <gpxtpx:TrackPointExtension xmlns:gpxtpx="http://www.garmin.com/xmlschemas/TrackPointExtension/v1">
            <gpxtpx:hr>164</gpxtpx:hr>
          </gpxtpx:TrackPointExtension>
        </extensions>
      </trkpt>
      <trkpt lat="46.4737" lon="0.305">
        <ele>83</ele>
        <time>2020-06-13T21:35:09.813Z</time>
        <extensions>
          <gpxtpx:TrackPointExtension xmlns:gpxtpx="http://www.garmin.com/xmlschemas/TrackPointExtension/v1">
            <gpxtpx:hr>164</gpxtpx:hr>
          </gpxtpx:TrackPointExtension>
        </extensions>
      </trkpt>
      <trkpt lat="46.47366" lon="0.30495">
        <ele>83.199996948242</ele>
        <time>2020-06-13T21:35:11.368Z</time>
        <extensions>
          <gpxtpx:TrackPointExtension xmlns:gpxtpx="http://www.garmin.com/xmlschemas/TrackPointExtension/v1">
            <gpxtpx:hr>164</gpxtpx:hr>
          </gpxtpx:TrackPointExtension>
        </extensions>
      </trkpt>
      <trkpt lat="46.4736" lon="0.30491">
        <ele>83.400001525879</ele>
        <time>2020-06-13T21:35:13.127Z</time>
        <extensions>
          <gpxtpx:TrackPointExtension xmlns:gpxtpx="http://www.garmin.com/xmlschemas/TrackPointExtension/v1">
            <gpxtpx:hr>163</gpxtpx:hr>
          </gpxtpx:TrackPointExtension>
        </extensions>
      </trkpt>
      <trkpt lat="46.47354" lon="0.30488">
        <ele>83.599998474121</ele>
        <time>2020-06-13T21:35:14.843Z</time>
        <extensions>
          <gpxtpx:TrackPointExtension xmlns:gpxtpx="http://www.garmin.com/xmlschemas/TrackPointExtension/v1">
            <gpxtpx:hr>163</gpxtpx:hr>
          </gpxtpx:TrackPointExtension>
        </extensions>
      </trkpt>
      <trkpt lat="46.47347" lon="0.30485">
        <ele>83.800003051758</ele>
        <time>2020-06-13T21:35:16.719Z</time>
        <extensions>
          <gpxtpx:TrackPointExtension xmlns:gpxtpx="http://www.garmin.com/xmlschemas/TrackPointExtension/v1">
            <gpxtpx:hr>163</gpxtpx:hr>
          </gpxtpx:TrackPointExtension>
        </extensions>
      </trkpt>
      <trkpt lat="46.47342" lon="0.30486">
        <ele>83.800003051758</ele>
        <time>2020-06-13T21:35:17.690Z</time>
        <extensions>
          <gpxtpx:TrackPointExtension xmlns:gpxtpx="http://www.garmin.com/xmlschemas/TrackPointExtension/v1">
            <gpxtpx:hr>163</gpxtpx:hr>
          </gpxtpx:TrackPointExtension>
        </extensions>
      </trkpt>
      <trkpt lat="46.47336" lon="0.30485">
        <ele>83.800003051758</ele>
        <time>2020-06-13T21:35:18.852Z</time>
        <extensions>
          <gpxtpx:TrackPointExtension xmlns:gpxtpx="http://www.garmin.com/xmlschemas/TrackPointExtension/v1">
            <gpxtpx:hr>163</gpxtpx:hr>
          </gpxtpx:TrackPointExtension>
        </extensions>
      </trkpt>
      <trkpt lat="46.47329" lon="0.30485">
        <ele>83.800003051758</ele>
        <time>2020-06-13T21:35:20.199Z</time>
        <extensions>
          <gpxtpx:TrackPointExtension xmlns:gpxtpx="http://www.garmin.com/xmlschemas/TrackPointExtension/v1">
            <gpxtpx:hr>162</gpxtpx:hr>
          </gpxtpx:TrackPointExtension>
        </extensions>
      </trkpt>
      <trkpt lat="46.47322" lon="0.30484">
        <ele>83.800003051758</ele>
        <time>2020-06-13T21:35:21.553Z</time>
        <extensions>
          <gpxtpx:TrackPointExtension xmlns:gpxtpx="http://www.garmin.com/xmlschemas/TrackPointExtension/v1">
            <gpxtpx:hr>162</gpxtpx:hr>
          </gpxtpx:TrackPointExtension>
        </extensions>
      </trkpt>
      <trkpt lat="46.47316" lon="0.30482">
        <ele>83.800003051758</ele>
        <time>2020-06-13T21:35:22.737Z</time>
        <extensions>
          <gpxtpx:TrackPointExtension xmlns:gpxtpx="http://www.garmin.com/xmlschemas/TrackPointExtension/v1">
            <gpxtpx:hr>162</gpxtpx:hr>
          </gpxtpx:TrackPointExtension>
        </extensions>
      </trkpt>
      <trkpt lat="46.47309" lon="0.3048">
        <ele>83.800003051758</ele>
        <time>2020-06-13T21:35:24.110Z</time>
        <extensions>
          <gpxtpx:TrackPointExtension xmlns:gpxtpx="http://www.garmin.com/xmlschemas/TrackPointExtension/v1">
            <gpxtpx:hr>162</gpxtpx:hr>
          </gpxtpx:TrackPointExtension>
        </extensions>
      </trkpt>
      <trkpt lat="46.47302" lon="0.30477">
        <ele>83.800003051758</ele>
        <time>2020-06-13T21:35:25.515Z</time>
        <extensions>
          <gpxtpx:TrackPointExtension xmlns:gpxtpx="http://www.garmin.com/xmlschemas/TrackPointExtension/v1">
            <gpxtpx:hr>161</gpxtpx:hr>
          </gpxtpx:TrackPointExtension>
        </extensions>
      </trkpt>
      <trkpt lat="46.47296" lon="0.30474">
        <ele>83.800003051758</ele>
        <time>2020-06-13T21:35:26.736Z</time>
        <extensions>
          <gpxtpx:TrackPointExtension xmlns:gpxtpx="http://www.garmin.com/xmlschemas/TrackPointExtension/v1">
            <gpxtpx:hr>161</gpxtpx:hr>
          </gpxtpx:TrackPointExtension>
        </extensions>
      </trkpt>
      <trkpt lat="46.47289" lon="0.30472">
        <ele>83.800003051758</ele>
        <time>2020-06-13T21:35:28.109Z</time>
        <extensions>
          <gpxtpx:TrackPointExtension xmlns:gpxtpx="http://www.garmin.com/xmlschemas/TrackPointExtension/v1">
            <gpxtpx:hr>160</gpxtpx:hr>
          </gpxtpx:TrackPointExtension>
        </extensions>
      </trkpt>
      <trkpt lat="46.47264" lon="0.30462">
        <ele>83.800003051758</ele>
        <time>2020-06-13T21:35:33.099Z</time>
        <extensions>
          <gpxtpx:TrackPointExtension xmlns:gpxtpx="http://www.garmin.com/xmlschemas/TrackPointExtension/v1">
            <gpxtpx:hr>159</gpxtpx:hr>
          </gpxtpx:TrackPointExtension>
        </extensions>
      </trkpt>
      <trkpt lat="46.47246" lon="0.30455">
        <ele>83.800003051758</ele>
        <time>2020-06-13T21:35:36.685Z</time>
        <extensions>
          <gpxtpx:TrackPointExtension xmlns:gpxtpx="http://www.garmin.com/xmlschemas/TrackPointExtension/v1">
            <gpxtpx:hr>158</gpxtpx:hr>
          </gpxtpx:TrackPointExtension>
        </extensions>
      </trkpt>
      <trkpt lat="46.47239" lon="0.30453">
        <ele>83.800003051758</ele>
        <time>2020-06-13T21:35:38.058Z</time>
        <extensions>
          <gpxtpx:TrackPointExtension xmlns:gpxtpx="http://www.garmin.com/xmlschemas/TrackPointExtension/v1">
            <gpxtpx:hr>158</gpxtpx:hr>
          </gpxtpx:TrackPointExtension>
        </extensions>
      </trkpt>
      <trkpt lat="46.47233" lon="0.3045">
        <ele>83.800003051758</ele>
        <time>2020-06-13T21:35:39.279Z</time>
        <extensions>
          <gpxtpx:TrackPointExtension xmlns:gpxtpx="http://www.garmin.com/xmlschemas/TrackPointExtension/v1">
            <gpxtpx:hr>158</gpxtpx:hr>
          </gpxtpx:TrackPointExtension>
        </extensions>
      </trkpt>
      <trkpt lat="46.47227" lon="0.30448">
        <ele>83.800003051758</ele>
        <time>2020-06-13T21:35:40.464Z</time>
        <extensions>
          <gpxtpx:TrackPointExtension xmlns:gpxtpx="http://www.garmin.com/xmlschemas/TrackPointExtension/v1">
            <gpxtpx:hr>158</gpxtpx:hr>
          </gpxtpx:TrackPointExtension>
        </extensions>
      </trkpt>
      <trkpt lat="46.4722" lon="0.30446">
        <ele>83.800003051758</ele>
        <time>2020-06-13T21:35:41.837Z</time>
        <extensions>
          <gpxtpx:TrackPointExtension xmlns:gpxtpx="http://www.garmin.com/xmlschemas/TrackPointExtension/v1">
            <gpxtpx:hr>158</gpxtpx:hr>
          </gpxtpx:TrackPointExtension>
        </extensions>
      </trkpt>
      <trkpt lat="46.47214" lon="0.30443">
        <ele>83.800003051758</ele>
        <time>2020-06-13T21:35:43.058Z</time>
        <extensions>
          <gpxtpx:TrackPointExtension xmlns:gpxtpx="http://www.garmin.com/xmlschemas/TrackPointExtension/v1">
            <gpxtpx:hr>158</gpxtpx:hr>
          </gpxtpx:TrackPointExtension>
        </extensions>
      </trkpt>
      <trkpt lat="46.47207" lon="0.30441">
        <ele>84</ele>
        <time>2020-06-13T21:35:44.905Z</time>
        <extensions>
          <gpxtpx:TrackPointExtension xmlns:gpxtpx="http://www.garmin.com/xmlschemas/TrackPointExtension/v1">
            <gpxtpx:hr>158</gpxtpx:hr>
          </gpxtpx:TrackPointExtension>
        </extensions>
      </trkpt>
      <trkpt lat="46.47195" lon="0.30437">
        <ele>84.400001525879</ele>
        <time>2020-06-13T21:35:48.278Z</time>
        <extensions>
          <gpxtpx:TrackPointExtension xmlns:gpxtpx="http://www.garmin.com/xmlschemas/TrackPointExtension/v1">
            <gpxtpx:hr>157</gpxtpx:hr>
          </gpxtpx:TrackPointExtension>
        </extensions>
      </trkpt>
      <trkpt lat="46.47182" lon="0.30432">
        <ele>85</ele>
        <time>2020-06-13T21:35:52.649Z</time>
        <extensions>
          <gpxtpx:TrackPointExtension xmlns:gpxtpx="http://www.garmin.com/xmlschemas/TrackPointExtension/v1">
            <gpxtpx:hr>157</gpxtpx:hr>
          </gpxtpx:TrackPointExtension>
        </extensions>
      </trkpt>
      <trkpt lat="46.47177" lon="0.3043">
        <ele>85</ele>
        <time>2020-06-13T21:35:53.647Z</time>
        <extensions>
          <gpxtpx:TrackPointExtension xmlns:gpxtpx="http://www.garmin.com/xmlschemas/TrackPointExtension/v1">
            <gpxtpx:hr>157</gpxtpx:hr>
          </gpxtpx:TrackPointExtension>
        </extensions>
      </trkpt>
      <trkpt lat="46.47172" lon="0.30431">
        <ele>85.199996948242</ele>
        <time>2020-06-13T21:35:55.172Z</time>
        <extensions>
          <gpxtpx:TrackPointExtension xmlns:gpxtpx="http://www.garmin.com/xmlschemas/TrackPointExtension/v1">
            <gpxtpx:hr>157</gpxtpx:hr>
          </gpxtpx:TrackPointExtension>
        </extensions>
      </trkpt>
      <trkpt lat="46.47167" lon="0.30435">
        <ele>85.199996948242</ele>
        <time>2020-06-13T21:35:56.270Z</time>
        <extensions>
          <gpxtpx:TrackPointExtension xmlns:gpxtpx="http://www.garmin.com/xmlschemas/TrackPointExtension/v1">
            <gpxtpx:hr>157</gpxtpx:hr>
          </gpxtpx:TrackPointExtension>
        </extensions>
      </trkpt>
      <trkpt lat="46.47164" lon="0.30438">
        <ele>85.400001525879</ele>
        <time>2020-06-13T21:35:57.537Z</time>
        <extensions>
          <gpxtpx:TrackPointExtension xmlns:gpxtpx="http://www.garmin.com/xmlschemas/TrackPointExtension/v1">
            <gpxtpx:hr>157</gpxtpx:hr>
          </gpxtpx:TrackPointExtension>
        </extensions>
      </trkpt>
      <trkpt lat="46.47161" lon="0.30443">
        <ele>85.599998474121</ele>
        <time>2020-06-13T21:35:59.004Z</time>
        <extensions>
          <gpxtpx:TrackPointExtension xmlns:gpxtpx="http://www.garmin.com/xmlschemas/TrackPointExtension/v1">
            <gpxtpx:hr>157</gpxtpx:hr>
          </gpxtpx:TrackPointExtension>
        </extensions>
      </trkpt>
      <trkpt lat="46.47158" lon="0.30448">
        <ele>85.599998474121</ele>
        <time>2020-06-13T21:35:59.883Z</time>
        <extensions>
          <gpxtpx:TrackPointExtension xmlns:gpxtpx="http://www.garmin.com/xmlschemas/TrackPointExtension/v1">
            <gpxtpx:hr>157</gpxtpx:hr>
          </gpxtpx:TrackPointExtension>
        </extensions>
      </trkpt>
      <trkpt lat="46.47156" lon="0.30453">
        <ele>85.599998474121</ele>
        <time>2020-06-13T21:36:00.650Z</time>
        <extensions>
          <gpxtpx:TrackPointExtension xmlns:gpxtpx="http://www.garmin.com/xmlschemas/TrackPointExtension/v1">
            <gpxtpx:hr>157</gpxtpx:hr>
          </gpxtpx:TrackPointExtension>
        </extensions>
      </trkpt>
      <trkpt lat="46.47156" lon="0.30458">
        <ele>85.800003051758</ele>
        <time>2020-06-13T21:36:01.873Z</time>
        <extensions>
          <gpxtpx:TrackPointExtension xmlns:gpxtpx="http://www.garmin.com/xmlschemas/TrackPointExtension/v1">
            <gpxtpx:hr>156</gpxtpx:hr>
          </gpxtpx:TrackPointExtension>
        </extensions>
      </trkpt>
      <trkpt lat="46.47159" lon="0.3046">
        <ele>85.599998474121</ele>
        <time>2020-06-13T21:36:02.166Z</time>
        <extensions>
          <gpxtpx:TrackPointExtension xmlns:gpxtpx="http://www.garmin.com/xmlschemas/TrackPointExtension/v1">
            <gpxtpx:hr>156</gpxtpx:hr>
          </gpxtpx:TrackPointExtension>
        </extensions>
      </trkpt>
      <trkpt lat="46.47162" lon="0.30462">
        <ele>85.400001525879</ele>
        <time>2020-06-13T21:36:02.459Z</time>
        <extensions>
          <gpxtpx:TrackPointExtension xmlns:gpxtpx="http://www.garmin.com/xmlschemas/TrackPointExtension/v1">
            <gpxtpx:hr>156</gpxtpx:hr>
          </gpxtpx:TrackPointExtension>
        </extensions>
      </trkpt>
      <trkpt lat="46.47168" lon="0.30463">
        <ele>85.400001525879</ele>
        <time>2020-06-13T21:36:03.621Z</time>
        <extensions>
          <gpxtpx:TrackPointExtension xmlns:gpxtpx="http://www.garmin.com/xmlschemas/TrackPointExtension/v1">
            <gpxtpx:hr>156</gpxtpx:hr>
          </gpxtpx:TrackPointExtension>
        </extensions>
      </trkpt>
      <trkpt lat="46.47188" lon="0.30471">
        <ele>85.199996948242</ele>
        <time>2020-06-13T21:36:06.712Z</time>
        <extensions>
          <gpxtpx:TrackPointExtension xmlns:gpxtpx="http://www.garmin.com/xmlschemas/TrackPointExtension/v1">
            <gpxtpx:hr>154</gpxtpx:hr>
          </gpxtpx:TrackPointExtension>
        </extensions>
      </trkpt>
      <trkpt lat="46.47193" lon="0.30475">
        <ele>85.400001525879</ele>
        <time>2020-06-13T21:36:08.330Z</time>
        <extensions>
          <gpxtpx:TrackPointExtension xmlns:gpxtpx="http://www.garmin.com/xmlschemas/TrackPointExtension/v1">
            <gpxtpx:hr>153</gpxtpx:hr>
          </gpxtpx:TrackPointExtension>
        </extensions>
      </trkpt>
      <trkpt lat="46.472" lon="0.3048">
        <ele>85.400001525879</ele>
        <time>2020-06-13T21:36:09.831Z</time>
        <extensions>
          <gpxtpx:TrackPointExtension xmlns:gpxtpx="http://www.garmin.com/xmlschemas/TrackPointExtension/v1">
            <gpxtpx:hr>153</gpxtpx:hr>
          </gpxtpx:TrackPointExtension>
        </extensions>
      </trkpt>
      <trkpt lat="46.47204" lon="0.30484">
        <ele>85.400001525879</ele>
        <time>2020-06-13T21:36:10.766Z</time>
        <extensions>
          <gpxtpx:TrackPointExtension xmlns:gpxtpx="http://www.garmin.com/xmlschemas/TrackPointExtension/v1">
            <gpxtpx:hr>152</gpxtpx:hr>
          </gpxtpx:TrackPointExtension>
        </extensions>
      </trkpt>
      <trkpt lat="46.4722" lon="0.305">
        <ele>85.199996948242</ele>
        <time>2020-06-13T21:36:13.636Z</time>
        <extensions>
          <gpxtpx:TrackPointExtension xmlns:gpxtpx="http://www.garmin.com/xmlschemas/TrackPointExtension/v1">
            <gpxtpx:hr>150</gpxtpx:hr>
          </gpxtpx:TrackPointExtension>
        </extensions>
      </trkpt>
      <trkpt lat="46.47225" lon="0.30505">
        <ele>85.199996948242</ele>
        <time>2020-06-13T21:36:14.804Z</time>
        <extensions>
          <gpxtpx:TrackPointExtension xmlns:gpxtpx="http://www.garmin.com/xmlschemas/TrackPointExtension/v1">
            <gpxtpx:hr>150</gpxtpx:hr>
          </gpxtpx:TrackPointExtension>
        </extensions>
      </trkpt>
      <trkpt lat="46.47247" lon="0.30525">
        <ele>84.800003051758</ele>
        <time>2020-06-13T21:36:18.395Z</time>
        <extensions>
          <gpxtpx:TrackPointExtension xmlns:gpxtpx="http://www.garmin.com/xmlschemas/TrackPointExtension/v1">
            <gpxtpx:hr>151</gpxtpx:hr>
          </gpxtpx:TrackPointExtension>
        </extensions>
      </trkpt>
      <trkpt lat="46.47253" lon="0.30529">
        <ele>85</ele>
        <time>2020-06-13T21:36:20.154Z</time>
        <extensions>
          <gpxtpx:TrackPointExtension xmlns:gpxtpx="http://www.garmin.com/xmlschemas/TrackPointExtension/v1">
            <gpxtpx:hr>152</gpxtpx:hr>
          </gpxtpx:TrackPointExtension>
        </extensions>
      </trkpt>
      <trkpt lat="46.47259" lon="0.30532">
        <ele>85.199996948242</ele>
        <time>2020-06-13T21:36:21.870Z</time>
        <extensions>
          <gpxtpx:TrackPointExtension xmlns:gpxtpx="http://www.garmin.com/xmlschemas/TrackPointExtension/v1">
            <gpxtpx:hr>152</gpxtpx:hr>
          </gpxtpx:TrackPointExtension>
        </extensions>
      </trkpt>
      <trkpt lat="46.47284" lon="0.30538">
        <ele>86.599998474121</ele>
        <time>2020-06-13T21:36:30.700Z</time>
        <extensions>
          <gpxtpx:TrackPointExtension xmlns:gpxtpx="http://www.garmin.com/xmlschemas/TrackPointExtension/v1">
            <gpxtpx:hr>154</gpxtpx:hr>
          </gpxtpx:TrackPointExtension>
        </extensions>
      </trkpt>
      <trkpt lat="46.4729" lon="0.30538">
        <ele>87</ele>
        <time>2020-06-13T21:36:32.967Z</time>
        <extensions>
          <gpxtpx:TrackPointExtension xmlns:gpxtpx="http://www.garmin.com/xmlschemas/TrackPointExtension/v1">
            <gpxtpx:hr>154</gpxtpx:hr>
          </gpxtpx:TrackPointExtension>
        </extensions>
      </trkpt>
      <trkpt lat="46.47296" lon="0.30538">
        <ele>87</ele>
        <time>2020-06-13T21:36:34.122Z</time>
        <extensions>
          <gpxtpx:TrackPointExtension xmlns:gpxtpx="http://www.garmin.com/xmlschemas/TrackPointExtension/v1">
            <gpxtpx:hr>155</gpxtpx:hr>
          </gpxtpx:TrackPointExtension>
        </extensions>
      </trkpt>
      <trkpt lat="46.47302" lon="0.30537">
        <ele>87.400001525879</ele>
        <time>2020-06-13T21:36:36.396Z</time>
        <extensions>
          <gpxtpx:TrackPointExtension xmlns:gpxtpx="http://www.garmin.com/xmlschemas/TrackPointExtension/v1">
            <gpxtpx:hr>155</gpxtpx:hr>
          </gpxtpx:TrackPointExtension>
        </extensions>
      </trkpt>
      <trkpt lat="46.47308" lon="0.30535">
        <ele>87.599998474121</ele>
        <time>2020-06-13T21:36:38.082Z</time>
        <extensions>
          <gpxtpx:TrackPointExtension xmlns:gpxtpx="http://www.garmin.com/xmlschemas/TrackPointExtension/v1">
            <gpxtpx:hr>156</gpxtpx:hr>
          </gpxtpx:TrackPointExtension>
        </extensions>
      </trkpt>
      <trkpt lat="46.47314" lon="0.30533">
        <ele>88.199996948242</ele>
        <time>2020-06-13T21:36:41.089Z</time>
        <extensions>
          <gpxtpx:TrackPointExtension xmlns:gpxtpx="http://www.garmin.com/xmlschemas/TrackPointExtension/v1">
            <gpxtpx:hr>156</gpxtpx:hr>
          </gpxtpx:TrackPointExtension>
        </extensions>
      </trkpt>
      <trkpt lat="46.4732" lon="0.3053">
        <ele>88.599998474121</ele>
        <time>2020-06-13T21:36:43.423Z</time>
        <extensions>
          <gpxtpx:TrackPointExtension xmlns:gpxtpx="http://www.garmin.com/xmlschemas/TrackPointExtension/v1">
            <gpxtpx:hr>157</gpxtpx:hr>
          </gpxtpx:TrackPointExtension>
        </extensions>
      </trkpt>
      <trkpt lat="46.47326" lon="0.30526">
        <ele>88.800003051758</ele>
        <time>2020-06-13T21:36:45.182Z</time>
        <extensions>
          <gpxtpx:TrackPointExtension xmlns:gpxtpx="http://www.garmin.com/xmlschemas/TrackPointExtension/v1">
            <gpxtpx:hr>157</gpxtpx:hr>
          </gpxtpx:TrackPointExtension>
        </extensions>
      </trkpt>
      <trkpt lat="46.47332" lon="0.30522">
        <ele>89.199996948242</ele>
        <time>2020-06-13T21:36:47.569Z</time>
        <extensions>
          <gpxtpx:TrackPointExtension xmlns:gpxtpx="http://www.garmin.com/xmlschemas/TrackPointExtension/v1">
            <gpxtpx:hr>158</gpxtpx:hr>
          </gpxtpx:TrackPointExtension>
        </extensions>
      </trkpt>
      <trkpt lat="46.47337" lon="0.30517">
        <ele>89.400001525879</ele>
        <time>2020-06-13T21:36:49.242Z</time>
        <extensions>
          <gpxtpx:TrackPointExtension xmlns:gpxtpx="http://www.garmin.com/xmlschemas/TrackPointExtension/v1">
            <gpxtpx:hr>158</gpxtpx:hr>
          </gpxtpx:TrackPointExtension>
        </extensions>
      </trkpt>
      <trkpt lat="46.47342" lon="0.30513">
        <ele>89.800003051758</ele>
        <time>2020-06-13T21:36:51.454Z</time>
        <extensions>
          <gpxtpx:TrackPointExtension xmlns:gpxtpx="http://www.garmin.com/xmlschemas/TrackPointExtension/v1">
            <gpxtpx:hr>159</gpxtpx:hr>
          </gpxtpx:TrackPointExtension>
        </extensions>
      </trkpt>
      <trkpt lat="46.47348" lon="0.30507">
        <ele>90</ele>
        <time>2020-06-13T21:36:53.327Z</time>
        <extensions>
          <gpxtpx:TrackPointExtension xmlns:gpxtpx="http://www.garmin.com/xmlschemas/TrackPointExtension/v1">
            <gpxtpx:hr>159</gpxtpx:hr>
          </gpxtpx:TrackPointExtension>
        </extensions>
      </trkpt>
      <trkpt lat="46.47352" lon="0.30501">
        <ele>90.400001525879</ele>
        <time>2020-06-13T21:36:55.546Z</time>
        <extensions>
          <gpxtpx:TrackPointExtension xmlns:gpxtpx="http://www.garmin.com/xmlschemas/TrackPointExtension/v1">
            <gpxtpx:hr>159</gpxtpx:hr>
          </gpxtpx:TrackPointExtension>
        </extensions>
      </trkpt>
      <trkpt lat="46.47357" lon="0.30495">
        <ele>90.599998474121</ele>
        <time>2020-06-13T21:36:57.286Z</time>
        <extensions>
          <gpxtpx:TrackPointExtension xmlns:gpxtpx="http://www.garmin.com/xmlschemas/TrackPointExtension/v1">
            <gpxtpx:hr>159</gpxtpx:hr>
          </gpxtpx:TrackPointExtension>
        </extensions>
      </trkpt>
      <trkpt lat="46.47361" lon="0.30488">
        <ele>90.800003051758</ele>
        <time>2020-06-13T21:36:58.989Z</time>
        <extensions>
          <gpxtpx:TrackPointExtension xmlns:gpxtpx="http://www.garmin.com/xmlschemas/TrackPointExtension/v1">
            <gpxtpx:hr>160</gpxtpx:hr>
          </gpxtpx:TrackPointExtension>
        </extensions>
      </trkpt>
      <trkpt lat="46.47366" lon="0.30482">
        <ele>91</ele>
        <time>2020-06-13T21:37:00.729Z</time>
        <extensions>
          <gpxtpx:TrackPointExtension xmlns:gpxtpx="http://www.garmin.com/xmlschemas/TrackPointExtension/v1">
            <gpxtpx:hr>160</gpxtpx:hr>
          </gpxtpx:TrackPointExtension>
        </extensions>
      </trkpt>
      <trkpt lat="46.4737" lon="0.30476">
        <ele>91</ele>
        <time>2020-06-13T21:37:01.836Z</time>
        <extensions>
          <gpxtpx:TrackPointExtension xmlns:gpxtpx="http://www.garmin.com/xmlschemas/TrackPointExtension/v1">
            <gpxtpx:hr>161</gpxtpx:hr>
          </gpxtpx:TrackPointExtension>
        </extensions>
      </trkpt>
      <trkpt lat="46.47374" lon="0.30469">
        <ele>91.400001525879</ele>
        <time>2020-06-13T21:37:04.154Z</time>
        <extensions>
          <gpxtpx:TrackPointExtension xmlns:gpxtpx="http://www.garmin.com/xmlschemas/TrackPointExtension/v1">
            <gpxtpx:hr>161</gpxtpx:hr>
          </gpxtpx:TrackPointExtension>
        </extensions>
      </trkpt>
      <trkpt lat="46.47378" lon="0.30462">
        <ele>91.599998474121</ele>
        <time>2020-06-13T21:37:05.858Z</time>
        <extensions>
          <gpxtpx:TrackPointExtension xmlns:gpxtpx="http://www.garmin.com/xmlschemas/TrackPointExtension/v1">
            <gpxtpx:hr>162</gpxtpx:hr>
          </gpxtpx:TrackPointExtension>
        </extensions>
      </trkpt>
      <trkpt lat="46.47382" lon="0.30456">
        <ele>91.800003051758</ele>
        <time>2020-06-13T21:37:07.482Z</time>
        <extensions>
          <gpxtpx:TrackPointExtension xmlns:gpxtpx="http://www.garmin.com/xmlschemas/TrackPointExtension/v1">
            <gpxtpx:hr>162</gpxtpx:hr>
          </gpxtpx:TrackPointExtension>
        </extensions>
      </trkpt>
      <trkpt lat="46.47387" lon="0.30449">
        <ele>92</ele>
        <time>2020-06-13T21:37:09.297Z</time>
        <extensions>
          <gpxtpx:TrackPointExtension xmlns:gpxtpx="http://www.garmin.com/xmlschemas/TrackPointExtension/v1">
            <gpxtpx:hr>163</gpxtpx:hr>
          </gpxtpx:TrackPointExtension>
        </extensions>
      </trkpt>
      <trkpt lat="46.47391" lon="0.30442">
        <ele>92.199996948242</ele>
        <time>2020-06-13T21:37:11.001Z</time>
        <extensions>
          <gpxtpx:TrackPointExtension xmlns:gpxtpx="http://www.garmin.com/xmlschemas/TrackPointExtension/v1">
            <gpxtpx:hr>163</gpxtpx:hr>
          </gpxtpx:TrackPointExtension>
        </extensions>
      </trkpt>
      <trkpt lat="46.47395" lon="0.30436">
        <ele>92.400001525879</ele>
        <time>2020-06-13T21:37:12.625Z</time>
        <extensions>
          <gpxtpx:TrackPointExtension xmlns:gpxtpx="http://www.garmin.com/xmlschemas/TrackPointExtension/v1">
            <gpxtpx:hr>163</gpxtpx:hr>
          </gpxtpx:TrackPointExtension>
        </extensions>
      </trkpt>
      <trkpt lat="46.474" lon="0.3043">
        <ele>92.400001525879</ele>
        <time>2020-06-13T21:37:13.873Z</time>
        <extensions>
          <gpxtpx:TrackPointExtension xmlns:gpxtpx="http://www.garmin.com/xmlschemas/TrackPointExtension/v1">
            <gpxtpx:hr>163</gpxtpx:hr>
          </gpxtpx:TrackPointExtension>
        </extensions>
      </trkpt>
      <trkpt lat="46.47404" lon="0.30423">
        <ele>92.800003051758</ele>
        <time>2020-06-13T21:37:16.191Z</time>
        <extensions>
          <gpxtpx:TrackPointExtension xmlns:gpxtpx="http://www.garmin.com/xmlschemas/TrackPointExtension/v1">
            <gpxtpx:hr>163</gpxtpx:hr>
          </gpxtpx:TrackPointExtension>
        </extensions>
      </trkpt>
      <trkpt lat="46.47408" lon="0.30417">
        <ele>93</ele>
        <time>2020-06-13T21:37:17.815Z</time>
        <extensions>
          <gpxtpx:TrackPointExtension xmlns:gpxtpx="http://www.garmin.com/xmlschemas/TrackPointExtension/v1">
            <gpxtpx:hr>163</gpxtpx:hr>
          </gpxtpx:TrackPointExtension>
        </extensions>
      </trkpt>
      <trkpt lat="46.47412" lon="0.3041">
        <ele>93.199996948242</ele>
        <time>2020-06-13T21:37:19.519Z</time>
        <extensions>
          <gpxtpx:TrackPointExtension xmlns:gpxtpx="http://www.garmin.com/xmlschemas/TrackPointExtension/v1">
            <gpxtpx:hr>163</gpxtpx:hr>
          </gpxtpx:TrackPointExtension>
        </extensions>
      </trkpt>
      <trkpt lat="46.47414" lon="0.30403">
        <ele>93.400001525879</ele>
        <time>2020-06-13T21:37:21.067Z</time>
        <extensions>
          <gpxtpx:TrackPointExtension xmlns:gpxtpx="http://www.garmin.com/xmlschemas/TrackPointExtension/v1">
            <gpxtpx:hr>163</gpxtpx:hr>
          </gpxtpx:TrackPointExtension>
        </extensions>
      </trkpt>
      <trkpt lat="46.47414" lon="0.30396">
        <ele>93.599998474121</ele>
        <time>2020-06-13T21:37:22.563Z</time>
        <extensions>
          <gpxtpx:TrackPointExtension xmlns:gpxtpx="http://www.garmin.com/xmlschemas/TrackPointExtension/v1">
            <gpxtpx:hr>164</gpxtpx:hr>
          </gpxtpx:TrackPointExtension>
        </extensions>
      </trkpt>
      <trkpt lat="46.47412" lon="0.30389">
        <ele>93.800003051758</ele>
        <time>2020-06-13T21:37:24.111Z</time>
        <extensions>
          <gpxtpx:TrackPointExtension xmlns:gpxtpx="http://www.garmin.com/xmlschemas/TrackPointExtension/v1">
            <gpxtpx:hr>164</gpxtpx:hr>
          </gpxtpx:TrackPointExtension>
        </extensions>
      </trkpt>
      <trkpt lat="46.47408" lon="0.30384">
        <ele>93.800003051758</ele>
        <time>2020-06-13T21:37:25.126Z</time>
        <extensions>
          <gpxtpx:TrackPointExtension xmlns:gpxtpx="http://www.garmin.com/xmlschemas/TrackPointExtension/v1">
            <gpxtpx:hr>164</gpxtpx:hr>
          </gpxtpx:TrackPointExtension>
        </extensions>
      </trkpt>
      <trkpt lat="46.47402" lon="0.30379">
        <ele>93.800003051758</ele>
        <time>2020-06-13T21:37:26.458Z</time>
        <extensions>
          <gpxtpx:TrackPointExtension xmlns:gpxtpx="http://www.garmin.com/xmlschemas/TrackPointExtension/v1">
            <gpxtpx:hr>164</gpxtpx:hr>
          </gpxtpx:TrackPointExtension>
        </extensions>
      </trkpt>
      <trkpt lat="46.47396" lon="0.30376">
        <ele>93.800003051758</ele>
        <time>2020-06-13T21:37:27.679Z</time>
        <extensions>
          <gpxtpx:TrackPointExtension xmlns:gpxtpx="http://www.garmin.com/xmlschemas/TrackPointExtension/v1">
            <gpxtpx:hr>164</gpxtpx:hr>
          </gpxtpx:TrackPointExtension>
        </extensions>
      </trkpt>
      <trkpt lat="46.47389" lon="0.30373">
        <ele>93.800003051758</ele>
        <time>2020-06-13T21:37:29.083Z</time>
        <extensions>
          <gpxtpx:TrackPointExtension xmlns:gpxtpx="http://www.garmin.com/xmlschemas/TrackPointExtension/v1">
            <gpxtpx:hr>163</gpxtpx:hr>
          </gpxtpx:TrackPointExtension>
        </extensions>
      </trkpt>
      <trkpt lat="46.47381" lon="0.30372">
        <ele>93.800003051758</ele>
        <time>2020-06-13T21:37:30.628Z</time>
        <extensions>
          <gpxtpx:TrackPointExtension xmlns:gpxtpx="http://www.garmin.com/xmlschemas/TrackPointExtension/v1">
            <gpxtpx:hr>163</gpxtpx:hr>
          </gpxtpx:TrackPointExtension>
        </extensions>
      </trkpt>
      <trkpt lat="46.47337" lon="0.30366">
        <ele>91.599998474121</ele>
        <time>2020-06-13T21:37:34.916Z</time>
        <extensions>
          <gpxtpx:TrackPointExtension xmlns:gpxtpx="http://www.garmin.com/xmlschemas/TrackPointExtension/v1">
            <gpxtpx:hr>162</gpxtpx:hr>
          </gpxtpx:TrackPointExtension>
        </extensions>
      </trkpt>
      <trkpt lat="46.47328" lon="0.30364">
        <ele>91.199996948242</ele>
        <time>2020-06-13T21:37:35.847Z</time>
        <extensions>
          <gpxtpx:TrackPointExtension xmlns:gpxtpx="http://www.garmin.com/xmlschemas/TrackPointExtension/v1">
            <gpxtpx:hr>162</gpxtpx:hr>
          </gpxtpx:TrackPointExtension>
        </extensions>
      </trkpt>
      <trkpt lat="46.47319" lon="0.30363">
        <ele>90.599998474121</ele>
        <time>2020-06-13T21:37:36.612Z</time>
        <extensions>
          <gpxtpx:TrackPointExtension xmlns:gpxtpx="http://www.garmin.com/xmlschemas/TrackPointExtension/v1">
            <gpxtpx:hr>159</gpxtpx:hr>
          </gpxtpx:TrackPointExtension>
        </extensions>
      </trkpt>
      <trkpt lat="46.4731" lon="0.30361">
        <ele>90.199996948242</ele>
        <time>2020-06-13T21:37:37.542Z</time>
        <extensions>
          <gpxtpx:TrackPointExtension xmlns:gpxtpx="http://www.garmin.com/xmlschemas/TrackPointExtension/v1">
            <gpxtpx:hr>159</gpxtpx:hr>
          </gpxtpx:TrackPointExtension>
        </extensions>
      </trkpt>
      <trkpt lat="46.473" lon="0.3036">
        <ele>89.400001525879</ele>
        <time>2020-06-13T21:37:38.468Z</time>
        <extensions>
          <gpxtpx:TrackPointExtension xmlns:gpxtpx="http://www.garmin.com/xmlschemas/TrackPointExtension/v1">
            <gpxtpx:hr>156</gpxtpx:hr>
          </gpxtpx:TrackPointExtension>
        </extensions>
      </trkpt>
      <trkpt lat="46.47291" lon="0.30359">
        <ele>88.800003051758</ele>
        <time>2020-06-13T21:37:39.233Z</time>
        <extensions>
          <gpxtpx:TrackPointExtension xmlns:gpxtpx="http://www.garmin.com/xmlschemas/TrackPointExtension/v1">
            <gpxtpx:hr>156</gpxtpx:hr>
          </gpxtpx:TrackPointExtension>
        </extensions>
      </trkpt>
      <trkpt lat="46.47281" lon="0.30358">
        <ele>87.800003051758</ele>
        <time>2020-06-13T21:37:40.159Z</time>
        <extensions>
          <gpxtpx:TrackPointExtension xmlns:gpxtpx="http://www.garmin.com/xmlschemas/TrackPointExtension/v1">
            <gpxtpx:hr>154</gpxtpx:hr>
          </gpxtpx:TrackPointExtension>
        </extensions>
      </trkpt>
      <trkpt lat="46.47272" lon="0.30358">
        <ele>87.400001525879</ele>
        <time>2020-06-13T21:37:41.074Z</time>
        <extensions>
          <gpxtpx:TrackPointExtension xmlns:gpxtpx="http://www.garmin.com/xmlschemas/TrackPointExtension/v1">
            <gpxtpx:hr>152</gpxtpx:hr>
          </gpxtpx:TrackPointExtension>
        </extensions>
      </trkpt>
      <trkpt lat="46.47262" lon="0.3036">
        <ele>87.199996948242</ele>
        <time>2020-06-13T21:37:42.399Z</time>
        <extensions>
          <gpxtpx:TrackPointExtension xmlns:gpxtpx="http://www.garmin.com/xmlschemas/TrackPointExtension/v1">
            <gpxtpx:hr>150</gpxtpx:hr>
          </gpxtpx:TrackPointExtension>
        </extensions>
      </trkpt>
      <trkpt lat="46.47253" lon="0.30363">
        <ele>86.400001525879</ele>
        <time>2020-06-13T21:37:43.252Z</time>
        <extensions>
          <gpxtpx:TrackPointExtension xmlns:gpxtpx="http://www.garmin.com/xmlschemas/TrackPointExtension/v1">
            <gpxtpx:hr>148</gpxtpx:hr>
          </gpxtpx:TrackPointExtension>
        </extensions>
      </trkpt>
      <trkpt lat="46.47244" lon="0.30366">
        <ele>86.199996948242</ele>
        <time>2020-06-13T21:37:44.437Z</time>
        <extensions>
          <gpxtpx:TrackPointExtension xmlns:gpxtpx="http://www.garmin.com/xmlschemas/TrackPointExtension/v1">
            <gpxtpx:hr>148</gpxtpx:hr>
          </gpxtpx:TrackPointExtension>
        </extensions>
      </trkpt>
      <trkpt lat="46.47236" lon="0.3037">
        <ele>85.800003051758</ele>
        <time>2020-06-13T21:37:45.276Z</time>
        <extensions>
          <gpxtpx:TrackPointExtension xmlns:gpxtpx="http://www.garmin.com/xmlschemas/TrackPointExtension/v1">
            <gpxtpx:hr>144</gpxtpx:hr>
          </gpxtpx:TrackPointExtension>
        </extensions>
      </trkpt>
      <trkpt lat="46.47219" lon="0.30374">
        <ele>85.400001525879</ele>
        <time>2020-06-13T21:37:47.449Z</time>
        <extensions>
          <gpxtpx:TrackPointExtension xmlns:gpxtpx="http://www.garmin.com/xmlschemas/TrackPointExtension/v1">
            <gpxtpx:hr>141</gpxtpx:hr>
          </gpxtpx:TrackPointExtension>
        </extensions>
      </trkpt>
      <trkpt lat="46.47211" lon="0.30376">
        <ele>85.199996948242</ele>
        <time>2020-06-13T21:37:48.457Z</time>
        <extensions>
          <gpxtpx:TrackPointExtension xmlns:gpxtpx="http://www.garmin.com/xmlschemas/TrackPointExtension/v1">
            <gpxtpx:hr>141</gpxtpx:hr>
          </gpxtpx:TrackPointExtension>
        </extensions>
      </trkpt>
      <trkpt lat="46.47204" lon="0.30378">
        <ele>85.199996948242</ele>
        <time>2020-06-13T21:37:49.830Z</time>
        <extensions>
          <gpxtpx:TrackPointExtension xmlns:gpxtpx="http://www.garmin.com/xmlschemas/TrackPointExtension/v1">
            <gpxtpx:hr>139</gpxtpx:hr>
          </gpxtpx:TrackPointExtension>
        </extensions>
      </trkpt>
      <trkpt lat="46.47204" lon="0.30378">
        <ele>85.199996948242</ele>
        <time>2020-06-13T21:37:49.830Z</time>
        <extensions>
          <gpxtpx:TrackPointExtension xmlns:gpxtpx="http://www.garmin.com/xmlschemas/TrackPointExtension/v1">
            <gpxtpx:hr>139</gpxtpx:hr>
          </gpxtpx:TrackPointExtension>
        </extensions>
      </trkpt>
      <trkpt lat="46.4719" lon="0.30381">
        <ele>85.199996948242</ele>
        <time>2020-06-13T21:37:52.553Z</time>
        <extensions>
          <gpxtpx:TrackPointExtension xmlns:gpxtpx="http://www.garmin.com/xmlschemas/TrackPointExtension/v1">
            <gpxtpx:hr>139</gpxtpx:hr>
          </gpxtpx:TrackPointExtension>
        </extensions>
      </trkpt>
      <trkpt lat="46.47183" lon="0.30381">
        <ele>85.199996948242</ele>
        <time>2020-06-13T21:37:53.900Z</time>
        <extensions>
          <gpxtpx:TrackPointExtension xmlns:gpxtpx="http://www.garmin.com/xmlschemas/TrackPointExtension/v1">
            <gpxtpx:hr>139</gpxtpx:hr>
          </gpxtpx:TrackPointExtension>
        </extensions>
      </trkpt>
      <trkpt lat="46.47177" lon="0.30381">
        <ele>85.199996948242</ele>
        <time>2020-06-13T21:37:55.055Z</time>
        <extensions>
          <gpxtpx:TrackPointExtension xmlns:gpxtpx="http://www.garmin.com/xmlschemas/TrackPointExtension/v1">
            <gpxtpx:hr>139</gpxtpx:hr>
          </gpxtpx:TrackPointExtension>
        </extensions>
      </trkpt>
      <trkpt lat="46.47171" lon="0.30379">
        <ele>85.199996948242</ele>
        <time>2020-06-13T21:37:56.239Z</time>
        <extensions>
          <gpxtpx:TrackPointExtension xmlns:gpxtpx="http://www.garmin.com/xmlschemas/TrackPointExtension/v1">
            <gpxtpx:hr>139</gpxtpx:hr>
          </gpxtpx:TrackPointExtension>
        </extensions>
      </trkpt>
      <trkpt lat="46.47164" lon="0.30377">
        <ele>85.199996948242</ele>
        <time>2020-06-13T21:37:57.612Z</time>
        <extensions>
          <gpxtpx:TrackPointExtension xmlns:gpxtpx="http://www.garmin.com/xmlschemas/TrackPointExtension/v1">
            <gpxtpx:hr>139</gpxtpx:hr>
          </gpxtpx:TrackPointExtension>
        </extensions>
      </trkpt>
      <trkpt lat="46.47157" lon="0.30375">
        <ele>85.400001525879</ele>
        <time>2020-06-13T21:37:59.459Z</time>
        <extensions>
          <gpxtpx:TrackPointExtension xmlns:gpxtpx="http://www.garmin.com/xmlschemas/TrackPointExtension/v1">
            <gpxtpx:hr>139</gpxtpx:hr>
          </gpxtpx:TrackPointExtension>
        </extensions>
      </trkpt>
      <trkpt lat="46.47145" lon="0.30371">
        <ele>85.800003051758</ele>
        <time>2020-06-13T21:38:02.833Z</time>
        <extensions>
          <gpxtpx:TrackPointExtension xmlns:gpxtpx="http://www.garmin.com/xmlschemas/TrackPointExtension/v1">
            <gpxtpx:hr>139</gpxtpx:hr>
          </gpxtpx:TrackPointExtension>
        </extensions>
      </trkpt>
      <trkpt lat="46.47138" lon="0.30368">
        <ele>86</ele>
        <time>2020-06-13T21:38:04.708Z</time>
        <extensions>
          <gpxtpx:TrackPointExtension xmlns:gpxtpx="http://www.garmin.com/xmlschemas/TrackPointExtension/v1">
            <gpxtpx:hr>139</gpxtpx:hr>
          </gpxtpx:TrackPointExtension>
        </extensions>
      </trkpt>
      <trkpt lat="46.47132" lon="0.30365">
        <ele>86</ele>
        <time>2020-06-13T21:38:05.929Z</time>
        <extensions>
          <gpxtpx:TrackPointExtension xmlns:gpxtpx="http://www.garmin.com/xmlschemas/TrackPointExtension/v1">
            <gpxtpx:hr>139</gpxtpx:hr>
          </gpxtpx:TrackPointExtension>
        </extensions>
      </trkpt>
      <trkpt lat="46.47126" lon="0.30363">
        <ele>86</ele>
        <time>2020-06-13T21:38:07.114Z</time>
        <extensions>
          <gpxtpx:TrackPointExtension xmlns:gpxtpx="http://www.garmin.com/xmlschemas/TrackPointExtension/v1">
            <gpxtpx:hr>140</gpxtpx:hr>
          </gpxtpx:TrackPointExtension>
        </extensions>
      </trkpt>
      <trkpt lat="46.47121" lon="0.30362">
        <ele>86.199996948242</ele>
        <time>2020-06-13T21:38:08.638Z</time>
        <extensions>
          <gpxtpx:TrackPointExtension xmlns:gpxtpx="http://www.garmin.com/xmlschemas/TrackPointExtension/v1">
            <gpxtpx:hr>140</gpxtpx:hr>
          </gpxtpx:TrackPointExtension>
        </extensions>
      </trkpt>
      <trkpt lat="46.47115" lon="0.3036">
        <ele>86.199996948242</ele>
        <time>2020-06-13T21:38:09.823Z</time>
        <extensions>
          <gpxtpx:TrackPointExtension xmlns:gpxtpx="http://www.garmin.com/xmlschemas/TrackPointExtension/v1">
            <gpxtpx:hr>141</gpxtpx:hr>
          </gpxtpx:TrackPointExtension>
        </extensions>
      </trkpt>
      <trkpt lat="46.47109" lon="0.30358">
        <ele>86.400001525879</ele>
        <time>2020-06-13T21:38:11.509Z</time>
        <extensions>
          <gpxtpx:TrackPointExtension xmlns:gpxtpx="http://www.garmin.com/xmlschemas/TrackPointExtension/v1">
            <gpxtpx:hr>141</gpxtpx:hr>
          </gpxtpx:TrackPointExtension>
        </extensions>
      </trkpt>
      <trkpt lat="46.47103" lon="0.30356">
        <ele>86.400001525879</ele>
        <time>2020-06-13T21:38:12.694Z</time>
        <extensions>
          <gpxtpx:TrackPointExtension xmlns:gpxtpx="http://www.garmin.com/xmlschemas/TrackPointExtension/v1">
            <gpxtpx:hr>141</gpxtpx:hr>
          </gpxtpx:TrackPointExtension>
        </extensions>
      </trkpt>
      <trkpt lat="46.47067" lon="0.30345">
        <ele>85.800003051758</ele>
        <time>2020-06-13T21:38:17.728Z</time>
        <extensions>
          <gpxtpx:TrackPointExtension xmlns:gpxtpx="http://www.garmin.com/xmlschemas/TrackPointExtension/v1">
            <gpxtpx:hr>142</gpxtpx:hr>
          </gpxtpx:TrackPointExtension>
        </extensions>
      </trkpt>
      <trkpt lat="46.47062" lon="0.30343">
        <ele>85.400001525879</ele>
        <time>2020-06-13T21:38:18.207Z</time>
        <extensions>
          <gpxtpx:TrackPointExtension xmlns:gpxtpx="http://www.garmin.com/xmlschemas/TrackPointExtension/v1">
            <gpxtpx:hr>142</gpxtpx:hr>
          </gpxtpx:TrackPointExtension>
        </extensions>
      </trkpt>
      <trkpt lat="46.47048" lon="0.30338">
        <ele>85</ele>
        <time>2020-06-13T21:38:19.937Z</time>
        <extensions>
          <gpxtpx:TrackPointExtension xmlns:gpxtpx="http://www.garmin.com/xmlschemas/TrackPointExtension/v1">
            <gpxtpx:hr>142</gpxtpx:hr>
          </gpxtpx:TrackPointExtension>
        </extensions>
      </trkpt>
      <trkpt lat="46.47009" lon="0.30325">
        <ele>84.400001525879</ele>
        <time>2020-06-13T21:38:25.502Z</time>
        <extensions>
          <gpxtpx:TrackPointExtension xmlns:gpxtpx="http://www.garmin.com/xmlschemas/TrackPointExtension/v1">
            <gpxtpx:hr>141</gpxtpx:hr>
          </gpxtpx:TrackPointExtension>
        </extensions>
      </trkpt>
      <trkpt lat="46.47002" lon="0.30323">
        <ele>84.400001525879</ele>
        <time>2020-06-13T21:38:26.875Z</time>
        <extensions>
          <gpxtpx:TrackPointExtension xmlns:gpxtpx="http://www.garmin.com/xmlschemas/TrackPointExtension/v1">
            <gpxtpx:hr>141</gpxtpx:hr>
          </gpxtpx:TrackPointExtension>
        </extensions>
      </trkpt>
      <trkpt lat="46.46995" lon="0.30321">
        <ele>84.400001525879</ele>
        <time>2020-06-13T21:38:28.248Z</time>
        <extensions>
          <gpxtpx:TrackPointExtension xmlns:gpxtpx="http://www.garmin.com/xmlschemas/TrackPointExtension/v1">
            <gpxtpx:hr>141</gpxtpx:hr>
          </gpxtpx:TrackPointExtension>
        </extensions>
      </trkpt>
      <trkpt lat="46.46989" lon="0.30319">
        <ele>84.400001525879</ele>
        <time>2020-06-13T21:38:29.433Z</time>
        <extensions>
          <gpxtpx:TrackPointExtension xmlns:gpxtpx="http://www.garmin.com/xmlschemas/TrackPointExtension/v1">
            <gpxtpx:hr>142</gpxtpx:hr>
          </gpxtpx:TrackPointExtension>
        </extensions>
      </trkpt>
      <trkpt lat="46.46983" lon="0.30318">
        <ele>84.400001525879</ele>
        <time>2020-06-13T21:38:30.595Z</time>
        <extensions>
          <gpxtpx:TrackPointExtension xmlns:gpxtpx="http://www.garmin.com/xmlschemas/TrackPointExtension/v1">
            <gpxtpx:hr>142</gpxtpx:hr>
          </gpxtpx:TrackPointExtension>
        </extensions>
      </trkpt>
      <trkpt lat="46.46976" lon="0.30316">
        <ele>84.400001525879</ele>
        <time>2020-06-13T21:38:31.968Z</time>
        <extensions>
          <gpxtpx:TrackPointExtension xmlns:gpxtpx="http://www.garmin.com/xmlschemas/TrackPointExtension/v1">
            <gpxtpx:hr>143</gpxtpx:hr>
          </gpxtpx:TrackPointExtension>
        </extensions>
      </trkpt>
      <trkpt lat="46.46969" lon="0.30313">
        <ele>84.400001525879</ele>
        <time>2020-06-13T21:38:33.372Z</time>
        <extensions>
          <gpxtpx:TrackPointExtension xmlns:gpxtpx="http://www.garmin.com/xmlschemas/TrackPointExtension/v1">
            <gpxtpx:hr>143</gpxtpx:hr>
          </gpxtpx:TrackPointExtension>
        </extensions>
      </trkpt>
      <trkpt lat="46.46963" lon="0.30311">
        <ele>84.400001525879</ele>
        <time>2020-06-13T21:38:34.557Z</time>
        <extensions>
          <gpxtpx:TrackPointExtension xmlns:gpxtpx="http://www.garmin.com/xmlschemas/TrackPointExtension/v1">
            <gpxtpx:hr>143</gpxtpx:hr>
          </gpxtpx:TrackPointExtension>
        </extensions>
      </trkpt>
      <trkpt lat="46.46956" lon="0.30309">
        <ele>84.400001525879</ele>
        <time>2020-06-13T21:38:35.930Z</time>
        <extensions>
          <gpxtpx:TrackPointExtension xmlns:gpxtpx="http://www.garmin.com/xmlschemas/TrackPointExtension/v1">
            <gpxtpx:hr>144</gpxtpx:hr>
          </gpxtpx:TrackPointExtension>
        </extensions>
      </trkpt>
      <trkpt lat="46.46949" lon="0.30307">
        <ele>84.400001525879</ele>
        <time>2020-06-13T21:38:37.303Z</time>
        <extensions>
          <gpxtpx:TrackPointExtension xmlns:gpxtpx="http://www.garmin.com/xmlschemas/TrackPointExtension/v1">
            <gpxtpx:hr>144</gpxtpx:hr>
          </gpxtpx:TrackPointExtension>
        </extensions>
      </trkpt>
      <trkpt lat="46.46915" lon="0.30297">
        <ele>84</ele>
        <time>2020-06-13T21:38:42.345Z</time>
        <extensions>
          <gpxtpx:TrackPointExtension xmlns:gpxtpx="http://www.garmin.com/xmlschemas/TrackPointExtension/v1">
            <gpxtpx:hr>146</gpxtpx:hr>
          </gpxtpx:TrackPointExtension>
        </extensions>
      </trkpt>
      <trkpt lat="46.46909" lon="0.30295">
        <ele>84</ele>
        <time>2020-06-13T21:38:43.530Z</time>
        <extensions>
          <gpxtpx:TrackPointExtension xmlns:gpxtpx="http://www.garmin.com/xmlschemas/TrackPointExtension/v1">
            <gpxtpx:hr>146</gpxtpx:hr>
          </gpxtpx:TrackPointExtension>
        </extensions>
      </trkpt>
      <trkpt lat="46.46876" lon="0.30284">
        <ele>83.800003051758</ele>
        <time>2020-06-13T21:38:49.504Z</time>
        <extensions>
          <gpxtpx:TrackPointExtension xmlns:gpxtpx="http://www.garmin.com/xmlschemas/TrackPointExtension/v1">
            <gpxtpx:hr>147</gpxtpx:hr>
          </gpxtpx:TrackPointExtension>
        </extensions>
      </trkpt>
      <trkpt lat="46.4687" lon="0.30283">
        <ele>83.800003051758</ele>
        <time>2020-06-13T21:38:50.667Z</time>
        <extensions>
          <gpxtpx:TrackPointExtension xmlns:gpxtpx="http://www.garmin.com/xmlschemas/TrackPointExtension/v1">
            <gpxtpx:hr>147</gpxtpx:hr>
          </gpxtpx:TrackPointExtension>
        </extensions>
      </trkpt>
      <trkpt lat="46.46864" lon="0.3028">
        <ele>83.800003051758</ele>
        <time>2020-06-13T21:38:51.888Z</time>
        <extensions>
          <gpxtpx:TrackPointExtension xmlns:gpxtpx="http://www.garmin.com/xmlschemas/TrackPointExtension/v1">
            <gpxtpx:hr>148</gpxtpx:hr>
          </gpxtpx:TrackPointExtension>
        </extensions>
      </trkpt>
      <trkpt lat="46.46857" lon="0.30278">
        <ele>83.800003051758</ele>
        <time>2020-06-13T21:38:53.261Z</time>
        <extensions>
          <gpxtpx:TrackPointExtension xmlns:gpxtpx="http://www.garmin.com/xmlschemas/TrackPointExtension/v1">
            <gpxtpx:hr>148</gpxtpx:hr>
          </gpxtpx:TrackPointExtension>
        </extensions>
      </trkpt>
      <trkpt lat="46.46851" lon="0.30276">
        <ele>83.800003051758</ele>
        <time>2020-06-13T21:38:54.445Z</time>
        <extensions>
          <gpxtpx:TrackPointExtension xmlns:gpxtpx="http://www.garmin.com/xmlschemas/TrackPointExtension/v1">
            <gpxtpx:hr>149</gpxtpx:hr>
          </gpxtpx:TrackPointExtension>
        </extensions>
      </trkpt>
      <trkpt lat="46.46851" lon="0.30276">
        <ele>83.800003051758</ele>
        <time>2020-06-13T21:38:54.445Z</time>
        <extensions>
          <gpxtpx:TrackPointExtension xmlns:gpxtpx="http://www.garmin.com/xmlschemas/TrackPointExtension/v1">
            <gpxtpx:hr>149</gpxtpx:hr>
          </gpxtpx:TrackPointExtension>
        </extensions>
      </trkpt>
      <trkpt lat="46.46838" lon="0.30272">
        <ele>83.599998474121</ele>
        <time>2020-06-13T21:38:56.292Z</time>
        <extensions>
          <gpxtpx:TrackPointExtension xmlns:gpxtpx="http://www.garmin.com/xmlschemas/TrackPointExtension/v1">
            <gpxtpx:hr>150</gpxtpx:hr>
          </gpxtpx:TrackPointExtension>
        </extensions>
      </trkpt>
      <trkpt lat="46.46832" lon="0.3027">
        <ele>83.599998474121</ele>
        <time>2020-06-13T21:38:57.477Z</time>
        <extensions>
          <gpxtpx:TrackPointExtension xmlns:gpxtpx="http://www.garmin.com/xmlschemas/TrackPointExtension/v1">
            <gpxtpx:hr>150</gpxtpx:hr>
          </gpxtpx:TrackPointExtension>
        </extensions>
      </trkpt>
      <trkpt lat="46.46825" lon="0.30268">
        <ele>83.599998474121</ele>
        <time>2020-06-13T21:38:58.850Z</time>
        <extensions>
          <gpxtpx:TrackPointExtension xmlns:gpxtpx="http://www.garmin.com/xmlschemas/TrackPointExtension/v1">
            <gpxtpx:hr>150</gpxtpx:hr>
          </gpxtpx:TrackPointExtension>
        </extensions>
      </trkpt>
      <trkpt lat="46.46819" lon="0.30266">
        <ele>83.599998474121</ele>
        <time>2020-06-13T21:39:00.034Z</time>
        <extensions>
          <gpxtpx:TrackPointExtension xmlns:gpxtpx="http://www.garmin.com/xmlschemas/TrackPointExtension/v1">
            <gpxtpx:hr>151</gpxtpx:hr>
          </gpxtpx:TrackPointExtension>
        </extensions>
      </trkpt>
      <trkpt lat="46.46813" lon="0.30264">
        <ele>83.800003051758</ele>
        <time>2020-06-13T21:39:01.721Z</time>
        <extensions>
          <gpxtpx:TrackPointExtension xmlns:gpxtpx="http://www.garmin.com/xmlschemas/TrackPointExtension/v1">
            <gpxtpx:hr>151</gpxtpx:hr>
          </gpxtpx:TrackPointExtension>
        </extensions>
      </trkpt>
      <trkpt lat="46.46807" lon="0.30261">
        <ele>83.800003051758</ele>
        <time>2020-06-13T21:39:02.942Z</time>
        <extensions>
          <gpxtpx:TrackPointExtension xmlns:gpxtpx="http://www.garmin.com/xmlschemas/TrackPointExtension/v1">
            <gpxtpx:hr>153</gpxtpx:hr>
          </gpxtpx:TrackPointExtension>
        </extensions>
      </trkpt>
      <trkpt lat="46.46801" lon="0.30259">
        <ele>84</ele>
        <time>2020-06-13T21:39:04.629Z</time>
        <extensions>
          <gpxtpx:TrackPointExtension xmlns:gpxtpx="http://www.garmin.com/xmlschemas/TrackPointExtension/v1">
            <gpxtpx:hr>153</gpxtpx:hr>
          </gpxtpx:TrackPointExtension>
        </extensions>
      </trkpt>
      <trkpt lat="46.46795" lon="0.30257">
        <ele>84</ele>
        <time>2020-06-13T21:39:05.813Z</time>
        <extensions>
          <gpxtpx:TrackPointExtension xmlns:gpxtpx="http://www.garmin.com/xmlschemas/TrackPointExtension/v1">
            <gpxtpx:hr>154</gpxtpx:hr>
          </gpxtpx:TrackPointExtension>
        </extensions>
      </trkpt>
      <trkpt lat="46.4679" lon="0.30254">
        <ele>84.199996948242</ele>
        <time>2020-06-13T21:39:07.388Z</time>
        <extensions>
          <gpxtpx:TrackPointExtension xmlns:gpxtpx="http://www.garmin.com/xmlschemas/TrackPointExtension/v1">
            <gpxtpx:hr>154</gpxtpx:hr>
          </gpxtpx:TrackPointExtension>
        </extensions>
      </trkpt>
      <trkpt lat="46.46784" lon="0.30251">
        <ele>84.199996948242</ele>
        <time>2020-06-13T21:39:08.609Z</time>
        <extensions>
          <gpxtpx:TrackPointExtension xmlns:gpxtpx="http://www.garmin.com/xmlschemas/TrackPointExtension/v1">
            <gpxtpx:hr>155</gpxtpx:hr>
          </gpxtpx:TrackPointExtension>
        </extensions>
      </trkpt>
      <trkpt lat="46.46779" lon="0.30249">
        <ele>84.400001525879</ele>
        <time>2020-06-13T21:39:10.152Z</time>
        <extensions>
          <gpxtpx:TrackPointExtension xmlns:gpxtpx="http://www.garmin.com/xmlschemas/TrackPointExtension/v1">
            <gpxtpx:hr>155</gpxtpx:hr>
          </gpxtpx:TrackPointExtension>
        </extensions>
      </trkpt>
      <trkpt lat="46.46773" lon="0.30245">
        <ele>84.800003051758</ele>
        <time>2020-06-13T21:39:12.539Z</time>
        <extensions>
          <gpxtpx:TrackPointExtension xmlns:gpxtpx="http://www.garmin.com/xmlschemas/TrackPointExtension/v1">
            <gpxtpx:hr>156</gpxtpx:hr>
          </gpxtpx:TrackPointExtension>
        </extensions>
      </trkpt>
      <trkpt lat="46.46768" lon="0.3024">
        <ele>84.800003051758</ele>
        <time>2020-06-13T21:39:13.707Z</time>
        <extensions>
          <gpxtpx:TrackPointExtension xmlns:gpxtpx="http://www.garmin.com/xmlschemas/TrackPointExtension/v1">
            <gpxtpx:hr>156</gpxtpx:hr>
          </gpxtpx:TrackPointExtension>
        </extensions>
      </trkpt>
      <trkpt lat="46.46766" lon="0.30232">
        <ele>85</ele>
        <time>2020-06-13T21:39:15.348Z</time>
        <extensions>
          <gpxtpx:TrackPointExtension xmlns:gpxtpx="http://www.garmin.com/xmlschemas/TrackPointExtension/v1">
            <gpxtpx:hr>156</gpxtpx:hr>
          </gpxtpx:TrackPointExtension>
        </extensions>
      </trkpt>
      <trkpt lat="46.46765" lon="0.30224">
        <ele>85</ele>
        <time>2020-06-13T21:39:16.426Z</time>
        <extensions>
          <gpxtpx:TrackPointExtension xmlns:gpxtpx="http://www.garmin.com/xmlschemas/TrackPointExtension/v1">
            <gpxtpx:hr>156</gpxtpx:hr>
          </gpxtpx:TrackPointExtension>
        </extensions>
      </trkpt>
      <trkpt lat="46.46766" lon="0.30216">
        <ele>85</ele>
        <time>2020-06-13T21:39:17.504Z</time>
        <extensions>
          <gpxtpx:TrackPointExtension xmlns:gpxtpx="http://www.garmin.com/xmlschemas/TrackPointExtension/v1">
            <gpxtpx:hr>157</gpxtpx:hr>
          </gpxtpx:TrackPointExtension>
        </extensions>
      </trkpt>
      <trkpt lat="46.46766" lon="0.30208">
        <ele>85</ele>
        <time>2020-06-13T21:39:18.564Z</time>
        <extensions>
          <gpxtpx:TrackPointExtension xmlns:gpxtpx="http://www.garmin.com/xmlschemas/TrackPointExtension/v1">
            <gpxtpx:hr>157</gpxtpx:hr>
          </gpxtpx:TrackPointExtension>
        </extensions>
      </trkpt>
      <trkpt lat="46.46767" lon="0.30199">
        <ele>85</ele>
        <time>2020-06-13T21:39:19.772Z</time>
        <extensions>
          <gpxtpx:TrackPointExtension xmlns:gpxtpx="http://www.garmin.com/xmlschemas/TrackPointExtension/v1">
            <gpxtpx:hr>157</gpxtpx:hr>
          </gpxtpx:TrackPointExtension>
        </extensions>
      </trkpt>
      <trkpt lat="46.46767" lon="0.30199">
        <ele>85.199996948242</ele>
        <time>2020-06-13T21:39:19.772Z</time>
        <extensions>
          <gpxtpx:TrackPointExtension xmlns:gpxtpx="http://www.garmin.com/xmlschemas/TrackPointExtension/v1">
            <gpxtpx:hr>157</gpxtpx:hr>
          </gpxtpx:TrackPointExtension>
        </extensions>
      </trkpt>
      <trkpt lat="46.46769" lon="0.30181">
        <ele>85.199996948242</ele>
        <time>2020-06-13T21:39:22.189Z</time>
        <extensions>
          <gpxtpx:TrackPointExtension xmlns:gpxtpx="http://www.garmin.com/xmlschemas/TrackPointExtension/v1">
            <gpxtpx:hr>157</gpxtpx:hr>
          </gpxtpx:TrackPointExtension>
        </extensions>
      </trkpt>
      <trkpt lat="46.46774" lon="0.30153">
        <ele>85</ele>
        <time>2020-06-13T21:39:25.142Z</time>
        <extensions>
          <gpxtpx:TrackPointExtension xmlns:gpxtpx="http://www.garmin.com/xmlschemas/TrackPointExtension/v1">
            <gpxtpx:hr>156</gpxtpx:hr>
          </gpxtpx:TrackPointExtension>
        </extensions>
      </trkpt>
      <trkpt lat="46.46776" lon="0.30145">
        <ele>84.800003051758</ele>
        <time>2020-06-13T21:39:25.800Z</time>
        <extensions>
          <gpxtpx:TrackPointExtension xmlns:gpxtpx="http://www.garmin.com/xmlschemas/TrackPointExtension/v1">
            <gpxtpx:hr>155</gpxtpx:hr>
          </gpxtpx:TrackPointExtension>
        </extensions>
      </trkpt>
      <trkpt lat="46.46779" lon="0.30137">
        <ele>84.599998474121</ele>
        <time>2020-06-13T21:39:26.521Z</time>
        <extensions>
          <gpxtpx:TrackPointExtension xmlns:gpxtpx="http://www.garmin.com/xmlschemas/TrackPointExtension/v1">
            <gpxtpx:hr>154</gpxtpx:hr>
          </gpxtpx:TrackPointExtension>
        </extensions>
      </trkpt>
      <trkpt lat="46.46789" lon="0.30114">
        <ele>83.800003051758</ele>
        <time>2020-06-13T21:39:28.458Z</time>
        <extensions>
          <gpxtpx:TrackPointExtension xmlns:gpxtpx="http://www.garmin.com/xmlschemas/TrackPointExtension/v1">
            <gpxtpx:hr>153</gpxtpx:hr>
          </gpxtpx:TrackPointExtension>
        </extensions>
      </trkpt>
      <trkpt lat="46.46795" lon="0.301">
        <ele>83</ele>
        <time>2020-06-13T21:39:29.507Z</time>
        <extensions>
          <gpxtpx:TrackPointExtension xmlns:gpxtpx="http://www.garmin.com/xmlschemas/TrackPointExtension/v1">
            <gpxtpx:hr>153</gpxtpx:hr>
          </gpxtpx:TrackPointExtension>
        </extensions>
      </trkpt>
      <trkpt lat="46.46795" lon="0.301">
        <ele>83</ele>
        <time>2020-06-13T21:39:29.507Z</time>
        <extensions>
          <gpxtpx:TrackPointExtension xmlns:gpxtpx="http://www.garmin.com/xmlschemas/TrackPointExtension/v1">
            <gpxtpx:hr>152</gpxtpx:hr>
          </gpxtpx:TrackPointExtension>
        </extensions>
      </trkpt>
      <trkpt lat="46.46801" lon="0.30087">
        <ele>83</ele>
        <time>2020-06-13T21:39:31.581Z</time>
        <extensions>
          <gpxtpx:TrackPointExtension xmlns:gpxtpx="http://www.garmin.com/xmlschemas/TrackPointExtension/v1">
            <gpxtpx:hr>152</gpxtpx:hr>
          </gpxtpx:TrackPointExtension>
        </extensions>
      </trkpt>
      <trkpt lat="46.46805" lon="0.3008">
        <ele>83</ele>
        <time>2020-06-13T21:39:32.787Z</time>
        <extensions>
          <gpxtpx:TrackPointExtension xmlns:gpxtpx="http://www.garmin.com/xmlschemas/TrackPointExtension/v1">
            <gpxtpx:hr>152</gpxtpx:hr>
          </gpxtpx:TrackPointExtension>
        </extensions>
      </trkpt>
      <trkpt lat="46.46808" lon="0.30073">
        <ele>83</ele>
        <time>2020-06-13T21:39:33.879Z</time>
        <extensions>
          <gpxtpx:TrackPointExtension xmlns:gpxtpx="http://www.garmin.com/xmlschemas/TrackPointExtension/v1">
            <gpxtpx:hr>152</gpxtpx:hr>
          </gpxtpx:TrackPointExtension>
        </extensions>
      </trkpt>
      <trkpt lat="46.46811" lon="0.30068">
        <ele>83</ele>
        <time>2020-06-13T21:39:34.758Z</time>
        <extensions>
          <gpxtpx:TrackPointExtension xmlns:gpxtpx="http://www.garmin.com/xmlschemas/TrackPointExtension/v1">
            <gpxtpx:hr>153</gpxtpx:hr>
          </gpxtpx:TrackPointExtension>
        </extensions>
      </trkpt>
      <trkpt lat="46.46814" lon="0.30061">
        <ele>83</ele>
        <time>2020-06-13T21:39:35.851Z</time>
        <extensions>
          <gpxtpx:TrackPointExtension xmlns:gpxtpx="http://www.garmin.com/xmlschemas/TrackPointExtension/v1">
            <gpxtpx:hr>153</gpxtpx:hr>
          </gpxtpx:TrackPointExtension>
        </extensions>
      </trkpt>
      <trkpt lat="46.46817" lon="0.30055">
        <ele>83</ele>
        <time>2020-06-13T21:39:36.834Z</time>
        <extensions>
          <gpxtpx:TrackPointExtension xmlns:gpxtpx="http://www.garmin.com/xmlschemas/TrackPointExtension/v1">
            <gpxtpx:hr>153</gpxtpx:hr>
          </gpxtpx:TrackPointExtension>
        </extensions>
      </trkpt>
      <trkpt lat="46.4682" lon="0.30049">
        <ele>83</ele>
        <time>2020-06-13T21:39:37.816Z</time>
        <extensions>
          <gpxtpx:TrackPointExtension xmlns:gpxtpx="http://www.garmin.com/xmlschemas/TrackPointExtension/v1">
            <gpxtpx:hr>153</gpxtpx:hr>
          </gpxtpx:TrackPointExtension>
        </extensions>
      </trkpt>
      <trkpt lat="46.46823" lon="0.30043">
        <ele>83.199996948242</ele>
        <time>2020-06-13T21:39:39.349Z</time>
        <extensions>
          <gpxtpx:TrackPointExtension xmlns:gpxtpx="http://www.garmin.com/xmlschemas/TrackPointExtension/v1">
            <gpxtpx:hr>154</gpxtpx:hr>
          </gpxtpx:TrackPointExtension>
        </extensions>
      </trkpt>
      <trkpt lat="46.46825" lon="0.30036">
        <ele>83</ele>
        <time>2020-06-13T21:39:39.911Z</time>
        <extensions>
          <gpxtpx:TrackPointExtension xmlns:gpxtpx="http://www.garmin.com/xmlschemas/TrackPointExtension/v1">
            <gpxtpx:hr>154</gpxtpx:hr>
          </gpxtpx:TrackPointExtension>
        </extensions>
      </trkpt>
      <trkpt lat="46.46829" lon="0.30029">
        <ele>83</ele>
        <time>2020-06-13T21:39:41.117Z</time>
        <extensions>
          <gpxtpx:TrackPointExtension xmlns:gpxtpx="http://www.garmin.com/xmlschemas/TrackPointExtension/v1">
            <gpxtpx:hr>154</gpxtpx:hr>
          </gpxtpx:TrackPointExtension>
        </extensions>
      </trkpt>
      <trkpt lat="46.46831" lon="0.30024">
        <ele>83.199996948242</ele>
        <time>2020-06-13T21:39:42.459Z</time>
        <extensions>
          <gpxtpx:TrackPointExtension xmlns:gpxtpx="http://www.garmin.com/xmlschemas/TrackPointExtension/v1">
            <gpxtpx:hr>154</gpxtpx:hr>
          </gpxtpx:TrackPointExtension>
        </extensions>
      </trkpt>
      <trkpt lat="46.46831" lon="0.30024">
        <ele>83.199996948242</ele>
        <time>2020-06-13T21:39:42.459Z</time>
        <extensions>
          <gpxtpx:TrackPointExtension xmlns:gpxtpx="http://www.garmin.com/xmlschemas/TrackPointExtension/v1">
            <gpxtpx:hr>154</gpxtpx:hr>
          </gpxtpx:TrackPointExtension>
        </extensions>
      </trkpt>
      <trkpt lat="46.46836" lon="0.30012">
        <ele>83.199996948242</ele>
        <time>2020-06-13T21:39:44.318Z</time>
        <extensions>
          <gpxtpx:TrackPointExtension xmlns:gpxtpx="http://www.garmin.com/xmlschemas/TrackPointExtension/v1">
            <gpxtpx:hr>154</gpxtpx:hr>
          </gpxtpx:TrackPointExtension>
        </extensions>
      </trkpt>
      <trkpt lat="46.46838" lon="0.30006">
        <ele>83.199996948242</ele>
        <time>2020-06-13T21:39:45.201Z</time>
        <extensions>
          <gpxtpx:TrackPointExtension xmlns:gpxtpx="http://www.garmin.com/xmlschemas/TrackPointExtension/v1">
            <gpxtpx:hr>154</gpxtpx:hr>
          </gpxtpx:TrackPointExtension>
        </extensions>
      </trkpt>
      <trkpt lat="46.4684" lon="0.3">
        <ele>83.199996948242</ele>
        <time>2020-06-13T21:39:46.085Z</time>
        <extensions>
          <gpxtpx:TrackPointExtension xmlns:gpxtpx="http://www.garmin.com/xmlschemas/TrackPointExtension/v1">
            <gpxtpx:hr>153</gpxtpx:hr>
          </gpxtpx:TrackPointExtension>
        </extensions>
      </trkpt>
      <trkpt lat="46.46843" lon="0.29995">
        <ele>83.199996948242</ele>
        <time>2020-06-13T21:39:46.964Z</time>
        <extensions>
          <gpxtpx:TrackPointExtension xmlns:gpxtpx="http://www.garmin.com/xmlschemas/TrackPointExtension/v1">
            <gpxtpx:hr>153</gpxtpx:hr>
          </gpxtpx:TrackPointExtension>
        </extensions>
      </trkpt>
      <trkpt lat="46.46846" lon="0.29989">
        <ele>83.199996948242</ele>
        <time>2020-06-13T21:39:47.946Z</time>
        <extensions>
          <gpxtpx:TrackPointExtension xmlns:gpxtpx="http://www.garmin.com/xmlschemas/TrackPointExtension/v1">
            <gpxtpx:hr>153</gpxtpx:hr>
          </gpxtpx:TrackPointExtension>
        </extensions>
      </trkpt>
      <trkpt lat="46.46849" lon="0.29984">
        <ele>83.199996948242</ele>
        <time>2020-06-13T21:39:48.825Z</time>
        <extensions>
          <gpxtpx:TrackPointExtension xmlns:gpxtpx="http://www.garmin.com/xmlschemas/TrackPointExtension/v1">
            <gpxtpx:hr>153</gpxtpx:hr>
          </gpxtpx:TrackPointExtension>
        </extensions>
      </trkpt>
      <trkpt lat="46.46851" lon="0.29978">
        <ele>83.199996948242</ele>
        <time>2020-06-13T21:39:49.709Z</time>
        <extensions>
          <gpxtpx:TrackPointExtension xmlns:gpxtpx="http://www.garmin.com/xmlschemas/TrackPointExtension/v1">
            <gpxtpx:hr>153</gpxtpx:hr>
          </gpxtpx:TrackPointExtension>
        </extensions>
      </trkpt>
      <trkpt lat="46.46853" lon="0.29974">
        <ele>83.199996948242</ele>
        <time>2020-06-13T21:39:50.364Z</time>
        <extensions>
          <gpxtpx:TrackPointExtension xmlns:gpxtpx="http://www.garmin.com/xmlschemas/TrackPointExtension/v1">
            <gpxtpx:hr>153</gpxtpx:hr>
          </gpxtpx:TrackPointExtension>
        </extensions>
      </trkpt>
      <trkpt lat="46.46855" lon="0.2997">
        <ele>83.199996948242</ele>
        <time>2020-06-13T21:39:51.019Z</time>
        <extensions>
          <gpxtpx:TrackPointExtension xmlns:gpxtpx="http://www.garmin.com/xmlschemas/TrackPointExtension/v1">
            <gpxtpx:hr>153</gpxtpx:hr>
          </gpxtpx:TrackPointExtension>
        </extensions>
      </trkpt>
      <trkpt lat="46.46857" lon="0.29967">
        <ele>83.400001525879</ele>
        <time>2020-06-13T21:39:52.129Z</time>
        <extensions>
          <gpxtpx:TrackPointExtension xmlns:gpxtpx="http://www.garmin.com/xmlschemas/TrackPointExtension/v1">
            <gpxtpx:hr>153</gpxtpx:hr>
          </gpxtpx:TrackPointExtension>
        </extensions>
      </trkpt>
      <trkpt lat="46.4686" lon="0.29963">
        <ele>83.599998474121</ele>
        <time>2020-06-13T21:39:53.491Z</time>
        <extensions>
          <gpxtpx:TrackPointExtension xmlns:gpxtpx="http://www.garmin.com/xmlschemas/TrackPointExtension/v1">
            <gpxtpx:hr>153</gpxtpx:hr>
          </gpxtpx:TrackPointExtension>
        </extensions>
      </trkpt>
      <trkpt lat="46.46863" lon="0.29958">
        <ele>83.599998474121</ele>
        <time>2020-06-13T21:39:54.370Z</time>
        <extensions>
          <gpxtpx:TrackPointExtension xmlns:gpxtpx="http://www.garmin.com/xmlschemas/TrackPointExtension/v1">
            <gpxtpx:hr>153</gpxtpx:hr>
          </gpxtpx:TrackPointExtension>
        </extensions>
      </trkpt>
      <trkpt lat="46.46866" lon="0.29953">
        <ele>83.800003051758</ele>
        <time>2020-06-13T21:39:55.838Z</time>
        <extensions>
          <gpxtpx:TrackPointExtension xmlns:gpxtpx="http://www.garmin.com/xmlschemas/TrackPointExtension/v1">
            <gpxtpx:hr>154</gpxtpx:hr>
          </gpxtpx:TrackPointExtension>
        </extensions>
      </trkpt>
      <trkpt lat="46.46892" lon="0.2991">
        <ele>83.199996948242</ele>
        <time>2020-06-13T21:40:01.303Z</time>
        <extensions>
          <gpxtpx:TrackPointExtension xmlns:gpxtpx="http://www.garmin.com/xmlschemas/TrackPointExtension/v1">
            <gpxtpx:hr>157</gpxtpx:hr>
          </gpxtpx:TrackPointExtension>
        </extensions>
      </trkpt>
      <trkpt lat="46.46896" lon="0.29904">
        <ele>83.199996948242</ele>
        <time>2020-06-13T21:40:02.410Z</time>
        <extensions>
          <gpxtpx:TrackPointExtension xmlns:gpxtpx="http://www.garmin.com/xmlschemas/TrackPointExtension/v1">
            <gpxtpx:hr>157</gpxtpx:hr>
          </gpxtpx:TrackPointExtension>
        </extensions>
      </trkpt>
      <trkpt lat="46.46899" lon="0.29898">
        <ele>83</ele>
        <time>2020-06-13T21:40:02.956Z</time>
        <extensions>
          <gpxtpx:TrackPointExtension xmlns:gpxtpx="http://www.garmin.com/xmlschemas/TrackPointExtension/v1">
            <gpxtpx:hr>157</gpxtpx:hr>
          </gpxtpx:TrackPointExtension>
        </extensions>
      </trkpt>
      <trkpt lat="46.46901" lon="0.29891">
        <ele>82.800003051758</ele>
        <time>2020-06-13T21:40:03.518Z</time>
        <extensions>
          <gpxtpx:TrackPointExtension xmlns:gpxtpx="http://www.garmin.com/xmlschemas/TrackPointExtension/v1">
            <gpxtpx:hr>157</gpxtpx:hr>
          </gpxtpx:TrackPointExtension>
        </extensions>
      </trkpt>
      <trkpt lat="46.46903" lon="0.29884">
        <ele>82.800003051758</ele>
        <time>2020-06-13T21:40:04.523Z</time>
        <extensions>
          <gpxtpx:TrackPointExtension xmlns:gpxtpx="http://www.garmin.com/xmlschemas/TrackPointExtension/v1">
            <gpxtpx:hr>157</gpxtpx:hr>
          </gpxtpx:TrackPointExtension>
        </extensions>
      </trkpt>
      <trkpt lat="46.46905" lon="0.29877">
        <ele>82.599998474121</ele>
        <time>2020-06-13T21:40:05.085Z</time>
        <extensions>
          <gpxtpx:TrackPointExtension xmlns:gpxtpx="http://www.garmin.com/xmlschemas/TrackPointExtension/v1">
            <gpxtpx:hr>157</gpxtpx:hr>
          </gpxtpx:TrackPointExtension>
        </extensions>
      </trkpt>
      <trkpt lat="46.46905" lon="0.2987">
        <ele>82.599998474121</ele>
        <time>2020-06-13T21:40:06.013Z</time>
        <extensions>
          <gpxtpx:TrackPointExtension xmlns:gpxtpx="http://www.garmin.com/xmlschemas/TrackPointExtension/v1">
            <gpxtpx:hr>157</gpxtpx:hr>
          </gpxtpx:TrackPointExtension>
        </extensions>
      </trkpt>
      <trkpt lat="46.46905" lon="0.29862">
        <ele>82.599998474121</ele>
        <time>2020-06-13T21:40:07.073Z</time>
        <extensions>
          <gpxtpx:TrackPointExtension xmlns:gpxtpx="http://www.garmin.com/xmlschemas/TrackPointExtension/v1">
            <gpxtpx:hr>158</gpxtpx:hr>
          </gpxtpx:TrackPointExtension>
        </extensions>
      </trkpt>
      <trkpt lat="46.46904" lon="0.29855">
        <ele>82.599998474121</ele>
        <time>2020-06-13T21:40:08.021Z</time>
        <extensions>
          <gpxtpx:TrackPointExtension xmlns:gpxtpx="http://www.garmin.com/xmlschemas/TrackPointExtension/v1">
            <gpxtpx:hr>158</gpxtpx:hr>
          </gpxtpx:TrackPointExtension>
        </extensions>
      </trkpt>
      <trkpt lat="46.46904" lon="0.29847">
        <ele>83</ele>
        <time>2020-06-13T21:40:10.197Z</time>
        <extensions>
          <gpxtpx:TrackPointExtension xmlns:gpxtpx="http://www.garmin.com/xmlschemas/TrackPointExtension/v1">
            <gpxtpx:hr>158</gpxtpx:hr>
          </gpxtpx:TrackPointExtension>
        </extensions>
      </trkpt>
      <trkpt lat="46.46903" lon="0.29839">
        <ele>82.800003051758</ele>
        <time>2020-06-13T21:40:10.816Z</time>
        <extensions>
          <gpxtpx:TrackPointExtension xmlns:gpxtpx="http://www.garmin.com/xmlschemas/TrackPointExtension/v1">
            <gpxtpx:hr>158</gpxtpx:hr>
          </gpxtpx:TrackPointExtension>
        </extensions>
      </trkpt>
      <trkpt lat="46.46903" lon="0.29792">
        <ele>82.800003051758</ele>
        <time>2020-06-13T21:40:17.045Z</time>
        <extensions>
          <gpxtpx:TrackPointExtension xmlns:gpxtpx="http://www.garmin.com/xmlschemas/TrackPointExtension/v1">
            <gpxtpx:hr>159</gpxtpx:hr>
          </gpxtpx:TrackPointExtension>
        </extensions>
      </trkpt>
      <trkpt lat="46.46904" lon="0.29785">
        <ele>82.800003051758</ele>
        <time>2020-06-13T21:40:17.993Z</time>
        <extensions>
          <gpxtpx:TrackPointExtension xmlns:gpxtpx="http://www.garmin.com/xmlschemas/TrackPointExtension/v1">
            <gpxtpx:hr>158</gpxtpx:hr>
          </gpxtpx:TrackPointExtension>
        </extensions>
      </trkpt>
      <trkpt lat="46.46907" lon="0.29778">
        <ele>83</ele>
        <time>2020-06-13T21:40:19.606Z</time>
        <extensions>
          <gpxtpx:TrackPointExtension xmlns:gpxtpx="http://www.garmin.com/xmlschemas/TrackPointExtension/v1">
            <gpxtpx:hr>158</gpxtpx:hr>
          </gpxtpx:TrackPointExtension>
        </extensions>
      </trkpt>
      <trkpt lat="46.46911" lon="0.29773">
        <ele>83</ele>
        <time>2020-06-13T21:40:20.622Z</time>
        <extensions>
          <gpxtpx:TrackPointExtension xmlns:gpxtpx="http://www.garmin.com/xmlschemas/TrackPointExtension/v1">
            <gpxtpx:hr>158</gpxtpx:hr>
          </gpxtpx:TrackPointExtension>
        </extensions>
      </trkpt>
      <trkpt lat="46.46914" lon="0.29769">
        <ele>83.199996948242</ele>
        <time>2020-06-13T21:40:21.984Z</time>
        <extensions>
          <gpxtpx:TrackPointExtension xmlns:gpxtpx="http://www.garmin.com/xmlschemas/TrackPointExtension/v1">
            <gpxtpx:hr>158</gpxtpx:hr>
          </gpxtpx:TrackPointExtension>
        </extensions>
      </trkpt>
      <trkpt lat="46.46919" lon="0.29765">
        <ele>83.400001525879</ele>
        <time>2020-06-13T21:40:23.602Z</time>
        <extensions>
          <gpxtpx:TrackPointExtension xmlns:gpxtpx="http://www.garmin.com/xmlschemas/TrackPointExtension/v1">
            <gpxtpx:hr>158</gpxtpx:hr>
          </gpxtpx:TrackPointExtension>
        </extensions>
      </trkpt>
      <trkpt lat="46.46924" lon="0.2976">
        <ele>83.400001525879</ele>
        <time>2020-06-13T21:40:24.770Z</time>
        <extensions>
          <gpxtpx:TrackPointExtension xmlns:gpxtpx="http://www.garmin.com/xmlschemas/TrackPointExtension/v1">
            <gpxtpx:hr>158</gpxtpx:hr>
          </gpxtpx:TrackPointExtension>
        </extensions>
      </trkpt>
      <trkpt lat="46.46929" lon="0.29756">
        <ele>83.400001525879</ele>
        <time>2020-06-13T21:40:25.869Z</time>
        <extensions>
          <gpxtpx:TrackPointExtension xmlns:gpxtpx="http://www.garmin.com/xmlschemas/TrackPointExtension/v1">
            <gpxtpx:hr>158</gpxtpx:hr>
          </gpxtpx:TrackPointExtension>
        </extensions>
      </trkpt>
      <trkpt lat="46.46934" lon="0.29751">
        <ele>83.599998474121</ele>
        <time>2020-06-13T21:40:27.542Z</time>
        <extensions>
          <gpxtpx:TrackPointExtension xmlns:gpxtpx="http://www.garmin.com/xmlschemas/TrackPointExtension/v1">
            <gpxtpx:hr>158</gpxtpx:hr>
          </gpxtpx:TrackPointExtension>
        </extensions>
      </trkpt>
      <trkpt lat="46.46938" lon="0.29748">
        <ele>83.800003051758</ele>
        <time>2020-06-13T21:40:29.003Z</time>
        <extensions>
          <gpxtpx:TrackPointExtension xmlns:gpxtpx="http://www.garmin.com/xmlschemas/TrackPointExtension/v1">
            <gpxtpx:hr>158</gpxtpx:hr>
          </gpxtpx:TrackPointExtension>
        </extensions>
      </trkpt>
      <trkpt lat="46.46943" lon="0.29743">
        <ele>83.800003051758</ele>
        <time>2020-06-13T21:40:30.171Z</time>
        <extensions>
          <gpxtpx:TrackPointExtension xmlns:gpxtpx="http://www.garmin.com/xmlschemas/TrackPointExtension/v1">
            <gpxtpx:hr>159</gpxtpx:hr>
          </gpxtpx:TrackPointExtension>
        </extensions>
      </trkpt>
      <trkpt lat="46.46952" lon="0.29734">
        <ele>84</ele>
        <time>2020-06-13T21:40:32.698Z</time>
        <extensions>
          <gpxtpx:TrackPointExtension xmlns:gpxtpx="http://www.garmin.com/xmlschemas/TrackPointExtension/v1">
            <gpxtpx:hr>159</gpxtpx:hr>
          </gpxtpx:TrackPointExtension>
        </extensions>
      </trkpt>
      <trkpt lat="46.46967" lon="0.29721">
        <ele>84</ele>
        <time>2020-06-13T21:40:36.060Z</time>
        <extensions>
          <gpxtpx:TrackPointExtension xmlns:gpxtpx="http://www.garmin.com/xmlschemas/TrackPointExtension/v1">
            <gpxtpx:hr>158</gpxtpx:hr>
          </gpxtpx:TrackPointExtension>
        </extensions>
      </trkpt>
      <trkpt lat="46.47013" lon="0.29682">
        <ele>84.400001525879</ele>
        <time>2020-06-13T21:40:47.067Z</time>
        <extensions>
          <gpxtpx:TrackPointExtension xmlns:gpxtpx="http://www.garmin.com/xmlschemas/TrackPointExtension/v1">
            <gpxtpx:hr>158</gpxtpx:hr>
          </gpxtpx:TrackPointExtension>
        </extensions>
      </trkpt>
      <trkpt lat="46.47018" lon="0.29677">
        <ele>84.400001525879</ele>
        <time>2020-06-13T21:40:48.236Z</time>
        <extensions>
          <gpxtpx:TrackPointExtension xmlns:gpxtpx="http://www.garmin.com/xmlschemas/TrackPointExtension/v1">
            <gpxtpx:hr>158</gpxtpx:hr>
          </gpxtpx:TrackPointExtension>
        </extensions>
      </trkpt>
      <trkpt lat="46.47022" lon="0.29672">
        <ele>84.599998474121</ele>
        <time>2020-06-13T21:40:49.791Z</time>
        <extensions>
          <gpxtpx:TrackPointExtension xmlns:gpxtpx="http://www.garmin.com/xmlschemas/TrackPointExtension/v1">
            <gpxtpx:hr>158</gpxtpx:hr>
          </gpxtpx:TrackPointExtension>
        </extensions>
      </trkpt>
      <trkpt lat="46.47027" lon="0.29668">
        <ele>84.800003051758</ele>
        <time>2020-06-13T21:40:51.409Z</time>
        <extensions>
          <gpxtpx:TrackPointExtension xmlns:gpxtpx="http://www.garmin.com/xmlschemas/TrackPointExtension/v1">
            <gpxtpx:hr>158</gpxtpx:hr>
          </gpxtpx:TrackPointExtension>
        </extensions>
      </trkpt>
      <trkpt lat="46.47033" lon="0.29663">
        <ele>85</ele>
        <time>2020-06-13T21:40:53.220Z</time>
        <extensions>
          <gpxtpx:TrackPointExtension xmlns:gpxtpx="http://www.garmin.com/xmlschemas/TrackPointExtension/v1">
            <gpxtpx:hr>158</gpxtpx:hr>
          </gpxtpx:TrackPointExtension>
        </extensions>
      </trkpt>
      <trkpt lat="46.47038" lon="0.29659">
        <ele>85</ele>
        <time>2020-06-13T21:40:54.319Z</time>
        <extensions>
          <gpxtpx:TrackPointExtension xmlns:gpxtpx="http://www.garmin.com/xmlschemas/TrackPointExtension/v1">
            <gpxtpx:hr>158</gpxtpx:hr>
          </gpxtpx:TrackPointExtension>
        </extensions>
      </trkpt>
      <trkpt lat="46.47043" lon="0.29654">
        <ele>85</ele>
        <time>2020-06-13T21:40:55.487Z</time>
        <extensions>
          <gpxtpx:TrackPointExtension xmlns:gpxtpx="http://www.garmin.com/xmlschemas/TrackPointExtension/v1">
            <gpxtpx:hr>158</gpxtpx:hr>
          </gpxtpx:TrackPointExtension>
        </extensions>
      </trkpt>
      <trkpt lat="46.47048" lon="0.2965">
        <ele>85.199996948242</ele>
        <time>2020-06-13T21:40:57.105Z</time>
        <extensions>
          <gpxtpx:TrackPointExtension xmlns:gpxtpx="http://www.garmin.com/xmlschemas/TrackPointExtension/v1">
            <gpxtpx:hr>158</gpxtpx:hr>
          </gpxtpx:TrackPointExtension>
        </extensions>
      </trkpt>
      <trkpt lat="46.47053" lon="0.29646">
        <ele>85.199996948242</ele>
        <time>2020-06-13T21:40:58.203Z</time>
        <extensions>
          <gpxtpx:TrackPointExtension xmlns:gpxtpx="http://www.garmin.com/xmlschemas/TrackPointExtension/v1">
            <gpxtpx:hr>158</gpxtpx:hr>
          </gpxtpx:TrackPointExtension>
        </extensions>
      </trkpt>
      <trkpt lat="46.47058" lon="0.29641">
        <ele>85.400001525879</ele>
        <time>2020-06-13T21:40:59.876Z</time>
        <extensions>
          <gpxtpx:TrackPointExtension xmlns:gpxtpx="http://www.garmin.com/xmlschemas/TrackPointExtension/v1">
            <gpxtpx:hr>158</gpxtpx:hr>
          </gpxtpx:TrackPointExtension>
        </extensions>
      </trkpt>
      <trkpt lat="46.47063" lon="0.29637">
        <ele>85.400001525879</ele>
        <time>2020-06-13T21:41:00.975Z</time>
        <extensions>
          <gpxtpx:TrackPointExtension xmlns:gpxtpx="http://www.garmin.com/xmlschemas/TrackPointExtension/v1">
            <gpxtpx:hr>158</gpxtpx:hr>
          </gpxtpx:TrackPointExtension>
        </extensions>
      </trkpt>
      <trkpt lat="46.47068" lon="0.29632">
        <ele>85.400001525879</ele>
        <time>2020-06-13T21:41:02.143Z</time>
        <extensions>
          <gpxtpx:TrackPointExtension xmlns:gpxtpx="http://www.garmin.com/xmlschemas/TrackPointExtension/v1">
            <gpxtpx:hr>158</gpxtpx:hr>
          </gpxtpx:TrackPointExtension>
        </extensions>
      </trkpt>
      <trkpt lat="46.47073" lon="0.29627">
        <ele>85.400001525879</ele>
        <time>2020-06-13T21:41:03.312Z</time>
        <extensions>
          <gpxtpx:TrackPointExtension xmlns:gpxtpx="http://www.garmin.com/xmlschemas/TrackPointExtension/v1">
            <gpxtpx:hr>158</gpxtpx:hr>
          </gpxtpx:TrackPointExtension>
        </extensions>
      </trkpt>
      <trkpt lat="46.47073" lon="0.29627">
        <ele>85.400001525879</ele>
        <time>2020-06-13T21:41:03.312Z</time>
        <extensions>
          <gpxtpx:TrackPointExtension xmlns:gpxtpx="http://www.garmin.com/xmlschemas/TrackPointExtension/v1">
            <gpxtpx:hr>159</gpxtpx:hr>
          </gpxtpx:TrackPointExtension>
        </extensions>
      </trkpt>
      <trkpt lat="46.47083" lon="0.29618">
        <ele>85.599998474121</ele>
        <time>2020-06-13T21:41:05.993Z</time>
        <extensions>
          <gpxtpx:TrackPointExtension xmlns:gpxtpx="http://www.garmin.com/xmlschemas/TrackPointExtension/v1">
            <gpxtpx:hr>159</gpxtpx:hr>
          </gpxtpx:TrackPointExtension>
        </extensions>
      </trkpt>
      <trkpt lat="46.47088" lon="0.29614">
        <ele>85.599998474121</ele>
        <time>2020-06-13T21:41:07.092Z</time>
        <extensions>
          <gpxtpx:TrackPointExtension xmlns:gpxtpx="http://www.garmin.com/xmlschemas/TrackPointExtension/v1">
            <gpxtpx:hr>159</gpxtpx:hr>
          </gpxtpx:TrackPointExtension>
        </extensions>
      </trkpt>
      <trkpt lat="46.47093" lon="0.29609">
        <ele>85.599998474121</ele>
        <time>2020-06-13T21:41:08.260Z</time>
        <extensions>
          <gpxtpx:TrackPointExtension xmlns:gpxtpx="http://www.garmin.com/xmlschemas/TrackPointExtension/v1">
            <gpxtpx:hr>159</gpxtpx:hr>
          </gpxtpx:TrackPointExtension>
        </extensions>
      </trkpt>
      <trkpt lat="46.47098" lon="0.29605">
        <ele>85.599998474121</ele>
        <time>2020-06-13T21:41:09.359Z</time>
        <extensions>
          <gpxtpx:TrackPointExtension xmlns:gpxtpx="http://www.garmin.com/xmlschemas/TrackPointExtension/v1">
            <gpxtpx:hr>159</gpxtpx:hr>
          </gpxtpx:TrackPointExtension>
        </extensions>
      </trkpt>
      <trkpt lat="46.47102" lon="0.29601">
        <ele>85.800003051758</ele>
        <time>2020-06-13T21:41:10.859Z</time>
        <extensions>
          <gpxtpx:TrackPointExtension xmlns:gpxtpx="http://www.garmin.com/xmlschemas/TrackPointExtension/v1">
            <gpxtpx:hr>159</gpxtpx:hr>
          </gpxtpx:TrackPointExtension>
        </extensions>
      </trkpt>
      <trkpt lat="46.47107" lon="0.29596">
        <ele>86.199996948242</ele>
        <time>2020-06-13T21:41:13.140Z</time>
        <extensions>
          <gpxtpx:TrackPointExtension xmlns:gpxtpx="http://www.garmin.com/xmlschemas/TrackPointExtension/v1">
            <gpxtpx:hr>159</gpxtpx:hr>
          </gpxtpx:TrackPointExtension>
        </extensions>
      </trkpt>
      <trkpt lat="46.47111" lon="0.29592">
        <ele>86.199996948242</ele>
        <time>2020-06-13T21:41:14.074Z</time>
        <extensions>
          <gpxtpx:TrackPointExtension xmlns:gpxtpx="http://www.garmin.com/xmlschemas/TrackPointExtension/v1">
            <gpxtpx:hr>159</gpxtpx:hr>
          </gpxtpx:TrackPointExtension>
        </extensions>
      </trkpt>
      <trkpt lat="46.47116" lon="0.29588">
        <ele>86.400001525879</ele>
        <time>2020-06-13T21:41:15.692Z</time>
        <extensions>
          <gpxtpx:TrackPointExtension xmlns:gpxtpx="http://www.garmin.com/xmlschemas/TrackPointExtension/v1">
            <gpxtpx:hr>159</gpxtpx:hr>
          </gpxtpx:TrackPointExtension>
        </extensions>
      </trkpt>
      <trkpt lat="46.4712" lon="0.29583">
        <ele>86.599998474121</ele>
        <time>2020-06-13T21:41:17.248Z</time>
        <extensions>
          <gpxtpx:TrackPointExtension xmlns:gpxtpx="http://www.garmin.com/xmlschemas/TrackPointExtension/v1">
            <gpxtpx:hr>159</gpxtpx:hr>
          </gpxtpx:TrackPointExtension>
        </extensions>
      </trkpt>
      <trkpt lat="46.47125" lon="0.29579">
        <ele>86.800003051758</ele>
        <time>2020-06-13T21:41:18.865Z</time>
        <extensions>
          <gpxtpx:TrackPointExtension xmlns:gpxtpx="http://www.garmin.com/xmlschemas/TrackPointExtension/v1">
            <gpxtpx:hr>159</gpxtpx:hr>
          </gpxtpx:TrackPointExtension>
        </extensions>
      </trkpt>
      <trkpt lat="46.47129" lon="0.29575">
        <ele>87</ele>
        <time>2020-06-13T21:41:20.366Z</time>
        <extensions>
          <gpxtpx:TrackPointExtension xmlns:gpxtpx="http://www.garmin.com/xmlschemas/TrackPointExtension/v1">
            <gpxtpx:hr>160</gpxtpx:hr>
          </gpxtpx:TrackPointExtension>
        </extensions>
      </trkpt>
      <trkpt lat="46.47134" lon="0.29571">
        <ele>87</ele>
        <time>2020-06-13T21:41:21.465Z</time>
        <extensions>
          <gpxtpx:TrackPointExtension xmlns:gpxtpx="http://www.garmin.com/xmlschemas/TrackPointExtension/v1">
            <gpxtpx:hr>160</gpxtpx:hr>
          </gpxtpx:TrackPointExtension>
        </extensions>
      </trkpt>
      <trkpt lat="46.47138" lon="0.29567">
        <ele>87.400001525879</ele>
        <time>2020-06-13T21:41:23.539Z</time>
        <extensions>
          <gpxtpx:TrackPointExtension xmlns:gpxtpx="http://www.garmin.com/xmlschemas/TrackPointExtension/v1">
            <gpxtpx:hr>160</gpxtpx:hr>
          </gpxtpx:TrackPointExtension>
        </extensions>
      </trkpt>
      <trkpt lat="46.47142" lon="0.29563">
        <ele>87.599998474121</ele>
        <time>2020-06-13T21:41:25.039Z</time>
        <extensions>
          <gpxtpx:TrackPointExtension xmlns:gpxtpx="http://www.garmin.com/xmlschemas/TrackPointExtension/v1">
            <gpxtpx:hr>160</gpxtpx:hr>
          </gpxtpx:TrackPointExtension>
        </extensions>
      </trkpt>
      <trkpt lat="46.47146" lon="0.29559">
        <ele>87.800003051758</ele>
        <time>2020-06-13T21:41:26.540Z</time>
        <extensions>
          <gpxtpx:TrackPointExtension xmlns:gpxtpx="http://www.garmin.com/xmlschemas/TrackPointExtension/v1">
            <gpxtpx:hr>161</gpxtpx:hr>
          </gpxtpx:TrackPointExtension>
        </extensions>
      </trkpt>
      <trkpt lat="46.4715" lon="0.29555">
        <ele>88</ele>
        <time>2020-06-13T21:41:28.041Z</time>
        <extensions>
          <gpxtpx:TrackPointExtension xmlns:gpxtpx="http://www.garmin.com/xmlschemas/TrackPointExtension/v1">
            <gpxtpx:hr>161</gpxtpx:hr>
          </gpxtpx:TrackPointExtension>
        </extensions>
      </trkpt>
      <trkpt lat="46.47154" lon="0.29551">
        <ele>88.400001525879</ele>
        <time>2020-06-13T21:41:30.115Z</time>
        <extensions>
          <gpxtpx:TrackPointExtension xmlns:gpxtpx="http://www.garmin.com/xmlschemas/TrackPointExtension/v1">
            <gpxtpx:hr>162</gpxtpx:hr>
          </gpxtpx:TrackPointExtension>
        </extensions>
      </trkpt>
      <trkpt lat="46.47158" lon="0.29547">
        <ele>88.599998474121</ele>
        <time>2020-06-13T21:41:31.615Z</time>
        <extensions>
          <gpxtpx:TrackPointExtension xmlns:gpxtpx="http://www.garmin.com/xmlschemas/TrackPointExtension/v1">
            <gpxtpx:hr>162</gpxtpx:hr>
          </gpxtpx:TrackPointExtension>
        </extensions>
      </trkpt>
      <trkpt lat="46.47162" lon="0.29544">
        <ele>89</ele>
        <time>2020-06-13T21:41:33.647Z</time>
        <extensions>
          <gpxtpx:TrackPointExtension xmlns:gpxtpx="http://www.garmin.com/xmlschemas/TrackPointExtension/v1">
            <gpxtpx:hr>162</gpxtpx:hr>
          </gpxtpx:TrackPointExtension>
        </extensions>
      </trkpt>
      <trkpt lat="46.47165" lon="0.2954">
        <ele>89.400001525879</ele>
        <time>2020-06-13T21:41:35.651Z</time>
        <extensions>
          <gpxtpx:TrackPointExtension xmlns:gpxtpx="http://www.garmin.com/xmlschemas/TrackPointExtension/v1">
            <gpxtpx:hr>162</gpxtpx:hr>
          </gpxtpx:TrackPointExtension>
        </extensions>
      </trkpt>
      <trkpt lat="46.47169" lon="0.29537">
        <ele>89.599998474121</ele>
        <time>2020-06-13T21:41:37.111Z</time>
        <extensions>
          <gpxtpx:TrackPointExtension xmlns:gpxtpx="http://www.garmin.com/xmlschemas/TrackPointExtension/v1">
            <gpxtpx:hr>163</gpxtpx:hr>
          </gpxtpx:TrackPointExtension>
        </extensions>
      </trkpt>
      <trkpt lat="46.47171" lon="0.29533">
        <ele>90.199996948242</ele>
        <time>2020-06-13T21:41:39.638Z</time>
        <extensions>
          <gpxtpx:TrackPointExtension xmlns:gpxtpx="http://www.garmin.com/xmlschemas/TrackPointExtension/v1">
            <gpxtpx:hr>163</gpxtpx:hr>
          </gpxtpx:TrackPointExtension>
        </extensions>
      </trkpt>
      <trkpt lat="46.47174" lon="0.29529">
        <ele>90.599998474121</ele>
        <time>2020-06-13T21:41:41.642Z</time>
        <extensions>
          <gpxtpx:TrackPointExtension xmlns:gpxtpx="http://www.garmin.com/xmlschemas/TrackPointExtension/v1">
            <gpxtpx:hr>163</gpxtpx:hr>
          </gpxtpx:TrackPointExtension>
        </extensions>
      </trkpt>
      <trkpt lat="46.47177" lon="0.29524">
        <ele>91.599998474121</ele>
        <time>2020-06-13T21:41:45.032Z</time>
        <extensions>
          <gpxtpx:TrackPointExtension xmlns:gpxtpx="http://www.garmin.com/xmlschemas/TrackPointExtension/v1">
            <gpxtpx:hr>163</gpxtpx:hr>
          </gpxtpx:TrackPointExtension>
        </extensions>
      </trkpt>
      <trkpt lat="46.47178" lon="0.29519">
        <ele>92.199996948242</ele>
        <time>2020-06-13T21:41:47.693Z</time>
        <extensions>
          <gpxtpx:TrackPointExtension xmlns:gpxtpx="http://www.garmin.com/xmlschemas/TrackPointExtension/v1">
            <gpxtpx:hr>164</gpxtpx:hr>
          </gpxtpx:TrackPointExtension>
        </extensions>
      </trkpt>
      <trkpt lat="46.47178" lon="0.29513">
        <ele>92.400001525879</ele>
        <time>2020-06-13T21:41:49.069Z</time>
        <extensions>
          <gpxtpx:TrackPointExtension xmlns:gpxtpx="http://www.garmin.com/xmlschemas/TrackPointExtension/v1">
            <gpxtpx:hr>164</gpxtpx:hr>
          </gpxtpx:TrackPointExtension>
        </extensions>
      </trkpt>
      <trkpt lat="46.47178" lon="0.29507">
        <ele>93</ele>
        <time>2020-06-13T21:41:52.136Z</time>
        <extensions>
          <gpxtpx:TrackPointExtension xmlns:gpxtpx="http://www.garmin.com/xmlschemas/TrackPointExtension/v1">
            <gpxtpx:hr>165</gpxtpx:hr>
          </gpxtpx:TrackPointExtension>
        </extensions>
      </trkpt>
      <trkpt lat="46.47178" lon="0.29501">
        <ele>93.199996948242</ele>
        <time>2020-06-13T21:41:53.512Z</time>
        <extensions>
          <gpxtpx:TrackPointExtension xmlns:gpxtpx="http://www.garmin.com/xmlschemas/TrackPointExtension/v1">
            <gpxtpx:hr>165</gpxtpx:hr>
          </gpxtpx:TrackPointExtension>
        </extensions>
      </trkpt>
      <trkpt lat="46.4718" lon="0.29497">
        <ele>93.599998474121</ele>
        <time>2020-06-13T21:41:55.566Z</time>
        <extensions>
          <gpxtpx:TrackPointExtension xmlns:gpxtpx="http://www.garmin.com/xmlschemas/TrackPointExtension/v1">
            <gpxtpx:hr>167</gpxtpx:hr>
          </gpxtpx:TrackPointExtension>
        </extensions>
      </trkpt>
      <trkpt lat="46.47183" lon="0.29496">
        <ele>94.199996948242</ele>
        <time>2020-06-13T21:41:57.851Z</time>
        <extensions>
          <gpxtpx:TrackPointExtension xmlns:gpxtpx="http://www.garmin.com/xmlschemas/TrackPointExtension/v1">
            <gpxtpx:hr>167</gpxtpx:hr>
          </gpxtpx:TrackPointExtension>
        </extensions>
      </trkpt>
      <trkpt lat="46.47186" lon="0.29498">
        <ele>95</ele>
        <time>2020-06-13T21:42:00.301Z</time>
        <extensions>
          <gpxtpx:TrackPointExtension xmlns:gpxtpx="http://www.garmin.com/xmlschemas/TrackPointExtension/v1">
            <gpxtpx:hr>169</gpxtpx:hr>
          </gpxtpx:TrackPointExtension>
        </extensions>
      </trkpt>
      <trkpt lat="46.47189" lon="0.29503">
        <ele>95.400001525879</ele>
        <time>2020-06-13T21:42:02.340Z</time>
        <extensions>
          <gpxtpx:TrackPointExtension xmlns:gpxtpx="http://www.garmin.com/xmlschemas/TrackPointExtension/v1">
            <gpxtpx:hr>169</gpxtpx:hr>
          </gpxtpx:TrackPointExtension>
        </extensions>
      </trkpt>
      <trkpt lat="46.47191" lon="0.29508">
        <ele>96</ele>
        <time>2020-06-13T21:42:05.296Z</time>
        <extensions>
          <gpxtpx:TrackPointExtension xmlns:gpxtpx="http://www.garmin.com/xmlschemas/TrackPointExtension/v1">
            <gpxtpx:hr>170</gpxtpx:hr>
          </gpxtpx:TrackPointExtension>
        </extensions>
      </trkpt>
      <trkpt lat="46.47194" lon="0.29513">
        <ele>96.800003051758</ele>
        <time>2020-06-13T21:42:08.686Z</time>
        <extensions>
          <gpxtpx:TrackPointExtension xmlns:gpxtpx="http://www.garmin.com/xmlschemas/TrackPointExtension/v1">
            <gpxtpx:hr>171</gpxtpx:hr>
          </gpxtpx:TrackPointExtension>
        </extensions>
      </trkpt>
      <trkpt lat="46.47197" lon="0.29518">
        <ele>97</ele>
        <time>2020-06-13T21:42:10.153Z</time>
        <extensions>
          <gpxtpx:TrackPointExtension xmlns:gpxtpx="http://www.garmin.com/xmlschemas/TrackPointExtension/v1">
            <gpxtpx:hr>171</gpxtpx:hr>
          </gpxtpx:TrackPointExtension>
        </extensions>
      </trkpt>
      <trkpt lat="46.472" lon="0.29523">
        <ele>97.400001525879</ele>
        <time>2020-06-13T21:42:12.192Z</time>
        <extensions>
          <gpxtpx:TrackPointExtension xmlns:gpxtpx="http://www.garmin.com/xmlschemas/TrackPointExtension/v1">
            <gpxtpx:hr>173</gpxtpx:hr>
          </gpxtpx:TrackPointExtension>
        </extensions>
      </trkpt>
      <trkpt lat="46.47202" lon="0.29529">
        <ele>97.599998474121</ele>
        <time>2020-06-13T21:42:13.662Z</time>
        <extensions>
          <gpxtpx:TrackPointExtension xmlns:gpxtpx="http://www.garmin.com/xmlschemas/TrackPointExtension/v1">
            <gpxtpx:hr>173</gpxtpx:hr>
          </gpxtpx:TrackPointExtension>
        </extensions>
      </trkpt>
      <trkpt lat="46.47204" lon="0.29535">
        <ele>97.800003051758</ele>
        <time>2020-06-13T21:42:15.132Z</time>
        <extensions>
          <gpxtpx:TrackPointExtension xmlns:gpxtpx="http://www.garmin.com/xmlschemas/TrackPointExtension/v1">
            <gpxtpx:hr>173</gpxtpx:hr>
          </gpxtpx:TrackPointExtension>
        </extensions>
      </trkpt>
      <trkpt lat="46.47206" lon="0.29541">
        <ele>98.199996948242</ele>
        <time>2020-06-13T21:42:17.174Z</time>
        <extensions>
          <gpxtpx:TrackPointExtension xmlns:gpxtpx="http://www.garmin.com/xmlschemas/TrackPointExtension/v1">
            <gpxtpx:hr>173</gpxtpx:hr>
          </gpxtpx:TrackPointExtension>
        </extensions>
      </trkpt>
      <trkpt lat="46.47208" lon="0.29546">
        <ele>98.199996948242</ele>
        <time>2020-06-13T21:42:17.940Z</time>
        <extensions>
          <gpxtpx:TrackPointExtension xmlns:gpxtpx="http://www.garmin.com/xmlschemas/TrackPointExtension/v1">
            <gpxtpx:hr>174</gpxtpx:hr>
          </gpxtpx:TrackPointExtension>
        </extensions>
      </trkpt>
      <trkpt lat="46.47209" lon="0.29552">
        <ele>98.599998474121</ele>
        <time>2020-06-13T21:42:19.952Z</time>
        <extensions>
          <gpxtpx:TrackPointExtension xmlns:gpxtpx="http://www.garmin.com/xmlschemas/TrackPointExtension/v1">
            <gpxtpx:hr>174</gpxtpx:hr>
          </gpxtpx:TrackPointExtension>
        </extensions>
      </trkpt>
      <trkpt lat="46.4721" lon="0.29558">
        <ele>98.800003051758</ele>
        <time>2020-06-13T21:42:21.355Z</time>
        <extensions>
          <gpxtpx:TrackPointExtension xmlns:gpxtpx="http://www.garmin.com/xmlschemas/TrackPointExtension/v1">
            <gpxtpx:hr>174</gpxtpx:hr>
          </gpxtpx:TrackPointExtension>
        </extensions>
      </trkpt>
      <trkpt lat="46.47211" lon="0.29564">
        <ele>99.199996948242</ele>
        <time>2020-06-13T21:42:23.367Z</time>
        <extensions>
          <gpxtpx:TrackPointExtension xmlns:gpxtpx="http://www.garmin.com/xmlschemas/TrackPointExtension/v1">
            <gpxtpx:hr>174</gpxtpx:hr>
          </gpxtpx:TrackPointExtension>
        </extensions>
      </trkpt>
      <trkpt lat="46.47212" lon="0.2957">
        <ele>99.400001525879</ele>
        <time>2020-06-13T21:42:24.770Z</time>
        <extensions>
          <gpxtpx:TrackPointExtension xmlns:gpxtpx="http://www.garmin.com/xmlschemas/TrackPointExtension/v1">
            <gpxtpx:hr>175</gpxtpx:hr>
          </gpxtpx:TrackPointExtension>
        </extensions>
      </trkpt>
      <trkpt lat="46.47213" lon="0.29576">
        <ele>99.800003051758</ele>
        <time>2020-06-13T21:42:26.782Z</time>
        <extensions>
          <gpxtpx:TrackPointExtension xmlns:gpxtpx="http://www.garmin.com/xmlschemas/TrackPointExtension/v1">
            <gpxtpx:hr>175</gpxtpx:hr>
          </gpxtpx:TrackPointExtension>
        </extensions>
      </trkpt>
      <trkpt lat="46.47214" lon="0.29582">
        <ele>100.19999694824</ele>
        <time>2020-06-13T21:42:28.794Z</time>
        <extensions>
          <gpxtpx:TrackPointExtension xmlns:gpxtpx="http://www.garmin.com/xmlschemas/TrackPointExtension/v1">
            <gpxtpx:hr>175</gpxtpx:hr>
          </gpxtpx:TrackPointExtension>
        </extensions>
      </trkpt>
      <trkpt lat="46.47215" lon="0.29588">
        <ele>100.40000152588</ele>
        <time>2020-06-13T21:42:30.197Z</time>
        <extensions>
          <gpxtpx:TrackPointExtension xmlns:gpxtpx="http://www.garmin.com/xmlschemas/TrackPointExtension/v1">
            <gpxtpx:hr>175</gpxtpx:hr>
          </gpxtpx:TrackPointExtension>
        </extensions>
      </trkpt>
      <trkpt lat="46.47216" lon="0.29594">
        <ele>100.59999847412</ele>
        <time>2020-06-13T21:42:31.600Z</time>
        <extensions>
          <gpxtpx:TrackPointExtension xmlns:gpxtpx="http://www.garmin.com/xmlschemas/TrackPointExtension/v1">
            <gpxtpx:hr>175</gpxtpx:hr>
          </gpxtpx:TrackPointExtension>
        </extensions>
      </trkpt>
      <trkpt lat="46.47216" lon="0.29594">
        <ele>100.80000305176</ele>
        <time>2020-06-13T21:42:31.600Z</time>
        <extensions>
          <gpxtpx:TrackPointExtension xmlns:gpxtpx="http://www.garmin.com/xmlschemas/TrackPointExtension/v1">
            <gpxtpx:hr>175</gpxtpx:hr>
          </gpxtpx:TrackPointExtension>
        </extensions>
      </trkpt>
      <trkpt lat="46.47218" lon="0.29607">
        <ele>101</ele>
        <time>2020-06-13T21:42:33.806Z</time>
        <extensions>
          <gpxtpx:TrackPointExtension xmlns:gpxtpx="http://www.garmin.com/xmlschemas/TrackPointExtension/v1">
            <gpxtpx:hr>175</gpxtpx:hr>
          </gpxtpx:TrackPointExtension>
        </extensions>
      </trkpt>
      <trkpt lat="46.47219" lon="0.29613">
        <ele>101.19999694824</ele>
        <time>2020-06-13T21:42:35.210Z</time>
        <extensions>
          <gpxtpx:TrackPointExtension xmlns:gpxtpx="http://www.garmin.com/xmlschemas/TrackPointExtension/v1">
            <gpxtpx:hr>175</gpxtpx:hr>
          </gpxtpx:TrackPointExtension>
        </extensions>
      </trkpt>
      <trkpt lat="46.47221" lon="0.29619">
        <ele>101.59999847412</ele>
        <time>2020-06-13T21:42:37.251Z</time>
        <extensions>
          <gpxtpx:TrackPointExtension xmlns:gpxtpx="http://www.garmin.com/xmlschemas/TrackPointExtension/v1">
            <gpxtpx:hr>175</gpxtpx:hr>
          </gpxtpx:TrackPointExtension>
        </extensions>
      </trkpt>
      <trkpt lat="46.47222" lon="0.29625">
        <ele>102</ele>
        <time>2020-06-13T21:42:39.263Z</time>
        <extensions>
          <gpxtpx:TrackPointExtension xmlns:gpxtpx="http://www.garmin.com/xmlschemas/TrackPointExtension/v1">
            <gpxtpx:hr>175</gpxtpx:hr>
          </gpxtpx:TrackPointExtension>
        </extensions>
      </trkpt>
      <trkpt lat="46.47224" lon="0.29631">
        <ele>102.19999694824</ele>
        <time>2020-06-13T21:42:40.733Z</time>
        <extensions>
          <gpxtpx:TrackPointExtension xmlns:gpxtpx="http://www.garmin.com/xmlschemas/TrackPointExtension/v1">
            <gpxtpx:hr>175</gpxtpx:hr>
          </gpxtpx:TrackPointExtension>
        </extensions>
      </trkpt>
      <trkpt lat="46.47225" lon="0.29637">
        <ele>102.40000152588</ele>
        <time>2020-06-13T21:42:42.136Z</time>
        <extensions>
          <gpxtpx:TrackPointExtension xmlns:gpxtpx="http://www.garmin.com/xmlschemas/TrackPointExtension/v1">
            <gpxtpx:hr>175</gpxtpx:hr>
          </gpxtpx:TrackPointExtension>
        </extensions>
      </trkpt>
      <trkpt lat="46.47226" lon="0.29643">
        <ele>102.59999847412</ele>
        <time>2020-06-13T21:42:43.539Z</time>
        <extensions>
          <gpxtpx:TrackPointExtension xmlns:gpxtpx="http://www.garmin.com/xmlschemas/TrackPointExtension/v1">
            <gpxtpx:hr>175</gpxtpx:hr>
          </gpxtpx:TrackPointExtension>
        </extensions>
      </trkpt>
      <trkpt lat="46.47228" lon="0.29648">
        <ele>102.80000305176</ele>
        <time>2020-06-13T21:42:44.881Z</time>
        <extensions>
          <gpxtpx:TrackPointExtension xmlns:gpxtpx="http://www.garmin.com/xmlschemas/TrackPointExtension/v1">
            <gpxtpx:hr>176</gpxtpx:hr>
          </gpxtpx:TrackPointExtension>
        </extensions>
      </trkpt>
      <trkpt lat="46.4723" lon="0.29652">
        <ele>103.40000152588</ele>
        <time>2020-06-13T21:42:47.408Z</time>
        <extensions>
          <gpxtpx:TrackPointExtension xmlns:gpxtpx="http://www.garmin.com/xmlschemas/TrackPointExtension/v1">
            <gpxtpx:hr>176</gpxtpx:hr>
          </gpxtpx:TrackPointExtension>
        </extensions>
      </trkpt>
      <trkpt lat="46.47232" lon="0.29654">
        <ele>103.59999847412</ele>
        <time>2020-06-13T21:42:48.445Z</time>
        <extensions>
          <gpxtpx:TrackPointExtension xmlns:gpxtpx="http://www.garmin.com/xmlschemas/TrackPointExtension/v1">
            <gpxtpx:hr>175</gpxtpx:hr>
          </gpxtpx:TrackPointExtension>
        </extensions>
      </trkpt>
      <trkpt lat="46.47235" lon="0.29655">
        <ele>104</ele>
        <time>2020-06-13T21:42:50.621Z</time>
        <extensions>
          <gpxtpx:TrackPointExtension xmlns:gpxtpx="http://www.garmin.com/xmlschemas/TrackPointExtension/v1">
            <gpxtpx:hr>175</gpxtpx:hr>
          </gpxtpx:TrackPointExtension>
        </extensions>
      </trkpt>
      <trkpt lat="46.47238" lon="0.29656">
        <ele>104.19999694824</ele>
        <time>2020-06-13T21:42:51.769Z</time>
        <extensions>
          <gpxtpx:TrackPointExtension xmlns:gpxtpx="http://www.garmin.com/xmlschemas/TrackPointExtension/v1">
            <gpxtpx:hr>175</gpxtpx:hr>
          </gpxtpx:TrackPointExtension>
        </extensions>
      </trkpt>
      <trkpt lat="46.47241" lon="0.29657">
        <ele>104.59999847412</ele>
        <time>2020-06-13T21:42:53.944Z</time>
        <extensions>
          <gpxtpx:TrackPointExtension xmlns:gpxtpx="http://www.garmin.com/xmlschemas/TrackPointExtension/v1">
            <gpxtpx:hr>175</gpxtpx:hr>
          </gpxtpx:TrackPointExtension>
        </extensions>
      </trkpt>
      <trkpt lat="46.47243" lon="0.29658">
        <ele>104.59999847412</ele>
        <time>2020-06-13T21:42:54.351Z</time>
        <extensions>
          <gpxtpx:TrackPointExtension xmlns:gpxtpx="http://www.garmin.com/xmlschemas/TrackPointExtension/v1">
            <gpxtpx:hr>175</gpxtpx:hr>
          </gpxtpx:TrackPointExtension>
        </extensions>
      </trkpt>
      <trkpt lat="46.47246" lon="0.29659">
        <ele>105</ele>
        <time>2020-06-13T21:42:56.527Z</time>
        <extensions>
          <gpxtpx:TrackPointExtension xmlns:gpxtpx="http://www.garmin.com/xmlschemas/TrackPointExtension/v1">
            <gpxtpx:hr>175</gpxtpx:hr>
          </gpxtpx:TrackPointExtension>
        </extensions>
      </trkpt>
      <trkpt lat="46.47249" lon="0.29661">
        <ele>105.40000152588</ele>
        <time>2020-06-13T21:42:58.608Z</time>
        <extensions>
          <gpxtpx:TrackPointExtension xmlns:gpxtpx="http://www.garmin.com/xmlschemas/TrackPointExtension/v1">
            <gpxtpx:hr>175</gpxtpx:hr>
          </gpxtpx:TrackPointExtension>
        </extensions>
      </trkpt>
      <trkpt lat="46.47252" lon="0.29662">
        <ele>105.59999847412</ele>
        <time>2020-06-13T21:42:59.756Z</time>
        <extensions>
          <gpxtpx:TrackPointExtension xmlns:gpxtpx="http://www.garmin.com/xmlschemas/TrackPointExtension/v1">
            <gpxtpx:hr>175</gpxtpx:hr>
          </gpxtpx:TrackPointExtension>
        </extensions>
      </trkpt>
      <trkpt lat="46.47255" lon="0.29663">
        <ele>106</ele>
        <time>2020-06-13T21:43:01.932Z</time>
        <extensions>
          <gpxtpx:TrackPointExtension xmlns:gpxtpx="http://www.garmin.com/xmlschemas/TrackPointExtension/v1">
            <gpxtpx:hr>174</gpxtpx:hr>
          </gpxtpx:TrackPointExtension>
        </extensions>
      </trkpt>
      <trkpt lat="46.47258" lon="0.29664">
        <ele>106</ele>
        <time>2020-06-13T21:43:02.524Z</time>
        <extensions>
          <gpxtpx:TrackPointExtension xmlns:gpxtpx="http://www.garmin.com/xmlschemas/TrackPointExtension/v1">
            <gpxtpx:hr>174</gpxtpx:hr>
          </gpxtpx:TrackPointExtension>
        </extensions>
      </trkpt>
      <trkpt lat="46.47258" lon="0.29664">
        <ele>106.19999694824</ele>
        <time>2020-06-13T21:43:02.524Z</time>
        <extensions>
          <gpxtpx:TrackPointExtension xmlns:gpxtpx="http://www.garmin.com/xmlschemas/TrackPointExtension/v1">
            <gpxtpx:hr>174</gpxtpx:hr>
          </gpxtpx:TrackPointExtension>
        </extensions>
      </trkpt>
      <trkpt lat="46.47264" lon="0.29666">
        <ele>106.40000152588</ele>
        <time>2020-06-13T21:43:04.211Z</time>
        <extensions>
          <gpxtpx:TrackPointExtension xmlns:gpxtpx="http://www.garmin.com/xmlschemas/TrackPointExtension/v1">
            <gpxtpx:hr>174</gpxtpx:hr>
          </gpxtpx:TrackPointExtension>
        </extensions>
      </trkpt>
      <trkpt lat="46.47267" lon="0.29667">
        <ele>106.80000305176</ele>
        <time>2020-06-13T21:43:06.386Z</time>
        <extensions>
          <gpxtpx:TrackPointExtension xmlns:gpxtpx="http://www.garmin.com/xmlschemas/TrackPointExtension/v1">
            <gpxtpx:hr>174</gpxtpx:hr>
          </gpxtpx:TrackPointExtension>
        </extensions>
      </trkpt>
      <trkpt lat="46.47271" lon="0.29668">
        <ele>107</ele>
        <time>2020-06-13T21:43:07.745Z</time>
        <extensions>
          <gpxtpx:TrackPointExtension xmlns:gpxtpx="http://www.garmin.com/xmlschemas/TrackPointExtension/v1">
            <gpxtpx:hr>174</gpxtpx:hr>
          </gpxtpx:TrackPointExtension>
        </extensions>
      </trkpt>
      <trkpt lat="46.47274" lon="0.29669">
        <ele>107.19999694824</ele>
        <time>2020-06-13T21:43:08.894Z</time>
        <extensions>
          <gpxtpx:TrackPointExtension xmlns:gpxtpx="http://www.garmin.com/xmlschemas/TrackPointExtension/v1">
            <gpxtpx:hr>174</gpxtpx:hr>
          </gpxtpx:TrackPointExtension>
        </extensions>
      </trkpt>
      <trkpt lat="46.47277" lon="0.29669">
        <ele>107.80000305176</ele>
        <time>2020-06-13T21:43:11.120Z</time>
        <extensions>
          <gpxtpx:TrackPointExtension xmlns:gpxtpx="http://www.garmin.com/xmlschemas/TrackPointExtension/v1">
            <gpxtpx:hr>174</gpxtpx:hr>
          </gpxtpx:TrackPointExtension>
        </extensions>
      </trkpt>
      <trkpt lat="46.4728" lon="0.29669">
        <ele>108</ele>
        <time>2020-06-13T21:43:12.253Z</time>
        <extensions>
          <gpxtpx:TrackPointExtension xmlns:gpxtpx="http://www.garmin.com/xmlschemas/TrackPointExtension/v1">
            <gpxtpx:hr>174</gpxtpx:hr>
          </gpxtpx:TrackPointExtension>
        </extensions>
      </trkpt>
      <trkpt lat="46.47282" lon="0.2967">
        <ele>108.59999847412</ele>
        <time>2020-06-13T21:43:13.824Z</time>
        <extensions>
          <gpxtpx:TrackPointExtension xmlns:gpxtpx="http://www.garmin.com/xmlschemas/TrackPointExtension/v1">
            <gpxtpx:hr>174</gpxtpx:hr>
          </gpxtpx:TrackPointExtension>
        </extensions>
      </trkpt>
      <trkpt lat="46.47284" lon="0.2967">
        <ele>108.80000305176</ele>
        <time>2020-06-13T21:43:14.824Z</time>
        <extensions>
          <gpxtpx:TrackPointExtension xmlns:gpxtpx="http://www.garmin.com/xmlschemas/TrackPointExtension/v1">
            <gpxtpx:hr>174</gpxtpx:hr>
          </gpxtpx:TrackPointExtension>
        </extensions>
      </trkpt>
      <trkpt lat="46.47286" lon="0.29671">
        <ele>109.19999694824</ele>
        <time>2020-06-13T21:43:16.395Z</time>
        <extensions>
          <gpxtpx:TrackPointExtension xmlns:gpxtpx="http://www.garmin.com/xmlschemas/TrackPointExtension/v1">
            <gpxtpx:hr>174</gpxtpx:hr>
          </gpxtpx:TrackPointExtension>
        </extensions>
      </trkpt>
      <trkpt lat="46.47289" lon="0.29673">
        <ele>109.59999847412</ele>
        <time>2020-06-13T21:43:18.476Z</time>
        <extensions>
          <gpxtpx:TrackPointExtension xmlns:gpxtpx="http://www.garmin.com/xmlschemas/TrackPointExtension/v1">
            <gpxtpx:hr>174</gpxtpx:hr>
          </gpxtpx:TrackPointExtension>
        </extensions>
      </trkpt>
      <trkpt lat="46.47291" lon="0.29675">
        <ele>109.80000305176</ele>
        <time>2020-06-13T21:43:19.513Z</time>
        <extensions>
          <gpxtpx:TrackPointExtension xmlns:gpxtpx="http://www.garmin.com/xmlschemas/TrackPointExtension/v1">
            <gpxtpx:hr>175</gpxtpx:hr>
          </gpxtpx:TrackPointExtension>
        </extensions>
      </trkpt>
      <trkpt lat="46.47293" lon="0.29677">
        <ele>110</ele>
        <time>2020-06-13T21:43:20.550Z</time>
        <extensions>
          <gpxtpx:TrackPointExtension xmlns:gpxtpx="http://www.garmin.com/xmlschemas/TrackPointExtension/v1">
            <gpxtpx:hr>175</gpxtpx:hr>
          </gpxtpx:TrackPointExtension>
        </extensions>
      </trkpt>
      <trkpt lat="46.47296" lon="0.2968">
        <ele>110.19999694824</ele>
        <time>2020-06-13T21:43:21.816Z</time>
        <extensions>
          <gpxtpx:TrackPointExtension xmlns:gpxtpx="http://www.garmin.com/xmlschemas/TrackPointExtension/v1">
            <gpxtpx:hr>175</gpxtpx:hr>
          </gpxtpx:TrackPointExtension>
        </extensions>
      </trkpt>
      <trkpt lat="46.47299" lon="0.29683">
        <ele>110.40000152588</ele>
        <time>2020-06-13T21:43:23.083Z</time>
        <extensions>
          <gpxtpx:TrackPointExtension xmlns:gpxtpx="http://www.garmin.com/xmlschemas/TrackPointExtension/v1">
            <gpxtpx:hr>175</gpxtpx:hr>
          </gpxtpx:TrackPointExtension>
        </extensions>
      </trkpt>
      <trkpt lat="46.47302" lon="0.29686">
        <ele>110.59999847412</ele>
        <time>2020-06-13T21:43:24.349Z</time>
        <extensions>
          <gpxtpx:TrackPointExtension xmlns:gpxtpx="http://www.garmin.com/xmlschemas/TrackPointExtension/v1">
            <gpxtpx:hr>175</gpxtpx:hr>
          </gpxtpx:TrackPointExtension>
        </extensions>
      </trkpt>
      <trkpt lat="46.47306" lon="0.29688">
        <ele>110.59999847412</ele>
        <time>2020-06-13T21:43:25.163Z</time>
        <extensions>
          <gpxtpx:TrackPointExtension xmlns:gpxtpx="http://www.garmin.com/xmlschemas/TrackPointExtension/v1">
            <gpxtpx:hr>175</gpxtpx:hr>
          </gpxtpx:TrackPointExtension>
        </extensions>
      </trkpt>
      <trkpt lat="46.47309" lon="0.29692">
        <ele>110.59999847412</ele>
        <time>2020-06-13T21:43:25.947Z</time>
        <extensions>
          <gpxtpx:TrackPointExtension xmlns:gpxtpx="http://www.garmin.com/xmlschemas/TrackPointExtension/v1">
            <gpxtpx:hr>175</gpxtpx:hr>
          </gpxtpx:TrackPointExtension>
        </extensions>
      </trkpt>
      <trkpt lat="46.47312" lon="0.29695">
        <ele>110.59999847412</ele>
        <time>2020-06-13T21:43:26.648Z</time>
        <extensions>
          <gpxtpx:TrackPointExtension xmlns:gpxtpx="http://www.garmin.com/xmlschemas/TrackPointExtension/v1">
            <gpxtpx:hr>175</gpxtpx:hr>
          </gpxtpx:TrackPointExtension>
        </extensions>
      </trkpt>
      <trkpt lat="46.47316" lon="0.29698">
        <ele>110.59999847412</ele>
        <time>2020-06-13T21:43:27.514Z</time>
        <extensions>
          <gpxtpx:TrackPointExtension xmlns:gpxtpx="http://www.garmin.com/xmlschemas/TrackPointExtension/v1">
            <gpxtpx:hr>175</gpxtpx:hr>
          </gpxtpx:TrackPointExtension>
        </extensions>
      </trkpt>
      <trkpt lat="46.47319" lon="0.29702">
        <ele>110.59999847412</ele>
        <time>2020-06-13T21:43:28.298Z</time>
        <extensions>
          <gpxtpx:TrackPointExtension xmlns:gpxtpx="http://www.garmin.com/xmlschemas/TrackPointExtension/v1">
            <gpxtpx:hr>175</gpxtpx:hr>
          </gpxtpx:TrackPointExtension>
        </extensions>
      </trkpt>
      <trkpt lat="46.47323" lon="0.29706">
        <ele>110.59999847412</ele>
        <time>2020-06-13T21:43:29.233Z</time>
        <extensions>
          <gpxtpx:TrackPointExtension xmlns:gpxtpx="http://www.garmin.com/xmlschemas/TrackPointExtension/v1">
            <gpxtpx:hr>175</gpxtpx:hr>
          </gpxtpx:TrackPointExtension>
        </extensions>
      </trkpt>
      <trkpt lat="46.47327" lon="0.2971">
        <ele>110.59999847412</ele>
        <time>2020-06-13T21:43:30.167Z</time>
        <extensions>
          <gpxtpx:TrackPointExtension xmlns:gpxtpx="http://www.garmin.com/xmlschemas/TrackPointExtension/v1">
            <gpxtpx:hr>175</gpxtpx:hr>
          </gpxtpx:TrackPointExtension>
        </extensions>
      </trkpt>
      <trkpt lat="46.47331" lon="0.29714">
        <ele>110.59999847412</ele>
        <time>2020-06-13T21:43:31.102Z</time>
        <extensions>
          <gpxtpx:TrackPointExtension xmlns:gpxtpx="http://www.garmin.com/xmlschemas/TrackPointExtension/v1">
            <gpxtpx:hr>175</gpxtpx:hr>
          </gpxtpx:TrackPointExtension>
        </extensions>
      </trkpt>
      <trkpt lat="46.47335" lon="0.29718">
        <ele>110.59999847412</ele>
        <time>2020-06-13T21:43:32.037Z</time>
        <extensions>
          <gpxtpx:TrackPointExtension xmlns:gpxtpx="http://www.garmin.com/xmlschemas/TrackPointExtension/v1">
            <gpxtpx:hr>175</gpxtpx:hr>
          </gpxtpx:TrackPointExtension>
        </extensions>
      </trkpt>
      <trkpt lat="46.47339" lon="0.29722">
        <ele>110.59999847412</ele>
        <time>2020-06-13T21:43:32.971Z</time>
        <extensions>
          <gpxtpx:TrackPointExtension xmlns:gpxtpx="http://www.garmin.com/xmlschemas/TrackPointExtension/v1">
            <gpxtpx:hr>175</gpxtpx:hr>
          </gpxtpx:TrackPointExtension>
        </extensions>
      </trkpt>
      <trkpt lat="46.47347" lon="0.29729">
        <ele>110.40000152588</ele>
        <time>2020-06-13T21:43:34.174Z</time>
        <extensions>
          <gpxtpx:TrackPointExtension xmlns:gpxtpx="http://www.garmin.com/xmlschemas/TrackPointExtension/v1">
            <gpxtpx:hr>174</gpxtpx:hr>
          </gpxtpx:TrackPointExtension>
        </extensions>
      </trkpt>
      <trkpt lat="46.4736" lon="0.29742">
        <ele>110.59999847412</ele>
        <time>2020-06-13T21:43:37.611Z</time>
        <extensions>
          <gpxtpx:TrackPointExtension xmlns:gpxtpx="http://www.garmin.com/xmlschemas/TrackPointExtension/v1">
            <gpxtpx:hr>173</gpxtpx:hr>
          </gpxtpx:TrackPointExtension>
        </extensions>
      </trkpt>
      <trkpt lat="46.47376" lon="0.29759">
        <ele>110.40000152588</ele>
        <time>2020-06-13T21:43:40.547Z</time>
        <extensions>
          <gpxtpx:TrackPointExtension xmlns:gpxtpx="http://www.garmin.com/xmlschemas/TrackPointExtension/v1">
            <gpxtpx:hr>172</gpxtpx:hr>
          </gpxtpx:TrackPointExtension>
        </extensions>
      </trkpt>
      <trkpt lat="46.4738" lon="0.29764">
        <ele>110.40000152588</ele>
        <time>2020-06-13T21:43:41.563Z</time>
        <extensions>
          <gpxtpx:TrackPointExtension xmlns:gpxtpx="http://www.garmin.com/xmlschemas/TrackPointExtension/v1">
            <gpxtpx:hr>171</gpxtpx:hr>
          </gpxtpx:TrackPointExtension>
        </extensions>
      </trkpt>
      <trkpt lat="46.47398" lon="0.29788">
        <ele>110.59999847412</ele>
        <time>2020-06-13T21:43:46.647Z</time>
        <extensions>
          <gpxtpx:TrackPointExtension xmlns:gpxtpx="http://www.garmin.com/xmlschemas/TrackPointExtension/v1">
            <gpxtpx:hr>170</gpxtpx:hr>
          </gpxtpx:TrackPointExtension>
        </extensions>
      </trkpt>
      <trkpt lat="46.47403" lon="0.29793">
        <ele>110.80000305176</ele>
        <time>2020-06-13T21:43:48.320Z</time>
        <extensions>
          <gpxtpx:TrackPointExtension xmlns:gpxtpx="http://www.garmin.com/xmlschemas/TrackPointExtension/v1">
            <gpxtpx:hr>170</gpxtpx:hr>
          </gpxtpx:TrackPointExtension>
        </extensions>
      </trkpt>
      <trkpt lat="46.47407" lon="0.29799">
        <ele>110.80000305176</ele>
        <time>2020-06-13T21:43:49.427Z</time>
        <extensions>
          <gpxtpx:TrackPointExtension xmlns:gpxtpx="http://www.garmin.com/xmlschemas/TrackPointExtension/v1">
            <gpxtpx:hr>169</gpxtpx:hr>
          </gpxtpx:TrackPointExtension>
        </extensions>
      </trkpt>
      <trkpt lat="46.47412" lon="0.29805">
        <ele>110.80000305176</ele>
        <time>2020-06-13T21:43:50.675Z</time>
        <extensions>
          <gpxtpx:TrackPointExtension xmlns:gpxtpx="http://www.garmin.com/xmlschemas/TrackPointExtension/v1">
            <gpxtpx:hr>169</gpxtpx:hr>
          </gpxtpx:TrackPointExtension>
        </extensions>
      </trkpt>
      <trkpt lat="46.47417" lon="0.29816">
        <ele>110.80000305176</ele>
        <time>2020-06-13T21:43:52.422Z</time>
        <extensions>
          <gpxtpx:TrackPointExtension xmlns:gpxtpx="http://www.garmin.com/xmlschemas/TrackPointExtension/v1">
            <gpxtpx:hr>168</gpxtpx:hr>
          </gpxtpx:TrackPointExtension>
        </extensions>
      </trkpt>
      <trkpt lat="46.47422" lon="0.29822">
        <ele>110.80000305176</ele>
        <time>2020-06-13T21:43:53.670Z</time>
        <extensions>
          <gpxtpx:TrackPointExtension xmlns:gpxtpx="http://www.garmin.com/xmlschemas/TrackPointExtension/v1">
            <gpxtpx:hr>168</gpxtpx:hr>
          </gpxtpx:TrackPointExtension>
        </extensions>
      </trkpt>
      <trkpt lat="46.47427" lon="0.29828">
        <ele>110.80000305176</ele>
        <time>2020-06-13T21:43:54.918Z</time>
        <extensions>
          <gpxtpx:TrackPointExtension xmlns:gpxtpx="http://www.garmin.com/xmlschemas/TrackPointExtension/v1">
            <gpxtpx:hr>168</gpxtpx:hr>
          </gpxtpx:TrackPointExtension>
        </extensions>
      </trkpt>
      <trkpt lat="46.47431" lon="0.2983">
        <ele>110.80000305176</ele>
        <time>2020-06-13T21:43:55.732Z</time>
        <extensions>
          <gpxtpx:TrackPointExtension xmlns:gpxtpx="http://www.garmin.com/xmlschemas/TrackPointExtension/v1">
            <gpxtpx:hr>167</gpxtpx:hr>
          </gpxtpx:TrackPointExtension>
        </extensions>
      </trkpt>
      <trkpt lat="46.47436" lon="0.29835">
        <ele>110.80000305176</ele>
        <time>2020-06-13T21:43:56.901Z</time>
        <extensions>
          <gpxtpx:TrackPointExtension xmlns:gpxtpx="http://www.garmin.com/xmlschemas/TrackPointExtension/v1">
            <gpxtpx:hr>167</gpxtpx:hr>
          </gpxtpx:TrackPointExtension>
        </extensions>
      </trkpt>
      <trkpt lat="46.47441" lon="0.2984">
        <ele>110.80000305176</ele>
        <time>2020-06-13T21:43:58.069Z</time>
        <extensions>
          <gpxtpx:TrackPointExtension xmlns:gpxtpx="http://www.garmin.com/xmlschemas/TrackPointExtension/v1">
            <gpxtpx:hr>167</gpxtpx:hr>
          </gpxtpx:TrackPointExtension>
        </extensions>
      </trkpt>
      <trkpt lat="46.4745" lon="0.29849">
        <ele>111</ele>
        <time>2020-06-13T21:44:00.595Z</time>
        <extensions>
          <gpxtpx:TrackPointExtension xmlns:gpxtpx="http://www.garmin.com/xmlschemas/TrackPointExtension/v1">
            <gpxtpx:hr>166</gpxtpx:hr>
          </gpxtpx:TrackPointExtension>
        </extensions>
      </trkpt>
      <trkpt lat="46.47454" lon="0.29852">
        <ele>111</ele>
        <time>2020-06-13T21:44:01.462Z</time>
        <extensions>
          <gpxtpx:TrackPointExtension xmlns:gpxtpx="http://www.garmin.com/xmlschemas/TrackPointExtension/v1">
            <gpxtpx:hr>165</gpxtpx:hr>
          </gpxtpx:TrackPointExtension>
        </extensions>
      </trkpt>
      <trkpt lat="46.47458" lon="0.29855">
        <ele>111</ele>
        <time>2020-06-13T21:44:02.328Z</time>
        <extensions>
          <gpxtpx:TrackPointExtension xmlns:gpxtpx="http://www.garmin.com/xmlschemas/TrackPointExtension/v1">
            <gpxtpx:hr>165</gpxtpx:hr>
          </gpxtpx:TrackPointExtension>
        </extensions>
      </trkpt>
      <trkpt lat="46.47458" lon="0.29855">
        <ele>111</ele>
        <time>2020-06-13T21:44:02.328Z</time>
        <extensions>
          <gpxtpx:TrackPointExtension xmlns:gpxtpx="http://www.garmin.com/xmlschemas/TrackPointExtension/v1">
            <gpxtpx:hr>165</gpxtpx:hr>
          </gpxtpx:TrackPointExtension>
        </extensions>
      </trkpt>
      <trkpt lat="46.47467" lon="0.29861">
        <ele>111.40000152588</ele>
        <time>2020-06-13T21:44:05.353Z</time>
        <extensions>
          <gpxtpx:TrackPointExtension xmlns:gpxtpx="http://www.garmin.com/xmlschemas/TrackPointExtension/v1">
            <gpxtpx:hr>165</gpxtpx:hr>
          </gpxtpx:TrackPointExtension>
        </extensions>
      </trkpt>
      <trkpt lat="46.47471" lon="0.29864">
        <ele>111.59999847412</ele>
        <time>2020-06-13T21:44:06.814Z</time>
        <extensions>
          <gpxtpx:TrackPointExtension xmlns:gpxtpx="http://www.garmin.com/xmlschemas/TrackPointExtension/v1">
            <gpxtpx:hr>164</gpxtpx:hr>
          </gpxtpx:TrackPointExtension>
        </extensions>
      </trkpt>
      <trkpt lat="46.47475" lon="0.29867">
        <ele>111.59999847412</ele>
        <time>2020-06-13T21:44:07.680Z</time>
        <extensions>
          <gpxtpx:TrackPointExtension xmlns:gpxtpx="http://www.garmin.com/xmlschemas/TrackPointExtension/v1">
            <gpxtpx:hr>164</gpxtpx:hr>
          </gpxtpx:TrackPointExtension>
        </extensions>
      </trkpt>
      <trkpt lat="46.4748" lon="0.2987">
        <ele>111.59999847412</ele>
        <time>2020-06-13T21:44:08.721Z</time>
        <extensions>
          <gpxtpx:TrackPointExtension xmlns:gpxtpx="http://www.garmin.com/xmlschemas/TrackPointExtension/v1">
            <gpxtpx:hr>163</gpxtpx:hr>
          </gpxtpx:TrackPointExtension>
        </extensions>
      </trkpt>
      <trkpt lat="46.47486" lon="0.29873">
        <ele>111.59999847412</ele>
        <time>2020-06-13T21:44:09.942Z</time>
        <extensions>
          <gpxtpx:TrackPointExtension xmlns:gpxtpx="http://www.garmin.com/xmlschemas/TrackPointExtension/v1">
            <gpxtpx:hr>163</gpxtpx:hr>
          </gpxtpx:TrackPointExtension>
        </extensions>
      </trkpt>
      <trkpt lat="46.47492" lon="0.29877">
        <ele>111.80000305176</ele>
        <time>2020-06-13T21:44:11.701Z</time>
        <extensions>
          <gpxtpx:TrackPointExtension xmlns:gpxtpx="http://www.garmin.com/xmlschemas/TrackPointExtension/v1">
            <gpxtpx:hr>162</gpxtpx:hr>
          </gpxtpx:TrackPointExtension>
        </extensions>
      </trkpt>
      <trkpt lat="46.47505" lon="0.29884">
        <ele>111.59999847412</ele>
        <time>2020-06-13T21:44:13.643Z</time>
        <extensions>
          <gpxtpx:TrackPointExtension xmlns:gpxtpx="http://www.garmin.com/xmlschemas/TrackPointExtension/v1">
            <gpxtpx:hr>162</gpxtpx:hr>
          </gpxtpx:TrackPointExtension>
        </extensions>
      </trkpt>
      <trkpt lat="46.47522" lon="0.29896">
        <ele>110.80000305176</ele>
        <time>2020-06-13T21:44:15.604Z</time>
        <extensions>
          <gpxtpx:TrackPointExtension xmlns:gpxtpx="http://www.garmin.com/xmlschemas/TrackPointExtension/v1">
            <gpxtpx:hr>161</gpxtpx:hr>
          </gpxtpx:TrackPointExtension>
        </extensions>
      </trkpt>
      <trkpt lat="46.47527" lon="0.29898">
        <ele>110.80000305176</ele>
        <time>2020-06-13T21:44:16.602Z</time>
        <extensions>
          <gpxtpx:TrackPointExtension xmlns:gpxtpx="http://www.garmin.com/xmlschemas/TrackPointExtension/v1">
            <gpxtpx:hr>158</gpxtpx:hr>
          </gpxtpx:TrackPointExtension>
        </extensions>
      </trkpt>
      <trkpt lat="46.4753" lon="0.29899">
        <ele>110.19999694824</ele>
        <time>2020-06-13T21:44:16.886Z</time>
        <extensions>
          <gpxtpx:TrackPointExtension xmlns:gpxtpx="http://www.garmin.com/xmlschemas/TrackPointExtension/v1">
            <gpxtpx:hr>158</gpxtpx:hr>
          </gpxtpx:TrackPointExtension>
        </extensions>
      </trkpt>
      <trkpt lat="46.47533" lon="0.29899">
        <ele>109.80000305176</ele>
        <time>2020-06-13T21:44:17.163Z</time>
        <extensions>
          <gpxtpx:TrackPointExtension xmlns:gpxtpx="http://www.garmin.com/xmlschemas/TrackPointExtension/v1">
            <gpxtpx:hr>154</gpxtpx:hr>
          </gpxtpx:TrackPointExtension>
        </extensions>
      </trkpt>
      <trkpt lat="46.47536" lon="0.29896">
        <ele>109.59999847412</ele>
        <time>2020-06-13T21:44:17.502Z</time>
        <extensions>
          <gpxtpx:TrackPointExtension xmlns:gpxtpx="http://www.garmin.com/xmlschemas/TrackPointExtension/v1">
            <gpxtpx:hr>152</gpxtpx:hr>
          </gpxtpx:TrackPointExtension>
        </extensions>
      </trkpt>
      <trkpt lat="46.47538" lon="0.29892">
        <ele>109.40000152588</ele>
        <time>2020-06-13T21:44:17.808Z</time>
        <extensions>
          <gpxtpx:TrackPointExtension xmlns:gpxtpx="http://www.garmin.com/xmlschemas/TrackPointExtension/v1">
            <gpxtpx:hr>152</gpxtpx:hr>
          </gpxtpx:TrackPointExtension>
        </extensions>
      </trkpt>
      <trkpt lat="46.4754" lon="0.29887">
        <ele>109.19999694824</ele>
        <time>2020-06-13T21:44:18.193Z</time>
        <extensions>
          <gpxtpx:TrackPointExtension xmlns:gpxtpx="http://www.garmin.com/xmlschemas/TrackPointExtension/v1">
            <gpxtpx:hr>150</gpxtpx:hr>
          </gpxtpx:TrackPointExtension>
        </extensions>
      </trkpt>
      <trkpt lat="46.47544" lon="0.29878">
        <ele>109</ele>
        <time>2020-06-13T21:44:19.084Z</time>
        <extensions>
          <gpxtpx:TrackPointExtension xmlns:gpxtpx="http://www.garmin.com/xmlschemas/TrackPointExtension/v1">
            <gpxtpx:hr>148</gpxtpx:hr>
          </gpxtpx:TrackPointExtension>
        </extensions>
      </trkpt>
      <trkpt lat="46.47548" lon="0.29869">
        <ele>109</ele>
        <time>2020-06-13T21:44:20.504Z</time>
        <extensions>
          <gpxtpx:TrackPointExtension xmlns:gpxtpx="http://www.garmin.com/xmlschemas/TrackPointExtension/v1">
            <gpxtpx:hr>147</gpxtpx:hr>
          </gpxtpx:TrackPointExtension>
        </extensions>
      </trkpt>
      <trkpt lat="46.47551" lon="0.29868">
        <ele>109</ele>
        <time>2020-06-13T21:44:21.096Z</time>
        <extensions>
          <gpxtpx:TrackPointExtension xmlns:gpxtpx="http://www.garmin.com/xmlschemas/TrackPointExtension/v1">
            <gpxtpx:hr>147</gpxtpx:hr>
          </gpxtpx:TrackPointExtension>
        </extensions>
      </trkpt>
      <trkpt lat="46.47553" lon="0.29869">
        <ele>109</ele>
        <time>2020-06-13T21:44:21.503Z</time>
        <extensions>
          <gpxtpx:TrackPointExtension xmlns:gpxtpx="http://www.garmin.com/xmlschemas/TrackPointExtension/v1">
            <gpxtpx:hr>146</gpxtpx:hr>
          </gpxtpx:TrackPointExtension>
        </extensions>
      </trkpt>
      <trkpt lat="46.47555" lon="0.29872">
        <ele>109</ele>
        <time>2020-06-13T21:44:22.057Z</time>
        <extensions>
          <gpxtpx:TrackPointExtension xmlns:gpxtpx="http://www.garmin.com/xmlschemas/TrackPointExtension/v1">
            <gpxtpx:hr>146</gpxtpx:hr>
          </gpxtpx:TrackPointExtension>
        </extensions>
      </trkpt>
      <trkpt lat="46.47558" lon="0.29876">
        <ele>109</ele>
        <time>2020-06-13T21:44:22.840Z</time>
        <extensions>
          <gpxtpx:TrackPointExtension xmlns:gpxtpx="http://www.garmin.com/xmlschemas/TrackPointExtension/v1">
            <gpxtpx:hr>146</gpxtpx:hr>
          </gpxtpx:TrackPointExtension>
        </extensions>
      </trkpt>
      <trkpt lat="46.47566" lon="0.29884">
        <ele>109</ele>
        <time>2020-06-13T21:44:24.710Z</time>
        <extensions>
          <gpxtpx:TrackPointExtension xmlns:gpxtpx="http://www.garmin.com/xmlschemas/TrackPointExtension/v1">
            <gpxtpx:hr>146</gpxtpx:hr>
          </gpxtpx:TrackPointExtension>
        </extensions>
      </trkpt>
      <trkpt lat="46.47569" lon="0.2989">
        <ele>109</ele>
        <time>2020-06-13T21:44:25.692Z</time>
        <extensions>
          <gpxtpx:TrackPointExtension xmlns:gpxtpx="http://www.garmin.com/xmlschemas/TrackPointExtension/v1">
            <gpxtpx:hr>146</gpxtpx:hr>
          </gpxtpx:TrackPointExtension>
        </extensions>
      </trkpt>
      <trkpt lat="46.47573" lon="0.29894">
        <ele>109</ele>
        <time>2020-06-13T21:44:26.627Z</time>
        <extensions>
          <gpxtpx:TrackPointExtension xmlns:gpxtpx="http://www.garmin.com/xmlschemas/TrackPointExtension/v1">
            <gpxtpx:hr>146</gpxtpx:hr>
          </gpxtpx:TrackPointExtension>
        </extensions>
      </trkpt>
      <trkpt lat="46.47577" lon="0.29903">
        <ele>109</ele>
        <time>2020-06-13T21:44:28.046Z</time>
        <extensions>
          <gpxtpx:TrackPointExtension xmlns:gpxtpx="http://www.garmin.com/xmlschemas/TrackPointExtension/v1">
            <gpxtpx:hr>145</gpxtpx:hr>
          </gpxtpx:TrackPointExtension>
        </extensions>
      </trkpt>
      <trkpt lat="46.4758" lon="0.29906">
        <ele>108.59999847412</ele>
        <time>2020-06-13T21:44:28.383Z</time>
        <extensions>
          <gpxtpx:TrackPointExtension xmlns:gpxtpx="http://www.garmin.com/xmlschemas/TrackPointExtension/v1">
            <gpxtpx:hr>145</gpxtpx:hr>
          </gpxtpx:TrackPointExtension>
        </extensions>
      </trkpt>
      <trkpt lat="46.47582" lon="0.2991">
        <ele>108.40000152588</ele>
        <time>2020-06-13T21:44:28.689Z</time>
        <extensions>
          <gpxtpx:TrackPointExtension xmlns:gpxtpx="http://www.garmin.com/xmlschemas/TrackPointExtension/v1">
            <gpxtpx:hr>144</gpxtpx:hr>
          </gpxtpx:TrackPointExtension>
        </extensions>
      </trkpt>
      <trkpt lat="46.47584" lon="0.29914">
        <ele>107.80000305176</ele>
        <time>2020-06-13T21:44:29.004Z</time>
        <extensions>
          <gpxtpx:TrackPointExtension xmlns:gpxtpx="http://www.garmin.com/xmlschemas/TrackPointExtension/v1">
            <gpxtpx:hr>142</gpxtpx:hr>
          </gpxtpx:TrackPointExtension>
        </extensions>
      </trkpt>
      <trkpt lat="46.47588" lon="0.29921">
        <ele>106.80000305176</ele>
        <time>2020-06-13T21:44:29.582Z</time>
        <extensions>
          <gpxtpx:TrackPointExtension xmlns:gpxtpx="http://www.garmin.com/xmlschemas/TrackPointExtension/v1">
            <gpxtpx:hr>141</gpxtpx:hr>
          </gpxtpx:TrackPointExtension>
        </extensions>
      </trkpt>
      <trkpt lat="46.47592" lon="0.29929">
        <ele>105.59999847412</ele>
        <time>2020-06-13T21:44:30.211Z</time>
        <extensions>
          <gpxtpx:TrackPointExtension xmlns:gpxtpx="http://www.garmin.com/xmlschemas/TrackPointExtension/v1">
            <gpxtpx:hr>139</gpxtpx:hr>
          </gpxtpx:TrackPointExtension>
        </extensions>
      </trkpt>
      <trkpt lat="46.47593" lon="0.29933">
        <ele>105</ele>
        <time>2020-06-13T21:44:30.481Z</time>
        <extensions>
          <gpxtpx:TrackPointExtension xmlns:gpxtpx="http://www.garmin.com/xmlschemas/TrackPointExtension/v1">
            <gpxtpx:hr>139</gpxtpx:hr>
          </gpxtpx:TrackPointExtension>
        </extensions>
      </trkpt>
      <trkpt lat="46.47594" lon="0.29939">
        <ele>104</ele>
        <time>2020-06-13T21:44:30.874Z</time>
        <extensions>
          <gpxtpx:TrackPointExtension xmlns:gpxtpx="http://www.garmin.com/xmlschemas/TrackPointExtension/v1">
            <gpxtpx:hr>138</gpxtpx:hr>
          </gpxtpx:TrackPointExtension>
        </extensions>
      </trkpt>
      <trkpt lat="46.47594" lon="0.29944">
        <ele>103.19999694824</ele>
        <time>2020-06-13T21:44:31.192Z</time>
        <extensions>
          <gpxtpx:TrackPointExtension xmlns:gpxtpx="http://www.garmin.com/xmlschemas/TrackPointExtension/v1">
            <gpxtpx:hr>138</gpxtpx:hr>
          </gpxtpx:TrackPointExtension>
        </extensions>
      </trkpt>
      <trkpt lat="46.47594" lon="0.29948">
        <ele>102.19999694824</ele>
        <time>2020-06-13T21:44:31.446Z</time>
        <extensions>
          <gpxtpx:TrackPointExtension xmlns:gpxtpx="http://www.garmin.com/xmlschemas/TrackPointExtension/v1">
            <gpxtpx:hr>137</gpxtpx:hr>
          </gpxtpx:TrackPointExtension>
        </extensions>
      </trkpt>
      <trkpt lat="46.47596" lon="0.29951">
        <ele>102</ele>
        <time>2020-06-13T21:44:31.712Z</time>
        <extensions>
          <gpxtpx:TrackPointExtension xmlns:gpxtpx="http://www.garmin.com/xmlschemas/TrackPointExtension/v1">
            <gpxtpx:hr>137</gpxtpx:hr>
          </gpxtpx:TrackPointExtension>
        </extensions>
      </trkpt>
      <trkpt lat="46.47598" lon="0.29952">
        <ele>101.59999847412</ele>
        <time>2020-06-13T21:44:31.907Z</time>
        <extensions>
          <gpxtpx:TrackPointExtension xmlns:gpxtpx="http://www.garmin.com/xmlschemas/TrackPointExtension/v1">
            <gpxtpx:hr>136</gpxtpx:hr>
          </gpxtpx:TrackPointExtension>
        </extensions>
      </trkpt>
      <trkpt lat="46.47601" lon="0.29953">
        <ele>101.19999694824</ele>
        <time>2020-06-13T21:44:32.192Z</time>
        <extensions>
          <gpxtpx:TrackPointExtension xmlns:gpxtpx="http://www.garmin.com/xmlschemas/TrackPointExtension/v1">
            <gpxtpx:hr>136</gpxtpx:hr>
          </gpxtpx:TrackPointExtension>
        </extensions>
      </trkpt>
      <trkpt lat="46.47603" lon="0.29952">
        <ele>101</ele>
        <time>2020-06-13T21:44:32.387Z</time>
        <extensions>
          <gpxtpx:TrackPointExtension xmlns:gpxtpx="http://www.garmin.com/xmlschemas/TrackPointExtension/v1">
            <gpxtpx:hr>134</gpxtpx:hr>
          </gpxtpx:TrackPointExtension>
        </extensions>
      </trkpt>
      <trkpt lat="46.4761" lon="0.29955">
        <ele>99.6</ele>
        <time>2020-06-13T21:44:33.061Z</time>
      </trkpt>
      <trkpt lat="46.47609" lon="0.29958">
        <ele>100</ele>
        <time>2020-06-13T21:44:34.765Z</time>
        <extensions>
          <gpxtpx:TrackPointExtension xmlns:gpxtpx="http://www.garmin.com/xmlschemas/TrackPointExtension/v1">
            <gpxtpx:hr>157</gpxtpx:hr>
          </gpxtpx:TrackPointExtension>
        </extensions>
      </trkpt>
      <trkpt lat="46.47607" lon="0.29967">
        <ele>98.199996948242</ele>
        <time>2020-06-13T21:44:35.366Z</time>
        <extensions>
          <gpxtpx:TrackPointExtension xmlns:gpxtpx="http://www.garmin.com/xmlschemas/TrackPointExtension/v1">
            <gpxtpx:hr>157</gpxtpx:hr>
          </gpxtpx:TrackPointExtension>
        </extensions>
      </trkpt>
      <trkpt lat="46.47604" lon="0.29983">
        <ele>97.800003051758</ele>
        <time>2020-06-13T21:44:36.637Z</time>
        <extensions>
          <gpxtpx:TrackPointExtension xmlns:gpxtpx="http://www.garmin.com/xmlschemas/TrackPointExtension/v1">
            <gpxtpx:hr>154</gpxtpx:hr>
          </gpxtpx:TrackPointExtension>
        </extensions>
      </trkpt>
      <trkpt lat="46.47603" lon="0.29989">
        <ele>97</ele>
        <time>2020-06-13T21:44:37.030Z</time>
        <extensions>
          <gpxtpx:TrackPointExtension xmlns:gpxtpx="http://www.garmin.com/xmlschemas/TrackPointExtension/v1">
            <gpxtpx:hr>154</gpxtpx:hr>
          </gpxtpx:TrackPointExtension>
        </extensions>
      </trkpt>
      <trkpt lat="46.47603" lon="0.29995">
        <ele>96.599998474121</ele>
        <time>2020-06-13T21:44:37.411Z</time>
        <extensions>
          <gpxtpx:TrackPointExtension xmlns:gpxtpx="http://www.garmin.com/xmlschemas/TrackPointExtension/v1">
            <gpxtpx:hr>151</gpxtpx:hr>
          </gpxtpx:TrackPointExtension>
        </extensions>
      </trkpt>
      <trkpt lat="46.47605" lon="0.30002">
        <ele>96.400001525879</ele>
        <time>2020-06-13T21:44:37.974Z</time>
        <extensions>
          <gpxtpx:TrackPointExtension xmlns:gpxtpx="http://www.garmin.com/xmlschemas/TrackPointExtension/v1">
            <gpxtpx:hr>151</gpxtpx:hr>
          </gpxtpx:TrackPointExtension>
        </extensions>
      </trkpt>
      <trkpt lat="46.47606" lon="0.30008">
        <ele>95.800003051758</ele>
        <time>2020-06-13T21:44:38.366Z</time>
        <extensions>
          <gpxtpx:TrackPointExtension xmlns:gpxtpx="http://www.garmin.com/xmlschemas/TrackPointExtension/v1">
            <gpxtpx:hr>148</gpxtpx:hr>
          </gpxtpx:TrackPointExtension>
        </extensions>
      </trkpt>
      <trkpt lat="46.47609" lon="0.30013">
        <ele>95.599998474121</ele>
        <time>2020-06-13T21:44:38.834Z</time>
        <extensions>
          <gpxtpx:TrackPointExtension xmlns:gpxtpx="http://www.garmin.com/xmlschemas/TrackPointExtension/v1">
            <gpxtpx:hr>148</gpxtpx:hr>
          </gpxtpx:TrackPointExtension>
        </extensions>
      </trkpt>
      <trkpt lat="46.47612" lon="0.30018">
        <ele>95.199996948242</ele>
        <time>2020-06-13T21:44:39.256Z</time>
        <extensions>
          <gpxtpx:TrackPointExtension xmlns:gpxtpx="http://www.garmin.com/xmlschemas/TrackPointExtension/v1">
            <gpxtpx:hr>145</gpxtpx:hr>
          </gpxtpx:TrackPointExtension>
        </extensions>
      </trkpt>
      <trkpt lat="46.47615" lon="0.30024">
        <ele>95.199996948242</ele>
        <time>2020-06-13T21:44:40.238Z</time>
        <extensions>
          <gpxtpx:TrackPointExtension xmlns:gpxtpx="http://www.garmin.com/xmlschemas/TrackPointExtension/v1">
            <gpxtpx:hr>145</gpxtpx:hr>
          </gpxtpx:TrackPointExtension>
        </extensions>
      </trkpt>
      <trkpt lat="46.47618" lon="0.3003">
        <ele>95</ele>
        <time>2020-06-13T21:44:40.784Z</time>
        <extensions>
          <gpxtpx:TrackPointExtension xmlns:gpxtpx="http://www.garmin.com/xmlschemas/TrackPointExtension/v1">
            <gpxtpx:hr>143</gpxtpx:hr>
          </gpxtpx:TrackPointExtension>
        </extensions>
      </trkpt>
      <trkpt lat="46.47628" lon="0.30046">
        <ele>95</ele>
        <time>2020-06-13T21:44:43.647Z</time>
        <extensions>
          <gpxtpx:TrackPointExtension xmlns:gpxtpx="http://www.garmin.com/xmlschemas/TrackPointExtension/v1">
            <gpxtpx:hr>139</gpxtpx:hr>
          </gpxtpx:TrackPointExtension>
        </extensions>
      </trkpt>
      <trkpt lat="46.47631" lon="0.30052">
        <ele>94.800003051758</ele>
        <time>2020-06-13T21:44:44.193Z</time>
        <extensions>
          <gpxtpx:TrackPointExtension xmlns:gpxtpx="http://www.garmin.com/xmlschemas/TrackPointExtension/v1">
            <gpxtpx:hr>139</gpxtpx:hr>
          </gpxtpx:TrackPointExtension>
        </extensions>
      </trkpt>
      <trkpt lat="46.47633" lon="0.30058">
        <ele>94.800003051758</ele>
        <time>2020-06-13T21:44:45.076Z</time>
        <extensions>
          <gpxtpx:TrackPointExtension xmlns:gpxtpx="http://www.garmin.com/xmlschemas/TrackPointExtension/v1">
            <gpxtpx:hr>136</gpxtpx:hr>
          </gpxtpx:TrackPointExtension>
        </extensions>
      </trkpt>
      <trkpt lat="46.47635" lon="0.30065">
        <ele>94.599998474121</ele>
        <time>2020-06-13T21:44:45.639Z</time>
        <extensions>
          <gpxtpx:TrackPointExtension xmlns:gpxtpx="http://www.garmin.com/xmlschemas/TrackPointExtension/v1">
            <gpxtpx:hr>136</gpxtpx:hr>
          </gpxtpx:TrackPointExtension>
        </extensions>
      </trkpt>
      <trkpt lat="46.47638" lon="0.30071">
        <ele>94.400001525879</ele>
        <time>2020-06-13T21:44:46.185Z</time>
        <extensions>
          <gpxtpx:TrackPointExtension xmlns:gpxtpx="http://www.garmin.com/xmlschemas/TrackPointExtension/v1">
            <gpxtpx:hr>133</gpxtpx:hr>
          </gpxtpx:TrackPointExtension>
        </extensions>
      </trkpt>
      <trkpt lat="46.47641" lon="0.3008">
        <ele>93.800003051758</ele>
        <time>2020-06-13T21:44:46.821Z</time>
        <extensions>
          <gpxtpx:TrackPointExtension xmlns:gpxtpx="http://www.garmin.com/xmlschemas/TrackPointExtension/v1">
            <gpxtpx:hr>130</gpxtpx:hr>
          </gpxtpx:TrackPointExtension>
        </extensions>
      </trkpt>
      <trkpt lat="46.47641" lon="0.30081">
        <ele>93.400001525879</ele>
        <time>2020-06-13T21:44:46.884Z</time>
        <extensions>
          <gpxtpx:TrackPointExtension xmlns:gpxtpx="http://www.garmin.com/xmlschemas/TrackPointExtension/v1">
            <gpxtpx:hr>130</gpxtpx:hr>
          </gpxtpx:TrackPointExtension>
        </extensions>
      </trkpt>
      <trkpt lat="46.47641" lon="0.30081">
        <ele>93.199996948242</ele>
        <time>2020-06-13T21:44:46.884Z</time>
        <extensions>
          <gpxtpx:TrackPointExtension xmlns:gpxtpx="http://www.garmin.com/xmlschemas/TrackPointExtension/v1">
            <gpxtpx:hr>128</gpxtpx:hr>
          </gpxtpx:TrackPointExtension>
        </extensions>
      </trkpt>
      <trkpt lat="46.47641" lon="0.30081">
        <ele>92.800003051758</ele>
        <time>2020-06-13T21:44:46.884Z</time>
        <extensions>
          <gpxtpx:TrackPointExtension xmlns:gpxtpx="http://www.garmin.com/xmlschemas/TrackPointExtension/v1">
            <gpxtpx:hr>128</gpxtpx:hr>
          </gpxtpx:TrackPointExtension>
        </extensions>
      </trkpt>
      <trkpt lat="46.47645" lon="0.30085">
        <ele>92.400001525879</ele>
        <time>2020-06-13T21:44:47.333Z</time>
        <extensions>
          <gpxtpx:TrackPointExtension xmlns:gpxtpx="http://www.garmin.com/xmlschemas/TrackPointExtension/v1">
            <gpxtpx:hr>129</gpxtpx:hr>
          </gpxtpx:TrackPointExtension>
        </extensions>
      </trkpt>
      <trkpt lat="46.47652" lon="0.30089">
        <ele>92.400001525879</ele>
        <time>2020-06-13T21:44:48.780Z</time>
        <extensions>
          <gpxtpx:TrackPointExtension xmlns:gpxtpx="http://www.garmin.com/xmlschemas/TrackPointExtension/v1">
            <gpxtpx:hr>128</gpxtpx:hr>
          </gpxtpx:TrackPointExtension>
        </extensions>
      </trkpt>
      <trkpt lat="46.47657" lon="0.3009">
        <ele>92.400001525879</ele>
        <time>2020-06-13T21:44:49.752Z</time>
        <extensions>
          <gpxtpx:TrackPointExtension xmlns:gpxtpx="http://www.garmin.com/xmlschemas/TrackPointExtension/v1">
            <gpxtpx:hr>128</gpxtpx:hr>
          </gpxtpx:TrackPointExtension>
        </extensions>
      </trkpt>
      <trkpt lat="46.47668" lon="0.30092">
        <ele>92.400001525879</ele>
        <time>2020-06-13T21:44:51.885Z</time>
        <extensions>
          <gpxtpx:TrackPointExtension xmlns:gpxtpx="http://www.garmin.com/xmlschemas/TrackPointExtension/v1">
            <gpxtpx:hr>128</gpxtpx:hr>
          </gpxtpx:TrackPointExtension>
        </extensions>
      </trkpt>
      <trkpt lat="46.47689" lon="0.30096">
        <ele>92</ele>
        <time>2020-06-13T21:44:54.694Z</time>
        <extensions>
          <gpxtpx:TrackPointExtension xmlns:gpxtpx="http://www.garmin.com/xmlschemas/TrackPointExtension/v1">
            <gpxtpx:hr>130</gpxtpx:hr>
          </gpxtpx:TrackPointExtension>
        </extensions>
      </trkpt>
      <trkpt lat="46.47709" lon="0.30101">
        <ele>91</ele>
        <time>2020-06-13T21:44:56.672Z</time>
        <extensions>
          <gpxtpx:TrackPointExtension xmlns:gpxtpx="http://www.garmin.com/xmlschemas/TrackPointExtension/v1">
            <gpxtpx:hr>130</gpxtpx:hr>
          </gpxtpx:TrackPointExtension>
        </extensions>
      </trkpt>
      <trkpt lat="46.47732" lon="0.30106">
        <ele>90.199996948242</ele>
        <time>2020-06-13T21:44:59.277Z</time>
        <extensions>
          <gpxtpx:TrackPointExtension xmlns:gpxtpx="http://www.garmin.com/xmlschemas/TrackPointExtension/v1">
            <gpxtpx:hr>130</gpxtpx:hr>
          </gpxtpx:TrackPointExtension>
        </extensions>
      </trkpt>
      <trkpt lat="46.47739" lon="0.30107">
        <ele>90</ele>
        <time>2020-06-13T21:45:00.115Z</time>
        <extensions>
          <gpxtpx:TrackPointExtension xmlns:gpxtpx="http://www.garmin.com/xmlschemas/TrackPointExtension/v1">
            <gpxtpx:hr>130</gpxtpx:hr>
          </gpxtpx:TrackPointExtension>
        </extensions>
      </trkpt>
      <trkpt lat="46.47745" lon="0.30108">
        <ele>89.800003051758</ele>
        <time>2020-06-13T21:45:00.800Z</time>
        <extensions>
          <gpxtpx:TrackPointExtension xmlns:gpxtpx="http://www.garmin.com/xmlschemas/TrackPointExtension/v1">
            <gpxtpx:hr>130</gpxtpx:hr>
          </gpxtpx:TrackPointExtension>
        </extensions>
      </trkpt>
      <trkpt lat="46.47787" lon="0.30116">
        <ele>89.199996948242</ele>
        <time>2020-06-13T21:45:06.752Z</time>
        <extensions>
          <gpxtpx:TrackPointExtension xmlns:gpxtpx="http://www.garmin.com/xmlschemas/TrackPointExtension/v1">
            <gpxtpx:hr>128</gpxtpx:hr>
          </gpxtpx:TrackPointExtension>
        </extensions>
      </trkpt>
      <trkpt lat="46.47793" lon="0.30118">
        <ele>89.199996948242</ele>
        <time>2020-06-13T21:45:07.937Z</time>
        <extensions>
          <gpxtpx:TrackPointExtension xmlns:gpxtpx="http://www.garmin.com/xmlschemas/TrackPointExtension/v1">
            <gpxtpx:hr>123</gpxtpx:hr>
          </gpxtpx:TrackPointExtension>
        </extensions>
      </trkpt>
      <trkpt lat="46.47797" lon="0.3012">
        <ele>89.199996948242</ele>
        <time>2020-06-13T21:45:08.751Z</time>
        <extensions>
          <gpxtpx:TrackPointExtension xmlns:gpxtpx="http://www.garmin.com/xmlschemas/TrackPointExtension/v1">
            <gpxtpx:hr>123</gpxtpx:hr>
          </gpxtpx:TrackPointExtension>
        </extensions>
      </trkpt>
      <trkpt lat="46.47802" lon="0.30125">
        <ele>89.199996948242</ele>
        <time>2020-06-13T21:45:09.920Z</time>
        <extensions>
          <gpxtpx:TrackPointExtension xmlns:gpxtpx="http://www.garmin.com/xmlschemas/TrackPointExtension/v1">
            <gpxtpx:hr>122</gpxtpx:hr>
          </gpxtpx:TrackPointExtension>
        </extensions>
      </trkpt>
      <trkpt lat="46.47806" lon="0.30131">
        <ele>89.400001525879</ele>
        <time>2020-06-13T21:45:11.544Z</time>
        <extensions>
          <gpxtpx:TrackPointExtension xmlns:gpxtpx="http://www.garmin.com/xmlschemas/TrackPointExtension/v1">
            <gpxtpx:hr>122</gpxtpx:hr>
          </gpxtpx:TrackPointExtension>
        </extensions>
      </trkpt>
      <trkpt lat="46.47809" lon="0.30139">
        <ele>89.400001525879</ele>
        <time>2020-06-13T21:45:12.751Z</time>
        <extensions>
          <gpxtpx:TrackPointExtension xmlns:gpxtpx="http://www.garmin.com/xmlschemas/TrackPointExtension/v1">
            <gpxtpx:hr>124</gpxtpx:hr>
          </gpxtpx:TrackPointExtension>
        </extensions>
      </trkpt>
      <trkpt lat="46.47812" lon="0.30146">
        <ele>89.400001525879</ele>
        <time>2020-06-13T21:45:13.843Z</time>
        <extensions>
          <gpxtpx:TrackPointExtension xmlns:gpxtpx="http://www.garmin.com/xmlschemas/TrackPointExtension/v1">
            <gpxtpx:hr>124</gpxtpx:hr>
          </gpxtpx:TrackPointExtension>
        </extensions>
      </trkpt>
      <trkpt lat="46.47814" lon="0.30153">
        <ele>89.400001525879</ele>
        <time>2020-06-13T21:45:14.848Z</time>
        <extensions>
          <gpxtpx:TrackPointExtension xmlns:gpxtpx="http://www.garmin.com/xmlschemas/TrackPointExtension/v1">
            <gpxtpx:hr>126</gpxtpx:hr>
          </gpxtpx:TrackPointExtension>
        </extensions>
      </trkpt>
      <trkpt lat="46.47817" lon="0.3016">
        <ele>89.599998474121</ele>
        <time>2020-06-13T21:45:16.461Z</time>
        <extensions>
          <gpxtpx:TrackPointExtension xmlns:gpxtpx="http://www.garmin.com/xmlschemas/TrackPointExtension/v1">
            <gpxtpx:hr>126</gpxtpx:hr>
          </gpxtpx:TrackPointExtension>
        </extensions>
      </trkpt>
      <trkpt lat="46.4782" lon="0.30167">
        <ele>89.599998474121</ele>
        <time>2020-06-13T21:45:17.553Z</time>
        <extensions>
          <gpxtpx:TrackPointExtension xmlns:gpxtpx="http://www.garmin.com/xmlschemas/TrackPointExtension/v1">
            <gpxtpx:hr>128</gpxtpx:hr>
          </gpxtpx:TrackPointExtension>
        </extensions>
      </trkpt>
      <trkpt lat="46.47822" lon="0.30173">
        <ele>89.599998474121</ele>
        <time>2020-06-13T21:45:18.437Z</time>
        <extensions>
          <gpxtpx:TrackPointExtension xmlns:gpxtpx="http://www.garmin.com/xmlschemas/TrackPointExtension/v1">
            <gpxtpx:hr>128</gpxtpx:hr>
          </gpxtpx:TrackPointExtension>
        </extensions>
      </trkpt>
      <trkpt lat="46.47824" lon="0.30177">
        <ele>89.800003051758</ele>
        <time>2020-06-13T21:45:19.652Z</time>
        <extensions>
          <gpxtpx:TrackPointExtension xmlns:gpxtpx="http://www.garmin.com/xmlschemas/TrackPointExtension/v1">
            <gpxtpx:hr>128</gpxtpx:hr>
          </gpxtpx:TrackPointExtension>
        </extensions>
      </trkpt>
      <trkpt lat="46.47826" lon="0.3018">
        <ele>90</ele>
        <time>2020-06-13T21:45:20.761Z</time>
        <extensions>
          <gpxtpx:TrackPointExtension xmlns:gpxtpx="http://www.garmin.com/xmlschemas/TrackPointExtension/v1">
            <gpxtpx:hr>128</gpxtpx:hr>
          </gpxtpx:TrackPointExtension>
        </extensions>
      </trkpt>
      <trkpt lat="46.47829" lon="0.30183">
        <ele>90.199996948242</ele>
        <time>2020-06-13T21:45:22.028Z</time>
        <extensions>
          <gpxtpx:TrackPointExtension xmlns:gpxtpx="http://www.garmin.com/xmlschemas/TrackPointExtension/v1">
            <gpxtpx:hr>129</gpxtpx:hr>
          </gpxtpx:TrackPointExtension>
        </extensions>
      </trkpt>
      <trkpt lat="46.47831" lon="0.30183">
        <ele>90.400001525879</ele>
        <time>2020-06-13T21:45:23.029Z</time>
        <extensions>
          <gpxtpx:TrackPointExtension xmlns:gpxtpx="http://www.garmin.com/xmlschemas/TrackPointExtension/v1">
            <gpxtpx:hr>129</gpxtpx:hr>
          </gpxtpx:TrackPointExtension>
        </extensions>
      </trkpt>
      <trkpt lat="46.47834" lon="0.30182">
        <ele>91</ele>
        <time>2020-06-13T21:45:25.313Z</time>
        <extensions>
          <gpxtpx:TrackPointExtension xmlns:gpxtpx="http://www.garmin.com/xmlschemas/TrackPointExtension/v1">
            <gpxtpx:hr>131</gpxtpx:hr>
          </gpxtpx:TrackPointExtension>
        </extensions>
      </trkpt>
      <trkpt lat="46.47838" lon="0.30181">
        <ele>91.400001525879</ele>
        <time>2020-06-13T21:45:27.316Z</time>
        <extensions>
          <gpxtpx:TrackPointExtension xmlns:gpxtpx="http://www.garmin.com/xmlschemas/TrackPointExtension/v1">
            <gpxtpx:hr>131</gpxtpx:hr>
          </gpxtpx:TrackPointExtension>
        </extensions>
      </trkpt>
      <trkpt lat="46.47842" lon="0.30178">
        <ele>91.599998474121</ele>
        <time>2020-06-13T21:45:28.777Z</time>
        <extensions>
          <gpxtpx:TrackPointExtension xmlns:gpxtpx="http://www.garmin.com/xmlschemas/TrackPointExtension/v1">
            <gpxtpx:hr>134</gpxtpx:hr>
          </gpxtpx:TrackPointExtension>
        </extensions>
      </trkpt>
      <trkpt lat="46.47845" lon="0.30176">
        <ele>91.599998474121</ele>
        <time>2020-06-13T21:45:29.412Z</time>
        <extensions>
          <gpxtpx:TrackPointExtension xmlns:gpxtpx="http://www.garmin.com/xmlschemas/TrackPointExtension/v1">
            <gpxtpx:hr>134</gpxtpx:hr>
          </gpxtpx:TrackPointExtension>
        </extensions>
      </trkpt>
      <trkpt lat="46.47847" lon="0.30173">
        <ele>91.800003051758</ele>
        <time>2020-06-13T21:45:30.522Z</time>
        <extensions>
          <gpxtpx:TrackPointExtension xmlns:gpxtpx="http://www.garmin.com/xmlschemas/TrackPointExtension/v1">
            <gpxtpx:hr>138</gpxtpx:hr>
          </gpxtpx:TrackPointExtension>
        </extensions>
      </trkpt>
      <trkpt lat="46.47851" lon="0.30169">
        <ele>92</ele>
        <time>2020-06-13T21:45:32.023Z</time>
        <extensions>
          <gpxtpx:TrackPointExtension xmlns:gpxtpx="http://www.garmin.com/xmlschemas/TrackPointExtension/v1">
            <gpxtpx:hr>140</gpxtpx:hr>
          </gpxtpx:TrackPointExtension>
        </extensions>
      </trkpt>
      <trkpt lat="46.47853" lon="0.30166">
        <ele>92.199996948242</ele>
        <time>2020-06-13T21:45:33.132Z</time>
        <extensions>
          <gpxtpx:TrackPointExtension xmlns:gpxtpx="http://www.garmin.com/xmlschemas/TrackPointExtension/v1">
            <gpxtpx:hr>140</gpxtpx:hr>
          </gpxtpx:TrackPointExtension>
        </extensions>
      </trkpt>
      <trkpt lat="46.47855" lon="0.30162">
        <ele>92.400001525879</ele>
        <time>2020-06-13T21:45:34.348Z</time>
        <extensions>
          <gpxtpx:TrackPointExtension xmlns:gpxtpx="http://www.garmin.com/xmlschemas/TrackPointExtension/v1">
            <gpxtpx:hr>144</gpxtpx:hr>
          </gpxtpx:TrackPointExtension>
        </extensions>
      </trkpt>
      <trkpt lat="46.47857" lon="0.30159">
        <ele>92.800003051758</ele>
        <time>2020-06-13T21:45:36.482Z</time>
        <extensions>
          <gpxtpx:TrackPointExtension xmlns:gpxtpx="http://www.garmin.com/xmlschemas/TrackPointExtension/v1">
            <gpxtpx:hr>144</gpxtpx:hr>
          </gpxtpx:TrackPointExtension>
        </extensions>
      </trkpt>
      <trkpt lat="46.4786" lon="0.30158">
        <ele>93.400001525879</ele>
        <time>2020-06-13T21:45:38.767Z</time>
        <extensions>
          <gpxtpx:TrackPointExtension xmlns:gpxtpx="http://www.garmin.com/xmlschemas/TrackPointExtension/v1">
            <gpxtpx:hr>148</gpxtpx:hr>
          </gpxtpx:TrackPointExtension>
        </extensions>
      </trkpt>
      <trkpt lat="46.47862" lon="0.30159">
        <ele>94</ele>
        <time>2020-06-13T21:45:40.337Z</time>
        <extensions>
          <gpxtpx:TrackPointExtension xmlns:gpxtpx="http://www.garmin.com/xmlschemas/TrackPointExtension/v1">
            <gpxtpx:hr>148</gpxtpx:hr>
          </gpxtpx:TrackPointExtension>
        </extensions>
      </trkpt>
      <trkpt lat="46.47864" lon="0.30161">
        <ele>94.400001525879</ele>
        <time>2020-06-13T21:45:42.139Z</time>
        <extensions>
          <gpxtpx:TrackPointExtension xmlns:gpxtpx="http://www.garmin.com/xmlschemas/TrackPointExtension/v1">
            <gpxtpx:hr>152</gpxtpx:hr>
          </gpxtpx:TrackPointExtension>
        </extensions>
      </trkpt>
      <trkpt lat="46.47866" lon="0.30165">
        <ele>95.199996948242</ele>
        <time>2020-06-13T21:45:44.666Z</time>
        <extensions>
          <gpxtpx:TrackPointExtension xmlns:gpxtpx="http://www.garmin.com/xmlschemas/TrackPointExtension/v1">
            <gpxtpx:hr>152</gpxtpx:hr>
          </gpxtpx:TrackPointExtension>
        </extensions>
      </trkpt>
      <trkpt lat="46.4787" lon="0.3017">
        <ele>96</ele>
        <time>2020-06-13T21:45:48.583Z</time>
        <extensions>
          <gpxtpx:TrackPointExtension xmlns:gpxtpx="http://www.garmin.com/xmlschemas/TrackPointExtension/v1">
            <gpxtpx:hr>155</gpxtpx:hr>
          </gpxtpx:TrackPointExtension>
        </extensions>
      </trkpt>
      <trkpt lat="46.47874" lon="0.30173">
        <ele>96.199996948242</ele>
        <time>2020-06-13T21:45:50.044Z</time>
        <extensions>
          <gpxtpx:TrackPointExtension xmlns:gpxtpx="http://www.garmin.com/xmlschemas/TrackPointExtension/v1">
            <gpxtpx:hr>155</gpxtpx:hr>
          </gpxtpx:TrackPointExtension>
        </extensions>
      </trkpt>
      <trkpt lat="46.47876" lon="0.30175">
        <ele>96.599998474121</ele>
        <time>2020-06-13T21:45:51.846Z</time>
        <extensions>
          <gpxtpx:TrackPointExtension xmlns:gpxtpx="http://www.garmin.com/xmlschemas/TrackPointExtension/v1">
            <gpxtpx:hr>157</gpxtpx:hr>
          </gpxtpx:TrackPointExtension>
        </extensions>
      </trkpt>
      <trkpt lat="46.47879" lon="0.30176">
        <ele>96.800003051758</ele>
        <time>2020-06-13T21:45:52.995Z</time>
        <extensions>
          <gpxtpx:TrackPointExtension xmlns:gpxtpx="http://www.garmin.com/xmlschemas/TrackPointExtension/v1">
            <gpxtpx:hr>157</gpxtpx:hr>
          </gpxtpx:TrackPointExtension>
        </extensions>
      </trkpt>
      <trkpt lat="46.47881" lon="0.30175">
        <ele>97</ele>
        <time>2020-06-13T21:45:54.000Z</time>
        <extensions>
          <gpxtpx:TrackPointExtension xmlns:gpxtpx="http://www.garmin.com/xmlschemas/TrackPointExtension/v1">
            <gpxtpx:hr>157</gpxtpx:hr>
          </gpxtpx:TrackPointExtension>
        </extensions>
      </trkpt>
      <trkpt lat="46.47883" lon="0.30175">
        <ele>97.199996948242</ele>
        <time>2020-06-13T21:45:55.001Z</time>
        <extensions>
          <gpxtpx:TrackPointExtension xmlns:gpxtpx="http://www.garmin.com/xmlschemas/TrackPointExtension/v1">
            <gpxtpx:hr>158</gpxtpx:hr>
          </gpxtpx:TrackPointExtension>
        </extensions>
      </trkpt>
      <trkpt lat="46.47884" lon="0.30174">
        <ele>97.400001525879</ele>
        <time>2020-06-13T21:45:55.902Z</time>
        <extensions>
          <gpxtpx:TrackPointExtension xmlns:gpxtpx="http://www.garmin.com/xmlschemas/TrackPointExtension/v1">
            <gpxtpx:hr>158</gpxtpx:hr>
          </gpxtpx:TrackPointExtension>
        </extensions>
      </trkpt>
      <trkpt lat="46.47884" lon="0.30172">
        <ele>97.599998474121</ele>
        <time>2020-06-13T21:45:56.924Z</time>
        <extensions>
          <gpxtpx:TrackPointExtension xmlns:gpxtpx="http://www.garmin.com/xmlschemas/TrackPointExtension/v1">
            <gpxtpx:hr>158</gpxtpx:hr>
          </gpxtpx:TrackPointExtension>
        </extensions>
      </trkpt>
      <trkpt lat="46.47885" lon="0.30171">
        <ele>97.599998474121</ele>
        <time>2020-06-13T21:45:57.158Z</time>
        <extensions>
          <gpxtpx:TrackPointExtension xmlns:gpxtpx="http://www.garmin.com/xmlschemas/TrackPointExtension/v1">
            <gpxtpx:hr>158</gpxtpx:hr>
          </gpxtpx:TrackPointExtension>
        </extensions>
      </trkpt>
      <trkpt lat="46.47886" lon="0.30169">
        <ele>97.800003051758</ele>
        <time>2020-06-13T21:45:58.185Z</time>
        <extensions>
          <gpxtpx:TrackPointExtension xmlns:gpxtpx="http://www.garmin.com/xmlschemas/TrackPointExtension/v1">
            <gpxtpx:hr>158</gpxtpx:hr>
          </gpxtpx:TrackPointExtension>
        </extensions>
      </trkpt>
      <trkpt lat="46.47887" lon="0.30167">
        <ele>98</ele>
        <time>2020-06-13T21:45:59.212Z</time>
        <extensions>
          <gpxtpx:TrackPointExtension xmlns:gpxtpx="http://www.garmin.com/xmlschemas/TrackPointExtension/v1">
            <gpxtpx:hr>158</gpxtpx:hr>
          </gpxtpx:TrackPointExtension>
        </extensions>
      </trkpt>
      <trkpt lat="46.47889" lon="0.30166">
        <ele>98.199996948242</ele>
        <time>2020-06-13T21:46:00.217Z</time>
        <extensions>
          <gpxtpx:TrackPointExtension xmlns:gpxtpx="http://www.garmin.com/xmlschemas/TrackPointExtension/v1">
            <gpxtpx:hr>158</gpxtpx:hr>
          </gpxtpx:TrackPointExtension>
        </extensions>
      </trkpt>
      <trkpt lat="46.4789" lon="0.30165">
        <ele>98.199996948242</ele>
        <time>2020-06-13T21:46:00.451Z</time>
        <extensions>
          <gpxtpx:TrackPointExtension xmlns:gpxtpx="http://www.garmin.com/xmlschemas/TrackPointExtension/v1">
            <gpxtpx:hr>157</gpxtpx:hr>
          </gpxtpx:TrackPointExtension>
        </extensions>
      </trkpt>
      <trkpt lat="46.47892" lon="0.30165">
        <ele>98.400001525879</ele>
        <time>2020-06-13T21:46:01.452Z</time>
        <extensions>
          <gpxtpx:TrackPointExtension xmlns:gpxtpx="http://www.garmin.com/xmlschemas/TrackPointExtension/v1">
            <gpxtpx:hr>157</gpxtpx:hr>
          </gpxtpx:TrackPointExtension>
        </extensions>
      </trkpt>
      <trkpt lat="46.47894" lon="0.30166">
        <ele>98.400001525879</ele>
        <time>2020-06-13T21:46:01.859Z</time>
        <extensions>
          <gpxtpx:TrackPointExtension xmlns:gpxtpx="http://www.garmin.com/xmlschemas/TrackPointExtension/v1">
            <gpxtpx:hr>157</gpxtpx:hr>
          </gpxtpx:TrackPointExtension>
        </extensions>
      </trkpt>
      <trkpt lat="46.47896" lon="0.30166">
        <ele>98.599998474121</ele>
        <time>2020-06-13T21:46:02.860Z</time>
        <extensions>
          <gpxtpx:TrackPointExtension xmlns:gpxtpx="http://www.garmin.com/xmlschemas/TrackPointExtension/v1">
            <gpxtpx:hr>157</gpxtpx:hr>
          </gpxtpx:TrackPointExtension>
        </extensions>
      </trkpt>
      <trkpt lat="46.47898" lon="0.30167">
        <ele>99.199996948242</ele>
        <time>2020-06-13T21:46:04.430Z</time>
        <extensions>
          <gpxtpx:TrackPointExtension xmlns:gpxtpx="http://www.garmin.com/xmlschemas/TrackPointExtension/v1">
            <gpxtpx:hr>157</gpxtpx:hr>
          </gpxtpx:TrackPointExtension>
        </extensions>
      </trkpt>
      <trkpt lat="46.47901" lon="0.30168">
        <ele>99.800003051758</ele>
        <time>2020-06-13T21:46:06.714Z</time>
        <extensions>
          <gpxtpx:TrackPointExtension xmlns:gpxtpx="http://www.garmin.com/xmlschemas/TrackPointExtension/v1">
            <gpxtpx:hr>158</gpxtpx:hr>
          </gpxtpx:TrackPointExtension>
        </extensions>
      </trkpt>
      <trkpt lat="46.47903" lon="0.30167">
        <ele>100.40000152588</ele>
        <time>2020-06-13T21:46:08.284Z</time>
        <extensions>
          <gpxtpx:TrackPointExtension xmlns:gpxtpx="http://www.garmin.com/xmlschemas/TrackPointExtension/v1">
            <gpxtpx:hr>158</gpxtpx:hr>
          </gpxtpx:TrackPointExtension>
        </extensions>
      </trkpt>
      <trkpt lat="46.47905" lon="0.30165">
        <ele>100.80000305176</ele>
        <time>2020-06-13T21:46:10.087Z</time>
        <extensions>
          <gpxtpx:TrackPointExtension xmlns:gpxtpx="http://www.garmin.com/xmlschemas/TrackPointExtension/v1">
            <gpxtpx:hr>158</gpxtpx:hr>
          </gpxtpx:TrackPointExtension>
        </extensions>
      </trkpt>
      <trkpt lat="46.47908" lon="0.30162">
        <ele>101.19999694824</ele>
        <time>2020-06-13T21:46:12.102Z</time>
        <extensions>
          <gpxtpx:TrackPointExtension xmlns:gpxtpx="http://www.garmin.com/xmlschemas/TrackPointExtension/v1">
            <gpxtpx:hr>158</gpxtpx:hr>
          </gpxtpx:TrackPointExtension>
        </extensions>
      </trkpt>
      <trkpt lat="46.47909" lon="0.3016">
        <ele>101.59999847412</ele>
        <time>2020-06-13T21:46:13.366Z</time>
        <extensions>
          <gpxtpx:TrackPointExtension xmlns:gpxtpx="http://www.garmin.com/xmlschemas/TrackPointExtension/v1">
            <gpxtpx:hr>159</gpxtpx:hr>
          </gpxtpx:TrackPointExtension>
        </extensions>
      </trkpt>
      <trkpt lat="46.4791" lon="0.30156">
        <ele>102</ele>
        <time>2020-06-13T21:46:15.541Z</time>
        <extensions>
          <gpxtpx:TrackPointExtension xmlns:gpxtpx="http://www.garmin.com/xmlschemas/TrackPointExtension/v1">
            <gpxtpx:hr>159</gpxtpx:hr>
          </gpxtpx:TrackPointExtension>
        </extensions>
      </trkpt>
      <trkpt lat="46.4791" lon="0.30153">
        <ele>102.59999847412</ele>
        <time>2020-06-13T21:46:17.074Z</time>
        <extensions>
          <gpxtpx:TrackPointExtension xmlns:gpxtpx="http://www.garmin.com/xmlschemas/TrackPointExtension/v1">
            <gpxtpx:hr>161</gpxtpx:hr>
          </gpxtpx:TrackPointExtension>
        </extensions>
      </trkpt>
      <trkpt lat="46.4791" lon="0.30151">
        <ele>102.80000305176</ele>
        <time>2020-06-13T21:46:18.096Z</time>
        <extensions>
          <gpxtpx:TrackPointExtension xmlns:gpxtpx="http://www.garmin.com/xmlschemas/TrackPointExtension/v1">
            <gpxtpx:hr>161</gpxtpx:hr>
          </gpxtpx:TrackPointExtension>
        </extensions>
      </trkpt>
      <trkpt lat="46.4791" lon="0.30148">
        <ele>103</ele>
        <time>2020-06-13T21:46:19.099Z</time>
        <extensions>
          <gpxtpx:TrackPointExtension xmlns:gpxtpx="http://www.garmin.com/xmlschemas/TrackPointExtension/v1">
            <gpxtpx:hr>162</gpxtpx:hr>
          </gpxtpx:TrackPointExtension>
        </extensions>
      </trkpt>
      <trkpt lat="46.47909" lon="0.30145">
        <ele>103.40000152588</ele>
        <time>2020-06-13T21:46:20.803Z</time>
        <extensions>
          <gpxtpx:TrackPointExtension xmlns:gpxtpx="http://www.garmin.com/xmlschemas/TrackPointExtension/v1">
            <gpxtpx:hr>162</gpxtpx:hr>
          </gpxtpx:TrackPointExtension>
        </extensions>
      </trkpt>
      <trkpt lat="46.47908" lon="0.30142">
        <ele>103.40000152588</ele>
        <time>2020-06-13T21:46:21.244Z</time>
        <extensions>
          <gpxtpx:TrackPointExtension xmlns:gpxtpx="http://www.garmin.com/xmlschemas/TrackPointExtension/v1">
            <gpxtpx:hr>164</gpxtpx:hr>
          </gpxtpx:TrackPointExtension>
        </extensions>
      </trkpt>
      <trkpt lat="46.47908" lon="0.30139">
        <ele>103.59999847412</ele>
        <time>2020-06-13T21:46:22.247Z</time>
        <extensions>
          <gpxtpx:TrackPointExtension xmlns:gpxtpx="http://www.garmin.com/xmlschemas/TrackPointExtension/v1">
            <gpxtpx:hr>164</gpxtpx:hr>
          </gpxtpx:TrackPointExtension>
        </extensions>
      </trkpt>
      <trkpt lat="46.47907" lon="0.30137">
        <ele>103.59999847412</ele>
        <time>2020-06-13T21:46:22.575Z</time>
        <extensions>
          <gpxtpx:TrackPointExtension xmlns:gpxtpx="http://www.garmin.com/xmlschemas/TrackPointExtension/v1">
            <gpxtpx:hr>166</gpxtpx:hr>
          </gpxtpx:TrackPointExtension>
        </extensions>
      </trkpt>
      <trkpt lat="46.47907" lon="0.30133">
        <ele>104.40000152588</ele>
        <time>2020-06-13T21:46:24.619Z</time>
        <extensions>
          <gpxtpx:TrackPointExtension xmlns:gpxtpx="http://www.garmin.com/xmlschemas/TrackPointExtension/v1">
            <gpxtpx:hr>166</gpxtpx:hr>
          </gpxtpx:TrackPointExtension>
        </extensions>
      </trkpt>
      <trkpt lat="46.47906" lon="0.3013">
        <ele>105</ele>
        <time>2020-06-13T21:46:26.323Z</time>
        <extensions>
          <gpxtpx:TrackPointExtension xmlns:gpxtpx="http://www.garmin.com/xmlschemas/TrackPointExtension/v1">
            <gpxtpx:hr>168</gpxtpx:hr>
          </gpxtpx:TrackPointExtension>
        </extensions>
      </trkpt>
      <trkpt lat="46.47906" lon="0.30127">
        <ele>105.80000305176</ele>
        <time>2020-06-13T21:46:27.856Z</time>
        <extensions>
          <gpxtpx:TrackPointExtension xmlns:gpxtpx="http://www.garmin.com/xmlschemas/TrackPointExtension/v1">
            <gpxtpx:hr>168</gpxtpx:hr>
          </gpxtpx:TrackPointExtension>
        </extensions>
      </trkpt>
      <trkpt lat="46.47906" lon="0.30124">
        <ele>106.19999694824</ele>
        <time>2020-06-13T21:46:29.390Z</time>
        <extensions>
          <gpxtpx:TrackPointExtension xmlns:gpxtpx="http://www.garmin.com/xmlschemas/TrackPointExtension/v1">
            <gpxtpx:hr>169</gpxtpx:hr>
          </gpxtpx:TrackPointExtension>
        </extensions>
      </trkpt>
      <trkpt lat="46.47905" lon="0.30121">
        <ele>106.40000152588</ele>
        <time>2020-06-13T21:46:30.410Z</time>
        <extensions>
          <gpxtpx:TrackPointExtension xmlns:gpxtpx="http://www.garmin.com/xmlschemas/TrackPointExtension/v1">
            <gpxtpx:hr>170</gpxtpx:hr>
          </gpxtpx:TrackPointExtension>
        </extensions>
      </trkpt>
      <trkpt lat="46.47905" lon="0.30117">
        <ele>107.19999694824</ele>
        <time>2020-06-13T21:46:32.455Z</time>
        <extensions>
          <gpxtpx:TrackPointExtension xmlns:gpxtpx="http://www.garmin.com/xmlschemas/TrackPointExtension/v1">
            <gpxtpx:hr>170</gpxtpx:hr>
          </gpxtpx:TrackPointExtension>
        </extensions>
      </trkpt>
      <trkpt lat="46.47905" lon="0.30113">
        <ele>107.40000152588</ele>
        <time>2020-06-13T21:46:33.543Z</time>
        <extensions>
          <gpxtpx:TrackPointExtension xmlns:gpxtpx="http://www.garmin.com/xmlschemas/TrackPointExtension/v1">
            <gpxtpx:hr>172</gpxtpx:hr>
          </gpxtpx:TrackPointExtension>
        </extensions>
      </trkpt>
      <trkpt lat="46.47906" lon="0.30111">
        <ele>108.19999694824</ele>
        <time>2020-06-13T21:46:34.806Z</time>
        <extensions>
          <gpxtpx:TrackPointExtension xmlns:gpxtpx="http://www.garmin.com/xmlschemas/TrackPointExtension/v1">
            <gpxtpx:hr>172</gpxtpx:hr>
          </gpxtpx:TrackPointExtension>
        </extensions>
      </trkpt>
      <trkpt lat="46.47906" lon="0.30109">
        <ele>108.40000152588</ele>
        <time>2020-06-13T21:46:35.828Z</time>
        <extensions>
          <gpxtpx:TrackPointExtension xmlns:gpxtpx="http://www.garmin.com/xmlschemas/TrackPointExtension/v1">
            <gpxtpx:hr>173</gpxtpx:hr>
          </gpxtpx:TrackPointExtension>
        </extensions>
      </trkpt>
      <trkpt lat="46.47906" lon="0.30106">
        <ele>108.80000305176</ele>
        <time>2020-06-13T21:46:37.362Z</time>
        <extensions>
          <gpxtpx:TrackPointExtension xmlns:gpxtpx="http://www.garmin.com/xmlschemas/TrackPointExtension/v1">
            <gpxtpx:hr>173</gpxtpx:hr>
          </gpxtpx:TrackPointExtension>
        </extensions>
      </trkpt>
      <trkpt lat="46.47907" lon="0.30103">
        <ele>109</ele>
        <time>2020-06-13T21:46:38.383Z</time>
        <extensions>
          <gpxtpx:TrackPointExtension xmlns:gpxtpx="http://www.garmin.com/xmlschemas/TrackPointExtension/v1">
            <gpxtpx:hr>175</gpxtpx:hr>
          </gpxtpx:TrackPointExtension>
        </extensions>
      </trkpt>
      <trkpt lat="46.47908" lon="0.301">
        <ele>109.19999694824</ele>
        <time>2020-06-13T21:46:39.403Z</time>
        <extensions>
          <gpxtpx:TrackPointExtension xmlns:gpxtpx="http://www.garmin.com/xmlschemas/TrackPointExtension/v1">
            <gpxtpx:hr>175</gpxtpx:hr>
          </gpxtpx:TrackPointExtension>
        </extensions>
      </trkpt>
      <trkpt lat="46.47909" lon="0.30098">
        <ele>110</ele>
        <time>2020-06-13T21:46:40.667Z</time>
        <extensions>
          <gpxtpx:TrackPointExtension xmlns:gpxtpx="http://www.garmin.com/xmlschemas/TrackPointExtension/v1">
            <gpxtpx:hr>176</gpxtpx:hr>
          </gpxtpx:TrackPointExtension>
        </extensions>
      </trkpt>
      <trkpt lat="46.47911" lon="0.30096">
        <ele>110.40000152588</ele>
        <time>2020-06-13T21:46:42.469Z</time>
        <extensions>
          <gpxtpx:TrackPointExtension xmlns:gpxtpx="http://www.garmin.com/xmlschemas/TrackPointExtension/v1">
            <gpxtpx:hr>176</gpxtpx:hr>
          </gpxtpx:TrackPointExtension>
        </extensions>
      </trkpt>
      <trkpt lat="46.47914" lon="0.30095">
        <ele>111</ele>
        <time>2020-06-13T21:46:44.754Z</time>
        <extensions>
          <gpxtpx:TrackPointExtension xmlns:gpxtpx="http://www.garmin.com/xmlschemas/TrackPointExtension/v1">
            <gpxtpx:hr>177</gpxtpx:hr>
          </gpxtpx:TrackPointExtension>
        </extensions>
      </trkpt>
      <trkpt lat="46.47916" lon="0.30096">
        <ele>111.40000152588</ele>
        <time>2020-06-13T21:46:46.324Z</time>
        <extensions>
          <gpxtpx:TrackPointExtension xmlns:gpxtpx="http://www.garmin.com/xmlschemas/TrackPointExtension/v1">
            <gpxtpx:hr>177</gpxtpx:hr>
          </gpxtpx:TrackPointExtension>
        </extensions>
      </trkpt>
      <trkpt lat="46.47919" lon="0.30098">
        <ele>111.59999847412</ele>
        <time>2020-06-13T21:46:47.517Z</time>
        <extensions>
          <gpxtpx:TrackPointExtension xmlns:gpxtpx="http://www.garmin.com/xmlschemas/TrackPointExtension/v1">
            <gpxtpx:hr>177</gpxtpx:hr>
          </gpxtpx:TrackPointExtension>
        </extensions>
      </trkpt>
      <trkpt lat="46.47921" lon="0.301">
        <ele>112.59999847412</ele>
        <time>2020-06-13T21:46:49.320Z</time>
        <extensions>
          <gpxtpx:TrackPointExtension xmlns:gpxtpx="http://www.garmin.com/xmlschemas/TrackPointExtension/v1">
            <gpxtpx:hr>177</gpxtpx:hr>
          </gpxtpx:TrackPointExtension>
        </extensions>
      </trkpt>
      <trkpt lat="46.47924" lon="0.30102">
        <ele>113</ele>
        <time>2020-06-13T21:46:51.401Z</time>
        <extensions>
          <gpxtpx:TrackPointExtension xmlns:gpxtpx="http://www.garmin.com/xmlschemas/TrackPointExtension/v1">
            <gpxtpx:hr>178</gpxtpx:hr>
          </gpxtpx:TrackPointExtension>
        </extensions>
      </trkpt>
      <trkpt lat="46.47926" lon="0.30103">
        <ele>113.40000152588</ele>
        <time>2020-06-13T21:46:52.971Z</time>
        <extensions>
          <gpxtpx:TrackPointExtension xmlns:gpxtpx="http://www.garmin.com/xmlschemas/TrackPointExtension/v1">
            <gpxtpx:hr>178</gpxtpx:hr>
          </gpxtpx:TrackPointExtension>
        </extensions>
      </trkpt>
      <trkpt lat="46.47928" lon="0.30105">
        <ele>113.80000305176</ele>
        <time>2020-06-13T21:46:54.774Z</time>
        <extensions>
          <gpxtpx:TrackPointExtension xmlns:gpxtpx="http://www.garmin.com/xmlschemas/TrackPointExtension/v1">
            <gpxtpx:hr>178</gpxtpx:hr>
          </gpxtpx:TrackPointExtension>
        </extensions>
      </trkpt>
      <trkpt lat="46.4793" lon="0.30106">
        <ele>114.19999694824</ele>
        <time>2020-06-13T21:46:56.344Z</time>
        <extensions>
          <gpxtpx:TrackPointExtension xmlns:gpxtpx="http://www.garmin.com/xmlschemas/TrackPointExtension/v1">
            <gpxtpx:hr>179</gpxtpx:hr>
          </gpxtpx:TrackPointExtension>
        </extensions>
      </trkpt>
      <trkpt lat="46.47931" lon="0.30107">
        <ele>114.59999847412</ele>
        <time>2020-06-13T21:46:57.245Z</time>
        <extensions>
          <gpxtpx:TrackPointExtension xmlns:gpxtpx="http://www.garmin.com/xmlschemas/TrackPointExtension/v1">
            <gpxtpx:hr>179</gpxtpx:hr>
          </gpxtpx:TrackPointExtension>
        </extensions>
      </trkpt>
      <trkpt lat="46.47931" lon="0.30107">
        <ele>114.80000305176</ele>
        <time>2020-06-13T21:46:57.245Z</time>
        <extensions>
          <gpxtpx:TrackPointExtension xmlns:gpxtpx="http://www.garmin.com/xmlschemas/TrackPointExtension/v1">
            <gpxtpx:hr>179</gpxtpx:hr>
          </gpxtpx:TrackPointExtension>
        </extensions>
      </trkpt>
      <trkpt lat="46.47931" lon="0.30107">
        <ele>115.19999694824</ele>
        <time>2020-06-13T21:46:57.245Z</time>
        <extensions>
          <gpxtpx:TrackPointExtension xmlns:gpxtpx="http://www.garmin.com/xmlschemas/TrackPointExtension/v1">
            <gpxtpx:hr>179</gpxtpx:hr>
          </gpxtpx:TrackPointExtension>
        </extensions>
      </trkpt>
      <trkpt lat="46.47931" lon="0.30107">
        <ele>115.19999694824</ele>
        <time>2020-06-13T21:46:57.245Z</time>
        <extensions>
          <gpxtpx:TrackPointExtension xmlns:gpxtpx="http://www.garmin.com/xmlschemas/TrackPointExtension/v1">
            <gpxtpx:hr>179</gpxtpx:hr>
          </gpxtpx:TrackPointExtension>
        </extensions>
      </trkpt>
      <trkpt lat="46.47935" lon="0.3011">
        <ele>115.19999694824</ele>
        <time>2020-06-13T21:46:58.111Z</time>
        <extensions>
          <gpxtpx:TrackPointExtension xmlns:gpxtpx="http://www.garmin.com/xmlschemas/TrackPointExtension/v1">
            <gpxtpx:hr>168</gpxtpx:hr>
          </gpxtpx:TrackPointExtension>
        </extensions>
      </trkpt>
      <trkpt lat="46.47938" lon="0.30112">
        <ele>115.19999694824</ele>
        <time>2020-06-13T21:46:58.747Z</time>
        <extensions>
          <gpxtpx:TrackPointExtension xmlns:gpxtpx="http://www.garmin.com/xmlschemas/TrackPointExtension/v1">
            <gpxtpx:hr>166</gpxtpx:hr>
          </gpxtpx:TrackPointExtension>
        </extensions>
      </trkpt>
      <trkpt lat="46.47941" lon="0.30114">
        <ele>115.19999694824</ele>
        <time>2020-06-13T21:46:59.382Z</time>
        <extensions>
          <gpxtpx:TrackPointExtension xmlns:gpxtpx="http://www.garmin.com/xmlschemas/TrackPointExtension/v1">
            <gpxtpx:hr>166</gpxtpx:hr>
          </gpxtpx:TrackPointExtension>
        </extensions>
      </trkpt>
      <trkpt lat="46.47945" lon="0.30115">
        <ele>115.40000152588</ele>
        <time>2020-06-13T21:47:00.741Z</time>
        <extensions>
          <gpxtpx:TrackPointExtension xmlns:gpxtpx="http://www.garmin.com/xmlschemas/TrackPointExtension/v1">
            <gpxtpx:hr>163</gpxtpx:hr>
          </gpxtpx:TrackPointExtension>
        </extensions>
      </trkpt>
      <trkpt lat="46.47949" lon="0.30116">
        <ele>115.40000152588</ele>
        <time>2020-06-13T21:47:01.522Z</time>
        <extensions>
          <gpxtpx:TrackPointExtension xmlns:gpxtpx="http://www.garmin.com/xmlschemas/TrackPointExtension/v1">
            <gpxtpx:hr>163</gpxtpx:hr>
          </gpxtpx:TrackPointExtension>
        </extensions>
      </trkpt>
      <trkpt lat="46.47958" lon="0.30119">
        <ele>115.59999847412</ele>
        <time>2020-06-13T21:47:03.739Z</time>
        <extensions>
          <gpxtpx:TrackPointExtension xmlns:gpxtpx="http://www.garmin.com/xmlschemas/TrackPointExtension/v1">
            <gpxtpx:hr>162</gpxtpx:hr>
          </gpxtpx:TrackPointExtension>
        </extensions>
      </trkpt>
      <trkpt lat="46.47963" lon="0.3012">
        <ele>115.80000305176</ele>
        <time>2020-06-13T21:47:05.264Z</time>
        <extensions>
          <gpxtpx:TrackPointExtension xmlns:gpxtpx="http://www.garmin.com/xmlschemas/TrackPointExtension/v1">
            <gpxtpx:hr>160</gpxtpx:hr>
          </gpxtpx:TrackPointExtension>
        </extensions>
      </trkpt>
      <trkpt lat="46.47971" lon="0.30123">
        <ele>116.40000152588</ele>
        <time>2020-06-13T21:47:08.527Z</time>
        <extensions>
          <gpxtpx:TrackPointExtension xmlns:gpxtpx="http://www.garmin.com/xmlschemas/TrackPointExtension/v1">
            <gpxtpx:hr>160</gpxtpx:hr>
          </gpxtpx:TrackPointExtension>
        </extensions>
      </trkpt>
      <trkpt lat="46.47975" lon="0.30125">
        <ele>116.59999847412</ele>
        <time>2020-06-13T21:47:09.926Z</time>
        <extensions>
          <gpxtpx:TrackPointExtension xmlns:gpxtpx="http://www.garmin.com/xmlschemas/TrackPointExtension/v1">
            <gpxtpx:hr>160</gpxtpx:hr>
          </gpxtpx:TrackPointExtension>
        </extensions>
      </trkpt>
      <trkpt lat="46.47979" lon="0.30126">
        <ele>116.80000305176</ele>
        <time>2020-06-13T21:47:11.285Z</time>
        <extensions>
          <gpxtpx:TrackPointExtension xmlns:gpxtpx="http://www.garmin.com/xmlschemas/TrackPointExtension/v1">
            <gpxtpx:hr>160</gpxtpx:hr>
          </gpxtpx:TrackPointExtension>
        </extensions>
      </trkpt>
      <trkpt lat="46.47983" lon="0.30127">
        <ele>117</ele>
        <time>2020-06-13T21:47:12.645Z</time>
        <extensions>
          <gpxtpx:TrackPointExtension xmlns:gpxtpx="http://www.garmin.com/xmlschemas/TrackPointExtension/v1">
            <gpxtpx:hr>160</gpxtpx:hr>
          </gpxtpx:TrackPointExtension>
        </extensions>
      </trkpt>
      <trkpt lat="46.47988" lon="0.30129">
        <ele>117.40000152588</ele>
        <time>2020-06-13T21:47:14.767Z</time>
        <extensions>
          <gpxtpx:TrackPointExtension xmlns:gpxtpx="http://www.garmin.com/xmlschemas/TrackPointExtension/v1">
            <gpxtpx:hr>160</gpxtpx:hr>
          </gpxtpx:TrackPointExtension>
        </extensions>
      </trkpt>
      <trkpt lat="46.47992" lon="0.3013">
        <ele>117.40000152588</ele>
        <time>2020-06-13T21:47:15.548Z</time>
        <extensions>
          <gpxtpx:TrackPointExtension xmlns:gpxtpx="http://www.garmin.com/xmlschemas/TrackPointExtension/v1">
            <gpxtpx:hr>160</gpxtpx:hr>
          </gpxtpx:TrackPointExtension>
        </extensions>
      </trkpt>
      <trkpt lat="46.47996" lon="0.30132">
        <ele>117.59999847412</ele>
        <time>2020-06-13T21:47:16.947Z</time>
        <extensions>
          <gpxtpx:TrackPointExtension xmlns:gpxtpx="http://www.garmin.com/xmlschemas/TrackPointExtension/v1">
            <gpxtpx:hr>160</gpxtpx:hr>
          </gpxtpx:TrackPointExtension>
        </extensions>
      </trkpt>
      <trkpt lat="46.48001" lon="0.30132">
        <ele>117.80000305176</ele>
        <time>2020-06-13T21:47:18.465Z</time>
        <extensions>
          <gpxtpx:TrackPointExtension xmlns:gpxtpx="http://www.garmin.com/xmlschemas/TrackPointExtension/v1">
            <gpxtpx:hr>160</gpxtpx:hr>
          </gpxtpx:TrackPointExtension>
        </extensions>
      </trkpt>
      <trkpt lat="46.48005" lon="0.30132">
        <ele>117.80000305176</ele>
        <time>2020-06-13T21:47:19.235Z</time>
        <extensions>
          <gpxtpx:TrackPointExtension xmlns:gpxtpx="http://www.garmin.com/xmlschemas/TrackPointExtension/v1">
            <gpxtpx:hr>160</gpxtpx:hr>
          </gpxtpx:TrackPointExtension>
        </extensions>
      </trkpt>
      <trkpt lat="46.48009" lon="0.30129">
        <ele>117.80000305176</ele>
        <time>2020-06-13T21:47:20.101Z</time>
        <extensions>
          <gpxtpx:TrackPointExtension xmlns:gpxtpx="http://www.garmin.com/xmlschemas/TrackPointExtension/v1">
            <gpxtpx:hr>160</gpxtpx:hr>
          </gpxtpx:TrackPointExtension>
        </extensions>
      </trkpt>
      <trkpt lat="46.48013" lon="0.30126">
        <ele>117.80000305176</ele>
        <time>2020-06-13T21:47:20.968Z</time>
        <extensions>
          <gpxtpx:TrackPointExtension xmlns:gpxtpx="http://www.garmin.com/xmlschemas/TrackPointExtension/v1">
            <gpxtpx:hr>160</gpxtpx:hr>
          </gpxtpx:TrackPointExtension>
        </extensions>
      </trkpt>
      <trkpt lat="46.48018" lon="0.30122">
        <ele>118</ele>
        <time>2020-06-13T21:47:22.585Z</time>
        <extensions>
          <gpxtpx:TrackPointExtension xmlns:gpxtpx="http://www.garmin.com/xmlschemas/TrackPointExtension/v1">
            <gpxtpx:hr>160</gpxtpx:hr>
          </gpxtpx:TrackPointExtension>
        </extensions>
      </trkpt>
      <trkpt lat="46.48022" lon="0.30118">
        <ele>118</ele>
        <time>2020-06-13T21:47:23.520Z</time>
        <extensions>
          <gpxtpx:TrackPointExtension xmlns:gpxtpx="http://www.garmin.com/xmlschemas/TrackPointExtension/v1">
            <gpxtpx:hr>160</gpxtpx:hr>
          </gpxtpx:TrackPointExtension>
        </extensions>
      </trkpt>
      <trkpt lat="46.48026" lon="0.30114">
        <ele>118.19999694824</ele>
        <time>2020-06-13T21:47:25.021Z</time>
        <extensions>
          <gpxtpx:TrackPointExtension xmlns:gpxtpx="http://www.garmin.com/xmlschemas/TrackPointExtension/v1">
            <gpxtpx:hr>159</gpxtpx:hr>
          </gpxtpx:TrackPointExtension>
        </extensions>
      </trkpt>
      <trkpt lat="46.4803" lon="0.3011">
        <ele>118.40000152588</ele>
        <time>2020-06-13T21:47:26.521Z</time>
        <extensions>
          <gpxtpx:TrackPointExtension xmlns:gpxtpx="http://www.garmin.com/xmlschemas/TrackPointExtension/v1">
            <gpxtpx:hr>159</gpxtpx:hr>
          </gpxtpx:TrackPointExtension>
        </extensions>
      </trkpt>
      <trkpt lat="46.48033" lon="0.30106">
        <ele>118.40000152588</ele>
        <time>2020-06-13T21:47:27.305Z</time>
        <extensions>
          <gpxtpx:TrackPointExtension xmlns:gpxtpx="http://www.garmin.com/xmlschemas/TrackPointExtension/v1">
            <gpxtpx:hr>158</gpxtpx:hr>
          </gpxtpx:TrackPointExtension>
        </extensions>
      </trkpt>
      <trkpt lat="46.48037" lon="0.30102">
        <ele>118.40000152588</ele>
        <time>2020-06-13T21:47:28.240Z</time>
        <extensions>
          <gpxtpx:TrackPointExtension xmlns:gpxtpx="http://www.garmin.com/xmlschemas/TrackPointExtension/v1">
            <gpxtpx:hr>158</gpxtpx:hr>
          </gpxtpx:TrackPointExtension>
        </extensions>
      </trkpt>
      <trkpt lat="46.48041" lon="0.30098">
        <ele>118.59999847412</ele>
        <time>2020-06-13T21:47:29.740Z</time>
        <extensions>
          <gpxtpx:TrackPointExtension xmlns:gpxtpx="http://www.garmin.com/xmlschemas/TrackPointExtension/v1">
            <gpxtpx:hr>158</gpxtpx:hr>
          </gpxtpx:TrackPointExtension>
        </extensions>
      </trkpt>
      <trkpt lat="46.48045" lon="0.30094">
        <ele>118.59999847412</ele>
        <time>2020-06-13T21:47:30.675Z</time>
        <extensions>
          <gpxtpx:TrackPointExtension xmlns:gpxtpx="http://www.garmin.com/xmlschemas/TrackPointExtension/v1">
            <gpxtpx:hr>158</gpxtpx:hr>
          </gpxtpx:TrackPointExtension>
        </extensions>
      </trkpt>
      <trkpt lat="46.48053" lon="0.30087">
        <ele>118.80000305176</ele>
        <time>2020-06-13T21:47:32.911Z</time>
        <extensions>
          <gpxtpx:TrackPointExtension xmlns:gpxtpx="http://www.garmin.com/xmlschemas/TrackPointExtension/v1">
            <gpxtpx:hr>157</gpxtpx:hr>
          </gpxtpx:TrackPointExtension>
        </extensions>
      </trkpt>
      <trkpt lat="46.4806" lon="0.30078">
        <ele>119</ele>
        <time>2020-06-13T21:47:35.148Z</time>
        <extensions>
          <gpxtpx:TrackPointExtension xmlns:gpxtpx="http://www.garmin.com/xmlschemas/TrackPointExtension/v1">
            <gpxtpx:hr>157</gpxtpx:hr>
          </gpxtpx:TrackPointExtension>
        </extensions>
      </trkpt>
      <trkpt lat="46.48064" lon="0.30073">
        <ele>119.40000152588</ele>
        <time>2020-06-13T21:47:37.285Z</time>
        <extensions>
          <gpxtpx:TrackPointExtension xmlns:gpxtpx="http://www.garmin.com/xmlschemas/TrackPointExtension/v1">
            <gpxtpx:hr>157</gpxtpx:hr>
          </gpxtpx:TrackPointExtension>
        </extensions>
      </trkpt>
      <trkpt lat="46.48069" lon="0.30068">
        <ele>119.59999847412</ele>
        <time>2020-06-13T21:47:38.958Z</time>
        <extensions>
          <gpxtpx:TrackPointExtension xmlns:gpxtpx="http://www.garmin.com/xmlschemas/TrackPointExtension/v1">
            <gpxtpx:hr>157</gpxtpx:hr>
          </gpxtpx:TrackPointExtension>
        </extensions>
      </trkpt>
      <trkpt lat="46.48074" lon="0.30062">
        <ele>120</ele>
        <time>2020-06-13T21:47:41.322Z</time>
        <extensions>
          <gpxtpx:TrackPointExtension xmlns:gpxtpx="http://www.garmin.com/xmlschemas/TrackPointExtension/v1">
            <gpxtpx:hr>158</gpxtpx:hr>
          </gpxtpx:TrackPointExtension>
        </extensions>
      </trkpt>
      <trkpt lat="46.48074" lon="0.30062">
        <ele>120.19999694824</ele>
        <time>2020-06-13T21:47:41.322Z</time>
        <extensions>
          <gpxtpx:TrackPointExtension xmlns:gpxtpx="http://www.garmin.com/xmlschemas/TrackPointExtension/v1">
            <gpxtpx:hr>158</gpxtpx:hr>
          </gpxtpx:TrackPointExtension>
        </extensions>
      </trkpt>
      <trkpt lat="46.48082" lon="0.30053">
        <ele>120.40000152588</ele>
        <time>2020-06-13T21:47:43.700Z</time>
        <extensions>
          <gpxtpx:TrackPointExtension xmlns:gpxtpx="http://www.garmin.com/xmlschemas/TrackPointExtension/v1">
            <gpxtpx:hr>159</gpxtpx:hr>
          </gpxtpx:TrackPointExtension>
        </extensions>
      </trkpt>
      <trkpt lat="46.48086" lon="0.30047">
        <ele>120.59999847412</ele>
        <time>2020-06-13T21:47:45.324Z</time>
        <extensions>
          <gpxtpx:TrackPointExtension xmlns:gpxtpx="http://www.garmin.com/xmlschemas/TrackPointExtension/v1">
            <gpxtpx:hr>159</gpxtpx:hr>
          </gpxtpx:TrackPointExtension>
        </extensions>
      </trkpt>
      <trkpt lat="46.48089" lon="0.30042">
        <ele>120.59999847412</ele>
        <time>2020-06-13T21:47:46.202Z</time>
        <extensions>
          <gpxtpx:TrackPointExtension xmlns:gpxtpx="http://www.garmin.com/xmlschemas/TrackPointExtension/v1">
            <gpxtpx:hr>159</gpxtpx:hr>
          </gpxtpx:TrackPointExtension>
        </extensions>
      </trkpt>
      <trkpt lat="46.48093" lon="0.30038">
        <ele>121</ele>
        <time>2020-06-13T21:47:48.276Z</time>
        <extensions>
          <gpxtpx:TrackPointExtension xmlns:gpxtpx="http://www.garmin.com/xmlschemas/TrackPointExtension/v1">
            <gpxtpx:hr>160</gpxtpx:hr>
          </gpxtpx:TrackPointExtension>
        </extensions>
      </trkpt>
      <trkpt lat="46.48096" lon="0.30033">
        <ele>121</ele>
        <time>2020-06-13T21:47:49.155Z</time>
        <extensions>
          <gpxtpx:TrackPointExtension xmlns:gpxtpx="http://www.garmin.com/xmlschemas/TrackPointExtension/v1">
            <gpxtpx:hr>160</gpxtpx:hr>
          </gpxtpx:TrackPointExtension>
        </extensions>
      </trkpt>
      <trkpt lat="46.481" lon="0.30027">
        <ele>121.19999694824</ele>
        <time>2020-06-13T21:47:50.779Z</time>
        <extensions>
          <gpxtpx:TrackPointExtension xmlns:gpxtpx="http://www.garmin.com/xmlschemas/TrackPointExtension/v1">
            <gpxtpx:hr>160</gpxtpx:hr>
          </gpxtpx:TrackPointExtension>
        </extensions>
      </trkpt>
      <trkpt lat="46.48103" lon="0.30023">
        <ele>121.40000152588</ele>
        <time>2020-06-13T21:47:52.141Z</time>
        <extensions>
          <gpxtpx:TrackPointExtension xmlns:gpxtpx="http://www.garmin.com/xmlschemas/TrackPointExtension/v1">
            <gpxtpx:hr>160</gpxtpx:hr>
          </gpxtpx:TrackPointExtension>
        </extensions>
      </trkpt>
      <trkpt lat="46.48107" lon="0.30019">
        <ele>121.40000152588</ele>
        <time>2020-06-13T21:47:53.076Z</time>
        <extensions>
          <gpxtpx:TrackPointExtension xmlns:gpxtpx="http://www.garmin.com/xmlschemas/TrackPointExtension/v1">
            <gpxtpx:hr>161</gpxtpx:hr>
          </gpxtpx:TrackPointExtension>
        </extensions>
      </trkpt>
      <trkpt lat="46.4811" lon="0.30014">
        <ele>121.40000152588</ele>
        <time>2020-06-13T21:47:53.955Z</time>
        <extensions>
          <gpxtpx:TrackPointExtension xmlns:gpxtpx="http://www.garmin.com/xmlschemas/TrackPointExtension/v1">
            <gpxtpx:hr>161</gpxtpx:hr>
          </gpxtpx:TrackPointExtension>
        </extensions>
      </trkpt>
      <trkpt lat="46.48113" lon="0.3001">
        <ele>121.59999847412</ele>
        <time>2020-06-13T21:47:55.317Z</time>
        <extensions>
          <gpxtpx:TrackPointExtension xmlns:gpxtpx="http://www.garmin.com/xmlschemas/TrackPointExtension/v1">
            <gpxtpx:hr>161</gpxtpx:hr>
          </gpxtpx:TrackPointExtension>
        </extensions>
      </trkpt>
      <trkpt lat="46.48118" lon="0.30006">
        <ele>121.59999847412</ele>
        <time>2020-06-13T21:47:56.416Z</time>
        <extensions>
          <gpxtpx:TrackPointExtension xmlns:gpxtpx="http://www.garmin.com/xmlschemas/TrackPointExtension/v1">
            <gpxtpx:hr>161</gpxtpx:hr>
          </gpxtpx:TrackPointExtension>
        </extensions>
      </trkpt>
      <trkpt lat="46.48122" lon="0.30002">
        <ele>121.59999847412</ele>
        <time>2020-06-13T21:47:57.350Z</time>
        <extensions>
          <gpxtpx:TrackPointExtension xmlns:gpxtpx="http://www.garmin.com/xmlschemas/TrackPointExtension/v1">
            <gpxtpx:hr>161</gpxtpx:hr>
          </gpxtpx:TrackPointExtension>
        </extensions>
      </trkpt>
      <trkpt lat="46.48127" lon="0.29997">
        <ele>121.59999847412</ele>
        <time>2020-06-13T21:47:58.519Z</time>
        <extensions>
          <gpxtpx:TrackPointExtension xmlns:gpxtpx="http://www.garmin.com/xmlschemas/TrackPointExtension/v1">
            <gpxtpx:hr>161</gpxtpx:hr>
          </gpxtpx:TrackPointExtension>
        </extensions>
      </trkpt>
      <trkpt lat="46.48132" lon="0.29991">
        <ele>121.59999847412</ele>
        <time>2020-06-13T21:47:59.767Z</time>
        <extensions>
          <gpxtpx:TrackPointExtension xmlns:gpxtpx="http://www.garmin.com/xmlschemas/TrackPointExtension/v1">
            <gpxtpx:hr>161</gpxtpx:hr>
          </gpxtpx:TrackPointExtension>
        </extensions>
      </trkpt>
      <trkpt lat="46.48137" lon="0.29984">
        <ele>121.59999847412</ele>
        <time>2020-06-13T21:48:01.103Z</time>
        <extensions>
          <gpxtpx:TrackPointExtension xmlns:gpxtpx="http://www.garmin.com/xmlschemas/TrackPointExtension/v1">
            <gpxtpx:hr>161</gpxtpx:hr>
          </gpxtpx:TrackPointExtension>
        </extensions>
      </trkpt>
      <trkpt lat="46.48148" lon="0.29973">
        <ele>121.59999847412</ele>
        <time>2020-06-13T21:48:03.673Z</time>
        <extensions>
          <gpxtpx:TrackPointExtension xmlns:gpxtpx="http://www.garmin.com/xmlschemas/TrackPointExtension/v1">
            <gpxtpx:hr>161</gpxtpx:hr>
          </gpxtpx:TrackPointExtension>
        </extensions>
      </trkpt>
      <trkpt lat="46.48153" lon="0.29967">
        <ele>121.59999847412</ele>
        <time>2020-06-13T21:48:04.922Z</time>
        <extensions>
          <gpxtpx:TrackPointExtension xmlns:gpxtpx="http://www.garmin.com/xmlschemas/TrackPointExtension/v1">
            <gpxtpx:hr>161</gpxtpx:hr>
          </gpxtpx:TrackPointExtension>
        </extensions>
      </trkpt>
      <trkpt lat="46.48158" lon="0.2996">
        <ele>121.59999847412</ele>
        <time>2020-06-13T21:48:06.258Z</time>
        <extensions>
          <gpxtpx:TrackPointExtension xmlns:gpxtpx="http://www.garmin.com/xmlschemas/TrackPointExtension/v1">
            <gpxtpx:hr>161</gpxtpx:hr>
          </gpxtpx:TrackPointExtension>
        </extensions>
      </trkpt>
      <trkpt lat="46.48174" lon="0.29938">
        <ele>121.19999694824</ele>
        <time>2020-06-13T21:48:09.206Z</time>
        <extensions>
          <gpxtpx:TrackPointExtension xmlns:gpxtpx="http://www.garmin.com/xmlschemas/TrackPointExtension/v1">
            <gpxtpx:hr>159</gpxtpx:hr>
          </gpxtpx:TrackPointExtension>
        </extensions>
      </trkpt>
      <trkpt lat="46.48183" lon="0.2993">
        <ele>121</ele>
        <time>2020-06-13T21:48:10.605Z</time>
        <extensions>
          <gpxtpx:TrackPointExtension xmlns:gpxtpx="http://www.garmin.com/xmlschemas/TrackPointExtension/v1">
            <gpxtpx:hr>157</gpxtpx:hr>
          </gpxtpx:TrackPointExtension>
        </extensions>
      </trkpt>
      <trkpt lat="46.48187" lon="0.29923">
        <ele>120.80000305176</ele>
        <time>2020-06-13T21:48:11.324Z</time>
        <extensions>
          <gpxtpx:TrackPointExtension xmlns:gpxtpx="http://www.garmin.com/xmlschemas/TrackPointExtension/v1">
            <gpxtpx:hr>157</gpxtpx:hr>
          </gpxtpx:TrackPointExtension>
        </extensions>
      </trkpt>
      <trkpt lat="46.48194" lon="0.29914">
        <ele>120.59999847412</ele>
        <time>2020-06-13T21:48:12.529Z</time>
        <extensions>
          <gpxtpx:TrackPointExtension xmlns:gpxtpx="http://www.garmin.com/xmlschemas/TrackPointExtension/v1">
            <gpxtpx:hr>155</gpxtpx:hr>
          </gpxtpx:TrackPointExtension>
        </extensions>
      </trkpt>
      <trkpt lat="46.48201" lon="0.29906">
        <ele>120.19999694824</ele>
        <time>2020-06-13T21:48:13.431Z</time>
        <extensions>
          <gpxtpx:TrackPointExtension xmlns:gpxtpx="http://www.garmin.com/xmlschemas/TrackPointExtension/v1">
            <gpxtpx:hr>155</gpxtpx:hr>
          </gpxtpx:TrackPointExtension>
        </extensions>
      </trkpt>
      <trkpt lat="46.48205" lon="0.29898">
        <ele>120</ele>
        <time>2020-06-13T21:48:14.234Z</time>
        <extensions>
          <gpxtpx:TrackPointExtension xmlns:gpxtpx="http://www.garmin.com/xmlschemas/TrackPointExtension/v1">
            <gpxtpx:hr>152</gpxtpx:hr>
          </gpxtpx:TrackPointExtension>
        </extensions>
      </trkpt>
      <trkpt lat="46.4821" lon="0.2989">
        <ele>119.59999847412</ele>
        <time>2020-06-13T21:48:14.932Z</time>
        <extensions>
          <gpxtpx:TrackPointExtension xmlns:gpxtpx="http://www.garmin.com/xmlschemas/TrackPointExtension/v1">
            <gpxtpx:hr>152</gpxtpx:hr>
          </gpxtpx:TrackPointExtension>
        </extensions>
      </trkpt>
      <trkpt lat="46.48216" lon="0.29881">
        <ele>119.19999694824</ele>
        <time>2020-06-13T21:48:15.794Z</time>
        <extensions>
          <gpxtpx:TrackPointExtension xmlns:gpxtpx="http://www.garmin.com/xmlschemas/TrackPointExtension/v1">
            <gpxtpx:hr>150</gpxtpx:hr>
          </gpxtpx:TrackPointExtension>
        </extensions>
      </trkpt>
      <trkpt lat="46.48221" lon="0.29873">
        <ele>118.59999847412</ele>
        <time>2020-06-13T21:48:16.481Z</time>
        <extensions>
          <gpxtpx:TrackPointExtension xmlns:gpxtpx="http://www.garmin.com/xmlschemas/TrackPointExtension/v1">
            <gpxtpx:hr>150</gpxtpx:hr>
          </gpxtpx:TrackPointExtension>
        </extensions>
      </trkpt>
      <trkpt lat="46.48221" lon="0.29873">
        <ele>118.19999694824</ele>
        <time>2020-06-13T21:48:16.481Z</time>
        <extensions>
          <gpxtpx:TrackPointExtension xmlns:gpxtpx="http://www.garmin.com/xmlschemas/TrackPointExtension/v1">
            <gpxtpx:hr>148</gpxtpx:hr>
          </gpxtpx:TrackPointExtension>
        </extensions>
      </trkpt>
      <trkpt lat="46.48232" lon="0.29857">
        <ele>117.59999847412</ele>
        <time>2020-06-13T21:48:18.155Z</time>
        <extensions>
          <gpxtpx:TrackPointExtension xmlns:gpxtpx="http://www.garmin.com/xmlschemas/TrackPointExtension/v1">
            <gpxtpx:hr>148</gpxtpx:hr>
          </gpxtpx:TrackPointExtension>
        </extensions>
      </trkpt>
      <trkpt lat="46.48236" lon="0.29847">
        <ele>117.19999694824</ele>
        <time>2020-06-13T21:48:18.925Z</time>
        <extensions>
          <gpxtpx:TrackPointExtension xmlns:gpxtpx="http://www.garmin.com/xmlschemas/TrackPointExtension/v1">
            <gpxtpx:hr>145</gpxtpx:hr>
          </gpxtpx:TrackPointExtension>
        </extensions>
      </trkpt>
      <trkpt lat="46.48242" lon="0.29835">
        <ele>117</ele>
        <time>2020-06-13T21:48:20.268Z</time>
        <extensions>
          <gpxtpx:TrackPointExtension xmlns:gpxtpx="http://www.garmin.com/xmlschemas/TrackPointExtension/v1">
            <gpxtpx:hr>145</gpxtpx:hr>
          </gpxtpx:TrackPointExtension>
        </extensions>
      </trkpt>
      <trkpt lat="46.48245" lon="0.29825">
        <ele>116.59999847412</ele>
        <time>2020-06-13T21:48:20.975Z</time>
        <extensions>
          <gpxtpx:TrackPointExtension xmlns:gpxtpx="http://www.garmin.com/xmlschemas/TrackPointExtension/v1">
            <gpxtpx:hr>140</gpxtpx:hr>
          </gpxtpx:TrackPointExtension>
        </extensions>
      </trkpt>
      <trkpt lat="46.48248" lon="0.29815">
        <ele>116.40000152588</ele>
        <time>2020-06-13T21:48:21.888Z</time>
        <extensions>
          <gpxtpx:TrackPointExtension xmlns:gpxtpx="http://www.garmin.com/xmlschemas/TrackPointExtension/v1">
            <gpxtpx:hr>140</gpxtpx:hr>
          </gpxtpx:TrackPointExtension>
        </extensions>
      </trkpt>
      <trkpt lat="46.48251" lon="0.29805">
        <ele>116</ele>
        <time>2020-06-13T21:48:22.595Z</time>
        <extensions>
          <gpxtpx:TrackPointExtension xmlns:gpxtpx="http://www.garmin.com/xmlschemas/TrackPointExtension/v1">
            <gpxtpx:hr>137</gpxtpx:hr>
          </gpxtpx:TrackPointExtension>
        </extensions>
      </trkpt>
      <trkpt lat="46.48254" lon="0.29795">
        <ele>115.80000305176</ele>
        <time>2020-06-13T21:48:23.507Z</time>
        <extensions>
          <gpxtpx:TrackPointExtension xmlns:gpxtpx="http://www.garmin.com/xmlschemas/TrackPointExtension/v1">
            <gpxtpx:hr>136</gpxtpx:hr>
          </gpxtpx:TrackPointExtension>
        </extensions>
      </trkpt>
      <trkpt lat="46.48258" lon="0.29785">
        <ele>115.40000152588</ele>
        <time>2020-06-13T21:48:24.277Z</time>
        <extensions>
          <gpxtpx:TrackPointExtension xmlns:gpxtpx="http://www.garmin.com/xmlschemas/TrackPointExtension/v1">
            <gpxtpx:hr>134</gpxtpx:hr>
          </gpxtpx:TrackPointExtension>
        </extensions>
      </trkpt>
      <trkpt lat="46.48263" lon="0.29773">
        <ele>115.19999694824</ele>
        <time>2020-06-13T21:48:25.531Z</time>
        <extensions>
          <gpxtpx:TrackPointExtension xmlns:gpxtpx="http://www.garmin.com/xmlschemas/TrackPointExtension/v1">
            <gpxtpx:hr>134</gpxtpx:hr>
          </gpxtpx:TrackPointExtension>
        </extensions>
      </trkpt>
      <trkpt lat="46.48269" lon="0.29761">
        <ele>115</ele>
        <time>2020-06-13T21:48:26.874Z</time>
        <extensions>
          <gpxtpx:TrackPointExtension xmlns:gpxtpx="http://www.garmin.com/xmlschemas/TrackPointExtension/v1">
            <gpxtpx:hr>133</gpxtpx:hr>
          </gpxtpx:TrackPointExtension>
        </extensions>
      </trkpt>
      <trkpt lat="46.48272" lon="0.29753">
        <ele>115</ele>
        <time>2020-06-13T21:48:28.081Z</time>
        <extensions>
          <gpxtpx:TrackPointExtension xmlns:gpxtpx="http://www.garmin.com/xmlschemas/TrackPointExtension/v1">
            <gpxtpx:hr>132</gpxtpx:hr>
          </gpxtpx:TrackPointExtension>
        </extensions>
      </trkpt>
      <trkpt lat="46.48283" lon="0.2973">
        <ele>115</ele>
        <time>2020-06-13T21:48:31.792Z</time>
        <extensions>
          <gpxtpx:TrackPointExtension xmlns:gpxtpx="http://www.garmin.com/xmlschemas/TrackPointExtension/v1">
            <gpxtpx:hr>130</gpxtpx:hr>
          </gpxtpx:TrackPointExtension>
        </extensions>
      </trkpt>
      <trkpt lat="46.48286" lon="0.29724">
        <ele>115</ele>
        <time>2020-06-13T21:48:32.775Z</time>
        <extensions>
          <gpxtpx:TrackPointExtension xmlns:gpxtpx="http://www.garmin.com/xmlschemas/TrackPointExtension/v1">
            <gpxtpx:hr>129</gpxtpx:hr>
          </gpxtpx:TrackPointExtension>
        </extensions>
      </trkpt>
      <trkpt lat="46.4829" lon="0.29718">
        <ele>114.80000305176</ele>
        <time>2020-06-13T21:48:33.416Z</time>
        <extensions>
          <gpxtpx:TrackPointExtension xmlns:gpxtpx="http://www.garmin.com/xmlschemas/TrackPointExtension/v1">
            <gpxtpx:hr>129</gpxtpx:hr>
          </gpxtpx:TrackPointExtension>
        </extensions>
      </trkpt>
      <trkpt lat="46.48294" lon="0.29713">
        <ele>114.80000305176</ele>
        <time>2020-06-13T21:48:34.432Z</time>
        <extensions>
          <gpxtpx:TrackPointExtension xmlns:gpxtpx="http://www.garmin.com/xmlschemas/TrackPointExtension/v1">
            <gpxtpx:hr>129</gpxtpx:hr>
          </gpxtpx:TrackPointExtension>
        </extensions>
      </trkpt>
      <trkpt lat="46.48297" lon="0.29708">
        <ele>114.80000305176</ele>
        <time>2020-06-13T21:48:35.311Z</time>
        <extensions>
          <gpxtpx:TrackPointExtension xmlns:gpxtpx="http://www.garmin.com/xmlschemas/TrackPointExtension/v1">
            <gpxtpx:hr>129</gpxtpx:hr>
          </gpxtpx:TrackPointExtension>
        </extensions>
      </trkpt>
      <trkpt lat="46.483" lon="0.29704">
        <ele>114.80000305176</ele>
        <time>2020-06-13T21:48:36.094Z</time>
        <extensions>
          <gpxtpx:TrackPointExtension xmlns:gpxtpx="http://www.garmin.com/xmlschemas/TrackPointExtension/v1">
            <gpxtpx:hr>129</gpxtpx:hr>
          </gpxtpx:TrackPointExtension>
        </extensions>
      </trkpt>
      <trkpt lat="46.48302" lon="0.29702">
        <ele>114.59999847412</ele>
        <time>2020-06-13T21:48:36.319Z</time>
        <extensions>
          <gpxtpx:TrackPointExtension xmlns:gpxtpx="http://www.garmin.com/xmlschemas/TrackPointExtension/v1">
            <gpxtpx:hr>129</gpxtpx:hr>
          </gpxtpx:TrackPointExtension>
        </extensions>
      </trkpt>
      <trkpt lat="46.48303" lon="0.29701">
        <ele>114.59999847412</ele>
        <time>2020-06-13T21:48:36.552Z</time>
        <extensions>
          <gpxtpx:TrackPointExtension xmlns:gpxtpx="http://www.garmin.com/xmlschemas/TrackPointExtension/v1">
            <gpxtpx:hr>127</gpxtpx:hr>
          </gpxtpx:TrackPointExtension>
        </extensions>
      </trkpt>
      <trkpt lat="46.48303" lon="0.297">
        <ele>114.59999847412</ele>
        <time>2020-06-13T21:48:36.685Z</time>
        <extensions>
          <gpxtpx:TrackPointExtension xmlns:gpxtpx="http://www.garmin.com/xmlschemas/TrackPointExtension/v1">
            <gpxtpx:hr>127</gpxtpx:hr>
          </gpxtpx:TrackPointExtension>
        </extensions>
      </trkpt>
      <trkpt lat="46.48303" lon="0.297">
        <ele>114.59999847412</ele>
        <time>2020-06-13T21:48:36.685Z</time>
        <extensions>
          <gpxtpx:TrackPointExtension xmlns:gpxtpx="http://www.garmin.com/xmlschemas/TrackPointExtension/v1">
            <gpxtpx:hr>125</gpxtpx:hr>
          </gpxtpx:TrackPointExtension>
        </extensions>
      </trkpt>
      <trkpt lat="46.4831" lon="0.29693">
        <ele>114.19999694824</ele>
        <time>2020-06-13T21:48:37.529Z</time>
        <extensions>
          <gpxtpx:TrackPointExtension xmlns:gpxtpx="http://www.garmin.com/xmlschemas/TrackPointExtension/v1">
            <gpxtpx:hr>129</gpxtpx:hr>
          </gpxtpx:TrackPointExtension>
        </extensions>
      </trkpt>
      <trkpt lat="46.48311" lon="0.29692">
        <ele>114.19999694824</ele>
        <time>2020-06-13T21:48:37.763Z</time>
        <extensions>
          <gpxtpx:TrackPointExtension xmlns:gpxtpx="http://www.garmin.com/xmlschemas/TrackPointExtension/v1">
            <gpxtpx:hr>129</gpxtpx:hr>
          </gpxtpx:TrackPointExtension>
        </extensions>
      </trkpt>
      <trkpt lat="46.48311" lon="0.29691">
        <ele>114</ele>
        <time>2020-06-13T21:48:37.827Z</time>
        <extensions>
          <gpxtpx:TrackPointExtension xmlns:gpxtpx="http://www.garmin.com/xmlschemas/TrackPointExtension/v1">
            <gpxtpx:hr>125</gpxtpx:hr>
          </gpxtpx:TrackPointExtension>
        </extensions>
      </trkpt>
      <trkpt lat="46.48311" lon="0.29691">
        <ele>113.80000305176</ele>
        <time>2020-06-13T21:48:37.827Z</time>
        <extensions>
          <gpxtpx:TrackPointExtension xmlns:gpxtpx="http://www.garmin.com/xmlschemas/TrackPointExtension/v1">
            <gpxtpx:hr>125</gpxtpx:hr>
          </gpxtpx:TrackPointExtension>
        </extensions>
      </trkpt>
      <trkpt lat="46.48311" lon="0.29691">
        <ele>113.59999847412</ele>
        <time>2020-06-13T21:48:37.827Z</time>
        <extensions>
          <gpxtpx:TrackPointExtension xmlns:gpxtpx="http://www.garmin.com/xmlschemas/TrackPointExtension/v1">
            <gpxtpx:hr>125</gpxtpx:hr>
          </gpxtpx:TrackPointExtension>
        </extensions>
      </trkpt>
      <trkpt lat="46.48314" lon="0.29688">
        <ele>113</ele>
        <time>2020-06-13T21:48:38.163Z</time>
        <extensions>
          <gpxtpx:TrackPointExtension xmlns:gpxtpx="http://www.garmin.com/xmlschemas/TrackPointExtension/v1">
            <gpxtpx:hr>116</gpxtpx:hr>
          </gpxtpx:TrackPointExtension>
        </extensions>
      </trkpt>
      <trkpt lat="46.48317" lon="0.29684">
        <ele>113</ele>
        <time>2020-06-13T21:48:38.947Z</time>
        <extensions>
          <gpxtpx:TrackPointExtension xmlns:gpxtpx="http://www.garmin.com/xmlschemas/TrackPointExtension/v1">
            <gpxtpx:hr>116</gpxtpx:hr>
          </gpxtpx:TrackPointExtension>
        </extensions>
      </trkpt>
      <trkpt lat="46.48321" lon="0.29681">
        <ele>113</ele>
        <time>2020-06-13T21:48:39.813Z</time>
        <extensions>
          <gpxtpx:TrackPointExtension xmlns:gpxtpx="http://www.garmin.com/xmlschemas/TrackPointExtension/v1">
            <gpxtpx:hr>112</gpxtpx:hr>
          </gpxtpx:TrackPointExtension>
        </extensions>
      </trkpt>
      <trkpt lat="46.4833" lon="0.29671">
        <ele>112.59999847412</ele>
        <time>2020-06-13T21:48:41.071Z</time>
        <extensions>
          <gpxtpx:TrackPointExtension xmlns:gpxtpx="http://www.garmin.com/xmlschemas/TrackPointExtension/v1">
            <gpxtpx:hr>104</gpxtpx:hr>
          </gpxtpx:TrackPointExtension>
        </extensions>
      </trkpt>
      <trkpt lat="46.48332" lon="0.29667">
        <ele>112</ele>
        <time>2020-06-13T21:48:41.385Z</time>
        <extensions>
          <gpxtpx:TrackPointExtension xmlns:gpxtpx="http://www.garmin.com/xmlschemas/TrackPointExtension/v1">
            <gpxtpx:hr>104</gpxtpx:hr>
          </gpxtpx:TrackPointExtension>
        </extensions>
      </trkpt>
      <trkpt lat="46.48334" lon="0.29664">
        <ele>111.80000305176</ele>
        <time>2020-06-13T21:48:41.651Z</time>
        <extensions>
          <gpxtpx:TrackPointExtension xmlns:gpxtpx="http://www.garmin.com/xmlschemas/TrackPointExtension/v1">
            <gpxtpx:hr>103</gpxtpx:hr>
          </gpxtpx:TrackPointExtension>
        </extensions>
      </trkpt>
      <trkpt lat="46.48335" lon="0.2966">
        <ele>111.40000152588</ele>
        <time>2020-06-13T21:48:41.921Z</time>
        <extensions>
          <gpxtpx:TrackPointExtension xmlns:gpxtpx="http://www.garmin.com/xmlschemas/TrackPointExtension/v1">
            <gpxtpx:hr>103</gpxtpx:hr>
          </gpxtpx:TrackPointExtension>
        </extensions>
      </trkpt>
      <trkpt lat="46.48335" lon="0.29657">
        <ele>111</ele>
        <time>2020-06-13T21:48:42.112Z</time>
        <extensions>
          <gpxtpx:TrackPointExtension xmlns:gpxtpx="http://www.garmin.com/xmlschemas/TrackPointExtension/v1">
            <gpxtpx:hr>104</gpxtpx:hr>
          </gpxtpx:TrackPointExtension>
        </extensions>
      </trkpt>
      <trkpt lat="46.48334" lon="0.29655">
        <ele>110.59999847412</ele>
        <time>2020-06-13T21:48:42.269Z</time>
        <extensions>
          <gpxtpx:TrackPointExtension xmlns:gpxtpx="http://www.garmin.com/xmlschemas/TrackPointExtension/v1">
            <gpxtpx:hr>104</gpxtpx:hr>
          </gpxtpx:TrackPointExtension>
        </extensions>
      </trkpt>
      <trkpt lat="46.48334" lon="0.29653">
        <ele>110</ele>
        <time>2020-06-13T21:48:42.396Z</time>
        <extensions>
          <gpxtpx:TrackPointExtension xmlns:gpxtpx="http://www.garmin.com/xmlschemas/TrackPointExtension/v1">
            <gpxtpx:hr>106</gpxtpx:hr>
          </gpxtpx:TrackPointExtension>
        </extensions>
      </trkpt>
      <trkpt lat="46.48334" lon="0.29652">
        <ele>109.59999847412</ele>
        <time>2020-06-13T21:48:42.460Z</time>
        <extensions>
          <gpxtpx:TrackPointExtension xmlns:gpxtpx="http://www.garmin.com/xmlschemas/TrackPointExtension/v1">
            <gpxtpx:hr>106</gpxtpx:hr>
          </gpxtpx:TrackPointExtension>
        </extensions>
      </trkpt>
      <trkpt lat="46.48334" lon="0.29652">
        <ele>108.80000305176</ele>
        <time>2020-06-13T21:48:42.460Z</time>
        <extensions>
          <gpxtpx:TrackPointExtension xmlns:gpxtpx="http://www.garmin.com/xmlschemas/TrackPointExtension/v1">
            <gpxtpx:hr>108</gpxtpx:hr>
          </gpxtpx:TrackPointExtension>
        </extensions>
      </trkpt>
      <trkpt lat="46.48334" lon="0.29651">
        <ele>108</ele>
        <time>2020-06-13T21:48:42.524Z</time>
        <extensions>
          <gpxtpx:TrackPointExtension xmlns:gpxtpx="http://www.garmin.com/xmlschemas/TrackPointExtension/v1">
            <gpxtpx:hr>108</gpxtpx:hr>
          </gpxtpx:TrackPointExtension>
        </extensions>
      </trkpt>
      <trkpt lat="46.48322" lon="0.29626">
        <ele>105.40000152588</ele>
        <time>2020-06-13T21:48:44.462Z</time>
        <extensions>
          <gpxtpx:TrackPointExtension xmlns:gpxtpx="http://www.garmin.com/xmlschemas/TrackPointExtension/v1">
            <gpxtpx:hr>113</gpxtpx:hr>
          </gpxtpx:TrackPointExtension>
        </extensions>
      </trkpt>
      <trkpt lat="46.48317" lon="0.29619">
        <ele>104.80000305176</ele>
        <time>2020-06-13T21:48:45.103Z</time>
        <extensions>
          <gpxtpx:TrackPointExtension xmlns:gpxtpx="http://www.garmin.com/xmlschemas/TrackPointExtension/v1">
            <gpxtpx:hr>114</gpxtpx:hr>
          </gpxtpx:TrackPointExtension>
        </extensions>
      </trkpt>
      <trkpt lat="46.48307" lon="0.29607">
        <ele>104.19999694824</ele>
        <time>2020-06-13T21:48:46.401Z</time>
        <extensions>
          <gpxtpx:TrackPointExtension xmlns:gpxtpx="http://www.garmin.com/xmlschemas/TrackPointExtension/v1">
            <gpxtpx:hr>116</gpxtpx:hr>
          </gpxtpx:TrackPointExtension>
        </extensions>
      </trkpt>
      <trkpt lat="46.48301" lon="0.29601">
        <ele>104.19999694824</ele>
        <time>2020-06-13T21:48:47.803Z</time>
        <extensions>
          <gpxtpx:TrackPointExtension xmlns:gpxtpx="http://www.garmin.com/xmlschemas/TrackPointExtension/v1">
            <gpxtpx:hr>116</gpxtpx:hr>
          </gpxtpx:TrackPointExtension>
        </extensions>
      </trkpt>
      <trkpt lat="46.48292" lon="0.2959">
        <ele>104</ele>
        <time>2020-06-13T21:48:49.399Z</time>
        <extensions>
          <gpxtpx:TrackPointExtension xmlns:gpxtpx="http://www.garmin.com/xmlschemas/TrackPointExtension/v1">
            <gpxtpx:hr>118</gpxtpx:hr>
          </gpxtpx:TrackPointExtension>
        </extensions>
      </trkpt>
      <trkpt lat="46.48288" lon="0.29585">
        <ele>103.80000305176</ele>
        <time>2020-06-13T21:48:49.970Z</time>
        <extensions>
          <gpxtpx:TrackPointExtension xmlns:gpxtpx="http://www.garmin.com/xmlschemas/TrackPointExtension/v1">
            <gpxtpx:hr>119</gpxtpx:hr>
          </gpxtpx:TrackPointExtension>
        </extensions>
      </trkpt>
      <trkpt lat="46.48285" lon="0.29578">
        <ele>103.80000305176</ele>
        <time>2020-06-13T21:48:51.063Z</time>
        <extensions>
          <gpxtpx:TrackPointExtension xmlns:gpxtpx="http://www.garmin.com/xmlschemas/TrackPointExtension/v1">
            <gpxtpx:hr>119</gpxtpx:hr>
          </gpxtpx:TrackPointExtension>
        </extensions>
      </trkpt>
      <trkpt lat="46.48282" lon="0.2957">
        <ele>103.59999847412</ele>
        <time>2020-06-13T21:48:51.783Z</time>
        <extensions>
          <gpxtpx:TrackPointExtension xmlns:gpxtpx="http://www.garmin.com/xmlschemas/TrackPointExtension/v1">
            <gpxtpx:hr>119</gpxtpx:hr>
          </gpxtpx:TrackPointExtension>
        </extensions>
      </trkpt>
      <trkpt lat="46.48282" lon="0.29561">
        <ele>103.40000152588</ele>
        <time>2020-06-13T21:48:52.493Z</time>
        <extensions>
          <gpxtpx:TrackPointExtension xmlns:gpxtpx="http://www.garmin.com/xmlschemas/TrackPointExtension/v1">
            <gpxtpx:hr>119</gpxtpx:hr>
          </gpxtpx:TrackPointExtension>
        </extensions>
      </trkpt>
      <trkpt lat="46.48284" lon="0.2955">
        <ele>103.40000152588</ele>
        <time>2020-06-13T21:48:54.000Z</time>
        <extensions>
          <gpxtpx:TrackPointExtension xmlns:gpxtpx="http://www.garmin.com/xmlschemas/TrackPointExtension/v1">
            <gpxtpx:hr>120</gpxtpx:hr>
          </gpxtpx:TrackPointExtension>
        </extensions>
      </trkpt>
      <trkpt lat="46.48285" lon="0.29543">
        <ele>103.19999694824</ele>
        <time>2020-06-13T21:48:54.519Z</time>
        <extensions>
          <gpxtpx:TrackPointExtension xmlns:gpxtpx="http://www.garmin.com/xmlschemas/TrackPointExtension/v1">
            <gpxtpx:hr>120</gpxtpx:hr>
          </gpxtpx:TrackPointExtension>
        </extensions>
      </trkpt>
      <trkpt lat="46.48289" lon="0.29533">
        <ele>103.19999694824</ele>
        <time>2020-06-13T21:48:56.052Z</time>
        <extensions>
          <gpxtpx:TrackPointExtension xmlns:gpxtpx="http://www.garmin.com/xmlschemas/TrackPointExtension/v1">
            <gpxtpx:hr>121</gpxtpx:hr>
          </gpxtpx:TrackPointExtension>
        </extensions>
      </trkpt>
      <trkpt lat="46.48293" lon="0.29521">
        <ele>103.19999694824</ele>
        <time>2020-06-13T21:48:57.818Z</time>
        <extensions>
          <gpxtpx:TrackPointExtension xmlns:gpxtpx="http://www.garmin.com/xmlschemas/TrackPointExtension/v1">
            <gpxtpx:hr>121</gpxtpx:hr>
          </gpxtpx:TrackPointExtension>
        </extensions>
      </trkpt>
      <trkpt lat="46.48296" lon="0.29514">
        <ele>103</ele>
        <time>2020-06-13T21:48:58.449Z</time>
        <extensions>
          <gpxtpx:TrackPointExtension xmlns:gpxtpx="http://www.garmin.com/xmlschemas/TrackPointExtension/v1">
            <gpxtpx:hr>123</gpxtpx:hr>
          </gpxtpx:TrackPointExtension>
        </extensions>
      </trkpt>
      <trkpt lat="46.48301" lon="0.29506">
        <ele>103</ele>
        <time>2020-06-13T21:48:59.880Z</time>
        <extensions>
          <gpxtpx:TrackPointExtension xmlns:gpxtpx="http://www.garmin.com/xmlschemas/TrackPointExtension/v1">
            <gpxtpx:hr>123</gpxtpx:hr>
          </gpxtpx:TrackPointExtension>
        </extensions>
      </trkpt>
      <trkpt lat="46.483" lon="0.29497">
        <ele>103</ele>
        <time>2020-06-13T21:49:01.088Z</time>
        <extensions>
          <gpxtpx:TrackPointExtension xmlns:gpxtpx="http://www.garmin.com/xmlschemas/TrackPointExtension/v1">
            <gpxtpx:hr>124</gpxtpx:hr>
          </gpxtpx:TrackPointExtension>
        </extensions>
      </trkpt>
      <trkpt lat="46.48302" lon="0.29489">
        <ele>103</ele>
        <time>2020-06-13T21:49:02.216Z</time>
        <extensions>
          <gpxtpx:TrackPointExtension xmlns:gpxtpx="http://www.garmin.com/xmlschemas/TrackPointExtension/v1">
            <gpxtpx:hr>124</gpxtpx:hr>
          </gpxtpx:TrackPointExtension>
        </extensions>
      </trkpt>
      <trkpt lat="46.48304" lon="0.29478">
        <ele>103</ele>
        <time>2020-06-13T21:49:03.724Z</time>
        <extensions>
          <gpxtpx:TrackPointExtension xmlns:gpxtpx="http://www.garmin.com/xmlschemas/TrackPointExtension/v1">
            <gpxtpx:hr>125</gpxtpx:hr>
          </gpxtpx:TrackPointExtension>
        </extensions>
      </trkpt>
      <trkpt lat="46.48303" lon="0.29469">
        <ele>103</ele>
        <time>2020-06-13T21:49:04.932Z</time>
        <extensions>
          <gpxtpx:TrackPointExtension xmlns:gpxtpx="http://www.garmin.com/xmlschemas/TrackPointExtension/v1">
            <gpxtpx:hr>125</gpxtpx:hr>
          </gpxtpx:TrackPointExtension>
        </extensions>
      </trkpt>
      <trkpt lat="46.48302" lon="0.29462">
        <ele>103</ele>
        <time>2020-06-13T21:49:05.879Z</time>
        <extensions>
          <gpxtpx:TrackPointExtension xmlns:gpxtpx="http://www.garmin.com/xmlschemas/TrackPointExtension/v1">
            <gpxtpx:hr>126</gpxtpx:hr>
          </gpxtpx:TrackPointExtension>
        </extensions>
      </trkpt>
      <trkpt lat="46.48299" lon="0.29456">
        <ele>103.19999694824</ele>
        <time>2020-06-13T21:49:07.411Z</time>
        <extensions>
          <gpxtpx:TrackPointExtension xmlns:gpxtpx="http://www.garmin.com/xmlschemas/TrackPointExtension/v1">
            <gpxtpx:hr>126</gpxtpx:hr>
          </gpxtpx:TrackPointExtension>
        </extensions>
      </trkpt>
      <trkpt lat="46.48293" lon="0.29449">
        <ele>103.19999694824</ele>
        <time>2020-06-13T21:49:08.892Z</time>
        <extensions>
          <gpxtpx:TrackPointExtension xmlns:gpxtpx="http://www.garmin.com/xmlschemas/TrackPointExtension/v1">
            <gpxtpx:hr>127</gpxtpx:hr>
          </gpxtpx:TrackPointExtension>
        </extensions>
      </trkpt>
      <trkpt lat="46.48287" lon="0.29445">
        <ele>103.19999694824</ele>
        <time>2020-06-13T21:49:10.163Z</time>
        <extensions>
          <gpxtpx:TrackPointExtension xmlns:gpxtpx="http://www.garmin.com/xmlschemas/TrackPointExtension/v1">
            <gpxtpx:hr>127</gpxtpx:hr>
          </gpxtpx:TrackPointExtension>
        </extensions>
      </trkpt>
      <trkpt lat="46.48281" lon="0.2944">
        <ele>103.19999694824</ele>
        <time>2020-06-13T21:49:11.494Z</time>
        <extensions>
          <gpxtpx:TrackPointExtension xmlns:gpxtpx="http://www.garmin.com/xmlschemas/TrackPointExtension/v1">
            <gpxtpx:hr>127</gpxtpx:hr>
          </gpxtpx:TrackPointExtension>
        </extensions>
      </trkpt>
      <trkpt lat="46.48274" lon="0.29438">
        <ele>103.19999694824</ele>
        <time>2020-06-13T21:49:12.867Z</time>
        <extensions>
          <gpxtpx:TrackPointExtension xmlns:gpxtpx="http://www.garmin.com/xmlschemas/TrackPointExtension/v1">
            <gpxtpx:hr>128</gpxtpx:hr>
          </gpxtpx:TrackPointExtension>
        </extensions>
      </trkpt>
      <trkpt lat="46.48269" lon="0.29435">
        <ele>103.19999694824</ele>
        <time>2020-06-13T21:49:13.908Z</time>
        <extensions>
          <gpxtpx:TrackPointExtension xmlns:gpxtpx="http://www.garmin.com/xmlschemas/TrackPointExtension/v1">
            <gpxtpx:hr>128</gpxtpx:hr>
          </gpxtpx:TrackPointExtension>
        </extensions>
      </trkpt>
      <trkpt lat="46.48269" lon="0.29435">
        <ele>103</ele>
        <time>2020-06-13T21:49:13.908Z</time>
        <extensions>
          <gpxtpx:TrackPointExtension xmlns:gpxtpx="http://www.garmin.com/xmlschemas/TrackPointExtension/v1">
            <gpxtpx:hr>128</gpxtpx:hr>
          </gpxtpx:TrackPointExtension>
        </extensions>
      </trkpt>
      <trkpt lat="46.48258" lon="0.29426">
        <ele>103</ele>
        <time>2020-06-13T21:49:16.338Z</time>
        <extensions>
          <gpxtpx:TrackPointExtension xmlns:gpxtpx="http://www.garmin.com/xmlschemas/TrackPointExtension/v1">
            <gpxtpx:hr>128</gpxtpx:hr>
          </gpxtpx:TrackPointExtension>
        </extensions>
      </trkpt>
      <trkpt lat="46.48258" lon="0.29426">
        <ele>103</ele>
        <time>2020-06-13T21:49:16.338Z</time>
        <extensions>
          <gpxtpx:TrackPointExtension xmlns:gpxtpx="http://www.garmin.com/xmlschemas/TrackPointExtension/v1">
            <gpxtpx:hr>129</gpxtpx:hr>
          </gpxtpx:TrackPointExtension>
        </extensions>
      </trkpt>
      <trkpt lat="46.48245" lon="0.29418">
        <ele>102.80000305176</ele>
        <time>2020-06-13T21:49:18.322Z</time>
        <extensions>
          <gpxtpx:TrackPointExtension xmlns:gpxtpx="http://www.garmin.com/xmlschemas/TrackPointExtension/v1">
            <gpxtpx:hr>129</gpxtpx:hr>
          </gpxtpx:TrackPointExtension>
        </extensions>
      </trkpt>
      <trkpt lat="46.48231" lon="0.29416">
        <ele>102.19999694824</ele>
        <time>2020-06-13T21:49:19.777Z</time>
        <extensions>
          <gpxtpx:TrackPointExtension xmlns:gpxtpx="http://www.garmin.com/xmlschemas/TrackPointExtension/v1">
            <gpxtpx:hr>130</gpxtpx:hr>
          </gpxtpx:TrackPointExtension>
        </extensions>
      </trkpt>
      <trkpt lat="46.48224" lon="0.29415">
        <ele>102</ele>
        <time>2020-06-13T21:49:20.615Z</time>
        <extensions>
          <gpxtpx:TrackPointExtension xmlns:gpxtpx="http://www.garmin.com/xmlschemas/TrackPointExtension/v1">
            <gpxtpx:hr>131</gpxtpx:hr>
          </gpxtpx:TrackPointExtension>
        </extensions>
      </trkpt>
      <trkpt lat="46.48217" lon="0.29414">
        <ele>101.80000305176</ele>
        <time>2020-06-13T21:49:21.453Z</time>
        <extensions>
          <gpxtpx:TrackPointExtension xmlns:gpxtpx="http://www.garmin.com/xmlschemas/TrackPointExtension/v1">
            <gpxtpx:hr>131</gpxtpx:hr>
          </gpxtpx:TrackPointExtension>
        </extensions>
      </trkpt>
      <trkpt lat="46.48201" lon="0.29412">
        <ele>101.80000305176</ele>
        <time>2020-06-13T21:49:24.543Z</time>
        <extensions>
          <gpxtpx:TrackPointExtension xmlns:gpxtpx="http://www.garmin.com/xmlschemas/TrackPointExtension/v1">
            <gpxtpx:hr>132</gpxtpx:hr>
          </gpxtpx:TrackPointExtension>
        </extensions>
      </trkpt>
      <trkpt lat="46.48195" lon="0.29411">
        <ele>101.80000305176</ele>
        <time>2020-06-13T21:49:25.705Z</time>
        <extensions>
          <gpxtpx:TrackPointExtension xmlns:gpxtpx="http://www.garmin.com/xmlschemas/TrackPointExtension/v1">
            <gpxtpx:hr>132</gpxtpx:hr>
          </gpxtpx:TrackPointExtension>
        </extensions>
      </trkpt>
      <trkpt lat="46.48188" lon="0.29409">
        <ele>101.80000305176</ele>
        <time>2020-06-13T21:49:27.078Z</time>
        <extensions>
          <gpxtpx:TrackPointExtension xmlns:gpxtpx="http://www.garmin.com/xmlschemas/TrackPointExtension/v1">
            <gpxtpx:hr>132</gpxtpx:hr>
          </gpxtpx:TrackPointExtension>
        </extensions>
      </trkpt>
      <trkpt lat="46.48183" lon="0.2941">
        <ele>101.80000305176</ele>
        <time>2020-06-13T21:49:28.049Z</time>
        <extensions>
          <gpxtpx:TrackPointExtension xmlns:gpxtpx="http://www.garmin.com/xmlschemas/TrackPointExtension/v1">
            <gpxtpx:hr>132</gpxtpx:hr>
          </gpxtpx:TrackPointExtension>
        </extensions>
      </trkpt>
      <trkpt lat="46.48177" lon="0.2941">
        <ele>101.80000305176</ele>
        <time>2020-06-13T21:49:29.204Z</time>
        <extensions>
          <gpxtpx:TrackPointExtension xmlns:gpxtpx="http://www.garmin.com/xmlschemas/TrackPointExtension/v1">
            <gpxtpx:hr>132</gpxtpx:hr>
          </gpxtpx:TrackPointExtension>
        </extensions>
      </trkpt>
      <trkpt lat="46.48177" lon="0.2941">
        <ele>101.80000305176</ele>
        <time>2020-06-13T21:49:29.204Z</time>
        <extensions>
          <gpxtpx:TrackPointExtension xmlns:gpxtpx="http://www.garmin.com/xmlschemas/TrackPointExtension/v1">
            <gpxtpx:hr>132</gpxtpx:hr>
          </gpxtpx:TrackPointExtension>
        </extensions>
      </trkpt>
      <trkpt lat="46.48163" lon="0.29409">
        <ele>101.80000305176</ele>
        <time>2020-06-13T21:49:31.901Z</time>
        <extensions>
          <gpxtpx:TrackPointExtension xmlns:gpxtpx="http://www.garmin.com/xmlschemas/TrackPointExtension/v1">
            <gpxtpx:hr>132</gpxtpx:hr>
          </gpxtpx:TrackPointExtension>
        </extensions>
      </trkpt>
      <trkpt lat="46.48156" lon="0.29408">
        <ele>101.80000305176</ele>
        <time>2020-06-13T21:49:33.255Z</time>
        <extensions>
          <gpxtpx:TrackPointExtension xmlns:gpxtpx="http://www.garmin.com/xmlschemas/TrackPointExtension/v1">
            <gpxtpx:hr>133</gpxtpx:hr>
          </gpxtpx:TrackPointExtension>
        </extensions>
      </trkpt>
      <trkpt lat="46.4815" lon="0.29407">
        <ele>101.80000305176</ele>
        <time>2020-06-13T21:49:34.417Z</time>
        <extensions>
          <gpxtpx:TrackPointExtension xmlns:gpxtpx="http://www.garmin.com/xmlschemas/TrackPointExtension/v1">
            <gpxtpx:hr>133</gpxtpx:hr>
          </gpxtpx:TrackPointExtension>
        </extensions>
      </trkpt>
      <trkpt lat="46.48142" lon="0.29409">
        <ele>101.80000305176</ele>
        <time>2020-06-13T21:49:35.979Z</time>
        <extensions>
          <gpxtpx:TrackPointExtension xmlns:gpxtpx="http://www.garmin.com/xmlschemas/TrackPointExtension/v1">
            <gpxtpx:hr>133</gpxtpx:hr>
          </gpxtpx:TrackPointExtension>
        </extensions>
      </trkpt>
      <trkpt lat="46.48135" lon="0.29413">
        <ele>101.80000305176</ele>
        <time>2020-06-13T21:49:37.427Z</time>
        <extensions>
          <gpxtpx:TrackPointExtension xmlns:gpxtpx="http://www.garmin.com/xmlschemas/TrackPointExtension/v1">
            <gpxtpx:hr>133</gpxtpx:hr>
          </gpxtpx:TrackPointExtension>
        </extensions>
      </trkpt>
      <trkpt lat="46.48128" lon="0.29416">
        <ele>101.59999847412</ele>
        <time>2020-06-13T21:49:38.306Z</time>
        <extensions>
          <gpxtpx:TrackPointExtension xmlns:gpxtpx="http://www.garmin.com/xmlschemas/TrackPointExtension/v1">
            <gpxtpx:hr>133</gpxtpx:hr>
          </gpxtpx:TrackPointExtension>
        </extensions>
      </trkpt>
      <trkpt lat="46.4812" lon="0.29418">
        <ele>101.40000152588</ele>
        <time>2020-06-13T21:49:39.314Z</time>
        <extensions>
          <gpxtpx:TrackPointExtension xmlns:gpxtpx="http://www.garmin.com/xmlschemas/TrackPointExtension/v1">
            <gpxtpx:hr>133</gpxtpx:hr>
          </gpxtpx:TrackPointExtension>
        </extensions>
      </trkpt>
      <trkpt lat="46.48107" lon="0.29422">
        <ele>101.40000152588</ele>
        <time>2020-06-13T21:49:41.871Z</time>
        <extensions>
          <gpxtpx:TrackPointExtension xmlns:gpxtpx="http://www.garmin.com/xmlschemas/TrackPointExtension/v1">
            <gpxtpx:hr>133</gpxtpx:hr>
          </gpxtpx:TrackPointExtension>
        </extensions>
      </trkpt>
      <trkpt lat="46.481" lon="0.29428">
        <ele>101.19999694824</ele>
        <time>2020-06-13T21:49:42.881Z</time>
        <extensions>
          <gpxtpx:TrackPointExtension xmlns:gpxtpx="http://www.garmin.com/xmlschemas/TrackPointExtension/v1">
            <gpxtpx:hr>132</gpxtpx:hr>
          </gpxtpx:TrackPointExtension>
        </extensions>
      </trkpt>
      <trkpt lat="46.48096" lon="0.29433">
        <ele>101</ele>
        <time>2020-06-13T21:49:43.452Z</time>
        <extensions>
          <gpxtpx:TrackPointExtension xmlns:gpxtpx="http://www.garmin.com/xmlschemas/TrackPointExtension/v1">
            <gpxtpx:hr>132</gpxtpx:hr>
          </gpxtpx:TrackPointExtension>
        </extensions>
      </trkpt>
      <trkpt lat="46.48091" lon="0.29437">
        <ele>101</ele>
        <time>2020-06-13T21:49:44.550Z</time>
        <extensions>
          <gpxtpx:TrackPointExtension xmlns:gpxtpx="http://www.garmin.com/xmlschemas/TrackPointExtension/v1">
            <gpxtpx:hr>132</gpxtpx:hr>
          </gpxtpx:TrackPointExtension>
        </extensions>
      </trkpt>
      <trkpt lat="46.48086" lon="0.29445">
        <ele>100.80000305176</ele>
        <time>2020-06-13T21:49:45.451Z</time>
        <extensions>
          <gpxtpx:TrackPointExtension xmlns:gpxtpx="http://www.garmin.com/xmlschemas/TrackPointExtension/v1">
            <gpxtpx:hr>132</gpxtpx:hr>
          </gpxtpx:TrackPointExtension>
        </extensions>
      </trkpt>
      <trkpt lat="46.48081" lon="0.29452">
        <ele>100.59999847412</ele>
        <time>2020-06-13T21:49:46.275Z</time>
        <extensions>
          <gpxtpx:TrackPointExtension xmlns:gpxtpx="http://www.garmin.com/xmlschemas/TrackPointExtension/v1">
            <gpxtpx:hr>131</gpxtpx:hr>
          </gpxtpx:TrackPointExtension>
        </extensions>
      </trkpt>
      <trkpt lat="46.48077" lon="0.29459">
        <ele>100.40000152588</ele>
        <time>2020-06-13T21:49:46.995Z</time>
        <extensions>
          <gpxtpx:TrackPointExtension xmlns:gpxtpx="http://www.garmin.com/xmlschemas/TrackPointExtension/v1">
            <gpxtpx:hr>131</gpxtpx:hr>
          </gpxtpx:TrackPointExtension>
        </extensions>
      </trkpt>
      <trkpt lat="46.48074" lon="0.29466">
        <ele>100.19999694824</ele>
        <time>2020-06-13T21:49:47.625Z</time>
        <extensions>
          <gpxtpx:TrackPointExtension xmlns:gpxtpx="http://www.garmin.com/xmlschemas/TrackPointExtension/v1">
            <gpxtpx:hr>127</gpxtpx:hr>
          </gpxtpx:TrackPointExtension>
        </extensions>
      </trkpt>
      <trkpt lat="46.4807" lon="0.29479">
        <ele>99.800003051758</ele>
        <time>2020-06-13T21:49:48.657Z</time>
        <extensions>
          <gpxtpx:TrackPointExtension xmlns:gpxtpx="http://www.garmin.com/xmlschemas/TrackPointExtension/v1">
            <gpxtpx:hr>124</gpxtpx:hr>
          </gpxtpx:TrackPointExtension>
        </extensions>
      </trkpt>
      <trkpt lat="46.48067" lon="0.2949">
        <ele>99.199996948242</ele>
        <time>2020-06-13T21:49:49.410Z</time>
        <extensions>
          <gpxtpx:TrackPointExtension xmlns:gpxtpx="http://www.garmin.com/xmlschemas/TrackPointExtension/v1">
            <gpxtpx:hr>124</gpxtpx:hr>
          </gpxtpx:TrackPointExtension>
        </extensions>
      </trkpt>
      <trkpt lat="46.48064" lon="0.29503">
        <ele>99.199996948242</ele>
        <time>2020-06-13T21:49:51.227Z</time>
        <extensions>
          <gpxtpx:TrackPointExtension xmlns:gpxtpx="http://www.garmin.com/xmlschemas/TrackPointExtension/v1">
            <gpxtpx:hr>120</gpxtpx:hr>
          </gpxtpx:TrackPointExtension>
        </extensions>
      </trkpt>
      <trkpt lat="46.48055" lon="0.29532">
        <ele>98.400001525879</ele>
        <time>2020-06-13T21:49:53.629Z</time>
        <extensions>
          <gpxtpx:TrackPointExtension xmlns:gpxtpx="http://www.garmin.com/xmlschemas/TrackPointExtension/v1">
            <gpxtpx:hr>121</gpxtpx:hr>
          </gpxtpx:TrackPointExtension>
        </extensions>
      </trkpt>
      <trkpt lat="46.48052" lon="0.29541">
        <ele>98.400001525879</ele>
        <time>2020-06-13T21:49:54.954Z</time>
        <extensions>
          <gpxtpx:TrackPointExtension xmlns:gpxtpx="http://www.garmin.com/xmlschemas/TrackPointExtension/v1">
            <gpxtpx:hr>122</gpxtpx:hr>
          </gpxtpx:TrackPointExtension>
        </extensions>
      </trkpt>
      <trkpt lat="46.48049" lon="0.29552">
        <ele>98</ele>
        <time>2020-06-13T21:49:55.749Z</time>
        <extensions>
          <gpxtpx:TrackPointExtension xmlns:gpxtpx="http://www.garmin.com/xmlschemas/TrackPointExtension/v1">
            <gpxtpx:hr>123</gpxtpx:hr>
          </gpxtpx:TrackPointExtension>
        </extensions>
      </trkpt>
      <trkpt lat="46.48046" lon="0.29564">
        <ele>97.800003051758</ele>
        <time>2020-06-13T21:49:56.864Z</time>
        <extensions>
          <gpxtpx:TrackPointExtension xmlns:gpxtpx="http://www.garmin.com/xmlschemas/TrackPointExtension/v1">
            <gpxtpx:hr>123</gpxtpx:hr>
          </gpxtpx:TrackPointExtension>
        </extensions>
      </trkpt>
      <trkpt lat="46.48042" lon="0.29573">
        <ele>97.599998474121</ele>
        <time>2020-06-13T21:49:57.755Z</time>
        <extensions>
          <gpxtpx:TrackPointExtension xmlns:gpxtpx="http://www.garmin.com/xmlschemas/TrackPointExtension/v1">
            <gpxtpx:hr>125</gpxtpx:hr>
          </gpxtpx:TrackPointExtension>
        </extensions>
      </trkpt>
      <trkpt lat="46.48038" lon="0.29582">
        <ele>97.599998474121</ele>
        <time>2020-06-13T21:49:59.174Z</time>
        <extensions>
          <gpxtpx:TrackPointExtension xmlns:gpxtpx="http://www.garmin.com/xmlschemas/TrackPointExtension/v1">
            <gpxtpx:hr>125</gpxtpx:hr>
          </gpxtpx:TrackPointExtension>
        </extensions>
      </trkpt>
      <trkpt lat="46.48034" lon="0.29591">
        <ele>97.599998474121</ele>
        <time>2020-06-13T21:50:00.594Z</time>
        <extensions>
          <gpxtpx:TrackPointExtension xmlns:gpxtpx="http://www.garmin.com/xmlschemas/TrackPointExtension/v1">
            <gpxtpx:hr>127</gpxtpx:hr>
          </gpxtpx:TrackPointExtension>
        </extensions>
      </trkpt>
      <trkpt lat="46.48032" lon="0.29596">
        <ele>97.599998474121</ele>
        <time>2020-06-13T21:50:01.360Z</time>
        <extensions>
          <gpxtpx:TrackPointExtension xmlns:gpxtpx="http://www.garmin.com/xmlschemas/TrackPointExtension/v1">
            <gpxtpx:hr>127</gpxtpx:hr>
          </gpxtpx:TrackPointExtension>
        </extensions>
      </trkpt>
      <trkpt lat="46.48029" lon="0.29603">
        <ele>97.599998474121</ele>
        <time>2020-06-13T21:50:02.453Z</time>
        <extensions>
          <gpxtpx:TrackPointExtension xmlns:gpxtpx="http://www.garmin.com/xmlschemas/TrackPointExtension/v1">
            <gpxtpx:hr>129</gpxtpx:hr>
          </gpxtpx:TrackPointExtension>
        </extensions>
      </trkpt>
      <trkpt lat="46.48027" lon="0.2961">
        <ele>97.599998474121</ele>
        <time>2020-06-13T21:50:03.457Z</time>
        <extensions>
          <gpxtpx:TrackPointExtension xmlns:gpxtpx="http://www.garmin.com/xmlschemas/TrackPointExtension/v1">
            <gpxtpx:hr>129</gpxtpx:hr>
          </gpxtpx:TrackPointExtension>
        </extensions>
      </trkpt>
      <trkpt lat="46.48025" lon="0.29616">
        <ele>97.599998474121</ele>
        <time>2020-06-13T21:50:04.340Z</time>
        <extensions>
          <gpxtpx:TrackPointExtension xmlns:gpxtpx="http://www.garmin.com/xmlschemas/TrackPointExtension/v1">
            <gpxtpx:hr>130</gpxtpx:hr>
          </gpxtpx:TrackPointExtension>
        </extensions>
      </trkpt>
      <trkpt lat="46.48022" lon="0.29623">
        <ele>97.599998474121</ele>
        <time>2020-06-13T21:50:05.433Z</time>
        <extensions>
          <gpxtpx:TrackPointExtension xmlns:gpxtpx="http://www.garmin.com/xmlschemas/TrackPointExtension/v1">
            <gpxtpx:hr>130</gpxtpx:hr>
          </gpxtpx:TrackPointExtension>
        </extensions>
      </trkpt>
      <trkpt lat="46.48021" lon="0.29631">
        <ele>97.599998474121</ele>
        <time>2020-06-13T21:50:06.510Z</time>
        <extensions>
          <gpxtpx:TrackPointExtension xmlns:gpxtpx="http://www.garmin.com/xmlschemas/TrackPointExtension/v1">
            <gpxtpx:hr>132</gpxtpx:hr>
          </gpxtpx:TrackPointExtension>
        </extensions>
      </trkpt>
      <trkpt lat="46.48019" lon="0.29639">
        <ele>97.599998474121</ele>
        <time>2020-06-13T21:50:07.638Z</time>
        <extensions>
          <gpxtpx:TrackPointExtension xmlns:gpxtpx="http://www.garmin.com/xmlschemas/TrackPointExtension/v1">
            <gpxtpx:hr>132</gpxtpx:hr>
          </gpxtpx:TrackPointExtension>
        </extensions>
      </trkpt>
      <trkpt lat="46.48017" lon="0.29649">
        <ele>97.800003051758</ele>
        <time>2020-06-13T21:50:09.491Z</time>
        <extensions>
          <gpxtpx:TrackPointExtension xmlns:gpxtpx="http://www.garmin.com/xmlschemas/TrackPointExtension/v1">
            <gpxtpx:hr>133</gpxtpx:hr>
          </gpxtpx:TrackPointExtension>
        </extensions>
      </trkpt>
      <trkpt lat="46.48014" lon="0.29659">
        <ele>97.800003051758</ele>
        <time>2020-06-13T21:50:10.937Z</time>
        <extensions>
          <gpxtpx:TrackPointExtension xmlns:gpxtpx="http://www.garmin.com/xmlschemas/TrackPointExtension/v1">
            <gpxtpx:hr>133</gpxtpx:hr>
          </gpxtpx:TrackPointExtension>
        </extensions>
      </trkpt>
      <trkpt lat="46.48009" lon="0.29668">
        <ele>97.800003051758</ele>
        <time>2020-06-13T21:50:12.469Z</time>
        <extensions>
          <gpxtpx:TrackPointExtension xmlns:gpxtpx="http://www.garmin.com/xmlschemas/TrackPointExtension/v1">
            <gpxtpx:hr>134</gpxtpx:hr>
          </gpxtpx:TrackPointExtension>
        </extensions>
      </trkpt>
      <trkpt lat="46.48006" lon="0.29677">
        <ele>97.800003051758</ele>
        <time>2020-06-13T21:50:13.794Z</time>
        <extensions>
          <gpxtpx:TrackPointExtension xmlns:gpxtpx="http://www.garmin.com/xmlschemas/TrackPointExtension/v1">
            <gpxtpx:hr>134</gpxtpx:hr>
          </gpxtpx:TrackPointExtension>
        </extensions>
      </trkpt>
      <trkpt lat="46.48003" lon="0.29684">
        <ele>97.800003051758</ele>
        <time>2020-06-13T21:50:14.887Z</time>
        <extensions>
          <gpxtpx:TrackPointExtension xmlns:gpxtpx="http://www.garmin.com/xmlschemas/TrackPointExtension/v1">
            <gpxtpx:hr>133</gpxtpx:hr>
          </gpxtpx:TrackPointExtension>
        </extensions>
      </trkpt>
      <trkpt lat="46.47993" lon="0.29694">
        <ele>97.800003051758</ele>
        <time>2020-06-13T21:50:17.223Z</time>
        <extensions>
          <gpxtpx:TrackPointExtension xmlns:gpxtpx="http://www.garmin.com/xmlschemas/TrackPointExtension/v1">
            <gpxtpx:hr>133</gpxtpx:hr>
          </gpxtpx:TrackPointExtension>
        </extensions>
      </trkpt>
      <trkpt lat="46.47985" lon="0.29695">
        <ele>97.800003051758</ele>
        <time>2020-06-13T21:50:18.769Z</time>
        <extensions>
          <gpxtpx:TrackPointExtension xmlns:gpxtpx="http://www.garmin.com/xmlschemas/TrackPointExtension/v1">
            <gpxtpx:hr>133</gpxtpx:hr>
          </gpxtpx:TrackPointExtension>
        </extensions>
      </trkpt>
      <trkpt lat="46.47979" lon="0.29694">
        <ele>97.599998474121</ele>
        <time>2020-06-13T21:50:19.454Z</time>
        <extensions>
          <gpxtpx:TrackPointExtension xmlns:gpxtpx="http://www.garmin.com/xmlschemas/TrackPointExtension/v1">
            <gpxtpx:hr>133</gpxtpx:hr>
          </gpxtpx:TrackPointExtension>
        </extensions>
      </trkpt>
      <trkpt lat="46.47979" lon="0.29694">
        <ele>97.599998474121</ele>
        <time>2020-06-13T21:50:19.454Z</time>
        <extensions>
          <gpxtpx:TrackPointExtension xmlns:gpxtpx="http://www.garmin.com/xmlschemas/TrackPointExtension/v1">
            <gpxtpx:hr>132</gpxtpx:hr>
          </gpxtpx:TrackPointExtension>
        </extensions>
      </trkpt>
      <trkpt lat="46.47966" lon="0.29692">
        <ele>97.599998474121</ele>
        <time>2020-06-13T21:50:21.969Z</time>
        <extensions>
          <gpxtpx:TrackPointExtension xmlns:gpxtpx="http://www.garmin.com/xmlschemas/TrackPointExtension/v1">
            <gpxtpx:hr>132</gpxtpx:hr>
          </gpxtpx:TrackPointExtension>
        </extensions>
      </trkpt>
      <trkpt lat="46.47966" lon="0.29692">
        <ele>97.400001525879</ele>
        <time>2020-06-13T21:50:21.969Z</time>
        <extensions>
          <gpxtpx:TrackPointExtension xmlns:gpxtpx="http://www.garmin.com/xmlschemas/TrackPointExtension/v1">
            <gpxtpx:hr>131</gpxtpx:hr>
          </gpxtpx:TrackPointExtension>
        </extensions>
      </trkpt>
      <trkpt lat="46.47956" lon="0.29688">
        <ele>97.199996948242</ele>
        <time>2020-06-13T21:50:23.339Z</time>
        <extensions>
          <gpxtpx:TrackPointExtension xmlns:gpxtpx="http://www.garmin.com/xmlschemas/TrackPointExtension/v1">
            <gpxtpx:hr>131</gpxtpx:hr>
          </gpxtpx:TrackPointExtension>
        </extensions>
      </trkpt>
      <trkpt lat="46.47952" lon="0.29685">
        <ele>97.199996948242</ele>
        <time>2020-06-13T21:50:24.205Z</time>
        <extensions>
          <gpxtpx:TrackPointExtension xmlns:gpxtpx="http://www.garmin.com/xmlschemas/TrackPointExtension/v1">
            <gpxtpx:hr>130</gpxtpx:hr>
          </gpxtpx:TrackPointExtension>
        </extensions>
      </trkpt>
      <trkpt lat="46.47947" lon="0.29681">
        <ele>97.199996948242</ele>
        <time>2020-06-13T21:50:25.304Z</time>
        <extensions>
          <gpxtpx:TrackPointExtension xmlns:gpxtpx="http://www.garmin.com/xmlschemas/TrackPointExtension/v1">
            <gpxtpx:hr>130</gpxtpx:hr>
          </gpxtpx:TrackPointExtension>
        </extensions>
      </trkpt>
      <trkpt lat="46.47943" lon="0.29676">
        <ele>97.400001525879</ele>
        <time>2020-06-13T21:50:26.859Z</time>
        <extensions>
          <gpxtpx:TrackPointExtension xmlns:gpxtpx="http://www.garmin.com/xmlschemas/TrackPointExtension/v1">
            <gpxtpx:hr>129</gpxtpx:hr>
          </gpxtpx:TrackPointExtension>
        </extensions>
      </trkpt>
      <trkpt lat="46.47943" lon="0.29676">
        <ele>97.400001525879</ele>
        <time>2020-06-13T21:50:26.859Z</time>
        <extensions>
          <gpxtpx:TrackPointExtension xmlns:gpxtpx="http://www.garmin.com/xmlschemas/TrackPointExtension/v1">
            <gpxtpx:hr>129</gpxtpx:hr>
          </gpxtpx:TrackPointExtension>
        </extensions>
      </trkpt>
      <trkpt lat="46.47938" lon="0.29664">
        <ele>97.199996948242</ele>
        <time>2020-06-13T21:50:28.113Z</time>
        <extensions>
          <gpxtpx:TrackPointExtension xmlns:gpxtpx="http://www.garmin.com/xmlschemas/TrackPointExtension/v1">
            <gpxtpx:hr>130</gpxtpx:hr>
          </gpxtpx:TrackPointExtension>
        </extensions>
      </trkpt>
      <trkpt lat="46.47936" lon="0.29656">
        <ele>97.199996948242</ele>
        <time>2020-06-13T21:50:29.241Z</time>
        <extensions>
          <gpxtpx:TrackPointExtension xmlns:gpxtpx="http://www.garmin.com/xmlschemas/TrackPointExtension/v1">
            <gpxtpx:hr>130</gpxtpx:hr>
          </gpxtpx:TrackPointExtension>
        </extensions>
      </trkpt>
      <trkpt lat="46.47934" lon="0.29648">
        <ele>97.400001525879</ele>
        <time>2020-06-13T21:50:30.882Z</time>
        <extensions>
          <gpxtpx:TrackPointExtension xmlns:gpxtpx="http://www.garmin.com/xmlschemas/TrackPointExtension/v1">
            <gpxtpx:hr>132</gpxtpx:hr>
          </gpxtpx:TrackPointExtension>
        </extensions>
      </trkpt>
      <trkpt lat="46.47931" lon="0.2964">
        <ele>97.400001525879</ele>
        <time>2020-06-13T21:50:32.089Z</time>
        <extensions>
          <gpxtpx:TrackPointExtension xmlns:gpxtpx="http://www.garmin.com/xmlschemas/TrackPointExtension/v1">
            <gpxtpx:hr>133</gpxtpx:hr>
          </gpxtpx:TrackPointExtension>
        </extensions>
      </trkpt>
      <trkpt lat="46.47929" lon="0.29632">
        <ele>97.599998474121</ele>
        <time>2020-06-13T21:50:33.730Z</time>
        <extensions>
          <gpxtpx:TrackPointExtension xmlns:gpxtpx="http://www.garmin.com/xmlschemas/TrackPointExtension/v1">
            <gpxtpx:hr>134</gpxtpx:hr>
          </gpxtpx:TrackPointExtension>
        </extensions>
      </trkpt>
      <trkpt lat="46.47926" lon="0.29624">
        <ele>97.800003051758</ele>
        <time>2020-06-13T21:50:35.435Z</time>
        <extensions>
          <gpxtpx:TrackPointExtension xmlns:gpxtpx="http://www.garmin.com/xmlschemas/TrackPointExtension/v1">
            <gpxtpx:hr>134</gpxtpx:hr>
          </gpxtpx:TrackPointExtension>
        </extensions>
      </trkpt>
      <trkpt lat="46.47925" lon="0.29616">
        <ele>97.800003051758</ele>
        <time>2020-06-13T21:50:36.512Z</time>
        <extensions>
          <gpxtpx:TrackPointExtension xmlns:gpxtpx="http://www.garmin.com/xmlschemas/TrackPointExtension/v1">
            <gpxtpx:hr>137</gpxtpx:hr>
          </gpxtpx:TrackPointExtension>
        </extensions>
      </trkpt>
      <trkpt lat="46.47924" lon="0.29608">
        <ele>98</ele>
        <time>2020-06-13T21:50:38.114Z</time>
        <extensions>
          <gpxtpx:TrackPointExtension xmlns:gpxtpx="http://www.garmin.com/xmlschemas/TrackPointExtension/v1">
            <gpxtpx:hr>137</gpxtpx:hr>
          </gpxtpx:TrackPointExtension>
        </extensions>
      </trkpt>
      <trkpt lat="46.47922" lon="0.29601">
        <ele>98</ele>
        <time>2020-06-13T21:50:39.118Z</time>
        <extensions>
          <gpxtpx:TrackPointExtension xmlns:gpxtpx="http://www.garmin.com/xmlschemas/TrackPointExtension/v1">
            <gpxtpx:hr>140</gpxtpx:hr>
          </gpxtpx:TrackPointExtension>
        </extensions>
      </trkpt>
      <trkpt lat="46.47921" lon="0.29595">
        <ele>98</ele>
        <time>2020-06-13T21:50:39.936Z</time>
        <extensions>
          <gpxtpx:TrackPointExtension xmlns:gpxtpx="http://www.garmin.com/xmlschemas/TrackPointExtension/v1">
            <gpxtpx:hr>140</gpxtpx:hr>
          </gpxtpx:TrackPointExtension>
        </extensions>
      </trkpt>
      <trkpt lat="46.47919" lon="0.29588">
        <ele>98.199996948242</ele>
        <time>2020-06-13T21:50:41.483Z</time>
        <extensions>
          <gpxtpx:TrackPointExtension xmlns:gpxtpx="http://www.garmin.com/xmlschemas/TrackPointExtension/v1">
            <gpxtpx:hr>142</gpxtpx:hr>
          </gpxtpx:TrackPointExtension>
        </extensions>
      </trkpt>
      <trkpt lat="46.47918" lon="0.29577">
        <ele>98.400001525879</ele>
        <time>2020-06-13T21:50:43.417Z</time>
        <extensions>
          <gpxtpx:TrackPointExtension xmlns:gpxtpx="http://www.garmin.com/xmlschemas/TrackPointExtension/v1">
            <gpxtpx:hr>146</gpxtpx:hr>
          </gpxtpx:TrackPointExtension>
        </extensions>
      </trkpt>
      <trkpt lat="46.47915" lon="0.29565">
        <ele>99.199996948242</ele>
        <time>2020-06-13T21:50:47.462Z</time>
        <extensions>
          <gpxtpx:TrackPointExtension xmlns:gpxtpx="http://www.garmin.com/xmlschemas/TrackPointExtension/v1">
            <gpxtpx:hr>146</gpxtpx:hr>
          </gpxtpx:TrackPointExtension>
        </extensions>
      </trkpt>
      <trkpt lat="46.47914" lon="0.29554">
        <ele>99.599998474121</ele>
        <time>2020-06-13T21:50:50.073Z</time>
        <extensions>
          <gpxtpx:TrackPointExtension xmlns:gpxtpx="http://www.garmin.com/xmlschemas/TrackPointExtension/v1">
            <gpxtpx:hr>148</gpxtpx:hr>
          </gpxtpx:TrackPointExtension>
        </extensions>
      </trkpt>
      <trkpt lat="46.47912" lon="0.29544">
        <ele>100.19999694824</ele>
        <time>2020-06-13T21:50:53.169Z</time>
        <extensions>
          <gpxtpx:TrackPointExtension xmlns:gpxtpx="http://www.garmin.com/xmlschemas/TrackPointExtension/v1">
            <gpxtpx:hr>148</gpxtpx:hr>
          </gpxtpx:TrackPointExtension>
        </extensions>
      </trkpt>
      <trkpt lat="46.47911" lon="0.29538">
        <ele>100.40000152588</ele>
        <time>2020-06-13T21:50:54.573Z</time>
        <extensions>
          <gpxtpx:TrackPointExtension xmlns:gpxtpx="http://www.garmin.com/xmlschemas/TrackPointExtension/v1">
            <gpxtpx:hr>151</gpxtpx:hr>
          </gpxtpx:TrackPointExtension>
        </extensions>
      </trkpt>
      <trkpt lat="46.47909" lon="0.2953">
        <ele>100.80000305176</ele>
        <time>2020-06-13T21:50:56.813Z</time>
        <extensions>
          <gpxtpx:TrackPointExtension xmlns:gpxtpx="http://www.garmin.com/xmlschemas/TrackPointExtension/v1">
            <gpxtpx:hr>151</gpxtpx:hr>
          </gpxtpx:TrackPointExtension>
        </extensions>
      </trkpt>
      <trkpt lat="46.47907" lon="0.29519">
        <ele>100.80000305176</ele>
        <time>2020-06-13T21:50:58.320Z</time>
        <extensions>
          <gpxtpx:TrackPointExtension xmlns:gpxtpx="http://www.garmin.com/xmlschemas/TrackPointExtension/v1">
            <gpxtpx:hr>153</gpxtpx:hr>
          </gpxtpx:TrackPointExtension>
        </extensions>
      </trkpt>
      <trkpt lat="46.47905" lon="0.29511">
        <ele>101.19999694824</ele>
        <time>2020-06-13T21:51:00.560Z</time>
        <extensions>
          <gpxtpx:TrackPointExtension xmlns:gpxtpx="http://www.garmin.com/xmlschemas/TrackPointExtension/v1">
            <gpxtpx:hr>153</gpxtpx:hr>
          </gpxtpx:TrackPointExtension>
        </extensions>
      </trkpt>
      <trkpt lat="46.47903" lon="0.29504">
        <ele>101.40000152588</ele>
        <time>2020-06-13T21:51:02.108Z</time>
        <extensions>
          <gpxtpx:TrackPointExtension xmlns:gpxtpx="http://www.garmin.com/xmlschemas/TrackPointExtension/v1">
            <gpxtpx:hr>156</gpxtpx:hr>
          </gpxtpx:TrackPointExtension>
        </extensions>
      </trkpt>
      <trkpt lat="46.47901" lon="0.29496">
        <ele>101.59999847412</ele>
        <time>2020-06-13T21:51:03.748Z</time>
        <extensions>
          <gpxtpx:TrackPointExtension xmlns:gpxtpx="http://www.garmin.com/xmlschemas/TrackPointExtension/v1">
            <gpxtpx:hr>156</gpxtpx:hr>
          </gpxtpx:TrackPointExtension>
        </extensions>
      </trkpt>
      <trkpt lat="46.47898" lon="0.29489">
        <ele>102</ele>
        <time>2020-06-13T21:51:05.954Z</time>
        <extensions>
          <gpxtpx:TrackPointExtension xmlns:gpxtpx="http://www.garmin.com/xmlschemas/TrackPointExtension/v1">
            <gpxtpx:hr>157</gpxtpx:hr>
          </gpxtpx:TrackPointExtension>
        </extensions>
      </trkpt>
      <trkpt lat="46.47896" lon="0.29482">
        <ele>102</ele>
        <time>2020-06-13T21:51:06.959Z</time>
        <extensions>
          <gpxtpx:TrackPointExtension xmlns:gpxtpx="http://www.garmin.com/xmlschemas/TrackPointExtension/v1">
            <gpxtpx:hr>157</gpxtpx:hr>
          </gpxtpx:TrackPointExtension>
        </extensions>
      </trkpt>
      <trkpt lat="46.47894" lon="0.29467">
        <ele>102.19999694824</ele>
        <time>2020-06-13T21:51:09.410Z</time>
        <extensions>
          <gpxtpx:TrackPointExtension xmlns:gpxtpx="http://www.garmin.com/xmlschemas/TrackPointExtension/v1">
            <gpxtpx:hr>157</gpxtpx:hr>
          </gpxtpx:TrackPointExtension>
        </extensions>
      </trkpt>
      <trkpt lat="46.47891" lon="0.29457">
        <ele>102.19999694824</ele>
        <time>2020-06-13T21:51:10.856Z</time>
        <extensions>
          <gpxtpx:TrackPointExtension xmlns:gpxtpx="http://www.garmin.com/xmlschemas/TrackPointExtension/v1">
            <gpxtpx:hr>157</gpxtpx:hr>
          </gpxtpx:TrackPointExtension>
        </extensions>
      </trkpt>
      <trkpt lat="46.47888" lon="0.29448">
        <ele>102.19999694824</ele>
        <time>2020-06-13T21:51:12.181Z</time>
        <extensions>
          <gpxtpx:TrackPointExtension xmlns:gpxtpx="http://www.garmin.com/xmlschemas/TrackPointExtension/v1">
            <gpxtpx:hr>156</gpxtpx:hr>
          </gpxtpx:TrackPointExtension>
        </extensions>
      </trkpt>
      <trkpt lat="46.47887" lon="0.2944">
        <ele>102.19999694824</ele>
        <time>2020-06-13T21:51:13.258Z</time>
        <extensions>
          <gpxtpx:TrackPointExtension xmlns:gpxtpx="http://www.garmin.com/xmlschemas/TrackPointExtension/v1">
            <gpxtpx:hr>156</gpxtpx:hr>
          </gpxtpx:TrackPointExtension>
        </extensions>
      </trkpt>
      <trkpt lat="46.47885" lon="0.29432">
        <ele>102.19999694824</ele>
        <time>2020-06-13T21:51:14.386Z</time>
        <extensions>
          <gpxtpx:TrackPointExtension xmlns:gpxtpx="http://www.garmin.com/xmlschemas/TrackPointExtension/v1">
            <gpxtpx:hr>156</gpxtpx:hr>
          </gpxtpx:TrackPointExtension>
        </extensions>
      </trkpt>
      <trkpt lat="46.47884" lon="0.29423">
        <ele>102</ele>
        <time>2020-06-13T21:51:15.107Z</time>
        <extensions>
          <gpxtpx:TrackPointExtension xmlns:gpxtpx="http://www.garmin.com/xmlschemas/TrackPointExtension/v1">
            <gpxtpx:hr>156</gpxtpx:hr>
          </gpxtpx:TrackPointExtension>
        </extensions>
      </trkpt>
      <trkpt lat="46.47883" lon="0.29411">
        <ele>102</ele>
        <time>2020-06-13T21:51:16.709Z</time>
        <extensions>
          <gpxtpx:TrackPointExtension xmlns:gpxtpx="http://www.garmin.com/xmlschemas/TrackPointExtension/v1">
            <gpxtpx:hr>155</gpxtpx:hr>
          </gpxtpx:TrackPointExtension>
        </extensions>
      </trkpt>
      <trkpt lat="46.47883" lon="0.29401">
        <ele>101.80000305176</ele>
        <time>2020-06-13T21:51:17.524Z</time>
        <extensions>
          <gpxtpx:TrackPointExtension xmlns:gpxtpx="http://www.garmin.com/xmlschemas/TrackPointExtension/v1">
            <gpxtpx:hr>155</gpxtpx:hr>
          </gpxtpx:TrackPointExtension>
        </extensions>
      </trkpt>
      <trkpt lat="46.47881" lon="0.29384">
        <ele>101.59999847412</ele>
        <time>2020-06-13T21:51:19.139Z</time>
        <extensions>
          <gpxtpx:TrackPointExtension xmlns:gpxtpx="http://www.garmin.com/xmlschemas/TrackPointExtension/v1">
            <gpxtpx:hr>152</gpxtpx:hr>
          </gpxtpx:TrackPointExtension>
        </extensions>
      </trkpt>
      <trkpt lat="46.47875" lon="0.29367">
        <ele>101.59999847412</ele>
        <time>2020-06-13T21:51:21.670Z</time>
        <extensions>
          <gpxtpx:TrackPointExtension xmlns:gpxtpx="http://www.garmin.com/xmlschemas/TrackPointExtension/v1">
            <gpxtpx:hr>152</gpxtpx:hr>
          </gpxtpx:TrackPointExtension>
        </extensions>
      </trkpt>
      <trkpt lat="46.47873" lon="0.29357">
        <ele>101.40000152588</ele>
        <time>2020-06-13T21:51:22.530Z</time>
        <extensions>
          <gpxtpx:TrackPointExtension xmlns:gpxtpx="http://www.garmin.com/xmlschemas/TrackPointExtension/v1">
            <gpxtpx:hr>152</gpxtpx:hr>
          </gpxtpx:TrackPointExtension>
        </extensions>
      </trkpt>
      <trkpt lat="46.47873" lon="0.29348">
        <ele>101.59999847412</ele>
        <time>2020-06-13T21:51:24.223Z</time>
        <extensions>
          <gpxtpx:TrackPointExtension xmlns:gpxtpx="http://www.garmin.com/xmlschemas/TrackPointExtension/v1">
            <gpxtpx:hr>151</gpxtpx:hr>
          </gpxtpx:TrackPointExtension>
        </extensions>
      </trkpt>
      <trkpt lat="46.4787" lon="0.29338">
        <ele>102</ele>
        <time>2020-06-13T21:51:26.805Z</time>
        <extensions>
          <gpxtpx:TrackPointExtension xmlns:gpxtpx="http://www.garmin.com/xmlschemas/TrackPointExtension/v1">
            <gpxtpx:hr>151</gpxtpx:hr>
          </gpxtpx:TrackPointExtension>
        </extensions>
      </trkpt>
      <trkpt lat="46.47869" lon="0.29328">
        <ele>102.19999694824</ele>
        <time>2020-06-13T21:51:28.623Z</time>
        <extensions>
          <gpxtpx:TrackPointExtension xmlns:gpxtpx="http://www.garmin.com/xmlschemas/TrackPointExtension/v1">
            <gpxtpx:hr>151</gpxtpx:hr>
          </gpxtpx:TrackPointExtension>
        </extensions>
      </trkpt>
      <trkpt lat="46.47868" lon="0.2932">
        <ele>102.40000152588</ele>
        <time>2020-06-13T21:51:30.224Z</time>
        <extensions>
          <gpxtpx:TrackPointExtension xmlns:gpxtpx="http://www.garmin.com/xmlschemas/TrackPointExtension/v1">
            <gpxtpx:hr>151</gpxtpx:hr>
          </gpxtpx:TrackPointExtension>
        </extensions>
      </trkpt>
      <trkpt lat="46.47866" lon="0.29313">
        <ele>102.59999847412</ele>
        <time>2020-06-13T21:51:31.772Z</time>
        <extensions>
          <gpxtpx:TrackPointExtension xmlns:gpxtpx="http://www.garmin.com/xmlschemas/TrackPointExtension/v1">
            <gpxtpx:hr>152</gpxtpx:hr>
          </gpxtpx:TrackPointExtension>
        </extensions>
      </trkpt>
      <trkpt lat="46.47864" lon="0.29306">
        <ele>102.80000305176</ele>
        <time>2020-06-13T21:51:33.319Z</time>
        <extensions>
          <gpxtpx:TrackPointExtension xmlns:gpxtpx="http://www.garmin.com/xmlschemas/TrackPointExtension/v1">
            <gpxtpx:hr>152</gpxtpx:hr>
          </gpxtpx:TrackPointExtension>
        </extensions>
      </trkpt>
      <trkpt lat="46.47864" lon="0.293">
        <ele>102.59999847412</ele>
        <time>2020-06-13T21:51:33.725Z</time>
        <extensions>
          <gpxtpx:TrackPointExtension xmlns:gpxtpx="http://www.garmin.com/xmlschemas/TrackPointExtension/v1">
            <gpxtpx:hr>153</gpxtpx:hr>
          </gpxtpx:TrackPointExtension>
        </extensions>
      </trkpt>
      <trkpt lat="46.47863" lon="0.29293">
        <ele>102.59999847412</ele>
        <time>2020-06-13T21:51:34.672Z</time>
        <extensions>
          <gpxtpx:TrackPointExtension xmlns:gpxtpx="http://www.garmin.com/xmlschemas/TrackPointExtension/v1">
            <gpxtpx:hr>153</gpxtpx:hr>
          </gpxtpx:TrackPointExtension>
        </extensions>
      </trkpt>
      <trkpt lat="46.4786" lon="0.29286">
        <ele>103</ele>
        <time>2020-06-13T21:51:36.878Z</time>
        <extensions>
          <gpxtpx:TrackPointExtension xmlns:gpxtpx="http://www.garmin.com/xmlschemas/TrackPointExtension/v1">
            <gpxtpx:hr>153</gpxtpx:hr>
          </gpxtpx:TrackPointExtension>
        </extensions>
      </trkpt>
      <trkpt lat="46.47858" lon="0.29278">
        <ele>103.19999694824</ele>
        <time>2020-06-13T21:51:38.519Z</time>
        <extensions>
          <gpxtpx:TrackPointExtension xmlns:gpxtpx="http://www.garmin.com/xmlschemas/TrackPointExtension/v1">
            <gpxtpx:hr>154</gpxtpx:hr>
          </gpxtpx:TrackPointExtension>
        </extensions>
      </trkpt>
      <trkpt lat="46.47854" lon="0.29267">
        <ele>103.40000152588</ele>
        <time>2020-06-13T21:51:40.616Z</time>
        <extensions>
          <gpxtpx:TrackPointExtension xmlns:gpxtpx="http://www.garmin.com/xmlschemas/TrackPointExtension/v1">
            <gpxtpx:hr>154</gpxtpx:hr>
          </gpxtpx:TrackPointExtension>
        </extensions>
      </trkpt>
      <trkpt lat="46.4785" lon="0.29257">
        <ele>103.59999847412</ele>
        <time>2020-06-13T21:51:42.606Z</time>
        <extensions>
          <gpxtpx:TrackPointExtension xmlns:gpxtpx="http://www.garmin.com/xmlschemas/TrackPointExtension/v1">
            <gpxtpx:hr>154</gpxtpx:hr>
          </gpxtpx:TrackPointExtension>
        </extensions>
      </trkpt>
      <trkpt lat="46.47846" lon="0.29246">
        <ele>103.59999847412</ele>
        <time>2020-06-13T21:51:44.255Z</time>
        <extensions>
          <gpxtpx:TrackPointExtension xmlns:gpxtpx="http://www.garmin.com/xmlschemas/TrackPointExtension/v1">
            <gpxtpx:hr>154</gpxtpx:hr>
          </gpxtpx:TrackPointExtension>
        </extensions>
      </trkpt>
      <trkpt lat="46.47841" lon="0.29234">
        <ele>103.80000305176</ele>
        <time>2020-06-13T21:51:46.549Z</time>
        <extensions>
          <gpxtpx:TrackPointExtension xmlns:gpxtpx="http://www.garmin.com/xmlschemas/TrackPointExtension/v1">
            <gpxtpx:hr>154</gpxtpx:hr>
          </gpxtpx:TrackPointExtension>
        </extensions>
      </trkpt>
      <trkpt lat="46.47837" lon="0.29225">
        <ele>103.80000305176</ele>
        <time>2020-06-13T21:51:47.968Z</time>
        <extensions>
          <gpxtpx:TrackPointExtension xmlns:gpxtpx="http://www.garmin.com/xmlschemas/TrackPointExtension/v1">
            <gpxtpx:hr>155</gpxtpx:hr>
          </gpxtpx:TrackPointExtension>
        </extensions>
      </trkpt>
      <trkpt lat="46.47834" lon="0.29219">
        <ele>104</ele>
        <time>2020-06-13T21:51:49.500Z</time>
        <extensions>
          <gpxtpx:TrackPointExtension xmlns:gpxtpx="http://www.garmin.com/xmlschemas/TrackPointExtension/v1">
            <gpxtpx:hr>155</gpxtpx:hr>
          </gpxtpx:TrackPointExtension>
        </extensions>
      </trkpt>
      <trkpt lat="46.47831" lon="0.29213">
        <ele>104</ele>
        <time>2020-06-13T21:51:50.483Z</time>
        <extensions>
          <gpxtpx:TrackPointExtension xmlns:gpxtpx="http://www.garmin.com/xmlschemas/TrackPointExtension/v1">
            <gpxtpx:hr>155</gpxtpx:hr>
          </gpxtpx:TrackPointExtension>
        </extensions>
      </trkpt>
      <trkpt lat="46.47829" lon="0.29208">
        <ele>104</ele>
        <time>2020-06-13T21:51:51.249Z</time>
        <extensions>
          <gpxtpx:TrackPointExtension xmlns:gpxtpx="http://www.garmin.com/xmlschemas/TrackPointExtension/v1">
            <gpxtpx:hr>155</gpxtpx:hr>
          </gpxtpx:TrackPointExtension>
        </extensions>
      </trkpt>
      <trkpt lat="46.47826" lon="0.29201">
        <ele>104</ele>
        <time>2020-06-13T21:51:52.342Z</time>
        <extensions>
          <gpxtpx:TrackPointExtension xmlns:gpxtpx="http://www.garmin.com/xmlschemas/TrackPointExtension/v1">
            <gpxtpx:hr>155</gpxtpx:hr>
          </gpxtpx:TrackPointExtension>
        </extensions>
      </trkpt>
      <trkpt lat="46.47823" lon="0.29195">
        <ele>104</ele>
        <time>2020-06-13T21:51:53.324Z</time>
        <extensions>
          <gpxtpx:TrackPointExtension xmlns:gpxtpx="http://www.garmin.com/xmlschemas/TrackPointExtension/v1">
            <gpxtpx:hr>155</gpxtpx:hr>
          </gpxtpx:TrackPointExtension>
        </extensions>
      </trkpt>
      <trkpt lat="46.47819" lon="0.29189">
        <ele>104</ele>
        <time>2020-06-13T21:51:54.431Z</time>
        <extensions>
          <gpxtpx:TrackPointExtension xmlns:gpxtpx="http://www.garmin.com/xmlschemas/TrackPointExtension/v1">
            <gpxtpx:hr>155</gpxtpx:hr>
          </gpxtpx:TrackPointExtension>
        </extensions>
      </trkpt>
      <trkpt lat="46.47814" lon="0.29182">
        <ele>104</ele>
        <time>2020-06-13T21:51:55.768Z</time>
        <extensions>
          <gpxtpx:TrackPointExtension xmlns:gpxtpx="http://www.garmin.com/xmlschemas/TrackPointExtension/v1">
            <gpxtpx:hr>154</gpxtpx:hr>
          </gpxtpx:TrackPointExtension>
        </extensions>
      </trkpt>
      <trkpt lat="46.47808" lon="0.29176">
        <ele>104</ele>
        <time>2020-06-13T21:51:57.170Z</time>
        <extensions>
          <gpxtpx:TrackPointExtension xmlns:gpxtpx="http://www.garmin.com/xmlschemas/TrackPointExtension/v1">
            <gpxtpx:hr>154</gpxtpx:hr>
          </gpxtpx:TrackPointExtension>
        </extensions>
      </trkpt>
      <trkpt lat="46.47797" lon="0.29164">
        <ele>103.80000305176</ele>
        <time>2020-06-13T21:51:59.094Z</time>
        <extensions>
          <gpxtpx:TrackPointExtension xmlns:gpxtpx="http://www.garmin.com/xmlschemas/TrackPointExtension/v1">
            <gpxtpx:hr>153</gpxtpx:hr>
          </gpxtpx:TrackPointExtension>
        </extensions>
      </trkpt>
      <trkpt lat="46.47794" lon="0.29161">
        <ele>103.59999847412</ele>
        <time>2020-06-13T21:51:59.432Z</time>
        <extensions>
          <gpxtpx:TrackPointExtension xmlns:gpxtpx="http://www.garmin.com/xmlschemas/TrackPointExtension/v1">
            <gpxtpx:hr>152</gpxtpx:hr>
          </gpxtpx:TrackPointExtension>
        </extensions>
      </trkpt>
      <trkpt lat="46.47788" lon="0.29159">
        <ele>103.40000152588</ele>
        <time>2020-06-13T21:52:00.135Z</time>
        <extensions>
          <gpxtpx:TrackPointExtension xmlns:gpxtpx="http://www.garmin.com/xmlschemas/TrackPointExtension/v1">
            <gpxtpx:hr>151</gpxtpx:hr>
          </gpxtpx:TrackPointExtension>
        </extensions>
      </trkpt>
      <trkpt lat="46.47786" lon="0.29158">
        <ele>103.19999694824</ele>
        <time>2020-06-13T21:52:00.331Z</time>
        <extensions>
          <gpxtpx:TrackPointExtension xmlns:gpxtpx="http://www.garmin.com/xmlschemas/TrackPointExtension/v1">
            <gpxtpx:hr>151</gpxtpx:hr>
          </gpxtpx:TrackPointExtension>
        </extensions>
      </trkpt>
      <trkpt lat="46.47784" lon="0.29155">
        <ele>103.19999694824</ele>
        <time>2020-06-13T21:52:00.884Z</time>
        <extensions>
          <gpxtpx:TrackPointExtension xmlns:gpxtpx="http://www.garmin.com/xmlschemas/TrackPointExtension/v1">
            <gpxtpx:hr>149</gpxtpx:hr>
          </gpxtpx:TrackPointExtension>
        </extensions>
      </trkpt>
      <trkpt lat="46.47781" lon="0.29152">
        <ele>103</ele>
        <time>2020-06-13T21:52:01.222Z</time>
        <extensions>
          <gpxtpx:TrackPointExtension xmlns:gpxtpx="http://www.garmin.com/xmlschemas/TrackPointExtension/v1">
            <gpxtpx:hr>149</gpxtpx:hr>
          </gpxtpx:TrackPointExtension>
        </extensions>
      </trkpt>
      <trkpt lat="46.47778" lon="0.2915">
        <ele>102.80000305176</ele>
        <time>2020-06-13T21:52:01.515Z</time>
        <extensions>
          <gpxtpx:TrackPointExtension xmlns:gpxtpx="http://www.garmin.com/xmlschemas/TrackPointExtension/v1">
            <gpxtpx:hr>147</gpxtpx:hr>
          </gpxtpx:TrackPointExtension>
        </extensions>
      </trkpt>
      <trkpt lat="46.47773" lon="0.29148">
        <ele>102.59999847412</ele>
        <time>2020-06-13T21:52:02.073Z</time>
        <extensions>
          <gpxtpx:TrackPointExtension xmlns:gpxtpx="http://www.garmin.com/xmlschemas/TrackPointExtension/v1">
            <gpxtpx:hr>147</gpxtpx:hr>
          </gpxtpx:TrackPointExtension>
        </extensions>
      </trkpt>
      <trkpt lat="46.47769" lon="0.29147">
        <ele>102.59999847412</ele>
        <time>2020-06-13T21:52:02.854Z</time>
        <extensions>
          <gpxtpx:TrackPointExtension xmlns:gpxtpx="http://www.garmin.com/xmlschemas/TrackPointExtension/v1">
            <gpxtpx:hr>145</gpxtpx:hr>
          </gpxtpx:TrackPointExtension>
        </extensions>
      </trkpt>
      <trkpt lat="46.47751" lon="0.29144">
        <ele>102.19999694824</ele>
        <time>2020-06-13T21:52:05.169Z</time>
        <extensions>
          <gpxtpx:TrackPointExtension xmlns:gpxtpx="http://www.garmin.com/xmlschemas/TrackPointExtension/v1">
            <gpxtpx:hr>145</gpxtpx:hr>
          </gpxtpx:TrackPointExtension>
        </extensions>
      </trkpt>
      <trkpt lat="46.47747" lon="0.29142">
        <ele>102.19999694824</ele>
        <time>2020-06-13T21:52:05.983Z</time>
        <extensions>
          <gpxtpx:TrackPointExtension xmlns:gpxtpx="http://www.garmin.com/xmlschemas/TrackPointExtension/v1">
            <gpxtpx:hr>145</gpxtpx:hr>
          </gpxtpx:TrackPointExtension>
        </extensions>
      </trkpt>
      <trkpt lat="46.47745" lon="0.29142">
        <ele>102.19999694824</ele>
        <time>2020-06-13T21:52:06.368Z</time>
        <extensions>
          <gpxtpx:TrackPointExtension xmlns:gpxtpx="http://www.garmin.com/xmlschemas/TrackPointExtension/v1">
            <gpxtpx:hr>145</gpxtpx:hr>
          </gpxtpx:TrackPointExtension>
        </extensions>
      </trkpt>
      <trkpt lat="46.47742" lon="0.29142">
        <ele>102.19999694824</ele>
        <time>2020-06-13T21:52:06.945Z</time>
        <extensions>
          <gpxtpx:TrackPointExtension xmlns:gpxtpx="http://www.garmin.com/xmlschemas/TrackPointExtension/v1">
            <gpxtpx:hr>145</gpxtpx:hr>
          </gpxtpx:TrackPointExtension>
        </extensions>
      </trkpt>
      <trkpt lat="46.4774" lon="0.29142">
        <ele>102.40000152588</ele>
        <time>2020-06-13T21:52:07.946Z</time>
        <extensions>
          <gpxtpx:TrackPointExtension xmlns:gpxtpx="http://www.garmin.com/xmlschemas/TrackPointExtension/v1">
            <gpxtpx:hr>145</gpxtpx:hr>
          </gpxtpx:TrackPointExtension>
        </extensions>
      </trkpt>
      <trkpt lat="46.4774" lon="0.29142">
        <ele>102.59999847412</ele>
        <time>2020-06-13T21:52:07.946Z</time>
        <extensions>
          <gpxtpx:TrackPointExtension xmlns:gpxtpx="http://www.garmin.com/xmlschemas/TrackPointExtension/v1">
            <gpxtpx:hr>146</gpxtpx:hr>
          </gpxtpx:TrackPointExtension>
        </extensions>
      </trkpt>
      <trkpt lat="46.47736" lon="0.2914">
        <ele>102.59999847412</ele>
        <time>2020-06-13T21:52:08.760Z</time>
        <extensions>
          <gpxtpx:TrackPointExtension xmlns:gpxtpx="http://www.garmin.com/xmlschemas/TrackPointExtension/v1">
            <gpxtpx:hr>146</gpxtpx:hr>
          </gpxtpx:TrackPointExtension>
        </extensions>
      </trkpt>
      <trkpt lat="46.47733" lon="0.29138">
        <ele>102.80000305176</ele>
        <time>2020-06-13T21:52:09.954Z</time>
        <extensions>
          <gpxtpx:TrackPointExtension xmlns:gpxtpx="http://www.garmin.com/xmlschemas/TrackPointExtension/v1">
            <gpxtpx:hr>147</gpxtpx:hr>
          </gpxtpx:TrackPointExtension>
        </extensions>
      </trkpt>
      <trkpt lat="46.47731" lon="0.29136">
        <ele>102.80000305176</ele>
        <time>2020-06-13T21:52:10.421Z</time>
        <extensions>
          <gpxtpx:TrackPointExtension xmlns:gpxtpx="http://www.garmin.com/xmlschemas/TrackPointExtension/v1">
            <gpxtpx:hr>147</gpxtpx:hr>
          </gpxtpx:TrackPointExtension>
        </extensions>
      </trkpt>
      <trkpt lat="46.47729" lon="0.29133">
        <ele>103.40000152588</ele>
        <time>2020-06-13T21:52:12.556Z</time>
        <extensions>
          <gpxtpx:TrackPointExtension xmlns:gpxtpx="http://www.garmin.com/xmlschemas/TrackPointExtension/v1">
            <gpxtpx:hr>148</gpxtpx:hr>
          </gpxtpx:TrackPointExtension>
        </extensions>
      </trkpt>
      <trkpt lat="46.47727" lon="0.29128">
        <ele>103.59999847412</ele>
        <time>2020-06-13T21:52:13.897Z</time>
        <extensions>
          <gpxtpx:TrackPointExtension xmlns:gpxtpx="http://www.garmin.com/xmlschemas/TrackPointExtension/v1">
            <gpxtpx:hr>148</gpxtpx:hr>
          </gpxtpx:TrackPointExtension>
        </extensions>
      </trkpt>
      <trkpt lat="46.47725" lon="0.29123">
        <ele>104</ele>
        <time>2020-06-13T21:52:15.899Z</time>
        <extensions>
          <gpxtpx:TrackPointExtension xmlns:gpxtpx="http://www.garmin.com/xmlschemas/TrackPointExtension/v1">
            <gpxtpx:hr>150</gpxtpx:hr>
          </gpxtpx:TrackPointExtension>
        </extensions>
      </trkpt>
      <trkpt lat="46.47724" lon="0.29117">
        <ele>104.59999847412</ele>
        <time>2020-06-13T21:52:19.054Z</time>
        <extensions>
          <gpxtpx:TrackPointExtension xmlns:gpxtpx="http://www.garmin.com/xmlschemas/TrackPointExtension/v1">
            <gpxtpx:hr>150</gpxtpx:hr>
          </gpxtpx:TrackPointExtension>
        </extensions>
      </trkpt>
      <trkpt lat="46.47722" lon="0.29111">
        <ele>104.59999847412</ele>
        <time>2020-06-13T21:52:19.938Z</time>
        <extensions>
          <gpxtpx:TrackPointExtension xmlns:gpxtpx="http://www.garmin.com/xmlschemas/TrackPointExtension/v1">
            <gpxtpx:hr>152</gpxtpx:hr>
          </gpxtpx:TrackPointExtension>
        </extensions>
      </trkpt>
      <trkpt lat="46.47721" lon="0.29105">
        <ele>104.80000305176</ele>
        <time>2020-06-13T21:52:21.341Z</time>
        <extensions>
          <gpxtpx:TrackPointExtension xmlns:gpxtpx="http://www.garmin.com/xmlschemas/TrackPointExtension/v1">
            <gpxtpx:hr>152</gpxtpx:hr>
          </gpxtpx:TrackPointExtension>
        </extensions>
      </trkpt>
      <trkpt lat="46.47719" lon="0.29098">
        <ele>104.80000305176</ele>
        <time>2020-06-13T21:52:22.345Z</time>
        <extensions>
          <gpxtpx:TrackPointExtension xmlns:gpxtpx="http://www.garmin.com/xmlschemas/TrackPointExtension/v1">
            <gpxtpx:hr>153</gpxtpx:hr>
          </gpxtpx:TrackPointExtension>
        </extensions>
      </trkpt>
      <trkpt lat="46.47718" lon="0.29092">
        <ele>104.80000305176</ele>
        <time>2020-06-13T21:52:23.164Z</time>
        <extensions>
          <gpxtpx:TrackPointExtension xmlns:gpxtpx="http://www.garmin.com/xmlschemas/TrackPointExtension/v1">
            <gpxtpx:hr>153</gpxtpx:hr>
          </gpxtpx:TrackPointExtension>
        </extensions>
      </trkpt>
      <trkpt lat="46.47716" lon="0.29085">
        <ele>104.80000305176</ele>
        <time>2020-06-13T21:52:24.168Z</time>
        <extensions>
          <gpxtpx:TrackPointExtension xmlns:gpxtpx="http://www.garmin.com/xmlschemas/TrackPointExtension/v1">
            <gpxtpx:hr>152</gpxtpx:hr>
          </gpxtpx:TrackPointExtension>
        </extensions>
      </trkpt>
      <trkpt lat="46.47715" lon="0.29078">
        <ele>105</ele>
        <time>2020-06-13T21:52:25.677Z</time>
        <extensions>
          <gpxtpx:TrackPointExtension xmlns:gpxtpx="http://www.garmin.com/xmlschemas/TrackPointExtension/v1">
            <gpxtpx:hr>152</gpxtpx:hr>
          </gpxtpx:TrackPointExtension>
        </extensions>
      </trkpt>
      <trkpt lat="46.47714" lon="0.29071">
        <ele>105</ele>
        <time>2020-06-13T21:52:26.624Z</time>
        <extensions>
          <gpxtpx:TrackPointExtension xmlns:gpxtpx="http://www.garmin.com/xmlschemas/TrackPointExtension/v1">
            <gpxtpx:hr>152</gpxtpx:hr>
          </gpxtpx:TrackPointExtension>
        </extensions>
      </trkpt>
      <trkpt lat="46.47714" lon="0.29063">
        <ele>105</ele>
        <time>2020-06-13T21:52:27.684Z</time>
        <extensions>
          <gpxtpx:TrackPointExtension xmlns:gpxtpx="http://www.garmin.com/xmlschemas/TrackPointExtension/v1">
            <gpxtpx:hr>152</gpxtpx:hr>
          </gpxtpx:TrackPointExtension>
        </extensions>
      </trkpt>
      <trkpt lat="46.47714" lon="0.29048">
        <ele>105</ele>
        <time>2020-06-13T21:52:29.672Z</time>
        <extensions>
          <gpxtpx:TrackPointExtension xmlns:gpxtpx="http://www.garmin.com/xmlschemas/TrackPointExtension/v1">
            <gpxtpx:hr>150</gpxtpx:hr>
          </gpxtpx:TrackPointExtension>
        </extensions>
      </trkpt>
      <trkpt lat="46.47716" lon="0.29041">
        <ele>104.59999847412</ele>
        <time>2020-06-13T21:52:30.154Z</time>
        <extensions>
          <gpxtpx:TrackPointExtension xmlns:gpxtpx="http://www.garmin.com/xmlschemas/TrackPointExtension/v1">
            <gpxtpx:hr>150</gpxtpx:hr>
          </gpxtpx:TrackPointExtension>
        </extensions>
      </trkpt>
      <trkpt lat="46.47718" lon="0.29034">
        <ele>104.59999847412</ele>
        <time>2020-06-13T21:52:31.158Z</time>
        <extensions>
          <gpxtpx:TrackPointExtension xmlns:gpxtpx="http://www.garmin.com/xmlschemas/TrackPointExtension/v1">
            <gpxtpx:hr>149</gpxtpx:hr>
          </gpxtpx:TrackPointExtension>
        </extensions>
      </trkpt>
      <trkpt lat="46.47721" lon="0.29027">
        <ele>104.80000305176</ele>
        <time>2020-06-13T21:52:32.772Z</time>
        <extensions>
          <gpxtpx:TrackPointExtension xmlns:gpxtpx="http://www.garmin.com/xmlschemas/TrackPointExtension/v1">
            <gpxtpx:hr>149</gpxtpx:hr>
          </gpxtpx:TrackPointExtension>
        </extensions>
      </trkpt>
      <trkpt lat="46.47724" lon="0.2902">
        <ele>104.59999847412</ele>
        <time>2020-06-13T21:52:33.402Z</time>
        <extensions>
          <gpxtpx:TrackPointExtension xmlns:gpxtpx="http://www.garmin.com/xmlschemas/TrackPointExtension/v1">
            <gpxtpx:hr>149</gpxtpx:hr>
          </gpxtpx:TrackPointExtension>
        </extensions>
      </trkpt>
      <trkpt lat="46.47735" lon="0.29003">
        <ele>104.80000305176</ele>
        <time>2020-06-13T21:52:36.891Z</time>
        <extensions>
          <gpxtpx:TrackPointExtension xmlns:gpxtpx="http://www.garmin.com/xmlschemas/TrackPointExtension/v1">
            <gpxtpx:hr>148</gpxtpx:hr>
          </gpxtpx:TrackPointExtension>
        </extensions>
      </trkpt>
      <trkpt lat="46.47751" lon="0.28983">
        <ele>105.19999694824</ele>
        <time>2020-06-13T21:52:41.807Z</time>
        <extensions>
          <gpxtpx:TrackPointExtension xmlns:gpxtpx="http://www.garmin.com/xmlschemas/TrackPointExtension/v1">
            <gpxtpx:hr>149</gpxtpx:hr>
          </gpxtpx:TrackPointExtension>
        </extensions>
      </trkpt>
      <trkpt lat="46.47756" lon="0.28979">
        <ele>105.19999694824</ele>
        <time>2020-06-13T21:52:42.906Z</time>
        <extensions>
          <gpxtpx:TrackPointExtension xmlns:gpxtpx="http://www.garmin.com/xmlschemas/TrackPointExtension/v1">
            <gpxtpx:hr>151</gpxtpx:hr>
          </gpxtpx:TrackPointExtension>
        </extensions>
      </trkpt>
      <trkpt lat="46.4776" lon="0.28976">
        <ele>105.40000152588</ele>
        <time>2020-06-13T21:52:44.367Z</time>
        <extensions>
          <gpxtpx:TrackPointExtension xmlns:gpxtpx="http://www.garmin.com/xmlschemas/TrackPointExtension/v1">
            <gpxtpx:hr>151</gpxtpx:hr>
          </gpxtpx:TrackPointExtension>
        </extensions>
      </trkpt>
      <trkpt lat="46.47765" lon="0.28972">
        <ele>105.59999847412</ele>
        <time>2020-06-13T21:52:45.984Z</time>
        <extensions>
          <gpxtpx:TrackPointExtension xmlns:gpxtpx="http://www.garmin.com/xmlschemas/TrackPointExtension/v1">
            <gpxtpx:hr>152</gpxtpx:hr>
          </gpxtpx:TrackPointExtension>
        </extensions>
      </trkpt>
      <trkpt lat="46.4777" lon="0.28969">
        <ele>105.80000305176</ele>
        <time>2020-06-13T21:52:47.558Z</time>
        <extensions>
          <gpxtpx:TrackPointExtension xmlns:gpxtpx="http://www.garmin.com/xmlschemas/TrackPointExtension/v1">
            <gpxtpx:hr>152</gpxtpx:hr>
          </gpxtpx:TrackPointExtension>
        </extensions>
      </trkpt>
      <trkpt lat="46.47775" lon="0.28966">
        <ele>106.40000152588</ele>
        <time>2020-06-13T21:52:50.588Z</time>
        <extensions>
          <gpxtpx:TrackPointExtension xmlns:gpxtpx="http://www.garmin.com/xmlschemas/TrackPointExtension/v1">
            <gpxtpx:hr>153</gpxtpx:hr>
          </gpxtpx:TrackPointExtension>
        </extensions>
      </trkpt>
      <trkpt lat="46.47779" lon="0.28962">
        <ele>106.59999847412</ele>
        <time>2020-06-13T21:52:52.088Z</time>
        <extensions>
          <gpxtpx:TrackPointExtension xmlns:gpxtpx="http://www.garmin.com/xmlschemas/TrackPointExtension/v1">
            <gpxtpx:hr>153</gpxtpx:hr>
          </gpxtpx:TrackPointExtension>
        </extensions>
      </trkpt>
      <trkpt lat="46.47783" lon="0.28957">
        <ele>106.80000305176</ele>
        <time>2020-06-13T21:52:53.644Z</time>
        <extensions>
          <gpxtpx:TrackPointExtension xmlns:gpxtpx="http://www.garmin.com/xmlschemas/TrackPointExtension/v1">
            <gpxtpx:hr>155</gpxtpx:hr>
          </gpxtpx:TrackPointExtension>
        </extensions>
      </trkpt>
      <trkpt lat="46.47787" lon="0.28951">
        <ele>107</ele>
        <time>2020-06-13T21:52:55.268Z</time>
        <extensions>
          <gpxtpx:TrackPointExtension xmlns:gpxtpx="http://www.garmin.com/xmlschemas/TrackPointExtension/v1">
            <gpxtpx:hr>155</gpxtpx:hr>
          </gpxtpx:TrackPointExtension>
        </extensions>
      </trkpt>
      <trkpt lat="46.47787" lon="0.28951">
        <ele>107.19999694824</ele>
        <time>2020-06-13T21:52:55.268Z</time>
        <extensions>
          <gpxtpx:TrackPointExtension xmlns:gpxtpx="http://www.garmin.com/xmlschemas/TrackPointExtension/v1">
            <gpxtpx:hr>156</gpxtpx:hr>
          </gpxtpx:TrackPointExtension>
        </extensions>
      </trkpt>
      <trkpt lat="46.47795" lon="0.2894">
        <ele>107.19999694824</ele>
        <time>2020-06-13T21:52:57.388Z</time>
        <extensions>
          <gpxtpx:TrackPointExtension xmlns:gpxtpx="http://www.garmin.com/xmlschemas/TrackPointExtension/v1">
            <gpxtpx:hr>158</gpxtpx:hr>
          </gpxtpx:TrackPointExtension>
        </extensions>
      </trkpt>
      <trkpt lat="46.47799" lon="0.28934">
        <ele>107.59999847412</ele>
        <time>2020-06-13T21:52:59.608Z</time>
        <extensions>
          <gpxtpx:TrackPointExtension xmlns:gpxtpx="http://www.garmin.com/xmlschemas/TrackPointExtension/v1">
            <gpxtpx:hr>158</gpxtpx:hr>
          </gpxtpx:TrackPointExtension>
        </extensions>
      </trkpt>
      <trkpt lat="46.47802" lon="0.28929">
        <ele>107.59999847412</ele>
        <time>2020-06-13T21:53:00.486Z</time>
        <extensions>
          <gpxtpx:TrackPointExtension xmlns:gpxtpx="http://www.garmin.com/xmlschemas/TrackPointExtension/v1">
            <gpxtpx:hr>158</gpxtpx:hr>
          </gpxtpx:TrackPointExtension>
        </extensions>
      </trkpt>
      <trkpt lat="46.47806" lon="0.28923">
        <ele>107.80000305176</ele>
        <time>2020-06-13T21:53:02.110Z</time>
        <extensions>
          <gpxtpx:TrackPointExtension xmlns:gpxtpx="http://www.garmin.com/xmlschemas/TrackPointExtension/v1">
            <gpxtpx:hr>158</gpxtpx:hr>
          </gpxtpx:TrackPointExtension>
        </extensions>
      </trkpt>
      <trkpt lat="46.4781" lon="0.28917">
        <ele>107.80000305176</ele>
        <time>2020-06-13T21:53:03.217Z</time>
        <extensions>
          <gpxtpx:TrackPointExtension xmlns:gpxtpx="http://www.garmin.com/xmlschemas/TrackPointExtension/v1">
            <gpxtpx:hr>159</gpxtpx:hr>
          </gpxtpx:TrackPointExtension>
        </extensions>
      </trkpt>
      <trkpt lat="46.47813" lon="0.28912">
        <ele>108</ele>
        <time>2020-06-13T21:53:04.685Z</time>
        <extensions>
          <gpxtpx:TrackPointExtension xmlns:gpxtpx="http://www.garmin.com/xmlschemas/TrackPointExtension/v1">
            <gpxtpx:hr>159</gpxtpx:hr>
          </gpxtpx:TrackPointExtension>
        </extensions>
      </trkpt>
      <trkpt lat="46.47817" lon="0.28906">
        <ele>108.19999694824</ele>
        <time>2020-06-13T21:53:06.309Z</time>
        <extensions>
          <gpxtpx:TrackPointExtension xmlns:gpxtpx="http://www.garmin.com/xmlschemas/TrackPointExtension/v1">
            <gpxtpx:hr>159</gpxtpx:hr>
          </gpxtpx:TrackPointExtension>
        </extensions>
      </trkpt>
      <trkpt lat="46.47821" lon="0.28901">
        <ele>108.40000152588</ele>
        <time>2020-06-13T21:53:07.864Z</time>
        <extensions>
          <gpxtpx:TrackPointExtension xmlns:gpxtpx="http://www.garmin.com/xmlschemas/TrackPointExtension/v1">
            <gpxtpx:hr>159</gpxtpx:hr>
          </gpxtpx:TrackPointExtension>
        </extensions>
      </trkpt>
      <trkpt lat="46.47831" lon="0.28902">
        <ele>113.1</ele>
        <time>2020-06-13T21:53:15.304Z</time>
      </trkpt>
      <trkpt lat="46.47832" lon="0.28903">
        <ele>111.19999694824</ele>
        <time>2020-06-13T21:53:15.416Z</time>
        <extensions>
          <gpxtpx:TrackPointExtension xmlns:gpxtpx="http://www.garmin.com/xmlschemas/TrackPointExtension/v1">
            <gpxtpx:hr>155</gpxtpx:hr>
          </gpxtpx:TrackPointExtension>
        </extensions>
      </trkpt>
      <trkpt lat="46.47835" lon="0.28904">
        <ele>111</ele>
        <time>2020-06-13T21:53:15.680Z</time>
        <extensions>
          <gpxtpx:TrackPointExtension xmlns:gpxtpx="http://www.garmin.com/xmlschemas/TrackPointExtension/v1">
            <gpxtpx:hr>154</gpxtpx:hr>
          </gpxtpx:TrackPointExtension>
        </extensions>
      </trkpt>
      <trkpt lat="46.47842" lon="0.28906">
        <ele>109.80000305176</ele>
        <time>2020-06-13T21:53:16.339Z</time>
        <extensions>
          <gpxtpx:TrackPointExtension xmlns:gpxtpx="http://www.garmin.com/xmlschemas/TrackPointExtension/v1">
            <gpxtpx:hr>152</gpxtpx:hr>
          </gpxtpx:TrackPointExtension>
        </extensions>
      </trkpt>
      <trkpt lat="46.47851" lon="0.28907">
        <ele>109.59999847412</ele>
        <time>2020-06-13T21:53:17.492Z</time>
        <extensions>
          <gpxtpx:TrackPointExtension xmlns:gpxtpx="http://www.garmin.com/xmlschemas/TrackPointExtension/v1">
            <gpxtpx:hr>150</gpxtpx:hr>
          </gpxtpx:TrackPointExtension>
        </extensions>
      </trkpt>
      <trkpt lat="46.47856" lon="0.28906">
        <ele>109.19999694824</ele>
        <time>2020-06-13T21:53:17.958Z</time>
        <extensions>
          <gpxtpx:TrackPointExtension xmlns:gpxtpx="http://www.garmin.com/xmlschemas/TrackPointExtension/v1">
            <gpxtpx:hr>150</gpxtpx:hr>
          </gpxtpx:TrackPointExtension>
        </extensions>
      </trkpt>
      <trkpt lat="46.47861" lon="0.28905">
        <ele>109.19999694824</ele>
        <time>2020-06-13T21:53:18.929Z</time>
        <extensions>
          <gpxtpx:TrackPointExtension xmlns:gpxtpx="http://www.garmin.com/xmlschemas/TrackPointExtension/v1">
            <gpxtpx:hr>148</gpxtpx:hr>
          </gpxtpx:TrackPointExtension>
        </extensions>
      </trkpt>
      <trkpt lat="46.47861" lon="0.28905">
        <ele>108.59999847412</ele>
        <time>2020-06-13T21:53:18.929Z</time>
        <extensions>
          <gpxtpx:TrackPointExtension xmlns:gpxtpx="http://www.garmin.com/xmlschemas/TrackPointExtension/v1">
            <gpxtpx:hr>148</gpxtpx:hr>
          </gpxtpx:TrackPointExtension>
        </extensions>
      </trkpt>
      <trkpt lat="46.4787" lon="0.28903">
        <ele>108.40000152588</ele>
        <time>2020-06-13T21:53:20.094Z</time>
        <extensions>
          <gpxtpx:TrackPointExtension xmlns:gpxtpx="http://www.garmin.com/xmlschemas/TrackPointExtension/v1">
            <gpxtpx:hr>145</gpxtpx:hr>
          </gpxtpx:TrackPointExtension>
        </extensions>
      </trkpt>
      <trkpt lat="46.4787" lon="0.28903">
        <ele>108.19999694824</ele>
        <time>2020-06-13T21:53:20.094Z</time>
        <extensions>
          <gpxtpx:TrackPointExtension xmlns:gpxtpx="http://www.garmin.com/xmlschemas/TrackPointExtension/v1">
            <gpxtpx:hr>145</gpxtpx:hr>
          </gpxtpx:TrackPointExtension>
        </extensions>
      </trkpt>
      <trkpt lat="46.47882" lon="0.28902">
        <ele>107.80000305176</ele>
        <time>2020-06-13T21:53:21.456Z</time>
        <extensions>
          <gpxtpx:TrackPointExtension xmlns:gpxtpx="http://www.garmin.com/xmlschemas/TrackPointExtension/v1">
            <gpxtpx:hr>144</gpxtpx:hr>
          </gpxtpx:TrackPointExtension>
        </extensions>
      </trkpt>
      <trkpt lat="46.47888" lon="0.28902">
        <ele>107.80000305176</ele>
        <time>2020-06-13T21:53:22.610Z</time>
        <extensions>
          <gpxtpx:TrackPointExtension xmlns:gpxtpx="http://www.garmin.com/xmlschemas/TrackPointExtension/v1">
            <gpxtpx:hr>144</gpxtpx:hr>
          </gpxtpx:TrackPointExtension>
        </extensions>
      </trkpt>
      <trkpt lat="46.47893" lon="0.289">
        <ele>107.59999847412</ele>
        <time>2020-06-13T21:53:23.168Z</time>
        <extensions>
          <gpxtpx:TrackPointExtension xmlns:gpxtpx="http://www.garmin.com/xmlschemas/TrackPointExtension/v1">
            <gpxtpx:hr>141</gpxtpx:hr>
          </gpxtpx:TrackPointExtension>
        </extensions>
      </trkpt>
      <trkpt lat="46.47898" lon="0.28896">
        <ele>107.59999847412</ele>
        <time>2020-06-13T21:53:24.266Z</time>
        <extensions>
          <gpxtpx:TrackPointExtension xmlns:gpxtpx="http://www.garmin.com/xmlschemas/TrackPointExtension/v1">
            <gpxtpx:hr>141</gpxtpx:hr>
          </gpxtpx:TrackPointExtension>
        </extensions>
      </trkpt>
      <trkpt lat="46.47903" lon="0.28892">
        <ele>107.40000152588</ele>
        <time>2020-06-13T21:53:24.902Z</time>
        <extensions>
          <gpxtpx:TrackPointExtension xmlns:gpxtpx="http://www.garmin.com/xmlschemas/TrackPointExtension/v1">
            <gpxtpx:hr>140</gpxtpx:hr>
          </gpxtpx:TrackPointExtension>
        </extensions>
      </trkpt>
      <trkpt lat="46.47919" lon="0.28875">
        <ele>107.40000152588</ele>
        <time>2020-06-13T21:53:28.717Z</time>
        <extensions>
          <gpxtpx:TrackPointExtension xmlns:gpxtpx="http://www.garmin.com/xmlschemas/TrackPointExtension/v1">
            <gpxtpx:hr>140</gpxtpx:hr>
          </gpxtpx:TrackPointExtension>
        </extensions>
      </trkpt>
      <trkpt lat="46.47922" lon="0.28871">
        <ele>107.40000152588</ele>
        <time>2020-06-13T21:53:29.500Z</time>
        <extensions>
          <gpxtpx:TrackPointExtension xmlns:gpxtpx="http://www.garmin.com/xmlschemas/TrackPointExtension/v1">
            <gpxtpx:hr>141</gpxtpx:hr>
          </gpxtpx:TrackPointExtension>
        </extensions>
      </trkpt>
      <trkpt lat="46.47925" lon="0.28867">
        <ele>107.40000152588</ele>
        <time>2020-06-13T21:53:30.284Z</time>
        <extensions>
          <gpxtpx:TrackPointExtension xmlns:gpxtpx="http://www.garmin.com/xmlschemas/TrackPointExtension/v1">
            <gpxtpx:hr>141</gpxtpx:hr>
          </gpxtpx:TrackPointExtension>
        </extensions>
      </trkpt>
      <trkpt lat="46.47929" lon="0.28862">
        <ele>107.40000152588</ele>
        <time>2020-06-13T21:53:31.300Z</time>
        <extensions>
          <gpxtpx:TrackPointExtension xmlns:gpxtpx="http://www.garmin.com/xmlschemas/TrackPointExtension/v1">
            <gpxtpx:hr>144</gpxtpx:hr>
          </gpxtpx:TrackPointExtension>
        </extensions>
      </trkpt>
      <trkpt lat="46.47933" lon="0.28858">
        <ele>107.59999847412</ele>
        <time>2020-06-13T21:53:32.800Z</time>
        <extensions>
          <gpxtpx:TrackPointExtension xmlns:gpxtpx="http://www.garmin.com/xmlschemas/TrackPointExtension/v1">
            <gpxtpx:hr>144</gpxtpx:hr>
          </gpxtpx:TrackPointExtension>
        </extensions>
      </trkpt>
      <trkpt lat="46.47942" lon="0.28849">
        <ele>108</ele>
        <time>2020-06-13T21:53:35.964Z</time>
        <extensions>
          <gpxtpx:TrackPointExtension xmlns:gpxtpx="http://www.garmin.com/xmlschemas/TrackPointExtension/v1">
            <gpxtpx:hr>146</gpxtpx:hr>
          </gpxtpx:TrackPointExtension>
        </extensions>
      </trkpt>
      <trkpt lat="46.47946" lon="0.28847">
        <ele>108.19999694824</ele>
        <time>2020-06-13T21:53:37.363Z</time>
        <extensions>
          <gpxtpx:TrackPointExtension xmlns:gpxtpx="http://www.garmin.com/xmlschemas/TrackPointExtension/v1">
            <gpxtpx:hr>148</gpxtpx:hr>
          </gpxtpx:TrackPointExtension>
        </extensions>
      </trkpt>
      <trkpt lat="46.4795" lon="0.28843">
        <ele>108.19999694824</ele>
        <time>2020-06-13T21:53:38.297Z</time>
        <extensions>
          <gpxtpx:TrackPointExtension xmlns:gpxtpx="http://www.garmin.com/xmlschemas/TrackPointExtension/v1">
            <gpxtpx:hr>148</gpxtpx:hr>
          </gpxtpx:TrackPointExtension>
        </extensions>
      </trkpt>
      <trkpt lat="46.47954" lon="0.2884">
        <ele>108.40000152588</ele>
        <time>2020-06-13T21:53:39.758Z</time>
        <extensions>
          <gpxtpx:TrackPointExtension xmlns:gpxtpx="http://www.garmin.com/xmlschemas/TrackPointExtension/v1">
            <gpxtpx:hr>151</gpxtpx:hr>
          </gpxtpx:TrackPointExtension>
        </extensions>
      </trkpt>
      <trkpt lat="46.47957" lon="0.28838">
        <ele>108.59999847412</ele>
        <time>2020-06-13T21:53:40.952Z</time>
        <extensions>
          <gpxtpx:TrackPointExtension xmlns:gpxtpx="http://www.garmin.com/xmlschemas/TrackPointExtension/v1">
            <gpxtpx:hr>151</gpxtpx:hr>
          </gpxtpx:TrackPointExtension>
        </extensions>
      </trkpt>
      <trkpt lat="46.47957" lon="0.28838">
        <ele>109</ele>
        <time>2020-06-13T21:53:40.952Z</time>
        <extensions>
          <gpxtpx:TrackPointExtension xmlns:gpxtpx="http://www.garmin.com/xmlschemas/TrackPointExtension/v1">
            <gpxtpx:hr>154</gpxtpx:hr>
          </gpxtpx:TrackPointExtension>
        </extensions>
      </trkpt>
      <trkpt lat="46.47966" lon="0.28834">
        <ele>109.19999694824</ele>
        <time>2020-06-13T21:53:43.200Z</time>
        <extensions>
          <gpxtpx:TrackPointExtension xmlns:gpxtpx="http://www.garmin.com/xmlschemas/TrackPointExtension/v1">
            <gpxtpx:hr>154</gpxtpx:hr>
          </gpxtpx:TrackPointExtension>
        </extensions>
      </trkpt>
      <trkpt lat="46.47966" lon="0.28834">
        <ele>110</ele>
        <time>2020-06-13T21:53:43.200Z</time>
        <extensions>
          <gpxtpx:TrackPointExtension xmlns:gpxtpx="http://www.garmin.com/xmlschemas/TrackPointExtension/v1">
            <gpxtpx:hr>157</gpxtpx:hr>
          </gpxtpx:TrackPointExtension>
        </extensions>
      </trkpt>
      <trkpt lat="46.47977" lon="0.28831">
        <ele>110.19999694824</ele>
        <time>2020-06-13T21:53:45.776Z</time>
        <extensions>
          <gpxtpx:TrackPointExtension xmlns:gpxtpx="http://www.garmin.com/xmlschemas/TrackPointExtension/v1">
            <gpxtpx:hr>158</gpxtpx:hr>
          </gpxtpx:TrackPointExtension>
        </extensions>
      </trkpt>
      <trkpt lat="46.47977" lon="0.28831">
        <ele>110.59999847412</ele>
        <time>2020-06-13T21:53:45.776Z</time>
        <extensions>
          <gpxtpx:TrackPointExtension xmlns:gpxtpx="http://www.garmin.com/xmlschemas/TrackPointExtension/v1">
            <gpxtpx:hr>158</gpxtpx:hr>
          </gpxtpx:TrackPointExtension>
        </extensions>
      </trkpt>
      <trkpt lat="46.47984" lon="0.28829">
        <ele>111.59999847412</ele>
        <time>2020-06-13T21:53:51.071Z</time>
        <extensions>
          <gpxtpx:TrackPointExtension xmlns:gpxtpx="http://www.garmin.com/xmlschemas/TrackPointExtension/v1">
            <gpxtpx:hr>159</gpxtpx:hr>
          </gpxtpx:TrackPointExtension>
        </extensions>
      </trkpt>
      <trkpt lat="46.47994" lon="0.28828">
        <ele>112</ele>
        <time>2020-06-13T21:53:54.111Z</time>
        <extensions>
          <gpxtpx:TrackPointExtension xmlns:gpxtpx="http://www.garmin.com/xmlschemas/TrackPointExtension/v1">
            <gpxtpx:hr>160</gpxtpx:hr>
          </gpxtpx:TrackPointExtension>
        </extensions>
      </trkpt>
      <trkpt lat="46.47994" lon="0.28828">
        <ele>112.59999847412</ele>
        <time>2020-06-13T21:53:54.111Z</time>
        <extensions>
          <gpxtpx:TrackPointExtension xmlns:gpxtpx="http://www.garmin.com/xmlschemas/TrackPointExtension/v1">
            <gpxtpx:hr>162</gpxtpx:hr>
          </gpxtpx:TrackPointExtension>
        </extensions>
      </trkpt>
      <trkpt lat="46.48002" lon="0.28826">
        <ele>113</ele>
        <time>2020-06-13T21:53:56.830Z</time>
        <extensions>
          <gpxtpx:TrackPointExtension xmlns:gpxtpx="http://www.garmin.com/xmlschemas/TrackPointExtension/v1">
            <gpxtpx:hr>162</gpxtpx:hr>
          </gpxtpx:TrackPointExtension>
        </extensions>
      </trkpt>
      <trkpt lat="46.48002" lon="0.28826">
        <ele>113.40000152588</ele>
        <time>2020-06-13T21:53:56.830Z</time>
        <extensions>
          <gpxtpx:TrackPointExtension xmlns:gpxtpx="http://www.garmin.com/xmlschemas/TrackPointExtension/v1">
            <gpxtpx:hr>163</gpxtpx:hr>
          </gpxtpx:TrackPointExtension>
        </extensions>
      </trkpt>
      <trkpt lat="46.48008" lon="0.28826">
        <ele>113.80000305176</ele>
        <time>2020-06-13T21:53:59.097Z</time>
        <extensions>
          <gpxtpx:TrackPointExtension xmlns:gpxtpx="http://www.garmin.com/xmlschemas/TrackPointExtension/v1">
            <gpxtpx:hr>163</gpxtpx:hr>
          </gpxtpx:TrackPointExtension>
        </extensions>
      </trkpt>
      <trkpt lat="46.48013" lon="0.28825">
        <ele>115</ele>
        <time>2020-06-13T21:54:02.843Z</time>
        <extensions>
          <gpxtpx:TrackPointExtension xmlns:gpxtpx="http://www.garmin.com/xmlschemas/TrackPointExtension/v1">
            <gpxtpx:hr>165</gpxtpx:hr>
          </gpxtpx:TrackPointExtension>
        </extensions>
      </trkpt>
      <trkpt lat="46.48017" lon="0.28825">
        <ele>115.80000305176</ele>
        <time>2020-06-13T21:54:05.812Z</time>
        <extensions>
          <gpxtpx:TrackPointExtension xmlns:gpxtpx="http://www.garmin.com/xmlschemas/TrackPointExtension/v1">
            <gpxtpx:hr>165</gpxtpx:hr>
          </gpxtpx:TrackPointExtension>
        </extensions>
      </trkpt>
      <trkpt lat="46.48024" lon="0.28827">
        <ele>116</ele>
        <time>2020-06-13T21:54:07.659Z</time>
        <extensions>
          <gpxtpx:TrackPointExtension xmlns:gpxtpx="http://www.garmin.com/xmlschemas/TrackPointExtension/v1">
            <gpxtpx:hr>167</gpxtpx:hr>
          </gpxtpx:TrackPointExtension>
        </extensions>
      </trkpt>
      <trkpt lat="46.48028" lon="0.28827">
        <ele>116.40000152588</ele>
        <time>2020-06-13T21:54:09.661Z</time>
        <extensions>
          <gpxtpx:TrackPointExtension xmlns:gpxtpx="http://www.garmin.com/xmlschemas/TrackPointExtension/v1">
            <gpxtpx:hr>167</gpxtpx:hr>
          </gpxtpx:TrackPointExtension>
        </extensions>
      </trkpt>
      <trkpt lat="46.48028" lon="0.28827">
        <ele>116.59999847412</ele>
        <time>2020-06-13T21:54:09.661Z</time>
        <extensions>
          <gpxtpx:TrackPointExtension xmlns:gpxtpx="http://www.garmin.com/xmlschemas/TrackPointExtension/v1">
            <gpxtpx:hr>168</gpxtpx:hr>
          </gpxtpx:TrackPointExtension>
        </extensions>
      </trkpt>
      <trkpt lat="46.48033" lon="0.28829">
        <ele>116.80000305176</ele>
        <time>2020-06-13T21:54:11.204Z</time>
        <extensions>
          <gpxtpx:TrackPointExtension xmlns:gpxtpx="http://www.garmin.com/xmlschemas/TrackPointExtension/v1">
            <gpxtpx:hr>168</gpxtpx:hr>
          </gpxtpx:TrackPointExtension>
        </extensions>
      </trkpt>
      <trkpt lat="46.48039" lon="0.28833">
        <ele>117</ele>
        <time>2020-06-13T21:54:12.962Z</time>
        <extensions>
          <gpxtpx:TrackPointExtension xmlns:gpxtpx="http://www.garmin.com/xmlschemas/TrackPointExtension/v1">
            <gpxtpx:hr>170</gpxtpx:hr>
          </gpxtpx:TrackPointExtension>
        </extensions>
      </trkpt>
      <trkpt lat="46.48042" lon="0.28835">
        <ele>117.59999847412</ele>
        <time>2020-06-13T21:54:15.413Z</time>
        <extensions>
          <gpxtpx:TrackPointExtension xmlns:gpxtpx="http://www.garmin.com/xmlschemas/TrackPointExtension/v1">
            <gpxtpx:hr>170</gpxtpx:hr>
          </gpxtpx:TrackPointExtension>
        </extensions>
      </trkpt>
      <trkpt lat="46.48046" lon="0.28838">
        <ele>118.19999694824</ele>
        <time>2020-06-13T21:54:18.747Z</time>
        <extensions>
          <gpxtpx:TrackPointExtension xmlns:gpxtpx="http://www.garmin.com/xmlschemas/TrackPointExtension/v1">
            <gpxtpx:hr>171</gpxtpx:hr>
          </gpxtpx:TrackPointExtension>
        </extensions>
      </trkpt>
      <trkpt lat="46.48046" lon="0.28838">
        <ele>118.59999847412</ele>
        <time>2020-06-13T21:54:18.747Z</time>
        <extensions>
          <gpxtpx:TrackPointExtension xmlns:gpxtpx="http://www.garmin.com/xmlschemas/TrackPointExtension/v1">
            <gpxtpx:hr>171</gpxtpx:hr>
          </gpxtpx:TrackPointExtension>
        </extensions>
      </trkpt>
      <trkpt lat="46.48051" lon="0.2884">
        <ele>119.40000152588</ele>
        <time>2020-06-13T21:54:22.596Z</time>
        <extensions>
          <gpxtpx:TrackPointExtension xmlns:gpxtpx="http://www.garmin.com/xmlschemas/TrackPointExtension/v1">
            <gpxtpx:hr>172</gpxtpx:hr>
          </gpxtpx:TrackPointExtension>
        </extensions>
      </trkpt>
      <trkpt lat="46.4806" lon="0.28845">
        <ele>119.80000305176</ele>
        <time>2020-06-13T21:54:25.588Z</time>
        <extensions>
          <gpxtpx:TrackPointExtension xmlns:gpxtpx="http://www.garmin.com/xmlschemas/TrackPointExtension/v1">
            <gpxtpx:hr>172</gpxtpx:hr>
          </gpxtpx:TrackPointExtension>
        </extensions>
      </trkpt>
      <trkpt lat="46.48065" lon="0.28847">
        <ele>120.19999694824</ele>
        <time>2020-06-13T21:54:27.710Z</time>
        <extensions>
          <gpxtpx:TrackPointExtension xmlns:gpxtpx="http://www.garmin.com/xmlschemas/TrackPointExtension/v1">
            <gpxtpx:hr>174</gpxtpx:hr>
          </gpxtpx:TrackPointExtension>
        </extensions>
      </trkpt>
      <trkpt lat="46.48069" lon="0.2885">
        <ele>120.59999847412</ele>
        <time>2020-06-13T21:54:29.743Z</time>
        <extensions>
          <gpxtpx:TrackPointExtension xmlns:gpxtpx="http://www.garmin.com/xmlschemas/TrackPointExtension/v1">
            <gpxtpx:hr>174</gpxtpx:hr>
          </gpxtpx:TrackPointExtension>
        </extensions>
      </trkpt>
      <trkpt lat="46.48069" lon="0.2885">
        <ele>121</ele>
        <time>2020-06-13T21:54:29.743Z</time>
        <extensions>
          <gpxtpx:TrackPointExtension xmlns:gpxtpx="http://www.garmin.com/xmlschemas/TrackPointExtension/v1">
            <gpxtpx:hr>175</gpxtpx:hr>
          </gpxtpx:TrackPointExtension>
        </extensions>
      </trkpt>
      <trkpt lat="46.48076" lon="0.28853">
        <ele>121.40000152588</ele>
        <time>2020-06-13T21:54:32.278Z</time>
        <extensions>
          <gpxtpx:TrackPointExtension xmlns:gpxtpx="http://www.garmin.com/xmlschemas/TrackPointExtension/v1">
            <gpxtpx:hr>175</gpxtpx:hr>
          </gpxtpx:TrackPointExtension>
        </extensions>
      </trkpt>
      <trkpt lat="46.48081" lon="0.28855">
        <ele>121.59999847412</ele>
        <time>2020-06-13T21:54:33.821Z</time>
        <extensions>
          <gpxtpx:TrackPointExtension xmlns:gpxtpx="http://www.garmin.com/xmlschemas/TrackPointExtension/v1">
            <gpxtpx:hr>176</gpxtpx:hr>
          </gpxtpx:TrackPointExtension>
        </extensions>
      </trkpt>
      <trkpt lat="46.48081" lon="0.28855">
        <ele>122</ele>
        <time>2020-06-13T21:54:33.821Z</time>
        <extensions>
          <gpxtpx:TrackPointExtension xmlns:gpxtpx="http://www.garmin.com/xmlschemas/TrackPointExtension/v1">
            <gpxtpx:hr>177</gpxtpx:hr>
          </gpxtpx:TrackPointExtension>
        </extensions>
      </trkpt>
      <trkpt lat="46.48091" lon="0.28858">
        <ele>122.40000152588</ele>
        <time>2020-06-13T21:54:36.886Z</time>
        <extensions>
          <gpxtpx:TrackPointExtension xmlns:gpxtpx="http://www.garmin.com/xmlschemas/TrackPointExtension/v1">
            <gpxtpx:hr>177</gpxtpx:hr>
          </gpxtpx:TrackPointExtension>
        </extensions>
      </trkpt>
      <trkpt lat="46.48095" lon="0.28859">
        <ele>122.80000305176</ele>
        <time>2020-06-13T21:54:38.889Z</time>
        <extensions>
          <gpxtpx:TrackPointExtension xmlns:gpxtpx="http://www.garmin.com/xmlschemas/TrackPointExtension/v1">
            <gpxtpx:hr>178</gpxtpx:hr>
          </gpxtpx:TrackPointExtension>
        </extensions>
      </trkpt>
      <trkpt lat="46.48099" lon="0.28859">
        <ele>123.19999694824</ele>
        <time>2020-06-13T21:54:40.891Z</time>
        <extensions>
          <gpxtpx:TrackPointExtension xmlns:gpxtpx="http://www.garmin.com/xmlschemas/TrackPointExtension/v1">
            <gpxtpx:hr>178</gpxtpx:hr>
          </gpxtpx:TrackPointExtension>
        </extensions>
      </trkpt>
      <trkpt lat="46.48102" lon="0.2886">
        <ele>123.40000152588</ele>
        <time>2020-06-13T21:54:42.039Z</time>
        <extensions>
          <gpxtpx:TrackPointExtension xmlns:gpxtpx="http://www.garmin.com/xmlschemas/TrackPointExtension/v1">
            <gpxtpx:hr>178</gpxtpx:hr>
          </gpxtpx:TrackPointExtension>
        </extensions>
      </trkpt>
      <trkpt lat="46.48102" lon="0.2886">
        <ele>124</ele>
        <time>2020-06-13T21:54:42.039Z</time>
        <extensions>
          <gpxtpx:TrackPointExtension xmlns:gpxtpx="http://www.garmin.com/xmlschemas/TrackPointExtension/v1">
            <gpxtpx:hr>178</gpxtpx:hr>
          </gpxtpx:TrackPointExtension>
        </extensions>
      </trkpt>
      <trkpt lat="46.4811" lon="0.28861">
        <ele>124.19999694824</ele>
        <time>2020-06-13T21:54:44.041Z</time>
        <extensions>
          <gpxtpx:TrackPointExtension xmlns:gpxtpx="http://www.garmin.com/xmlschemas/TrackPointExtension/v1">
            <gpxtpx:hr>179</gpxtpx:hr>
          </gpxtpx:TrackPointExtension>
        </extensions>
      </trkpt>
      <trkpt lat="46.48114" lon="0.28862">
        <ele>124.80000305176</ele>
        <time>2020-06-13T21:54:47.054Z</time>
        <extensions>
          <gpxtpx:TrackPointExtension xmlns:gpxtpx="http://www.garmin.com/xmlschemas/TrackPointExtension/v1">
            <gpxtpx:hr>179</gpxtpx:hr>
          </gpxtpx:TrackPointExtension>
        </extensions>
      </trkpt>
      <trkpt lat="46.48114" lon="0.28862">
        <ele>125</ele>
        <time>2020-06-13T21:54:47.054Z</time>
        <extensions>
          <gpxtpx:TrackPointExtension xmlns:gpxtpx="http://www.garmin.com/xmlschemas/TrackPointExtension/v1">
            <gpxtpx:hr>180</gpxtpx:hr>
          </gpxtpx:TrackPointExtension>
        </extensions>
      </trkpt>
      <trkpt lat="46.48119" lon="0.28862">
        <ele>125.19999694824</ele>
        <time>2020-06-13T21:54:48.572Z</time>
        <extensions>
          <gpxtpx:TrackPointExtension xmlns:gpxtpx="http://www.garmin.com/xmlschemas/TrackPointExtension/v1">
            <gpxtpx:hr>180</gpxtpx:hr>
          </gpxtpx:TrackPointExtension>
        </extensions>
      </trkpt>
      <trkpt lat="46.48126" lon="0.28862">
        <ele>125.40000152588</ele>
        <time>2020-06-13T21:54:50.397Z</time>
        <extensions>
          <gpxtpx:TrackPointExtension xmlns:gpxtpx="http://www.garmin.com/xmlschemas/TrackPointExtension/v1">
            <gpxtpx:hr>180</gpxtpx:hr>
          </gpxtpx:TrackPointExtension>
        </extensions>
      </trkpt>
      <trkpt lat="46.48126" lon="0.28862">
        <ele>125.40000152588</ele>
        <time>2020-06-13T21:54:50.397Z</time>
        <extensions>
          <gpxtpx:TrackPointExtension xmlns:gpxtpx="http://www.garmin.com/xmlschemas/TrackPointExtension/v1">
            <gpxtpx:hr>180</gpxtpx:hr>
          </gpxtpx:TrackPointExtension>
        </extensions>
      </trkpt>
      <trkpt lat="46.48133" lon="0.28861">
        <ele>125.19999694824</ele>
        <time>2020-06-13T21:54:51.235Z</time>
        <extensions>
          <gpxtpx:TrackPointExtension xmlns:gpxtpx="http://www.garmin.com/xmlschemas/TrackPointExtension/v1">
            <gpxtpx:hr>180</gpxtpx:hr>
          </gpxtpx:TrackPointExtension>
        </extensions>
      </trkpt>
      <trkpt lat="46.48138" lon="0.28862">
        <ele>125</ele>
        <time>2020-06-13T21:54:51.772Z</time>
        <extensions>
          <gpxtpx:TrackPointExtension xmlns:gpxtpx="http://www.garmin.com/xmlschemas/TrackPointExtension/v1">
            <gpxtpx:hr>180</gpxtpx:hr>
          </gpxtpx:TrackPointExtension>
        </extensions>
      </trkpt>
      <trkpt lat="46.48142" lon="0.28862">
        <ele>125.19999694824</ele>
        <time>2020-06-13T21:54:53.118Z</time>
        <extensions>
          <gpxtpx:TrackPointExtension xmlns:gpxtpx="http://www.garmin.com/xmlschemas/TrackPointExtension/v1">
            <gpxtpx:hr>180</gpxtpx:hr>
          </gpxtpx:TrackPointExtension>
        </extensions>
      </trkpt>
      <trkpt lat="46.48147" lon="0.28862">
        <ele>125.40000152588</ele>
        <time>2020-06-13T21:54:54.636Z</time>
        <extensions>
          <gpxtpx:TrackPointExtension xmlns:gpxtpx="http://www.garmin.com/xmlschemas/TrackPointExtension/v1">
            <gpxtpx:hr>180</gpxtpx:hr>
          </gpxtpx:TrackPointExtension>
        </extensions>
      </trkpt>
      <trkpt lat="46.48153" lon="0.28863">
        <ele>125.80000305176</ele>
        <time>2020-06-13T21:54:56.910Z</time>
        <extensions>
          <gpxtpx:TrackPointExtension xmlns:gpxtpx="http://www.garmin.com/xmlschemas/TrackPointExtension/v1">
            <gpxtpx:hr>180</gpxtpx:hr>
          </gpxtpx:TrackPointExtension>
        </extensions>
      </trkpt>
      <trkpt lat="46.48159" lon="0.28866">
        <ele>126.19999694824</ele>
        <time>2020-06-13T21:54:59.245Z</time>
        <extensions>
          <gpxtpx:TrackPointExtension xmlns:gpxtpx="http://www.garmin.com/xmlschemas/TrackPointExtension/v1">
            <gpxtpx:hr>180</gpxtpx:hr>
          </gpxtpx:TrackPointExtension>
        </extensions>
      </trkpt>
      <trkpt lat="46.48164" lon="0.28868">
        <ele>126.19999694824</ele>
        <time>2020-06-13T21:55:00.243Z</time>
        <extensions>
          <gpxtpx:TrackPointExtension xmlns:gpxtpx="http://www.garmin.com/xmlschemas/TrackPointExtension/v1">
            <gpxtpx:hr>180</gpxtpx:hr>
          </gpxtpx:TrackPointExtension>
        </extensions>
      </trkpt>
      <trkpt lat="46.48168" lon="0.28869">
        <ele>126.80000305176</ele>
        <time>2020-06-13T21:55:03.256Z</time>
        <extensions>
          <gpxtpx:TrackPointExtension xmlns:gpxtpx="http://www.garmin.com/xmlschemas/TrackPointExtension/v1">
            <gpxtpx:hr>180</gpxtpx:hr>
          </gpxtpx:TrackPointExtension>
        </extensions>
      </trkpt>
      <trkpt lat="46.48179" lon="0.28868">
        <ele>127</ele>
        <time>2020-06-13T21:55:05.800Z</time>
        <extensions>
          <gpxtpx:TrackPointExtension xmlns:gpxtpx="http://www.garmin.com/xmlschemas/TrackPointExtension/v1">
            <gpxtpx:hr>180</gpxtpx:hr>
          </gpxtpx:TrackPointExtension>
        </extensions>
      </trkpt>
      <trkpt lat="46.48179" lon="0.28868">
        <ele>127.19999694824</ele>
        <time>2020-06-13T21:55:05.800Z</time>
        <extensions>
          <gpxtpx:TrackPointExtension xmlns:gpxtpx="http://www.garmin.com/xmlschemas/TrackPointExtension/v1">
            <gpxtpx:hr>180</gpxtpx:hr>
          </gpxtpx:TrackPointExtension>
        </extensions>
      </trkpt>
      <trkpt lat="46.48186" lon="0.28865">
        <ele>127.40000152588</ele>
        <time>2020-06-13T21:55:07.675Z</time>
        <extensions>
          <gpxtpx:TrackPointExtension xmlns:gpxtpx="http://www.garmin.com/xmlschemas/TrackPointExtension/v1">
            <gpxtpx:hr>180</gpxtpx:hr>
          </gpxtpx:TrackPointExtension>
        </extensions>
      </trkpt>
      <trkpt lat="46.4819" lon="0.28861">
        <ele>127.40000152588</ele>
        <time>2020-06-13T21:55:08.609Z</time>
        <extensions>
          <gpxtpx:TrackPointExtension xmlns:gpxtpx="http://www.garmin.com/xmlschemas/TrackPointExtension/v1">
            <gpxtpx:hr>180</gpxtpx:hr>
          </gpxtpx:TrackPointExtension>
        </extensions>
      </trkpt>
      <trkpt lat="46.48193" lon="0.28857">
        <ele>127.40000152588</ele>
        <time>2020-06-13T21:55:09.393Z</time>
        <extensions>
          <gpxtpx:TrackPointExtension xmlns:gpxtpx="http://www.garmin.com/xmlschemas/TrackPointExtension/v1">
            <gpxtpx:hr>180</gpxtpx:hr>
          </gpxtpx:TrackPointExtension>
        </extensions>
      </trkpt>
      <trkpt lat="46.48202" lon="0.28851">
        <ele>127.40000152588</ele>
        <time>2020-06-13T21:55:11.299Z</time>
        <extensions>
          <gpxtpx:TrackPointExtension xmlns:gpxtpx="http://www.garmin.com/xmlschemas/TrackPointExtension/v1">
            <gpxtpx:hr>180</gpxtpx:hr>
          </gpxtpx:TrackPointExtension>
        </extensions>
      </trkpt>
      <trkpt lat="46.48202" lon="0.28851">
        <ele>127.80000305176</ele>
        <time>2020-06-13T21:55:11.299Z</time>
        <extensions>
          <gpxtpx:TrackPointExtension xmlns:gpxtpx="http://www.garmin.com/xmlschemas/TrackPointExtension/v1">
            <gpxtpx:hr>180</gpxtpx:hr>
          </gpxtpx:TrackPointExtension>
        </extensions>
      </trkpt>
      <trkpt lat="46.48212" lon="0.28856">
        <ele>127.80000305176</ele>
        <time>2020-06-13T21:55:13.334Z</time>
        <extensions>
          <gpxtpx:TrackPointExtension xmlns:gpxtpx="http://www.garmin.com/xmlschemas/TrackPointExtension/v1">
            <gpxtpx:hr>180</gpxtpx:hr>
          </gpxtpx:TrackPointExtension>
        </extensions>
      </trkpt>
      <trkpt lat="46.48212" lon="0.28856">
        <ele>128</ele>
        <time>2020-06-13T21:55:13.334Z</time>
        <extensions>
          <gpxtpx:TrackPointExtension xmlns:gpxtpx="http://www.garmin.com/xmlschemas/TrackPointExtension/v1">
            <gpxtpx:hr>180</gpxtpx:hr>
          </gpxtpx:TrackPointExtension>
        </extensions>
      </trkpt>
      <trkpt lat="46.48218" lon="0.2886">
        <ele>128</ele>
        <time>2020-06-13T21:55:14.605Z</time>
        <extensions>
          <gpxtpx:TrackPointExtension xmlns:gpxtpx="http://www.garmin.com/xmlschemas/TrackPointExtension/v1">
            <gpxtpx:hr>180</gpxtpx:hr>
          </gpxtpx:TrackPointExtension>
        </extensions>
      </trkpt>
      <trkpt lat="46.48228" lon="0.28868">
        <ele>127.59999847412</ele>
        <time>2020-06-13T21:55:15.875Z</time>
        <extensions>
          <gpxtpx:TrackPointExtension xmlns:gpxtpx="http://www.garmin.com/xmlschemas/TrackPointExtension/v1">
            <gpxtpx:hr>180</gpxtpx:hr>
          </gpxtpx:TrackPointExtension>
        </extensions>
      </trkpt>
      <trkpt lat="46.48228" lon="0.28868">
        <ele>127.19999694824</ele>
        <time>2020-06-13T21:55:15.875Z</time>
        <extensions>
          <gpxtpx:TrackPointExtension xmlns:gpxtpx="http://www.garmin.com/xmlschemas/TrackPointExtension/v1">
            <gpxtpx:hr>179</gpxtpx:hr>
          </gpxtpx:TrackPointExtension>
        </extensions>
      </trkpt>
      <trkpt lat="46.48247" lon="0.28884">
        <ele>127.19999694824</ele>
        <time>2020-06-13T21:55:20.102Z</time>
        <extensions>
          <gpxtpx:TrackPointExtension xmlns:gpxtpx="http://www.garmin.com/xmlschemas/TrackPointExtension/v1">
            <gpxtpx:hr>178</gpxtpx:hr>
          </gpxtpx:TrackPointExtension>
        </extensions>
      </trkpt>
      <trkpt lat="46.48251" lon="0.28884">
        <ele>127.19999694824</ele>
        <time>2020-06-13T21:55:20.871Z</time>
        <extensions>
          <gpxtpx:TrackPointExtension xmlns:gpxtpx="http://www.garmin.com/xmlschemas/TrackPointExtension/v1">
            <gpxtpx:hr>178</gpxtpx:hr>
          </gpxtpx:TrackPointExtension>
        </extensions>
      </trkpt>
      <trkpt lat="46.4826" lon="0.28875">
        <ele>127</ele>
        <time>2020-06-13T21:55:22.331Z</time>
        <extensions>
          <gpxtpx:TrackPointExtension xmlns:gpxtpx="http://www.garmin.com/xmlschemas/TrackPointExtension/v1">
            <gpxtpx:hr>178</gpxtpx:hr>
          </gpxtpx:TrackPointExtension>
        </extensions>
      </trkpt>
      <trkpt lat="46.4826" lon="0.28875">
        <ele>127</ele>
        <time>2020-06-13T21:55:22.331Z</time>
        <extensions>
          <gpxtpx:TrackPointExtension xmlns:gpxtpx="http://www.garmin.com/xmlschemas/TrackPointExtension/v1">
            <gpxtpx:hr>178</gpxtpx:hr>
          </gpxtpx:TrackPointExtension>
        </extensions>
      </trkpt>
      <trkpt lat="46.48262" lon="0.28868">
        <ele>127</ele>
        <time>2020-06-13T21:55:23.335Z</time>
        <extensions>
          <gpxtpx:TrackPointExtension xmlns:gpxtpx="http://www.garmin.com/xmlschemas/TrackPointExtension/v1">
            <gpxtpx:hr>177</gpxtpx:hr>
          </gpxtpx:TrackPointExtension>
        </extensions>
      </trkpt>
      <trkpt lat="46.48264" lon="0.28863">
        <ele>127</ele>
        <time>2020-06-13T21:55:24.101Z</time>
        <extensions>
          <gpxtpx:TrackPointExtension xmlns:gpxtpx="http://www.garmin.com/xmlschemas/TrackPointExtension/v1">
            <gpxtpx:hr>177</gpxtpx:hr>
          </gpxtpx:TrackPointExtension>
        </extensions>
      </trkpt>
      <trkpt lat="46.4827" lon="0.28849">
        <ele>127</ele>
        <time>2020-06-13T21:55:26.286Z</time>
        <extensions>
          <gpxtpx:TrackPointExtension xmlns:gpxtpx="http://www.garmin.com/xmlschemas/TrackPointExtension/v1">
            <gpxtpx:hr>176</gpxtpx:hr>
          </gpxtpx:TrackPointExtension>
        </extensions>
      </trkpt>
      <trkpt lat="46.48274" lon="0.2884">
        <ele>127.40000152588</ele>
        <time>2020-06-13T21:55:28.839Z</time>
        <extensions>
          <gpxtpx:TrackPointExtension xmlns:gpxtpx="http://www.garmin.com/xmlschemas/TrackPointExtension/v1">
            <gpxtpx:hr>175</gpxtpx:hr>
          </gpxtpx:TrackPointExtension>
        </extensions>
      </trkpt>
      <trkpt lat="46.48279" lon="0.28827">
        <ele>127.80000305176</ele>
        <time>2020-06-13T21:55:31.909Z</time>
        <extensions>
          <gpxtpx:TrackPointExtension xmlns:gpxtpx="http://www.garmin.com/xmlschemas/TrackPointExtension/v1">
            <gpxtpx:hr>175</gpxtpx:hr>
          </gpxtpx:TrackPointExtension>
        </extensions>
      </trkpt>
      <trkpt lat="46.48285" lon="0.28813">
        <ele>127.59999847412</ele>
        <time>2020-06-13T21:55:33.439Z</time>
        <extensions>
          <gpxtpx:TrackPointExtension xmlns:gpxtpx="http://www.garmin.com/xmlschemas/TrackPointExtension/v1">
            <gpxtpx:hr>175</gpxtpx:hr>
          </gpxtpx:TrackPointExtension>
        </extensions>
      </trkpt>
      <trkpt lat="46.48288" lon="0.28803">
        <ele>127.40000152588</ele>
        <time>2020-06-13T21:55:34.351Z</time>
        <extensions>
          <gpxtpx:TrackPointExtension xmlns:gpxtpx="http://www.garmin.com/xmlschemas/TrackPointExtension/v1">
            <gpxtpx:hr>174</gpxtpx:hr>
          </gpxtpx:TrackPointExtension>
        </extensions>
      </trkpt>
      <trkpt lat="46.48291" lon="0.28796">
        <ele>127.19999694824</ele>
        <time>2020-06-13T21:55:34.982Z</time>
        <extensions>
          <gpxtpx:TrackPointExtension xmlns:gpxtpx="http://www.garmin.com/xmlschemas/TrackPointExtension/v1">
            <gpxtpx:hr>174</gpxtpx:hr>
          </gpxtpx:TrackPointExtension>
        </extensions>
      </trkpt>
      <trkpt lat="46.48307" lon="0.28762">
        <ele>127</ele>
        <time>2020-06-13T21:55:39.906Z</time>
        <extensions>
          <gpxtpx:TrackPointExtension xmlns:gpxtpx="http://www.garmin.com/xmlschemas/TrackPointExtension/v1">
            <gpxtpx:hr>172</gpxtpx:hr>
          </gpxtpx:TrackPointExtension>
        </extensions>
      </trkpt>
      <trkpt lat="46.48307" lon="0.28762">
        <ele>126.80000305176</ele>
        <time>2020-06-13T21:55:39.906Z</time>
        <extensions>
          <gpxtpx:TrackPointExtension xmlns:gpxtpx="http://www.garmin.com/xmlschemas/TrackPointExtension/v1">
            <gpxtpx:hr>172</gpxtpx:hr>
          </gpxtpx:TrackPointExtension>
        </extensions>
      </trkpt>
      <trkpt lat="46.48312" lon="0.28759">
        <ele>126.80000305176</ele>
        <time>2020-06-13T21:55:40.947Z</time>
        <extensions>
          <gpxtpx:TrackPointExtension xmlns:gpxtpx="http://www.garmin.com/xmlschemas/TrackPointExtension/v1">
            <gpxtpx:hr>172</gpxtpx:hr>
          </gpxtpx:TrackPointExtension>
        </extensions>
      </trkpt>
      <trkpt lat="46.48323" lon="0.28755">
        <ele>126.59999847412</ele>
        <time>2020-06-13T21:55:42.474Z</time>
        <extensions>
          <gpxtpx:TrackPointExtension xmlns:gpxtpx="http://www.garmin.com/xmlschemas/TrackPointExtension/v1">
            <gpxtpx:hr>171</gpxtpx:hr>
          </gpxtpx:TrackPointExtension>
        </extensions>
      </trkpt>
      <trkpt lat="46.48336" lon="0.28752">
        <ele>126.59999847412</ele>
        <time>2020-06-13T21:55:45.007Z</time>
        <extensions>
          <gpxtpx:TrackPointExtension xmlns:gpxtpx="http://www.garmin.com/xmlschemas/TrackPointExtension/v1">
            <gpxtpx:hr>170</gpxtpx:hr>
          </gpxtpx:TrackPointExtension>
        </extensions>
      </trkpt>
      <trkpt lat="46.48341" lon="0.28751">
        <ele>126.59999847412</ele>
        <time>2020-06-13T21:55:45.978Z</time>
        <extensions>
          <gpxtpx:TrackPointExtension xmlns:gpxtpx="http://www.garmin.com/xmlschemas/TrackPointExtension/v1">
            <gpxtpx:hr>170</gpxtpx:hr>
          </gpxtpx:TrackPointExtension>
        </extensions>
      </trkpt>
      <trkpt lat="46.48347" lon="0.2875">
        <ele>126.59999847412</ele>
        <time>2020-06-13T21:55:47.141Z</time>
        <extensions>
          <gpxtpx:TrackPointExtension xmlns:gpxtpx="http://www.garmin.com/xmlschemas/TrackPointExtension/v1">
            <gpxtpx:hr>170</gpxtpx:hr>
          </gpxtpx:TrackPointExtension>
        </extensions>
      </trkpt>
      <trkpt lat="46.48352" lon="0.28748">
        <ele>126.59999847412</ele>
        <time>2020-06-13T21:55:48.139Z</time>
        <extensions>
          <gpxtpx:TrackPointExtension xmlns:gpxtpx="http://www.garmin.com/xmlschemas/TrackPointExtension/v1">
            <gpxtpx:hr>169</gpxtpx:hr>
          </gpxtpx:TrackPointExtension>
        </extensions>
      </trkpt>
      <trkpt lat="46.48368" lon="0.28745">
        <ele>126.59999847412</ele>
        <time>2020-06-13T21:55:51.243Z</time>
        <extensions>
          <gpxtpx:TrackPointExtension xmlns:gpxtpx="http://www.garmin.com/xmlschemas/TrackPointExtension/v1">
            <gpxtpx:hr>168</gpxtpx:hr>
          </gpxtpx:TrackPointExtension>
        </extensions>
      </trkpt>
      <trkpt lat="46.4838" lon="0.28741">
        <ele>126.40000152588</ele>
        <time>2020-06-13T21:55:52.929Z</time>
        <extensions>
          <gpxtpx:TrackPointExtension xmlns:gpxtpx="http://www.garmin.com/xmlschemas/TrackPointExtension/v1">
            <gpxtpx:hr>168</gpxtpx:hr>
          </gpxtpx:TrackPointExtension>
        </extensions>
      </trkpt>
      <trkpt lat="46.48392" lon="0.28739">
        <ele>126.40000152588</ele>
        <time>2020-06-13T21:55:55.254Z</time>
        <extensions>
          <gpxtpx:TrackPointExtension xmlns:gpxtpx="http://www.garmin.com/xmlschemas/TrackPointExtension/v1">
            <gpxtpx:hr>168</gpxtpx:hr>
          </gpxtpx:TrackPointExtension>
        </extensions>
      </trkpt>
      <trkpt lat="46.48413" lon="0.28735">
        <ele>126.19999694824</ele>
        <time>2020-06-13T21:55:58.418Z</time>
        <extensions>
          <gpxtpx:TrackPointExtension xmlns:gpxtpx="http://www.garmin.com/xmlschemas/TrackPointExtension/v1">
            <gpxtpx:hr>167</gpxtpx:hr>
          </gpxtpx:TrackPointExtension>
        </extensions>
      </trkpt>
      <trkpt lat="46.48424" lon="0.2873">
        <ele>126.19999694824</ele>
        <time>2020-06-13T21:56:00.636Z</time>
        <extensions>
          <gpxtpx:TrackPointExtension xmlns:gpxtpx="http://www.garmin.com/xmlschemas/TrackPointExtension/v1">
            <gpxtpx:hr>167</gpxtpx:hr>
          </gpxtpx:TrackPointExtension>
        </extensions>
      </trkpt>
      <trkpt lat="46.48428" lon="0.28725">
        <ele>125.80000305176</ele>
        <time>2020-06-13T21:56:01.124Z</time>
        <extensions>
          <gpxtpx:TrackPointExtension xmlns:gpxtpx="http://www.garmin.com/xmlschemas/TrackPointExtension/v1">
            <gpxtpx:hr>167</gpxtpx:hr>
          </gpxtpx:TrackPointExtension>
        </extensions>
      </trkpt>
      <trkpt lat="46.48432" lon="0.28718">
        <ele>125.59999847412</ele>
        <time>2020-06-13T21:56:01.843Z</time>
        <extensions>
          <gpxtpx:TrackPointExtension xmlns:gpxtpx="http://www.garmin.com/xmlschemas/TrackPointExtension/v1">
            <gpxtpx:hr>167</gpxtpx:hr>
          </gpxtpx:TrackPointExtension>
        </extensions>
      </trkpt>
      <trkpt lat="46.48435" lon="0.2871">
        <ele>125.19999694824</ele>
        <time>2020-06-13T21:56:02.385Z</time>
        <extensions>
          <gpxtpx:TrackPointExtension xmlns:gpxtpx="http://www.garmin.com/xmlschemas/TrackPointExtension/v1">
            <gpxtpx:hr>167</gpxtpx:hr>
          </gpxtpx:TrackPointExtension>
        </extensions>
      </trkpt>
      <trkpt lat="46.48438" lon="0.28702">
        <ele>125.19999694824</ele>
        <time>2020-06-13T21:56:03.592Z</time>
        <extensions>
          <gpxtpx:TrackPointExtension xmlns:gpxtpx="http://www.garmin.com/xmlschemas/TrackPointExtension/v1">
            <gpxtpx:hr>167</gpxtpx:hr>
          </gpxtpx:TrackPointExtension>
        </extensions>
      </trkpt>
      <trkpt lat="46.48441" lon="0.28695">
        <ele>125.19999694824</ele>
        <time>2020-06-13T21:56:04.685Z</time>
        <extensions>
          <gpxtpx:TrackPointExtension xmlns:gpxtpx="http://www.garmin.com/xmlschemas/TrackPointExtension/v1">
            <gpxtpx:hr>166</gpxtpx:hr>
          </gpxtpx:TrackPointExtension>
        </extensions>
      </trkpt>
      <trkpt lat="46.48441" lon="0.28695">
        <ele>125.40000152588</ele>
        <time>2020-06-13T21:56:04.685Z</time>
        <extensions>
          <gpxtpx:TrackPointExtension xmlns:gpxtpx="http://www.garmin.com/xmlschemas/TrackPointExtension/v1">
            <gpxtpx:hr>166</gpxtpx:hr>
          </gpxtpx:TrackPointExtension>
        </extensions>
      </trkpt>
      <trkpt lat="46.48446" lon="0.28679">
        <ele>125.40000152588</ele>
        <time>2020-06-13T21:56:07.013Z</time>
        <extensions>
          <gpxtpx:TrackPointExtension xmlns:gpxtpx="http://www.garmin.com/xmlschemas/TrackPointExtension/v1">
            <gpxtpx:hr>166</gpxtpx:hr>
          </gpxtpx:TrackPointExtension>
        </extensions>
      </trkpt>
      <trkpt lat="46.48446" lon="0.28679">
        <ele>125.59999847412</ele>
        <time>2020-06-13T21:56:07.013Z</time>
        <extensions>
          <gpxtpx:TrackPointExtension xmlns:gpxtpx="http://www.garmin.com/xmlschemas/TrackPointExtension/v1">
            <gpxtpx:hr>167</gpxtpx:hr>
          </gpxtpx:TrackPointExtension>
        </extensions>
      </trkpt>
      <trkpt lat="46.48448" lon="0.28671">
        <ele>125.59999847412</ele>
        <time>2020-06-13T21:56:08.141Z</time>
        <extensions>
          <gpxtpx:TrackPointExtension xmlns:gpxtpx="http://www.garmin.com/xmlschemas/TrackPointExtension/v1">
            <gpxtpx:hr>167</gpxtpx:hr>
          </gpxtpx:TrackPointExtension>
        </extensions>
      </trkpt>
      <trkpt lat="46.48454" lon="0.28657">
        <ele>125.80000305176</ele>
        <time>2020-06-13T21:56:10.746Z</time>
        <extensions>
          <gpxtpx:TrackPointExtension xmlns:gpxtpx="http://www.garmin.com/xmlschemas/TrackPointExtension/v1">
            <gpxtpx:hr>167</gpxtpx:hr>
          </gpxtpx:TrackPointExtension>
        </extensions>
      </trkpt>
      <trkpt lat="46.48457" lon="0.2865">
        <ele>126</ele>
        <time>2020-06-13T21:56:12.359Z</time>
        <extensions>
          <gpxtpx:TrackPointExtension xmlns:gpxtpx="http://www.garmin.com/xmlschemas/TrackPointExtension/v1">
            <gpxtpx:hr>167</gpxtpx:hr>
          </gpxtpx:TrackPointExtension>
        </extensions>
      </trkpt>
      <trkpt lat="46.4846" lon="0.28643">
        <ele>126</ele>
        <time>2020-06-13T21:56:13.452Z</time>
        <extensions>
          <gpxtpx:TrackPointExtension xmlns:gpxtpx="http://www.garmin.com/xmlschemas/TrackPointExtension/v1">
            <gpxtpx:hr>167</gpxtpx:hr>
          </gpxtpx:TrackPointExtension>
        </extensions>
      </trkpt>
      <trkpt lat="46.4846" lon="0.28643">
        <ele>126.19999694824</ele>
        <time>2020-06-13T21:56:13.452Z</time>
        <extensions>
          <gpxtpx:TrackPointExtension xmlns:gpxtpx="http://www.garmin.com/xmlschemas/TrackPointExtension/v1">
            <gpxtpx:hr>167</gpxtpx:hr>
          </gpxtpx:TrackPointExtension>
        </extensions>
      </trkpt>
      <trkpt lat="46.48463" lon="0.28637">
        <ele>127.19999694824</ele>
        <time>2020-06-13T21:56:17.242Z</time>
        <extensions>
          <gpxtpx:TrackPointExtension xmlns:gpxtpx="http://www.garmin.com/xmlschemas/TrackPointExtension/v1">
            <gpxtpx:hr>168</gpxtpx:hr>
          </gpxtpx:TrackPointExtension>
        </extensions>
      </trkpt>
      <trkpt lat="46.4847" lon="0.28626">
        <ele>128.19999694824</ele>
        <time>2020-06-13T21:56:22.254Z</time>
        <extensions>
          <gpxtpx:TrackPointExtension xmlns:gpxtpx="http://www.garmin.com/xmlschemas/TrackPointExtension/v1">
            <gpxtpx:hr>168</gpxtpx:hr>
          </gpxtpx:TrackPointExtension>
        </extensions>
      </trkpt>
      <trkpt lat="46.4847" lon="0.28626">
        <ele>128.39999389648</ele>
        <time>2020-06-13T21:56:22.254Z</time>
        <extensions>
          <gpxtpx:TrackPointExtension xmlns:gpxtpx="http://www.garmin.com/xmlschemas/TrackPointExtension/v1">
            <gpxtpx:hr>168</gpxtpx:hr>
          </gpxtpx:TrackPointExtension>
        </extensions>
      </trkpt>
      <trkpt lat="46.48478" lon="0.28612">
        <ele>128.80000305176</ele>
        <time>2020-06-13T21:56:25.662Z</time>
        <extensions>
          <gpxtpx:TrackPointExtension xmlns:gpxtpx="http://www.garmin.com/xmlschemas/TrackPointExtension/v1">
            <gpxtpx:hr>168</gpxtpx:hr>
          </gpxtpx:TrackPointExtension>
        </extensions>
      </trkpt>
      <trkpt lat="46.48478" lon="0.28612">
        <ele>128.80000305176</ele>
        <time>2020-06-13T21:56:25.662Z</time>
        <extensions>
          <gpxtpx:TrackPointExtension xmlns:gpxtpx="http://www.garmin.com/xmlschemas/TrackPointExtension/v1">
            <gpxtpx:hr>169</gpxtpx:hr>
          </gpxtpx:TrackPointExtension>
        </extensions>
      </trkpt>
      <trkpt lat="46.48482" lon="0.28605">
        <ele>128.80000305176</ele>
        <time>2020-06-13T21:56:26.867Z</time>
        <extensions>
          <gpxtpx:TrackPointExtension xmlns:gpxtpx="http://www.garmin.com/xmlschemas/TrackPointExtension/v1">
            <gpxtpx:hr>169</gpxtpx:hr>
          </gpxtpx:TrackPointExtension>
        </extensions>
      </trkpt>
      <trkpt lat="46.48486" lon="0.28598">
        <ele>128.80000305176</ele>
        <time>2020-06-13T21:56:28.072Z</time>
        <extensions>
          <gpxtpx:TrackPointExtension xmlns:gpxtpx="http://www.garmin.com/xmlschemas/TrackPointExtension/v1">
            <gpxtpx:hr>170</gpxtpx:hr>
          </gpxtpx:TrackPointExtension>
        </extensions>
      </trkpt>
      <trkpt lat="46.48489" lon="0.28591">
        <ele>129</ele>
        <time>2020-06-13T21:56:29.685Z</time>
        <extensions>
          <gpxtpx:TrackPointExtension xmlns:gpxtpx="http://www.garmin.com/xmlschemas/TrackPointExtension/v1">
            <gpxtpx:hr>170</gpxtpx:hr>
          </gpxtpx:TrackPointExtension>
        </extensions>
      </trkpt>
      <trkpt lat="46.48495" lon="0.28576">
        <ele>129</ele>
        <time>2020-06-13T21:56:31.984Z</time>
        <extensions>
          <gpxtpx:TrackPointExtension xmlns:gpxtpx="http://www.garmin.com/xmlschemas/TrackPointExtension/v1">
            <gpxtpx:hr>171</gpxtpx:hr>
          </gpxtpx:TrackPointExtension>
        </extensions>
      </trkpt>
      <trkpt lat="46.48495" lon="0.28576">
        <ele>129.19999694824</ele>
        <time>2020-06-13T21:56:31.984Z</time>
        <extensions>
          <gpxtpx:TrackPointExtension xmlns:gpxtpx="http://www.garmin.com/xmlschemas/TrackPointExtension/v1">
            <gpxtpx:hr>171</gpxtpx:hr>
          </gpxtpx:TrackPointExtension>
        </extensions>
      </trkpt>
      <trkpt lat="46.48498" lon="0.28568">
        <ele>129.19999694824</ele>
        <time>2020-06-13T21:56:33.191Z</time>
        <extensions>
          <gpxtpx:TrackPointExtension xmlns:gpxtpx="http://www.garmin.com/xmlschemas/TrackPointExtension/v1">
            <gpxtpx:hr>171</gpxtpx:hr>
          </gpxtpx:TrackPointExtension>
        </extensions>
      </trkpt>
      <trkpt lat="46.485" lon="0.28562">
        <ele>128.80000305176</ele>
        <time>2020-06-13T21:56:33.615Z</time>
        <extensions>
          <gpxtpx:TrackPointExtension xmlns:gpxtpx="http://www.garmin.com/xmlschemas/TrackPointExtension/v1">
            <gpxtpx:hr>171</gpxtpx:hr>
          </gpxtpx:TrackPointExtension>
        </extensions>
      </trkpt>
      <trkpt lat="46.48503" lon="0.28554">
        <ele>128.80000305176</ele>
        <time>2020-06-13T21:56:34.822Z</time>
        <extensions>
          <gpxtpx:TrackPointExtension xmlns:gpxtpx="http://www.garmin.com/xmlschemas/TrackPointExtension/v1">
            <gpxtpx:hr>172</gpxtpx:hr>
          </gpxtpx:TrackPointExtension>
        </extensions>
      </trkpt>
      <trkpt lat="46.48507" lon="0.28536">
        <ele>128.60000610352</ele>
        <time>2020-06-13T21:56:36.625Z</time>
        <extensions>
          <gpxtpx:TrackPointExtension xmlns:gpxtpx="http://www.garmin.com/xmlschemas/TrackPointExtension/v1">
            <gpxtpx:hr>172</gpxtpx:hr>
          </gpxtpx:TrackPointExtension>
        </extensions>
      </trkpt>
      <trkpt lat="46.48507" lon="0.28536">
        <ele>129</ele>
        <time>2020-06-13T21:56:36.625Z</time>
        <extensions>
          <gpxtpx:TrackPointExtension xmlns:gpxtpx="http://www.garmin.com/xmlschemas/TrackPointExtension/v1">
            <gpxtpx:hr>172</gpxtpx:hr>
          </gpxtpx:TrackPointExtension>
        </extensions>
      </trkpt>
      <trkpt lat="46.48511" lon="0.28522">
        <ele>129.39999389648</ele>
        <time>2020-06-13T21:56:39.720Z</time>
        <extensions>
          <gpxtpx:TrackPointExtension xmlns:gpxtpx="http://www.garmin.com/xmlschemas/TrackPointExtension/v1">
            <gpxtpx:hr>172</gpxtpx:hr>
          </gpxtpx:TrackPointExtension>
        </extensions>
      </trkpt>
      <trkpt lat="46.48511" lon="0.28522">
        <ele>129.39999389648</ele>
        <time>2020-06-13T21:56:39.720Z</time>
        <extensions>
          <gpxtpx:TrackPointExtension xmlns:gpxtpx="http://www.garmin.com/xmlschemas/TrackPointExtension/v1">
            <gpxtpx:hr>172</gpxtpx:hr>
          </gpxtpx:TrackPointExtension>
        </extensions>
      </trkpt>
      <trkpt lat="46.48518" lon="0.28508">
        <ele>129.39999389648</ele>
        <time>2020-06-13T21:56:42.012Z</time>
        <extensions>
          <gpxtpx:TrackPointExtension xmlns:gpxtpx="http://www.garmin.com/xmlschemas/TrackPointExtension/v1">
            <gpxtpx:hr>172</gpxtpx:hr>
          </gpxtpx:TrackPointExtension>
        </extensions>
      </trkpt>
      <trkpt lat="46.48521" lon="0.28502">
        <ele>129.60000610352</ele>
        <time>2020-06-13T21:56:43.545Z</time>
        <extensions>
          <gpxtpx:TrackPointExtension xmlns:gpxtpx="http://www.garmin.com/xmlschemas/TrackPointExtension/v1">
            <gpxtpx:hr>172</gpxtpx:hr>
          </gpxtpx:TrackPointExtension>
        </extensions>
      </trkpt>
      <trkpt lat="46.48521" lon="0.28502">
        <ele>129.60000610352</ele>
        <time>2020-06-13T21:56:43.545Z</time>
        <extensions>
          <gpxtpx:TrackPointExtension xmlns:gpxtpx="http://www.garmin.com/xmlschemas/TrackPointExtension/v1">
            <gpxtpx:hr>173</gpxtpx:hr>
          </gpxtpx:TrackPointExtension>
        </extensions>
      </trkpt>
      <trkpt lat="46.48527" lon="0.28486">
        <ele>129.60000610352</ele>
        <time>2020-06-13T21:56:45.959Z</time>
        <extensions>
          <gpxtpx:TrackPointExtension xmlns:gpxtpx="http://www.garmin.com/xmlschemas/TrackPointExtension/v1">
            <gpxtpx:hr>173</gpxtpx:hr>
          </gpxtpx:TrackPointExtension>
        </extensions>
      </trkpt>
      <trkpt lat="46.4853" lon="0.28479">
        <ele>129.39999389648</ele>
        <time>2020-06-13T21:56:46.589Z</time>
        <extensions>
          <gpxtpx:TrackPointExtension xmlns:gpxtpx="http://www.garmin.com/xmlschemas/TrackPointExtension/v1">
            <gpxtpx:hr>173</gpxtpx:hr>
          </gpxtpx:TrackPointExtension>
        </extensions>
      </trkpt>
      <trkpt lat="46.48533" lon="0.28471">
        <ele>129.39999389648</ele>
        <time>2020-06-13T21:56:47.796Z</time>
        <extensions>
          <gpxtpx:TrackPointExtension xmlns:gpxtpx="http://www.garmin.com/xmlschemas/TrackPointExtension/v1">
            <gpxtpx:hr>173</gpxtpx:hr>
          </gpxtpx:TrackPointExtension>
        </extensions>
      </trkpt>
      <trkpt lat="46.48535" lon="0.28463">
        <ele>129.39999389648</ele>
        <time>2020-06-13T21:56:48.924Z</time>
        <extensions>
          <gpxtpx:TrackPointExtension xmlns:gpxtpx="http://www.garmin.com/xmlschemas/TrackPointExtension/v1">
            <gpxtpx:hr>173</gpxtpx:hr>
          </gpxtpx:TrackPointExtension>
        </extensions>
      </trkpt>
      <trkpt lat="46.48559" lon="0.2839">
        <ele>128.19999694824</ele>
        <time>2020-06-13T21:56:56.086Z</time>
        <extensions>
          <gpxtpx:TrackPointExtension xmlns:gpxtpx="http://www.garmin.com/xmlschemas/TrackPointExtension/v1">
            <gpxtpx:hr>171</gpxtpx:hr>
          </gpxtpx:TrackPointExtension>
        </extensions>
      </trkpt>
      <trkpt lat="46.48559" lon="0.2839">
        <ele>128</ele>
        <time>2020-06-13T21:56:56.086Z</time>
        <extensions>
          <gpxtpx:TrackPointExtension xmlns:gpxtpx="http://www.garmin.com/xmlschemas/TrackPointExtension/v1">
            <gpxtpx:hr>170</gpxtpx:hr>
          </gpxtpx:TrackPointExtension>
        </extensions>
      </trkpt>
      <trkpt lat="46.48563" lon="0.28375">
        <ele>128.19999694824</ele>
        <time>2020-06-13T21:56:58.640Z</time>
        <extensions>
          <gpxtpx:TrackPointExtension xmlns:gpxtpx="http://www.garmin.com/xmlschemas/TrackPointExtension/v1">
            <gpxtpx:hr>170</gpxtpx:hr>
          </gpxtpx:TrackPointExtension>
        </extensions>
      </trkpt>
      <trkpt lat="46.48563" lon="0.28375">
        <ele>128.19999694824</ele>
        <time>2020-06-13T21:56:58.640Z</time>
        <extensions>
          <gpxtpx:TrackPointExtension xmlns:gpxtpx="http://www.garmin.com/xmlschemas/TrackPointExtension/v1">
            <gpxtpx:hr>169</gpxtpx:hr>
          </gpxtpx:TrackPointExtension>
        </extensions>
      </trkpt>
      <trkpt lat="46.48571" lon="0.28362">
        <ele>128.19999694824</ele>
        <time>2020-06-13T21:57:00.950Z</time>
        <extensions>
          <gpxtpx:TrackPointExtension xmlns:gpxtpx="http://www.garmin.com/xmlschemas/TrackPointExtension/v1">
            <gpxtpx:hr>169</gpxtpx:hr>
          </gpxtpx:TrackPointExtension>
        </extensions>
      </trkpt>
      <trkpt lat="46.48576" lon="0.28357">
        <ele>128.19999694824</ele>
        <time>2020-06-13T21:57:02.118Z</time>
        <extensions>
          <gpxtpx:TrackPointExtension xmlns:gpxtpx="http://www.garmin.com/xmlschemas/TrackPointExtension/v1">
            <gpxtpx:hr>169</gpxtpx:hr>
          </gpxtpx:TrackPointExtension>
        </extensions>
      </trkpt>
      <trkpt lat="46.48581" lon="0.28353">
        <ele>128</ele>
        <time>2020-06-13T21:57:02.753Z</time>
        <extensions>
          <gpxtpx:TrackPointExtension xmlns:gpxtpx="http://www.garmin.com/xmlschemas/TrackPointExtension/v1">
            <gpxtpx:hr>168</gpxtpx:hr>
          </gpxtpx:TrackPointExtension>
        </extensions>
      </trkpt>
      <trkpt lat="46.48586" lon="0.28352">
        <ele>128</ele>
        <time>2020-06-13T21:57:03.725Z</time>
        <extensions>
          <gpxtpx:TrackPointExtension xmlns:gpxtpx="http://www.garmin.com/xmlschemas/TrackPointExtension/v1">
            <gpxtpx:hr>168</gpxtpx:hr>
          </gpxtpx:TrackPointExtension>
        </extensions>
      </trkpt>
      <trkpt lat="46.48591" lon="0.28352">
        <ele>128.19999694824</ele>
        <time>2020-06-13T21:57:05.243Z</time>
        <extensions>
          <gpxtpx:TrackPointExtension xmlns:gpxtpx="http://www.garmin.com/xmlschemas/TrackPointExtension/v1">
            <gpxtpx:hr>166</gpxtpx:hr>
          </gpxtpx:TrackPointExtension>
        </extensions>
      </trkpt>
      <trkpt lat="46.48596" lon="0.28354">
        <ele>128.80000305176</ele>
        <time>2020-06-13T21:57:08.307Z</time>
        <extensions>
          <gpxtpx:TrackPointExtension xmlns:gpxtpx="http://www.garmin.com/xmlschemas/TrackPointExtension/v1">
            <gpxtpx:hr>166</gpxtpx:hr>
          </gpxtpx:TrackPointExtension>
        </extensions>
      </trkpt>
      <trkpt lat="46.48601" lon="0.28356">
        <ele>129</ele>
        <time>2020-06-13T21:57:09.850Z</time>
        <extensions>
          <gpxtpx:TrackPointExtension xmlns:gpxtpx="http://www.garmin.com/xmlschemas/TrackPointExtension/v1">
            <gpxtpx:hr>165</gpxtpx:hr>
          </gpxtpx:TrackPointExtension>
        </extensions>
      </trkpt>
      <trkpt lat="46.48601" lon="0.28356">
        <ele>128.60000610352</ele>
        <time>2020-06-13T21:57:09.850Z</time>
        <extensions>
          <gpxtpx:TrackPointExtension xmlns:gpxtpx="http://www.garmin.com/xmlschemas/TrackPointExtension/v1">
            <gpxtpx:hr>165</gpxtpx:hr>
          </gpxtpx:TrackPointExtension>
        </extensions>
      </trkpt>
      <trkpt lat="46.48613" lon="0.28359">
        <ele>128.39999389648</ele>
        <time>2020-06-13T21:57:11.514Z</time>
        <extensions>
          <gpxtpx:TrackPointExtension xmlns:gpxtpx="http://www.garmin.com/xmlschemas/TrackPointExtension/v1">
            <gpxtpx:hr>164</gpxtpx:hr>
          </gpxtpx:TrackPointExtension>
        </extensions>
      </trkpt>
      <trkpt lat="46.48619" lon="0.2836">
        <ele>128.39999389648</ele>
        <time>2020-06-13T21:57:12.676Z</time>
        <extensions>
          <gpxtpx:TrackPointExtension xmlns:gpxtpx="http://www.garmin.com/xmlschemas/TrackPointExtension/v1">
            <gpxtpx:hr>164</gpxtpx:hr>
          </gpxtpx:TrackPointExtension>
        </extensions>
      </trkpt>
      <trkpt lat="46.48626" lon="0.2836">
        <ele>128.19999694824</ele>
        <time>2020-06-13T21:57:13.509Z</time>
        <extensions>
          <gpxtpx:TrackPointExtension xmlns:gpxtpx="http://www.garmin.com/xmlschemas/TrackPointExtension/v1">
            <gpxtpx:hr>161</gpxtpx:hr>
          </gpxtpx:TrackPointExtension>
        </extensions>
      </trkpt>
      <trkpt lat="46.48632" lon="0.28359">
        <ele>128</ele>
        <time>2020-06-13T21:57:14.194Z</time>
        <extensions>
          <gpxtpx:TrackPointExtension xmlns:gpxtpx="http://www.garmin.com/xmlschemas/TrackPointExtension/v1">
            <gpxtpx:hr>161</gpxtpx:hr>
          </gpxtpx:TrackPointExtension>
        </extensions>
      </trkpt>
      <trkpt lat="46.48639" lon="0.28355">
        <ele>127.40000152588</ele>
        <time>2020-06-13T21:57:14.889Z</time>
        <extensions>
          <gpxtpx:TrackPointExtension xmlns:gpxtpx="http://www.garmin.com/xmlschemas/TrackPointExtension/v1">
            <gpxtpx:hr>158</gpxtpx:hr>
          </gpxtpx:TrackPointExtension>
        </extensions>
      </trkpt>
      <trkpt lat="46.48645" lon="0.28351">
        <ele>126.59999847412</ele>
        <time>2020-06-13T21:57:15.498Z</time>
        <extensions>
          <gpxtpx:TrackPointExtension xmlns:gpxtpx="http://www.garmin.com/xmlschemas/TrackPointExtension/v1">
            <gpxtpx:hr>158</gpxtpx:hr>
          </gpxtpx:TrackPointExtension>
        </extensions>
      </trkpt>
      <trkpt lat="46.48652" lon="0.28347">
        <ele>125.59999847412</ele>
        <time>2020-06-13T21:57:16.193Z</time>
        <extensions>
          <gpxtpx:TrackPointExtension xmlns:gpxtpx="http://www.garmin.com/xmlschemas/TrackPointExtension/v1">
            <gpxtpx:hr>157</gpxtpx:hr>
          </gpxtpx:TrackPointExtension>
        </extensions>
      </trkpt>
      <trkpt lat="46.48666" lon="0.28338">
        <ele>124.19999694824</ele>
        <time>2020-06-13T21:57:17.607Z</time>
        <extensions>
          <gpxtpx:TrackPointExtension xmlns:gpxtpx="http://www.garmin.com/xmlschemas/TrackPointExtension/v1">
            <gpxtpx:hr>155</gpxtpx:hr>
          </gpxtpx:TrackPointExtension>
        </extensions>
      </trkpt>
      <trkpt lat="46.48679" lon="0.28332">
        <ele>122.80000305176</ele>
        <time>2020-06-13T21:57:18.867Z</time>
        <extensions>
          <gpxtpx:TrackPointExtension xmlns:gpxtpx="http://www.garmin.com/xmlschemas/TrackPointExtension/v1">
            <gpxtpx:hr>153</gpxtpx:hr>
          </gpxtpx:TrackPointExtension>
        </extensions>
      </trkpt>
      <trkpt lat="46.48684" lon="0.28329">
        <ele>121.80000305176</ele>
        <time>2020-06-13T21:57:19.366Z</time>
        <extensions>
          <gpxtpx:TrackPointExtension xmlns:gpxtpx="http://www.garmin.com/xmlschemas/TrackPointExtension/v1">
            <gpxtpx:hr>153</gpxtpx:hr>
          </gpxtpx:TrackPointExtension>
        </extensions>
      </trkpt>
      <trkpt lat="46.48689" lon="0.28326">
        <ele>121.19999694824</ele>
        <time>2020-06-13T21:57:19.866Z</time>
        <extensions>
          <gpxtpx:TrackPointExtension xmlns:gpxtpx="http://www.garmin.com/xmlschemas/TrackPointExtension/v1">
            <gpxtpx:hr>150</gpxtpx:hr>
          </gpxtpx:TrackPointExtension>
        </extensions>
      </trkpt>
      <trkpt lat="46.48694" lon="0.28324">
        <ele>120.19999694824</ele>
        <time>2020-06-13T21:57:20.345Z</time>
        <extensions>
          <gpxtpx:TrackPointExtension xmlns:gpxtpx="http://www.garmin.com/xmlschemas/TrackPointExtension/v1">
            <gpxtpx:hr>150</gpxtpx:hr>
          </gpxtpx:TrackPointExtension>
        </extensions>
      </trkpt>
      <trkpt lat="46.48697" lon="0.28322">
        <ele>119.40000152588</ele>
        <time>2020-06-13T21:57:20.650Z</time>
        <extensions>
          <gpxtpx:TrackPointExtension xmlns:gpxtpx="http://www.garmin.com/xmlschemas/TrackPointExtension/v1">
            <gpxtpx:hr>149</gpxtpx:hr>
          </gpxtpx:TrackPointExtension>
        </extensions>
      </trkpt>
      <trkpt lat="46.48701" lon="0.28322">
        <ele>119.19999694824</ele>
        <time>2020-06-13T21:57:21.037Z</time>
        <extensions>
          <gpxtpx:TrackPointExtension xmlns:gpxtpx="http://www.garmin.com/xmlschemas/TrackPointExtension/v1">
            <gpxtpx:hr>149</gpxtpx:hr>
          </gpxtpx:TrackPointExtension>
        </extensions>
      </trkpt>
      <trkpt lat="46.48703" lon="0.28321">
        <ele>118.80000305176</ele>
        <time>2020-06-13T21:57:21.233Z</time>
        <extensions>
          <gpxtpx:TrackPointExtension xmlns:gpxtpx="http://www.garmin.com/xmlschemas/TrackPointExtension/v1">
            <gpxtpx:hr>148</gpxtpx:hr>
          </gpxtpx:TrackPointExtension>
        </extensions>
      </trkpt>
      <trkpt lat="46.48703" lon="0.28321">
        <ele>118.59999847412</ele>
        <time>2020-06-13T21:57:21.233Z</time>
        <extensions>
          <gpxtpx:TrackPointExtension xmlns:gpxtpx="http://www.garmin.com/xmlschemas/TrackPointExtension/v1">
            <gpxtpx:hr>147</gpxtpx:hr>
          </gpxtpx:TrackPointExtension>
        </extensions>
      </trkpt>
      <trkpt lat="46.48703" lon="0.28321">
        <ele>117.80000305176</ele>
        <time>2020-06-13T21:57:21.233Z</time>
        <extensions>
          <gpxtpx:TrackPointExtension xmlns:gpxtpx="http://www.garmin.com/xmlschemas/TrackPointExtension/v1">
            <gpxtpx:hr>147</gpxtpx:hr>
          </gpxtpx:TrackPointExtension>
        </extensions>
      </trkpt>
      <trkpt lat="46.48703" lon="0.28321">
        <ele>117.19999694824</ele>
        <time>2020-06-13T21:57:21.233Z</time>
        <extensions>
          <gpxtpx:TrackPointExtension xmlns:gpxtpx="http://www.garmin.com/xmlschemas/TrackPointExtension/v1">
            <gpxtpx:hr>147</gpxtpx:hr>
          </gpxtpx:TrackPointExtension>
        </extensions>
      </trkpt>
      <trkpt lat="46.48709" lon="0.28323">
        <ele>116.59999847412</ele>
        <time>2020-06-13T21:57:21.801Z</time>
        <extensions>
          <gpxtpx:TrackPointExtension xmlns:gpxtpx="http://www.garmin.com/xmlschemas/TrackPointExtension/v1">
            <gpxtpx:hr>148</gpxtpx:hr>
          </gpxtpx:TrackPointExtension>
        </extensions>
      </trkpt>
      <trkpt lat="46.48709" lon="0.28323">
        <ele>116.40000152588</ele>
        <time>2020-06-13T21:57:21.801Z</time>
        <extensions>
          <gpxtpx:TrackPointExtension xmlns:gpxtpx="http://www.garmin.com/xmlschemas/TrackPointExtension/v1">
            <gpxtpx:hr>146</gpxtpx:hr>
          </gpxtpx:TrackPointExtension>
        </extensions>
      </trkpt>
      <trkpt lat="46.48716" lon="0.28327">
        <ele>116.40000152588</ele>
        <time>2020-06-13T21:57:23.249Z</time>
        <extensions>
          <gpxtpx:TrackPointExtension xmlns:gpxtpx="http://www.garmin.com/xmlschemas/TrackPointExtension/v1">
            <gpxtpx:hr>146</gpxtpx:hr>
          </gpxtpx:TrackPointExtension>
        </extensions>
      </trkpt>
      <trkpt lat="46.4872" lon="0.2833">
        <ele>116.40000152588</ele>
        <time>2020-06-13T21:57:24.115Z</time>
        <extensions>
          <gpxtpx:TrackPointExtension xmlns:gpxtpx="http://www.garmin.com/xmlschemas/TrackPointExtension/v1">
            <gpxtpx:hr>140</gpxtpx:hr>
          </gpxtpx:TrackPointExtension>
        </extensions>
      </trkpt>
      <trkpt lat="46.48725" lon="0.28334">
        <ele>116.40000152588</ele>
        <time>2020-06-13T21:57:25.213Z</time>
        <extensions>
          <gpxtpx:TrackPointExtension xmlns:gpxtpx="http://www.garmin.com/xmlschemas/TrackPointExtension/v1">
            <gpxtpx:hr>140</gpxtpx:hr>
          </gpxtpx:TrackPointExtension>
        </extensions>
      </trkpt>
      <trkpt lat="46.4873" lon="0.28338">
        <ele>116.40000152588</ele>
        <time>2020-06-13T21:57:26.312Z</time>
        <extensions>
          <gpxtpx:TrackPointExtension xmlns:gpxtpx="http://www.garmin.com/xmlschemas/TrackPointExtension/v1">
            <gpxtpx:hr>134</gpxtpx:hr>
          </gpxtpx:TrackPointExtension>
        </extensions>
      </trkpt>
      <trkpt lat="46.48735" lon="0.28342">
        <ele>116.19999694824</ele>
        <time>2020-06-13T21:57:26.947Z</time>
        <extensions>
          <gpxtpx:TrackPointExtension xmlns:gpxtpx="http://www.garmin.com/xmlschemas/TrackPointExtension/v1">
            <gpxtpx:hr>134</gpxtpx:hr>
          </gpxtpx:TrackPointExtension>
        </extensions>
      </trkpt>
      <trkpt lat="46.48749" lon="0.28355">
        <ele>115.40000152588</ele>
        <time>2020-06-13T21:57:28.583Z</time>
        <extensions>
          <gpxtpx:TrackPointExtension xmlns:gpxtpx="http://www.garmin.com/xmlschemas/TrackPointExtension/v1">
            <gpxtpx:hr>131</gpxtpx:hr>
          </gpxtpx:TrackPointExtension>
        </extensions>
      </trkpt>
      <trkpt lat="46.48749" lon="0.28355">
        <ele>115.19999694824</ele>
        <time>2020-06-13T21:57:28.583Z</time>
        <extensions>
          <gpxtpx:TrackPointExtension xmlns:gpxtpx="http://www.garmin.com/xmlschemas/TrackPointExtension/v1">
            <gpxtpx:hr>131</gpxtpx:hr>
          </gpxtpx:TrackPointExtension>
        </extensions>
      </trkpt>
      <trkpt lat="46.48755" lon="0.28359">
        <ele>114.40000152588</ele>
        <time>2020-06-13T21:57:29.192Z</time>
        <extensions>
          <gpxtpx:TrackPointExtension xmlns:gpxtpx="http://www.garmin.com/xmlschemas/TrackPointExtension/v1">
            <gpxtpx:hr>128</gpxtpx:hr>
          </gpxtpx:TrackPointExtension>
        </extensions>
      </trkpt>
      <trkpt lat="46.48759" lon="0.28361">
        <ele>114</ele>
        <time>2020-06-13T21:57:29.583Z</time>
        <extensions>
          <gpxtpx:TrackPointExtension xmlns:gpxtpx="http://www.garmin.com/xmlschemas/TrackPointExtension/v1">
            <gpxtpx:hr>128</gpxtpx:hr>
          </gpxtpx:TrackPointExtension>
        </extensions>
      </trkpt>
      <trkpt lat="46.48763" lon="0.28361">
        <ele>113</ele>
        <time>2020-06-13T21:57:29.952Z</time>
        <extensions>
          <gpxtpx:TrackPointExtension xmlns:gpxtpx="http://www.garmin.com/xmlschemas/TrackPointExtension/v1">
            <gpxtpx:hr>128</gpxtpx:hr>
          </gpxtpx:TrackPointExtension>
        </extensions>
      </trkpt>
      <trkpt lat="46.48767" lon="0.28359">
        <ele>112.80000305176</ele>
        <time>2020-06-13T21:57:30.372Z</time>
        <extensions>
          <gpxtpx:TrackPointExtension xmlns:gpxtpx="http://www.garmin.com/xmlschemas/TrackPointExtension/v1">
            <gpxtpx:hr>130</gpxtpx:hr>
          </gpxtpx:TrackPointExtension>
        </extensions>
      </trkpt>
      <trkpt lat="46.48771" lon="0.28357">
        <ele>112.40000152588</ele>
        <time>2020-06-13T21:57:30.763Z</time>
        <extensions>
          <gpxtpx:TrackPointExtension xmlns:gpxtpx="http://www.garmin.com/xmlschemas/TrackPointExtension/v1">
            <gpxtpx:hr>130</gpxtpx:hr>
          </gpxtpx:TrackPointExtension>
        </extensions>
      </trkpt>
      <trkpt lat="46.48776" lon="0.28355">
        <ele>112</ele>
        <time>2020-06-13T21:57:31.242Z</time>
        <extensions>
          <gpxtpx:TrackPointExtension xmlns:gpxtpx="http://www.garmin.com/xmlschemas/TrackPointExtension/v1">
            <gpxtpx:hr>131</gpxtpx:hr>
          </gpxtpx:TrackPointExtension>
        </extensions>
      </trkpt>
      <trkpt lat="46.48795" lon="0.28342">
        <ele>111.19999694824</ele>
        <time>2020-06-13T21:57:33.510Z</time>
        <extensions>
          <gpxtpx:TrackPointExtension xmlns:gpxtpx="http://www.garmin.com/xmlschemas/TrackPointExtension/v1">
            <gpxtpx:hr>134</gpxtpx:hr>
          </gpxtpx:TrackPointExtension>
        </extensions>
      </trkpt>
      <trkpt lat="46.488" lon="0.28338">
        <ele>111.19999694824</ele>
        <time>2020-06-13T21:57:34.608Z</time>
        <extensions>
          <gpxtpx:TrackPointExtension xmlns:gpxtpx="http://www.garmin.com/xmlschemas/TrackPointExtension/v1">
            <gpxtpx:hr>134</gpxtpx:hr>
          </gpxtpx:TrackPointExtension>
        </extensions>
      </trkpt>
      <trkpt lat="46.48805" lon="0.28335">
        <ele>111.19999694824</ele>
        <time>2020-06-13T21:57:35.649Z</time>
        <extensions>
          <gpxtpx:TrackPointExtension xmlns:gpxtpx="http://www.garmin.com/xmlschemas/TrackPointExtension/v1">
            <gpxtpx:hr>134</gpxtpx:hr>
          </gpxtpx:TrackPointExtension>
        </extensions>
      </trkpt>
      <trkpt lat="46.4882" lon="0.28324">
        <ele>111</ele>
        <time>2020-06-13T21:57:38.080Z</time>
        <extensions>
          <gpxtpx:TrackPointExtension xmlns:gpxtpx="http://www.garmin.com/xmlschemas/TrackPointExtension/v1">
            <gpxtpx:hr>136</gpxtpx:hr>
          </gpxtpx:TrackPointExtension>
        </extensions>
      </trkpt>
      <trkpt lat="46.48826" lon="0.28321">
        <ele>111</ele>
        <time>2020-06-13T21:57:39.301Z</time>
        <extensions>
          <gpxtpx:TrackPointExtension xmlns:gpxtpx="http://www.garmin.com/xmlschemas/TrackPointExtension/v1">
            <gpxtpx:hr>139</gpxtpx:hr>
          </gpxtpx:TrackPointExtension>
        </extensions>
      </trkpt>
      <trkpt lat="46.48843" lon="0.28312">
        <ele>112</ele>
        <time>2020-06-13T21:57:45.607Z</time>
        <extensions>
          <gpxtpx:TrackPointExtension xmlns:gpxtpx="http://www.garmin.com/xmlschemas/TrackPointExtension/v1">
            <gpxtpx:hr>142</gpxtpx:hr>
          </gpxtpx:TrackPointExtension>
        </extensions>
      </trkpt>
      <trkpt lat="46.48849" lon="0.2831">
        <ele>112.19999694824</ele>
        <time>2020-06-13T21:57:47.294Z</time>
        <extensions>
          <gpxtpx:TrackPointExtension xmlns:gpxtpx="http://www.garmin.com/xmlschemas/TrackPointExtension/v1">
            <gpxtpx:hr>142</gpxtpx:hr>
          </gpxtpx:TrackPointExtension>
        </extensions>
      </trkpt>
      <trkpt lat="46.48855" lon="0.28309">
        <ele>112.40000152588</ele>
        <time>2020-06-13T21:57:48.962Z</time>
        <extensions>
          <gpxtpx:TrackPointExtension xmlns:gpxtpx="http://www.garmin.com/xmlschemas/TrackPointExtension/v1">
            <gpxtpx:hr>143</gpxtpx:hr>
          </gpxtpx:TrackPointExtension>
        </extensions>
      </trkpt>
      <trkpt lat="46.48861" lon="0.28309">
        <ele>112.80000305176</ele>
        <time>2020-06-13T21:57:51.228Z</time>
        <extensions>
          <gpxtpx:TrackPointExtension xmlns:gpxtpx="http://www.garmin.com/xmlschemas/TrackPointExtension/v1">
            <gpxtpx:hr>144</gpxtpx:hr>
          </gpxtpx:TrackPointExtension>
        </extensions>
      </trkpt>
      <trkpt lat="46.48867" lon="0.2831">
        <ele>113</ele>
        <time>2020-06-13T21:57:52.897Z</time>
        <extensions>
          <gpxtpx:TrackPointExtension xmlns:gpxtpx="http://www.garmin.com/xmlschemas/TrackPointExtension/v1">
            <gpxtpx:hr>144</gpxtpx:hr>
          </gpxtpx:TrackPointExtension>
        </extensions>
      </trkpt>
      <trkpt lat="46.48873" lon="0.28311">
        <ele>113.19999694824</ele>
        <time>2020-06-13T21:57:54.565Z</time>
        <extensions>
          <gpxtpx:TrackPointExtension xmlns:gpxtpx="http://www.garmin.com/xmlschemas/TrackPointExtension/v1">
            <gpxtpx:hr>144</gpxtpx:hr>
          </gpxtpx:TrackPointExtension>
        </extensions>
      </trkpt>
      <trkpt lat="46.48878" lon="0.28313">
        <ele>113.40000152588</ele>
        <time>2020-06-13T21:57:56.108Z</time>
        <extensions>
          <gpxtpx:TrackPointExtension xmlns:gpxtpx="http://www.garmin.com/xmlschemas/TrackPointExtension/v1">
            <gpxtpx:hr>145</gpxtpx:hr>
          </gpxtpx:TrackPointExtension>
        </extensions>
      </trkpt>
      <trkpt lat="46.48883" lon="0.28314">
        <ele>113.59999847412</ele>
        <time>2020-06-13T21:57:57.633Z</time>
        <extensions>
          <gpxtpx:TrackPointExtension xmlns:gpxtpx="http://www.garmin.com/xmlschemas/TrackPointExtension/v1">
            <gpxtpx:hr>145</gpxtpx:hr>
          </gpxtpx:TrackPointExtension>
        </extensions>
      </trkpt>
      <trkpt lat="46.48887" lon="0.28316">
        <ele>113.80000305176</ele>
        <time>2020-06-13T21:57:59.031Z</time>
        <extensions>
          <gpxtpx:TrackPointExtension xmlns:gpxtpx="http://www.garmin.com/xmlschemas/TrackPointExtension/v1">
            <gpxtpx:hr>145</gpxtpx:hr>
          </gpxtpx:TrackPointExtension>
        </extensions>
      </trkpt>
      <trkpt lat="46.48891" lon="0.28318">
        <ele>113.80000305176</ele>
        <time>2020-06-13T21:57:59.845Z</time>
        <extensions>
          <gpxtpx:TrackPointExtension xmlns:gpxtpx="http://www.garmin.com/xmlschemas/TrackPointExtension/v1">
            <gpxtpx:hr>145</gpxtpx:hr>
          </gpxtpx:TrackPointExtension>
        </extensions>
      </trkpt>
      <trkpt lat="46.48896" lon="0.28322">
        <ele>114</ele>
        <time>2020-06-13T21:58:01.463Z</time>
        <extensions>
          <gpxtpx:TrackPointExtension xmlns:gpxtpx="http://www.garmin.com/xmlschemas/TrackPointExtension/v1">
            <gpxtpx:hr>145</gpxtpx:hr>
          </gpxtpx:TrackPointExtension>
        </extensions>
      </trkpt>
      <trkpt lat="46.48901" lon="0.28327">
        <ele>114.19999694824</ele>
        <time>2020-06-13T21:58:03.136Z</time>
        <extensions>
          <gpxtpx:TrackPointExtension xmlns:gpxtpx="http://www.garmin.com/xmlschemas/TrackPointExtension/v1">
            <gpxtpx:hr>145</gpxtpx:hr>
          </gpxtpx:TrackPointExtension>
        </extensions>
      </trkpt>
      <trkpt lat="46.48904" lon="0.28334">
        <ele>114.19999694824</ele>
        <time>2020-06-13T21:58:04.229Z</time>
        <extensions>
          <gpxtpx:TrackPointExtension xmlns:gpxtpx="http://www.garmin.com/xmlschemas/TrackPointExtension/v1">
            <gpxtpx:hr>145</gpxtpx:hr>
          </gpxtpx:TrackPointExtension>
        </extensions>
      </trkpt>
      <trkpt lat="46.48904" lon="0.28342">
        <ele>114.19999694824</ele>
        <time>2020-06-13T21:58:05.288Z</time>
        <extensions>
          <gpxtpx:TrackPointExtension xmlns:gpxtpx="http://www.garmin.com/xmlschemas/TrackPointExtension/v1">
            <gpxtpx:hr>145</gpxtpx:hr>
          </gpxtpx:TrackPointExtension>
        </extensions>
      </trkpt>
      <trkpt lat="46.48903" lon="0.2835">
        <ele>114.19999694824</ele>
        <time>2020-06-13T21:58:06.366Z</time>
        <extensions>
          <gpxtpx:TrackPointExtension xmlns:gpxtpx="http://www.garmin.com/xmlschemas/TrackPointExtension/v1">
            <gpxtpx:hr>146</gpxtpx:hr>
          </gpxtpx:TrackPointExtension>
        </extensions>
      </trkpt>
      <trkpt lat="46.489" lon="0.28357">
        <ele>114.19999694824</ele>
        <time>2020-06-13T21:58:07.458Z</time>
        <extensions>
          <gpxtpx:TrackPointExtension xmlns:gpxtpx="http://www.garmin.com/xmlschemas/TrackPointExtension/v1">
            <gpxtpx:hr>146</gpxtpx:hr>
          </gpxtpx:TrackPointExtension>
        </extensions>
      </trkpt>
      <trkpt lat="46.48898" lon="0.28365">
        <ele>114.19999694824</ele>
        <time>2020-06-13T21:58:08.586Z</time>
        <extensions>
          <gpxtpx:TrackPointExtension xmlns:gpxtpx="http://www.garmin.com/xmlschemas/TrackPointExtension/v1">
            <gpxtpx:hr>147</gpxtpx:hr>
          </gpxtpx:TrackPointExtension>
        </extensions>
      </trkpt>
      <trkpt lat="46.48895" lon="0.28373">
        <ele>114.19999694824</ele>
        <time>2020-06-13T21:58:09.793Z</time>
        <extensions>
          <gpxtpx:TrackPointExtension xmlns:gpxtpx="http://www.garmin.com/xmlschemas/TrackPointExtension/v1">
            <gpxtpx:hr>147</gpxtpx:hr>
          </gpxtpx:TrackPointExtension>
        </extensions>
      </trkpt>
      <trkpt lat="46.48893" lon="0.2838">
        <ele>114.40000152588</ele>
        <time>2020-06-13T21:58:11.340Z</time>
        <extensions>
          <gpxtpx:TrackPointExtension xmlns:gpxtpx="http://www.garmin.com/xmlschemas/TrackPointExtension/v1">
            <gpxtpx:hr>147</gpxtpx:hr>
          </gpxtpx:TrackPointExtension>
        </extensions>
      </trkpt>
      <trkpt lat="46.4889" lon="0.28387">
        <ele>114.40000152588</ele>
        <time>2020-06-13T21:58:12.433Z</time>
        <extensions>
          <gpxtpx:TrackPointExtension xmlns:gpxtpx="http://www.garmin.com/xmlschemas/TrackPointExtension/v1">
            <gpxtpx:hr>147</gpxtpx:hr>
          </gpxtpx:TrackPointExtension>
        </extensions>
      </trkpt>
      <trkpt lat="46.48884" lon="0.28401">
        <ele>114.40000152588</ele>
        <time>2020-06-13T21:58:14.618Z</time>
        <extensions>
          <gpxtpx:TrackPointExtension xmlns:gpxtpx="http://www.garmin.com/xmlschemas/TrackPointExtension/v1">
            <gpxtpx:hr>147</gpxtpx:hr>
          </gpxtpx:TrackPointExtension>
        </extensions>
      </trkpt>
      <trkpt lat="46.48884" lon="0.28401">
        <ele>114.40000152588</ele>
        <time>2020-06-13T21:58:14.618Z</time>
        <extensions>
          <gpxtpx:TrackPointExtension xmlns:gpxtpx="http://www.garmin.com/xmlschemas/TrackPointExtension/v1">
            <gpxtpx:hr>148</gpxtpx:hr>
          </gpxtpx:TrackPointExtension>
        </extensions>
      </trkpt>
      <trkpt lat="46.48877" lon="0.28414">
        <ele>114.40000152588</ele>
        <time>2020-06-13T21:58:16.804Z</time>
        <extensions>
          <gpxtpx:TrackPointExtension xmlns:gpxtpx="http://www.garmin.com/xmlschemas/TrackPointExtension/v1">
            <gpxtpx:hr>148</gpxtpx:hr>
          </gpxtpx:TrackPointExtension>
        </extensions>
      </trkpt>
      <trkpt lat="46.48875" lon="0.28421">
        <ele>114.80000305176</ele>
        <time>2020-06-13T21:58:18.932Z</time>
        <extensions>
          <gpxtpx:TrackPointExtension xmlns:gpxtpx="http://www.garmin.com/xmlschemas/TrackPointExtension/v1">
            <gpxtpx:hr>149</gpxtpx:hr>
          </gpxtpx:TrackPointExtension>
        </extensions>
      </trkpt>
      <trkpt lat="46.48872" lon="0.28426">
        <ele>115</ele>
        <time>2020-06-13T21:58:20.399Z</time>
        <extensions>
          <gpxtpx:TrackPointExtension xmlns:gpxtpx="http://www.garmin.com/xmlschemas/TrackPointExtension/v1">
            <gpxtpx:hr>149</gpxtpx:hr>
          </gpxtpx:TrackPointExtension>
        </extensions>
      </trkpt>
      <trkpt lat="46.48871" lon="0.28433">
        <ele>115.40000152588</ele>
        <time>2020-06-13T21:58:22.482Z</time>
        <extensions>
          <gpxtpx:TrackPointExtension xmlns:gpxtpx="http://www.garmin.com/xmlschemas/TrackPointExtension/v1">
            <gpxtpx:hr>151</gpxtpx:hr>
          </gpxtpx:TrackPointExtension>
        </extensions>
      </trkpt>
      <trkpt lat="46.4887" lon="0.28442">
        <ele>115.80000305176</ele>
        <time>2020-06-13T21:58:24.803Z</time>
        <extensions>
          <gpxtpx:TrackPointExtension xmlns:gpxtpx="http://www.garmin.com/xmlschemas/TrackPointExtension/v1">
            <gpxtpx:hr>154</gpxtpx:hr>
          </gpxtpx:TrackPointExtension>
        </extensions>
      </trkpt>
      <trkpt lat="46.48868" lon="0.2845">
        <ele>116</ele>
        <time>2020-06-13T21:58:26.443Z</time>
        <extensions>
          <gpxtpx:TrackPointExtension xmlns:gpxtpx="http://www.garmin.com/xmlschemas/TrackPointExtension/v1">
            <gpxtpx:hr>154</gpxtpx:hr>
          </gpxtpx:TrackPointExtension>
        </extensions>
      </trkpt>
      <trkpt lat="46.48869" lon="0.28458">
        <ele>116.59999847412</ele>
        <time>2020-06-13T21:58:29.455Z</time>
        <extensions>
          <gpxtpx:TrackPointExtension xmlns:gpxtpx="http://www.garmin.com/xmlschemas/TrackPointExtension/v1">
            <gpxtpx:hr>154</gpxtpx:hr>
          </gpxtpx:TrackPointExtension>
        </extensions>
      </trkpt>
      <trkpt lat="46.48868" lon="0.28467">
        <ele>117.19999694824</ele>
        <time>2020-06-13T21:58:32.467Z</time>
        <extensions>
          <gpxtpx:TrackPointExtension xmlns:gpxtpx="http://www.garmin.com/xmlschemas/TrackPointExtension/v1">
            <gpxtpx:hr>156</gpxtpx:hr>
          </gpxtpx:TrackPointExtension>
        </extensions>
      </trkpt>
      <trkpt lat="46.48868" lon="0.28475">
        <ele>118</ele>
        <time>2020-06-13T21:58:36.556Z</time>
        <extensions>
          <gpxtpx:TrackPointExtension xmlns:gpxtpx="http://www.garmin.com/xmlschemas/TrackPointExtension/v1">
            <gpxtpx:hr>158</gpxtpx:hr>
          </gpxtpx:TrackPointExtension>
        </extensions>
      </trkpt>
      <trkpt lat="46.48867" lon="0.28483">
        <ele>118.59999847412</ele>
        <time>2020-06-13T21:58:39.568Z</time>
        <extensions>
          <gpxtpx:TrackPointExtension xmlns:gpxtpx="http://www.garmin.com/xmlschemas/TrackPointExtension/v1">
            <gpxtpx:hr>158</gpxtpx:hr>
          </gpxtpx:TrackPointExtension>
        </extensions>
      </trkpt>
      <trkpt lat="46.48865" lon="0.28492">
        <ele>119.40000152588</ele>
        <time>2020-06-13T21:58:43.760Z</time>
        <extensions>
          <gpxtpx:TrackPointExtension xmlns:gpxtpx="http://www.garmin.com/xmlschemas/TrackPointExtension/v1">
            <gpxtpx:hr>161</gpxtpx:hr>
          </gpxtpx:TrackPointExtension>
        </extensions>
      </trkpt>
      <trkpt lat="46.48866" lon="0.28501">
        <ele>120.59999847412</ele>
        <time>2020-06-13T21:58:48.419Z</time>
        <extensions>
          <gpxtpx:TrackPointExtension xmlns:gpxtpx="http://www.garmin.com/xmlschemas/TrackPointExtension/v1">
            <gpxtpx:hr>161</gpxtpx:hr>
          </gpxtpx:TrackPointExtension>
        </extensions>
      </trkpt>
      <trkpt lat="46.48866" lon="0.28509">
        <ele>121</ele>
        <time>2020-06-13T21:58:50.595Z</time>
        <extensions>
          <gpxtpx:TrackPointExtension xmlns:gpxtpx="http://www.garmin.com/xmlschemas/TrackPointExtension/v1">
            <gpxtpx:hr>164</gpxtpx:hr>
          </gpxtpx:TrackPointExtension>
        </extensions>
      </trkpt>
      <trkpt lat="46.48865" lon="0.28515">
        <ele>122.19999694824</ele>
        <time>2020-06-13T21:58:53.750Z</time>
        <extensions>
          <gpxtpx:TrackPointExtension xmlns:gpxtpx="http://www.garmin.com/xmlschemas/TrackPointExtension/v1">
            <gpxtpx:hr>164</gpxtpx:hr>
          </gpxtpx:TrackPointExtension>
        </extensions>
      </trkpt>
      <trkpt lat="46.48865" lon="0.28515">
        <ele>122.59999847412</ele>
        <time>2020-06-13T21:58:53.750Z</time>
        <extensions>
          <gpxtpx:TrackPointExtension xmlns:gpxtpx="http://www.garmin.com/xmlschemas/TrackPointExtension/v1">
            <gpxtpx:hr>167</gpxtpx:hr>
          </gpxtpx:TrackPointExtension>
        </extensions>
      </trkpt>
      <trkpt lat="46.48865" lon="0.28529">
        <ele>123.59999847412</ele>
        <time>2020-06-13T21:58:58.756Z</time>
        <extensions>
          <gpxtpx:TrackPointExtension xmlns:gpxtpx="http://www.garmin.com/xmlschemas/TrackPointExtension/v1">
            <gpxtpx:hr>167</gpxtpx:hr>
          </gpxtpx:TrackPointExtension>
        </extensions>
      </trkpt>
      <trkpt lat="46.48865" lon="0.28536">
        <ele>124.40000152588</ele>
        <time>2020-06-13T21:59:02.334Z</time>
        <extensions>
          <gpxtpx:TrackPointExtension xmlns:gpxtpx="http://www.garmin.com/xmlschemas/TrackPointExtension/v1">
            <gpxtpx:hr>170</gpxtpx:hr>
          </gpxtpx:TrackPointExtension>
        </extensions>
      </trkpt>
      <trkpt lat="46.48865" lon="0.28543">
        <ele>124.80000305176</ele>
        <time>2020-06-13T21:59:04.403Z</time>
        <extensions>
          <gpxtpx:TrackPointExtension xmlns:gpxtpx="http://www.garmin.com/xmlschemas/TrackPointExtension/v1">
            <gpxtpx:hr>170</gpxtpx:hr>
          </gpxtpx:TrackPointExtension>
        </extensions>
      </trkpt>
      <trkpt lat="46.48865" lon="0.2855">
        <ele>125.59999847412</ele>
        <time>2020-06-13T21:59:07.980Z</time>
        <extensions>
          <gpxtpx:TrackPointExtension xmlns:gpxtpx="http://www.garmin.com/xmlschemas/TrackPointExtension/v1">
            <gpxtpx:hr>173</gpxtpx:hr>
          </gpxtpx:TrackPointExtension>
        </extensions>
      </trkpt>
      <trkpt lat="46.48865" lon="0.28556">
        <ele>126</ele>
        <time>2020-06-13T21:59:09.985Z</time>
        <extensions>
          <gpxtpx:TrackPointExtension xmlns:gpxtpx="http://www.garmin.com/xmlschemas/TrackPointExtension/v1">
            <gpxtpx:hr>173</gpxtpx:hr>
          </gpxtpx:TrackPointExtension>
        </extensions>
      </trkpt>
      <trkpt lat="46.48866" lon="0.28562">
        <ele>126.80000305176</ele>
        <time>2020-06-13T21:59:13.140Z</time>
        <extensions>
          <gpxtpx:TrackPointExtension xmlns:gpxtpx="http://www.garmin.com/xmlschemas/TrackPointExtension/v1">
            <gpxtpx:hr>175</gpxtpx:hr>
          </gpxtpx:TrackPointExtension>
        </extensions>
      </trkpt>
      <trkpt lat="46.48867" lon="0.28568">
        <ele>127</ele>
        <time>2020-06-13T21:59:14.543Z</time>
        <extensions>
          <gpxtpx:TrackPointExtension xmlns:gpxtpx="http://www.garmin.com/xmlschemas/TrackPointExtension/v1">
            <gpxtpx:hr>175</gpxtpx:hr>
          </gpxtpx:TrackPointExtension>
        </extensions>
      </trkpt>
      <trkpt lat="46.48867" lon="0.28574">
        <ele>127.80000305176</ele>
        <time>2020-06-13T21:59:17.610Z</time>
        <extensions>
          <gpxtpx:TrackPointExtension xmlns:gpxtpx="http://www.garmin.com/xmlschemas/TrackPointExtension/v1">
            <gpxtpx:hr>176</gpxtpx:hr>
          </gpxtpx:TrackPointExtension>
        </extensions>
      </trkpt>
      <trkpt lat="46.48868" lon="0.28581">
        <ele>128.80000305176</ele>
        <time>2020-06-13T21:59:21.263Z</time>
        <extensions>
          <gpxtpx:TrackPointExtension xmlns:gpxtpx="http://www.garmin.com/xmlschemas/TrackPointExtension/v1">
            <gpxtpx:hr>177</gpxtpx:hr>
          </gpxtpx:TrackPointExtension>
        </extensions>
      </trkpt>
      <trkpt lat="46.48869" lon="0.28588">
        <ele>129</ele>
        <time>2020-06-13T21:59:22.772Z</time>
        <extensions>
          <gpxtpx:TrackPointExtension xmlns:gpxtpx="http://www.garmin.com/xmlschemas/TrackPointExtension/v1">
            <gpxtpx:hr>177</gpxtpx:hr>
          </gpxtpx:TrackPointExtension>
        </extensions>
      </trkpt>
      <trkpt lat="46.4887" lon="0.28595">
        <ele>129.60000610352</ele>
        <time>2020-06-13T21:59:25.903Z</time>
        <extensions>
          <gpxtpx:TrackPointExtension xmlns:gpxtpx="http://www.garmin.com/xmlschemas/TrackPointExtension/v1">
            <gpxtpx:hr>178</gpxtpx:hr>
          </gpxtpx:TrackPointExtension>
        </extensions>
      </trkpt>
      <trkpt lat="46.4887" lon="0.28595">
        <ele>130</ele>
        <time>2020-06-13T21:59:25.903Z</time>
        <extensions>
          <gpxtpx:TrackPointExtension xmlns:gpxtpx="http://www.garmin.com/xmlschemas/TrackPointExtension/v1">
            <gpxtpx:hr>178</gpxtpx:hr>
          </gpxtpx:TrackPointExtension>
        </extensions>
      </trkpt>
      <trkpt lat="46.48872" lon="0.28608">
        <ele>130.39999389648</ele>
        <time>2020-06-13T21:59:28.842Z</time>
        <extensions>
          <gpxtpx:TrackPointExtension xmlns:gpxtpx="http://www.garmin.com/xmlschemas/TrackPointExtension/v1">
            <gpxtpx:hr>178</gpxtpx:hr>
          </gpxtpx:TrackPointExtension>
        </extensions>
      </trkpt>
      <trkpt lat="46.48872" lon="0.28608">
        <ele>130.80000305176</ele>
        <time>2020-06-13T21:59:28.842Z</time>
        <extensions>
          <gpxtpx:TrackPointExtension xmlns:gpxtpx="http://www.garmin.com/xmlschemas/TrackPointExtension/v1">
            <gpxtpx:hr>178</gpxtpx:hr>
          </gpxtpx:TrackPointExtension>
        </extensions>
      </trkpt>
      <trkpt lat="46.48874" lon="0.28615">
        <ele>131.19999694824</ele>
        <time>2020-06-13T21:59:30.970Z</time>
        <extensions>
          <gpxtpx:TrackPointExtension xmlns:gpxtpx="http://www.garmin.com/xmlschemas/TrackPointExtension/v1">
            <gpxtpx:hr>178</gpxtpx:hr>
          </gpxtpx:TrackPointExtension>
        </extensions>
      </trkpt>
      <trkpt lat="46.48879" lon="0.28627">
        <ele>131.60000610352</ele>
        <time>2020-06-13T21:59:33.964Z</time>
        <extensions>
          <gpxtpx:TrackPointExtension xmlns:gpxtpx="http://www.garmin.com/xmlschemas/TrackPointExtension/v1">
            <gpxtpx:hr>178</gpxtpx:hr>
          </gpxtpx:TrackPointExtension>
        </extensions>
      </trkpt>
      <trkpt lat="46.48882" lon="0.28636">
        <ele>131.80000305176</ele>
        <time>2020-06-13T21:59:35.769Z</time>
        <extensions>
          <gpxtpx:TrackPointExtension xmlns:gpxtpx="http://www.garmin.com/xmlschemas/TrackPointExtension/v1">
            <gpxtpx:hr>179</gpxtpx:hr>
          </gpxtpx:TrackPointExtension>
        </extensions>
      </trkpt>
      <trkpt lat="46.48885" lon="0.28643">
        <ele>132</ele>
        <time>2020-06-13T21:59:37.382Z</time>
        <extensions>
          <gpxtpx:TrackPointExtension xmlns:gpxtpx="http://www.garmin.com/xmlschemas/TrackPointExtension/v1">
            <gpxtpx:hr>179</gpxtpx:hr>
          </gpxtpx:TrackPointExtension>
        </extensions>
      </trkpt>
      <trkpt lat="46.48887" lon="0.2865">
        <ele>132.19999694824</ele>
        <time>2020-06-13T21:59:38.930Z</time>
        <extensions>
          <gpxtpx:TrackPointExtension xmlns:gpxtpx="http://www.garmin.com/xmlschemas/TrackPointExtension/v1">
            <gpxtpx:hr>179</gpxtpx:hr>
          </gpxtpx:TrackPointExtension>
        </extensions>
      </trkpt>
      <trkpt lat="46.4889" lon="0.28657">
        <ele>132.39999389648</ele>
        <time>2020-06-13T21:59:40.543Z</time>
        <extensions>
          <gpxtpx:TrackPointExtension xmlns:gpxtpx="http://www.garmin.com/xmlschemas/TrackPointExtension/v1">
            <gpxtpx:hr>179</gpxtpx:hr>
          </gpxtpx:TrackPointExtension>
        </extensions>
      </trkpt>
      <trkpt lat="46.48893" lon="0.28664">
        <ele>132.39999389648</ele>
        <time>2020-06-13T21:59:41.635Z</time>
        <extensions>
          <gpxtpx:TrackPointExtension xmlns:gpxtpx="http://www.garmin.com/xmlschemas/TrackPointExtension/v1">
            <gpxtpx:hr>179</gpxtpx:hr>
          </gpxtpx:TrackPointExtension>
        </extensions>
      </trkpt>
      <trkpt lat="46.48896" lon="0.28671">
        <ele>132.60000610352</ele>
        <time>2020-06-13T21:59:43.248Z</time>
        <extensions>
          <gpxtpx:TrackPointExtension xmlns:gpxtpx="http://www.garmin.com/xmlschemas/TrackPointExtension/v1">
            <gpxtpx:hr>179</gpxtpx:hr>
          </gpxtpx:TrackPointExtension>
        </extensions>
      </trkpt>
      <trkpt lat="46.48899" lon="0.28677">
        <ele>133</ele>
        <time>2020-06-13T21:59:45.358Z</time>
        <extensions>
          <gpxtpx:TrackPointExtension xmlns:gpxtpx="http://www.garmin.com/xmlschemas/TrackPointExtension/v1">
            <gpxtpx:hr>179</gpxtpx:hr>
          </gpxtpx:TrackPointExtension>
        </extensions>
      </trkpt>
      <trkpt lat="46.48899" lon="0.28677">
        <ele>133</ele>
        <time>2020-06-13T21:59:45.358Z</time>
        <extensions>
          <gpxtpx:TrackPointExtension xmlns:gpxtpx="http://www.garmin.com/xmlschemas/TrackPointExtension/v1">
            <gpxtpx:hr>179</gpxtpx:hr>
          </gpxtpx:TrackPointExtension>
        </extensions>
      </trkpt>
      <trkpt lat="46.48902" lon="0.28684">
        <ele>133.39999389648</ele>
        <time>2020-06-13T21:59:47.564Z</time>
        <extensions>
          <gpxtpx:TrackPointExtension xmlns:gpxtpx="http://www.garmin.com/xmlschemas/TrackPointExtension/v1">
            <gpxtpx:hr>179</gpxtpx:hr>
          </gpxtpx:TrackPointExtension>
        </extensions>
      </trkpt>
      <trkpt lat="46.48908" lon="0.28696">
        <ele>133.39999389648</ele>
        <time>2020-06-13T21:59:49.529Z</time>
        <extensions>
          <gpxtpx:TrackPointExtension xmlns:gpxtpx="http://www.garmin.com/xmlschemas/TrackPointExtension/v1">
            <gpxtpx:hr>179</gpxtpx:hr>
          </gpxtpx:TrackPointExtension>
        </extensions>
      </trkpt>
      <trkpt lat="46.48908" lon="0.28696">
        <ele>133.60000610352</ele>
        <time>2020-06-13T21:59:49.529Z</time>
        <extensions>
          <gpxtpx:TrackPointExtension xmlns:gpxtpx="http://www.garmin.com/xmlschemas/TrackPointExtension/v1">
            <gpxtpx:hr>179</gpxtpx:hr>
          </gpxtpx:TrackPointExtension>
        </extensions>
      </trkpt>
      <trkpt lat="46.48915" lon="0.28709">
        <ele>133.60000610352</ele>
        <time>2020-06-13T21:59:51.715Z</time>
        <extensions>
          <gpxtpx:TrackPointExtension xmlns:gpxtpx="http://www.garmin.com/xmlschemas/TrackPointExtension/v1">
            <gpxtpx:hr>179</gpxtpx:hr>
          </gpxtpx:TrackPointExtension>
        </extensions>
      </trkpt>
      <trkpt lat="46.48919" lon="0.28715">
        <ele>133.80000305176</ele>
        <time>2020-06-13T21:59:53.339Z</time>
        <extensions>
          <gpxtpx:TrackPointExtension xmlns:gpxtpx="http://www.garmin.com/xmlschemas/TrackPointExtension/v1">
            <gpxtpx:hr>180</gpxtpx:hr>
          </gpxtpx:TrackPointExtension>
        </extensions>
      </trkpt>
      <trkpt lat="46.48923" lon="0.2872">
        <ele>134</ele>
        <time>2020-06-13T21:59:54.895Z</time>
        <extensions>
          <gpxtpx:TrackPointExtension xmlns:gpxtpx="http://www.garmin.com/xmlschemas/TrackPointExtension/v1">
            <gpxtpx:hr>179</gpxtpx:hr>
          </gpxtpx:TrackPointExtension>
        </extensions>
      </trkpt>
      <trkpt lat="46.48928" lon="0.28726">
        <ele>134.19999694824</ele>
        <time>2020-06-13T21:59:56.634Z</time>
        <extensions>
          <gpxtpx:TrackPointExtension xmlns:gpxtpx="http://www.garmin.com/xmlschemas/TrackPointExtension/v1">
            <gpxtpx:hr>179</gpxtpx:hr>
          </gpxtpx:TrackPointExtension>
        </extensions>
      </trkpt>
      <trkpt lat="46.48928" lon="0.28726">
        <ele>134.19999694824</ele>
        <time>2020-06-13T21:59:56.634Z</time>
        <extensions>
          <gpxtpx:TrackPointExtension xmlns:gpxtpx="http://www.garmin.com/xmlschemas/TrackPointExtension/v1">
            <gpxtpx:hr>179</gpxtpx:hr>
          </gpxtpx:TrackPointExtension>
        </extensions>
      </trkpt>
      <trkpt lat="46.48938" lon="0.28736">
        <ele>134.19999694824</ele>
        <time>2020-06-13T21:59:58.971Z</time>
        <extensions>
          <gpxtpx:TrackPointExtension xmlns:gpxtpx="http://www.garmin.com/xmlschemas/TrackPointExtension/v1">
            <gpxtpx:hr>179</gpxtpx:hr>
          </gpxtpx:TrackPointExtension>
        </extensions>
      </trkpt>
      <trkpt lat="46.48943" lon="0.28741">
        <ele>134.39999389648</ele>
        <time>2020-06-13T22:00:00.644Z</time>
        <extensions>
          <gpxtpx:TrackPointExtension xmlns:gpxtpx="http://www.garmin.com/xmlschemas/TrackPointExtension/v1">
            <gpxtpx:hr>179</gpxtpx:hr>
          </gpxtpx:TrackPointExtension>
        </extensions>
      </trkpt>
      <trkpt lat="46.48948" lon="0.28746">
        <ele>134.39999389648</ele>
        <time>2020-06-13T22:00:01.812Z</time>
        <extensions>
          <gpxtpx:TrackPointExtension xmlns:gpxtpx="http://www.garmin.com/xmlschemas/TrackPointExtension/v1">
            <gpxtpx:hr>179</gpxtpx:hr>
          </gpxtpx:TrackPointExtension>
        </extensions>
      </trkpt>
      <trkpt lat="46.48953" lon="0.28752">
        <ele>134.39999389648</ele>
        <time>2020-06-13T22:00:03.060Z</time>
        <extensions>
          <gpxtpx:TrackPointExtension xmlns:gpxtpx="http://www.garmin.com/xmlschemas/TrackPointExtension/v1">
            <gpxtpx:hr>179</gpxtpx:hr>
          </gpxtpx:TrackPointExtension>
        </extensions>
      </trkpt>
      <trkpt lat="46.48963" lon="0.28762">
        <ele>134.39999389648</ele>
        <time>2020-06-13T22:00:05.396Z</time>
        <extensions>
          <gpxtpx:TrackPointExtension xmlns:gpxtpx="http://www.garmin.com/xmlschemas/TrackPointExtension/v1">
            <gpxtpx:hr>179</gpxtpx:hr>
          </gpxtpx:TrackPointExtension>
        </extensions>
      </trkpt>
      <trkpt lat="46.48968" lon="0.28767">
        <ele>134.19999694824</ele>
        <time>2020-06-13T22:00:06.086Z</time>
        <extensions>
          <gpxtpx:TrackPointExtension xmlns:gpxtpx="http://www.garmin.com/xmlschemas/TrackPointExtension/v1">
            <gpxtpx:hr>179</gpxtpx:hr>
          </gpxtpx:TrackPointExtension>
        </extensions>
      </trkpt>
      <trkpt lat="46.48983" lon="0.28783">
        <ele>134</ele>
        <time>2020-06-13T22:00:08.819Z</time>
        <extensions>
          <gpxtpx:TrackPointExtension xmlns:gpxtpx="http://www.garmin.com/xmlschemas/TrackPointExtension/v1">
            <gpxtpx:hr>179</gpxtpx:hr>
          </gpxtpx:TrackPointExtension>
        </extensions>
      </trkpt>
      <trkpt lat="46.48988" lon="0.28788">
        <ele>134</ele>
        <time>2020-06-13T22:00:09.987Z</time>
        <extensions>
          <gpxtpx:TrackPointExtension xmlns:gpxtpx="http://www.garmin.com/xmlschemas/TrackPointExtension/v1">
            <gpxtpx:hr>179</gpxtpx:hr>
          </gpxtpx:TrackPointExtension>
        </extensions>
      </trkpt>
      <trkpt lat="46.49" lon="0.28801">
        <ele>133.80000305176</ele>
        <time>2020-06-13T22:00:12.113Z</time>
        <extensions>
          <gpxtpx:TrackPointExtension xmlns:gpxtpx="http://www.garmin.com/xmlschemas/TrackPointExtension/v1">
            <gpxtpx:hr>178</gpxtpx:hr>
          </gpxtpx:TrackPointExtension>
        </extensions>
      </trkpt>
      <trkpt lat="46.49005" lon="0.28807">
        <ele>133.80000305176</ele>
        <time>2020-06-13T22:00:13.361Z</time>
        <extensions>
          <gpxtpx:TrackPointExtension xmlns:gpxtpx="http://www.garmin.com/xmlschemas/TrackPointExtension/v1">
            <gpxtpx:hr>178</gpxtpx:hr>
          </gpxtpx:TrackPointExtension>
        </extensions>
      </trkpt>
      <trkpt lat="46.49012" lon="0.28812">
        <ele>133.80000305176</ele>
        <time>2020-06-13T22:00:14.862Z</time>
        <extensions>
          <gpxtpx:TrackPointExtension xmlns:gpxtpx="http://www.garmin.com/xmlschemas/TrackPointExtension/v1">
            <gpxtpx:hr>178</gpxtpx:hr>
          </gpxtpx:TrackPointExtension>
        </extensions>
      </trkpt>
      <trkpt lat="46.49025" lon="0.28821">
        <ele>134</ele>
        <time>2020-06-13T22:00:18.037Z</time>
        <extensions>
          <gpxtpx:TrackPointExtension xmlns:gpxtpx="http://www.garmin.com/xmlschemas/TrackPointExtension/v1">
            <gpxtpx:hr>177</gpxtpx:hr>
          </gpxtpx:TrackPointExtension>
        </extensions>
      </trkpt>
      <trkpt lat="46.49033" lon="0.28825">
        <ele>134</ele>
        <time>2020-06-13T22:00:19.665Z</time>
        <extensions>
          <gpxtpx:TrackPointExtension xmlns:gpxtpx="http://www.garmin.com/xmlschemas/TrackPointExtension/v1">
            <gpxtpx:hr>175</gpxtpx:hr>
          </gpxtpx:TrackPointExtension>
        </extensions>
      </trkpt>
      <trkpt lat="46.49075" lon="0.28844">
        <ele>133.60000610352</ele>
        <time>2020-06-13T22:00:26.269Z</time>
        <extensions>
          <gpxtpx:TrackPointExtension xmlns:gpxtpx="http://www.garmin.com/xmlschemas/TrackPointExtension/v1">
            <gpxtpx:hr>173</gpxtpx:hr>
          </gpxtpx:TrackPointExtension>
        </extensions>
      </trkpt>
      <trkpt lat="46.4909" lon="0.28851">
        <ele>133</ele>
        <time>2020-06-13T22:00:27.970Z</time>
        <extensions>
          <gpxtpx:TrackPointExtension xmlns:gpxtpx="http://www.garmin.com/xmlschemas/TrackPointExtension/v1">
            <gpxtpx:hr>172</gpxtpx:hr>
          </gpxtpx:TrackPointExtension>
        </extensions>
      </trkpt>
      <trkpt lat="46.49098" lon="0.28855">
        <ele>132.80000305176</ele>
        <time>2020-06-13T22:00:29.032Z</time>
        <extensions>
          <gpxtpx:TrackPointExtension xmlns:gpxtpx="http://www.garmin.com/xmlschemas/TrackPointExtension/v1">
            <gpxtpx:hr>172</gpxtpx:hr>
          </gpxtpx:TrackPointExtension>
        </extensions>
      </trkpt>
      <trkpt lat="46.49104" lon="0.28858">
        <ele>132.60000610352</ele>
        <time>2020-06-13T22:00:29.764Z</time>
        <extensions>
          <gpxtpx:TrackPointExtension xmlns:gpxtpx="http://www.garmin.com/xmlschemas/TrackPointExtension/v1">
            <gpxtpx:hr>172</gpxtpx:hr>
          </gpxtpx:TrackPointExtension>
        </extensions>
      </trkpt>
      <trkpt lat="46.49117" lon="0.28863">
        <ele>132.39999389648</ele>
        <time>2020-06-13T22:00:31.637Z</time>
        <extensions>
          <gpxtpx:TrackPointExtension xmlns:gpxtpx="http://www.garmin.com/xmlschemas/TrackPointExtension/v1">
            <gpxtpx:hr>170</gpxtpx:hr>
          </gpxtpx:TrackPointExtension>
        </extensions>
      </trkpt>
      <trkpt lat="46.49132" lon="0.28866">
        <ele>132.39999389648</ele>
        <time>2020-06-13T22:00:34.551Z</time>
        <extensions>
          <gpxtpx:TrackPointExtension xmlns:gpxtpx="http://www.garmin.com/xmlschemas/TrackPointExtension/v1">
            <gpxtpx:hr>170</gpxtpx:hr>
          </gpxtpx:TrackPointExtension>
        </extensions>
      </trkpt>
      <trkpt lat="46.49139" lon="0.28867">
        <ele>132.60000610352</ele>
        <time>2020-06-13T22:00:36.382Z</time>
        <extensions>
          <gpxtpx:TrackPointExtension xmlns:gpxtpx="http://www.garmin.com/xmlschemas/TrackPointExtension/v1">
            <gpxtpx:hr>170</gpxtpx:hr>
          </gpxtpx:TrackPointExtension>
        </extensions>
      </trkpt>
      <trkpt lat="46.49159" lon="0.28869">
        <ele>133.19999694824</ele>
        <time>2020-06-13T22:00:41.696Z</time>
        <extensions>
          <gpxtpx:TrackPointExtension xmlns:gpxtpx="http://www.garmin.com/xmlschemas/TrackPointExtension/v1">
            <gpxtpx:hr>169</gpxtpx:hr>
          </gpxtpx:TrackPointExtension>
        </extensions>
      </trkpt>
      <trkpt lat="46.49165" lon="0.2887">
        <ele>133.39999389648</ele>
        <time>2020-06-13T22:00:43.365Z</time>
        <extensions>
          <gpxtpx:TrackPointExtension xmlns:gpxtpx="http://www.garmin.com/xmlschemas/TrackPointExtension/v1">
            <gpxtpx:hr>168</gpxtpx:hr>
          </gpxtpx:TrackPointExtension>
        </extensions>
      </trkpt>
      <trkpt lat="46.49172" lon="0.28871">
        <ele>133.60000610352</ele>
        <time>2020-06-13T22:00:45.195Z</time>
        <extensions>
          <gpxtpx:TrackPointExtension xmlns:gpxtpx="http://www.garmin.com/xmlschemas/TrackPointExtension/v1">
            <gpxtpx:hr>168</gpxtpx:hr>
          </gpxtpx:TrackPointExtension>
        </extensions>
      </trkpt>
      <trkpt lat="46.49178" lon="0.28872">
        <ele>133.80000305176</ele>
        <time>2020-06-13T22:00:46.863Z</time>
        <extensions>
          <gpxtpx:TrackPointExtension xmlns:gpxtpx="http://www.garmin.com/xmlschemas/TrackPointExtension/v1">
            <gpxtpx:hr>167</gpxtpx:hr>
          </gpxtpx:TrackPointExtension>
        </extensions>
      </trkpt>
      <trkpt lat="46.49185" lon="0.28874">
        <ele>134</ele>
        <time>2020-06-13T22:00:48.710Z</time>
        <extensions>
          <gpxtpx:TrackPointExtension xmlns:gpxtpx="http://www.garmin.com/xmlschemas/TrackPointExtension/v1">
            <gpxtpx:hr>166</gpxtpx:hr>
          </gpxtpx:TrackPointExtension>
        </extensions>
      </trkpt>
      <trkpt lat="46.49192" lon="0.28877">
        <ele>134</ele>
        <time>2020-06-13T22:00:50.115Z</time>
        <extensions>
          <gpxtpx:TrackPointExtension xmlns:gpxtpx="http://www.garmin.com/xmlschemas/TrackPointExtension/v1">
            <gpxtpx:hr>166</gpxtpx:hr>
          </gpxtpx:TrackPointExtension>
        </extensions>
      </trkpt>
      <trkpt lat="46.49198" lon="0.28879">
        <ele>134.60000610352</ele>
        <time>2020-06-13T22:00:53.121Z</time>
        <extensions>
          <gpxtpx:TrackPointExtension xmlns:gpxtpx="http://www.garmin.com/xmlschemas/TrackPointExtension/v1">
            <gpxtpx:hr>166</gpxtpx:hr>
          </gpxtpx:TrackPointExtension>
        </extensions>
      </trkpt>
      <trkpt lat="46.49205" lon="0.28881">
        <ele>135</ele>
        <time>2020-06-13T22:00:55.621Z</time>
        <extensions>
          <gpxtpx:TrackPointExtension xmlns:gpxtpx="http://www.garmin.com/xmlschemas/TrackPointExtension/v1">
            <gpxtpx:hr>166</gpxtpx:hr>
          </gpxtpx:TrackPointExtension>
        </extensions>
      </trkpt>
      <trkpt lat="46.49212" lon="0.28883">
        <ele>135.39999389648</ele>
        <time>2020-06-13T22:00:58.121Z</time>
        <extensions>
          <gpxtpx:TrackPointExtension xmlns:gpxtpx="http://www.garmin.com/xmlschemas/TrackPointExtension/v1">
            <gpxtpx:hr>165</gpxtpx:hr>
          </gpxtpx:TrackPointExtension>
        </extensions>
      </trkpt>
      <trkpt lat="46.49219" lon="0.28885">
        <ele>135.60000610352</ele>
        <time>2020-06-13T22:00:59.968Z</time>
        <extensions>
          <gpxtpx:TrackPointExtension xmlns:gpxtpx="http://www.garmin.com/xmlschemas/TrackPointExtension/v1">
            <gpxtpx:hr>165</gpxtpx:hr>
          </gpxtpx:TrackPointExtension>
        </extensions>
      </trkpt>
      <trkpt lat="46.49226" lon="0.28887">
        <ele>135.60000610352</ele>
        <time>2020-06-13T22:01:01.341Z</time>
        <extensions>
          <gpxtpx:TrackPointExtension xmlns:gpxtpx="http://www.garmin.com/xmlschemas/TrackPointExtension/v1">
            <gpxtpx:hr>164</gpxtpx:hr>
          </gpxtpx:TrackPointExtension>
        </extensions>
      </trkpt>
      <trkpt lat="46.49233" lon="0.28889">
        <ele>135.80000305176</ele>
        <time>2020-06-13T22:01:03.189Z</time>
        <extensions>
          <gpxtpx:TrackPointExtension xmlns:gpxtpx="http://www.garmin.com/xmlschemas/TrackPointExtension/v1">
            <gpxtpx:hr>164</gpxtpx:hr>
          </gpxtpx:TrackPointExtension>
        </extensions>
      </trkpt>
      <trkpt lat="46.49239" lon="0.28892">
        <ele>135.80000305176</ele>
        <time>2020-06-13T22:01:04.410Z</time>
        <extensions>
          <gpxtpx:TrackPointExtension xmlns:gpxtpx="http://www.garmin.com/xmlschemas/TrackPointExtension/v1">
            <gpxtpx:hr>164</gpxtpx:hr>
          </gpxtpx:TrackPointExtension>
        </extensions>
      </trkpt>
      <trkpt lat="46.49246" lon="0.28894">
        <ele>135.80000305176</ele>
        <time>2020-06-13T22:01:05.783Z</time>
        <extensions>
          <gpxtpx:TrackPointExtension xmlns:gpxtpx="http://www.garmin.com/xmlschemas/TrackPointExtension/v1">
            <gpxtpx:hr>164</gpxtpx:hr>
          </gpxtpx:TrackPointExtension>
        </extensions>
      </trkpt>
      <trkpt lat="46.49253" lon="0.28896">
        <ele>135.80000305176</ele>
        <time>2020-06-13T22:01:07.155Z</time>
        <extensions>
          <gpxtpx:TrackPointExtension xmlns:gpxtpx="http://www.garmin.com/xmlschemas/TrackPointExtension/v1">
            <gpxtpx:hr>163</gpxtpx:hr>
          </gpxtpx:TrackPointExtension>
        </extensions>
      </trkpt>
      <trkpt lat="46.4926" lon="0.28897">
        <ele>135.80000305176</ele>
        <time>2020-06-13T22:01:08.509Z</time>
        <extensions>
          <gpxtpx:TrackPointExtension xmlns:gpxtpx="http://www.garmin.com/xmlschemas/TrackPointExtension/v1">
            <gpxtpx:hr>163</gpxtpx:hr>
          </gpxtpx:TrackPointExtension>
        </extensions>
      </trkpt>
      <trkpt lat="46.49267" lon="0.28899">
        <ele>135.80000305176</ele>
        <time>2020-06-13T22:01:09.882Z</time>
        <extensions>
          <gpxtpx:TrackPointExtension xmlns:gpxtpx="http://www.garmin.com/xmlschemas/TrackPointExtension/v1">
            <gpxtpx:hr>162</gpxtpx:hr>
          </gpxtpx:TrackPointExtension>
        </extensions>
      </trkpt>
      <trkpt lat="46.49286" lon="0.28907">
        <ele>135.80000305176</ele>
        <time>2020-06-13T22:01:13.689Z</time>
        <extensions>
          <gpxtpx:TrackPointExtension xmlns:gpxtpx="http://www.garmin.com/xmlschemas/TrackPointExtension/v1">
            <gpxtpx:hr>161</gpxtpx:hr>
          </gpxtpx:TrackPointExtension>
        </extensions>
      </trkpt>
      <trkpt lat="46.49292" lon="0.28909">
        <ele>135.80000305176</ele>
        <time>2020-06-13T22:01:14.873Z</time>
        <extensions>
          <gpxtpx:TrackPointExtension xmlns:gpxtpx="http://www.garmin.com/xmlschemas/TrackPointExtension/v1">
            <gpxtpx:hr>160</gpxtpx:hr>
          </gpxtpx:TrackPointExtension>
        </extensions>
      </trkpt>
      <trkpt lat="46.49298" lon="0.28912">
        <ele>135.80000305176</ele>
        <time>2020-06-13T22:01:16.094Z</time>
        <extensions>
          <gpxtpx:TrackPointExtension xmlns:gpxtpx="http://www.garmin.com/xmlschemas/TrackPointExtension/v1">
            <gpxtpx:hr>160</gpxtpx:hr>
          </gpxtpx:TrackPointExtension>
        </extensions>
      </trkpt>
      <trkpt lat="46.49305" lon="0.28915">
        <ele>135.80000305176</ele>
        <time>2020-06-13T22:01:17.499Z</time>
        <extensions>
          <gpxtpx:TrackPointExtension xmlns:gpxtpx="http://www.garmin.com/xmlschemas/TrackPointExtension/v1">
            <gpxtpx:hr>159</gpxtpx:hr>
          </gpxtpx:TrackPointExtension>
        </extensions>
      </trkpt>
      <trkpt lat="46.49311" lon="0.28918">
        <ele>135.80000305176</ele>
        <time>2020-06-13T22:01:18.720Z</time>
        <extensions>
          <gpxtpx:TrackPointExtension xmlns:gpxtpx="http://www.garmin.com/xmlschemas/TrackPointExtension/v1">
            <gpxtpx:hr>159</gpxtpx:hr>
          </gpxtpx:TrackPointExtension>
        </extensions>
      </trkpt>
      <trkpt lat="46.49317" lon="0.2892">
        <ele>135.80000305176</ele>
        <time>2020-06-13T22:01:19.905Z</time>
        <extensions>
          <gpxtpx:TrackPointExtension xmlns:gpxtpx="http://www.garmin.com/xmlschemas/TrackPointExtension/v1">
            <gpxtpx:hr>157</gpxtpx:hr>
          </gpxtpx:TrackPointExtension>
        </extensions>
      </trkpt>
      <trkpt lat="46.49344" lon="0.28935">
        <ele>135.19999694824</ele>
        <time>2020-06-13T22:01:23.656Z</time>
        <extensions>
          <gpxtpx:TrackPointExtension xmlns:gpxtpx="http://www.garmin.com/xmlschemas/TrackPointExtension/v1">
            <gpxtpx:hr>156</gpxtpx:hr>
          </gpxtpx:TrackPointExtension>
        </extensions>
      </trkpt>
      <trkpt lat="46.49357" lon="0.28943">
        <ele>135.19999694824</ele>
        <time>2020-06-13T22:01:26.373Z</time>
        <extensions>
          <gpxtpx:TrackPointExtension xmlns:gpxtpx="http://www.garmin.com/xmlschemas/TrackPointExtension/v1">
            <gpxtpx:hr>155</gpxtpx:hr>
          </gpxtpx:TrackPointExtension>
        </extensions>
      </trkpt>
      <trkpt lat="46.49363" lon="0.28947">
        <ele>135</ele>
        <time>2020-06-13T22:01:27.144Z</time>
        <extensions>
          <gpxtpx:TrackPointExtension xmlns:gpxtpx="http://www.garmin.com/xmlschemas/TrackPointExtension/v1">
            <gpxtpx:hr>154</gpxtpx:hr>
          </gpxtpx:TrackPointExtension>
        </extensions>
      </trkpt>
      <trkpt lat="46.49369" lon="0.28951">
        <ele>135</ele>
        <time>2020-06-13T22:01:28.414Z</time>
        <extensions>
          <gpxtpx:TrackPointExtension xmlns:gpxtpx="http://www.garmin.com/xmlschemas/TrackPointExtension/v1">
            <gpxtpx:hr>154</gpxtpx:hr>
          </gpxtpx:TrackPointExtension>
        </extensions>
      </trkpt>
      <trkpt lat="46.49375" lon="0.28956">
        <ele>135</ele>
        <time>2020-06-13T22:01:29.745Z</time>
        <extensions>
          <gpxtpx:TrackPointExtension xmlns:gpxtpx="http://www.garmin.com/xmlschemas/TrackPointExtension/v1">
            <gpxtpx:hr>153</gpxtpx:hr>
          </gpxtpx:TrackPointExtension>
        </extensions>
      </trkpt>
      <trkpt lat="46.49381" lon="0.28961">
        <ele>135</ele>
        <time>2020-06-13T22:01:31.077Z</time>
        <extensions>
          <gpxtpx:TrackPointExtension xmlns:gpxtpx="http://www.garmin.com/xmlschemas/TrackPointExtension/v1">
            <gpxtpx:hr>153</gpxtpx:hr>
          </gpxtpx:TrackPointExtension>
        </extensions>
      </trkpt>
      <trkpt lat="46.49397" lon="0.28979">
        <ele>134.80000305176</ele>
        <time>2020-06-13T22:01:34.083Z</time>
        <extensions>
          <gpxtpx:TrackPointExtension xmlns:gpxtpx="http://www.garmin.com/xmlschemas/TrackPointExtension/v1">
            <gpxtpx:hr>150</gpxtpx:hr>
          </gpxtpx:TrackPointExtension>
        </extensions>
      </trkpt>
      <trkpt lat="46.49397" lon="0.28979">
        <ele>135</ele>
        <time>2020-06-13T22:01:34.083Z</time>
        <extensions>
          <gpxtpx:TrackPointExtension xmlns:gpxtpx="http://www.garmin.com/xmlschemas/TrackPointExtension/v1">
            <gpxtpx:hr>150</gpxtpx:hr>
          </gpxtpx:TrackPointExtension>
        </extensions>
      </trkpt>
      <trkpt lat="46.49406" lon="0.28991">
        <ele>135</ele>
        <time>2020-06-13T22:01:36.433Z</time>
        <extensions>
          <gpxtpx:TrackPointExtension xmlns:gpxtpx="http://www.garmin.com/xmlschemas/TrackPointExtension/v1">
            <gpxtpx:hr>150</gpxtpx:hr>
          </gpxtpx:TrackPointExtension>
        </extensions>
      </trkpt>
      <trkpt lat="46.4941" lon="0.28997">
        <ele>135.19999694824</ele>
        <time>2020-06-13T22:01:38.057Z</time>
        <extensions>
          <gpxtpx:TrackPointExtension xmlns:gpxtpx="http://www.garmin.com/xmlschemas/TrackPointExtension/v1">
            <gpxtpx:hr>150</gpxtpx:hr>
          </gpxtpx:TrackPointExtension>
        </extensions>
      </trkpt>
      <trkpt lat="46.49414" lon="0.29002">
        <ele>135.19999694824</ele>
        <time>2020-06-13T22:01:39.073Z</time>
        <extensions>
          <gpxtpx:TrackPointExtension xmlns:gpxtpx="http://www.garmin.com/xmlschemas/TrackPointExtension/v1">
            <gpxtpx:hr>149</gpxtpx:hr>
          </gpxtpx:TrackPointExtension>
        </extensions>
      </trkpt>
      <trkpt lat="46.49418" lon="0.29007">
        <ele>135.39999389648</ele>
        <time>2020-06-13T22:01:40.628Z</time>
        <extensions>
          <gpxtpx:TrackPointExtension xmlns:gpxtpx="http://www.garmin.com/xmlschemas/TrackPointExtension/v1">
            <gpxtpx:hr>149</gpxtpx:hr>
          </gpxtpx:TrackPointExtension>
        </extensions>
      </trkpt>
      <trkpt lat="46.49422" lon="0.29013">
        <ele>135.39999389648</ele>
        <time>2020-06-13T22:01:41.735Z</time>
        <extensions>
          <gpxtpx:TrackPointExtension xmlns:gpxtpx="http://www.garmin.com/xmlschemas/TrackPointExtension/v1">
            <gpxtpx:hr>150</gpxtpx:hr>
          </gpxtpx:TrackPointExtension>
        </extensions>
      </trkpt>
      <trkpt lat="46.49426" lon="0.29019">
        <ele>135.39999389648</ele>
        <time>2020-06-13T22:01:42.841Z</time>
        <extensions>
          <gpxtpx:TrackPointExtension xmlns:gpxtpx="http://www.garmin.com/xmlschemas/TrackPointExtension/v1">
            <gpxtpx:hr>150</gpxtpx:hr>
          </gpxtpx:TrackPointExtension>
        </extensions>
      </trkpt>
      <trkpt lat="46.4943" lon="0.29026">
        <ele>135.39999389648</ele>
        <time>2020-06-13T22:01:44.047Z</time>
        <extensions>
          <gpxtpx:TrackPointExtension xmlns:gpxtpx="http://www.garmin.com/xmlschemas/TrackPointExtension/v1">
            <gpxtpx:hr>151</gpxtpx:hr>
          </gpxtpx:TrackPointExtension>
        </extensions>
      </trkpt>
      <trkpt lat="46.49432" lon="0.29034">
        <ele>135.60000610352</ele>
        <time>2020-06-13T22:01:45.687Z</time>
        <extensions>
          <gpxtpx:TrackPointExtension xmlns:gpxtpx="http://www.garmin.com/xmlschemas/TrackPointExtension/v1">
            <gpxtpx:hr>152</gpxtpx:hr>
          </gpxtpx:TrackPointExtension>
        </extensions>
      </trkpt>
      <trkpt lat="46.49433" lon="0.29043">
        <ele>135.80000305176</ele>
        <time>2020-06-13T22:01:47.393Z</time>
        <extensions>
          <gpxtpx:TrackPointExtension xmlns:gpxtpx="http://www.garmin.com/xmlschemas/TrackPointExtension/v1">
            <gpxtpx:hr>152</gpxtpx:hr>
          </gpxtpx:TrackPointExtension>
        </extensions>
      </trkpt>
      <trkpt lat="46.49438" lon="0.29071">
        <ele>136.19999694824</ele>
        <time>2020-06-13T22:01:52.089Z</time>
        <extensions>
          <gpxtpx:TrackPointExtension xmlns:gpxtpx="http://www.garmin.com/xmlschemas/TrackPointExtension/v1">
            <gpxtpx:hr>153</gpxtpx:hr>
          </gpxtpx:TrackPointExtension>
        </extensions>
      </trkpt>
      <trkpt lat="46.4944" lon="0.2908">
        <ele>136.19999694824</ele>
        <time>2020-06-13T22:01:53.342Z</time>
        <extensions>
          <gpxtpx:TrackPointExtension xmlns:gpxtpx="http://www.garmin.com/xmlschemas/TrackPointExtension/v1">
            <gpxtpx:hr>153</gpxtpx:hr>
          </gpxtpx:TrackPointExtension>
        </extensions>
      </trkpt>
      <trkpt lat="46.49442" lon="0.2909">
        <ele>136.19999694824</ele>
        <time>2020-06-13T22:01:54.721Z</time>
        <extensions>
          <gpxtpx:TrackPointExtension xmlns:gpxtpx="http://www.garmin.com/xmlschemas/TrackPointExtension/v1">
            <gpxtpx:hr>153</gpxtpx:hr>
          </gpxtpx:TrackPointExtension>
        </extensions>
      </trkpt>
      <trkpt lat="46.49445" lon="0.291">
        <ele>136</ele>
        <time>2020-06-13T22:01:55.633Z</time>
        <extensions>
          <gpxtpx:TrackPointExtension xmlns:gpxtpx="http://www.garmin.com/xmlschemas/TrackPointExtension/v1">
            <gpxtpx:hr>153</gpxtpx:hr>
          </gpxtpx:TrackPointExtension>
        </extensions>
      </trkpt>
      <trkpt lat="46.49453" lon="0.29132">
        <ele>135.60000610352</ele>
        <time>2020-06-13T22:01:58.811Z</time>
        <extensions>
          <gpxtpx:TrackPointExtension xmlns:gpxtpx="http://www.garmin.com/xmlschemas/TrackPointExtension/v1">
            <gpxtpx:hr>150</gpxtpx:hr>
          </gpxtpx:TrackPointExtension>
        </extensions>
      </trkpt>
      <trkpt lat="46.49455" lon="0.29144">
        <ele>135.19999694824</ele>
        <time>2020-06-13T22:01:59.656Z</time>
        <extensions>
          <gpxtpx:TrackPointExtension xmlns:gpxtpx="http://www.garmin.com/xmlschemas/TrackPointExtension/v1">
            <gpxtpx:hr>150</gpxtpx:hr>
          </gpxtpx:TrackPointExtension>
        </extensions>
      </trkpt>
      <trkpt lat="46.49456" lon="0.29152">
        <ele>134.39999389648</ele>
        <time>2020-06-13T22:02:00.173Z</time>
        <extensions>
          <gpxtpx:TrackPointExtension xmlns:gpxtpx="http://www.garmin.com/xmlschemas/TrackPointExtension/v1">
            <gpxtpx:hr>148</gpxtpx:hr>
          </gpxtpx:TrackPointExtension>
        </extensions>
      </trkpt>
      <trkpt lat="46.49458" lon="0.29161">
        <ele>134</ele>
        <time>2020-06-13T22:02:00.746Z</time>
        <extensions>
          <gpxtpx:TrackPointExtension xmlns:gpxtpx="http://www.garmin.com/xmlschemas/TrackPointExtension/v1">
            <gpxtpx:hr>148</gpxtpx:hr>
          </gpxtpx:TrackPointExtension>
        </extensions>
      </trkpt>
      <trkpt lat="46.49459" lon="0.29171">
        <ele>133.60000610352</ele>
        <time>2020-06-13T22:02:01.379Z</time>
        <extensions>
          <gpxtpx:TrackPointExtension xmlns:gpxtpx="http://www.garmin.com/xmlschemas/TrackPointExtension/v1">
            <gpxtpx:hr>145</gpxtpx:hr>
          </gpxtpx:TrackPointExtension>
        </extensions>
      </trkpt>
      <trkpt lat="46.49462" lon="0.2918">
        <ele>133.39999389648</ele>
        <time>2020-06-13T22:02:02.193Z</time>
        <extensions>
          <gpxtpx:TrackPointExtension xmlns:gpxtpx="http://www.garmin.com/xmlschemas/TrackPointExtension/v1">
            <gpxtpx:hr>145</gpxtpx:hr>
          </gpxtpx:TrackPointExtension>
        </extensions>
      </trkpt>
      <trkpt lat="46.49465" lon="0.29192">
        <ele>133.19999694824</ele>
        <time>2020-06-13T22:02:03.308Z</time>
        <extensions>
          <gpxtpx:TrackPointExtension xmlns:gpxtpx="http://www.garmin.com/xmlschemas/TrackPointExtension/v1">
            <gpxtpx:hr>144</gpxtpx:hr>
          </gpxtpx:TrackPointExtension>
        </extensions>
      </trkpt>
      <trkpt lat="46.49468" lon="0.29201">
        <ele>132.60000610352</ele>
        <time>2020-06-13T22:02:03.944Z</time>
        <extensions>
          <gpxtpx:TrackPointExtension xmlns:gpxtpx="http://www.garmin.com/xmlschemas/TrackPointExtension/v1">
            <gpxtpx:hr>144</gpxtpx:hr>
          </gpxtpx:TrackPointExtension>
        </extensions>
      </trkpt>
      <trkpt lat="46.4947" lon="0.29212">
        <ele>132.19999694824</ele>
        <time>2020-06-13T22:02:04.695Z</time>
        <extensions>
          <gpxtpx:TrackPointExtension xmlns:gpxtpx="http://www.garmin.com/xmlschemas/TrackPointExtension/v1">
            <gpxtpx:hr>144</gpxtpx:hr>
          </gpxtpx:TrackPointExtension>
        </extensions>
      </trkpt>
      <trkpt lat="46.49477" lon="0.29245">
        <ele>131</ele>
        <time>2020-06-13T22:02:06.988Z</time>
        <extensions>
          <gpxtpx:TrackPointExtension xmlns:gpxtpx="http://www.garmin.com/xmlschemas/TrackPointExtension/v1">
            <gpxtpx:hr>143</gpxtpx:hr>
          </gpxtpx:TrackPointExtension>
        </extensions>
      </trkpt>
      <trkpt lat="46.49482" lon="0.29277">
        <ele>130.80000305176</ele>
        <time>2020-06-13T22:02:10.389Z</time>
        <extensions>
          <gpxtpx:TrackPointExtension xmlns:gpxtpx="http://www.garmin.com/xmlschemas/TrackPointExtension/v1">
            <gpxtpx:hr>143</gpxtpx:hr>
          </gpxtpx:TrackPointExtension>
        </extensions>
      </trkpt>
      <trkpt lat="46.49483" lon="0.29286">
        <ele>130.80000305176</ele>
        <time>2020-06-13T22:02:11.597Z</time>
        <extensions>
          <gpxtpx:TrackPointExtension xmlns:gpxtpx="http://www.garmin.com/xmlschemas/TrackPointExtension/v1">
            <gpxtpx:hr>145</gpxtpx:hr>
          </gpxtpx:TrackPointExtension>
        </extensions>
      </trkpt>
      <trkpt lat="46.49484" lon="0.29295">
        <ele>130.80000305176</ele>
        <time>2020-06-13T22:02:12.805Z</time>
        <extensions>
          <gpxtpx:TrackPointExtension xmlns:gpxtpx="http://www.garmin.com/xmlschemas/TrackPointExtension/v1">
            <gpxtpx:hr>145</gpxtpx:hr>
          </gpxtpx:TrackPointExtension>
        </extensions>
      </trkpt>
      <trkpt lat="46.49486" lon="0.29304">
        <ele>131.60000610352</ele>
        <time>2020-06-13T22:02:16.998Z</time>
        <extensions>
          <gpxtpx:TrackPointExtension xmlns:gpxtpx="http://www.garmin.com/xmlschemas/TrackPointExtension/v1">
            <gpxtpx:hr>147</gpxtpx:hr>
          </gpxtpx:TrackPointExtension>
        </extensions>
      </trkpt>
      <trkpt lat="46.49487" lon="0.29313">
        <ele>132</ele>
        <time>2020-06-13T22:02:19.318Z</time>
        <extensions>
          <gpxtpx:TrackPointExtension xmlns:gpxtpx="http://www.garmin.com/xmlschemas/TrackPointExtension/v1">
            <gpxtpx:hr>147</gpxtpx:hr>
          </gpxtpx:TrackPointExtension>
        </extensions>
      </trkpt>
      <trkpt lat="46.49488" lon="0.29322">
        <ele>132.39999389648</ele>
        <time>2020-06-13T22:02:21.639Z</time>
        <extensions>
          <gpxtpx:TrackPointExtension xmlns:gpxtpx="http://www.garmin.com/xmlschemas/TrackPointExtension/v1">
            <gpxtpx:hr>149</gpxtpx:hr>
          </gpxtpx:TrackPointExtension>
        </extensions>
      </trkpt>
      <trkpt lat="46.49489" lon="0.2933">
        <ele>132.60000610352</ele>
        <time>2020-06-13T22:02:23.240Z</time>
        <extensions>
          <gpxtpx:TrackPointExtension xmlns:gpxtpx="http://www.garmin.com/xmlschemas/TrackPointExtension/v1">
            <gpxtpx:hr>149</gpxtpx:hr>
          </gpxtpx:TrackPointExtension>
        </extensions>
      </trkpt>
      <trkpt lat="46.49491" lon="0.29339">
        <ele>133.39999389648</ele>
        <time>2020-06-13T22:02:27.433Z</time>
        <extensions>
          <gpxtpx:TrackPointExtension xmlns:gpxtpx="http://www.garmin.com/xmlschemas/TrackPointExtension/v1">
            <gpxtpx:hr>151</gpxtpx:hr>
          </gpxtpx:TrackPointExtension>
        </extensions>
      </trkpt>
      <trkpt lat="46.49492" lon="0.29348">
        <ele>133.80000305176</ele>
        <time>2020-06-13T22:02:29.754Z</time>
        <extensions>
          <gpxtpx:TrackPointExtension xmlns:gpxtpx="http://www.garmin.com/xmlschemas/TrackPointExtension/v1">
            <gpxtpx:hr>151</gpxtpx:hr>
          </gpxtpx:TrackPointExtension>
        </extensions>
      </trkpt>
      <trkpt lat="46.49492" lon="0.29348">
        <ele>134.60000610352</ele>
        <time>2020-06-13T22:02:29.754Z</time>
        <extensions>
          <gpxtpx:TrackPointExtension xmlns:gpxtpx="http://www.garmin.com/xmlschemas/TrackPointExtension/v1">
            <gpxtpx:hr>154</gpxtpx:hr>
          </gpxtpx:TrackPointExtension>
        </extensions>
      </trkpt>
      <trkpt lat="46.49494" lon="0.29358">
        <ele>135.19999694824</ele>
        <time>2020-06-13T22:02:32.849Z</time>
        <extensions>
          <gpxtpx:TrackPointExtension xmlns:gpxtpx="http://www.garmin.com/xmlschemas/TrackPointExtension/v1">
            <gpxtpx:hr>154</gpxtpx:hr>
          </gpxtpx:TrackPointExtension>
        </extensions>
      </trkpt>
      <trkpt lat="46.49495" lon="0.29376">
        <ele>135.39999389648</ele>
        <time>2020-06-13T22:02:35.655Z</time>
        <extensions>
          <gpxtpx:TrackPointExtension xmlns:gpxtpx="http://www.garmin.com/xmlschemas/TrackPointExtension/v1">
            <gpxtpx:hr>156</gpxtpx:hr>
          </gpxtpx:TrackPointExtension>
        </extensions>
      </trkpt>
      <trkpt lat="46.49496" lon="0.29385">
        <ele>136</ele>
        <time>2020-06-13T22:02:38.667Z</time>
        <extensions>
          <gpxtpx:TrackPointExtension xmlns:gpxtpx="http://www.garmin.com/xmlschemas/TrackPointExtension/v1">
            <gpxtpx:hr>156</gpxtpx:hr>
          </gpxtpx:TrackPointExtension>
        </extensions>
      </trkpt>
      <trkpt lat="46.49496" lon="0.29394">
        <ele>136.19999694824</ele>
        <time>2020-06-13T22:02:40.360Z</time>
        <extensions>
          <gpxtpx:TrackPointExtension xmlns:gpxtpx="http://www.garmin.com/xmlschemas/TrackPointExtension/v1">
            <gpxtpx:hr>158</gpxtpx:hr>
          </gpxtpx:TrackPointExtension>
        </extensions>
      </trkpt>
      <trkpt lat="46.49496" lon="0.29394">
        <ele>136.60000610352</ele>
        <time>2020-06-13T22:02:40.360Z</time>
        <extensions>
          <gpxtpx:TrackPointExtension xmlns:gpxtpx="http://www.garmin.com/xmlschemas/TrackPointExtension/v1">
            <gpxtpx:hr>158</gpxtpx:hr>
          </gpxtpx:TrackPointExtension>
        </extensions>
      </trkpt>
      <trkpt lat="46.49498" lon="0.29412">
        <ele>136.80000305176</ele>
        <time>2020-06-13T22:02:43.188Z</time>
        <extensions>
          <gpxtpx:TrackPointExtension xmlns:gpxtpx="http://www.garmin.com/xmlschemas/TrackPointExtension/v1">
            <gpxtpx:hr>159</gpxtpx:hr>
          </gpxtpx:TrackPointExtension>
        </extensions>
      </trkpt>
      <trkpt lat="46.49499" lon="0.29421">
        <ele>137.19999694824</ele>
        <time>2020-06-13T22:02:45.508Z</time>
        <extensions>
          <gpxtpx:TrackPointExtension xmlns:gpxtpx="http://www.garmin.com/xmlschemas/TrackPointExtension/v1">
            <gpxtpx:hr>160</gpxtpx:hr>
          </gpxtpx:TrackPointExtension>
        </extensions>
      </trkpt>
      <trkpt lat="46.49499" lon="0.2943">
        <ele>137.60000610352</ele>
        <time>2020-06-13T22:02:47.813Z</time>
        <extensions>
          <gpxtpx:TrackPointExtension xmlns:gpxtpx="http://www.garmin.com/xmlschemas/TrackPointExtension/v1">
            <gpxtpx:hr>160</gpxtpx:hr>
          </gpxtpx:TrackPointExtension>
        </extensions>
      </trkpt>
      <trkpt lat="46.49499" lon="0.29439">
        <ele>137.80000305176</ele>
        <time>2020-06-13T22:02:49.506Z</time>
        <extensions>
          <gpxtpx:TrackPointExtension xmlns:gpxtpx="http://www.garmin.com/xmlschemas/TrackPointExtension/v1">
            <gpxtpx:hr>162</gpxtpx:hr>
          </gpxtpx:TrackPointExtension>
        </extensions>
      </trkpt>
      <trkpt lat="46.49499" lon="0.29448">
        <ele>138.39999389648</ele>
        <time>2020-06-13T22:02:52.514Z</time>
        <extensions>
          <gpxtpx:TrackPointExtension xmlns:gpxtpx="http://www.garmin.com/xmlschemas/TrackPointExtension/v1">
            <gpxtpx:hr>162</gpxtpx:hr>
          </gpxtpx:TrackPointExtension>
        </extensions>
      </trkpt>
      <trkpt lat="46.49498" lon="0.29457">
        <ele>138.60000610352</ele>
        <time>2020-06-13T22:02:54.220Z</time>
        <extensions>
          <gpxtpx:TrackPointExtension xmlns:gpxtpx="http://www.garmin.com/xmlschemas/TrackPointExtension/v1">
            <gpxtpx:hr>162</gpxtpx:hr>
          </gpxtpx:TrackPointExtension>
        </extensions>
      </trkpt>
      <trkpt lat="46.49497" lon="0.29465">
        <ele>139.19999694824</ele>
        <time>2020-06-13T22:02:57.232Z</time>
        <extensions>
          <gpxtpx:TrackPointExtension xmlns:gpxtpx="http://www.garmin.com/xmlschemas/TrackPointExtension/v1">
            <gpxtpx:hr>162</gpxtpx:hr>
          </gpxtpx:TrackPointExtension>
        </extensions>
      </trkpt>
      <trkpt lat="46.49496" lon="0.29474">
        <ele>139.39999389648</ele>
        <time>2020-06-13T22:02:58.937Z</time>
        <extensions>
          <gpxtpx:TrackPointExtension xmlns:gpxtpx="http://www.garmin.com/xmlschemas/TrackPointExtension/v1">
            <gpxtpx:hr>163</gpxtpx:hr>
          </gpxtpx:TrackPointExtension>
        </extensions>
      </trkpt>
      <trkpt lat="46.49495" lon="0.29482">
        <ele>139.60000610352</ele>
        <time>2020-06-13T22:03:00.539Z</time>
        <extensions>
          <gpxtpx:TrackPointExtension xmlns:gpxtpx="http://www.garmin.com/xmlschemas/TrackPointExtension/v1">
            <gpxtpx:hr>163</gpxtpx:hr>
          </gpxtpx:TrackPointExtension>
        </extensions>
      </trkpt>
      <trkpt lat="46.49494" lon="0.29491">
        <ele>139.80000305176</ele>
        <time>2020-06-13T22:03:02.244Z</time>
        <extensions>
          <gpxtpx:TrackPointExtension xmlns:gpxtpx="http://www.garmin.com/xmlschemas/TrackPointExtension/v1">
            <gpxtpx:hr>164</gpxtpx:hr>
          </gpxtpx:TrackPointExtension>
        </extensions>
      </trkpt>
      <trkpt lat="46.49493" lon="0.295">
        <ele>140</ele>
        <time>2020-06-13T22:03:03.950Z</time>
        <extensions>
          <gpxtpx:TrackPointExtension xmlns:gpxtpx="http://www.garmin.com/xmlschemas/TrackPointExtension/v1">
            <gpxtpx:hr>164</gpxtpx:hr>
          </gpxtpx:TrackPointExtension>
        </extensions>
      </trkpt>
      <trkpt lat="46.49493" lon="0.2951">
        <ele>140</ele>
        <time>2020-06-13T22:03:05.275Z</time>
        <extensions>
          <gpxtpx:TrackPointExtension xmlns:gpxtpx="http://www.garmin.com/xmlschemas/TrackPointExtension/v1">
            <gpxtpx:hr>165</gpxtpx:hr>
          </gpxtpx:TrackPointExtension>
        </extensions>
      </trkpt>
      <trkpt lat="46.49492" lon="0.2952">
        <ele>140</ele>
        <time>2020-06-13T22:03:06.613Z</time>
        <extensions>
          <gpxtpx:TrackPointExtension xmlns:gpxtpx="http://www.garmin.com/xmlschemas/TrackPointExtension/v1">
            <gpxtpx:hr>165</gpxtpx:hr>
          </gpxtpx:TrackPointExtension>
        </extensions>
      </trkpt>
      <trkpt lat="46.49491" lon="0.29531">
        <ele>140.19999694824</ele>
        <time>2020-06-13T22:03:08.547Z</time>
        <extensions>
          <gpxtpx:TrackPointExtension xmlns:gpxtpx="http://www.garmin.com/xmlschemas/TrackPointExtension/v1">
            <gpxtpx:hr>165</gpxtpx:hr>
          </gpxtpx:TrackPointExtension>
        </extensions>
      </trkpt>
      <trkpt lat="46.4949" lon="0.29541">
        <ele>140.19999694824</ele>
        <time>2020-06-13T22:03:09.886Z</time>
        <extensions>
          <gpxtpx:TrackPointExtension xmlns:gpxtpx="http://www.garmin.com/xmlschemas/TrackPointExtension/v1">
            <gpxtpx:hr>165</gpxtpx:hr>
          </gpxtpx:TrackPointExtension>
        </extensions>
      </trkpt>
      <trkpt lat="46.49489" lon="0.2955">
        <ele>140.39999389648</ele>
        <time>2020-06-13T22:03:11.591Z</time>
        <extensions>
          <gpxtpx:TrackPointExtension xmlns:gpxtpx="http://www.garmin.com/xmlschemas/TrackPointExtension/v1">
            <gpxtpx:hr>166</gpxtpx:hr>
          </gpxtpx:TrackPointExtension>
        </extensions>
      </trkpt>
      <trkpt lat="46.49487" lon="0.29558">
        <ele>140.39999389648</ele>
        <time>2020-06-13T22:03:12.719Z</time>
        <extensions>
          <gpxtpx:TrackPointExtension xmlns:gpxtpx="http://www.garmin.com/xmlschemas/TrackPointExtension/v1">
            <gpxtpx:hr>166</gpxtpx:hr>
          </gpxtpx:TrackPointExtension>
        </extensions>
      </trkpt>
      <trkpt lat="46.49486" lon="0.29567">
        <ele>140.39999389648</ele>
        <time>2020-06-13T22:03:13.926Z</time>
        <extensions>
          <gpxtpx:TrackPointExtension xmlns:gpxtpx="http://www.garmin.com/xmlschemas/TrackPointExtension/v1">
            <gpxtpx:hr>166</gpxtpx:hr>
          </gpxtpx:TrackPointExtension>
        </extensions>
      </trkpt>
      <trkpt lat="46.49485" lon="0.29575">
        <ele>140.39999389648</ele>
        <time>2020-06-13T22:03:15.004Z</time>
        <extensions>
          <gpxtpx:TrackPointExtension xmlns:gpxtpx="http://www.garmin.com/xmlschemas/TrackPointExtension/v1">
            <gpxtpx:hr>166</gpxtpx:hr>
          </gpxtpx:TrackPointExtension>
        </extensions>
      </trkpt>
      <trkpt lat="46.49483" lon="0.29585">
        <ele>140.39999389648</ele>
        <time>2020-06-13T22:03:16.383Z</time>
        <extensions>
          <gpxtpx:TrackPointExtension xmlns:gpxtpx="http://www.garmin.com/xmlschemas/TrackPointExtension/v1">
            <gpxtpx:hr>166</gpxtpx:hr>
          </gpxtpx:TrackPointExtension>
        </extensions>
      </trkpt>
      <trkpt lat="46.49479" lon="0.29617">
        <ele>140.39999389648</ele>
        <time>2020-06-13T22:03:20.692Z</time>
        <extensions>
          <gpxtpx:TrackPointExtension xmlns:gpxtpx="http://www.garmin.com/xmlschemas/TrackPointExtension/v1">
            <gpxtpx:hr>166</gpxtpx:hr>
          </gpxtpx:TrackPointExtension>
        </extensions>
      </trkpt>
      <trkpt lat="46.49477" lon="0.2964">
        <ele>140.19999694824</ele>
        <time>2020-06-13T22:03:22.982Z</time>
        <extensions>
          <gpxtpx:TrackPointExtension xmlns:gpxtpx="http://www.garmin.com/xmlschemas/TrackPointExtension/v1">
            <gpxtpx:hr>166</gpxtpx:hr>
          </gpxtpx:TrackPointExtension>
        </extensions>
      </trkpt>
      <trkpt lat="46.49473" lon="0.29685">
        <ele>139.19999694824</ele>
        <time>2020-06-13T22:03:26.566Z</time>
        <extensions>
          <gpxtpx:TrackPointExtension xmlns:gpxtpx="http://www.garmin.com/xmlschemas/TrackPointExtension/v1">
            <gpxtpx:hr>165</gpxtpx:hr>
          </gpxtpx:TrackPointExtension>
        </extensions>
      </trkpt>
      <trkpt lat="46.49468" lon="0.29719">
        <ele>138.19999694824</ele>
        <time>2020-06-13T22:03:29.061Z</time>
        <extensions>
          <gpxtpx:TrackPointExtension xmlns:gpxtpx="http://www.garmin.com/xmlschemas/TrackPointExtension/v1">
            <gpxtpx:hr>164</gpxtpx:hr>
          </gpxtpx:TrackPointExtension>
        </extensions>
      </trkpt>
      <trkpt lat="46.49466" lon="0.29729">
        <ele>137.39999389648</ele>
        <time>2020-06-13T22:03:29.723Z</time>
        <extensions>
          <gpxtpx:TrackPointExtension xmlns:gpxtpx="http://www.garmin.com/xmlschemas/TrackPointExtension/v1">
            <gpxtpx:hr>163</gpxtpx:hr>
          </gpxtpx:TrackPointExtension>
        </extensions>
      </trkpt>
      <trkpt lat="46.49463" lon="0.29749">
        <ele>137</ele>
        <time>2020-06-13T22:03:31.403Z</time>
        <extensions>
          <gpxtpx:TrackPointExtension xmlns:gpxtpx="http://www.garmin.com/xmlschemas/TrackPointExtension/v1">
            <gpxtpx:hr>162</gpxtpx:hr>
          </gpxtpx:TrackPointExtension>
        </extensions>
      </trkpt>
      <trkpt lat="46.49459" lon="0.29772">
        <ele>136.60000610352</ele>
        <time>2020-06-13T22:03:33.434Z</time>
        <extensions>
          <gpxtpx:TrackPointExtension xmlns:gpxtpx="http://www.garmin.com/xmlschemas/TrackPointExtension/v1">
            <gpxtpx:hr>159</gpxtpx:hr>
          </gpxtpx:TrackPointExtension>
        </extensions>
      </trkpt>
      <trkpt lat="46.49459" lon="0.29784">
        <ele>136.19999694824</ele>
        <time>2020-06-13T22:03:34.245Z</time>
        <extensions>
          <gpxtpx:TrackPointExtension xmlns:gpxtpx="http://www.garmin.com/xmlschemas/TrackPointExtension/v1">
            <gpxtpx:hr>159</gpxtpx:hr>
          </gpxtpx:TrackPointExtension>
        </extensions>
      </trkpt>
      <trkpt lat="46.49457" lon="0.29794">
        <ele>136</ele>
        <time>2020-06-13T22:03:35.104Z</time>
        <extensions>
          <gpxtpx:TrackPointExtension xmlns:gpxtpx="http://www.garmin.com/xmlschemas/TrackPointExtension/v1">
            <gpxtpx:hr>155</gpxtpx:hr>
          </gpxtpx:TrackPointExtension>
        </extensions>
      </trkpt>
      <trkpt lat="46.49456" lon="0.29804">
        <ele>135.60000610352</ele>
        <time>2020-06-13T22:03:35.736Z</time>
        <extensions>
          <gpxtpx:TrackPointExtension xmlns:gpxtpx="http://www.garmin.com/xmlschemas/TrackPointExtension/v1">
            <gpxtpx:hr>155</gpxtpx:hr>
          </gpxtpx:TrackPointExtension>
        </extensions>
      </trkpt>
      <trkpt lat="46.49455" lon="0.29815">
        <ele>135.60000610352</ele>
        <time>2020-06-13T22:03:37.206Z</time>
        <extensions>
          <gpxtpx:TrackPointExtension xmlns:gpxtpx="http://www.garmin.com/xmlschemas/TrackPointExtension/v1">
            <gpxtpx:hr>153</gpxtpx:hr>
          </gpxtpx:TrackPointExtension>
        </extensions>
      </trkpt>
      <trkpt lat="46.49455" lon="0.29827">
        <ele>135.39999389648</ele>
        <time>2020-06-13T22:03:38.237Z</time>
        <extensions>
          <gpxtpx:TrackPointExtension xmlns:gpxtpx="http://www.garmin.com/xmlschemas/TrackPointExtension/v1">
            <gpxtpx:hr>153</gpxtpx:hr>
          </gpxtpx:TrackPointExtension>
        </extensions>
      </trkpt>
      <trkpt lat="46.49454" lon="0.29838">
        <ele>135.39999389648</ele>
        <time>2020-06-13T22:03:39.707Z</time>
        <extensions>
          <gpxtpx:TrackPointExtension xmlns:gpxtpx="http://www.garmin.com/xmlschemas/TrackPointExtension/v1">
            <gpxtpx:hr>151</gpxtpx:hr>
          </gpxtpx:TrackPointExtension>
        </extensions>
      </trkpt>
      <trkpt lat="46.49453" lon="0.29851">
        <ele>135.39999389648</ele>
        <time>2020-06-13T22:03:41.440Z</time>
        <extensions>
          <gpxtpx:TrackPointExtension xmlns:gpxtpx="http://www.garmin.com/xmlschemas/TrackPointExtension/v1">
            <gpxtpx:hr>151</gpxtpx:hr>
          </gpxtpx:TrackPointExtension>
        </extensions>
      </trkpt>
      <trkpt lat="46.4945" lon="0.29872">
        <ele>135.39999389648</ele>
        <time>2020-06-13T22:03:44.281Z</time>
        <extensions>
          <gpxtpx:TrackPointExtension xmlns:gpxtpx="http://www.garmin.com/xmlschemas/TrackPointExtension/v1">
            <gpxtpx:hr>147</gpxtpx:hr>
          </gpxtpx:TrackPointExtension>
        </extensions>
      </trkpt>
      <trkpt lat="46.49445" lon="0.29905">
        <ele>135.19999694824</ele>
        <time>2020-06-13T22:03:47.796Z</time>
        <extensions>
          <gpxtpx:TrackPointExtension xmlns:gpxtpx="http://www.garmin.com/xmlschemas/TrackPointExtension/v1">
            <gpxtpx:hr>146</gpxtpx:hr>
          </gpxtpx:TrackPointExtension>
        </extensions>
      </trkpt>
      <trkpt lat="46.49442" lon="0.29923">
        <ele>135.19999694824</ele>
        <time>2020-06-13T22:03:50.250Z</time>
        <extensions>
          <gpxtpx:TrackPointExtension xmlns:gpxtpx="http://www.garmin.com/xmlschemas/TrackPointExtension/v1">
            <gpxtpx:hr>145</gpxtpx:hr>
          </gpxtpx:TrackPointExtension>
        </extensions>
      </trkpt>
      <trkpt lat="46.4944" lon="0.29933">
        <ele>135.19999694824</ele>
        <time>2020-06-13T22:03:51.629Z</time>
        <extensions>
          <gpxtpx:TrackPointExtension xmlns:gpxtpx="http://www.garmin.com/xmlschemas/TrackPointExtension/v1">
            <gpxtpx:hr>145</gpxtpx:hr>
          </gpxtpx:TrackPointExtension>
        </extensions>
      </trkpt>
      <trkpt lat="46.49438" lon="0.29941">
        <ele>135.19999694824</ele>
        <time>2020-06-13T22:03:52.757Z</time>
        <extensions>
          <gpxtpx:TrackPointExtension xmlns:gpxtpx="http://www.garmin.com/xmlschemas/TrackPointExtension/v1">
            <gpxtpx:hr>145</gpxtpx:hr>
          </gpxtpx:TrackPointExtension>
        </extensions>
      </trkpt>
      <trkpt lat="46.49435" lon="0.29949">
        <ele>135.19999694824</ele>
        <time>2020-06-13T22:03:53.964Z</time>
        <extensions>
          <gpxtpx:TrackPointExtension xmlns:gpxtpx="http://www.garmin.com/xmlschemas/TrackPointExtension/v1">
            <gpxtpx:hr>146</gpxtpx:hr>
          </gpxtpx:TrackPointExtension>
        </extensions>
      </trkpt>
      <trkpt lat="46.49433" lon="0.29956">
        <ele>135.39999389648</ele>
        <time>2020-06-13T22:03:55.511Z</time>
        <extensions>
          <gpxtpx:TrackPointExtension xmlns:gpxtpx="http://www.garmin.com/xmlschemas/TrackPointExtension/v1">
            <gpxtpx:hr>146</gpxtpx:hr>
          </gpxtpx:TrackPointExtension>
        </extensions>
      </trkpt>
      <trkpt lat="46.49431" lon="0.29964">
        <ele>135.60000610352</ele>
        <time>2020-06-13T22:03:57.152Z</time>
        <extensions>
          <gpxtpx:TrackPointExtension xmlns:gpxtpx="http://www.garmin.com/xmlschemas/TrackPointExtension/v1">
            <gpxtpx:hr>148</gpxtpx:hr>
          </gpxtpx:TrackPointExtension>
        </extensions>
      </trkpt>
      <trkpt lat="46.49429" lon="0.29971">
        <ele>136.19999694824</ele>
        <time>2020-06-13T22:04:00.210Z</time>
        <extensions>
          <gpxtpx:TrackPointExtension xmlns:gpxtpx="http://www.garmin.com/xmlschemas/TrackPointExtension/v1">
            <gpxtpx:hr>148</gpxtpx:hr>
          </gpxtpx:TrackPointExtension>
        </extensions>
      </trkpt>
      <trkpt lat="46.49427" lon="0.29978">
        <ele>136.60000610352</ele>
        <time>2020-06-13T22:04:02.337Z</time>
        <extensions>
          <gpxtpx:TrackPointExtension xmlns:gpxtpx="http://www.garmin.com/xmlschemas/TrackPointExtension/v1">
            <gpxtpx:hr>150</gpxtpx:hr>
          </gpxtpx:TrackPointExtension>
        </extensions>
      </trkpt>
      <trkpt lat="46.49424" lon="0.29984">
        <ele>137</ele>
        <time>2020-06-13T22:04:04.447Z</time>
        <extensions>
          <gpxtpx:TrackPointExtension xmlns:gpxtpx="http://www.garmin.com/xmlschemas/TrackPointExtension/v1">
            <gpxtpx:hr>150</gpxtpx:hr>
          </gpxtpx:TrackPointExtension>
        </extensions>
      </trkpt>
      <trkpt lat="46.49421" lon="0.2999">
        <ele>137.19999694824</ele>
        <time>2020-06-13T22:04:05.979Z</time>
        <extensions>
          <gpxtpx:TrackPointExtension xmlns:gpxtpx="http://www.garmin.com/xmlschemas/TrackPointExtension/v1">
            <gpxtpx:hr>153</gpxtpx:hr>
          </gpxtpx:TrackPointExtension>
        </extensions>
      </trkpt>
      <trkpt lat="46.49421" lon="0.2999">
        <ele>137.39999389648</ele>
        <time>2020-06-13T22:04:05.979Z</time>
        <extensions>
          <gpxtpx:TrackPointExtension xmlns:gpxtpx="http://www.garmin.com/xmlschemas/TrackPointExtension/v1">
            <gpxtpx:hr>153</gpxtpx:hr>
          </gpxtpx:TrackPointExtension>
        </extensions>
      </trkpt>
      <trkpt lat="46.49415" lon="0.30005">
        <ele>137.60000610352</ele>
        <time>2020-06-13T22:04:08.694Z</time>
        <extensions>
          <gpxtpx:TrackPointExtension xmlns:gpxtpx="http://www.garmin.com/xmlschemas/TrackPointExtension/v1">
            <gpxtpx:hr>156</gpxtpx:hr>
          </gpxtpx:TrackPointExtension>
        </extensions>
      </trkpt>
      <trkpt lat="46.49412" lon="0.30012">
        <ele>137.80000305176</ele>
        <time>2020-06-13T22:04:10.306Z</time>
        <extensions>
          <gpxtpx:TrackPointExtension xmlns:gpxtpx="http://www.garmin.com/xmlschemas/TrackPointExtension/v1">
            <gpxtpx:hr>156</gpxtpx:hr>
          </gpxtpx:TrackPointExtension>
        </extensions>
      </trkpt>
      <trkpt lat="46.49409" lon="0.30019">
        <ele>138</ele>
        <time>2020-06-13T22:04:11.919Z</time>
        <extensions>
          <gpxtpx:TrackPointExtension xmlns:gpxtpx="http://www.garmin.com/xmlschemas/TrackPointExtension/v1">
            <gpxtpx:hr>157</gpxtpx:hr>
          </gpxtpx:TrackPointExtension>
        </extensions>
      </trkpt>
      <trkpt lat="46.49409" lon="0.30019">
        <ele>138.19999694824</ele>
        <time>2020-06-13T22:04:11.919Z</time>
        <extensions>
          <gpxtpx:TrackPointExtension xmlns:gpxtpx="http://www.garmin.com/xmlschemas/TrackPointExtension/v1">
            <gpxtpx:hr>157</gpxtpx:hr>
          </gpxtpx:TrackPointExtension>
        </extensions>
      </trkpt>
      <trkpt lat="46.49403" lon="0.30032">
        <ele>138.60000610352</ele>
        <time>2020-06-13T22:04:15.061Z</time>
        <extensions>
          <gpxtpx:TrackPointExtension xmlns:gpxtpx="http://www.garmin.com/xmlschemas/TrackPointExtension/v1">
            <gpxtpx:hr>158</gpxtpx:hr>
          </gpxtpx:TrackPointExtension>
        </extensions>
      </trkpt>
      <trkpt lat="46.494" lon="0.30038">
        <ele>138.80000305176</ele>
        <time>2020-06-13T22:04:16.593Z</time>
        <extensions>
          <gpxtpx:TrackPointExtension xmlns:gpxtpx="http://www.garmin.com/xmlschemas/TrackPointExtension/v1">
            <gpxtpx:hr>158</gpxtpx:hr>
          </gpxtpx:TrackPointExtension>
        </extensions>
      </trkpt>
      <trkpt lat="46.49399" lon="0.30044">
        <ele>139</ele>
        <time>2020-06-13T22:04:17.997Z</time>
        <extensions>
          <gpxtpx:TrackPointExtension xmlns:gpxtpx="http://www.garmin.com/xmlschemas/TrackPointExtension/v1">
            <gpxtpx:hr>158</gpxtpx:hr>
          </gpxtpx:TrackPointExtension>
        </extensions>
      </trkpt>
      <trkpt lat="46.49399" lon="0.30048">
        <ele>139.19999694824</ele>
        <time>2020-06-13T22:04:19.084Z</time>
        <extensions>
          <gpxtpx:TrackPointExtension xmlns:gpxtpx="http://www.garmin.com/xmlschemas/TrackPointExtension/v1">
            <gpxtpx:hr>158</gpxtpx:hr>
          </gpxtpx:TrackPointExtension>
        </extensions>
      </trkpt>
      <trkpt lat="46.494" lon="0.30051">
        <ele>139.39999389648</ele>
        <time>2020-06-13T22:04:20.105Z</time>
        <extensions>
          <gpxtpx:TrackPointExtension xmlns:gpxtpx="http://www.garmin.com/xmlschemas/TrackPointExtension/v1">
            <gpxtpx:hr>158</gpxtpx:hr>
          </gpxtpx:TrackPointExtension>
        </extensions>
      </trkpt>
      <trkpt lat="46.49403" lon="0.30052">
        <ele>139.39999389648</ele>
        <time>2020-06-13T22:04:20.697Z</time>
        <extensions>
          <gpxtpx:TrackPointExtension xmlns:gpxtpx="http://www.garmin.com/xmlschemas/TrackPointExtension/v1">
            <gpxtpx:hr>158</gpxtpx:hr>
          </gpxtpx:TrackPointExtension>
        </extensions>
      </trkpt>
      <trkpt lat="46.49406" lon="0.30052">
        <ele>139.60000610352</ele>
        <time>2020-06-13T22:04:21.831Z</time>
        <extensions>
          <gpxtpx:TrackPointExtension xmlns:gpxtpx="http://www.garmin.com/xmlschemas/TrackPointExtension/v1">
            <gpxtpx:hr>158</gpxtpx:hr>
          </gpxtpx:TrackPointExtension>
        </extensions>
      </trkpt>
      <trkpt lat="46.49408" lon="0.30054">
        <ele>139.80000305176</ele>
        <time>2020-06-13T22:04:22.868Z</time>
        <extensions>
          <gpxtpx:TrackPointExtension xmlns:gpxtpx="http://www.garmin.com/xmlschemas/TrackPointExtension/v1">
            <gpxtpx:hr>157</gpxtpx:hr>
          </gpxtpx:TrackPointExtension>
        </extensions>
      </trkpt>
      <trkpt lat="46.4941" lon="0.30058">
        <ele>140</ele>
        <time>2020-06-13T22:04:24.082Z</time>
        <extensions>
          <gpxtpx:TrackPointExtension xmlns:gpxtpx="http://www.garmin.com/xmlschemas/TrackPointExtension/v1">
            <gpxtpx:hr>157</gpxtpx:hr>
          </gpxtpx:TrackPointExtension>
        </extensions>
      </trkpt>
      <trkpt lat="46.49413" lon="0.30062">
        <ele>140.19999694824</ele>
        <time>2020-06-13T22:04:25.445Z</time>
        <extensions>
          <gpxtpx:TrackPointExtension xmlns:gpxtpx="http://www.garmin.com/xmlschemas/TrackPointExtension/v1">
            <gpxtpx:hr>154</gpxtpx:hr>
          </gpxtpx:TrackPointExtension>
        </extensions>
      </trkpt>
      <trkpt lat="46.49413" lon="0.30062">
        <ele>140.19999694824</ele>
        <time>2020-06-13T22:04:25.445Z</time>
        <extensions>
          <gpxtpx:TrackPointExtension xmlns:gpxtpx="http://www.garmin.com/xmlschemas/TrackPointExtension/v1">
            <gpxtpx:hr>154</gpxtpx:hr>
          </gpxtpx:TrackPointExtension>
        </extensions>
      </trkpt>
      <trkpt lat="46.4942" lon="0.30062">
        <ele>140.19999694824</ele>
        <time>2020-06-13T22:04:26.792Z</time>
        <extensions>
          <gpxtpx:TrackPointExtension xmlns:gpxtpx="http://www.garmin.com/xmlschemas/TrackPointExtension/v1">
            <gpxtpx:hr>153</gpxtpx:hr>
          </gpxtpx:TrackPointExtension>
        </extensions>
      </trkpt>
      <trkpt lat="46.49425" lon="0.30061">
        <ele>140.19999694824</ele>
        <time>2020-06-13T22:04:27.763Z</time>
        <extensions>
          <gpxtpx:TrackPointExtension xmlns:gpxtpx="http://www.garmin.com/xmlschemas/TrackPointExtension/v1">
            <gpxtpx:hr>153</gpxtpx:hr>
          </gpxtpx:TrackPointExtension>
        </extensions>
      </trkpt>
      <trkpt lat="46.49431" lon="0.30059">
        <ele>140.19999694824</ele>
        <time>2020-06-13T22:04:28.948Z</time>
        <extensions>
          <gpxtpx:TrackPointExtension xmlns:gpxtpx="http://www.garmin.com/xmlschemas/TrackPointExtension/v1">
            <gpxtpx:hr>152</gpxtpx:hr>
          </gpxtpx:TrackPointExtension>
        </extensions>
      </trkpt>
      <trkpt lat="46.49437" lon="0.30058">
        <ele>140.19999694824</ele>
        <time>2020-06-13T22:04:30.110Z</time>
        <extensions>
          <gpxtpx:TrackPointExtension xmlns:gpxtpx="http://www.garmin.com/xmlschemas/TrackPointExtension/v1">
            <gpxtpx:hr>152</gpxtpx:hr>
          </gpxtpx:TrackPointExtension>
        </extensions>
      </trkpt>
      <trkpt lat="46.4945" lon="0.30058">
        <ele>140</ele>
        <time>2020-06-13T22:04:31.909Z</time>
        <extensions>
          <gpxtpx:TrackPointExtension xmlns:gpxtpx="http://www.garmin.com/xmlschemas/TrackPointExtension/v1">
            <gpxtpx:hr>152</gpxtpx:hr>
          </gpxtpx:TrackPointExtension>
        </extensions>
      </trkpt>
      <trkpt lat="46.49464" lon="0.30057">
        <ele>140</ele>
        <time>2020-06-13T22:04:34.607Z</time>
        <extensions>
          <gpxtpx:TrackPointExtension xmlns:gpxtpx="http://www.garmin.com/xmlschemas/TrackPointExtension/v1">
            <gpxtpx:hr>152</gpxtpx:hr>
          </gpxtpx:TrackPointExtension>
        </extensions>
      </trkpt>
      <trkpt lat="46.49471" lon="0.30056">
        <ele>140</ele>
        <time>2020-06-13T22:04:35.960Z</time>
        <extensions>
          <gpxtpx:TrackPointExtension xmlns:gpxtpx="http://www.garmin.com/xmlschemas/TrackPointExtension/v1">
            <gpxtpx:hr>153</gpxtpx:hr>
          </gpxtpx:TrackPointExtension>
        </extensions>
      </trkpt>
      <trkpt lat="46.49485" lon="0.30056">
        <ele>140</ele>
        <time>2020-06-13T22:04:38.654Z</time>
        <extensions>
          <gpxtpx:TrackPointExtension xmlns:gpxtpx="http://www.garmin.com/xmlschemas/TrackPointExtension/v1">
            <gpxtpx:hr>154</gpxtpx:hr>
          </gpxtpx:TrackPointExtension>
        </extensions>
      </trkpt>
      <trkpt lat="46.4949" lon="0.30056">
        <ele>140</ele>
        <time>2020-06-13T22:04:39.616Z</time>
        <extensions>
          <gpxtpx:TrackPointExtension xmlns:gpxtpx="http://www.garmin.com/xmlschemas/TrackPointExtension/v1">
            <gpxtpx:hr>154</gpxtpx:hr>
          </gpxtpx:TrackPointExtension>
        </extensions>
      </trkpt>
      <trkpt lat="46.49548" lon="0.30056">
        <ele>140.19999694824</ele>
        <time>2020-06-13T22:04:51.142Z</time>
        <extensions>
          <gpxtpx:TrackPointExtension xmlns:gpxtpx="http://www.garmin.com/xmlschemas/TrackPointExtension/v1">
            <gpxtpx:hr>154</gpxtpx:hr>
          </gpxtpx:TrackPointExtension>
        </extensions>
      </trkpt>
      <trkpt lat="46.49556" lon="0.30057">
        <ele>140.19999694824</ele>
        <time>2020-06-13T22:04:52.687Z</time>
        <extensions>
          <gpxtpx:TrackPointExtension xmlns:gpxtpx="http://www.garmin.com/xmlschemas/TrackPointExtension/v1">
            <gpxtpx:hr>154</gpxtpx:hr>
          </gpxtpx:TrackPointExtension>
        </extensions>
      </trkpt>
      <trkpt lat="46.49595" lon="0.30068">
        <ele>140.19999694824</ele>
        <time>2020-06-13T22:05:00.332Z</time>
        <extensions>
          <gpxtpx:TrackPointExtension xmlns:gpxtpx="http://www.garmin.com/xmlschemas/TrackPointExtension/v1">
            <gpxtpx:hr>153</gpxtpx:hr>
          </gpxtpx:TrackPointExtension>
        </extensions>
      </trkpt>
      <trkpt lat="46.49603" lon="0.3007">
        <ele>140.39999389648</ele>
        <time>2020-06-13T22:05:02.350Z</time>
        <extensions>
          <gpxtpx:TrackPointExtension xmlns:gpxtpx="http://www.garmin.com/xmlschemas/TrackPointExtension/v1">
            <gpxtpx:hr>153</gpxtpx:hr>
          </gpxtpx:TrackPointExtension>
        </extensions>
      </trkpt>
      <trkpt lat="46.49618" lon="0.30075">
        <ele>140.39999389648</ele>
        <time>2020-06-13T22:05:05.311Z</time>
        <extensions>
          <gpxtpx:TrackPointExtension xmlns:gpxtpx="http://www.garmin.com/xmlschemas/TrackPointExtension/v1">
            <gpxtpx:hr>152</gpxtpx:hr>
          </gpxtpx:TrackPointExtension>
        </extensions>
      </trkpt>
      <trkpt lat="46.49647" lon="0.30084">
        <ele>140.39999389648</ele>
        <time>2020-06-13T22:05:11.018Z</time>
        <extensions>
          <gpxtpx:TrackPointExtension xmlns:gpxtpx="http://www.garmin.com/xmlschemas/TrackPointExtension/v1">
            <gpxtpx:hr>151</gpxtpx:hr>
          </gpxtpx:TrackPointExtension>
        </extensions>
      </trkpt>
      <trkpt lat="46.49654" lon="0.30086">
        <ele>140.39999389648</ele>
        <time>2020-06-13T22:05:12.391Z</time>
        <extensions>
          <gpxtpx:TrackPointExtension xmlns:gpxtpx="http://www.garmin.com/xmlschemas/TrackPointExtension/v1">
            <gpxtpx:hr>151</gpxtpx:hr>
          </gpxtpx:TrackPointExtension>
        </extensions>
      </trkpt>
      <trkpt lat="46.49661" lon="0.30087">
        <ele>140.39999389648</ele>
        <time>2020-06-13T22:05:13.744Z</time>
        <extensions>
          <gpxtpx:TrackPointExtension xmlns:gpxtpx="http://www.garmin.com/xmlschemas/TrackPointExtension/v1">
            <gpxtpx:hr>151</gpxtpx:hr>
          </gpxtpx:TrackPointExtension>
        </extensions>
      </trkpt>
      <trkpt lat="46.49668" lon="0.30087">
        <ele>140.39999389648</ele>
        <time>2020-06-13T22:05:15.092Z</time>
        <extensions>
          <gpxtpx:TrackPointExtension xmlns:gpxtpx="http://www.garmin.com/xmlschemas/TrackPointExtension/v1">
            <gpxtpx:hr>151</gpxtpx:hr>
          </gpxtpx:TrackPointExtension>
        </extensions>
      </trkpt>
      <trkpt lat="46.49676" lon="0.30085">
        <ele>140.39999389648</ele>
        <time>2020-06-13T22:05:16.654Z</time>
        <extensions>
          <gpxtpx:TrackPointExtension xmlns:gpxtpx="http://www.garmin.com/xmlschemas/TrackPointExtension/v1">
            <gpxtpx:hr>151</gpxtpx:hr>
          </gpxtpx:TrackPointExtension>
        </extensions>
      </trkpt>
      <trkpt lat="46.49683" lon="0.30083">
        <ele>140.39999389648</ele>
        <time>2020-06-13T22:05:18.027Z</time>
        <extensions>
          <gpxtpx:TrackPointExtension xmlns:gpxtpx="http://www.garmin.com/xmlschemas/TrackPointExtension/v1">
            <gpxtpx:hr>151</gpxtpx:hr>
          </gpxtpx:TrackPointExtension>
        </extensions>
      </trkpt>
      <trkpt lat="46.49689" lon="0.3008">
        <ele>140.39999389648</ele>
        <time>2020-06-13T22:05:19.248Z</time>
        <extensions>
          <gpxtpx:TrackPointExtension xmlns:gpxtpx="http://www.garmin.com/xmlschemas/TrackPointExtension/v1">
            <gpxtpx:hr>150</gpxtpx:hr>
          </gpxtpx:TrackPointExtension>
        </extensions>
      </trkpt>
      <trkpt lat="46.49695" lon="0.30077">
        <ele>140.60000610352</ele>
        <time>2020-06-13T22:05:20.964Z</time>
        <extensions>
          <gpxtpx:TrackPointExtension xmlns:gpxtpx="http://www.garmin.com/xmlschemas/TrackPointExtension/v1">
            <gpxtpx:hr>150</gpxtpx:hr>
          </gpxtpx:TrackPointExtension>
        </extensions>
      </trkpt>
      <trkpt lat="46.49702" lon="0.30073">
        <ele>140.80000305176</ele>
        <time>2020-06-13T22:05:22.878Z</time>
        <extensions>
          <gpxtpx:TrackPointExtension xmlns:gpxtpx="http://www.garmin.com/xmlschemas/TrackPointExtension/v1">
            <gpxtpx:hr>149</gpxtpx:hr>
          </gpxtpx:TrackPointExtension>
        </extensions>
      </trkpt>
      <trkpt lat="46.49724" lon="0.30095">
        <ele>141.8</ele>
        <time>2020-06-13T22:05:30.700Z</time>
      </trkpt>
      <trkpt lat="46.49725" lon="0.30096">
        <ele>142.19999694824</ele>
        <time>2020-06-13T22:05:31.602Z</time>
        <extensions>
          <gpxtpx:TrackPointExtension xmlns:gpxtpx="http://www.garmin.com/xmlschemas/TrackPointExtension/v1">
            <gpxtpx:hr>135</gpxtpx:hr>
          </gpxtpx:TrackPointExtension>
        </extensions>
      </trkpt>
      <trkpt lat="46.49727" lon="0.30099">
        <ele>142</ele>
        <time>2020-06-13T22:05:31.867Z</time>
        <extensions>
          <gpxtpx:TrackPointExtension xmlns:gpxtpx="http://www.garmin.com/xmlschemas/TrackPointExtension/v1">
            <gpxtpx:hr>134</gpxtpx:hr>
          </gpxtpx:TrackPointExtension>
        </extensions>
      </trkpt>
      <trkpt lat="46.4973" lon="0.30102">
        <ele>142</ele>
        <time>2020-06-13T22:05:32.568Z</time>
        <extensions>
          <gpxtpx:TrackPointExtension xmlns:gpxtpx="http://www.garmin.com/xmlschemas/TrackPointExtension/v1">
            <gpxtpx:hr>134</gpxtpx:hr>
          </gpxtpx:TrackPointExtension>
        </extensions>
      </trkpt>
      <trkpt lat="46.49733" lon="0.30105">
        <ele>142</ele>
        <time>2020-06-13T22:05:33.269Z</time>
        <extensions>
          <gpxtpx:TrackPointExtension xmlns:gpxtpx="http://www.garmin.com/xmlschemas/TrackPointExtension/v1">
            <gpxtpx:hr>133</gpxtpx:hr>
          </gpxtpx:TrackPointExtension>
        </extensions>
      </trkpt>
      <trkpt lat="46.49736" lon="0.30107">
        <ele>142</ele>
        <time>2020-06-13T22:05:33.904Z</time>
        <extensions>
          <gpxtpx:TrackPointExtension xmlns:gpxtpx="http://www.garmin.com/xmlschemas/TrackPointExtension/v1">
            <gpxtpx:hr>133</gpxtpx:hr>
          </gpxtpx:TrackPointExtension>
        </extensions>
      </trkpt>
      <trkpt lat="46.49743" lon="0.30112">
        <ele>142</ele>
        <time>2020-06-13T22:05:35.405Z</time>
        <extensions>
          <gpxtpx:TrackPointExtension xmlns:gpxtpx="http://www.garmin.com/xmlschemas/TrackPointExtension/v1">
            <gpxtpx:hr>130</gpxtpx:hr>
          </gpxtpx:TrackPointExtension>
        </extensions>
      </trkpt>
      <trkpt lat="46.49747" lon="0.30113">
        <ele>142</ele>
        <time>2020-06-13T22:05:36.186Z</time>
        <extensions>
          <gpxtpx:TrackPointExtension xmlns:gpxtpx="http://www.garmin.com/xmlschemas/TrackPointExtension/v1">
            <gpxtpx:hr>130</gpxtpx:hr>
          </gpxtpx:TrackPointExtension>
        </extensions>
      </trkpt>
      <trkpt lat="46.4975" lon="0.30115">
        <ele>142</ele>
        <time>2020-06-13T22:05:36.821Z</time>
        <extensions>
          <gpxtpx:TrackPointExtension xmlns:gpxtpx="http://www.garmin.com/xmlschemas/TrackPointExtension/v1">
            <gpxtpx:hr>129</gpxtpx:hr>
          </gpxtpx:TrackPointExtension>
        </extensions>
      </trkpt>
      <trkpt lat="46.49753" lon="0.30116">
        <ele>142</ele>
        <time>2020-06-13T22:05:37.414Z</time>
        <extensions>
          <gpxtpx:TrackPointExtension xmlns:gpxtpx="http://www.garmin.com/xmlschemas/TrackPointExtension/v1">
            <gpxtpx:hr>129</gpxtpx:hr>
          </gpxtpx:TrackPointExtension>
        </extensions>
      </trkpt>
      <trkpt lat="46.49756" lon="0.30115">
        <ele>142</ele>
        <time>2020-06-13T22:05:38.006Z</time>
        <extensions>
          <gpxtpx:TrackPointExtension xmlns:gpxtpx="http://www.garmin.com/xmlschemas/TrackPointExtension/v1">
            <gpxtpx:hr>129</gpxtpx:hr>
          </gpxtpx:TrackPointExtension>
        </extensions>
      </trkpt>
      <trkpt lat="46.49759" lon="0.30113">
        <ele>142</ele>
        <time>2020-06-13T22:05:38.641Z</time>
        <extensions>
          <gpxtpx:TrackPointExtension xmlns:gpxtpx="http://www.garmin.com/xmlschemas/TrackPointExtension/v1">
            <gpxtpx:hr>130</gpxtpx:hr>
          </gpxtpx:TrackPointExtension>
        </extensions>
      </trkpt>
      <trkpt lat="46.49763" lon="0.30111">
        <ele>142.19999694824</ele>
        <time>2020-06-13T22:05:40.040Z</time>
        <extensions>
          <gpxtpx:TrackPointExtension xmlns:gpxtpx="http://www.garmin.com/xmlschemas/TrackPointExtension/v1">
            <gpxtpx:hr>130</gpxtpx:hr>
          </gpxtpx:TrackPointExtension>
        </extensions>
      </trkpt>
      <trkpt lat="46.49766" lon="0.30108">
        <ele>142.19999694824</ele>
        <time>2020-06-13T22:05:40.741Z</time>
        <extensions>
          <gpxtpx:TrackPointExtension xmlns:gpxtpx="http://www.garmin.com/xmlschemas/TrackPointExtension/v1">
            <gpxtpx:hr>130</gpxtpx:hr>
          </gpxtpx:TrackPointExtension>
        </extensions>
      </trkpt>
      <trkpt lat="46.49771" lon="0.30107">
        <ele>142.39999389648</ele>
        <time>2020-06-13T22:05:42.265Z</time>
        <extensions>
          <gpxtpx:TrackPointExtension xmlns:gpxtpx="http://www.garmin.com/xmlschemas/TrackPointExtension/v1">
            <gpxtpx:hr>129</gpxtpx:hr>
          </gpxtpx:TrackPointExtension>
        </extensions>
      </trkpt>
      <trkpt lat="46.49775" lon="0.30107">
        <ele>142.60000610352</ele>
        <time>2020-06-13T22:05:43.611Z</time>
        <extensions>
          <gpxtpx:TrackPointExtension xmlns:gpxtpx="http://www.garmin.com/xmlschemas/TrackPointExtension/v1">
            <gpxtpx:hr>129</gpxtpx:hr>
          </gpxtpx:TrackPointExtension>
        </extensions>
      </trkpt>
      <trkpt lat="46.4978" lon="0.30109">
        <ele>142.60000610352</ele>
        <time>2020-06-13T22:05:44.609Z</time>
        <extensions>
          <gpxtpx:TrackPointExtension xmlns:gpxtpx="http://www.garmin.com/xmlschemas/TrackPointExtension/v1">
            <gpxtpx:hr>130</gpxtpx:hr>
          </gpxtpx:TrackPointExtension>
        </extensions>
      </trkpt>
      <trkpt lat="46.49784" lon="0.30111">
        <ele>143</ele>
        <time>2020-06-13T22:05:46.620Z</time>
        <extensions>
          <gpxtpx:TrackPointExtension xmlns:gpxtpx="http://www.garmin.com/xmlschemas/TrackPointExtension/v1">
            <gpxtpx:hr>130</gpxtpx:hr>
          </gpxtpx:TrackPointExtension>
        </extensions>
      </trkpt>
      <trkpt lat="46.49788" lon="0.30114">
        <ele>143</ele>
        <time>2020-06-13T22:05:47.486Z</time>
        <extensions>
          <gpxtpx:TrackPointExtension xmlns:gpxtpx="http://www.garmin.com/xmlschemas/TrackPointExtension/v1">
            <gpxtpx:hr>131</gpxtpx:hr>
          </gpxtpx:TrackPointExtension>
        </extensions>
      </trkpt>
      <trkpt lat="46.49793" lon="0.30116">
        <ele>143.19999694824</ele>
        <time>2020-06-13T22:05:49.029Z</time>
        <extensions>
          <gpxtpx:TrackPointExtension xmlns:gpxtpx="http://www.garmin.com/xmlschemas/TrackPointExtension/v1">
            <gpxtpx:hr>131</gpxtpx:hr>
          </gpxtpx:TrackPointExtension>
        </extensions>
      </trkpt>
      <trkpt lat="46.49798" lon="0.30119">
        <ele>143.39999389648</ele>
        <time>2020-06-13T22:05:50.603Z</time>
        <extensions>
          <gpxtpx:TrackPointExtension xmlns:gpxtpx="http://www.garmin.com/xmlschemas/TrackPointExtension/v1">
            <gpxtpx:hr>133</gpxtpx:hr>
          </gpxtpx:TrackPointExtension>
        </extensions>
      </trkpt>
      <trkpt lat="46.49803" lon="0.30123">
        <ele>143.39999389648</ele>
        <time>2020-06-13T22:05:51.701Z</time>
        <extensions>
          <gpxtpx:TrackPointExtension xmlns:gpxtpx="http://www.garmin.com/xmlschemas/TrackPointExtension/v1">
            <gpxtpx:hr>133</gpxtpx:hr>
          </gpxtpx:TrackPointExtension>
        </extensions>
      </trkpt>
      <trkpt lat="46.49809" lon="0.30126">
        <ele>143.39999389648</ele>
        <time>2020-06-13T22:05:52.923Z</time>
        <extensions>
          <gpxtpx:TrackPointExtension xmlns:gpxtpx="http://www.garmin.com/xmlschemas/TrackPointExtension/v1">
            <gpxtpx:hr>136</gpxtpx:hr>
          </gpxtpx:TrackPointExtension>
        </extensions>
      </trkpt>
      <trkpt lat="46.49814" lon="0.30129">
        <ele>143.60000610352</ele>
        <time>2020-06-13T22:05:54.497Z</time>
        <extensions>
          <gpxtpx:TrackPointExtension xmlns:gpxtpx="http://www.garmin.com/xmlschemas/TrackPointExtension/v1">
            <gpxtpx:hr>136</gpxtpx:hr>
          </gpxtpx:TrackPointExtension>
        </extensions>
      </trkpt>
      <trkpt lat="46.4982" lon="0.30133">
        <ele>143.60000610352</ele>
        <time>2020-06-13T22:05:55.767Z</time>
        <extensions>
          <gpxtpx:TrackPointExtension xmlns:gpxtpx="http://www.garmin.com/xmlschemas/TrackPointExtension/v1">
            <gpxtpx:hr>138</gpxtpx:hr>
          </gpxtpx:TrackPointExtension>
        </extensions>
      </trkpt>
      <trkpt lat="46.49825" lon="0.30136">
        <ele>143.60000610352</ele>
        <time>2020-06-13T22:05:56.808Z</time>
        <extensions>
          <gpxtpx:TrackPointExtension xmlns:gpxtpx="http://www.garmin.com/xmlschemas/TrackPointExtension/v1">
            <gpxtpx:hr>138</gpxtpx:hr>
          </gpxtpx:TrackPointExtension>
        </extensions>
      </trkpt>
      <trkpt lat="46.49831" lon="0.30139">
        <ele>144</ele>
        <time>2020-06-13T22:05:59.143Z</time>
        <extensions>
          <gpxtpx:TrackPointExtension xmlns:gpxtpx="http://www.garmin.com/xmlschemas/TrackPointExtension/v1">
            <gpxtpx:hr>140</gpxtpx:hr>
          </gpxtpx:TrackPointExtension>
        </extensions>
      </trkpt>
      <trkpt lat="46.49837" lon="0.30141">
        <ele>144</ele>
        <time>2020-06-13T22:06:00.327Z</time>
        <extensions>
          <gpxtpx:TrackPointExtension xmlns:gpxtpx="http://www.garmin.com/xmlschemas/TrackPointExtension/v1">
            <gpxtpx:hr>140</gpxtpx:hr>
          </gpxtpx:TrackPointExtension>
        </extensions>
      </trkpt>
      <trkpt lat="46.49843" lon="0.30145">
        <ele>144.19999694824</ele>
        <time>2020-06-13T22:06:02.086Z</time>
        <extensions>
          <gpxtpx:TrackPointExtension xmlns:gpxtpx="http://www.garmin.com/xmlschemas/TrackPointExtension/v1">
            <gpxtpx:hr>143</gpxtpx:hr>
          </gpxtpx:TrackPointExtension>
        </extensions>
      </trkpt>
      <trkpt lat="46.49848" lon="0.30148">
        <ele>144.39999389648</ele>
        <time>2020-06-13T22:06:03.660Z</time>
        <extensions>
          <gpxtpx:TrackPointExtension xmlns:gpxtpx="http://www.garmin.com/xmlschemas/TrackPointExtension/v1">
            <gpxtpx:hr>143</gpxtpx:hr>
          </gpxtpx:TrackPointExtension>
        </extensions>
      </trkpt>
      <trkpt lat="46.49854" lon="0.30152">
        <ele>144.39999389648</ele>
        <time>2020-06-13T22:06:04.930Z</time>
        <extensions>
          <gpxtpx:TrackPointExtension xmlns:gpxtpx="http://www.garmin.com/xmlschemas/TrackPointExtension/v1">
            <gpxtpx:hr>144</gpxtpx:hr>
          </gpxtpx:TrackPointExtension>
        </extensions>
      </trkpt>
      <trkpt lat="46.4986" lon="0.30156">
        <ele>144.60000610352</ele>
        <time>2020-06-13T22:06:06.689Z</time>
        <extensions>
          <gpxtpx:TrackPointExtension xmlns:gpxtpx="http://www.garmin.com/xmlschemas/TrackPointExtension/v1">
            <gpxtpx:hr>145</gpxtpx:hr>
          </gpxtpx:TrackPointExtension>
        </extensions>
      </trkpt>
      <trkpt lat="46.49865" lon="0.30159">
        <ele>144.60000610352</ele>
        <time>2020-06-13T22:06:07.730Z</time>
        <extensions>
          <gpxtpx:TrackPointExtension xmlns:gpxtpx="http://www.garmin.com/xmlschemas/TrackPointExtension/v1">
            <gpxtpx:hr>145</gpxtpx:hr>
          </gpxtpx:TrackPointExtension>
        </extensions>
      </trkpt>
      <trkpt lat="46.49871" lon="0.30163">
        <ele>144.60000610352</ele>
        <time>2020-06-13T22:06:09.000Z</time>
        <extensions>
          <gpxtpx:TrackPointExtension xmlns:gpxtpx="http://www.garmin.com/xmlschemas/TrackPointExtension/v1">
            <gpxtpx:hr>146</gpxtpx:hr>
          </gpxtpx:TrackPointExtension>
        </extensions>
      </trkpt>
      <trkpt lat="46.49876" lon="0.30166">
        <ele>144.80000305176</ele>
        <time>2020-06-13T22:06:10.574Z</time>
        <extensions>
          <gpxtpx:TrackPointExtension xmlns:gpxtpx="http://www.garmin.com/xmlschemas/TrackPointExtension/v1">
            <gpxtpx:hr>146</gpxtpx:hr>
          </gpxtpx:TrackPointExtension>
        </extensions>
      </trkpt>
      <trkpt lat="46.49887" lon="0.30173">
        <ele>144.80000305176</ele>
        <time>2020-06-13T22:06:12.885Z</time>
        <extensions>
          <gpxtpx:TrackPointExtension xmlns:gpxtpx="http://www.garmin.com/xmlschemas/TrackPointExtension/v1">
            <gpxtpx:hr>146</gpxtpx:hr>
          </gpxtpx:TrackPointExtension>
        </extensions>
      </trkpt>
      <trkpt lat="46.49893" lon="0.30176">
        <ele>144.80000305176</ele>
        <time>2020-06-13T22:06:14.106Z</time>
        <extensions>
          <gpxtpx:TrackPointExtension xmlns:gpxtpx="http://www.garmin.com/xmlschemas/TrackPointExtension/v1">
            <gpxtpx:hr>146</gpxtpx:hr>
          </gpxtpx:TrackPointExtension>
        </extensions>
      </trkpt>
      <trkpt lat="46.49898" lon="0.30179">
        <ele>144.80000305176</ele>
        <time>2020-06-13T22:06:15.147Z</time>
        <extensions>
          <gpxtpx:TrackPointExtension xmlns:gpxtpx="http://www.garmin.com/xmlschemas/TrackPointExtension/v1">
            <gpxtpx:hr>146</gpxtpx:hr>
          </gpxtpx:TrackPointExtension>
        </extensions>
      </trkpt>
      <trkpt lat="46.49903" lon="0.30182">
        <ele>144.60000610352</ele>
        <time>2020-06-13T22:06:15.738Z</time>
        <extensions>
          <gpxtpx:TrackPointExtension xmlns:gpxtpx="http://www.garmin.com/xmlschemas/TrackPointExtension/v1">
            <gpxtpx:hr>145</gpxtpx:hr>
          </gpxtpx:TrackPointExtension>
        </extensions>
      </trkpt>
      <trkpt lat="46.49908" lon="0.30185">
        <ele>144.60000610352</ele>
        <time>2020-06-13T22:06:16.779Z</time>
        <extensions>
          <gpxtpx:TrackPointExtension xmlns:gpxtpx="http://www.garmin.com/xmlschemas/TrackPointExtension/v1">
            <gpxtpx:hr>145</gpxtpx:hr>
          </gpxtpx:TrackPointExtension>
        </extensions>
      </trkpt>
      <trkpt lat="46.49914" lon="0.30187">
        <ele>144.60000610352</ele>
        <time>2020-06-13T22:06:17.964Z</time>
        <extensions>
          <gpxtpx:TrackPointExtension xmlns:gpxtpx="http://www.garmin.com/xmlschemas/TrackPointExtension/v1">
            <gpxtpx:hr>145</gpxtpx:hr>
          </gpxtpx:TrackPointExtension>
        </extensions>
      </trkpt>
      <trkpt lat="46.49919" lon="0.3019">
        <ele>144.60000610352</ele>
        <time>2020-06-13T22:06:19.005Z</time>
        <extensions>
          <gpxtpx:TrackPointExtension xmlns:gpxtpx="http://www.garmin.com/xmlschemas/TrackPointExtension/v1">
            <gpxtpx:hr>145</gpxtpx:hr>
          </gpxtpx:TrackPointExtension>
        </extensions>
      </trkpt>
      <trkpt lat="46.49926" lon="0.30194">
        <ele>144.60000610352</ele>
        <time>2020-06-13T22:06:20.452Z</time>
        <extensions>
          <gpxtpx:TrackPointExtension xmlns:gpxtpx="http://www.garmin.com/xmlschemas/TrackPointExtension/v1">
            <gpxtpx:hr>145</gpxtpx:hr>
          </gpxtpx:TrackPointExtension>
        </extensions>
      </trkpt>
      <trkpt lat="46.49931" lon="0.30197">
        <ele>144.19999694824</ele>
        <time>2020-06-13T22:06:20.952Z</time>
        <extensions>
          <gpxtpx:TrackPointExtension xmlns:gpxtpx="http://www.garmin.com/xmlschemas/TrackPointExtension/v1">
            <gpxtpx:hr>145</gpxtpx:hr>
          </gpxtpx:TrackPointExtension>
        </extensions>
      </trkpt>
      <trkpt lat="46.49937" lon="0.302">
        <ele>143.80000305176</ele>
        <time>2020-06-13T22:06:21.504Z</time>
        <extensions>
          <gpxtpx:TrackPointExtension xmlns:gpxtpx="http://www.garmin.com/xmlschemas/TrackPointExtension/v1">
            <gpxtpx:hr>145</gpxtpx:hr>
          </gpxtpx:TrackPointExtension>
        </extensions>
      </trkpt>
      <trkpt lat="46.49942" lon="0.30204">
        <ele>143.60000610352</ele>
        <time>2020-06-13T22:06:22.139Z</time>
        <extensions>
          <gpxtpx:TrackPointExtension xmlns:gpxtpx="http://www.garmin.com/xmlschemas/TrackPointExtension/v1">
            <gpxtpx:hr>145</gpxtpx:hr>
          </gpxtpx:TrackPointExtension>
        </extensions>
      </trkpt>
      <trkpt lat="46.49949" lon="0.30209">
        <ele>143.60000610352</ele>
        <time>2020-06-13T22:06:23.640Z</time>
        <extensions>
          <gpxtpx:TrackPointExtension xmlns:gpxtpx="http://www.garmin.com/xmlschemas/TrackPointExtension/v1">
            <gpxtpx:hr>146</gpxtpx:hr>
          </gpxtpx:TrackPointExtension>
        </extensions>
      </trkpt>
      <trkpt lat="46.49954" lon="0.30213">
        <ele>143.60000610352</ele>
        <time>2020-06-13T22:06:24.738Z</time>
        <extensions>
          <gpxtpx:TrackPointExtension xmlns:gpxtpx="http://www.garmin.com/xmlschemas/TrackPointExtension/v1">
            <gpxtpx:hr>146</gpxtpx:hr>
          </gpxtpx:TrackPointExtension>
        </extensions>
      </trkpt>
      <trkpt lat="46.49964" lon="0.3022">
        <ele>143.19999694824</ele>
        <time>2020-06-13T22:06:25.962Z</time>
        <extensions>
          <gpxtpx:TrackPointExtension xmlns:gpxtpx="http://www.garmin.com/xmlschemas/TrackPointExtension/v1">
            <gpxtpx:hr>146</gpxtpx:hr>
          </gpxtpx:TrackPointExtension>
        </extensions>
      </trkpt>
      <trkpt lat="46.49983" lon="0.30233">
        <ele>142</ele>
        <time>2020-06-13T22:06:27.877Z</time>
        <extensions>
          <gpxtpx:TrackPointExtension xmlns:gpxtpx="http://www.garmin.com/xmlschemas/TrackPointExtension/v1">
            <gpxtpx:hr>146</gpxtpx:hr>
          </gpxtpx:TrackPointExtension>
        </extensions>
      </trkpt>
      <trkpt lat="46.50008" lon="0.30244">
        <ele>141.60000610352</ele>
        <time>2020-06-13T22:06:31.495Z</time>
        <extensions>
          <gpxtpx:TrackPointExtension xmlns:gpxtpx="http://www.garmin.com/xmlschemas/TrackPointExtension/v1">
            <gpxtpx:hr>146</gpxtpx:hr>
          </gpxtpx:TrackPointExtension>
        </extensions>
      </trkpt>
      <trkpt lat="46.50013" lon="0.30245">
        <ele>141.60000610352</ele>
        <time>2020-06-13T22:06:32.467Z</time>
        <extensions>
          <gpxtpx:TrackPointExtension xmlns:gpxtpx="http://www.garmin.com/xmlschemas/TrackPointExtension/v1">
            <gpxtpx:hr>146</gpxtpx:hr>
          </gpxtpx:TrackPointExtension>
        </extensions>
      </trkpt>
      <trkpt lat="46.50019" lon="0.30246">
        <ele>141.39999389648</ele>
        <time>2020-06-13T22:06:33.152Z</time>
        <extensions>
          <gpxtpx:TrackPointExtension xmlns:gpxtpx="http://www.garmin.com/xmlschemas/TrackPointExtension/v1">
            <gpxtpx:hr>146</gpxtpx:hr>
          </gpxtpx:TrackPointExtension>
        </extensions>
      </trkpt>
      <trkpt lat="46.50025" lon="0.30247">
        <ele>141.19999694824</ele>
        <time>2020-06-13T22:06:33.837Z</time>
        <extensions>
          <gpxtpx:TrackPointExtension xmlns:gpxtpx="http://www.garmin.com/xmlschemas/TrackPointExtension/v1">
            <gpxtpx:hr>145</gpxtpx:hr>
          </gpxtpx:TrackPointExtension>
        </extensions>
      </trkpt>
      <trkpt lat="46.50033" lon="0.30248">
        <ele>140.80000305176</ele>
        <time>2020-06-13T22:06:34.616Z</time>
        <extensions>
          <gpxtpx:TrackPointExtension xmlns:gpxtpx="http://www.garmin.com/xmlschemas/TrackPointExtension/v1">
            <gpxtpx:hr>145</gpxtpx:hr>
          </gpxtpx:TrackPointExtension>
        </extensions>
      </trkpt>
      <trkpt lat="46.50039" lon="0.30248">
        <ele>140.39999389648</ele>
        <time>2020-06-13T22:06:35.123Z</time>
        <extensions>
          <gpxtpx:TrackPointExtension xmlns:gpxtpx="http://www.garmin.com/xmlschemas/TrackPointExtension/v1">
            <gpxtpx:hr>144</gpxtpx:hr>
          </gpxtpx:TrackPointExtension>
        </extensions>
      </trkpt>
      <trkpt lat="46.50044" lon="0.30249">
        <ele>140.39999389648</ele>
        <time>2020-06-13T22:06:36.095Z</time>
        <extensions>
          <gpxtpx:TrackPointExtension xmlns:gpxtpx="http://www.garmin.com/xmlschemas/TrackPointExtension/v1">
            <gpxtpx:hr>144</gpxtpx:hr>
          </gpxtpx:TrackPointExtension>
        </extensions>
      </trkpt>
      <trkpt lat="46.5005" lon="0.30249">
        <ele>140.39999389648</ele>
        <time>2020-06-13T22:06:37.249Z</time>
        <extensions>
          <gpxtpx:TrackPointExtension xmlns:gpxtpx="http://www.garmin.com/xmlschemas/TrackPointExtension/v1">
            <gpxtpx:hr>144</gpxtpx:hr>
          </gpxtpx:TrackPointExtension>
        </extensions>
      </trkpt>
      <trkpt lat="46.50057" lon="0.3025">
        <ele>140.39999389648</ele>
        <time>2020-06-13T22:06:38.603Z</time>
        <extensions>
          <gpxtpx:TrackPointExtension xmlns:gpxtpx="http://www.garmin.com/xmlschemas/TrackPointExtension/v1">
            <gpxtpx:hr>144</gpxtpx:hr>
          </gpxtpx:TrackPointExtension>
        </extensions>
      </trkpt>
      <trkpt lat="46.50063" lon="0.3025">
        <ele>140.19999694824</ele>
        <time>2020-06-13T22:06:39.282Z</time>
        <extensions>
          <gpxtpx:TrackPointExtension xmlns:gpxtpx="http://www.garmin.com/xmlschemas/TrackPointExtension/v1">
            <gpxtpx:hr>144</gpxtpx:hr>
          </gpxtpx:TrackPointExtension>
        </extensions>
      </trkpt>
      <trkpt lat="46.50069" lon="0.3025">
        <ele>140.19999694824</ele>
        <time>2020-06-13T22:06:40.437Z</time>
        <extensions>
          <gpxtpx:TrackPointExtension xmlns:gpxtpx="http://www.garmin.com/xmlschemas/TrackPointExtension/v1">
            <gpxtpx:hr>144</gpxtpx:hr>
          </gpxtpx:TrackPointExtension>
        </extensions>
      </trkpt>
      <trkpt lat="46.50075" lon="0.30251">
        <ele>140</ele>
        <time>2020-06-13T22:06:41.122Z</time>
        <extensions>
          <gpxtpx:TrackPointExtension xmlns:gpxtpx="http://www.garmin.com/xmlschemas/TrackPointExtension/v1">
            <gpxtpx:hr>144</gpxtpx:hr>
          </gpxtpx:TrackPointExtension>
        </extensions>
      </trkpt>
      <trkpt lat="46.50081" lon="0.30251">
        <ele>140</ele>
        <time>2020-06-13T22:06:42.277Z</time>
        <extensions>
          <gpxtpx:TrackPointExtension xmlns:gpxtpx="http://www.garmin.com/xmlschemas/TrackPointExtension/v1">
            <gpxtpx:hr>144</gpxtpx:hr>
          </gpxtpx:TrackPointExtension>
        </extensions>
      </trkpt>
      <trkpt lat="46.50101" lon="0.30253">
        <ele>140</ele>
        <time>2020-06-13T22:06:46.134Z</time>
        <extensions>
          <gpxtpx:TrackPointExtension xmlns:gpxtpx="http://www.garmin.com/xmlschemas/TrackPointExtension/v1">
            <gpxtpx:hr>146</gpxtpx:hr>
          </gpxtpx:TrackPointExtension>
        </extensions>
      </trkpt>
      <trkpt lat="46.50105" lon="0.30254">
        <ele>139.80000305176</ele>
        <time>2020-06-13T22:06:46.530Z</time>
        <extensions>
          <gpxtpx:TrackPointExtension xmlns:gpxtpx="http://www.garmin.com/xmlschemas/TrackPointExtension/v1">
            <gpxtpx:hr>147</gpxtpx:hr>
          </gpxtpx:TrackPointExtension>
        </extensions>
      </trkpt>
      <trkpt lat="46.50111" lon="0.30254">
        <ele>139.80000305176</ele>
        <time>2020-06-13T22:06:47.685Z</time>
        <extensions>
          <gpxtpx:TrackPointExtension xmlns:gpxtpx="http://www.garmin.com/xmlschemas/TrackPointExtension/v1">
            <gpxtpx:hr>147</gpxtpx:hr>
          </gpxtpx:TrackPointExtension>
        </extensions>
      </trkpt>
      <trkpt lat="46.50118" lon="0.30255">
        <ele>139.60000610352</ele>
        <time>2020-06-13T22:06:48.523Z</time>
        <extensions>
          <gpxtpx:TrackPointExtension xmlns:gpxtpx="http://www.garmin.com/xmlschemas/TrackPointExtension/v1">
            <gpxtpx:hr>147</gpxtpx:hr>
          </gpxtpx:TrackPointExtension>
        </extensions>
      </trkpt>
      <trkpt lat="46.50124" lon="0.30256">
        <ele>139.39999389648</ele>
        <time>2020-06-13T22:06:49.208Z</time>
        <extensions>
          <gpxtpx:TrackPointExtension xmlns:gpxtpx="http://www.garmin.com/xmlschemas/TrackPointExtension/v1">
            <gpxtpx:hr>147</gpxtpx:hr>
          </gpxtpx:TrackPointExtension>
        </extensions>
      </trkpt>
      <trkpt lat="46.50129" lon="0.30256">
        <ele>139.19999694824</ele>
        <time>2020-06-13T22:06:49.738Z</time>
        <extensions>
          <gpxtpx:TrackPointExtension xmlns:gpxtpx="http://www.garmin.com/xmlschemas/TrackPointExtension/v1">
            <gpxtpx:hr>149</gpxtpx:hr>
          </gpxtpx:TrackPointExtension>
        </extensions>
      </trkpt>
      <trkpt lat="46.50135" lon="0.30258">
        <ele>139.39999389648</ele>
        <time>2020-06-13T22:06:51.424Z</time>
        <extensions>
          <gpxtpx:TrackPointExtension xmlns:gpxtpx="http://www.garmin.com/xmlschemas/TrackPointExtension/v1">
            <gpxtpx:hr>149</gpxtpx:hr>
          </gpxtpx:TrackPointExtension>
        </extensions>
      </trkpt>
      <trkpt lat="46.50142" lon="0.30259">
        <ele>139.60000610352</ele>
        <time>2020-06-13T22:06:53.255Z</time>
        <extensions>
          <gpxtpx:TrackPointExtension xmlns:gpxtpx="http://www.garmin.com/xmlschemas/TrackPointExtension/v1">
            <gpxtpx:hr>151</gpxtpx:hr>
          </gpxtpx:TrackPointExtension>
        </extensions>
      </trkpt>
      <trkpt lat="46.50147" lon="0.30261">
        <ele>139.60000610352</ele>
        <time>2020-06-13T22:06:54.253Z</time>
        <extensions>
          <gpxtpx:TrackPointExtension xmlns:gpxtpx="http://www.garmin.com/xmlschemas/TrackPointExtension/v1">
            <gpxtpx:hr>151</gpxtpx:hr>
          </gpxtpx:TrackPointExtension>
        </extensions>
      </trkpt>
      <trkpt lat="46.50153" lon="0.30264">
        <ele>139.60000610352</ele>
        <time>2020-06-13T22:06:55.474Z</time>
        <extensions>
          <gpxtpx:TrackPointExtension xmlns:gpxtpx="http://www.garmin.com/xmlschemas/TrackPointExtension/v1">
            <gpxtpx:hr>152</gpxtpx:hr>
          </gpxtpx:TrackPointExtension>
        </extensions>
      </trkpt>
      <trkpt lat="46.50157" lon="0.30266">
        <ele>139.60000610352</ele>
        <time>2020-06-13T22:06:56.288Z</time>
        <extensions>
          <gpxtpx:TrackPointExtension xmlns:gpxtpx="http://www.garmin.com/xmlschemas/TrackPointExtension/v1">
            <gpxtpx:hr>152</gpxtpx:hr>
          </gpxtpx:TrackPointExtension>
        </extensions>
      </trkpt>
      <trkpt lat="46.50162" lon="0.30268">
        <ele>139.39999389648</ele>
        <time>2020-06-13T22:06:56.845Z</time>
        <extensions>
          <gpxtpx:TrackPointExtension xmlns:gpxtpx="http://www.garmin.com/xmlschemas/TrackPointExtension/v1">
            <gpxtpx:hr>153</gpxtpx:hr>
          </gpxtpx:TrackPointExtension>
        </extensions>
      </trkpt>
      <trkpt lat="46.50167" lon="0.3027">
        <ele>139.19999694824</ele>
        <time>2020-06-13T22:06:57.403Z</time>
        <extensions>
          <gpxtpx:TrackPointExtension xmlns:gpxtpx="http://www.garmin.com/xmlschemas/TrackPointExtension/v1">
            <gpxtpx:hr>153</gpxtpx:hr>
          </gpxtpx:TrackPointExtension>
        </extensions>
      </trkpt>
      <trkpt lat="46.50171" lon="0.30272">
        <ele>139.39999389648</ele>
        <time>2020-06-13T22:06:58.801Z</time>
        <extensions>
          <gpxtpx:TrackPointExtension xmlns:gpxtpx="http://www.garmin.com/xmlschemas/TrackPointExtension/v1">
            <gpxtpx:hr>154</gpxtpx:hr>
          </gpxtpx:TrackPointExtension>
        </extensions>
      </trkpt>
      <trkpt lat="46.50176" lon="0.30273">
        <ele>139.39999389648</ele>
        <time>2020-06-13T22:06:59.773Z</time>
        <extensions>
          <gpxtpx:TrackPointExtension xmlns:gpxtpx="http://www.garmin.com/xmlschemas/TrackPointExtension/v1">
            <gpxtpx:hr>154</gpxtpx:hr>
          </gpxtpx:TrackPointExtension>
        </extensions>
      </trkpt>
      <trkpt lat="46.50179" lon="0.30274">
        <ele>139.39999389648</ele>
        <time>2020-06-13T22:07:00.365Z</time>
        <extensions>
          <gpxtpx:TrackPointExtension xmlns:gpxtpx="http://www.garmin.com/xmlschemas/TrackPointExtension/v1">
            <gpxtpx:hr>154</gpxtpx:hr>
          </gpxtpx:TrackPointExtension>
        </extensions>
      </trkpt>
      <trkpt lat="46.50183" lon="0.30274">
        <ele>139.39999389648</ele>
        <time>2020-06-13T22:07:01.135Z</time>
        <extensions>
          <gpxtpx:TrackPointExtension xmlns:gpxtpx="http://www.garmin.com/xmlschemas/TrackPointExtension/v1">
            <gpxtpx:hr>154</gpxtpx:hr>
          </gpxtpx:TrackPointExtension>
        </extensions>
      </trkpt>
      <trkpt lat="46.50189" lon="0.30275">
        <ele>139.19999694824</ele>
        <time>2020-06-13T22:07:01.820Z</time>
        <extensions>
          <gpxtpx:TrackPointExtension xmlns:gpxtpx="http://www.garmin.com/xmlschemas/TrackPointExtension/v1">
            <gpxtpx:hr>154</gpxtpx:hr>
          </gpxtpx:TrackPointExtension>
        </extensions>
      </trkpt>
      <trkpt lat="46.50194" lon="0.30276">
        <ele>139.19999694824</ele>
        <time>2020-06-13T22:07:02.791Z</time>
        <extensions>
          <gpxtpx:TrackPointExtension xmlns:gpxtpx="http://www.garmin.com/xmlschemas/TrackPointExtension/v1">
            <gpxtpx:hr>154</gpxtpx:hr>
          </gpxtpx:TrackPointExtension>
        </extensions>
      </trkpt>
      <trkpt lat="46.502" lon="0.30276">
        <ele>139</ele>
        <time>2020-06-13T22:07:03.470Z</time>
        <extensions>
          <gpxtpx:TrackPointExtension xmlns:gpxtpx="http://www.garmin.com/xmlschemas/TrackPointExtension/v1">
            <gpxtpx:hr>154</gpxtpx:hr>
          </gpxtpx:TrackPointExtension>
        </extensions>
      </trkpt>
      <trkpt lat="46.50219" lon="0.30278">
        <ele>138.80000305176</ele>
        <time>2020-06-13T22:07:06.277Z</time>
        <extensions>
          <gpxtpx:TrackPointExtension xmlns:gpxtpx="http://www.garmin.com/xmlschemas/TrackPointExtension/v1">
            <gpxtpx:hr>155</gpxtpx:hr>
          </gpxtpx:TrackPointExtension>
        </extensions>
      </trkpt>
      <trkpt lat="46.50226" lon="0.30277">
        <ele>139</ele>
        <time>2020-06-13T22:07:08.107Z</time>
        <extensions>
          <gpxtpx:TrackPointExtension xmlns:gpxtpx="http://www.garmin.com/xmlschemas/TrackPointExtension/v1">
            <gpxtpx:hr>155</gpxtpx:hr>
          </gpxtpx:TrackPointExtension>
        </extensions>
      </trkpt>
      <trkpt lat="46.50237" lon="0.30275">
        <ele>138.80000305176</ele>
        <time>2020-06-13T22:07:09.593Z</time>
        <extensions>
          <gpxtpx:TrackPointExtension xmlns:gpxtpx="http://www.garmin.com/xmlschemas/TrackPointExtension/v1">
            <gpxtpx:hr>155</gpxtpx:hr>
          </gpxtpx:TrackPointExtension>
        </extensions>
      </trkpt>
      <trkpt lat="46.50244" lon="0.30274">
        <ele>138.80000305176</ele>
        <time>2020-06-13T22:07:10.946Z</time>
        <extensions>
          <gpxtpx:TrackPointExtension xmlns:gpxtpx="http://www.garmin.com/xmlschemas/TrackPointExtension/v1">
            <gpxtpx:hr>155</gpxtpx:hr>
          </gpxtpx:TrackPointExtension>
        </extensions>
      </trkpt>
      <trkpt lat="46.50249" lon="0.30273">
        <ele>138.80000305176</ele>
        <time>2020-06-13T22:07:11.917Z</time>
        <extensions>
          <gpxtpx:TrackPointExtension xmlns:gpxtpx="http://www.garmin.com/xmlschemas/TrackPointExtension/v1">
            <gpxtpx:hr>155</gpxtpx:hr>
          </gpxtpx:TrackPointExtension>
        </extensions>
      </trkpt>
      <trkpt lat="46.50257" lon="0.30274">
        <ele>138.80000305176</ele>
        <time>2020-06-13T22:07:13.463Z</time>
        <extensions>
          <gpxtpx:TrackPointExtension xmlns:gpxtpx="http://www.garmin.com/xmlschemas/TrackPointExtension/v1">
            <gpxtpx:hr>156</gpxtpx:hr>
          </gpxtpx:TrackPointExtension>
        </extensions>
      </trkpt>
      <trkpt lat="46.50262" lon="0.30274">
        <ele>138.80000305176</ele>
        <time>2020-06-13T22:07:14.425Z</time>
        <extensions>
          <gpxtpx:TrackPointExtension xmlns:gpxtpx="http://www.garmin.com/xmlschemas/TrackPointExtension/v1">
            <gpxtpx:hr>156</gpxtpx:hr>
          </gpxtpx:TrackPointExtension>
        </extensions>
      </trkpt>
      <trkpt lat="46.50269" lon="0.30275">
        <ele>138.60000610352</ele>
        <time>2020-06-13T22:07:15.263Z</time>
        <extensions>
          <gpxtpx:TrackPointExtension xmlns:gpxtpx="http://www.garmin.com/xmlschemas/TrackPointExtension/v1">
            <gpxtpx:hr>155</gpxtpx:hr>
          </gpxtpx:TrackPointExtension>
        </extensions>
      </trkpt>
      <trkpt lat="46.50278" lon="0.30274">
        <ele>138.60000610352</ele>
        <time>2020-06-13T22:07:17.000Z</time>
        <extensions>
          <gpxtpx:TrackPointExtension xmlns:gpxtpx="http://www.garmin.com/xmlschemas/TrackPointExtension/v1">
            <gpxtpx:hr>155</gpxtpx:hr>
          </gpxtpx:TrackPointExtension>
        </extensions>
      </trkpt>
      <trkpt lat="46.50291" lon="0.30276">
        <ele>138.60000610352</ele>
        <time>2020-06-13T22:07:19.515Z</time>
        <extensions>
          <gpxtpx:TrackPointExtension xmlns:gpxtpx="http://www.garmin.com/xmlschemas/TrackPointExtension/v1">
            <gpxtpx:hr>155</gpxtpx:hr>
          </gpxtpx:TrackPointExtension>
        </extensions>
      </trkpt>
      <trkpt lat="46.50296" lon="0.30276">
        <ele>138.60000610352</ele>
        <time>2020-06-13T22:07:20.478Z</time>
        <extensions>
          <gpxtpx:TrackPointExtension xmlns:gpxtpx="http://www.garmin.com/xmlschemas/TrackPointExtension/v1">
            <gpxtpx:hr>155</gpxtpx:hr>
          </gpxtpx:TrackPointExtension>
        </extensions>
      </trkpt>
      <trkpt lat="46.50301" lon="0.30276">
        <ele>138.60000610352</ele>
        <time>2020-06-13T22:07:21.440Z</time>
        <extensions>
          <gpxtpx:TrackPointExtension xmlns:gpxtpx="http://www.garmin.com/xmlschemas/TrackPointExtension/v1">
            <gpxtpx:hr>155</gpxtpx:hr>
          </gpxtpx:TrackPointExtension>
        </extensions>
      </trkpt>
      <trkpt lat="46.50309" lon="0.30275">
        <ele>138.60000610352</ele>
        <time>2020-06-13T22:07:22.985Z</time>
        <extensions>
          <gpxtpx:TrackPointExtension xmlns:gpxtpx="http://www.garmin.com/xmlschemas/TrackPointExtension/v1">
            <gpxtpx:hr>155</gpxtpx:hr>
          </gpxtpx:TrackPointExtension>
        </extensions>
      </trkpt>
      <trkpt lat="46.50314" lon="0.30275">
        <ele>138.60000610352</ele>
        <time>2020-06-13T22:07:23.947Z</time>
        <extensions>
          <gpxtpx:TrackPointExtension xmlns:gpxtpx="http://www.garmin.com/xmlschemas/TrackPointExtension/v1">
            <gpxtpx:hr>155</gpxtpx:hr>
          </gpxtpx:TrackPointExtension>
        </extensions>
      </trkpt>
      <trkpt lat="46.50319" lon="0.30274">
        <ele>138.39999389648</ele>
        <time>2020-06-13T22:07:24.484Z</time>
        <extensions>
          <gpxtpx:TrackPointExtension xmlns:gpxtpx="http://www.garmin.com/xmlschemas/TrackPointExtension/v1">
            <gpxtpx:hr>155</gpxtpx:hr>
          </gpxtpx:TrackPointExtension>
        </extensions>
      </trkpt>
      <trkpt lat="46.50325" lon="0.30273">
        <ele>138.39999389648</ele>
        <time>2020-06-13T22:07:25.646Z</time>
        <extensions>
          <gpxtpx:TrackPointExtension xmlns:gpxtpx="http://www.garmin.com/xmlschemas/TrackPointExtension/v1">
            <gpxtpx:hr>155</gpxtpx:hr>
          </gpxtpx:TrackPointExtension>
        </extensions>
      </trkpt>
      <trkpt lat="46.50333" lon="0.30272">
        <ele>138.19999694824</ele>
        <time>2020-06-13T22:07:26.640Z</time>
        <extensions>
          <gpxtpx:TrackPointExtension xmlns:gpxtpx="http://www.garmin.com/xmlschemas/TrackPointExtension/v1">
            <gpxtpx:hr>153</gpxtpx:hr>
          </gpxtpx:TrackPointExtension>
        </extensions>
      </trkpt>
      <trkpt lat="46.5034" lon="0.30271">
        <ele>138.19999694824</ele>
        <time>2020-06-13T22:07:27.994Z</time>
        <extensions>
          <gpxtpx:TrackPointExtension xmlns:gpxtpx="http://www.garmin.com/xmlschemas/TrackPointExtension/v1">
            <gpxtpx:hr>153</gpxtpx:hr>
          </gpxtpx:TrackPointExtension>
        </extensions>
      </trkpt>
      <trkpt lat="46.50347" lon="0.30269">
        <ele>138.19999694824</ele>
        <time>2020-06-13T22:07:29.367Z</time>
        <extensions>
          <gpxtpx:TrackPointExtension xmlns:gpxtpx="http://www.garmin.com/xmlschemas/TrackPointExtension/v1">
            <gpxtpx:hr>152</gpxtpx:hr>
          </gpxtpx:TrackPointExtension>
        </extensions>
      </trkpt>
      <trkpt lat="46.50351" lon="0.30267">
        <ele>138.19999694824</ele>
        <time>2020-06-13T22:07:30.181Z</time>
        <extensions>
          <gpxtpx:TrackPointExtension xmlns:gpxtpx="http://www.garmin.com/xmlschemas/TrackPointExtension/v1">
            <gpxtpx:hr>150</gpxtpx:hr>
          </gpxtpx:TrackPointExtension>
        </extensions>
      </trkpt>
      <trkpt lat="46.50357" lon="0.30265">
        <ele>138.19999694824</ele>
        <time>2020-06-13T22:07:31.366Z</time>
        <extensions>
          <gpxtpx:TrackPointExtension xmlns:gpxtpx="http://www.garmin.com/xmlschemas/TrackPointExtension/v1">
            <gpxtpx:hr>150</gpxtpx:hr>
          </gpxtpx:TrackPointExtension>
        </extensions>
      </trkpt>
      <trkpt lat="46.50363" lon="0.30261">
        <ele>138.19999694824</ele>
        <time>2020-06-13T22:07:32.636Z</time>
        <extensions>
          <gpxtpx:TrackPointExtension xmlns:gpxtpx="http://www.garmin.com/xmlschemas/TrackPointExtension/v1">
            <gpxtpx:hr>150</gpxtpx:hr>
          </gpxtpx:TrackPointExtension>
        </extensions>
      </trkpt>
      <trkpt lat="46.50369" lon="0.30258">
        <ele>138.19999694824</ele>
        <time>2020-06-13T22:07:33.857Z</time>
        <extensions>
          <gpxtpx:TrackPointExtension xmlns:gpxtpx="http://www.garmin.com/xmlschemas/TrackPointExtension/v1">
            <gpxtpx:hr>150</gpxtpx:hr>
          </gpxtpx:TrackPointExtension>
        </extensions>
      </trkpt>
      <trkpt lat="46.50376" lon="0.30255">
        <ele>138.19999694824</ele>
        <time>2020-06-13T22:07:35.261Z</time>
        <extensions>
          <gpxtpx:TrackPointExtension xmlns:gpxtpx="http://www.garmin.com/xmlschemas/TrackPointExtension/v1">
            <gpxtpx:hr>149</gpxtpx:hr>
          </gpxtpx:TrackPointExtension>
        </extensions>
      </trkpt>
      <trkpt lat="46.50387" lon="0.30249">
        <ele>138</ele>
        <time>2020-06-13T22:07:36.855Z</time>
        <extensions>
          <gpxtpx:TrackPointExtension xmlns:gpxtpx="http://www.garmin.com/xmlschemas/TrackPointExtension/v1">
            <gpxtpx:hr>148</gpxtpx:hr>
          </gpxtpx:TrackPointExtension>
        </extensions>
      </trkpt>
      <trkpt lat="46.50393" lon="0.30246">
        <ele>137.80000305176</ele>
        <time>2020-06-13T22:07:37.587Z</time>
        <extensions>
          <gpxtpx:TrackPointExtension xmlns:gpxtpx="http://www.garmin.com/xmlschemas/TrackPointExtension/v1">
            <gpxtpx:hr>147</gpxtpx:hr>
          </gpxtpx:TrackPointExtension>
        </extensions>
      </trkpt>
      <trkpt lat="46.50398" lon="0.30242">
        <ele>137.60000610352</ele>
        <time>2020-06-13T22:07:38.222Z</time>
        <extensions>
          <gpxtpx:TrackPointExtension xmlns:gpxtpx="http://www.garmin.com/xmlschemas/TrackPointExtension/v1">
            <gpxtpx:hr>146</gpxtpx:hr>
          </gpxtpx:TrackPointExtension>
        </extensions>
      </trkpt>
      <trkpt lat="46.50406" lon="0.30237">
        <ele>137.39999389648</ele>
        <time>2020-06-13T22:07:39.324Z</time>
        <extensions>
          <gpxtpx:TrackPointExtension xmlns:gpxtpx="http://www.garmin.com/xmlschemas/TrackPointExtension/v1">
            <gpxtpx:hr>146</gpxtpx:hr>
          </gpxtpx:TrackPointExtension>
        </extensions>
      </trkpt>
      <trkpt lat="46.5041" lon="0.30234">
        <ele>137.19999694824</ele>
        <time>2020-06-13T22:07:39.782Z</time>
        <extensions>
          <gpxtpx:TrackPointExtension xmlns:gpxtpx="http://www.garmin.com/xmlschemas/TrackPointExtension/v1">
            <gpxtpx:hr>145</gpxtpx:hr>
          </gpxtpx:TrackPointExtension>
        </extensions>
      </trkpt>
      <trkpt lat="46.50415" lon="0.30231">
        <ele>137</ele>
        <time>2020-06-13T22:07:40.373Z</time>
        <extensions>
          <gpxtpx:TrackPointExtension xmlns:gpxtpx="http://www.garmin.com/xmlschemas/TrackPointExtension/v1">
            <gpxtpx:hr>145</gpxtpx:hr>
          </gpxtpx:TrackPointExtension>
        </extensions>
      </trkpt>
      <trkpt lat="46.50422" lon="0.30227">
        <ele>136.60000610352</ele>
        <time>2020-06-13T22:07:41.082Z</time>
        <extensions>
          <gpxtpx:TrackPointExtension xmlns:gpxtpx="http://www.garmin.com/xmlschemas/TrackPointExtension/v1">
            <gpxtpx:hr>144</gpxtpx:hr>
          </gpxtpx:TrackPointExtension>
        </extensions>
      </trkpt>
      <trkpt lat="46.50428" lon="0.30223">
        <ele>136.19999694824</ele>
        <time>2020-06-13T22:07:41.667Z</time>
        <extensions>
          <gpxtpx:TrackPointExtension xmlns:gpxtpx="http://www.garmin.com/xmlschemas/TrackPointExtension/v1">
            <gpxtpx:hr>144</gpxtpx:hr>
          </gpxtpx:TrackPointExtension>
        </extensions>
      </trkpt>
      <trkpt lat="46.50433" lon="0.3022">
        <ele>136.19999694824</ele>
        <time>2020-06-13T22:07:42.708Z</time>
        <extensions>
          <gpxtpx:TrackPointExtension xmlns:gpxtpx="http://www.garmin.com/xmlschemas/TrackPointExtension/v1">
            <gpxtpx:hr>143</gpxtpx:hr>
          </gpxtpx:TrackPointExtension>
        </extensions>
      </trkpt>
      <trkpt lat="46.50443" lon="0.30215">
        <ele>136</ele>
        <time>2020-06-13T22:07:44.110Z</time>
        <extensions>
          <gpxtpx:TrackPointExtension xmlns:gpxtpx="http://www.garmin.com/xmlschemas/TrackPointExtension/v1">
            <gpxtpx:hr>143</gpxtpx:hr>
          </gpxtpx:TrackPointExtension>
        </extensions>
      </trkpt>
      <trkpt lat="46.50452" lon="0.3021">
        <ele>136</ele>
        <time>2020-06-13T22:07:45.965Z</time>
        <extensions>
          <gpxtpx:TrackPointExtension xmlns:gpxtpx="http://www.garmin.com/xmlschemas/TrackPointExtension/v1">
            <gpxtpx:hr>142</gpxtpx:hr>
          </gpxtpx:TrackPointExtension>
        </extensions>
      </trkpt>
      <trkpt lat="46.50457" lon="0.30208">
        <ele>135.80000305176</ele>
        <time>2020-06-13T22:07:46.522Z</time>
        <extensions>
          <gpxtpx:TrackPointExtension xmlns:gpxtpx="http://www.garmin.com/xmlschemas/TrackPointExtension/v1">
            <gpxtpx:hr>142</gpxtpx:hr>
          </gpxtpx:TrackPointExtension>
        </extensions>
      </trkpt>
      <trkpt lat="46.50467" lon="0.30204">
        <ele>135.39999389648</ele>
        <time>2020-06-13T22:07:47.637Z</time>
        <extensions>
          <gpxtpx:TrackPointExtension xmlns:gpxtpx="http://www.garmin.com/xmlschemas/TrackPointExtension/v1">
            <gpxtpx:hr>142</gpxtpx:hr>
          </gpxtpx:TrackPointExtension>
        </extensions>
      </trkpt>
      <trkpt lat="46.50472" lon="0.30202">
        <ele>135</ele>
        <time>2020-06-13T22:07:48.116Z</time>
        <extensions>
          <gpxtpx:TrackPointExtension xmlns:gpxtpx="http://www.garmin.com/xmlschemas/TrackPointExtension/v1">
            <gpxtpx:hr>139</gpxtpx:hr>
          </gpxtpx:TrackPointExtension>
        </extensions>
      </trkpt>
      <trkpt lat="46.50479" lon="0.30201">
        <ele>134.80000305176</ele>
        <time>2020-06-13T22:07:48.954Z</time>
        <extensions>
          <gpxtpx:TrackPointExtension xmlns:gpxtpx="http://www.garmin.com/xmlschemas/TrackPointExtension/v1">
            <gpxtpx:hr>136</gpxtpx:hr>
          </gpxtpx:TrackPointExtension>
        </extensions>
      </trkpt>
      <trkpt lat="46.50487" lon="0.302">
        <ele>134</ele>
        <time>2020-06-13T22:07:49.696Z</time>
        <extensions>
          <gpxtpx:TrackPointExtension xmlns:gpxtpx="http://www.garmin.com/xmlschemas/TrackPointExtension/v1">
            <gpxtpx:hr>136</gpxtpx:hr>
          </gpxtpx:TrackPointExtension>
        </extensions>
      </trkpt>
      <trkpt lat="46.50504" lon="0.30198">
        <ele>133.19999694824</ele>
        <time>2020-06-13T22:07:51.393Z</time>
        <extensions>
          <gpxtpx:TrackPointExtension xmlns:gpxtpx="http://www.garmin.com/xmlschemas/TrackPointExtension/v1">
            <gpxtpx:hr>134</gpxtpx:hr>
          </gpxtpx:TrackPointExtension>
        </extensions>
      </trkpt>
      <trkpt lat="46.50511" lon="0.30197">
        <ele>133.19999694824</ele>
        <time>2020-06-13T22:07:52.746Z</time>
        <extensions>
          <gpxtpx:TrackPointExtension xmlns:gpxtpx="http://www.garmin.com/xmlschemas/TrackPointExtension/v1">
            <gpxtpx:hr>131</gpxtpx:hr>
          </gpxtpx:TrackPointExtension>
        </extensions>
      </trkpt>
      <trkpt lat="46.5052" lon="0.30196">
        <ele>132.60000610352</ele>
        <time>2020-06-13T22:07:53.511Z</time>
        <extensions>
          <gpxtpx:TrackPointExtension xmlns:gpxtpx="http://www.garmin.com/xmlschemas/TrackPointExtension/v1">
            <gpxtpx:hr>131</gpxtpx:hr>
          </gpxtpx:TrackPointExtension>
        </extensions>
      </trkpt>
      <trkpt lat="46.50536" lon="0.30193">
        <ele>132</ele>
        <time>2020-06-13T22:07:55.269Z</time>
        <extensions>
          <gpxtpx:TrackPointExtension xmlns:gpxtpx="http://www.garmin.com/xmlschemas/TrackPointExtension/v1">
            <gpxtpx:hr>129</gpxtpx:hr>
          </gpxtpx:TrackPointExtension>
        </extensions>
      </trkpt>
      <trkpt lat="46.50541" lon="0.30192">
        <ele>131.39999389648</ele>
        <time>2020-06-13T22:07:55.735Z</time>
        <extensions>
          <gpxtpx:TrackPointExtension xmlns:gpxtpx="http://www.garmin.com/xmlschemas/TrackPointExtension/v1">
            <gpxtpx:hr>127</gpxtpx:hr>
          </gpxtpx:TrackPointExtension>
        </extensions>
      </trkpt>
      <trkpt lat="46.50548" lon="0.30191">
        <ele>131.19999694824</ele>
        <time>2020-06-13T22:07:56.573Z</time>
        <extensions>
          <gpxtpx:TrackPointExtension xmlns:gpxtpx="http://www.garmin.com/xmlschemas/TrackPointExtension/v1">
            <gpxtpx:hr>127</gpxtpx:hr>
          </gpxtpx:TrackPointExtension>
        </extensions>
      </trkpt>
      <trkpt lat="46.50558" lon="0.30191">
        <ele>130.80000305176</ele>
        <time>2020-06-13T22:07:57.633Z</time>
        <extensions>
          <gpxtpx:TrackPointExtension xmlns:gpxtpx="http://www.garmin.com/xmlschemas/TrackPointExtension/v1">
            <gpxtpx:hr>126</gpxtpx:hr>
          </gpxtpx:TrackPointExtension>
        </extensions>
      </trkpt>
      <trkpt lat="46.50564" lon="0.3019">
        <ele>130.19999694824</ele>
        <time>2020-06-13T22:07:58.191Z</time>
        <extensions>
          <gpxtpx:TrackPointExtension xmlns:gpxtpx="http://www.garmin.com/xmlschemas/TrackPointExtension/v1">
            <gpxtpx:hr>126</gpxtpx:hr>
          </gpxtpx:TrackPointExtension>
        </extensions>
      </trkpt>
      <trkpt lat="46.5057" lon="0.30188">
        <ele>130</ele>
        <time>2020-06-13T22:07:58.894Z</time>
        <extensions>
          <gpxtpx:TrackPointExtension xmlns:gpxtpx="http://www.garmin.com/xmlschemas/TrackPointExtension/v1">
            <gpxtpx:hr>125</gpxtpx:hr>
          </gpxtpx:TrackPointExtension>
        </extensions>
      </trkpt>
      <trkpt lat="46.50576" lon="0.30184">
        <ele>129.60000610352</ele>
        <time>2020-06-13T22:07:59.479Z</time>
        <extensions>
          <gpxtpx:TrackPointExtension xmlns:gpxtpx="http://www.garmin.com/xmlschemas/TrackPointExtension/v1">
            <gpxtpx:hr>125</gpxtpx:hr>
          </gpxtpx:TrackPointExtension>
        </extensions>
      </trkpt>
      <trkpt lat="46.50585" lon="0.3018">
        <ele>129.60000610352</ele>
        <time>2020-06-13T22:08:01.291Z</time>
        <extensions>
          <gpxtpx:TrackPointExtension xmlns:gpxtpx="http://www.garmin.com/xmlschemas/TrackPointExtension/v1">
            <gpxtpx:hr>125</gpxtpx:hr>
          </gpxtpx:TrackPointExtension>
        </extensions>
      </trkpt>
      <trkpt lat="46.50591" lon="0.30177">
        <ele>129.19999694824</ele>
        <time>2020-06-13T22:08:01.843Z</time>
        <extensions>
          <gpxtpx:TrackPointExtension xmlns:gpxtpx="http://www.garmin.com/xmlschemas/TrackPointExtension/v1">
            <gpxtpx:hr>125</gpxtpx:hr>
          </gpxtpx:TrackPointExtension>
        </extensions>
      </trkpt>
      <trkpt lat="46.50607" lon="0.30171">
        <ele>128.39999389648</ele>
        <time>2020-06-13T22:08:03.465Z</time>
        <extensions>
          <gpxtpx:TrackPointExtension xmlns:gpxtpx="http://www.garmin.com/xmlschemas/TrackPointExtension/v1">
            <gpxtpx:hr>125</gpxtpx:hr>
          </gpxtpx:TrackPointExtension>
        </extensions>
      </trkpt>
      <trkpt lat="46.50616" lon="0.30167">
        <ele>127.59999847412</ele>
        <time>2020-06-13T22:08:04.334Z</time>
        <extensions>
          <gpxtpx:TrackPointExtension xmlns:gpxtpx="http://www.garmin.com/xmlschemas/TrackPointExtension/v1">
            <gpxtpx:hr>124</gpxtpx:hr>
          </gpxtpx:TrackPointExtension>
        </extensions>
      </trkpt>
      <trkpt lat="46.50624" lon="0.30162">
        <ele>127.40000152588</ele>
        <time>2020-06-13T22:08:05.436Z</time>
        <extensions>
          <gpxtpx:TrackPointExtension xmlns:gpxtpx="http://www.garmin.com/xmlschemas/TrackPointExtension/v1">
            <gpxtpx:hr>125</gpxtpx:hr>
          </gpxtpx:TrackPointExtension>
        </extensions>
      </trkpt>
      <trkpt lat="46.5063" lon="0.30158">
        <ele>126.40000152588</ele>
        <time>2020-06-13T22:08:06.046Z</time>
        <extensions>
          <gpxtpx:TrackPointExtension xmlns:gpxtpx="http://www.garmin.com/xmlschemas/TrackPointExtension/v1">
            <gpxtpx:hr>125</gpxtpx:hr>
          </gpxtpx:TrackPointExtension>
        </extensions>
      </trkpt>
      <trkpt lat="46.50637" lon="0.30154">
        <ele>126</ele>
        <time>2020-06-13T22:08:06.755Z</time>
        <extensions>
          <gpxtpx:TrackPointExtension xmlns:gpxtpx="http://www.garmin.com/xmlschemas/TrackPointExtension/v1">
            <gpxtpx:hr>125</gpxtpx:hr>
          </gpxtpx:TrackPointExtension>
        </extensions>
      </trkpt>
      <trkpt lat="46.50643" lon="0.30151">
        <ele>125.40000152588</ele>
        <time>2020-06-13T22:08:07.341Z</time>
        <extensions>
          <gpxtpx:TrackPointExtension xmlns:gpxtpx="http://www.garmin.com/xmlschemas/TrackPointExtension/v1">
            <gpxtpx:hr>125</gpxtpx:hr>
          </gpxtpx:TrackPointExtension>
        </extensions>
      </trkpt>
      <trkpt lat="46.50666" lon="0.3014">
        <ele>123.59999847412</ele>
        <time>2020-06-13T22:08:09.577Z</time>
        <extensions>
          <gpxtpx:TrackPointExtension xmlns:gpxtpx="http://www.garmin.com/xmlschemas/TrackPointExtension/v1">
            <gpxtpx:hr>126</gpxtpx:hr>
          </gpxtpx:TrackPointExtension>
        </extensions>
      </trkpt>
      <trkpt lat="46.50674" lon="0.30139">
        <ele>123.19999694824</ele>
        <time>2020-06-13T22:08:10.356Z</time>
        <extensions>
          <gpxtpx:TrackPointExtension xmlns:gpxtpx="http://www.garmin.com/xmlschemas/TrackPointExtension/v1">
            <gpxtpx:hr>126</gpxtpx:hr>
          </gpxtpx:TrackPointExtension>
        </extensions>
      </trkpt>
      <trkpt lat="46.50683" lon="0.30136">
        <ele>122.40000152588</ele>
        <time>2020-06-13T22:08:11.208Z</time>
        <extensions>
          <gpxtpx:TrackPointExtension xmlns:gpxtpx="http://www.garmin.com/xmlschemas/TrackPointExtension/v1">
            <gpxtpx:hr>125</gpxtpx:hr>
          </gpxtpx:TrackPointExtension>
        </extensions>
      </trkpt>
      <trkpt lat="46.5069" lon="0.30134">
        <ele>122.19999694824</ele>
        <time>2020-06-13T22:08:12.062Z</time>
        <extensions>
          <gpxtpx:TrackPointExtension xmlns:gpxtpx="http://www.garmin.com/xmlschemas/TrackPointExtension/v1">
            <gpxtpx:hr>125</gpxtpx:hr>
          </gpxtpx:TrackPointExtension>
        </extensions>
      </trkpt>
      <trkpt lat="46.50698" lon="0.30132">
        <ele>122</ele>
        <time>2020-06-13T22:08:13.070Z</time>
        <extensions>
          <gpxtpx:TrackPointExtension xmlns:gpxtpx="http://www.garmin.com/xmlschemas/TrackPointExtension/v1">
            <gpxtpx:hr>123</gpxtpx:hr>
          </gpxtpx:TrackPointExtension>
        </extensions>
      </trkpt>
      <trkpt lat="46.50705" lon="0.3013">
        <ele>122</ele>
        <time>2020-06-13T22:08:14.443Z</time>
        <extensions>
          <gpxtpx:TrackPointExtension xmlns:gpxtpx="http://www.garmin.com/xmlschemas/TrackPointExtension/v1">
            <gpxtpx:hr>123</gpxtpx:hr>
          </gpxtpx:TrackPointExtension>
        </extensions>
      </trkpt>
      <trkpt lat="46.50712" lon="0.30128">
        <ele>121.59999847412</ele>
        <time>2020-06-13T22:08:15.099Z</time>
        <extensions>
          <gpxtpx:TrackPointExtension xmlns:gpxtpx="http://www.garmin.com/xmlschemas/TrackPointExtension/v1">
            <gpxtpx:hr>122</gpxtpx:hr>
          </gpxtpx:TrackPointExtension>
        </extensions>
      </trkpt>
      <trkpt lat="46.5072" lon="0.30125">
        <ele>120.80000305176</ele>
        <time>2020-06-13T22:08:15.862Z</time>
        <extensions>
          <gpxtpx:TrackPointExtension xmlns:gpxtpx="http://www.garmin.com/xmlschemas/TrackPointExtension/v1">
            <gpxtpx:hr>122</gpxtpx:hr>
          </gpxtpx:TrackPointExtension>
        </extensions>
      </trkpt>
      <trkpt lat="46.5073" lon="0.30122">
        <ele>120.59999847412</ele>
        <time>2020-06-13T22:08:17.205Z</time>
        <extensions>
          <gpxtpx:TrackPointExtension xmlns:gpxtpx="http://www.garmin.com/xmlschemas/TrackPointExtension/v1">
            <gpxtpx:hr>122</gpxtpx:hr>
          </gpxtpx:TrackPointExtension>
        </extensions>
      </trkpt>
      <trkpt lat="46.50745" lon="0.30119">
        <ele>119.80000305176</ele>
        <time>2020-06-13T22:08:18.636Z</time>
        <extensions>
          <gpxtpx:TrackPointExtension xmlns:gpxtpx="http://www.garmin.com/xmlschemas/TrackPointExtension/v1">
            <gpxtpx:hr>121</gpxtpx:hr>
          </gpxtpx:TrackPointExtension>
        </extensions>
      </trkpt>
      <trkpt lat="46.50771" lon="0.30114">
        <ele>119.40000152588</ele>
        <time>2020-06-13T22:08:22.272Z</time>
        <extensions>
          <gpxtpx:TrackPointExtension xmlns:gpxtpx="http://www.garmin.com/xmlschemas/TrackPointExtension/v1">
            <gpxtpx:hr>120</gpxtpx:hr>
          </gpxtpx:TrackPointExtension>
        </extensions>
      </trkpt>
      <trkpt lat="46.50777" lon="0.30111">
        <ele>119.19999694824</ele>
        <time>2020-06-13T22:08:23.004Z</time>
        <extensions>
          <gpxtpx:TrackPointExtension xmlns:gpxtpx="http://www.garmin.com/xmlschemas/TrackPointExtension/v1">
            <gpxtpx:hr>120</gpxtpx:hr>
          </gpxtpx:TrackPointExtension>
        </extensions>
      </trkpt>
      <trkpt lat="46.50782" lon="0.30108">
        <ele>118.80000305176</ele>
        <time>2020-06-13T22:08:23.504Z</time>
        <extensions>
          <gpxtpx:TrackPointExtension xmlns:gpxtpx="http://www.garmin.com/xmlschemas/TrackPointExtension/v1">
            <gpxtpx:hr>120</gpxtpx:hr>
          </gpxtpx:TrackPointExtension>
        </extensions>
      </trkpt>
      <trkpt lat="46.50787" lon="0.30105">
        <ele>118.19999694824</ele>
        <time>2020-06-13T22:08:24.003Z</time>
        <extensions>
          <gpxtpx:TrackPointExtension xmlns:gpxtpx="http://www.garmin.com/xmlschemas/TrackPointExtension/v1">
            <gpxtpx:hr>120</gpxtpx:hr>
          </gpxtpx:TrackPointExtension>
        </extensions>
      </trkpt>
      <trkpt lat="46.50793" lon="0.30103">
        <ele>117.59999847412</ele>
        <time>2020-06-13T22:08:24.572Z</time>
        <extensions>
          <gpxtpx:TrackPointExtension xmlns:gpxtpx="http://www.garmin.com/xmlschemas/TrackPointExtension/v1">
            <gpxtpx:hr>120</gpxtpx:hr>
          </gpxtpx:TrackPointExtension>
        </extensions>
      </trkpt>
      <trkpt lat="46.50799" lon="0.30102">
        <ele>117.40000152588</ele>
        <time>2020-06-13T22:08:25.257Z</time>
        <extensions>
          <gpxtpx:TrackPointExtension xmlns:gpxtpx="http://www.garmin.com/xmlschemas/TrackPointExtension/v1">
            <gpxtpx:hr>121</gpxtpx:hr>
          </gpxtpx:TrackPointExtension>
        </extensions>
      </trkpt>
      <trkpt lat="46.50805" lon="0.30104">
        <ele>117.40000152588</ele>
        <time>2020-06-13T22:08:26.442Z</time>
        <extensions>
          <gpxtpx:TrackPointExtension xmlns:gpxtpx="http://www.garmin.com/xmlschemas/TrackPointExtension/v1">
            <gpxtpx:hr>121</gpxtpx:hr>
          </gpxtpx:TrackPointExtension>
        </extensions>
      </trkpt>
      <trkpt lat="46.50812" lon="0.30107">
        <ele>117.19999694824</ele>
        <time>2020-06-13T22:08:27.321Z</time>
        <extensions>
          <gpxtpx:TrackPointExtension xmlns:gpxtpx="http://www.garmin.com/xmlschemas/TrackPointExtension/v1">
            <gpxtpx:hr>124</gpxtpx:hr>
          </gpxtpx:TrackPointExtension>
        </extensions>
      </trkpt>
      <trkpt lat="46.50826" lon="0.3011">
        <ele>117.19999694824</ele>
        <time>2020-06-13T22:08:30.044Z</time>
        <extensions>
          <gpxtpx:TrackPointExtension xmlns:gpxtpx="http://www.garmin.com/xmlschemas/TrackPointExtension/v1">
            <gpxtpx:hr>127</gpxtpx:hr>
          </gpxtpx:TrackPointExtension>
        </extensions>
      </trkpt>
      <trkpt lat="46.50831" lon="0.3011">
        <ele>117.19999694824</ele>
        <time>2020-06-13T22:08:31.006Z</time>
        <extensions>
          <gpxtpx:TrackPointExtension xmlns:gpxtpx="http://www.garmin.com/xmlschemas/TrackPointExtension/v1">
            <gpxtpx:hr>127</gpxtpx:hr>
          </gpxtpx:TrackPointExtension>
        </extensions>
      </trkpt>
      <trkpt lat="46.50836" lon="0.30107">
        <ele>117.19999694824</ele>
        <time>2020-06-13T22:08:32.047Z</time>
        <extensions>
          <gpxtpx:TrackPointExtension xmlns:gpxtpx="http://www.garmin.com/xmlschemas/TrackPointExtension/v1">
            <gpxtpx:hr>132</gpxtpx:hr>
          </gpxtpx:TrackPointExtension>
        </extensions>
      </trkpt>
      <trkpt lat="46.50839" lon="0.30105">
        <ele>117.19999694824</ele>
        <time>2020-06-13T22:08:32.682Z</time>
        <extensions>
          <gpxtpx:TrackPointExtension xmlns:gpxtpx="http://www.garmin.com/xmlschemas/TrackPointExtension/v1">
            <gpxtpx:hr>132</gpxtpx:hr>
          </gpxtpx:TrackPointExtension>
        </extensions>
      </trkpt>
      <trkpt lat="46.50844" lon="0.30101">
        <ele>117.19999694824</ele>
        <time>2020-06-13T22:08:33.781Z</time>
        <extensions>
          <gpxtpx:TrackPointExtension xmlns:gpxtpx="http://www.garmin.com/xmlschemas/TrackPointExtension/v1">
            <gpxtpx:hr>137</gpxtpx:hr>
          </gpxtpx:TrackPointExtension>
        </extensions>
      </trkpt>
      <trkpt lat="46.50849" lon="0.30093">
        <ele>117.40000152588</ele>
        <time>2020-06-13T22:08:35.680Z</time>
        <extensions>
          <gpxtpx:TrackPointExtension xmlns:gpxtpx="http://www.garmin.com/xmlschemas/TrackPointExtension/v1">
            <gpxtpx:hr>137</gpxtpx:hr>
          </gpxtpx:TrackPointExtension>
        </extensions>
      </trkpt>
      <trkpt lat="46.50853" lon="0.30088">
        <ele>117.59999847412</ele>
        <time>2020-06-13T22:08:37.235Z</time>
        <extensions>
          <gpxtpx:TrackPointExtension xmlns:gpxtpx="http://www.garmin.com/xmlschemas/TrackPointExtension/v1">
            <gpxtpx:hr>142</gpxtpx:hr>
          </gpxtpx:TrackPointExtension>
        </extensions>
      </trkpt>
      <trkpt lat="46.50856" lon="0.30083">
        <ele>118.19999694824</ele>
        <time>2020-06-13T22:08:40.528Z</time>
        <extensions>
          <gpxtpx:TrackPointExtension xmlns:gpxtpx="http://www.garmin.com/xmlschemas/TrackPointExtension/v1">
            <gpxtpx:hr>142</gpxtpx:hr>
          </gpxtpx:TrackPointExtension>
        </extensions>
      </trkpt>
      <trkpt lat="46.50858" lon="0.30079">
        <ele>118.59999847412</ele>
        <time>2020-06-13T22:08:42.582Z</time>
        <extensions>
          <gpxtpx:TrackPointExtension xmlns:gpxtpx="http://www.garmin.com/xmlschemas/TrackPointExtension/v1">
            <gpxtpx:hr>146</gpxtpx:hr>
          </gpxtpx:TrackPointExtension>
        </extensions>
      </trkpt>
      <trkpt lat="46.50862" lon="0.30073">
        <ele>119.59999847412</ele>
        <time>2020-06-13T22:08:46.850Z</time>
        <extensions>
          <gpxtpx:TrackPointExtension xmlns:gpxtpx="http://www.garmin.com/xmlschemas/TrackPointExtension/v1">
            <gpxtpx:hr>146</gpxtpx:hr>
          </gpxtpx:TrackPointExtension>
        </extensions>
      </trkpt>
      <trkpt lat="46.50865" lon="0.30068">
        <ele>120.59999847412</ele>
        <time>2020-06-13T22:08:50.238Z</time>
        <extensions>
          <gpxtpx:TrackPointExtension xmlns:gpxtpx="http://www.garmin.com/xmlschemas/TrackPointExtension/v1">
            <gpxtpx:hr>150</gpxtpx:hr>
          </gpxtpx:TrackPointExtension>
        </extensions>
      </trkpt>
      <trkpt lat="46.50868" lon="0.30062">
        <ele>121</ele>
        <time>2020-06-13T22:08:52.348Z</time>
        <extensions>
          <gpxtpx:TrackPointExtension xmlns:gpxtpx="http://www.garmin.com/xmlschemas/TrackPointExtension/v1">
            <gpxtpx:hr>150</gpxtpx:hr>
          </gpxtpx:TrackPointExtension>
        </extensions>
      </trkpt>
      <trkpt lat="46.5087" lon="0.30058">
        <ele>121.80000305176</ele>
        <time>2020-06-13T22:08:54.874Z</time>
        <extensions>
          <gpxtpx:TrackPointExtension xmlns:gpxtpx="http://www.garmin.com/xmlschemas/TrackPointExtension/v1">
            <gpxtpx:hr>154</gpxtpx:hr>
          </gpxtpx:TrackPointExtension>
        </extensions>
      </trkpt>
      <trkpt lat="46.50872" lon="0.30053">
        <ele>122</ele>
        <time>2020-06-13T22:08:56.215Z</time>
        <extensions>
          <gpxtpx:TrackPointExtension xmlns:gpxtpx="http://www.garmin.com/xmlschemas/TrackPointExtension/v1">
            <gpxtpx:hr>156</gpxtpx:hr>
          </gpxtpx:TrackPointExtension>
        </extensions>
      </trkpt>
      <trkpt lat="46.50875" lon="0.30047">
        <ele>122.59999847412</ele>
        <time>2020-06-13T22:08:59.296Z</time>
        <extensions>
          <gpxtpx:TrackPointExtension xmlns:gpxtpx="http://www.garmin.com/xmlschemas/TrackPointExtension/v1">
            <gpxtpx:hr>157</gpxtpx:hr>
          </gpxtpx:TrackPointExtension>
        </extensions>
      </trkpt>
      <trkpt lat="46.50877" lon="0.30042">
        <ele>123</ele>
        <time>2020-06-13T22:09:01.298Z</time>
        <extensions>
          <gpxtpx:TrackPointExtension xmlns:gpxtpx="http://www.garmin.com/xmlschemas/TrackPointExtension/v1">
            <gpxtpx:hr>159</gpxtpx:hr>
          </gpxtpx:TrackPointExtension>
        </extensions>
      </trkpt>
      <trkpt lat="46.50879" lon="0.30037">
        <ele>123.59999847412</ele>
        <time>2020-06-13T22:09:04.252Z</time>
        <extensions>
          <gpxtpx:TrackPointExtension xmlns:gpxtpx="http://www.garmin.com/xmlschemas/TrackPointExtension/v1">
            <gpxtpx:hr>159</gpxtpx:hr>
          </gpxtpx:TrackPointExtension>
        </extensions>
      </trkpt>
      <trkpt lat="46.50882" lon="0.30032">
        <ele>124.19999694824</ele>
        <time>2020-06-13T22:09:07.545Z</time>
        <extensions>
          <gpxtpx:TrackPointExtension xmlns:gpxtpx="http://www.garmin.com/xmlschemas/TrackPointExtension/v1">
            <gpxtpx:hr>160</gpxtpx:hr>
          </gpxtpx:TrackPointExtension>
        </extensions>
      </trkpt>
      <trkpt lat="46.50885" lon="0.30027">
        <ele>124.59999847412</ele>
        <time>2020-06-13T22:09:09.584Z</time>
        <extensions>
          <gpxtpx:TrackPointExtension xmlns:gpxtpx="http://www.garmin.com/xmlschemas/TrackPointExtension/v1">
            <gpxtpx:hr>160</gpxtpx:hr>
          </gpxtpx:TrackPointExtension>
        </extensions>
      </trkpt>
      <trkpt lat="46.50888" lon="0.30022">
        <ele>125.19999694824</ele>
        <time>2020-06-13T22:09:12.877Z</time>
        <extensions>
          <gpxtpx:TrackPointExtension xmlns:gpxtpx="http://www.garmin.com/xmlschemas/TrackPointExtension/v1">
            <gpxtpx:hr>162</gpxtpx:hr>
          </gpxtpx:TrackPointExtension>
        </extensions>
      </trkpt>
      <trkpt lat="46.50891" lon="0.30015">
        <ele>125.40000152588</ele>
        <time>2020-06-13T22:09:14.490Z</time>
        <extensions>
          <gpxtpx:TrackPointExtension xmlns:gpxtpx="http://www.garmin.com/xmlschemas/TrackPointExtension/v1">
            <gpxtpx:hr>162</gpxtpx:hr>
          </gpxtpx:TrackPointExtension>
        </extensions>
      </trkpt>
      <trkpt lat="46.50895" lon="0.3001">
        <ele>125.80000305176</ele>
        <time>2020-06-13T22:09:16.627Z</time>
        <extensions>
          <gpxtpx:TrackPointExtension xmlns:gpxtpx="http://www.garmin.com/xmlschemas/TrackPointExtension/v1">
            <gpxtpx:hr>164</gpxtpx:hr>
          </gpxtpx:TrackPointExtension>
        </extensions>
      </trkpt>
      <trkpt lat="46.50898" lon="0.30004">
        <ele>126</ele>
        <time>2020-06-13T22:09:18.159Z</time>
        <extensions>
          <gpxtpx:TrackPointExtension xmlns:gpxtpx="http://www.garmin.com/xmlschemas/TrackPointExtension/v1">
            <gpxtpx:hr>164</gpxtpx:hr>
          </gpxtpx:TrackPointExtension>
        </extensions>
      </trkpt>
      <trkpt lat="46.50902" lon="0.29999">
        <ele>126.40000152588</ele>
        <time>2020-06-13T22:09:20.296Z</time>
        <extensions>
          <gpxtpx:TrackPointExtension xmlns:gpxtpx="http://www.garmin.com/xmlschemas/TrackPointExtension/v1">
            <gpxtpx:hr>166</gpxtpx:hr>
          </gpxtpx:TrackPointExtension>
        </extensions>
      </trkpt>
      <trkpt lat="46.50906" lon="0.29993">
        <ele>126.59999847412</ele>
        <time>2020-06-13T22:09:21.919Z</time>
        <extensions>
          <gpxtpx:TrackPointExtension xmlns:gpxtpx="http://www.garmin.com/xmlschemas/TrackPointExtension/v1">
            <gpxtpx:hr>166</gpxtpx:hr>
          </gpxtpx:TrackPointExtension>
        </extensions>
      </trkpt>
      <trkpt lat="46.50909" lon="0.29988">
        <ele>126.80000305176</ele>
        <time>2020-06-13T22:09:23.387Z</time>
        <extensions>
          <gpxtpx:TrackPointExtension xmlns:gpxtpx="http://www.garmin.com/xmlschemas/TrackPointExtension/v1">
            <gpxtpx:hr>167</gpxtpx:hr>
          </gpxtpx:TrackPointExtension>
        </extensions>
      </trkpt>
      <trkpt lat="46.50912" lon="0.29983">
        <ele>127</ele>
        <time>2020-06-13T22:09:24.854Z</time>
        <extensions>
          <gpxtpx:TrackPointExtension xmlns:gpxtpx="http://www.garmin.com/xmlschemas/TrackPointExtension/v1">
            <gpxtpx:hr>167</gpxtpx:hr>
          </gpxtpx:TrackPointExtension>
        </extensions>
      </trkpt>
      <trkpt lat="46.50915" lon="0.29977">
        <ele>127.19999694824</ele>
        <time>2020-06-13T22:09:26.386Z</time>
        <extensions>
          <gpxtpx:TrackPointExtension xmlns:gpxtpx="http://www.garmin.com/xmlschemas/TrackPointExtension/v1">
            <gpxtpx:hr>168</gpxtpx:hr>
          </gpxtpx:TrackPointExtension>
        </extensions>
      </trkpt>
      <trkpt lat="46.50919" lon="0.29971">
        <ele>127.59999847412</ele>
        <time>2020-06-13T22:09:28.605Z</time>
        <extensions>
          <gpxtpx:TrackPointExtension xmlns:gpxtpx="http://www.garmin.com/xmlschemas/TrackPointExtension/v1">
            <gpxtpx:hr>168</gpxtpx:hr>
          </gpxtpx:TrackPointExtension>
        </extensions>
      </trkpt>
      <trkpt lat="46.50923" lon="0.29965">
        <ele>128</ele>
        <time>2020-06-13T22:09:30.824Z</time>
        <extensions>
          <gpxtpx:TrackPointExtension xmlns:gpxtpx="http://www.garmin.com/xmlschemas/TrackPointExtension/v1">
            <gpxtpx:hr>169</gpxtpx:hr>
          </gpxtpx:TrackPointExtension>
        </extensions>
      </trkpt>
      <trkpt lat="46.50927" lon="0.2996">
        <ele>128.60000610352</ele>
        <time>2020-06-13T22:09:33.872Z</time>
        <extensions>
          <gpxtpx:TrackPointExtension xmlns:gpxtpx="http://www.garmin.com/xmlschemas/TrackPointExtension/v1">
            <gpxtpx:hr>169</gpxtpx:hr>
          </gpxtpx:TrackPointExtension>
        </extensions>
      </trkpt>
      <trkpt lat="46.5093" lon="0.29954">
        <ele>128.80000305176</ele>
        <time>2020-06-13T22:09:35.404Z</time>
        <extensions>
          <gpxtpx:TrackPointExtension xmlns:gpxtpx="http://www.garmin.com/xmlschemas/TrackPointExtension/v1">
            <gpxtpx:hr>170</gpxtpx:hr>
          </gpxtpx:TrackPointExtension>
        </extensions>
      </trkpt>
      <trkpt lat="46.50933" lon="0.29948">
        <ele>129</ele>
        <time>2020-06-13T22:09:36.937Z</time>
        <extensions>
          <gpxtpx:TrackPointExtension xmlns:gpxtpx="http://www.garmin.com/xmlschemas/TrackPointExtension/v1">
            <gpxtpx:hr>170</gpxtpx:hr>
          </gpxtpx:TrackPointExtension>
        </extensions>
      </trkpt>
      <trkpt lat="46.50936" lon="0.29943">
        <ele>129.39999389648</ele>
        <time>2020-06-13T22:09:38.975Z</time>
        <extensions>
          <gpxtpx:TrackPointExtension xmlns:gpxtpx="http://www.garmin.com/xmlschemas/TrackPointExtension/v1">
            <gpxtpx:hr>171</gpxtpx:hr>
          </gpxtpx:TrackPointExtension>
        </extensions>
      </trkpt>
      <trkpt lat="46.5094" lon="0.29937">
        <ele>129.39999389648</ele>
        <time>2020-06-13T22:09:40.082Z</time>
        <extensions>
          <gpxtpx:TrackPointExtension xmlns:gpxtpx="http://www.garmin.com/xmlschemas/TrackPointExtension/v1">
            <gpxtpx:hr>171</gpxtpx:hr>
          </gpxtpx:TrackPointExtension>
        </extensions>
      </trkpt>
      <trkpt lat="46.50943" lon="0.29932">
        <ele>130</ele>
        <time>2020-06-13T22:09:43.375Z</time>
        <extensions>
          <gpxtpx:TrackPointExtension xmlns:gpxtpx="http://www.garmin.com/xmlschemas/TrackPointExtension/v1">
            <gpxtpx:hr>172</gpxtpx:hr>
          </gpxtpx:TrackPointExtension>
        </extensions>
      </trkpt>
      <trkpt lat="46.50946" lon="0.29928">
        <ele>130.19999694824</ele>
        <time>2020-06-13T22:09:44.737Z</time>
        <extensions>
          <gpxtpx:TrackPointExtension xmlns:gpxtpx="http://www.garmin.com/xmlschemas/TrackPointExtension/v1">
            <gpxtpx:hr>172</gpxtpx:hr>
          </gpxtpx:TrackPointExtension>
        </extensions>
      </trkpt>
      <trkpt lat="46.5095" lon="0.29922">
        <ele>130.19999694824</ele>
        <time>2020-06-13T22:09:45.843Z</time>
        <extensions>
          <gpxtpx:TrackPointExtension xmlns:gpxtpx="http://www.garmin.com/xmlschemas/TrackPointExtension/v1">
            <gpxtpx:hr>173</gpxtpx:hr>
          </gpxtpx:TrackPointExtension>
        </extensions>
      </trkpt>
      <trkpt lat="46.50954" lon="0.29915">
        <ele>130.60000610352</ele>
        <time>2020-06-13T22:09:48.161Z</time>
        <extensions>
          <gpxtpx:TrackPointExtension xmlns:gpxtpx="http://www.garmin.com/xmlschemas/TrackPointExtension/v1">
            <gpxtpx:hr>173</gpxtpx:hr>
          </gpxtpx:TrackPointExtension>
        </extensions>
      </trkpt>
      <trkpt lat="46.50957" lon="0.29909">
        <ele>130.60000610352</ele>
        <time>2020-06-13T22:09:49.143Z</time>
        <extensions>
          <gpxtpx:TrackPointExtension xmlns:gpxtpx="http://www.garmin.com/xmlschemas/TrackPointExtension/v1">
            <gpxtpx:hr>173</gpxtpx:hr>
          </gpxtpx:TrackPointExtension>
        </extensions>
      </trkpt>
      <trkpt lat="46.50961" lon="0.29904">
        <ele>131</ele>
        <time>2020-06-13T22:09:51.280Z</time>
        <extensions>
          <gpxtpx:TrackPointExtension xmlns:gpxtpx="http://www.garmin.com/xmlschemas/TrackPointExtension/v1">
            <gpxtpx:hr>174</gpxtpx:hr>
          </gpxtpx:TrackPointExtension>
        </extensions>
      </trkpt>
      <trkpt lat="46.50964" lon="0.29901">
        <ele>131</ele>
        <time>2020-06-13T22:09:51.981Z</time>
        <extensions>
          <gpxtpx:TrackPointExtension xmlns:gpxtpx="http://www.garmin.com/xmlschemas/TrackPointExtension/v1">
            <gpxtpx:hr>174</gpxtpx:hr>
          </gpxtpx:TrackPointExtension>
        </extensions>
      </trkpt>
      <trkpt lat="46.50968" lon="0.29895">
        <ele>131.19999694824</ele>
        <time>2020-06-13T22:09:53.605Z</time>
        <extensions>
          <gpxtpx:TrackPointExtension xmlns:gpxtpx="http://www.garmin.com/xmlschemas/TrackPointExtension/v1">
            <gpxtpx:hr>174</gpxtpx:hr>
          </gpxtpx:TrackPointExtension>
        </extensions>
      </trkpt>
      <trkpt lat="46.50972" lon="0.29889">
        <ele>131.39999389648</ele>
        <time>2020-06-13T22:09:55.228Z</time>
        <extensions>
          <gpxtpx:TrackPointExtension xmlns:gpxtpx="http://www.garmin.com/xmlschemas/TrackPointExtension/v1">
            <gpxtpx:hr>174</gpxtpx:hr>
          </gpxtpx:TrackPointExtension>
        </extensions>
      </trkpt>
      <trkpt lat="46.50976" lon="0.29884">
        <ele>131.60000610352</ele>
        <time>2020-06-13T22:09:56.784Z</time>
        <extensions>
          <gpxtpx:TrackPointExtension xmlns:gpxtpx="http://www.garmin.com/xmlschemas/TrackPointExtension/v1">
            <gpxtpx:hr>174</gpxtpx:hr>
          </gpxtpx:TrackPointExtension>
        </extensions>
      </trkpt>
      <trkpt lat="46.5098" lon="0.29878">
        <ele>131.80000305176</ele>
        <time>2020-06-13T22:09:58.408Z</time>
        <extensions>
          <gpxtpx:TrackPointExtension xmlns:gpxtpx="http://www.garmin.com/xmlschemas/TrackPointExtension/v1">
            <gpxtpx:hr>174</gpxtpx:hr>
          </gpxtpx:TrackPointExtension>
        </extensions>
      </trkpt>
      <trkpt lat="46.50984" lon="0.29873">
        <ele>132</ele>
        <time>2020-06-13T22:09:59.963Z</time>
        <extensions>
          <gpxtpx:TrackPointExtension xmlns:gpxtpx="http://www.garmin.com/xmlschemas/TrackPointExtension/v1">
            <gpxtpx:hr>174</gpxtpx:hr>
          </gpxtpx:TrackPointExtension>
        </extensions>
      </trkpt>
      <trkpt lat="46.50987" lon="0.29867">
        <ele>132.39999389648</ele>
        <time>2020-06-13T22:10:02.073Z</time>
        <extensions>
          <gpxtpx:TrackPointExtension xmlns:gpxtpx="http://www.garmin.com/xmlschemas/TrackPointExtension/v1">
            <gpxtpx:hr>174</gpxtpx:hr>
          </gpxtpx:TrackPointExtension>
        </extensions>
      </trkpt>
      <trkpt lat="46.5099" lon="0.29861">
        <ele>132.39999389648</ele>
        <time>2020-06-13T22:10:03.055Z</time>
        <extensions>
          <gpxtpx:TrackPointExtension xmlns:gpxtpx="http://www.garmin.com/xmlschemas/TrackPointExtension/v1">
            <gpxtpx:hr>174</gpxtpx:hr>
          </gpxtpx:TrackPointExtension>
        </extensions>
      </trkpt>
      <trkpt lat="46.50993" lon="0.29855">
        <ele>132.39999389648</ele>
        <time>2020-06-13T22:10:04.037Z</time>
        <extensions>
          <gpxtpx:TrackPointExtension xmlns:gpxtpx="http://www.garmin.com/xmlschemas/TrackPointExtension/v1">
            <gpxtpx:hr>174</gpxtpx:hr>
          </gpxtpx:TrackPointExtension>
        </extensions>
      </trkpt>
      <trkpt lat="46.50996" lon="0.29851">
        <ele>132.60000610352</ele>
        <time>2020-06-13T22:10:05.399Z</time>
        <extensions>
          <gpxtpx:TrackPointExtension xmlns:gpxtpx="http://www.garmin.com/xmlschemas/TrackPointExtension/v1">
            <gpxtpx:hr>174</gpxtpx:hr>
          </gpxtpx:TrackPointExtension>
        </extensions>
      </trkpt>
      <trkpt lat="46.50999" lon="0.29847">
        <ele>132.60000610352</ele>
        <time>2020-06-13T22:10:06.183Z</time>
        <extensions>
          <gpxtpx:TrackPointExtension xmlns:gpxtpx="http://www.garmin.com/xmlschemas/TrackPointExtension/v1">
            <gpxtpx:hr>174</gpxtpx:hr>
          </gpxtpx:TrackPointExtension>
        </extensions>
      </trkpt>
      <trkpt lat="46.51004" lon="0.2984">
        <ele>132.80000305176</ele>
        <time>2020-06-13T22:10:07.998Z</time>
        <extensions>
          <gpxtpx:TrackPointExtension xmlns:gpxtpx="http://www.garmin.com/xmlschemas/TrackPointExtension/v1">
            <gpxtpx:hr>174</gpxtpx:hr>
          </gpxtpx:TrackPointExtension>
        </extensions>
      </trkpt>
      <trkpt lat="46.51007" lon="0.29835">
        <ele>132.80000305176</ele>
        <time>2020-06-13T22:10:08.876Z</time>
        <extensions>
          <gpxtpx:TrackPointExtension xmlns:gpxtpx="http://www.garmin.com/xmlschemas/TrackPointExtension/v1">
            <gpxtpx:hr>174</gpxtpx:hr>
          </gpxtpx:TrackPointExtension>
        </extensions>
      </trkpt>
      <trkpt lat="46.51011" lon="0.29829">
        <ele>133</ele>
        <time>2020-06-13T22:10:10.500Z</time>
        <extensions>
          <gpxtpx:TrackPointExtension xmlns:gpxtpx="http://www.garmin.com/xmlschemas/TrackPointExtension/v1">
            <gpxtpx:hr>174</gpxtpx:hr>
          </gpxtpx:TrackPointExtension>
        </extensions>
      </trkpt>
      <trkpt lat="46.51013" lon="0.29825">
        <ele>133</ele>
        <time>2020-06-13T22:10:11.155Z</time>
        <extensions>
          <gpxtpx:TrackPointExtension xmlns:gpxtpx="http://www.garmin.com/xmlschemas/TrackPointExtension/v1">
            <gpxtpx:hr>174</gpxtpx:hr>
          </gpxtpx:TrackPointExtension>
        </extensions>
      </trkpt>
      <trkpt lat="46.51016" lon="0.2982">
        <ele>133</ele>
        <time>2020-06-13T22:10:12.033Z</time>
        <extensions>
          <gpxtpx:TrackPointExtension xmlns:gpxtpx="http://www.garmin.com/xmlschemas/TrackPointExtension/v1">
            <gpxtpx:hr>174</gpxtpx:hr>
          </gpxtpx:TrackPointExtension>
        </extensions>
      </trkpt>
      <trkpt lat="46.51019" lon="0.29812">
        <ele>133.19999694824</ele>
        <time>2020-06-13T22:10:13.738Z</time>
        <extensions>
          <gpxtpx:TrackPointExtension xmlns:gpxtpx="http://www.garmin.com/xmlschemas/TrackPointExtension/v1">
            <gpxtpx:hr>174</gpxtpx:hr>
          </gpxtpx:TrackPointExtension>
        </extensions>
      </trkpt>
      <trkpt lat="46.51022" lon="0.29806">
        <ele>133.19999694824</ele>
        <time>2020-06-13T22:10:14.720Z</time>
        <extensions>
          <gpxtpx:TrackPointExtension xmlns:gpxtpx="http://www.garmin.com/xmlschemas/TrackPointExtension/v1">
            <gpxtpx:hr>174</gpxtpx:hr>
          </gpxtpx:TrackPointExtension>
        </extensions>
      </trkpt>
      <trkpt lat="46.51025" lon="0.29799">
        <ele>133.19999694824</ele>
        <time>2020-06-13T22:10:15.812Z</time>
        <extensions>
          <gpxtpx:TrackPointExtension xmlns:gpxtpx="http://www.garmin.com/xmlschemas/TrackPointExtension/v1">
            <gpxtpx:hr>174</gpxtpx:hr>
          </gpxtpx:TrackPointExtension>
        </extensions>
      </trkpt>
      <trkpt lat="46.51026" lon="0.29793">
        <ele>133.19999694824</ele>
        <time>2020-06-13T22:10:16.630Z</time>
        <extensions>
          <gpxtpx:TrackPointExtension xmlns:gpxtpx="http://www.garmin.com/xmlschemas/TrackPointExtension/v1">
            <gpxtpx:hr>174</gpxtpx:hr>
          </gpxtpx:TrackPointExtension>
        </extensions>
      </trkpt>
      <trkpt lat="46.51032" lon="0.29771">
        <ele>133.39999389648</ele>
        <time>2020-06-13T22:10:20.161Z</time>
        <extensions>
          <gpxtpx:TrackPointExtension xmlns:gpxtpx="http://www.garmin.com/xmlschemas/TrackPointExtension/v1">
            <gpxtpx:hr>174</gpxtpx:hr>
          </gpxtpx:TrackPointExtension>
        </extensions>
      </trkpt>
      <trkpt lat="46.51034" lon="0.29763">
        <ele>133.80000305176</ele>
        <time>2020-06-13T22:10:22.401Z</time>
        <extensions>
          <gpxtpx:TrackPointExtension xmlns:gpxtpx="http://www.garmin.com/xmlschemas/TrackPointExtension/v1">
            <gpxtpx:hr>174</gpxtpx:hr>
          </gpxtpx:TrackPointExtension>
        </extensions>
      </trkpt>
      <trkpt lat="46.51036" lon="0.29757">
        <ele>134</ele>
        <time>2020-06-13T22:10:23.871Z</time>
        <extensions>
          <gpxtpx:TrackPointExtension xmlns:gpxtpx="http://www.garmin.com/xmlschemas/TrackPointExtension/v1">
            <gpxtpx:hr>174</gpxtpx:hr>
          </gpxtpx:TrackPointExtension>
        </extensions>
      </trkpt>
      <trkpt lat="46.51038" lon="0.2975">
        <ele>134</ele>
        <time>2020-06-13T22:10:24.874Z</time>
        <extensions>
          <gpxtpx:TrackPointExtension xmlns:gpxtpx="http://www.garmin.com/xmlschemas/TrackPointExtension/v1">
            <gpxtpx:hr>174</gpxtpx:hr>
          </gpxtpx:TrackPointExtension>
        </extensions>
      </trkpt>
      <trkpt lat="46.51041" lon="0.29742">
        <ele>134</ele>
        <time>2020-06-13T22:10:26.081Z</time>
        <extensions>
          <gpxtpx:TrackPointExtension xmlns:gpxtpx="http://www.garmin.com/xmlschemas/TrackPointExtension/v1">
            <gpxtpx:hr>173</gpxtpx:hr>
          </gpxtpx:TrackPointExtension>
        </extensions>
      </trkpt>
      <trkpt lat="46.51043" lon="0.29736">
        <ele>134.19999694824</ele>
        <time>2020-06-13T22:10:27.551Z</time>
        <extensions>
          <gpxtpx:TrackPointExtension xmlns:gpxtpx="http://www.garmin.com/xmlschemas/TrackPointExtension/v1">
            <gpxtpx:hr>173</gpxtpx:hr>
          </gpxtpx:TrackPointExtension>
        </extensions>
      </trkpt>
      <trkpt lat="46.51046" lon="0.2973">
        <ele>134.39999389648</ele>
        <time>2020-06-13T22:10:29.083Z</time>
        <extensions>
          <gpxtpx:TrackPointExtension xmlns:gpxtpx="http://www.garmin.com/xmlschemas/TrackPointExtension/v1">
            <gpxtpx:hr>173</gpxtpx:hr>
          </gpxtpx:TrackPointExtension>
        </extensions>
      </trkpt>
      <trkpt lat="46.51048" lon="0.29724">
        <ele>134.60000610352</ele>
        <time>2020-06-13T22:10:30.553Z</time>
        <extensions>
          <gpxtpx:TrackPointExtension xmlns:gpxtpx="http://www.garmin.com/xmlschemas/TrackPointExtension/v1">
            <gpxtpx:hr>173</gpxtpx:hr>
          </gpxtpx:TrackPointExtension>
        </extensions>
      </trkpt>
      <trkpt lat="46.51052" lon="0.29717">
        <ele>134.80000305176</ele>
        <time>2020-06-13T22:10:32.256Z</time>
        <extensions>
          <gpxtpx:TrackPointExtension xmlns:gpxtpx="http://www.garmin.com/xmlschemas/TrackPointExtension/v1">
            <gpxtpx:hr>172</gpxtpx:hr>
          </gpxtpx:TrackPointExtension>
        </extensions>
      </trkpt>
      <trkpt lat="46.51055" lon="0.29712">
        <ele>134.80000305176</ele>
        <time>2020-06-13T22:10:33.135Z</time>
        <extensions>
          <gpxtpx:TrackPointExtension xmlns:gpxtpx="http://www.garmin.com/xmlschemas/TrackPointExtension/v1">
            <gpxtpx:hr>172</gpxtpx:hr>
          </gpxtpx:TrackPointExtension>
        </extensions>
      </trkpt>
      <trkpt lat="46.51059" lon="0.29705">
        <ele>134.80000305176</ele>
        <time>2020-06-13T22:10:34.340Z</time>
        <extensions>
          <gpxtpx:TrackPointExtension xmlns:gpxtpx="http://www.garmin.com/xmlschemas/TrackPointExtension/v1">
            <gpxtpx:hr>172</gpxtpx:hr>
          </gpxtpx:TrackPointExtension>
        </extensions>
      </trkpt>
      <trkpt lat="46.51062" lon="0.297">
        <ele>135</ele>
        <time>2020-06-13T22:10:35.807Z</time>
        <extensions>
          <gpxtpx:TrackPointExtension xmlns:gpxtpx="http://www.garmin.com/xmlschemas/TrackPointExtension/v1">
            <gpxtpx:hr>172</gpxtpx:hr>
          </gpxtpx:TrackPointExtension>
        </extensions>
      </trkpt>
      <trkpt lat="46.51065" lon="0.29693">
        <ele>135</ele>
        <time>2020-06-13T22:10:36.899Z</time>
        <extensions>
          <gpxtpx:TrackPointExtension xmlns:gpxtpx="http://www.garmin.com/xmlschemas/TrackPointExtension/v1">
            <gpxtpx:hr>172</gpxtpx:hr>
          </gpxtpx:TrackPointExtension>
        </extensions>
      </trkpt>
      <trkpt lat="46.51069" lon="0.29684">
        <ele>135.19999694824</ele>
        <time>2020-06-13T22:10:38.787Z</time>
        <extensions>
          <gpxtpx:TrackPointExtension xmlns:gpxtpx="http://www.garmin.com/xmlschemas/TrackPointExtension/v1">
            <gpxtpx:hr>171</gpxtpx:hr>
          </gpxtpx:TrackPointExtension>
        </extensions>
      </trkpt>
      <trkpt lat="46.51071" lon="0.29676">
        <ele>135.19999694824</ele>
        <time>2020-06-13T22:10:39.914Z</time>
        <extensions>
          <gpxtpx:TrackPointExtension xmlns:gpxtpx="http://www.garmin.com/xmlschemas/TrackPointExtension/v1">
            <gpxtpx:hr>171</gpxtpx:hr>
          </gpxtpx:TrackPointExtension>
        </extensions>
      </trkpt>
      <trkpt lat="46.51075" lon="0.29662">
        <ele>135.60000610352</ele>
        <time>2020-06-13T22:10:43.009Z</time>
        <extensions>
          <gpxtpx:TrackPointExtension xmlns:gpxtpx="http://www.garmin.com/xmlschemas/TrackPointExtension/v1">
            <gpxtpx:hr>171</gpxtpx:hr>
          </gpxtpx:TrackPointExtension>
        </extensions>
      </trkpt>
      <trkpt lat="46.51078" lon="0.29654">
        <ele>135.60000610352</ele>
        <time>2020-06-13T22:10:44.215Z</time>
        <extensions>
          <gpxtpx:TrackPointExtension xmlns:gpxtpx="http://www.garmin.com/xmlschemas/TrackPointExtension/v1">
            <gpxtpx:hr>171</gpxtpx:hr>
          </gpxtpx:TrackPointExtension>
        </extensions>
      </trkpt>
      <trkpt lat="46.5108" lon="0.29646">
        <ele>135.60000610352</ele>
        <time>2020-06-13T22:10:45.342Z</time>
        <extensions>
          <gpxtpx:TrackPointExtension xmlns:gpxtpx="http://www.garmin.com/xmlschemas/TrackPointExtension/v1">
            <gpxtpx:hr>171</gpxtpx:hr>
          </gpxtpx:TrackPointExtension>
        </extensions>
      </trkpt>
      <trkpt lat="46.51082" lon="0.29639">
        <ele>135.60000610352</ele>
        <time>2020-06-13T22:10:46.346Z</time>
        <extensions>
          <gpxtpx:TrackPointExtension xmlns:gpxtpx="http://www.garmin.com/xmlschemas/TrackPointExtension/v1">
            <gpxtpx:hr>170</gpxtpx:hr>
          </gpxtpx:TrackPointExtension>
        </extensions>
      </trkpt>
      <trkpt lat="46.51092" lon="0.29601">
        <ele>135.80000305176</ele>
        <time>2020-06-13T22:10:52.112Z</time>
        <extensions>
          <gpxtpx:TrackPointExtension xmlns:gpxtpx="http://www.garmin.com/xmlschemas/TrackPointExtension/v1">
            <gpxtpx:hr>169</gpxtpx:hr>
          </gpxtpx:TrackPointExtension>
        </extensions>
      </trkpt>
      <trkpt lat="46.51095" lon="0.29594">
        <ele>135.80000305176</ele>
        <time>2020-06-13T22:10:53.204Z</time>
        <extensions>
          <gpxtpx:TrackPointExtension xmlns:gpxtpx="http://www.garmin.com/xmlschemas/TrackPointExtension/v1">
            <gpxtpx:hr>169</gpxtpx:hr>
          </gpxtpx:TrackPointExtension>
        </extensions>
      </trkpt>
      <trkpt lat="46.51098" lon="0.29587">
        <ele>136</ele>
        <time>2020-06-13T22:10:54.816Z</time>
        <extensions>
          <gpxtpx:TrackPointExtension xmlns:gpxtpx="http://www.garmin.com/xmlschemas/TrackPointExtension/v1">
            <gpxtpx:hr>169</gpxtpx:hr>
          </gpxtpx:TrackPointExtension>
        </extensions>
      </trkpt>
      <trkpt lat="46.51102" lon="0.2958">
        <ele>136</ele>
        <time>2020-06-13T22:10:56.021Z</time>
        <extensions>
          <gpxtpx:TrackPointExtension xmlns:gpxtpx="http://www.garmin.com/xmlschemas/TrackPointExtension/v1">
            <gpxtpx:hr>168</gpxtpx:hr>
          </gpxtpx:TrackPointExtension>
        </extensions>
      </trkpt>
      <trkpt lat="46.51105" lon="0.29574">
        <ele>136</ele>
        <time>2020-06-13T22:10:57.004Z</time>
        <extensions>
          <gpxtpx:TrackPointExtension xmlns:gpxtpx="http://www.garmin.com/xmlschemas/TrackPointExtension/v1">
            <gpxtpx:hr>168</gpxtpx:hr>
          </gpxtpx:TrackPointExtension>
        </extensions>
      </trkpt>
      <trkpt lat="46.51109" lon="0.29567">
        <ele>136</ele>
        <time>2020-06-13T22:10:58.209Z</time>
        <extensions>
          <gpxtpx:TrackPointExtension xmlns:gpxtpx="http://www.garmin.com/xmlschemas/TrackPointExtension/v1">
            <gpxtpx:hr>168</gpxtpx:hr>
          </gpxtpx:TrackPointExtension>
        </extensions>
      </trkpt>
      <trkpt lat="46.51112" lon="0.29561">
        <ele>136.19999694824</ele>
        <time>2020-06-13T22:10:59.741Z</time>
        <extensions>
          <gpxtpx:TrackPointExtension xmlns:gpxtpx="http://www.garmin.com/xmlschemas/TrackPointExtension/v1">
            <gpxtpx:hr>168</gpxtpx:hr>
          </gpxtpx:TrackPointExtension>
        </extensions>
      </trkpt>
      <trkpt lat="46.51116" lon="0.29554">
        <ele>136.60000610352</ele>
        <time>2020-06-13T22:11:02.058Z</time>
        <extensions>
          <gpxtpx:TrackPointExtension xmlns:gpxtpx="http://www.garmin.com/xmlschemas/TrackPointExtension/v1">
            <gpxtpx:hr>168</gpxtpx:hr>
          </gpxtpx:TrackPointExtension>
        </extensions>
      </trkpt>
      <trkpt lat="46.51124" lon="0.2954">
        <ele>137</ele>
        <time>2020-06-13T22:11:05.465Z</time>
        <extensions>
          <gpxtpx:TrackPointExtension xmlns:gpxtpx="http://www.garmin.com/xmlschemas/TrackPointExtension/v1">
            <gpxtpx:hr>168</gpxtpx:hr>
          </gpxtpx:TrackPointExtension>
        </extensions>
      </trkpt>
      <trkpt lat="46.51128" lon="0.29533">
        <ele>137</ele>
        <time>2020-06-13T22:11:06.670Z</time>
        <extensions>
          <gpxtpx:TrackPointExtension xmlns:gpxtpx="http://www.garmin.com/xmlschemas/TrackPointExtension/v1">
            <gpxtpx:hr>168</gpxtpx:hr>
          </gpxtpx:TrackPointExtension>
        </extensions>
      </trkpt>
      <trkpt lat="46.51132" lon="0.29526">
        <ele>137</ele>
        <time>2020-06-13T22:11:07.875Z</time>
        <extensions>
          <gpxtpx:TrackPointExtension xmlns:gpxtpx="http://www.garmin.com/xmlschemas/TrackPointExtension/v1">
            <gpxtpx:hr>168</gpxtpx:hr>
          </gpxtpx:TrackPointExtension>
        </extensions>
      </trkpt>
      <trkpt lat="46.51135" lon="0.2952">
        <ele>137</ele>
        <time>2020-06-13T22:11:08.857Z</time>
        <extensions>
          <gpxtpx:TrackPointExtension xmlns:gpxtpx="http://www.garmin.com/xmlschemas/TrackPointExtension/v1">
            <gpxtpx:hr>168</gpxtpx:hr>
          </gpxtpx:TrackPointExtension>
        </extensions>
      </trkpt>
      <trkpt lat="46.5114" lon="0.29514">
        <ele>137</ele>
        <time>2020-06-13T22:11:10.105Z</time>
        <extensions>
          <gpxtpx:TrackPointExtension xmlns:gpxtpx="http://www.garmin.com/xmlschemas/TrackPointExtension/v1">
            <gpxtpx:hr>168</gpxtpx:hr>
          </gpxtpx:TrackPointExtension>
        </extensions>
      </trkpt>
      <trkpt lat="46.51146" lon="0.2951">
        <ele>137.19999694824</ele>
        <time>2020-06-13T22:11:11.863Z</time>
        <extensions>
          <gpxtpx:TrackPointExtension xmlns:gpxtpx="http://www.garmin.com/xmlschemas/TrackPointExtension/v1">
            <gpxtpx:hr>168</gpxtpx:hr>
          </gpxtpx:TrackPointExtension>
        </extensions>
      </trkpt>
      <trkpt lat="46.51152" lon="0.29508">
        <ele>137.19999694824</ele>
        <time>2020-06-13T22:11:13.048Z</time>
        <extensions>
          <gpxtpx:TrackPointExtension xmlns:gpxtpx="http://www.garmin.com/xmlschemas/TrackPointExtension/v1">
            <gpxtpx:hr>168</gpxtpx:hr>
          </gpxtpx:TrackPointExtension>
        </extensions>
      </trkpt>
      <trkpt lat="46.51158" lon="0.29508">
        <ele>137.19999694824</ele>
        <time>2020-06-13T22:11:14.203Z</time>
        <extensions>
          <gpxtpx:TrackPointExtension xmlns:gpxtpx="http://www.garmin.com/xmlschemas/TrackPointExtension/v1">
            <gpxtpx:hr>168</gpxtpx:hr>
          </gpxtpx:TrackPointExtension>
        </extensions>
      </trkpt>
      <trkpt lat="46.51164" lon="0.29511">
        <ele>137.19999694824</ele>
        <time>2020-06-13T22:11:15.424Z</time>
        <extensions>
          <gpxtpx:TrackPointExtension xmlns:gpxtpx="http://www.garmin.com/xmlschemas/TrackPointExtension/v1">
            <gpxtpx:hr>168</gpxtpx:hr>
          </gpxtpx:TrackPointExtension>
        </extensions>
      </trkpt>
      <trkpt lat="46.51169" lon="0.29516">
        <ele>137</ele>
        <time>2020-06-13T22:11:16.114Z</time>
        <extensions>
          <gpxtpx:TrackPointExtension xmlns:gpxtpx="http://www.garmin.com/xmlschemas/TrackPointExtension/v1">
            <gpxtpx:hr>168</gpxtpx:hr>
          </gpxtpx:TrackPointExtension>
        </extensions>
      </trkpt>
      <trkpt lat="46.51175" lon="0.2952">
        <ele>136.80000305176</ele>
        <time>2020-06-13T22:11:16.885Z</time>
        <extensions>
          <gpxtpx:TrackPointExtension xmlns:gpxtpx="http://www.garmin.com/xmlschemas/TrackPointExtension/v1">
            <gpxtpx:hr>168</gpxtpx:hr>
          </gpxtpx:TrackPointExtension>
        </extensions>
      </trkpt>
      <trkpt lat="46.51181" lon="0.29522">
        <ele>136.80000305176</ele>
        <time>2020-06-13T22:11:18.069Z</time>
        <extensions>
          <gpxtpx:TrackPointExtension xmlns:gpxtpx="http://www.garmin.com/xmlschemas/TrackPointExtension/v1">
            <gpxtpx:hr>167</gpxtpx:hr>
          </gpxtpx:TrackPointExtension>
        </extensions>
      </trkpt>
      <trkpt lat="46.51187" lon="0.29521">
        <ele>136.60000610352</ele>
        <time>2020-06-13T22:11:18.754Z</time>
        <extensions>
          <gpxtpx:TrackPointExtension xmlns:gpxtpx="http://www.garmin.com/xmlschemas/TrackPointExtension/v1">
            <gpxtpx:hr>167</gpxtpx:hr>
          </gpxtpx:TrackPointExtension>
        </extensions>
      </trkpt>
      <trkpt lat="46.51194" lon="0.29518">
        <ele>136.39999389648</ele>
        <time>2020-06-13T22:11:19.633Z</time>
        <extensions>
          <gpxtpx:TrackPointExtension xmlns:gpxtpx="http://www.garmin.com/xmlschemas/TrackPointExtension/v1">
            <gpxtpx:hr>166</gpxtpx:hr>
          </gpxtpx:TrackPointExtension>
        </extensions>
      </trkpt>
      <trkpt lat="46.51199" lon="0.29513">
        <ele>136.39999389648</ele>
        <time>2020-06-13T22:11:20.801Z</time>
        <extensions>
          <gpxtpx:TrackPointExtension xmlns:gpxtpx="http://www.garmin.com/xmlschemas/TrackPointExtension/v1">
            <gpxtpx:hr>166</gpxtpx:hr>
          </gpxtpx:TrackPointExtension>
        </extensions>
      </trkpt>
      <trkpt lat="46.51203" lon="0.29506">
        <ele>136.39999389648</ele>
        <time>2020-06-13T22:11:22.006Z</time>
        <extensions>
          <gpxtpx:TrackPointExtension xmlns:gpxtpx="http://www.garmin.com/xmlschemas/TrackPointExtension/v1">
            <gpxtpx:hr>165</gpxtpx:hr>
          </gpxtpx:TrackPointExtension>
        </extensions>
      </trkpt>
      <trkpt lat="46.51225" lon="0.29473">
        <ele>135.80000305176</ele>
        <time>2020-06-13T22:11:26.196Z</time>
        <extensions>
          <gpxtpx:TrackPointExtension xmlns:gpxtpx="http://www.garmin.com/xmlschemas/TrackPointExtension/v1">
            <gpxtpx:hr>164</gpxtpx:hr>
          </gpxtpx:TrackPointExtension>
        </extensions>
      </trkpt>
      <trkpt lat="46.51229" lon="0.2947">
        <ele>135.80000305176</ele>
        <time>2020-06-13T22:11:27.062Z</time>
        <extensions>
          <gpxtpx:TrackPointExtension xmlns:gpxtpx="http://www.garmin.com/xmlschemas/TrackPointExtension/v1">
            <gpxtpx:hr>163</gpxtpx:hr>
          </gpxtpx:TrackPointExtension>
        </extensions>
      </trkpt>
      <trkpt lat="46.51233" lon="0.2947">
        <ele>135.80000305176</ele>
        <time>2020-06-13T22:11:27.832Z</time>
        <extensions>
          <gpxtpx:TrackPointExtension xmlns:gpxtpx="http://www.garmin.com/xmlschemas/TrackPointExtension/v1">
            <gpxtpx:hr>162</gpxtpx:hr>
          </gpxtpx:TrackPointExtension>
        </extensions>
      </trkpt>
      <trkpt lat="46.51236" lon="0.29471">
        <ele>135.60000610352</ele>
        <time>2020-06-13T22:11:28.096Z</time>
        <extensions>
          <gpxtpx:TrackPointExtension xmlns:gpxtpx="http://www.garmin.com/xmlschemas/TrackPointExtension/v1">
            <gpxtpx:hr>161</gpxtpx:hr>
          </gpxtpx:TrackPointExtension>
        </extensions>
      </trkpt>
      <trkpt lat="46.51239" lon="0.29474">
        <ele>135.60000610352</ele>
        <time>2020-06-13T22:11:28.797Z</time>
        <extensions>
          <gpxtpx:TrackPointExtension xmlns:gpxtpx="http://www.garmin.com/xmlschemas/TrackPointExtension/v1">
            <gpxtpx:hr>159</gpxtpx:hr>
          </gpxtpx:TrackPointExtension>
        </extensions>
      </trkpt>
      <trkpt lat="46.51243" lon="0.29478">
        <ele>135.60000610352</ele>
        <time>2020-06-13T22:11:29.731Z</time>
        <extensions>
          <gpxtpx:TrackPointExtension xmlns:gpxtpx="http://www.garmin.com/xmlschemas/TrackPointExtension/v1">
            <gpxtpx:hr>159</gpxtpx:hr>
          </gpxtpx:TrackPointExtension>
        </extensions>
      </trkpt>
      <trkpt lat="46.51246" lon="0.29484">
        <ele>135.39999389648</ele>
        <time>2020-06-13T22:11:30.277Z</time>
        <extensions>
          <gpxtpx:TrackPointExtension xmlns:gpxtpx="http://www.garmin.com/xmlschemas/TrackPointExtension/v1">
            <gpxtpx:hr>158</gpxtpx:hr>
          </gpxtpx:TrackPointExtension>
        </extensions>
      </trkpt>
      <trkpt lat="46.5125" lon="0.29489">
        <ele>135.39999389648</ele>
        <time>2020-06-13T22:11:31.292Z</time>
        <extensions>
          <gpxtpx:TrackPointExtension xmlns:gpxtpx="http://www.garmin.com/xmlschemas/TrackPointExtension/v1">
            <gpxtpx:hr>158</gpxtpx:hr>
          </gpxtpx:TrackPointExtension>
        </extensions>
      </trkpt>
      <trkpt lat="46.51253" lon="0.29495">
        <ele>135.39999389648</ele>
        <time>2020-06-13T22:11:32.274Z</time>
        <extensions>
          <gpxtpx:TrackPointExtension xmlns:gpxtpx="http://www.garmin.com/xmlschemas/TrackPointExtension/v1">
            <gpxtpx:hr>155</gpxtpx:hr>
          </gpxtpx:TrackPointExtension>
        </extensions>
      </trkpt>
      <trkpt lat="46.51269" lon="0.29519">
        <ele>135.80000305176</ele>
        <time>2020-06-13T22:11:37.538Z</time>
        <extensions>
          <gpxtpx:TrackPointExtension xmlns:gpxtpx="http://www.garmin.com/xmlschemas/TrackPointExtension/v1">
            <gpxtpx:hr>152</gpxtpx:hr>
          </gpxtpx:TrackPointExtension>
        </extensions>
      </trkpt>
      <trkpt lat="46.51273" lon="0.29526">
        <ele>135.80000305176</ele>
        <time>2020-06-13T22:11:38.743Z</time>
        <extensions>
          <gpxtpx:TrackPointExtension xmlns:gpxtpx="http://www.garmin.com/xmlschemas/TrackPointExtension/v1">
            <gpxtpx:hr>152</gpxtpx:hr>
          </gpxtpx:TrackPointExtension>
        </extensions>
      </trkpt>
      <trkpt lat="46.51277" lon="0.29532">
        <ele>136</ele>
        <time>2020-06-13T22:11:40.367Z</time>
        <extensions>
          <gpxtpx:TrackPointExtension xmlns:gpxtpx="http://www.garmin.com/xmlschemas/TrackPointExtension/v1">
            <gpxtpx:hr>152</gpxtpx:hr>
          </gpxtpx:TrackPointExtension>
        </extensions>
      </trkpt>
      <trkpt lat="46.51283" lon="0.29539">
        <ele>136.19999694824</ele>
        <time>2020-06-13T22:11:42.310Z</time>
        <extensions>
          <gpxtpx:TrackPointExtension xmlns:gpxtpx="http://www.garmin.com/xmlschemas/TrackPointExtension/v1">
            <gpxtpx:hr>152</gpxtpx:hr>
          </gpxtpx:TrackPointExtension>
        </extensions>
      </trkpt>
      <trkpt lat="46.51286" lon="0.29545">
        <ele>136.19999694824</ele>
        <time>2020-06-13T22:11:43.292Z</time>
        <extensions>
          <gpxtpx:TrackPointExtension xmlns:gpxtpx="http://www.garmin.com/xmlschemas/TrackPointExtension/v1">
            <gpxtpx:hr>153</gpxtpx:hr>
          </gpxtpx:TrackPointExtension>
        </extensions>
      </trkpt>
      <trkpt lat="46.51295" lon="0.29557">
        <ele>136.39999389648</ele>
        <time>2020-06-13T22:11:46.058Z</time>
        <extensions>
          <gpxtpx:TrackPointExtension xmlns:gpxtpx="http://www.garmin.com/xmlschemas/TrackPointExtension/v1">
            <gpxtpx:hr>154</gpxtpx:hr>
          </gpxtpx:TrackPointExtension>
        </extensions>
      </trkpt>
      <trkpt lat="46.51301" lon="0.29565">
        <ele>136.39999389648</ele>
        <time>2020-06-13T22:11:47.625Z</time>
        <extensions>
          <gpxtpx:TrackPointExtension xmlns:gpxtpx="http://www.garmin.com/xmlschemas/TrackPointExtension/v1">
            <gpxtpx:hr>154</gpxtpx:hr>
          </gpxtpx:TrackPointExtension>
        </extensions>
      </trkpt>
      <trkpt lat="46.51305" lon="0.29571">
        <ele>136.39999389648</ele>
        <time>2020-06-13T22:11:48.731Z</time>
        <extensions>
          <gpxtpx:TrackPointExtension xmlns:gpxtpx="http://www.garmin.com/xmlschemas/TrackPointExtension/v1">
            <gpxtpx:hr>154</gpxtpx:hr>
          </gpxtpx:TrackPointExtension>
        </extensions>
      </trkpt>
      <trkpt lat="46.5131" lon="0.29577">
        <ele>136.39999389648</ele>
        <time>2020-06-13T22:11:49.979Z</time>
        <extensions>
          <gpxtpx:TrackPointExtension xmlns:gpxtpx="http://www.garmin.com/xmlschemas/TrackPointExtension/v1">
            <gpxtpx:hr>154</gpxtpx:hr>
          </gpxtpx:TrackPointExtension>
        </extensions>
      </trkpt>
      <trkpt lat="46.51338" lon="0.29612">
        <ele>136.80000305176</ele>
        <time>2020-06-13T22:11:57.869Z</time>
        <extensions>
          <gpxtpx:TrackPointExtension xmlns:gpxtpx="http://www.garmin.com/xmlschemas/TrackPointExtension/v1">
            <gpxtpx:hr>154</gpxtpx:hr>
          </gpxtpx:TrackPointExtension>
        </extensions>
      </trkpt>
      <trkpt lat="46.5135" lon="0.29625">
        <ele>136.80000305176</ele>
        <time>2020-06-13T22:12:00.750Z</time>
        <extensions>
          <gpxtpx:TrackPointExtension xmlns:gpxtpx="http://www.garmin.com/xmlschemas/TrackPointExtension/v1">
            <gpxtpx:hr>153</gpxtpx:hr>
          </gpxtpx:TrackPointExtension>
        </extensions>
      </trkpt>
      <trkpt lat="46.51371" lon="0.2965">
        <ele>137</ele>
        <time>2020-06-13T22:12:06.352Z</time>
        <extensions>
          <gpxtpx:TrackPointExtension xmlns:gpxtpx="http://www.garmin.com/xmlschemas/TrackPointExtension/v1">
            <gpxtpx:hr>154</gpxtpx:hr>
          </gpxtpx:TrackPointExtension>
        </extensions>
      </trkpt>
      <trkpt lat="46.51376" lon="0.29657">
        <ele>137</ele>
        <time>2020-06-13T22:12:07.688Z</time>
        <extensions>
          <gpxtpx:TrackPointExtension xmlns:gpxtpx="http://www.garmin.com/xmlschemas/TrackPointExtension/v1">
            <gpxtpx:hr>154</gpxtpx:hr>
          </gpxtpx:TrackPointExtension>
        </extensions>
      </trkpt>
      <trkpt lat="46.51408" lon="0.29709">
        <ele>136.80000305176</ele>
        <time>2020-06-13T22:12:16.372Z</time>
        <extensions>
          <gpxtpx:TrackPointExtension xmlns:gpxtpx="http://www.garmin.com/xmlschemas/TrackPointExtension/v1">
            <gpxtpx:hr>151</gpxtpx:hr>
          </gpxtpx:TrackPointExtension>
        </extensions>
      </trkpt>
      <trkpt lat="46.51419" lon="0.29724">
        <ele>136.80000305176</ele>
        <time>2020-06-13T22:12:19.275Z</time>
        <extensions>
          <gpxtpx:TrackPointExtension xmlns:gpxtpx="http://www.garmin.com/xmlschemas/TrackPointExtension/v1">
            <gpxtpx:hr>150</gpxtpx:hr>
          </gpxtpx:TrackPointExtension>
        </extensions>
      </trkpt>
      <trkpt lat="46.51432" lon="0.29741">
        <ele>137</ele>
        <time>2020-06-13T22:12:23.034Z</time>
        <extensions>
          <gpxtpx:TrackPointExtension xmlns:gpxtpx="http://www.garmin.com/xmlschemas/TrackPointExtension/v1">
            <gpxtpx:hr>147</gpxtpx:hr>
          </gpxtpx:TrackPointExtension>
        </extensions>
      </trkpt>
      <trkpt lat="46.51436" lon="0.29747">
        <ele>137</ele>
        <time>2020-06-13T22:12:24.140Z</time>
        <extensions>
          <gpxtpx:TrackPointExtension xmlns:gpxtpx="http://www.garmin.com/xmlschemas/TrackPointExtension/v1">
            <gpxtpx:hr>147</gpxtpx:hr>
          </gpxtpx:TrackPointExtension>
        </extensions>
      </trkpt>
      <trkpt lat="46.51441" lon="0.29754">
        <ele>137</ele>
        <time>2020-06-13T22:12:25.477Z</time>
        <extensions>
          <gpxtpx:TrackPointExtension xmlns:gpxtpx="http://www.garmin.com/xmlschemas/TrackPointExtension/v1">
            <gpxtpx:hr>147</gpxtpx:hr>
          </gpxtpx:TrackPointExtension>
        </extensions>
      </trkpt>
      <trkpt lat="46.51444" lon="0.2976">
        <ele>137.19999694824</ele>
        <time>2020-06-13T22:12:27.009Z</time>
        <extensions>
          <gpxtpx:TrackPointExtension xmlns:gpxtpx="http://www.garmin.com/xmlschemas/TrackPointExtension/v1">
            <gpxtpx:hr>147</gpxtpx:hr>
          </gpxtpx:TrackPointExtension>
        </extensions>
      </trkpt>
      <trkpt lat="46.51447" lon="0.29766">
        <ele>137.19999694824</ele>
        <time>2020-06-13T22:12:27.991Z</time>
        <extensions>
          <gpxtpx:TrackPointExtension xmlns:gpxtpx="http://www.garmin.com/xmlschemas/TrackPointExtension/v1">
            <gpxtpx:hr>147</gpxtpx:hr>
          </gpxtpx:TrackPointExtension>
          <visugpx:TrkExtension xmlns:visugpx="https://www.visugpx.com/editgpx/">
            <visugpx:node>28</visugpx:node>
            </visugpx:TrkExtension>
        </extensions>
      </trkpt>
      <trkpt lat="46.5144" lon="0.29744">
        <ele>135.433936</ele>
        <time>2020-06-13T22:12:29.531Z</time>
      </trkpt>
      <trkpt lat="46.51443" lon="0.29698">
        <ele>135.472684</ele>
        <time>2020-06-13T22:12:35.719Z</time>
      </trkpt>
      <trkpt lat="46.51464" lon="0.29551">
        <ele>135.361009</ele>
        <time>2020-06-13T22:12:55.278Z</time>
      </trkpt>
      <trkpt lat="46.51469" lon="0.29389">
        <ele>135.027814</ele>
        <time>2020-06-13T22:13:15.814Z</time>
      </trkpt>
      <trkpt lat="46.51459" lon="0.29349">
        <ele>134.78202</ele>
        <time>2020-06-13T22:13:20.252Z</time>
      </trkpt>
      <trkpt lat="46.51442" lon="0.29305">
        <ele>134.480517</ele>
        <time>2020-06-13T22:13:25.493Z</time>
      </trkpt>
      <trkpt lat="46.51433" lon="0.29261">
        <ele>134.211052</ele>
        <time>2020-06-13T22:13:30.271Z</time>
      </trkpt>
      <trkpt lat="46.51431" lon="0.2916">
        <ele>133.593529</ele>
        <time>2020-06-13T22:13:40.739Z</time>
      </trkpt>
      <trkpt lat="46.51408" lon="0.2901">
        <ele>132.446014</ele>
        <time>2020-06-13T22:13:56.248Z</time>
      </trkpt>
      <trkpt lat="46.51401" lon="0.28899">
        <ele>131.444536</ele>
        <time>2020-06-13T22:14:07.180Z</time>
      </trkpt>
      <trkpt lat="46.51403" lon="0.28861">
        <ele>130.84846</ele>
        <time>2020-06-13T22:14:10.507Z</time>
      </trkpt>
      <trkpt lat="46.51423" lon="0.28865">
        <ele>130.370117</ele>
        <time>2020-06-13T22:14:13.040Z</time>
      </trkpt>
      <trkpt lat="46.51464" lon="0.28855">
        <ele>129.408497</ele>
        <time>2020-06-13T22:14:18.290Z</time>
      </trkpt>
      <trkpt lat="46.51588" lon="0.28786">
        <ele>124.812516</ele>
        <time>2020-06-13T22:14:33.129Z</time>
      </trkpt>
      <trkpt lat="46.5168" lon="0.28756">
        <ele>120.009326</ele>
        <time>2020-06-13T22:14:42.186Z</time>
      </trkpt>
      <trkpt lat="46.51758" lon="0.28678">
        <ele>116.101744</ele>
        <time>2020-06-13T22:14:52.106Z</time>
      </trkpt>
      <trkpt lat="46.51772" lon="0.28667">
        <ele>115.524367</ele>
        <time>2020-06-13T22:14:53.856Z</time>
      </trkpt>
      <trkpt lat="46.51777" lon="0.28664">
        <ele>115.329043</ele>
        <time>2020-06-13T22:14:54.451Z</time>
      </trkpt>
      <trkpt lat="46.51803" lon="0.28651">
        <ele>114.336152</ele>
        <time>2020-06-13T22:14:57.479Z</time>
      </trkpt>
      <trkpt lat="46.51808" lon="0.28632">
        <ele>113.840351</ele>
        <time>2020-06-13T22:14:59.030Z</time>
      </trkpt>
      <trkpt lat="46.51789" lon="0.28529">
        <ele>112.241696</ele>
        <time>2020-06-13T22:15:08.439Z</time>
      </trkpt>
      <trkpt lat="46.51786" lon="0.28402">
        <ele>113.777905</ele>
        <time>2020-06-13T22:15:28.494Z</time>
      </trkpt>
      <trkpt lat="46.51846" lon="0.28259">
        <ele>116.650477</ele>
        <time>2020-06-13T22:15:57.234Z</time>
      </trkpt>
      <trkpt lat="46.51825" lon="0.2805">
        <ele>121.994526</ele>
        <time>2020-06-13T22:16:39.407Z</time>
      </trkpt>
      <trkpt lat="46.51837" lon="0.28042">
        <ele>122.414571</ele>
        <time>2020-06-13T22:16:42.993Z</time>
      </trkpt>
      <trkpt lat="46.51986" lon="0.28071">
        <ele>127.370669</ele>
        <time>2020-06-13T22:17:24.438Z</time>
      </trkpt>
      <trkpt lat="46.5199" lon="0.28069">
        <ele>127.499848</ele>
        <time>2020-06-13T22:17:25.568Z</time>
      </trkpt>
      <trkpt lat="46.51991" lon="0.28071">
        <ele>127.576703</ele>
        <time>2020-06-13T22:17:26.123Z</time>
      </trkpt>
      <trkpt lat="46.52014" lon="0.28083">
        <ele>127.881918</ele>
        <time>2020-06-13T22:17:31.433Z</time>
      </trkpt>
      <trkpt lat="46.52021" lon="0.28082">
        <ele>127.960111</ele>
        <time>2020-06-13T22:17:32.940Z</time>
      </trkpt>
      <trkpt lat="46.52071" lon="0.28092">
        <ele>128.502245</ele>
        <time>2020-06-13T22:17:43.712Z</time>
      </trkpt>
      <trkpt lat="46.52079" lon="0.28212">
        <ele>129.403834</ele>
        <time>2020-06-13T22:18:01.441Z</time>
      </trkpt>
      <trkpt lat="46.521" lon="0.28411">
        <ele>128.603534</ele>
        <time>2020-06-13T22:18:25.932Z</time>
      </trkpt>
      <trkpt lat="46.52143" lon="0.2854">
        <ele>128.092994</ele>
        <time>2020-06-13T22:18:43.518Z</time>
      </trkpt>
      <trkpt lat="46.52171" lon="0.28608">
        <ele>128.055234</ele>
        <time>2020-06-13T22:18:53.901Z</time>
      </trkpt>
      <trkpt lat="46.52299" lon="0.28565">
        <ele>129.096701</ele>
        <time>2020-06-13T22:19:21.162Z</time>
      </trkpt>
      <trkpt lat="46.52382" lon="0.28565">
        <ele>131.10226</ele>
        <time>2020-06-13T22:19:41.674Z</time>
      </trkpt>
      <trkpt lat="46.52415" lon="0.28581">
        <ele>131.934919</ele>
        <time>2020-06-13T22:19:50.249Z</time>
      </trkpt>
      <trkpt lat="46.52452" lon="0.28584">
        <ele>133.05809</ele>
        <time>2020-06-13T22:20:00.120Z</time>
      </trkpt>
      <trkpt lat="46.52517" lon="0.28547">
        <ele>135.446643</ele>
        <time>2020-06-13T22:20:19.686Z</time>
      </trkpt>
      <trkpt lat="46.5255" lon="0.28537">
        <ele>136.632284</ele>
        <time>2020-06-13T22:20:29.256Z</time>
      </trkpt>
      <trkpt lat="46.52747" lon="0.28504">
        <ele>141.469971</ele>
        <time>2020-06-13T22:21:18.399Z</time>
      </trkpt>
      <trkpt lat="46.52822" lon="0.28476">
        <ele>141.777917</ele>
        <time>2020-06-13T22:21:33.864Z</time>
      </trkpt>
      <trkpt lat="46.52826" lon="0.28453">
        <ele>141.585537</ele>
        <time>2020-06-13T22:21:36.228Z</time>
      </trkpt>
      <trkpt lat="46.52902" lon="0.2849">
        <ele>140.638602</ele>
        <time>2020-06-13T22:21:47.835Z</time>
      </trkpt>
      <trkpt lat="46.52947" lon="0.28504">
        <ele>140.091457</ele>
        <time>2020-06-13T22:21:54.492Z</time>
      </trkpt>
      <trkpt lat="46.52971" lon="0.285">
        <ele>139.749786</ele>
        <time>2020-06-13T22:21:57.888Z</time>
      </trkpt>
      <trkpt lat="46.52996" lon="0.28487">
        <ele>139.361289</ele>
        <time>2020-06-13T22:22:01.597Z</time>
      </trkpt>
      <trkpt lat="46.53055" lon="0.28439">
        <ele>138.394041</ele>
        <time>2020-06-13T22:22:11.082Z</time>
      </trkpt>
      <trkpt lat="46.53068" lon="0.28416">
        <ele>138.099497</ele>
        <time>2020-06-13T22:22:13.952Z</time>
      </trkpt>
      <trkpt lat="46.53083" lon="0.28372">
        <ele>137.617503</ele>
        <time>2020-06-13T22:22:18.693Z</time>
      </trkpt>
      <trkpt lat="46.53086" lon="0.28363">
        <ele>137.568856</ele>
        <time>2020-06-13T22:22:19.888Z</time>
      </trkpt>
      <trkpt lat="46.53047" lon="0.28342">
        <ele>138.468152</ele>
        <time>2020-06-13T22:22:29.868Z</time>
      </trkpt>
      <trkpt lat="46.53019" lon="0.28326">
        <ele>139.097371</ele>
        <time>2020-06-13T22:22:37.030Z</time>
      </trkpt>
      <trkpt lat="46.53016" lon="0.28322">
        <ele>139.196478</ele>
        <time>2020-06-13T22:22:38.038Z</time>
      </trkpt>
      <trkpt lat="46.53011" lon="0.28317">
        <ele>139.317618</ele>
        <time>2020-06-13T22:22:39.467Z</time>
      </trkpt>
      <trkpt lat="46.53006" lon="0.28313">
        <ele>139.456852</ele>
        <time>2020-06-13T22:22:40.881Z</time>
      </trkpt>
      <trkpt lat="46.52993" lon="0.28306">
        <ele>139.746688</ele>
        <time>2020-06-13T22:22:44.181Z</time>
      </trkpt>
      <trkpt lat="46.52987" lon="0.28302">
        <ele>139.883613</ele>
        <time>2020-06-13T22:22:45.749Z</time>
      </trkpt>
      <trkpt lat="46.52966" lon="0.28317">
        <ele>140.390316</ele>
        <time>2020-06-13T22:22:51.366Z</time>
      </trkpt>
      <trkpt lat="46.52958" lon="0.28321">
        <ele>140.574635</ele>
        <time>2020-06-13T22:22:53.400Z</time>
      </trkpt>
      <trkpt lat="46.5294" lon="0.28325">
        <ele>140.964464</ele>
        <time>2020-06-13T22:22:57.759Z</time>
      </trkpt>
      <trkpt lat="46.52914" lon="0.28314">
        <ele>141.577133</ele>
        <time>2020-06-13T22:23:04.332Z</time>
      </trkpt>
      <trkpt lat="46.52909" lon="0.2831">
        <ele>141.726829</ele>
        <time>2020-06-13T22:23:05.778Z</time>
      </trkpt>
      <trkpt lat="46.52905" lon="0.28304">
        <ele>141.874469</ele>
        <time>2020-06-13T22:23:07.224Z</time>
      </trkpt>
      <trkpt lat="46.52896" lon="0.28288">
        <ele>142.278969</ele>
        <time>2020-06-13T22:23:10.925Z</time>
      </trkpt>
      <trkpt lat="46.52891" lon="0.28276">
        <ele>142.531654</ele>
        <time>2020-06-13T22:23:13.368Z</time>
      </trkpt>
      <trkpt lat="46.52876" lon="0.28231">
        <ele>143.458642</ele>
        <time>2020-06-13T22:23:22.158Z</time>
      </trkpt>
      <trkpt lat="46.52875" lon="0.28224">
        <ele>143.592195</ele>
        <time>2020-06-13T22:23:23.418Z</time>
      </trkpt>
      <trkpt lat="46.52873" lon="0.28203">
        <ele>143.996496</ele>
        <time>2020-06-13T22:23:27.180Z</time>
      </trkpt>
      <trkpt lat="46.52863" lon="0.28156">
        <ele>144.904791</ele>
        <time>2020-06-13T22:23:35.816Z</time>
      </trkpt>
      <trkpt lat="46.52865" lon="0.2813">
        <ele>145.392072</ele>
        <time>2020-06-13T22:23:40.422Z</time>
      </trkpt>
      <trkpt lat="46.52867" lon="0.28124">
        <ele>145.523626</ele>
        <time>2020-06-13T22:23:41.619Z</time>
      </trkpt>
      <trkpt lat="46.52856" lon="0.28098">
        <ele>146.082187</ele>
        <time>2020-06-13T22:23:46.962Z</time>
      </trkpt>
      <trkpt lat="46.52847" lon="0.28078">
        <ele>146.411172</ele>
        <time>2020-06-13T22:23:50.836Z</time>
      </trkpt>
      <trkpt lat="46.52763" lon="0.27796">
        <ele>148.798096</ele>
        <time>2020-06-13T22:24:36.214Z</time>
      </trkpt>
      <trkpt lat="46.52763" lon="0.27788">
        <ele>148.792453</ele>
        <time>2020-06-13T22:24:37.257Z</time>
      </trkpt>
      <trkpt lat="46.52767" lon="0.2778">
        <ele>148.786287</ele>
        <time>2020-06-13T22:24:38.548Z</time>
      </trkpt>
      <trkpt lat="46.52771" lon="0.27756">
        <ele>148.769703</ele>
        <time>2020-06-13T22:24:41.769Z</time>
      </trkpt>
      <trkpt lat="46.5277" lon="0.27748">
        <ele>148.764422</ele>
        <time>2020-06-13T22:24:42.830Z</time>
      </trkpt>
      <trkpt lat="46.52773" lon="0.27736">
        <ele>148.756335</ele>
        <time>2020-06-13T22:24:44.497Z</time>
      </trkpt>
      <trkpt lat="46.52776" lon="0.27728">
        <ele>148.750378</ele>
        <time>2020-06-13T22:24:45.686Z</time>
      </trkpt>
      <trkpt lat="46.52779" lon="0.2772">
        <ele>148.744328</ele>
        <time>2020-06-13T22:24:46.875Z</time>
      </trkpt>
      <trkpt lat="46.52791" lon="0.27706">
        <ele>148.729131</ele>
        <time>2020-06-13T22:24:49.792Z</time>
      </trkpt>
      <trkpt lat="46.52807" lon="0.27688">
        <ele>148.710324</ele>
        <time>2020-06-13T22:24:53.631Z</time>
      </trkpt>
      <trkpt lat="46.52856" lon="0.27632">
        <ele>148.443436</ele>
        <time>2020-06-13T22:25:04.888Z</time>
      </trkpt>
      <trkpt lat="46.52865" lon="0.27627">
        <ele>148.290179</ele>
        <time>2020-06-13T22:25:06.213Z</time>
      </trkpt>
      <trkpt lat="46.5287" lon="0.27628">
        <ele>148.219942</ele>
        <time>2020-06-13T22:25:06.924Z</time>
      </trkpt>
      <trkpt lat="46.5287" lon="0.27628">
        <ele>148.219942</ele>
        <time>2020-06-13T22:25:06.924Z</time>
      </trkpt>
      <trkpt lat="46.5287" lon="0.27628">
        <ele>148.219942</ele>
        <time>2020-06-13T22:25:06.924Z</time>
      </trkpt>
      <trkpt lat="46.52911" lon="0.27678">
        <ele>147.417776</ele>
        <time>2020-06-13T22:25:14.368Z</time>
      </trkpt>
      <trkpt lat="46.52976" lon="0.27758">
        <ele>146.132499</ele>
        <time>2020-06-13T22:25:26.199Z</time>
      </trkpt>
      <trkpt lat="46.52988" lon="0.27772">
        <ele>145.882635</ele>
        <time>2020-06-13T22:25:28.306Z</time>
      </trkpt>
      <trkpt lat="46.53031" lon="0.27825">
        <ele>144.710453</ele>
        <time>2020-06-13T22:25:35.619Z</time>
      </trkpt>
      <trkpt lat="46.53034" lon="0.27829">
        <ele>144.627293</ele>
        <time>2020-06-13T22:25:36.149Z</time>
      </trkpt>
      <trkpt lat="46.53036" lon="0.27834">
        <ele>144.544905</ele>
        <time>2020-06-13T22:25:36.666Z</time>
      </trkpt>
      <trkpt lat="46.53072" lon="0.27804">
        <ele>143.677891</ele>
        <time>2020-06-13T22:25:42.042Z</time>
      </trkpt>
      <trkpt lat="46.53199" lon="0.27697">
        <ele>141.085751</ele>
        <time>2020-06-13T22:26:01.801Z</time>
      </trkpt>
      <trkpt lat="46.53205" lon="0.27692">
        <ele>140.988826</ele>
        <time>2020-06-13T22:26:02.774Z</time>
      </trkpt>
      <trkpt lat="46.53226" lon="0.27676">
        <ele>140.632956</ele>
        <time>2020-06-13T22:26:06.071Z</time>
      </trkpt>
      <trkpt lat="46.53237" lon="0.27666">
        <ele>140.435288</ele>
        <time>2020-06-13T22:26:07.870Z</time>
      </trkpt>
      <trkpt lat="46.5324" lon="0.27663">
        <ele>140.383362</ele>
        <time>2020-06-13T22:26:08.381Z</time>
      </trkpt>
      <trkpt lat="46.53268" lon="0.27659">
        <ele>139.963077</ele>
        <time>2020-06-13T22:26:12.297Z</time>
      </trkpt>
      <trkpt lat="46.53276" lon="0.27663">
        <ele>139.837303</ele>
        <time>2020-06-13T22:26:13.475Z</time>
      </trkpt>
      <trkpt lat="46.53289" lon="0.2767">
        <ele>139.637785</ele>
        <time>2020-06-13T22:26:15.418Z</time>
      </trkpt>
      <trkpt lat="46.53291" lon="0.27666">
        <ele>139.59395</ele>
        <time>2020-06-13T22:26:15.904Z</time>
      </trkpt>
      <trkpt lat="46.53294" lon="0.27658">
        <ele>139.452244</ele>
        <time>2020-06-13T22:26:16.700Z</time>
      </trkpt>
      <trkpt lat="46.53299" lon="0.27651">
        <ele>139.296823</ele>
        <time>2020-06-13T22:26:17.584Z</time>
      </trkpt>
      <trkpt lat="46.53304" lon="0.27648">
        <ele>139.166578</ele>
        <time>2020-06-13T22:26:18.260Z</time>
      </trkpt>
      <trkpt lat="46.53315" lon="0.27647">
        <ele>138.914045</ele>
        <time>2020-06-13T22:26:19.655Z</time>
      </trkpt>
      <trkpt lat="46.5332" lon="0.27637">
        <ele>138.689876</ele>
        <time>2020-06-13T22:26:20.691Z</time>
      </trkpt>
      <trkpt lat="46.53318" lon="0.27593">
        <ele>137.972611</ele>
        <time>2020-06-13T22:26:24.499Z</time>
      </trkpt>
      <trkpt lat="46.53304" lon="0.27523">
        <ele>136.781869</ele>
        <time>2020-06-13T22:26:30.788Z</time>
      </trkpt>
      <trkpt lat="46.53303" lon="0.27442">
        <ele>135.451211</ele>
        <time>2020-06-13T22:26:37.767Z</time>
      </trkpt>
      <trkpt lat="46.53305" lon="0.2743">
        <ele>135.236743</ele>
        <time>2020-06-13T22:26:38.814Z</time>
      </trkpt>
      <trkpt lat="46.53319" lon="0.27415">
        <ele>134.708153</ele>
        <time>2020-06-13T22:26:40.844Z</time>
      </trkpt>
      <trkpt lat="46.53325" lon="0.27408">
        <ele>134.491718</ele>
        <time>2020-06-13T22:26:41.763Z</time>
      </trkpt>
      <trkpt lat="46.53324" lon="0.27381">
        <ele>133.916903</ele>
        <time>2020-06-13T22:26:43.922Z</time>
      </trkpt>
      <trkpt lat="46.5326" lon="0.27282">
        <ele>131.074135</ele>
        <time>2020-06-13T22:26:54.825Z</time>
      </trkpt>
      <trkpt lat="46.53258" lon="0.27279">
        <ele>130.989091</ele>
        <time>2020-06-13T22:26:55.163Z</time>
      </trkpt>
      <trkpt lat="46.53258" lon="0.27274">
        <ele>130.891697</ele>
        <time>2020-06-13T22:26:55.573Z</time>
      </trkpt>
      <trkpt lat="46.53272" lon="0.27233">
        <ele>129.939368</ele>
        <time>2020-06-13T22:26:59.254Z</time>
      </trkpt>
      <trkpt lat="46.53264" lon="0.27177">
        <ele>130.416229</ele>
        <time>2020-06-13T22:27:07.771Z</time>
      </trkpt>
      <trkpt lat="46.53291" lon="0.27101">
        <ele>131.503569</ele>
        <time>2020-06-13T22:27:21.402Z</time>
      </trkpt>
      <trkpt lat="46.53326" lon="0.27054">
        <ele>132.37512</ele>
        <time>2020-06-13T22:27:32.417Z</time>
      </trkpt>
      <trkpt lat="46.53376" lon="0.27025">
        <ele>133.630983</ele>
        <time>2020-06-13T22:27:45.591Z</time>
      </trkpt>
      <trkpt lat="46.53407" lon="0.26996">
        <ele>134.972174</ele>
        <time>2020-06-13T22:27:56.231Z</time>
      </trkpt>
      <trkpt lat="46.53408" lon="0.26994">
        <ele>135.017665</ele>
        <time>2020-06-13T22:27:56.665Z</time>
      </trkpt>
      <trkpt lat="46.53406" lon="0.26992">
        <ele>135.10142</ele>
        <time>2020-06-13T22:27:57.348Z</time>
      </trkpt>
      <trkpt lat="46.5341" lon="0.26974">
        <ele>135.576008</ele>
        <time>2020-06-13T22:28:01.108Z</time>
      </trkpt>
      <trkpt lat="46.53417" lon="0.26933">
        <ele>136.640987</ele>
        <time>2020-06-13T22:28:09.526Z</time>
      </trkpt>
      <trkpt lat="46.53421" lon="0.26904">
        <ele>137.378317</ele>
        <time>2020-06-13T22:28:15.387Z</time>
      </trkpt>
      <trkpt lat="46.53425" lon="0.26905">
        <ele>137.517316</ele>
        <time>2020-06-13T22:28:16.525Z</time>
      </trkpt>
      <trkpt lat="46.53444" lon="0.26899">
        <ele>138.222356</ele>
        <time>2020-06-13T22:28:22.128Z</time>
      </trkpt>
      <trkpt lat="46.5345" lon="0.26901">
        <ele>138.46001</ele>
        <time>2020-06-13T22:28:23.960Z</time>
      </trkpt>
      <trkpt lat="46.53456" lon="0.26883">
        <ele>138.963825</ele>
        <time>2020-06-13T22:28:27.944Z</time>
      </trkpt>
      <trkpt lat="46.53471" lon="0.26821">
        <ele>140.088731</ele>
        <time>2020-06-13T22:28:39.213Z</time>
      </trkpt>
      <trkpt lat="46.53481" lon="0.26796">
        <ele>140.444682</ele>
        <time>2020-06-13T22:28:43.792Z</time>
      </trkpt>
      <trkpt lat="46.53489" lon="0.2679">
        <ele>140.594698</ele>
        <time>2020-06-13T22:28:45.836Z</time>
      </trkpt>
      <trkpt lat="46.53516" lon="0.26749">
        <ele>141.286938</ele>
        <time>2020-06-13T22:28:54.807Z</time>
      </trkpt>
      <trkpt lat="46.5352" lon="0.26744">
        <ele>141.382556</ele>
        <time>2020-06-13T22:28:56.024Z</time>
      </trkpt>
      <trkpt lat="46.53518" lon="0.2674">
        <ele>141.445001</ele>
        <time>2020-06-13T22:28:56.811Z</time>
      </trkpt>
      <trkpt lat="46.53502" lon="0.26703">
        <ele>141.96849</ele>
        <time>2020-06-13T22:29:03.694Z</time>
      </trkpt>
      <trkpt lat="46.53488" lon="0.26684">
        <ele>142.304761</ele>
        <time>2020-06-13T22:29:08.086Z</time>
      </trkpt>
      <trkpt lat="46.53482" lon="0.26678">
        <ele>142.43676</ele>
        <time>2020-06-13T22:29:09.767Z</time>
      </trkpt>
      <trkpt lat="46.53484" lon="0.26671">
        <ele>142.538113</ele>
        <time>2020-06-13T22:29:10.987Z</time>
        <extensions>
          <visugpx:TrkExtension xmlns:visugpx="https://www.visugpx.com/editgpx/">
            <visugpx:node>27</visugpx:node>
            </visugpx:TrkExtension>
        </extensions>
      </trkpt>
    </trkseg>
  </trk>
</gpx>